<?xml version="1.0" encoding="UTF-8" standalone="no" ?>
<gpx xmlns="http://www.topografix.com/GPX/1/1" xmlns:xsi="http://www.w3.org/2001/XMLSchema-instance" xsi:schemaLocation="http://www.topografix.com/GPX/1/1 http://www.topografix.com/GPX/1/1/gpx.xsd" version="1.1" creator="VisuGPX - https://www.visugpx.com">
  <metadata>
    <name>ski rando COMBE BENITE NE(2575m) CRET DU REY (2633m)</name>
  </metadata>
  <trk>
    <name><![CDATA[ski rando COMBE BENITE NE(2575m) CRET DU REY (2633m)]]></name>
    <trkseg>
      <trkpt lat="45.5806" lon="6.65236">
        <ele>1409</ele>
        <time>2015-04-07T06:36:56.000Z</time>
      </trkpt>
      <trkpt lat="45.58067" lon="6.65233">
        <ele>1409.4000244141</ele>
        <time>2015-04-07T06:37:15.000Z</time>
      </trkpt>
      <trkpt lat="45.58068" lon="6.65232">
        <ele>1409.5999755859</ele>
        <time>2015-04-07T06:37:19.000Z</time>
      </trkpt>
      <trkpt lat="45.58075" lon="6.65228">
        <ele>1410</ele>
        <time>2015-04-07T06:37:27.000Z</time>
      </trkpt>
      <trkpt lat="45.58076" lon="6.65227">
        <ele>1410.1999511719</ele>
        <time>2015-04-07T06:37:28.000Z</time>
      </trkpt>
      <trkpt lat="45.58084" lon="6.65222">
        <ele>1410.5999755859</ele>
        <time>2015-04-07T06:37:36.000Z</time>
      </trkpt>
      <trkpt lat="45.5809" lon="6.65218">
        <ele>1411.1999511719</ele>
        <time>2015-04-07T06:37:40.000Z</time>
      </trkpt>
      <trkpt lat="45.58094" lon="6.65215">
        <ele>1412</ele>
        <time>2015-04-07T06:37:44.000Z</time>
      </trkpt>
      <trkpt lat="45.58096" lon="6.65214">
        <ele>1412.5999755859</ele>
        <time>2015-04-07T06:37:46.000Z</time>
      </trkpt>
      <trkpt lat="45.581" lon="6.6521">
        <ele>1413.4000244141</ele>
        <time>2015-04-07T06:37:51.000Z</time>
      </trkpt>
      <trkpt lat="45.58105" lon="6.65208">
        <ele>1413.1999511719</ele>
        <time>2015-04-07T06:37:56.000Z</time>
      </trkpt>
      <trkpt lat="45.58106" lon="6.65208">
        <ele>1413.4000244141</ele>
        <time>2015-04-07T06:37:58.000Z</time>
      </trkpt>
      <trkpt lat="45.58107" lon="6.65207">
        <ele>1413.5999755859</ele>
        <time>2015-04-07T06:37:59.000Z</time>
      </trkpt>
      <trkpt lat="45.58111" lon="6.65205">
        <ele>1414.5999755859</ele>
        <time>2015-04-07T06:38:03.000Z</time>
      </trkpt>
      <trkpt lat="45.58111" lon="6.65204">
        <ele>1414.8000488281</ele>
        <time>2015-04-07T06:38:04.000Z</time>
      </trkpt>
      <trkpt lat="45.58115" lon="6.65198">
        <ele>1415.8000488281</ele>
        <time>2015-04-07T06:38:09.000Z</time>
      </trkpt>
      <trkpt lat="45.58119" lon="6.65195">
        <ele>1416.5999755859</ele>
        <time>2015-04-07T06:38:12.000Z</time>
      </trkpt>
      <trkpt lat="45.58121" lon="6.65194">
        <ele>1416.8000488281</ele>
        <time>2015-04-07T06:38:14.000Z</time>
      </trkpt>
      <trkpt lat="45.58125" lon="6.6519">
        <ele>1417.1999511719</ele>
        <time>2015-04-07T06:38:18.000Z</time>
      </trkpt>
      <trkpt lat="45.58127" lon="6.65188">
        <ele>1417.8000488281</ele>
        <time>2015-04-07T06:38:20.000Z</time>
      </trkpt>
      <trkpt lat="45.58131" lon="6.65186">
        <ele>1418.5999755859</ele>
        <time>2015-04-07T06:38:24.000Z</time>
      </trkpt>
      <trkpt lat="45.58133" lon="6.65185">
        <ele>1419</ele>
        <time>2015-04-07T06:38:26.000Z</time>
      </trkpt>
      <trkpt lat="45.58136" lon="6.65184">
        <ele>1420</ele>
        <time>2015-04-07T06:38:30.000Z</time>
      </trkpt>
      <trkpt lat="45.58138" lon="6.65183">
        <ele>1420</ele>
        <time>2015-04-07T06:38:31.000Z</time>
      </trkpt>
      <trkpt lat="45.58143" lon="6.6518">
        <ele>1421</ele>
        <time>2015-04-07T06:38:36.000Z</time>
      </trkpt>
      <trkpt lat="45.58143" lon="6.65179">
        <ele>1421</ele>
        <time>2015-04-07T06:38:37.000Z</time>
      </trkpt>
      <trkpt lat="45.58148" lon="6.65179">
        <ele>1421.8000488281</ele>
        <time>2015-04-07T06:38:42.000Z</time>
      </trkpt>
      <trkpt lat="45.58148" lon="6.65181">
        <ele>1422</ele>
        <time>2015-04-07T06:38:44.000Z</time>
      </trkpt>
      <trkpt lat="45.5815" lon="6.65182">
        <ele>1422.1999511719</ele>
        <time>2015-04-07T06:38:47.000Z</time>
      </trkpt>
      <trkpt lat="45.58152" lon="6.65176">
        <ele>1423</ele>
        <time>2015-04-07T06:38:55.000Z</time>
      </trkpt>
      <trkpt lat="45.58153" lon="6.65175">
        <ele>1423</ele>
        <time>2015-04-07T06:38:56.000Z</time>
      </trkpt>
      <trkpt lat="45.58159" lon="6.65172">
        <ele>1423.5999755859</ele>
        <time>2015-04-07T06:39:01.000Z</time>
      </trkpt>
      <trkpt lat="45.58162" lon="6.65171">
        <ele>1424.1999511719</ele>
        <time>2015-04-07T06:39:04.000Z</time>
      </trkpt>
      <trkpt lat="45.58166" lon="6.65168">
        <ele>1424.8000488281</ele>
        <time>2015-04-07T06:39:08.000Z</time>
      </trkpt>
      <trkpt lat="45.58168" lon="6.65167">
        <ele>1425.4000244141</ele>
        <time>2015-04-07T06:39:10.000Z</time>
      </trkpt>
      <trkpt lat="45.58171" lon="6.65165">
        <ele>1426.4000244141</ele>
        <time>2015-04-07T06:39:14.000Z</time>
      </trkpt>
      <trkpt lat="45.58179" lon="6.65164">
        <ele>1427.4000244141</ele>
        <time>2015-04-07T06:39:20.000Z</time>
      </trkpt>
      <trkpt lat="45.5818" lon="6.65164">
        <ele>1427.5999755859</ele>
        <time>2015-04-07T06:39:21.000Z</time>
      </trkpt>
      <trkpt lat="45.58181" lon="6.65163">
        <ele>1427.8000488281</ele>
        <time>2015-04-07T06:39:22.000Z</time>
      </trkpt>
      <trkpt lat="45.58185" lon="6.65163">
        <ele>1428.5999755859</ele>
        <time>2015-04-07T06:39:25.000Z</time>
      </trkpt>
      <trkpt lat="45.58186" lon="6.65162">
        <ele>1429</ele>
        <time>2015-04-07T06:39:27.000Z</time>
      </trkpt>
      <trkpt lat="45.58188" lon="6.65161">
        <ele>1429.8000488281</ele>
        <time>2015-04-07T06:39:30.000Z</time>
      </trkpt>
      <trkpt lat="45.58193" lon="6.65159">
        <ele>1430.5999755859</ele>
        <time>2015-04-07T06:39:35.000Z</time>
      </trkpt>
      <trkpt lat="45.58193" lon="6.65158">
        <ele>1431</ele>
        <time>2015-04-07T06:39:36.000Z</time>
      </trkpt>
      <trkpt lat="45.58198" lon="6.65157">
        <ele>1432</ele>
        <time>2015-04-07T06:39:41.000Z</time>
      </trkpt>
      <trkpt lat="45.582" lon="6.65155">
        <ele>1432.4000244141</ele>
        <time>2015-04-07T06:39:43.000Z</time>
      </trkpt>
      <trkpt lat="45.58203" lon="6.65152">
        <ele>1433.1999511719</ele>
        <time>2015-04-07T06:39:47.000Z</time>
      </trkpt>
      <trkpt lat="45.58205" lon="6.6515">
        <ele>1433.8000488281</ele>
        <time>2015-04-07T06:39:50.000Z</time>
      </trkpt>
      <trkpt lat="45.5821" lon="6.65147">
        <ele>1434.1999511719</ele>
        <time>2015-04-07T06:39:55.000Z</time>
      </trkpt>
      <trkpt lat="45.58212" lon="6.65146">
        <ele>1434.5999755859</ele>
        <time>2015-04-07T06:39:57.000Z</time>
      </trkpt>
      <trkpt lat="45.58218" lon="6.65143">
        <ele>1435.4000244141</ele>
        <time>2015-04-07T06:40:02.000Z</time>
      </trkpt>
      <trkpt lat="45.5822" lon="6.65143">
        <ele>1435.8000488281</ele>
        <time>2015-04-07T06:40:04.000Z</time>
      </trkpt>
      <trkpt lat="45.58223" lon="6.65144">
        <ele>1436.1999511719</ele>
        <time>2015-04-07T06:40:07.000Z</time>
      </trkpt>
      <trkpt lat="45.58224" lon="6.65145">
        <ele>1436.5999755859</ele>
        <time>2015-04-07T06:40:09.000Z</time>
      </trkpt>
      <trkpt lat="45.58226" lon="6.65145">
        <ele>1436.8000488281</ele>
        <time>2015-04-07T06:40:10.000Z</time>
      </trkpt>
      <trkpt lat="45.58229" lon="6.65146">
        <ele>1437.5999755859</ele>
        <time>2015-04-07T06:40:13.000Z</time>
      </trkpt>
      <trkpt lat="45.58234" lon="6.65148">
        <ele>1438</ele>
        <time>2015-04-07T06:40:18.000Z</time>
      </trkpt>
      <trkpt lat="45.5824" lon="6.65147">
        <ele>1438.8000488281</ele>
        <time>2015-04-07T06:40:24.000Z</time>
      </trkpt>
      <trkpt lat="45.58247" lon="6.65146">
        <ele>1439.8000488281</ele>
        <time>2015-04-07T06:40:31.000Z</time>
      </trkpt>
      <trkpt lat="45.58253" lon="6.65145">
        <ele>1441</ele>
        <time>2015-04-07T06:40:38.000Z</time>
      </trkpt>
      <trkpt lat="45.58261" lon="6.65142">
        <ele>1441.8000488281</ele>
        <time>2015-04-07T06:40:45.000Z</time>
      </trkpt>
      <trkpt lat="45.58263" lon="6.65142">
        <ele>1442</ele>
        <time>2015-04-07T06:40:46.000Z</time>
      </trkpt>
      <trkpt lat="45.58269" lon="6.65142">
        <ele>1443.1999511719</ele>
        <time>2015-04-07T06:40:52.000Z</time>
      </trkpt>
      <trkpt lat="45.58276" lon="6.65142">
        <ele>1444.4000244141</ele>
        <time>2015-04-07T06:41:00.000Z</time>
      </trkpt>
      <trkpt lat="45.5828" lon="6.6514">
        <ele>1445.4000244141</ele>
        <time>2015-04-07T06:41:05.000Z</time>
      </trkpt>
      <trkpt lat="45.58282" lon="6.6514">
        <ele>1445.5999755859</ele>
        <time>2015-04-07T06:41:08.000Z</time>
      </trkpt>
      <trkpt lat="45.58287" lon="6.65141">
        <ele>1446.4000244141</ele>
        <time>2015-04-07T06:41:15.000Z</time>
      </trkpt>
      <trkpt lat="45.58294" lon="6.65142">
        <ele>1447.4000244141</ele>
        <time>2015-04-07T06:41:22.000Z</time>
      </trkpt>
      <trkpt lat="45.58296" lon="6.65142">
        <ele>1447.5999755859</ele>
        <time>2015-04-07T06:41:23.000Z</time>
      </trkpt>
      <trkpt lat="45.58302" lon="6.65143">
        <ele>1448.5999755859</ele>
        <time>2015-04-07T06:41:29.000Z</time>
      </trkpt>
      <trkpt lat="45.58303" lon="6.65142">
        <ele>1448.8000488281</ele>
        <time>2015-04-07T06:41:30.000Z</time>
      </trkpt>
      <trkpt lat="45.58311" lon="6.6514">
        <ele>1449.8000488281</ele>
        <time>2015-04-07T06:41:37.000Z</time>
      </trkpt>
      <trkpt lat="45.58318" lon="6.65143">
        <ele>1450.8000488281</ele>
        <time>2015-04-07T06:41:44.000Z</time>
      </trkpt>
      <trkpt lat="45.58323" lon="6.65145">
        <ele>1451.8000488281</ele>
        <time>2015-04-07T06:41:49.000Z</time>
      </trkpt>
      <trkpt lat="45.58324" lon="6.65145">
        <ele>1452</ele>
        <time>2015-04-07T06:41:50.000Z</time>
      </trkpt>
      <trkpt lat="45.58326" lon="6.65145">
        <ele>1452.1999511719</ele>
        <time>2015-04-07T06:41:52.000Z</time>
      </trkpt>
      <trkpt lat="45.5833" lon="6.65149">
        <ele>1453.1999511719</ele>
        <time>2015-04-07T06:41:57.000Z</time>
      </trkpt>
      <trkpt lat="45.58331" lon="6.6515">
        <ele>1453.4000244141</ele>
        <time>2015-04-07T06:41:58.000Z</time>
      </trkpt>
      <trkpt lat="45.58334" lon="6.65153">
        <ele>1454.1999511719</ele>
        <time>2015-04-07T06:42:02.000Z</time>
      </trkpt>
      <trkpt lat="45.58337" lon="6.65152">
        <ele>1454.5999755859</ele>
        <time>2015-04-07T06:42:05.000Z</time>
      </trkpt>
      <trkpt lat="45.5834" lon="6.65152">
        <ele>1455.1999511719</ele>
        <time>2015-04-07T06:42:09.000Z</time>
      </trkpt>
      <trkpt lat="45.58345" lon="6.65152">
        <ele>1456.1999511719</ele>
        <time>2015-04-07T06:42:13.000Z</time>
      </trkpt>
      <trkpt lat="45.58345" lon="6.65151">
        <ele>1456.4000244141</ele>
        <time>2015-04-07T06:42:14.000Z</time>
      </trkpt>
      <trkpt lat="45.58352" lon="6.6515">
        <ele>1457.4000244141</ele>
        <time>2015-04-07T06:42:20.000Z</time>
      </trkpt>
      <trkpt lat="45.58353" lon="6.6515">
        <ele>1457.4000244141</ele>
        <time>2015-04-07T06:42:21.000Z</time>
      </trkpt>
      <trkpt lat="45.58357" lon="6.65149">
        <ele>1457.8000488281</ele>
        <time>2015-04-07T06:42:25.000Z</time>
      </trkpt>
      <trkpt lat="45.5836" lon="6.65149">
        <ele>1458.1999511719</ele>
        <time>2015-04-07T06:42:28.000Z</time>
      </trkpt>
      <trkpt lat="45.58361" lon="6.65149">
        <ele>1458.4000244141</ele>
        <time>2015-04-07T06:42:29.000Z</time>
      </trkpt>
      <trkpt lat="45.58367" lon="6.6515">
        <ele>1459.4000244141</ele>
        <time>2015-04-07T06:42:34.000Z</time>
      </trkpt>
      <trkpt lat="45.58373" lon="6.65151">
        <ele>1460</ele>
        <time>2015-04-07T06:42:38.000Z</time>
      </trkpt>
      <trkpt lat="45.58375" lon="6.65151">
        <ele>1460.4000244141</ele>
        <time>2015-04-07T06:42:40.000Z</time>
      </trkpt>
      <trkpt lat="45.5838" lon="6.65149">
        <ele>1461.5999755859</ele>
        <time>2015-04-07T06:42:45.000Z</time>
      </trkpt>
      <trkpt lat="45.58386" lon="6.65147">
        <ele>1462.5999755859</ele>
        <time>2015-04-07T06:42:50.000Z</time>
      </trkpt>
      <trkpt lat="45.58387" lon="6.65147">
        <ele>1462.8000488281</ele>
        <time>2015-04-07T06:42:51.000Z</time>
      </trkpt>
      <trkpt lat="45.58393" lon="6.65145">
        <ele>1463.8000488281</ele>
        <time>2015-04-07T06:42:57.000Z</time>
      </trkpt>
      <trkpt lat="45.58395" lon="6.65145">
        <ele>1464.4000244141</ele>
        <time>2015-04-07T06:42:59.000Z</time>
      </trkpt>
      <trkpt lat="45.58398" lon="6.65146">
        <ele>1465</ele>
        <time>2015-04-07T06:43:02.000Z</time>
      </trkpt>
      <trkpt lat="45.58402" lon="6.65147">
        <ele>1466</ele>
        <time>2015-04-07T06:43:07.000Z</time>
      </trkpt>
      <trkpt lat="45.58405" lon="6.65149">
        <ele>1466.4000244141</ele>
        <time>2015-04-07T06:43:09.000Z</time>
      </trkpt>
      <trkpt lat="45.58407" lon="6.65149">
        <ele>1467</ele>
        <time>2015-04-07T06:43:12.000Z</time>
      </trkpt>
      <trkpt lat="45.58412" lon="6.65152">
        <ele>1468</ele>
        <time>2015-04-07T06:43:18.000Z</time>
      </trkpt>
      <trkpt lat="45.58413" lon="6.65152">
        <ele>1468.1999511719</ele>
        <time>2015-04-07T06:43:19.000Z</time>
      </trkpt>
      <trkpt lat="45.5842" lon="6.65155">
        <ele>1469</ele>
        <time>2015-04-07T06:43:26.000Z</time>
      </trkpt>
      <trkpt lat="45.58421" lon="6.65156">
        <ele>1469.1999511719</ele>
        <time>2015-04-07T06:43:27.000Z</time>
      </trkpt>
      <trkpt lat="45.58426" lon="6.65159">
        <ele>1470.1999511719</ele>
        <time>2015-04-07T06:43:33.000Z</time>
      </trkpt>
      <trkpt lat="45.58428" lon="6.6516">
        <ele>1470.8000488281</ele>
        <time>2015-04-07T06:43:36.000Z</time>
      </trkpt>
      <trkpt lat="45.58435" lon="6.65164">
        <ele>1471.5999755859</ele>
        <time>2015-04-07T06:43:42.000Z</time>
      </trkpt>
      <trkpt lat="45.58438" lon="6.65165">
        <ele>1472.1999511719</ele>
        <time>2015-04-07T06:43:44.000Z</time>
      </trkpt>
      <trkpt lat="45.5844" lon="6.65166">
        <ele>1472.8000488281</ele>
        <time>2015-04-07T06:43:47.000Z</time>
      </trkpt>
      <trkpt lat="45.58444" lon="6.65167">
        <ele>1473.5999755859</ele>
        <time>2015-04-07T06:43:51.000Z</time>
      </trkpt>
      <trkpt lat="45.58444" lon="6.65168">
        <ele>1473.8000488281</ele>
        <time>2015-04-07T06:43:52.000Z</time>
      </trkpt>
      <trkpt lat="45.58451" lon="6.65173">
        <ele>1475</ele>
        <time>2015-04-07T06:43:59.000Z</time>
      </trkpt>
      <trkpt lat="45.58453" lon="6.65174">
        <ele>1475.4000244141</ele>
        <time>2015-04-07T06:44:01.000Z</time>
      </trkpt>
      <trkpt lat="45.58456" lon="6.65174">
        <ele>1475.8000488281</ele>
        <time>2015-04-07T06:44:09.000Z</time>
      </trkpt>
      <trkpt lat="45.58457" lon="6.65174">
        <ele>1476.1999511719</ele>
        <time>2015-04-07T06:44:11.000Z</time>
      </trkpt>
      <trkpt lat="45.58462" lon="6.65174">
        <ele>1477</ele>
        <time>2015-04-07T06:44:16.000Z</time>
      </trkpt>
      <trkpt lat="45.58464" lon="6.65173">
        <ele>1477.4000244141</ele>
        <time>2015-04-07T06:44:18.000Z</time>
      </trkpt>
      <trkpt lat="45.58467" lon="6.65172">
        <ele>1478.1999511719</ele>
        <time>2015-04-07T06:44:23.000Z</time>
      </trkpt>
      <trkpt lat="45.58467" lon="6.65172">
        <ele>1478.4000244141</ele>
        <time>2015-04-07T06:44:24.000Z</time>
      </trkpt>
      <trkpt lat="45.58472" lon="6.65171">
        <ele>1479.4000244141</ele>
        <time>2015-04-07T06:44:30.000Z</time>
      </trkpt>
      <trkpt lat="45.58472" lon="6.65171">
        <ele>1479.5999755859</ele>
        <time>2015-04-07T06:44:31.000Z</time>
      </trkpt>
      <trkpt lat="45.58476" lon="6.65171">
        <ele>1480.4000244141</ele>
        <time>2015-04-07T06:44:37.000Z</time>
      </trkpt>
      <trkpt lat="45.58478" lon="6.65172">
        <ele>1480.8000488281</ele>
        <time>2015-04-07T06:44:40.000Z</time>
      </trkpt>
      <trkpt lat="45.58483" lon="6.6517">
        <ele>1481.5999755859</ele>
        <time>2015-04-07T06:44:45.000Z</time>
      </trkpt>
      <trkpt lat="45.58486" lon="6.65171">
        <ele>1482</ele>
        <time>2015-04-07T06:44:49.000Z</time>
      </trkpt>
      <trkpt lat="45.5849" lon="6.65171">
        <ele>1482.8000488281</ele>
        <time>2015-04-07T06:44:53.000Z</time>
      </trkpt>
      <trkpt lat="45.58494" lon="6.65169">
        <ele>1483.5999755859</ele>
        <time>2015-04-07T06:44:57.000Z</time>
      </trkpt>
      <trkpt lat="45.58495" lon="6.65168">
        <ele>1484</ele>
        <time>2015-04-07T06:44:59.000Z</time>
      </trkpt>
      <trkpt lat="45.585" lon="6.65162">
        <ele>1485</ele>
        <time>2015-04-07T06:45:05.000Z</time>
      </trkpt>
      <trkpt lat="45.58501" lon="6.65162">
        <ele>1485.1999511719</ele>
        <time>2015-04-07T06:45:06.000Z</time>
      </trkpt>
      <trkpt lat="45.58505" lon="6.6516">
        <ele>1486.4000244141</ele>
        <time>2015-04-07T06:45:13.000Z</time>
      </trkpt>
      <trkpt lat="45.58506" lon="6.65159">
        <ele>1486.5999755859</ele>
        <time>2015-04-07T06:45:14.000Z</time>
      </trkpt>
      <trkpt lat="45.58511" lon="6.65156">
        <ele>1487.5999755859</ele>
        <time>2015-04-07T06:45:20.000Z</time>
      </trkpt>
      <trkpt lat="45.58517" lon="6.65153">
        <ele>1488.4000244141</ele>
        <time>2015-04-07T06:45:25.000Z</time>
      </trkpt>
      <trkpt lat="45.58518" lon="6.65153">
        <ele>1488.5999755859</ele>
        <time>2015-04-07T06:45:26.000Z</time>
      </trkpt>
      <trkpt lat="45.58523" lon="6.6515">
        <ele>1489.5999755859</ele>
        <time>2015-04-07T06:45:33.000Z</time>
      </trkpt>
      <trkpt lat="45.58526" lon="6.65148">
        <ele>1490.1999511719</ele>
        <time>2015-04-07T06:45:37.000Z</time>
      </trkpt>
      <trkpt lat="45.58529" lon="6.65146">
        <ele>1490.8000488281</ele>
        <time>2015-04-07T06:45:43.000Z</time>
      </trkpt>
      <trkpt lat="45.58529" lon="6.65146">
        <ele>1491</ele>
        <time>2015-04-07T06:45:45.000Z</time>
      </trkpt>
      <trkpt lat="45.58534" lon="6.65141">
        <ele>1491.8000488281</ele>
        <time>2015-04-07T06:45:49.000Z</time>
      </trkpt>
      <trkpt lat="45.58538" lon="6.65138">
        <ele>1492.8000488281</ele>
        <time>2015-04-07T06:45:53.000Z</time>
      </trkpt>
      <trkpt lat="45.58538" lon="6.65138">
        <ele>1493</ele>
        <time>2015-04-07T06:45:54.000Z</time>
      </trkpt>
      <trkpt lat="45.58546" lon="6.65134">
        <ele>1493.8000488281</ele>
        <time>2015-04-07T06:46:01.000Z</time>
      </trkpt>
      <trkpt lat="45.58548" lon="6.65133">
        <ele>1494</ele>
        <time>2015-04-07T06:46:03.000Z</time>
      </trkpt>
      <trkpt lat="45.5855" lon="6.65131">
        <ele>1495</ele>
        <time>2015-04-07T06:46:09.000Z</time>
      </trkpt>
      <trkpt lat="45.5855" lon="6.65131">
        <ele>1495.1999511719</ele>
        <time>2015-04-07T06:46:10.000Z</time>
      </trkpt>
      <trkpt lat="45.5855" lon="6.65131">
        <ele>1495.4000244141</ele>
        <time>2015-04-07T06:46:23.000Z</time>
      </trkpt>
      <trkpt lat="45.58552" lon="6.6513">
        <ele>1495.8000488281</ele>
        <time>2015-04-07T06:46:31.000Z</time>
      </trkpt>
      <trkpt lat="45.58552" lon="6.6513">
        <ele>1496</ele>
        <time>2015-04-07T06:46:47.000Z</time>
      </trkpt>
      <trkpt lat="45.58549" lon="6.65128">
        <ele>1495.8000488281</ele>
        <time>2015-04-07T06:46:56.000Z</time>
      </trkpt>
      <trkpt lat="45.58545" lon="6.65126">
        <ele>1496</ele>
        <time>2015-04-07T06:46:58.000Z</time>
      </trkpt>
      <trkpt lat="45.58543" lon="6.65125">
        <ele>1496</ele>
        <time>2015-04-07T06:46:59.000Z</time>
      </trkpt>
      <trkpt lat="45.58541" lon="6.65124">
        <ele>1496</ele>
        <time>2015-04-07T06:47:01.000Z</time>
      </trkpt>
      <trkpt lat="45.58534" lon="6.65122">
        <ele>1496.8000488281</ele>
        <time>2015-04-07T06:47:07.000Z</time>
      </trkpt>
      <trkpt lat="45.58527" lon="6.6512">
        <ele>1497</ele>
        <time>2015-04-07T06:47:13.000Z</time>
      </trkpt>
      <trkpt lat="45.58526" lon="6.6512">
        <ele>1497.1999511719</ele>
        <time>2015-04-07T06:47:14.000Z</time>
      </trkpt>
      <trkpt lat="45.5852" lon="6.6512">
        <ele>1498</ele>
        <time>2015-04-07T06:47:21.000Z</time>
      </trkpt>
      <trkpt lat="45.58517" lon="6.6512">
        <ele>1498.1999511719</ele>
        <time>2015-04-07T06:47:24.000Z</time>
      </trkpt>
      <trkpt lat="45.58514" lon="6.65119">
        <ele>1498.4000244141</ele>
        <time>2015-04-07T06:47:28.000Z</time>
      </trkpt>
      <trkpt lat="45.5851" lon="6.65118">
        <ele>1499.1999511719</ele>
        <time>2015-04-07T06:47:33.000Z</time>
      </trkpt>
      <trkpt lat="45.58506" lon="6.65117">
        <ele>1499.5999755859</ele>
        <time>2015-04-07T06:47:37.000Z</time>
      </trkpt>
      <trkpt lat="45.58501" lon="6.65115">
        <ele>1500.1999511719</ele>
        <time>2015-04-07T06:47:43.000Z</time>
      </trkpt>
      <trkpt lat="45.58499" lon="6.65114">
        <ele>1500.8000488281</ele>
        <time>2015-04-07T06:47:46.000Z</time>
      </trkpt>
      <trkpt lat="45.58498" lon="6.65113">
        <ele>1501</ele>
        <time>2015-04-07T06:47:47.000Z</time>
      </trkpt>
      <trkpt lat="45.58498" lon="6.65113">
        <ele>1501.4000244141</ele>
        <time>2015-04-07T06:47:48.000Z</time>
      </trkpt>
      <trkpt lat="45.58493" lon="6.6511">
        <ele>1502</ele>
        <time>2015-04-07T06:47:57.000Z</time>
      </trkpt>
      <trkpt lat="45.5849" lon="6.65107">
        <ele>1502.4000244141</ele>
        <time>2015-04-07T06:48:00.000Z</time>
      </trkpt>
      <trkpt lat="45.58484" lon="6.65104">
        <ele>1502.8000488281</ele>
        <time>2015-04-07T06:48:06.000Z</time>
      </trkpt>
      <trkpt lat="45.5848" lon="6.65102">
        <ele>1503.4000244141</ele>
        <time>2015-04-07T06:48:11.000Z</time>
      </trkpt>
      <trkpt lat="45.58475" lon="6.65101">
        <ele>1503.8000488281</ele>
        <time>2015-04-07T06:48:16.000Z</time>
      </trkpt>
      <trkpt lat="45.5847" lon="6.65101">
        <ele>1504.5999755859</ele>
        <time>2015-04-07T06:48:21.000Z</time>
      </trkpt>
      <trkpt lat="45.58467" lon="6.65101">
        <ele>1505.1999511719</ele>
        <time>2015-04-07T06:48:25.000Z</time>
      </trkpt>
      <trkpt lat="45.58465" lon="6.65101">
        <ele>1505.5999755859</ele>
        <time>2015-04-07T06:48:30.000Z</time>
      </trkpt>
      <trkpt lat="45.58465" lon="6.65101">
        <ele>1506</ele>
        <time>2015-04-07T06:48:33.000Z</time>
      </trkpt>
      <trkpt lat="45.58458" lon="6.65099">
        <ele>1506.8000488281</ele>
        <time>2015-04-07T06:48:38.000Z</time>
      </trkpt>
      <trkpt lat="45.58454" lon="6.65095">
        <ele>1507.4000244141</ele>
        <time>2015-04-07T06:48:42.000Z</time>
      </trkpt>
      <trkpt lat="45.5845" lon="6.65091">
        <ele>1508</ele>
        <time>2015-04-07T06:48:46.000Z</time>
      </trkpt>
      <trkpt lat="45.58443" lon="6.65083">
        <ele>1508.8000488281</ele>
        <time>2015-04-07T06:48:52.000Z</time>
      </trkpt>
      <trkpt lat="45.58442" lon="6.65083">
        <ele>1509</ele>
        <time>2015-04-07T06:48:53.000Z</time>
      </trkpt>
      <trkpt lat="45.58437" lon="6.65073">
        <ele>1509.4000244141</ele>
        <time>2015-04-07T06:48:59.000Z</time>
      </trkpt>
      <trkpt lat="45.58435" lon="6.65069">
        <ele>1510</ele>
        <time>2015-04-07T06:49:03.000Z</time>
      </trkpt>
      <trkpt lat="45.58432" lon="6.65063">
        <ele>1510.5999755859</ele>
        <time>2015-04-07T06:49:08.000Z</time>
      </trkpt>
      <trkpt lat="45.58427" lon="6.65058">
        <ele>1511</ele>
        <time>2015-04-07T06:49:12.000Z</time>
      </trkpt>
      <trkpt lat="45.58424" lon="6.65052">
        <ele>1511.8000488281</ele>
        <time>2015-04-07T06:49:17.000Z</time>
      </trkpt>
      <trkpt lat="45.58423" lon="6.6505">
        <ele>1512.1999511719</ele>
        <time>2015-04-07T06:49:19.000Z</time>
      </trkpt>
      <trkpt lat="45.58419" lon="6.65045">
        <ele>1513.1999511719</ele>
        <time>2015-04-07T06:49:24.000Z</time>
      </trkpt>
      <trkpt lat="45.58417" lon="6.65041">
        <ele>1513.4000244141</ele>
        <time>2015-04-07T06:49:27.000Z</time>
      </trkpt>
      <trkpt lat="45.58412" lon="6.65028">
        <ele>1513.8000488281</ele>
        <time>2015-04-07T06:49:36.000Z</time>
      </trkpt>
      <trkpt lat="45.5841" lon="6.65025">
        <ele>1514.1999511719</ele>
        <time>2015-04-07T06:49:38.000Z</time>
      </trkpt>
      <trkpt lat="45.58405" lon="6.65019">
        <ele>1515</ele>
        <time>2015-04-07T06:49:45.000Z</time>
      </trkpt>
      <trkpt lat="45.58404" lon="6.65018">
        <ele>1515.1999511719</ele>
        <time>2015-04-07T06:49:46.000Z</time>
      </trkpt>
      <trkpt lat="45.58398" lon="6.65015">
        <ele>1516.4000244141</ele>
        <time>2015-04-07T06:49:53.000Z</time>
      </trkpt>
      <trkpt lat="45.58397" lon="6.65014">
        <ele>1516.5999755859</ele>
        <time>2015-04-07T06:49:54.000Z</time>
      </trkpt>
      <trkpt lat="45.58388" lon="6.65009">
        <ele>1517.4000244141</ele>
        <time>2015-04-07T06:50:03.000Z</time>
      </trkpt>
      <trkpt lat="45.58387" lon="6.65009">
        <ele>1517.4000244141</ele>
        <time>2015-04-07T06:50:04.000Z</time>
      </trkpt>
      <trkpt lat="45.5838" lon="6.65003">
        <ele>1518.4000244141</ele>
        <time>2015-04-07T06:50:12.000Z</time>
      </trkpt>
      <trkpt lat="45.58374" lon="6.64993">
        <ele>1519</ele>
        <time>2015-04-07T06:50:21.000Z</time>
      </trkpt>
      <trkpt lat="45.58371" lon="6.64987">
        <ele>1519.4000244141</ele>
        <time>2015-04-07T06:50:25.000Z</time>
      </trkpt>
      <trkpt lat="45.58367" lon="6.64983">
        <ele>1520</ele>
        <time>2015-04-07T06:50:28.000Z</time>
      </trkpt>
      <trkpt lat="45.58364" lon="6.64979">
        <ele>1520.5999755859</ele>
        <time>2015-04-07T06:50:33.000Z</time>
      </trkpt>
      <trkpt lat="45.58364" lon="6.64978">
        <ele>1520.8000488281</ele>
        <time>2015-04-07T06:50:34.000Z</time>
      </trkpt>
      <trkpt lat="45.58363" lon="6.64977">
        <ele>1521.1999511719</ele>
        <time>2015-04-07T06:50:35.000Z</time>
      </trkpt>
      <trkpt lat="45.5836" lon="6.64972">
        <ele>1521.8000488281</ele>
        <time>2015-04-07T06:50:40.000Z</time>
      </trkpt>
      <trkpt lat="45.58358" lon="6.64969">
        <ele>1522</ele>
        <time>2015-04-07T06:50:43.000Z</time>
      </trkpt>
      <trkpt lat="45.58352" lon="6.64966">
        <ele>1522.8000488281</ele>
        <time>2015-04-07T06:50:48.000Z</time>
      </trkpt>
      <trkpt lat="45.58348" lon="6.64964">
        <ele>1523.1999511719</ele>
        <time>2015-04-07T06:50:52.000Z</time>
      </trkpt>
      <trkpt lat="45.58341" lon="6.64961">
        <ele>1523.8000488281</ele>
        <time>2015-04-07T06:50:59.000Z</time>
      </trkpt>
      <trkpt lat="45.5834" lon="6.64961">
        <ele>1523.8000488281</ele>
        <time>2015-04-07T06:51:00.000Z</time>
      </trkpt>
      <trkpt lat="45.58332" lon="6.64962">
        <ele>1524.5999755859</ele>
        <time>2015-04-07T06:51:09.000Z</time>
      </trkpt>
      <trkpt lat="45.5833" lon="6.64961">
        <ele>1525</ele>
        <time>2015-04-07T06:51:11.000Z</time>
      </trkpt>
      <trkpt lat="45.58324" lon="6.6496">
        <ele>1525.5999755859</ele>
        <time>2015-04-07T06:51:17.000Z</time>
      </trkpt>
      <trkpt lat="45.5832" lon="6.64957">
        <ele>1526</ele>
        <time>2015-04-07T06:51:21.000Z</time>
      </trkpt>
      <trkpt lat="45.58317" lon="6.64953">
        <ele>1526.5999755859</ele>
        <time>2015-04-07T06:51:25.000Z</time>
      </trkpt>
      <trkpt lat="45.58313" lon="6.64951">
        <ele>1527</ele>
        <time>2015-04-07T06:51:30.000Z</time>
      </trkpt>
      <trkpt lat="45.58311" lon="6.64949">
        <ele>1527.4000244141</ele>
        <time>2015-04-07T06:51:32.000Z</time>
      </trkpt>
      <trkpt lat="45.58309" lon="6.64947">
        <ele>1528.1999511719</ele>
        <time>2015-04-07T06:51:38.000Z</time>
      </trkpt>
      <trkpt lat="45.58307" lon="6.64945">
        <ele>1528.4000244141</ele>
        <time>2015-04-07T06:51:40.000Z</time>
      </trkpt>
      <trkpt lat="45.58302" lon="6.6494">
        <ele>1529.1999511719</ele>
        <time>2015-04-07T06:51:47.000Z</time>
      </trkpt>
      <trkpt lat="45.58302" lon="6.64939">
        <ele>1529.4000244141</ele>
        <time>2015-04-07T06:51:48.000Z</time>
      </trkpt>
      <trkpt lat="45.58297" lon="6.64928">
        <ele>1530.4000244141</ele>
        <time>2015-04-07T06:51:56.000Z</time>
      </trkpt>
      <trkpt lat="45.5829" lon="6.64922">
        <ele>1531.1999511719</ele>
        <time>2015-04-07T06:52:03.000Z</time>
      </trkpt>
      <trkpt lat="45.58287" lon="6.64918">
        <ele>1531.4000244141</ele>
        <time>2015-04-07T06:52:05.000Z</time>
      </trkpt>
      <trkpt lat="45.58278" lon="6.64902">
        <ele>1532.5999755859</ele>
        <time>2015-04-07T06:52:14.000Z</time>
      </trkpt>
      <trkpt lat="45.58277" lon="6.64901">
        <ele>1532.5999755859</ele>
        <time>2015-04-07T06:52:15.000Z</time>
      </trkpt>
      <trkpt lat="45.5827" lon="6.64897">
        <ele>1533.5999755859</ele>
        <time>2015-04-07T06:52:23.000Z</time>
      </trkpt>
      <trkpt lat="45.58269" lon="6.64897">
        <ele>1533.5999755859</ele>
        <time>2015-04-07T06:52:24.000Z</time>
      </trkpt>
      <trkpt lat="45.58262" lon="6.64894">
        <ele>1534.5999755859</ele>
        <time>2015-04-07T06:52:31.000Z</time>
      </trkpt>
      <trkpt lat="45.58259" lon="6.64891">
        <ele>1534.5999755859</ele>
        <time>2015-04-07T06:52:34.000Z</time>
      </trkpt>
      <trkpt lat="45.58252" lon="6.64885">
        <ele>1535.5999755859</ele>
        <time>2015-04-07T06:52:41.000Z</time>
      </trkpt>
      <trkpt lat="45.5825" lon="6.64884">
        <ele>1535.8000488281</ele>
        <time>2015-04-07T06:52:43.000Z</time>
      </trkpt>
      <trkpt lat="45.5824" lon="6.64881">
        <ele>1536.5999755859</ele>
        <time>2015-04-07T06:52:52.000Z</time>
      </trkpt>
      <trkpt lat="45.58238" lon="6.6488">
        <ele>1536.8000488281</ele>
        <time>2015-04-07T06:52:53.000Z</time>
      </trkpt>
      <trkpt lat="45.5823" lon="6.64877">
        <ele>1537.4000244141</ele>
        <time>2015-04-07T06:52:59.000Z</time>
      </trkpt>
      <trkpt lat="45.58228" lon="6.64876">
        <ele>1537.8000488281</ele>
        <time>2015-04-07T06:53:01.000Z</time>
      </trkpt>
      <trkpt lat="45.5822" lon="6.6487">
        <ele>1538.4000244141</ele>
        <time>2015-04-07T06:53:08.000Z</time>
      </trkpt>
      <trkpt lat="45.58215" lon="6.64866">
        <ele>1538.8000488281</ele>
        <time>2015-04-07T06:53:12.000Z</time>
      </trkpt>
      <trkpt lat="45.5821" lon="6.64865">
        <ele>1539.4000244141</ele>
        <time>2015-04-07T06:53:18.000Z</time>
      </trkpt>
      <trkpt lat="45.58205" lon="6.64864">
        <ele>1539.8000488281</ele>
        <time>2015-04-07T06:53:22.000Z</time>
      </trkpt>
      <trkpt lat="45.582" lon="6.64862">
        <ele>1541</ele>
        <time>2015-04-07T06:53:27.000Z</time>
      </trkpt>
      <trkpt lat="45.58199" lon="6.64861">
        <ele>1541.1999511719</ele>
        <time>2015-04-07T06:53:29.000Z</time>
      </trkpt>
      <trkpt lat="45.58189" lon="6.64856">
        <ele>1542</ele>
        <time>2015-04-07T06:53:37.000Z</time>
      </trkpt>
      <trkpt lat="45.58176" lon="6.64852">
        <ele>1543</ele>
        <time>2015-04-07T06:53:46.000Z</time>
      </trkpt>
      <trkpt lat="45.58169" lon="6.64847">
        <ele>1543.4000244141</ele>
        <time>2015-04-07T06:53:53.000Z</time>
      </trkpt>
      <trkpt lat="45.58164" lon="6.64844">
        <ele>1544.1999511719</ele>
        <time>2015-04-07T06:53:59.000Z</time>
      </trkpt>
      <trkpt lat="45.58163" lon="6.64844">
        <ele>1544.1999511719</ele>
        <time>2015-04-07T06:54:00.000Z</time>
      </trkpt>
      <trkpt lat="45.58157" lon="6.64841">
        <ele>1544.8000488281</ele>
        <time>2015-04-07T06:54:06.000Z</time>
      </trkpt>
      <trkpt lat="45.58155" lon="6.64841">
        <ele>1545.1999511719</ele>
        <time>2015-04-07T06:54:08.000Z</time>
      </trkpt>
      <trkpt lat="45.58152" lon="6.6484">
        <ele>1545.8000488281</ele>
        <time>2015-04-07T06:54:11.000Z</time>
      </trkpt>
      <trkpt lat="45.58147" lon="6.64838">
        <ele>1546.1999511719</ele>
        <time>2015-04-07T06:54:16.000Z</time>
      </trkpt>
      <trkpt lat="45.58144" lon="6.64834">
        <ele>1546.8000488281</ele>
        <time>2015-04-07T06:54:19.000Z</time>
      </trkpt>
      <trkpt lat="45.58141" lon="6.64832">
        <ele>1547.4000244141</ele>
        <time>2015-04-07T06:54:23.000Z</time>
      </trkpt>
      <trkpt lat="45.5814" lon="6.64831">
        <ele>1547.5999755859</ele>
        <time>2015-04-07T06:54:25.000Z</time>
      </trkpt>
      <trkpt lat="45.58135" lon="6.6483">
        <ele>1548.4000244141</ele>
        <time>2015-04-07T06:54:31.000Z</time>
      </trkpt>
      <trkpt lat="45.58133" lon="6.64829">
        <ele>1549</ele>
        <time>2015-04-07T06:54:34.000Z</time>
      </trkpt>
      <trkpt lat="45.58131" lon="6.64828">
        <ele>1549.5999755859</ele>
        <time>2015-04-07T06:54:36.000Z</time>
      </trkpt>
      <trkpt lat="45.58125" lon="6.64824">
        <ele>1550.5999755859</ele>
        <time>2015-04-07T06:54:43.000Z</time>
      </trkpt>
      <trkpt lat="45.58125" lon="6.64824">
        <ele>1550.5999755859</ele>
        <time>2015-04-07T06:54:44.000Z</time>
      </trkpt>
      <trkpt lat="45.5812" lon="6.64817">
        <ele>1551.5999755859</ele>
        <time>2015-04-07T06:54:52.000Z</time>
      </trkpt>
      <trkpt lat="45.58119" lon="6.64815">
        <ele>1551.5999755859</ele>
        <time>2015-04-07T06:54:54.000Z</time>
      </trkpt>
      <trkpt lat="45.58119" lon="6.64814">
        <ele>1551.5999755859</ele>
        <time>2015-04-07T06:54:55.000Z</time>
      </trkpt>
      <trkpt lat="45.58115" lon="6.64809">
        <ele>1552.1999511719</ele>
        <time>2015-04-07T06:55:00.000Z</time>
      </trkpt>
      <trkpt lat="45.58112" lon="6.64807">
        <ele>1552.8000488281</ele>
        <time>2015-04-07T06:55:03.000Z</time>
      </trkpt>
      <trkpt lat="45.5811" lon="6.64802">
        <ele>1553.4000244141</ele>
        <time>2015-04-07T06:55:07.000Z</time>
      </trkpt>
      <trkpt lat="45.58108" lon="6.64798">
        <ele>1553.8000488281</ele>
        <time>2015-04-07T06:55:11.000Z</time>
      </trkpt>
      <trkpt lat="45.58107" lon="6.64794">
        <ele>1554</ele>
        <time>2015-04-07T06:55:15.000Z</time>
      </trkpt>
      <trkpt lat="45.58111" lon="6.64792">
        <ele>1554.5999755859</ele>
        <time>2015-04-07T06:55:22.000Z</time>
      </trkpt>
      <trkpt lat="45.58113" lon="6.64793">
        <ele>1554.5999755859</ele>
        <time>2015-04-07T06:55:23.000Z</time>
      </trkpt>
      <trkpt lat="45.58114" lon="6.64794">
        <ele>1554.8000488281</ele>
        <time>2015-04-07T06:55:24.000Z</time>
      </trkpt>
      <trkpt lat="45.58117" lon="6.64796">
        <ele>1555.5999755859</ele>
        <time>2015-04-07T06:55:28.000Z</time>
      </trkpt>
      <trkpt lat="45.58118" lon="6.64798">
        <ele>1556</ele>
        <time>2015-04-07T06:55:31.000Z</time>
      </trkpt>
      <trkpt lat="45.58121" lon="6.648">
        <ele>1557</ele>
        <time>2015-04-07T06:55:36.000Z</time>
      </trkpt>
      <trkpt lat="45.58125" lon="6.64801">
        <ele>1558.1999511719</ele>
        <time>2015-04-07T06:55:41.000Z</time>
      </trkpt>
      <trkpt lat="45.58126" lon="6.64802">
        <ele>1558.5999755859</ele>
        <time>2015-04-07T06:55:43.000Z</time>
      </trkpt>
      <trkpt lat="45.58127" lon="6.64802">
        <ele>1559.1999511719</ele>
        <time>2015-04-07T06:55:45.000Z</time>
      </trkpt>
      <trkpt lat="45.58129" lon="6.64803">
        <ele>1560.4000244141</ele>
        <time>2015-04-07T06:55:49.000Z</time>
      </trkpt>
      <trkpt lat="45.58133" lon="6.64805">
        <ele>1561</ele>
        <time>2015-04-07T06:55:52.000Z</time>
      </trkpt>
      <trkpt lat="45.58134" lon="6.64805">
        <ele>1561.5999755859</ele>
        <time>2015-04-07T06:55:54.000Z</time>
      </trkpt>
      <trkpt lat="45.58139" lon="6.64804">
        <ele>1562.8000488281</ele>
        <time>2015-04-07T06:56:00.000Z</time>
      </trkpt>
      <trkpt lat="45.58139" lon="6.64804">
        <ele>1563</ele>
        <time>2015-04-07T06:56:01.000Z</time>
      </trkpt>
      <trkpt lat="45.58147" lon="6.64806">
        <ele>1563.8000488281</ele>
        <time>2015-04-07T06:56:09.000Z</time>
      </trkpt>
      <trkpt lat="45.58149" lon="6.64806">
        <ele>1564</ele>
        <time>2015-04-07T06:56:11.000Z</time>
      </trkpt>
      <trkpt lat="45.58158" lon="6.64807">
        <ele>1564.5999755859</ele>
        <time>2015-04-07T06:56:19.000Z</time>
      </trkpt>
      <trkpt lat="45.58165" lon="6.64812">
        <ele>1564.4000244141</ele>
        <time>2015-04-07T06:56:26.000Z</time>
      </trkpt>
      <trkpt lat="45.5817" lon="6.64819">
        <ele>1564.1999511719</ele>
        <time>2015-04-07T06:56:33.000Z</time>
      </trkpt>
      <trkpt lat="45.58179" lon="6.64822">
        <ele>1564.8000488281</ele>
        <time>2015-04-07T06:56:42.000Z</time>
      </trkpt>
      <trkpt lat="45.58184" lon="6.64826">
        <ele>1564.1999511719</ele>
        <time>2015-04-07T06:56:52.000Z</time>
      </trkpt>
      <trkpt lat="45.58194" lon="6.64831">
        <ele>1563.8000488281</ele>
        <time>2015-04-07T06:57:01.000Z</time>
      </trkpt>
      <trkpt lat="45.58204" lon="6.64826">
        <ele>1564.8000488281</ele>
        <time>2015-04-07T06:57:11.000Z</time>
      </trkpt>
      <trkpt lat="45.58205" lon="6.64826">
        <ele>1565</ele>
        <time>2015-04-07T06:57:12.000Z</time>
      </trkpt>
      <trkpt lat="45.58216" lon="6.64825">
        <ele>1565.5999755859</ele>
        <time>2015-04-07T06:57:19.000Z</time>
      </trkpt>
      <trkpt lat="45.5822" lon="6.64824">
        <ele>1566</ele>
        <time>2015-04-07T06:57:22.000Z</time>
      </trkpt>
      <trkpt lat="45.58222" lon="6.64823">
        <ele>1566.1999511719</ele>
        <time>2015-04-07T06:57:23.000Z</time>
      </trkpt>
      <trkpt lat="45.58225" lon="6.64823">
        <ele>1566.8000488281</ele>
        <time>2015-04-07T06:57:27.000Z</time>
      </trkpt>
      <trkpt lat="45.58227" lon="6.64823">
        <ele>1567.1999511719</ele>
        <time>2015-04-07T06:57:29.000Z</time>
      </trkpt>
      <trkpt lat="45.58232" lon="6.64826">
        <ele>1567.5999755859</ele>
        <time>2015-04-07T06:57:34.000Z</time>
      </trkpt>
      <trkpt lat="45.58239" lon="6.64829">
        <ele>1567.5999755859</ele>
        <time>2015-04-07T06:57:42.000Z</time>
      </trkpt>
      <trkpt lat="45.58241" lon="6.6483">
        <ele>1568.1999511719</ele>
        <time>2015-04-07T06:57:46.000Z</time>
      </trkpt>
      <trkpt lat="45.5825" lon="6.64835">
        <ele>1568.4000244141</ele>
        <time>2015-04-07T06:57:52.000Z</time>
      </trkpt>
      <trkpt lat="45.58252" lon="6.64836">
        <ele>1568.5999755859</ele>
        <time>2015-04-07T06:57:53.000Z</time>
      </trkpt>
      <trkpt lat="45.58259" lon="6.64838">
        <ele>1568.5999755859</ele>
        <time>2015-04-07T06:57:59.000Z</time>
      </trkpt>
      <trkpt lat="45.58269" lon="6.64843">
        <ele>1569</ele>
        <time>2015-04-07T06:58:09.000Z</time>
      </trkpt>
      <trkpt lat="45.58272" lon="6.64846">
        <ele>1569.1999511719</ele>
        <time>2015-04-07T06:58:12.000Z</time>
      </trkpt>
      <trkpt lat="45.58276" lon="6.64849">
        <ele>1569.4000244141</ele>
        <time>2015-04-07T06:58:17.000Z</time>
      </trkpt>
      <trkpt lat="45.58286" lon="6.64854">
        <ele>1570</ele>
        <time>2015-04-07T06:58:26.000Z</time>
      </trkpt>
      <trkpt lat="45.58287" lon="6.64855">
        <ele>1570.1999511719</ele>
        <time>2015-04-07T06:58:28.000Z</time>
      </trkpt>
      <trkpt lat="45.58292" lon="6.64858">
        <ele>1570.4000244141</ele>
        <time>2015-04-07T06:58:33.000Z</time>
      </trkpt>
      <trkpt lat="45.58301" lon="6.64859">
        <ele>1571.1999511719</ele>
        <time>2015-04-07T06:58:39.000Z</time>
      </trkpt>
      <trkpt lat="45.58303" lon="6.64859">
        <ele>1571.5999755859</ele>
        <time>2015-04-07T06:58:41.000Z</time>
      </trkpt>
      <trkpt lat="45.58312" lon="6.64862">
        <ele>1572</ele>
        <time>2015-04-07T06:58:48.000Z</time>
      </trkpt>
      <trkpt lat="45.58321" lon="6.64867">
        <ele>1571.8000488281</ele>
        <time>2015-04-07T06:58:58.000Z</time>
      </trkpt>
      <trkpt lat="45.58325" lon="6.64869">
        <ele>1572.4000244141</ele>
        <time>2015-04-07T06:59:02.000Z</time>
      </trkpt>
      <trkpt lat="45.5833" lon="6.64869">
        <ele>1572.5999755859</ele>
        <time>2015-04-07T06:59:07.000Z</time>
      </trkpt>
      <trkpt lat="45.58339" lon="6.64869">
        <ele>1572.8000488281</ele>
        <time>2015-04-07T06:59:15.000Z</time>
      </trkpt>
      <trkpt lat="45.58345" lon="6.64869">
        <ele>1572.5999755859</ele>
        <time>2015-04-07T06:59:23.000Z</time>
      </trkpt>
      <trkpt lat="45.58355" lon="6.6487">
        <ele>1573</ele>
        <time>2015-04-07T06:59:31.000Z</time>
      </trkpt>
      <trkpt lat="45.5837" lon="6.64877">
        <ele>1573.1999511719</ele>
        <time>2015-04-07T06:59:41.000Z</time>
      </trkpt>
      <trkpt lat="45.58381" lon="6.64881">
        <ele>1573</ele>
        <time>2015-04-07T06:59:50.000Z</time>
      </trkpt>
      <trkpt lat="45.58386" lon="6.64883">
        <ele>1572.8000488281</ele>
        <time>2015-04-07T06:59:56.000Z</time>
      </trkpt>
      <trkpt lat="45.58393" lon="6.64888">
        <ele>1573.4000244141</ele>
        <time>2015-04-07T07:00:03.000Z</time>
      </trkpt>
      <trkpt lat="45.58395" lon="6.64888">
        <ele>1573.5999755859</ele>
        <time>2015-04-07T07:00:05.000Z</time>
      </trkpt>
      <trkpt lat="45.58399" lon="6.64892">
        <ele>1573.4000244141</ele>
        <time>2015-04-07T07:00:11.000Z</time>
      </trkpt>
      <trkpt lat="45.58406" lon="6.64896">
        <ele>1574.4000244141</ele>
        <time>2015-04-07T07:00:17.000Z</time>
      </trkpt>
      <trkpt lat="45.58415" lon="6.64905">
        <ele>1574</ele>
        <time>2015-04-07T07:00:25.000Z</time>
      </trkpt>
      <trkpt lat="45.58421" lon="6.64914">
        <ele>1574</ele>
        <time>2015-04-07T07:00:33.000Z</time>
      </trkpt>
      <trkpt lat="45.58429" lon="6.6492">
        <ele>1574.4000244141</ele>
        <time>2015-04-07T07:00:40.000Z</time>
      </trkpt>
      <trkpt lat="45.5843" lon="6.6492">
        <ele>1574.4000244141</ele>
        <time>2015-04-07T07:00:41.000Z</time>
      </trkpt>
      <trkpt lat="45.58439" lon="6.64925">
        <ele>1574.5999755859</ele>
        <time>2015-04-07T07:00:49.000Z</time>
      </trkpt>
      <trkpt lat="45.58449" lon="6.64926">
        <ele>1574.8000488281</ele>
        <time>2015-04-07T07:00:58.000Z</time>
      </trkpt>
      <trkpt lat="45.58457" lon="6.64925">
        <ele>1575</ele>
        <time>2015-04-07T07:01:04.000Z</time>
      </trkpt>
      <trkpt lat="45.5846" lon="6.64925">
        <ele>1575</ele>
        <time>2015-04-07T07:01:07.000Z</time>
      </trkpt>
      <trkpt lat="45.58466" lon="6.64923">
        <ele>1575.5999755859</ele>
        <time>2015-04-07T07:01:12.000Z</time>
      </trkpt>
      <trkpt lat="45.58469" lon="6.64921">
        <ele>1575.5999755859</ele>
        <time>2015-04-07T07:01:16.000Z</time>
      </trkpt>
      <trkpt lat="45.58478" lon="6.64919">
        <ele>1575.5999755859</ele>
        <time>2015-04-07T07:01:24.000Z</time>
      </trkpt>
      <trkpt lat="45.58481" lon="6.64918">
        <ele>1575.5999755859</ele>
        <time>2015-04-07T07:01:25.000Z</time>
      </trkpt>
      <trkpt lat="45.5849" lon="6.64916">
        <ele>1576.4000244141</ele>
        <time>2015-04-07T07:01:34.000Z</time>
      </trkpt>
      <trkpt lat="45.58496" lon="6.64913">
        <ele>1576.1999511719</ele>
        <time>2015-04-07T07:01:41.000Z</time>
      </trkpt>
      <trkpt lat="45.58504" lon="6.64912">
        <ele>1576.4000244141</ele>
        <time>2015-04-07T07:01:49.000Z</time>
      </trkpt>
      <trkpt lat="45.58506" lon="6.64912">
        <ele>1576.5999755859</ele>
        <time>2015-04-07T07:01:51.000Z</time>
      </trkpt>
      <trkpt lat="45.58514" lon="6.64912">
        <ele>1577</ele>
        <time>2015-04-07T07:01:59.000Z</time>
      </trkpt>
      <trkpt lat="45.58525" lon="6.64912">
        <ele>1577</ele>
        <time>2015-04-07T07:02:08.000Z</time>
      </trkpt>
      <trkpt lat="45.58535" lon="6.64911">
        <ele>1577.1999511719</ele>
        <time>2015-04-07T07:02:15.000Z</time>
      </trkpt>
      <trkpt lat="45.58545" lon="6.64911">
        <ele>1577.8000488281</ele>
        <time>2015-04-07T07:02:24.000Z</time>
      </trkpt>
      <trkpt lat="45.58547" lon="6.6491">
        <ele>1578</ele>
        <time>2015-04-07T07:02:25.000Z</time>
      </trkpt>
      <trkpt lat="45.58553" lon="6.64906">
        <ele>1577.8000488281</ele>
        <time>2015-04-07T07:02:33.000Z</time>
      </trkpt>
      <trkpt lat="45.58564" lon="6.64902">
        <ele>1578.4000244141</ele>
        <time>2015-04-07T07:02:41.000Z</time>
      </trkpt>
      <trkpt lat="45.5857" lon="6.64898">
        <ele>1578</ele>
        <time>2015-04-07T07:02:49.000Z</time>
      </trkpt>
      <trkpt lat="45.5858" lon="6.64894">
        <ele>1578.4000244141</ele>
        <time>2015-04-07T07:02:57.000Z</time>
      </trkpt>
      <trkpt lat="45.58589" lon="6.6489">
        <ele>1578.1999511719</ele>
        <time>2015-04-07T07:03:04.000Z</time>
      </trkpt>
      <trkpt lat="45.58595" lon="6.64886">
        <ele>1578.4000244141</ele>
        <time>2015-04-07T07:03:11.000Z</time>
      </trkpt>
      <trkpt lat="45.58602" lon="6.64879">
        <ele>1578.8000488281</ele>
        <time>2015-04-07T07:03:18.000Z</time>
      </trkpt>
      <trkpt lat="45.58603" lon="6.64878">
        <ele>1578.8000488281</ele>
        <time>2015-04-07T07:03:19.000Z</time>
      </trkpt>
      <trkpt lat="45.58612" lon="6.64874">
        <ele>1579</ele>
        <time>2015-04-07T07:03:28.000Z</time>
      </trkpt>
      <trkpt lat="45.58623" lon="6.6487">
        <ele>1579</ele>
        <time>2015-04-07T07:03:37.000Z</time>
      </trkpt>
      <trkpt lat="45.58632" lon="6.64867">
        <ele>1579.1999511719</ele>
        <time>2015-04-07T07:03:44.000Z</time>
      </trkpt>
      <trkpt lat="45.58641" lon="6.64861">
        <ele>1579.4000244141</ele>
        <time>2015-04-07T07:03:53.000Z</time>
      </trkpt>
      <trkpt lat="45.58648" lon="6.64854">
        <ele>1579.1999511719</ele>
        <time>2015-04-07T07:04:00.000Z</time>
      </trkpt>
      <trkpt lat="45.58656" lon="6.64848">
        <ele>1579.8000488281</ele>
        <time>2015-04-07T07:04:07.000Z</time>
      </trkpt>
      <trkpt lat="45.58664" lon="6.64841">
        <ele>1579.8000488281</ele>
        <time>2015-04-07T07:04:14.000Z</time>
      </trkpt>
      <trkpt lat="45.58666" lon="6.64839">
        <ele>1579.8000488281</ele>
        <time>2015-04-07T07:04:16.000Z</time>
      </trkpt>
      <trkpt lat="45.58671" lon="6.64833">
        <ele>1580</ele>
        <time>2015-04-07T07:04:22.000Z</time>
      </trkpt>
      <trkpt lat="45.58676" lon="6.64826">
        <ele>1580</ele>
        <time>2015-04-07T07:04:29.000Z</time>
      </trkpt>
      <trkpt lat="45.58682" lon="6.64818">
        <ele>1580.4000244141</ele>
        <time>2015-04-07T07:04:37.000Z</time>
      </trkpt>
      <trkpt lat="45.58689" lon="6.64811">
        <ele>1580.8000488281</ele>
        <time>2015-04-07T07:04:44.000Z</time>
      </trkpt>
      <trkpt lat="45.5869" lon="6.6481">
        <ele>1580.8000488281</ele>
        <time>2015-04-07T07:04:45.000Z</time>
      </trkpt>
      <trkpt lat="45.58698" lon="6.64805">
        <ele>1581.1999511719</ele>
        <time>2015-04-07T07:04:53.000Z</time>
      </trkpt>
      <trkpt lat="45.58705" lon="6.64798">
        <ele>1581</ele>
        <time>2015-04-07T07:05:01.000Z</time>
      </trkpt>
      <trkpt lat="45.58714" lon="6.64789">
        <ele>1581.1999511719</ele>
        <time>2015-04-07T07:05:10.000Z</time>
      </trkpt>
      <trkpt lat="45.58722" lon="6.64784">
        <ele>1581</ele>
        <time>2015-04-07T07:05:18.000Z</time>
      </trkpt>
      <trkpt lat="45.58729" lon="6.64778">
        <ele>1581.4000244141</ele>
        <time>2015-04-07T07:05:25.000Z</time>
      </trkpt>
      <trkpt lat="45.58733" lon="6.64772">
        <ele>1581.4000244141</ele>
        <time>2015-04-07T07:05:35.000Z</time>
      </trkpt>
      <trkpt lat="45.58743" lon="6.64769">
        <ele>1581.5999755859</ele>
        <time>2015-04-07T07:05:43.000Z</time>
      </trkpt>
      <trkpt lat="45.58749" lon="6.64767">
        <ele>1581.8000488281</ele>
        <time>2015-04-07T07:05:47.000Z</time>
      </trkpt>
      <trkpt lat="45.58754" lon="6.64767">
        <ele>1581.8000488281</ele>
        <time>2015-04-07T07:05:53.000Z</time>
      </trkpt>
      <trkpt lat="45.58761" lon="6.64764">
        <ele>1581.5999755859</ele>
        <time>2015-04-07T07:06:01.000Z</time>
      </trkpt>
      <trkpt lat="45.58764" lon="6.64761">
        <ele>1581.4000244141</ele>
        <time>2015-04-07T07:06:09.000Z</time>
      </trkpt>
      <trkpt lat="45.58764" lon="6.64761">
        <ele>1581.4000244141</ele>
        <time>2015-04-07T07:06:21.000Z</time>
      </trkpt>
      <trkpt lat="45.58757" lon="6.64759">
        <ele>1581.4000244141</ele>
        <time>2015-04-07T07:06:27.000Z</time>
      </trkpt>
      <trkpt lat="45.58752" lon="6.64759">
        <ele>1581.4000244141</ele>
        <time>2015-04-07T07:06:33.000Z</time>
      </trkpt>
      <trkpt lat="45.58745" lon="6.64762">
        <ele>1581.5999755859</ele>
        <time>2015-04-07T07:06:40.000Z</time>
      </trkpt>
      <trkpt lat="45.58739" lon="6.64764">
        <ele>1581.8000488281</ele>
        <time>2015-04-07T07:06:46.000Z</time>
      </trkpt>
      <trkpt lat="45.58733" lon="6.64765">
        <ele>1581.8000488281</ele>
        <time>2015-04-07T07:06:54.000Z</time>
      </trkpt>
      <trkpt lat="45.58729" lon="6.64764">
        <ele>1581.5999755859</ele>
        <time>2015-04-07T07:07:02.000Z</time>
      </trkpt>
      <trkpt lat="45.58726" lon="6.64761">
        <ele>1583.1999511719</ele>
        <time>2015-04-07T07:07:08.000Z</time>
      </trkpt>
      <trkpt lat="45.58726" lon="6.6476">
        <ele>1583.5999755859</ele>
        <time>2015-04-07T07:07:10.000Z</time>
      </trkpt>
      <trkpt lat="45.58727" lon="6.64759">
        <ele>1584.1999511719</ele>
        <time>2015-04-07T07:07:12.000Z</time>
      </trkpt>
      <trkpt lat="45.58728" lon="6.64757">
        <ele>1585.4000244141</ele>
        <time>2015-04-07T07:07:16.000Z</time>
      </trkpt>
      <trkpt lat="45.58731" lon="6.64752">
        <ele>1586.4000244141</ele>
        <time>2015-04-07T07:07:19.000Z</time>
      </trkpt>
      <trkpt lat="45.58731" lon="6.64751">
        <ele>1586.5999755859</ele>
        <time>2015-04-07T07:07:20.000Z</time>
      </trkpt>
      <trkpt lat="45.58729" lon="6.64749">
        <ele>1587.8000488281</ele>
        <time>2015-04-07T07:07:24.000Z</time>
      </trkpt>
      <trkpt lat="45.58729" lon="6.64749">
        <ele>1588.8000488281</ele>
        <time>2015-04-07T07:07:26.000Z</time>
      </trkpt>
      <trkpt lat="45.58729" lon="6.64749">
        <ele>1589.4000244141</ele>
        <time>2015-04-07T07:07:29.000Z</time>
      </trkpt>
      <trkpt lat="45.58727" lon="6.64748">
        <ele>1589.8000488281</ele>
        <time>2015-04-07T07:07:32.000Z</time>
      </trkpt>
      <trkpt lat="45.58725" lon="6.64745">
        <ele>1590.8000488281</ele>
        <time>2015-04-07T07:07:37.000Z</time>
      </trkpt>
      <trkpt lat="45.58724" lon="6.64743">
        <ele>1591.8000488281</ele>
        <time>2015-04-07T07:07:43.000Z</time>
      </trkpt>
      <trkpt lat="45.58724" lon="6.64743">
        <ele>1592</ele>
        <time>2015-04-07T07:07:44.000Z</time>
      </trkpt>
      <trkpt lat="45.58723" lon="6.64741">
        <ele>1592.8000488281</ele>
        <time>2015-04-07T07:07:48.000Z</time>
      </trkpt>
      <trkpt lat="45.58723" lon="6.64741">
        <ele>1593.1999511719</ele>
        <time>2015-04-07T07:07:49.000Z</time>
      </trkpt>
      <trkpt lat="45.58721" lon="6.64739">
        <ele>1594.1999511719</ele>
        <time>2015-04-07T07:07:54.000Z</time>
      </trkpt>
      <trkpt lat="45.58718" lon="6.64735">
        <ele>1595.4000244141</ele>
        <time>2015-04-07T07:08:00.000Z</time>
      </trkpt>
      <trkpt lat="45.58718" lon="6.6473">
        <ele>1596.5999755859</ele>
        <time>2015-04-07T07:08:04.000Z</time>
      </trkpt>
      <trkpt lat="45.58718" lon="6.64728">
        <ele>1597</ele>
        <time>2015-04-07T07:08:07.000Z</time>
      </trkpt>
      <trkpt lat="45.58718" lon="6.64728">
        <ele>1597.8000488281</ele>
        <time>2015-04-07T07:08:10.000Z</time>
      </trkpt>
      <trkpt lat="45.58718" lon="6.64728">
        <ele>1598.8000488281</ele>
        <time>2015-04-07T07:08:13.000Z</time>
      </trkpt>
      <trkpt lat="45.58718" lon="6.64726">
        <ele>1599.5999755859</ele>
        <time>2015-04-07T07:08:17.000Z</time>
      </trkpt>
      <trkpt lat="45.58719" lon="6.64724">
        <ele>1600</ele>
        <time>2015-04-07T07:08:20.000Z</time>
      </trkpt>
      <trkpt lat="45.58719" lon="6.64722">
        <ele>1601</ele>
        <time>2015-04-07T07:08:24.000Z</time>
      </trkpt>
      <trkpt lat="45.58719" lon="6.64722">
        <ele>1601.1999511719</ele>
        <time>2015-04-07T07:08:25.000Z</time>
      </trkpt>
      <trkpt lat="45.58719" lon="6.6472">
        <ele>1602.1999511719</ele>
        <time>2015-04-07T07:08:31.000Z</time>
      </trkpt>
      <trkpt lat="45.5872" lon="6.64718">
        <ele>1602.4000244141</ele>
        <time>2015-04-07T07:08:33.000Z</time>
      </trkpt>
      <trkpt lat="45.5872" lon="6.64718">
        <ele>1603.1999511719</ele>
        <time>2015-04-07T07:08:37.000Z</time>
      </trkpt>
      <trkpt lat="45.5872" lon="6.64718">
        <ele>1603.4000244141</ele>
        <time>2015-04-07T07:08:38.000Z</time>
      </trkpt>
      <trkpt lat="45.58717" lon="6.64715">
        <ele>1604.8000488281</ele>
        <time>2015-04-07T07:08:46.000Z</time>
      </trkpt>
      <trkpt lat="45.58718" lon="6.64712">
        <ele>1605.8000488281</ele>
        <time>2015-04-07T07:08:51.000Z</time>
      </trkpt>
      <trkpt lat="45.58717" lon="6.6471">
        <ele>1606</ele>
        <time>2015-04-07T07:08:52.000Z</time>
      </trkpt>
      <trkpt lat="45.58715" lon="6.64707">
        <ele>1607</ele>
        <time>2015-04-07T07:08:57.000Z</time>
      </trkpt>
      <trkpt lat="45.58715" lon="6.64705">
        <ele>1607.4000244141</ele>
        <time>2015-04-07T07:08:59.000Z</time>
      </trkpt>
      <trkpt lat="45.58715" lon="6.64705">
        <ele>1608.1999511719</ele>
        <time>2015-04-07T07:09:01.000Z</time>
      </trkpt>
      <trkpt lat="45.58713" lon="6.64703">
        <ele>1609.1999511719</ele>
        <time>2015-04-07T07:09:06.000Z</time>
      </trkpt>
      <trkpt lat="45.58714" lon="6.64699">
        <ele>1610.1999511719</ele>
        <time>2015-04-07T07:09:14.000Z</time>
      </trkpt>
      <trkpt lat="45.58712" lon="6.64699">
        <ele>1611.4000244141</ele>
        <time>2015-04-07T07:09:20.000Z</time>
      </trkpt>
      <trkpt lat="45.58709" lon="6.64696">
        <ele>1612.4000244141</ele>
        <time>2015-04-07T07:09:25.000Z</time>
      </trkpt>
      <trkpt lat="45.58709" lon="6.64696">
        <ele>1612.5999755859</ele>
        <time>2015-04-07T07:09:26.000Z</time>
      </trkpt>
      <trkpt lat="45.58708" lon="6.64696">
        <ele>1613.8000488281</ele>
        <time>2015-04-07T07:09:30.000Z</time>
      </trkpt>
      <trkpt lat="45.58709" lon="6.64692">
        <ele>1614.8000488281</ele>
        <time>2015-04-07T07:09:35.000Z</time>
      </trkpt>
      <trkpt lat="45.5871" lon="6.64689">
        <ele>1615.8000488281</ele>
        <time>2015-04-07T07:09:42.000Z</time>
      </trkpt>
      <trkpt lat="45.58709" lon="6.64686">
        <ele>1616.8000488281</ele>
        <time>2015-04-07T07:09:47.000Z</time>
      </trkpt>
      <trkpt lat="45.58709" lon="6.64686">
        <ele>1617</ele>
        <time>2015-04-07T07:09:48.000Z</time>
      </trkpt>
      <trkpt lat="45.58709" lon="6.64686">
        <ele>1618.1999511719</ele>
        <time>2015-04-07T07:09:54.000Z</time>
      </trkpt>
      <trkpt lat="45.58709" lon="6.64686">
        <ele>1618.4000244141</ele>
        <time>2015-04-07T07:09:55.000Z</time>
      </trkpt>
      <trkpt lat="45.58708" lon="6.64683">
        <ele>1619.1999511719</ele>
        <time>2015-04-07T07:10:01.000Z</time>
      </trkpt>
      <trkpt lat="45.58707" lon="6.64681">
        <ele>1620.4000244141</ele>
        <time>2015-04-07T07:10:05.000Z</time>
      </trkpt>
      <trkpt lat="45.58707" lon="6.64681">
        <ele>1621.1999511719</ele>
        <time>2015-04-07T07:10:09.000Z</time>
      </trkpt>
      <trkpt lat="45.58707" lon="6.6468">
        <ele>1621.4000244141</ele>
        <time>2015-04-07T07:10:10.000Z</time>
      </trkpt>
      <trkpt lat="45.58708" lon="6.64677">
        <ele>1622.4000244141</ele>
        <time>2015-04-07T07:10:16.000Z</time>
      </trkpt>
      <trkpt lat="45.58708" lon="6.64676">
        <ele>1623.5999755859</ele>
        <time>2015-04-07T07:10:23.000Z</time>
      </trkpt>
      <trkpt lat="45.58707" lon="6.64674">
        <ele>1624.5999755859</ele>
        <time>2015-04-07T07:10:31.000Z</time>
      </trkpt>
      <trkpt lat="45.58707" lon="6.64674">
        <ele>1624.5999755859</ele>
        <time>2015-04-07T07:10:32.000Z</time>
      </trkpt>
      <trkpt lat="45.58707" lon="6.64674">
        <ele>1624.8000488281</ele>
        <time>2015-04-07T07:10:46.000Z</time>
      </trkpt>
      <trkpt lat="45.58707" lon="6.64674">
        <ele>1625.1999511719</ele>
        <time>2015-04-07T07:10:57.000Z</time>
      </trkpt>
      <trkpt lat="45.58707" lon="6.64674">
        <ele>1624.8000488281</ele>
        <time>2015-04-07T07:11:12.000Z</time>
      </trkpt>
      <trkpt lat="45.58707" lon="6.64674">
        <ele>1624.8000488281</ele>
        <time>2015-04-07T07:11:24.000Z</time>
      </trkpt>
      <trkpt lat="45.58708" lon="6.6467">
        <ele>1624.8000488281</ele>
        <time>2015-04-07T07:11:34.000Z</time>
      </trkpt>
      <trkpt lat="45.58708" lon="6.64667">
        <ele>1625.5999755859</ele>
        <time>2015-04-07T07:11:38.000Z</time>
      </trkpt>
      <trkpt lat="45.58706" lon="6.64664">
        <ele>1627</ele>
        <time>2015-04-07T07:11:41.000Z</time>
      </trkpt>
      <trkpt lat="45.58706" lon="6.64662">
        <ele>1628</ele>
        <time>2015-04-07T07:11:43.000Z</time>
      </trkpt>
      <trkpt lat="45.58706" lon="6.64661">
        <ele>1628.4000244141</ele>
        <time>2015-04-07T07:11:44.000Z</time>
      </trkpt>
      <trkpt lat="45.58705" lon="6.64659">
        <ele>1629.8000488281</ele>
        <time>2015-04-07T07:11:49.000Z</time>
      </trkpt>
      <trkpt lat="45.58705" lon="6.64659">
        <ele>1631</ele>
        <time>2015-04-07T07:11:52.000Z</time>
      </trkpt>
      <trkpt lat="45.58699" lon="6.64653">
        <ele>1632</ele>
        <time>2015-04-07T07:11:57.000Z</time>
      </trkpt>
      <trkpt lat="45.58698" lon="6.64652">
        <ele>1632.4000244141</ele>
        <time>2015-04-07T07:11:58.000Z</time>
      </trkpt>
      <trkpt lat="45.58697" lon="6.6465">
        <ele>1632.5999755859</ele>
        <time>2015-04-07T07:11:59.000Z</time>
      </trkpt>
      <trkpt lat="45.58696" lon="6.64649">
        <ele>1633.1999511719</ele>
        <time>2015-04-07T07:12:01.000Z</time>
      </trkpt>
      <trkpt lat="45.58697" lon="6.64647">
        <ele>1634</ele>
        <time>2015-04-07T07:12:05.000Z</time>
      </trkpt>
      <trkpt lat="45.58697" lon="6.64647">
        <ele>1634.1999511719</ele>
        <time>2015-04-07T07:12:06.000Z</time>
      </trkpt>
      <trkpt lat="45.58698" lon="6.64645">
        <ele>1635.1999511719</ele>
        <time>2015-04-07T07:12:11.000Z</time>
      </trkpt>
      <trkpt lat="45.587" lon="6.64642">
        <ele>1636.4000244141</ele>
        <time>2015-04-07T07:12:15.000Z</time>
      </trkpt>
      <trkpt lat="45.58699" lon="6.6464">
        <ele>1637.5999755859</ele>
        <time>2015-04-07T07:12:20.000Z</time>
      </trkpt>
      <trkpt lat="45.58694" lon="6.64637">
        <ele>1638.5999755859</ele>
        <time>2015-04-07T07:12:24.000Z</time>
      </trkpt>
      <trkpt lat="45.58693" lon="6.64636">
        <ele>1638.8000488281</ele>
        <time>2015-04-07T07:12:25.000Z</time>
      </trkpt>
      <trkpt lat="45.58691" lon="6.64634">
        <ele>1639.8000488281</ele>
        <time>2015-04-07T07:12:31.000Z</time>
      </trkpt>
      <trkpt lat="45.5869" lon="6.64634">
        <ele>1640</ele>
        <time>2015-04-07T07:12:32.000Z</time>
      </trkpt>
      <trkpt lat="45.58686" lon="6.64633">
        <ele>1641.1999511719</ele>
        <time>2015-04-07T07:12:37.000Z</time>
      </trkpt>
      <trkpt lat="45.58684" lon="6.64632">
        <ele>1641.8000488281</ele>
        <time>2015-04-07T07:12:41.000Z</time>
      </trkpt>
      <trkpt lat="45.58684" lon="6.64632">
        <ele>1642.4000244141</ele>
        <time>2015-04-07T07:12:43.000Z</time>
      </trkpt>
      <trkpt lat="45.58684" lon="6.64632">
        <ele>1643.5999755859</ele>
        <time>2015-04-07T07:12:48.000Z</time>
      </trkpt>
      <trkpt lat="45.58684" lon="6.64632">
        <ele>1644</ele>
        <time>2015-04-07T07:12:50.000Z</time>
      </trkpt>
      <trkpt lat="45.58684" lon="6.64632">
        <ele>1644.8000488281</ele>
        <time>2015-04-07T07:12:55.000Z</time>
      </trkpt>
      <trkpt lat="45.58685" lon="6.6463">
        <ele>1645.1999511719</ele>
        <time>2015-04-07T07:12:59.000Z</time>
      </trkpt>
      <trkpt lat="45.58685" lon="6.6463">
        <ele>1646</ele>
        <time>2015-04-07T07:13:02.000Z</time>
      </trkpt>
      <trkpt lat="45.58685" lon="6.6463">
        <ele>1647.1999511719</ele>
        <time>2015-04-07T07:13:08.000Z</time>
      </trkpt>
      <trkpt lat="45.58685" lon="6.6463">
        <ele>1647.5999755859</ele>
        <time>2015-04-07T07:13:09.000Z</time>
      </trkpt>
      <trkpt lat="45.58685" lon="6.6463">
        <ele>1648</ele>
        <time>2015-04-07T07:13:21.000Z</time>
      </trkpt>
      <trkpt lat="45.58685" lon="6.6463">
        <ele>1648</ele>
        <time>2015-04-07T07:13:36.000Z</time>
      </trkpt>
      <trkpt lat="45.58686" lon="6.64629">
        <ele>1647.5999755859</ele>
        <time>2015-04-07T07:13:53.000Z</time>
      </trkpt>
      <trkpt lat="45.58686" lon="6.64629">
        <ele>1648.1999511719</ele>
        <time>2015-04-07T07:14:05.000Z</time>
      </trkpt>
      <trkpt lat="45.58686" lon="6.64629">
        <ele>1648</ele>
        <time>2015-04-07T07:14:07.000Z</time>
      </trkpt>
      <trkpt lat="45.58686" lon="6.64629">
        <ele>1648</ele>
        <time>2015-04-07T07:14:20.000Z</time>
      </trkpt>
      <trkpt lat="45.58686" lon="6.64629">
        <ele>1648.1999511719</ele>
        <time>2015-04-07T07:14:34.000Z</time>
      </trkpt>
      <trkpt lat="45.58686" lon="6.64629">
        <ele>1648.1999511719</ele>
        <time>2015-04-07T07:14:42.000Z</time>
      </trkpt>
      <trkpt lat="45.58685" lon="6.64627">
        <ele>1647.8000488281</ele>
        <time>2015-04-07T07:14:53.000Z</time>
      </trkpt>
      <trkpt lat="45.58685" lon="6.64626">
        <ele>1648.1999511719</ele>
        <time>2015-04-07T07:15:07.000Z</time>
      </trkpt>
      <trkpt lat="45.58685" lon="6.64626">
        <ele>1648.8000488281</ele>
        <time>2015-04-07T07:15:19.000Z</time>
      </trkpt>
      <trkpt lat="45.58685" lon="6.64626">
        <ele>1648.4000244141</ele>
        <time>2015-04-07T07:15:31.000Z</time>
      </trkpt>
      <trkpt lat="45.58682" lon="6.64618">
        <ele>1648.8000488281</ele>
        <time>2015-04-07T07:15:39.000Z</time>
      </trkpt>
      <trkpt lat="45.58679" lon="6.64617">
        <ele>1649.4000244141</ele>
        <time>2015-04-07T07:15:43.000Z</time>
      </trkpt>
      <trkpt lat="45.58674" lon="6.6462">
        <ele>1650.1999511719</ele>
        <time>2015-04-07T07:15:48.000Z</time>
      </trkpt>
      <trkpt lat="45.58671" lon="6.64621">
        <ele>1650.8000488281</ele>
        <time>2015-04-07T07:15:50.000Z</time>
      </trkpt>
      <trkpt lat="45.58667" lon="6.64621">
        <ele>1651.5999755859</ele>
        <time>2015-04-07T07:15:55.000Z</time>
      </trkpt>
      <trkpt lat="45.58666" lon="6.64621">
        <ele>1651.8000488281</ele>
        <time>2015-04-07T07:15:58.000Z</time>
      </trkpt>
      <trkpt lat="45.58666" lon="6.64621">
        <ele>1652.4000244141</ele>
        <time>2015-04-07T07:16:03.000Z</time>
      </trkpt>
      <trkpt lat="45.58671" lon="6.64615">
        <ele>1653</ele>
        <time>2015-04-07T07:16:11.000Z</time>
      </trkpt>
      <trkpt lat="45.58673" lon="6.64614">
        <ele>1654.1999511719</ele>
        <time>2015-04-07T07:16:15.000Z</time>
      </trkpt>
      <trkpt lat="45.58672" lon="6.64613">
        <ele>1655</ele>
        <time>2015-04-07T07:16:20.000Z</time>
      </trkpt>
      <trkpt lat="45.58671" lon="6.64613">
        <ele>1655.4000244141</ele>
        <time>2015-04-07T07:16:21.000Z</time>
      </trkpt>
      <trkpt lat="45.58667" lon="6.64613">
        <ele>1656.4000244141</ele>
        <time>2015-04-07T07:16:26.000Z</time>
      </trkpt>
      <trkpt lat="45.58665" lon="6.64614">
        <ele>1657</ele>
        <time>2015-04-07T07:16:29.000Z</time>
      </trkpt>
      <trkpt lat="45.58665" lon="6.64614">
        <ele>1657.5999755859</ele>
        <time>2015-04-07T07:16:31.000Z</time>
      </trkpt>
      <trkpt lat="45.58667" lon="6.64606">
        <ele>1658.4000244141</ele>
        <time>2015-04-07T07:16:36.000Z</time>
      </trkpt>
      <trkpt lat="45.58668" lon="6.64603">
        <ele>1658.5999755859</ele>
        <time>2015-04-07T07:16:38.000Z</time>
      </trkpt>
      <trkpt lat="45.58672" lon="6.64599">
        <ele>1659.4000244141</ele>
        <time>2015-04-07T07:16:43.000Z</time>
      </trkpt>
      <trkpt lat="45.58673" lon="6.64598">
        <ele>1659.8000488281</ele>
        <time>2015-04-07T07:16:45.000Z</time>
      </trkpt>
      <trkpt lat="45.58674" lon="6.64597">
        <ele>1661</ele>
        <time>2015-04-07T07:16:50.000Z</time>
      </trkpt>
      <trkpt lat="45.58674" lon="6.64596">
        <ele>1661.5999755859</ele>
        <time>2015-04-07T07:17:00.000Z</time>
      </trkpt>
      <trkpt lat="45.58674" lon="6.64594">
        <ele>1662</ele>
        <time>2015-04-07T07:17:04.000Z</time>
      </trkpt>
      <trkpt lat="45.58674" lon="6.64592">
        <ele>1662.8000488281</ele>
        <time>2015-04-07T07:17:07.000Z</time>
      </trkpt>
      <trkpt lat="45.58676" lon="6.6459">
        <ele>1663.1999511719</ele>
        <time>2015-04-07T07:17:09.000Z</time>
      </trkpt>
      <trkpt lat="45.58678" lon="6.64587">
        <ele>1664.1999511719</ele>
        <time>2015-04-07T07:17:14.000Z</time>
      </trkpt>
      <trkpt lat="45.58679" lon="6.64586">
        <ele>1664.4000244141</ele>
        <time>2015-04-07T07:17:15.000Z</time>
      </trkpt>
      <trkpt lat="45.58679" lon="6.64582">
        <ele>1665.4000244141</ele>
        <time>2015-04-07T07:17:20.000Z</time>
      </trkpt>
      <trkpt lat="45.5868" lon="6.6458">
        <ele>1665.8000488281</ele>
        <time>2015-04-07T07:17:22.000Z</time>
      </trkpt>
      <trkpt lat="45.5868" lon="6.64577">
        <ele>1666.5999755859</ele>
        <time>2015-04-07T07:17:25.000Z</time>
      </trkpt>
      <trkpt lat="45.58676" lon="6.64576">
        <ele>1667.5999755859</ele>
        <time>2015-04-07T07:17:30.000Z</time>
      </trkpt>
      <trkpt lat="45.58671" lon="6.64576">
        <ele>1667.8000488281</ele>
        <time>2015-04-07T07:17:35.000Z</time>
      </trkpt>
      <trkpt lat="45.5867" lon="6.64576">
        <ele>1668</ele>
        <time>2015-04-07T07:17:36.000Z</time>
      </trkpt>
      <trkpt lat="45.58668" lon="6.64576">
        <ele>1668.8000488281</ele>
        <time>2015-04-07T07:17:39.000Z</time>
      </trkpt>
      <trkpt lat="45.58667" lon="6.64576">
        <ele>1669.5999755859</ele>
        <time>2015-04-07T07:17:43.000Z</time>
      </trkpt>
      <trkpt lat="45.58666" lon="6.64576">
        <ele>1670</ele>
        <time>2015-04-07T07:17:44.000Z</time>
      </trkpt>
      <trkpt lat="45.58666" lon="6.64576">
        <ele>1671.4000244141</ele>
        <time>2015-04-07T07:17:50.000Z</time>
      </trkpt>
      <trkpt lat="45.58667" lon="6.64575">
        <ele>1671.8000488281</ele>
        <time>2015-04-07T07:17:52.000Z</time>
      </trkpt>
      <trkpt lat="45.58669" lon="6.6457">
        <ele>1672.4000244141</ele>
        <time>2015-04-07T07:17:59.000Z</time>
      </trkpt>
      <trkpt lat="45.5867" lon="6.6457">
        <ele>1672.5999755859</ele>
        <time>2015-04-07T07:18:00.000Z</time>
      </trkpt>
      <trkpt lat="45.58674" lon="6.64564">
        <ele>1673.8000488281</ele>
        <time>2015-04-07T07:18:05.000Z</time>
      </trkpt>
      <trkpt lat="45.58677" lon="6.64563">
        <ele>1674</ele>
        <time>2015-04-07T07:18:07.000Z</time>
      </trkpt>
      <trkpt lat="45.5868" lon="6.64557">
        <ele>1674.8000488281</ele>
        <time>2015-04-07T07:18:12.000Z</time>
      </trkpt>
      <trkpt lat="45.5868" lon="6.64557">
        <ele>1675.8000488281</ele>
        <time>2015-04-07T07:18:15.000Z</time>
      </trkpt>
      <trkpt lat="45.5868" lon="6.64557">
        <ele>1676</ele>
        <time>2015-04-07T07:18:16.000Z</time>
      </trkpt>
      <trkpt lat="45.5868" lon="6.64555">
        <ele>1677</ele>
        <time>2015-04-07T07:18:21.000Z</time>
      </trkpt>
      <trkpt lat="45.5868" lon="6.64555">
        <ele>1677.4000244141</ele>
        <time>2015-04-07T07:18:23.000Z</time>
      </trkpt>
      <trkpt lat="45.58677" lon="6.64556">
        <ele>1678.1999511719</ele>
        <time>2015-04-07T07:18:30.000Z</time>
      </trkpt>
      <trkpt lat="45.58672" lon="6.64555">
        <ele>1679</ele>
        <time>2015-04-07T07:18:36.000Z</time>
      </trkpt>
      <trkpt lat="45.58669" lon="6.64554">
        <ele>1679.5999755859</ele>
        <time>2015-04-07T07:18:38.000Z</time>
      </trkpt>
      <trkpt lat="45.58666" lon="6.64552">
        <ele>1680.1999511719</ele>
        <time>2015-04-07T07:18:43.000Z</time>
      </trkpt>
      <trkpt lat="45.58664" lon="6.64551">
        <ele>1680.8000488281</ele>
        <time>2015-04-07T07:18:45.000Z</time>
      </trkpt>
      <trkpt lat="45.58661" lon="6.6455">
        <ele>1681.8000488281</ele>
        <time>2015-04-07T07:18:49.000Z</time>
      </trkpt>
      <trkpt lat="45.58662" lon="6.64547">
        <ele>1683</ele>
        <time>2015-04-07T07:18:54.000Z</time>
      </trkpt>
      <trkpt lat="45.58665" lon="6.64543">
        <ele>1684</ele>
        <time>2015-04-07T07:19:01.000Z</time>
      </trkpt>
      <trkpt lat="45.58665" lon="6.64543">
        <ele>1684.8000488281</ele>
        <time>2015-04-07T07:19:03.000Z</time>
      </trkpt>
      <trkpt lat="45.58667" lon="6.64541">
        <ele>1685.1999511719</ele>
        <time>2015-04-07T07:19:04.000Z</time>
      </trkpt>
      <trkpt lat="45.58668" lon="6.6454">
        <ele>1686.1999511719</ele>
        <time>2015-04-07T07:19:11.000Z</time>
      </trkpt>
      <trkpt lat="45.58668" lon="6.6454">
        <ele>1686.1999511719</ele>
        <time>2015-04-07T07:19:13.000Z</time>
      </trkpt>
      <trkpt lat="45.58667" lon="6.64537">
        <ele>1687.4000244141</ele>
        <time>2015-04-07T07:19:19.000Z</time>
      </trkpt>
      <trkpt lat="45.58665" lon="6.64535">
        <ele>1688.4000244141</ele>
        <time>2015-04-07T07:19:27.000Z</time>
      </trkpt>
      <trkpt lat="45.5866" lon="6.64531">
        <ele>1689.4000244141</ele>
        <time>2015-04-07T07:19:35.000Z</time>
      </trkpt>
      <trkpt lat="45.58658" lon="6.6453">
        <ele>1690.4000244141</ele>
        <time>2015-04-07T07:19:38.000Z</time>
      </trkpt>
      <trkpt lat="45.58657" lon="6.64529">
        <ele>1691.1999511719</ele>
        <time>2015-04-07T07:19:43.000Z</time>
      </trkpt>
      <trkpt lat="45.58657" lon="6.64529">
        <ele>1691.4000244141</ele>
        <time>2015-04-07T07:19:45.000Z</time>
      </trkpt>
      <trkpt lat="45.58661" lon="6.64526">
        <ele>1692.5999755859</ele>
        <time>2015-04-07T07:19:51.000Z</time>
      </trkpt>
      <trkpt lat="45.58665" lon="6.64519">
        <ele>1693.8000488281</ele>
        <time>2015-04-07T07:19:57.000Z</time>
      </trkpt>
      <trkpt lat="45.58666" lon="6.64518">
        <ele>1694</ele>
        <time>2015-04-07T07:19:58.000Z</time>
      </trkpt>
      <trkpt lat="45.58668" lon="6.64516">
        <ele>1694.8000488281</ele>
        <time>2015-04-07T07:20:01.000Z</time>
      </trkpt>
      <trkpt lat="45.58668" lon="6.64516">
        <ele>1695.8000488281</ele>
        <time>2015-04-07T07:20:07.000Z</time>
      </trkpt>
      <trkpt lat="45.58668" lon="6.64516">
        <ele>1696</ele>
        <time>2015-04-07T07:20:08.000Z</time>
      </trkpt>
      <trkpt lat="45.58669" lon="6.64515">
        <ele>1697.1999511719</ele>
        <time>2015-04-07T07:20:13.000Z</time>
      </trkpt>
      <trkpt lat="45.58668" lon="6.64514">
        <ele>1698.1999511719</ele>
        <time>2015-04-07T07:20:17.000Z</time>
      </trkpt>
      <trkpt lat="45.58666" lon="6.64513">
        <ele>1699.1999511719</ele>
        <time>2015-04-07T07:20:24.000Z</time>
      </trkpt>
      <trkpt lat="45.58666" lon="6.64512">
        <ele>1699.8000488281</ele>
        <time>2015-04-07T07:20:26.000Z</time>
      </trkpt>
      <trkpt lat="45.58665" lon="6.64511">
        <ele>1700.4000244141</ele>
        <time>2015-04-07T07:20:28.000Z</time>
      </trkpt>
      <trkpt lat="45.58663" lon="6.64509">
        <ele>1701.4000244141</ele>
        <time>2015-04-07T07:20:33.000Z</time>
      </trkpt>
      <trkpt lat="45.58663" lon="6.64509">
        <ele>1701.5999755859</ele>
        <time>2015-04-07T07:20:37.000Z</time>
      </trkpt>
      <trkpt lat="45.58661" lon="6.64508">
        <ele>1702.5999755859</ele>
        <time>2015-04-07T07:20:41.000Z</time>
      </trkpt>
      <trkpt lat="45.58657" lon="6.64506">
        <ele>1703</ele>
        <time>2015-04-07T07:20:44.000Z</time>
      </trkpt>
      <trkpt lat="45.58657" lon="6.64506">
        <ele>1703.5999755859</ele>
        <time>2015-04-07T07:20:47.000Z</time>
      </trkpt>
      <trkpt lat="45.58656" lon="6.64504">
        <ele>1703.8000488281</ele>
        <time>2015-04-07T07:20:51.000Z</time>
      </trkpt>
      <trkpt lat="45.58656" lon="6.64504">
        <ele>1704.5999755859</ele>
        <time>2015-04-07T07:20:57.000Z</time>
      </trkpt>
      <trkpt lat="45.58656" lon="6.64503">
        <ele>1704.5999755859</ele>
        <time>2015-04-07T07:21:00.000Z</time>
      </trkpt>
      <trkpt lat="45.58657" lon="6.64501">
        <ele>1705.5999755859</ele>
        <time>2015-04-07T07:21:05.000Z</time>
      </trkpt>
      <trkpt lat="45.58657" lon="6.64501">
        <ele>1706.8000488281</ele>
        <time>2015-04-07T07:21:12.000Z</time>
      </trkpt>
      <trkpt lat="45.58657" lon="6.64499">
        <ele>1708</ele>
        <time>2015-04-07T07:21:17.000Z</time>
      </trkpt>
      <trkpt lat="45.58656" lon="6.64491">
        <ele>1708.5999755859</ele>
        <time>2015-04-07T07:21:23.000Z</time>
      </trkpt>
      <trkpt lat="45.58654" lon="6.64489">
        <ele>1709.1999511719</ele>
        <time>2015-04-07T07:21:26.000Z</time>
      </trkpt>
      <trkpt lat="45.5865" lon="6.64485">
        <ele>1710.4000244141</ele>
        <time>2015-04-07T07:21:31.000Z</time>
      </trkpt>
      <trkpt lat="45.5865" lon="6.64485">
        <ele>1710.5999755859</ele>
        <time>2015-04-07T07:21:32.000Z</time>
      </trkpt>
      <trkpt lat="45.58648" lon="6.64484">
        <ele>1711.4000244141</ele>
        <time>2015-04-07T07:21:35.000Z</time>
      </trkpt>
      <trkpt lat="45.58646" lon="6.64484">
        <ele>1712.1999511719</ele>
        <time>2015-04-07T07:21:38.000Z</time>
      </trkpt>
      <trkpt lat="45.58646" lon="6.64483">
        <ele>1712.4000244141</ele>
        <time>2015-04-07T07:21:39.000Z</time>
      </trkpt>
      <trkpt lat="45.58644" lon="6.64483">
        <ele>1713.4000244141</ele>
        <time>2015-04-07T07:21:44.000Z</time>
      </trkpt>
      <trkpt lat="45.58644" lon="6.64483">
        <ele>1713.5999755859</ele>
        <time>2015-04-07T07:21:45.000Z</time>
      </trkpt>
      <trkpt lat="45.58644" lon="6.64483">
        <ele>1714.1999511719</ele>
        <time>2015-04-07T07:21:51.000Z</time>
      </trkpt>
      <trkpt lat="45.58644" lon="6.64483">
        <ele>1714.4000244141</ele>
        <time>2015-04-07T07:21:52.000Z</time>
      </trkpt>
      <trkpt lat="45.58644" lon="6.64482">
        <ele>1715.5999755859</ele>
        <time>2015-04-07T07:21:57.000Z</time>
      </trkpt>
      <trkpt lat="45.58645" lon="6.64479">
        <ele>1715.5999755859</ele>
        <time>2015-04-07T07:21:59.000Z</time>
      </trkpt>
      <trkpt lat="45.58646" lon="6.64473">
        <ele>1716</ele>
        <time>2015-04-07T07:22:05.000Z</time>
      </trkpt>
      <trkpt lat="45.58646" lon="6.64472">
        <ele>1716.5999755859</ele>
        <time>2015-04-07T07:22:07.000Z</time>
      </trkpt>
      <trkpt lat="45.58648" lon="6.64468">
        <ele>1717.8000488281</ele>
        <time>2015-04-07T07:22:12.000Z</time>
      </trkpt>
      <trkpt lat="45.58651" lon="6.64464">
        <ele>1719</ele>
        <time>2015-04-07T07:22:17.000Z</time>
      </trkpt>
      <trkpt lat="45.58652" lon="6.64463">
        <ele>1719.1999511719</ele>
        <time>2015-04-07T07:22:18.000Z</time>
      </trkpt>
      <trkpt lat="45.58653" lon="6.64458">
        <ele>1720.1999511719</ele>
        <time>2015-04-07T07:22:23.000Z</time>
      </trkpt>
      <trkpt lat="45.58653" lon="6.64457">
        <ele>1720.5999755859</ele>
        <time>2015-04-07T07:22:25.000Z</time>
      </trkpt>
      <trkpt lat="45.58653" lon="6.64457">
        <ele>1721.4000244141</ele>
        <time>2015-04-07T07:22:27.000Z</time>
      </trkpt>
      <trkpt lat="45.58647" lon="6.64458">
        <ele>1721.8000488281</ele>
        <time>2015-04-07T07:22:32.000Z</time>
      </trkpt>
      <trkpt lat="45.58643" lon="6.64457">
        <ele>1722.4000244141</ele>
        <time>2015-04-07T07:22:37.000Z</time>
      </trkpt>
      <trkpt lat="45.58639" lon="6.64457">
        <ele>1723.4000244141</ele>
        <time>2015-04-07T07:22:43.000Z</time>
      </trkpt>
      <trkpt lat="45.58639" lon="6.64457">
        <ele>1723.5999755859</ele>
        <time>2015-04-07T07:22:44.000Z</time>
      </trkpt>
      <trkpt lat="45.58637" lon="6.64455">
        <ele>1724.5999755859</ele>
        <time>2015-04-07T07:22:48.000Z</time>
      </trkpt>
      <trkpt lat="45.58637" lon="6.64455">
        <ele>1725.1999511719</ele>
        <time>2015-04-07T07:22:50.000Z</time>
      </trkpt>
      <trkpt lat="45.58637" lon="6.64455">
        <ele>1724.4000244141</ele>
        <time>2015-04-07T07:23:03.000Z</time>
      </trkpt>
      <trkpt lat="45.58637" lon="6.64455">
        <ele>1725.1999511719</ele>
        <time>2015-04-07T07:23:16.000Z</time>
      </trkpt>
      <trkpt lat="45.58637" lon="6.64455">
        <ele>1725</ele>
        <time>2015-04-07T07:23:28.000Z</time>
      </trkpt>
      <trkpt lat="45.58637" lon="6.64455">
        <ele>1725.8000488281</ele>
        <time>2015-04-07T07:23:40.000Z</time>
      </trkpt>
      <trkpt lat="45.58637" lon="6.64455">
        <ele>1725.1999511719</ele>
        <time>2015-04-07T07:23:55.000Z</time>
      </trkpt>
      <trkpt lat="45.58634" lon="6.64456">
        <ele>1725.1999511719</ele>
        <time>2015-04-07T07:24:05.000Z</time>
      </trkpt>
      <trkpt lat="45.58634" lon="6.64456">
        <ele>1725.1999511719</ele>
        <time>2015-04-07T07:24:19.000Z</time>
      </trkpt>
      <trkpt lat="45.58634" lon="6.64456">
        <ele>1725.1999511719</ele>
        <time>2015-04-07T07:24:36.000Z</time>
      </trkpt>
      <trkpt lat="45.58634" lon="6.64456">
        <ele>1725</ele>
        <time>2015-04-07T07:24:38.000Z</time>
      </trkpt>
      <trkpt lat="45.58634" lon="6.64456">
        <ele>1725.1999511719</ele>
        <time>2015-04-07T07:24:54.000Z</time>
      </trkpt>
      <trkpt lat="45.58634" lon="6.64456">
        <ele>1725.1999511719</ele>
        <time>2015-04-07T07:25:02.000Z</time>
      </trkpt>
      <trkpt lat="45.58634" lon="6.64456">
        <ele>1725.8000488281</ele>
        <time>2015-04-07T07:25:14.000Z</time>
      </trkpt>
      <trkpt lat="45.58634" lon="6.64456">
        <ele>1725.8000488281</ele>
        <time>2015-04-07T07:25:24.000Z</time>
      </trkpt>
      <trkpt lat="45.58634" lon="6.64455">
        <ele>1725.8000488281</ele>
        <time>2015-04-07T07:25:35.000Z</time>
      </trkpt>
      <trkpt lat="45.58634" lon="6.64455">
        <ele>1725.8000488281</ele>
        <time>2015-04-07T07:25:44.000Z</time>
      </trkpt>
      <trkpt lat="45.58634" lon="6.64455">
        <ele>1725.8000488281</ele>
        <time>2015-04-07T07:25:53.000Z</time>
      </trkpt>
      <trkpt lat="45.58634" lon="6.64455">
        <ele>1725.4000244141</ele>
        <time>2015-04-07T07:26:02.000Z</time>
      </trkpt>
      <trkpt lat="45.58634" lon="6.64455">
        <ele>1725.4000244141</ele>
        <time>2015-04-07T07:26:03.000Z</time>
      </trkpt>
      <trkpt lat="45.58634" lon="6.64455">
        <ele>1725.5999755859</ele>
        <time>2015-04-07T07:26:16.000Z</time>
      </trkpt>
      <trkpt lat="45.58634" lon="6.64455">
        <ele>1725.5999755859</ele>
        <time>2015-04-07T07:26:29.000Z</time>
      </trkpt>
      <trkpt lat="45.58637" lon="6.64454">
        <ele>1725.5999755859</ele>
        <time>2015-04-07T07:26:38.000Z</time>
      </trkpt>
      <trkpt lat="45.58645" lon="6.64451">
        <ele>1726.1999511719</ele>
        <time>2015-04-07T07:26:46.000Z</time>
      </trkpt>
      <trkpt lat="45.58647" lon="6.6445">
        <ele>1726.8000488281</ele>
        <time>2015-04-07T07:26:51.000Z</time>
      </trkpt>
      <trkpt lat="45.58647" lon="6.6445">
        <ele>1727</ele>
        <time>2015-04-07T07:26:53.000Z</time>
      </trkpt>
      <trkpt lat="45.58648" lon="6.6445">
        <ele>1727</ele>
        <time>2015-04-07T07:27:07.000Z</time>
      </trkpt>
      <trkpt lat="45.58652" lon="6.64449">
        <ele>1727.5999755859</ele>
        <time>2015-04-07T07:27:14.000Z</time>
      </trkpt>
      <trkpt lat="45.58659" lon="6.64446">
        <ele>1727.8000488281</ele>
        <time>2015-04-07T07:27:20.000Z</time>
      </trkpt>
      <trkpt lat="45.58661" lon="6.64446">
        <ele>1728</ele>
        <time>2015-04-07T07:27:21.000Z</time>
      </trkpt>
      <trkpt lat="45.5867" lon="6.64444">
        <ele>1729</ele>
        <time>2015-04-07T07:27:27.000Z</time>
      </trkpt>
      <trkpt lat="45.58672" lon="6.64443">
        <ele>1729.4000244141</ele>
        <time>2015-04-07T07:27:28.000Z</time>
      </trkpt>
      <trkpt lat="45.58679" lon="6.64441">
        <ele>1729.8000488281</ele>
        <time>2015-04-07T07:27:34.000Z</time>
      </trkpt>
      <trkpt lat="45.5868" lon="6.6444">
        <ele>1730</ele>
        <time>2015-04-07T07:27:35.000Z</time>
      </trkpt>
      <trkpt lat="45.58682" lon="6.64439">
        <ele>1730.1999511719</ele>
        <time>2015-04-07T07:27:37.000Z</time>
      </trkpt>
      <trkpt lat="45.58684" lon="6.64435">
        <ele>1730.4000244141</ele>
        <time>2015-04-07T07:27:40.000Z</time>
      </trkpt>
      <trkpt lat="45.58682" lon="6.64431">
        <ele>1731.4000244141</ele>
        <time>2015-04-07T07:27:45.000Z</time>
      </trkpt>
      <trkpt lat="45.58682" lon="6.64431">
        <ele>1731.5999755859</ele>
        <time>2015-04-07T07:27:46.000Z</time>
      </trkpt>
      <trkpt lat="45.58678" lon="6.64432">
        <ele>1731.8000488281</ele>
        <time>2015-04-07T07:27:48.000Z</time>
      </trkpt>
      <trkpt lat="45.58673" lon="6.64433">
        <ele>1732.1999511719</ele>
        <time>2015-04-07T07:27:51.000Z</time>
      </trkpt>
      <trkpt lat="45.58666" lon="6.64431">
        <ele>1732.1999511719</ele>
        <time>2015-04-07T07:27:56.000Z</time>
      </trkpt>
      <trkpt lat="45.58663" lon="6.64431">
        <ele>1732.4000244141</ele>
        <time>2015-04-07T07:27:59.000Z</time>
      </trkpt>
      <trkpt lat="45.5866" lon="6.64431">
        <ele>1732.5999755859</ele>
        <time>2015-04-07T07:28:01.000Z</time>
      </trkpt>
      <trkpt lat="45.58658" lon="6.64432">
        <ele>1733</ele>
        <time>2015-04-07T07:28:03.000Z</time>
      </trkpt>
      <trkpt lat="45.58656" lon="6.64431">
        <ele>1733.4000244141</ele>
        <time>2015-04-07T07:28:05.000Z</time>
      </trkpt>
      <trkpt lat="45.58652" lon="6.6443">
        <ele>1734.1999511719</ele>
        <time>2015-04-07T07:28:10.000Z</time>
      </trkpt>
      <trkpt lat="45.5865" lon="6.64429">
        <ele>1734.4000244141</ele>
        <time>2015-04-07T07:28:13.000Z</time>
      </trkpt>
      <trkpt lat="45.58647" lon="6.64429">
        <ele>1735</ele>
        <time>2015-04-07T07:28:16.000Z</time>
      </trkpt>
      <trkpt lat="45.58642" lon="6.64428">
        <ele>1735.4000244141</ele>
        <time>2015-04-07T07:28:21.000Z</time>
      </trkpt>
      <trkpt lat="45.5864" lon="6.64428">
        <ele>1735.4000244141</ele>
        <time>2015-04-07T07:28:22.000Z</time>
      </trkpt>
      <trkpt lat="45.58637" lon="6.64429">
        <ele>1736.4000244141</ele>
        <time>2015-04-07T07:28:27.000Z</time>
      </trkpt>
      <trkpt lat="45.58636" lon="6.64429">
        <ele>1736.5999755859</ele>
        <time>2015-04-07T07:28:28.000Z</time>
      </trkpt>
      <trkpt lat="45.58633" lon="6.64428">
        <ele>1736.8000488281</ele>
        <time>2015-04-07T07:28:32.000Z</time>
      </trkpt>
      <trkpt lat="45.58629" lon="6.64425">
        <ele>1737.5999755859</ele>
        <time>2015-04-07T07:28:38.000Z</time>
      </trkpt>
      <trkpt lat="45.58628" lon="6.64425">
        <ele>1738.5999755859</ele>
        <time>2015-04-07T07:28:41.000Z</time>
      </trkpt>
      <trkpt lat="45.58628" lon="6.64425">
        <ele>1738.8000488281</ele>
        <time>2015-04-07T07:28:42.000Z</time>
      </trkpt>
      <trkpt lat="45.58623" lon="6.64426">
        <ele>1739</ele>
        <time>2015-04-07T07:28:47.000Z</time>
      </trkpt>
      <trkpt lat="45.58622" lon="6.64427">
        <ele>1739</ele>
        <time>2015-04-07T07:28:48.000Z</time>
      </trkpt>
      <trkpt lat="45.58617" lon="6.6443">
        <ele>1738.8000488281</ele>
        <time>2015-04-07T07:28:52.000Z</time>
      </trkpt>
      <trkpt lat="45.5861" lon="6.64432">
        <ele>1739.4000244141</ele>
        <time>2015-04-07T07:28:57.000Z</time>
      </trkpt>
      <trkpt lat="45.58605" lon="6.64432">
        <ele>1739.8000488281</ele>
        <time>2015-04-07T07:29:03.000Z</time>
      </trkpt>
      <trkpt lat="45.58604" lon="6.64432">
        <ele>1740</ele>
        <time>2015-04-07T07:29:04.000Z</time>
      </trkpt>
      <trkpt lat="45.586" lon="6.64433">
        <ele>1740.8000488281</ele>
        <time>2015-04-07T07:29:08.000Z</time>
      </trkpt>
      <trkpt lat="45.58598" lon="6.64435">
        <ele>1741</ele>
        <time>2015-04-07T07:29:10.000Z</time>
      </trkpt>
      <trkpt lat="45.58591" lon="6.64439">
        <ele>1741.8000488281</ele>
        <time>2015-04-07T07:29:17.000Z</time>
      </trkpt>
      <trkpt lat="45.58589" lon="6.6444">
        <ele>1742</ele>
        <time>2015-04-07T07:29:19.000Z</time>
      </trkpt>
      <trkpt lat="45.58586" lon="6.6444">
        <ele>1742.4000244141</ele>
        <time>2015-04-07T07:29:22.000Z</time>
      </trkpt>
      <trkpt lat="45.58581" lon="6.64443">
        <ele>1742.8000488281</ele>
        <time>2015-04-07T07:29:27.000Z</time>
      </trkpt>
      <trkpt lat="45.58575" lon="6.64444">
        <ele>1743.1999511719</ele>
        <time>2015-04-07T07:29:31.000Z</time>
      </trkpt>
      <trkpt lat="45.58573" lon="6.64444">
        <ele>1743.4000244141</ele>
        <time>2015-04-07T07:29:34.000Z</time>
      </trkpt>
      <trkpt lat="45.58568" lon="6.64447">
        <ele>1744</ele>
        <time>2015-04-07T07:29:40.000Z</time>
      </trkpt>
      <trkpt lat="45.58566" lon="6.64447">
        <ele>1744.1999511719</ele>
        <time>2015-04-07T07:29:43.000Z</time>
      </trkpt>
      <trkpt lat="45.58564" lon="6.64448">
        <ele>1744.5999755859</ele>
        <time>2015-04-07T07:29:46.000Z</time>
      </trkpt>
      <trkpt lat="45.5856" lon="6.6445">
        <ele>1745.1999511719</ele>
        <time>2015-04-07T07:29:49.000Z</time>
      </trkpt>
      <trkpt lat="45.58557" lon="6.64452">
        <ele>1745.4000244141</ele>
        <time>2015-04-07T07:29:51.000Z</time>
      </trkpt>
      <trkpt lat="45.58553" lon="6.64455">
        <ele>1746.1999511719</ele>
        <time>2015-04-07T07:29:56.000Z</time>
      </trkpt>
      <trkpt lat="45.58548" lon="6.64458">
        <ele>1746.8000488281</ele>
        <time>2015-04-07T07:30:01.000Z</time>
      </trkpt>
      <trkpt lat="45.5854" lon="6.6446">
        <ele>1747.1999511719</ele>
        <time>2015-04-07T07:30:09.000Z</time>
      </trkpt>
      <trkpt lat="45.58534" lon="6.64459">
        <ele>1748</ele>
        <time>2015-04-07T07:30:16.000Z</time>
      </trkpt>
      <trkpt lat="45.58531" lon="6.6446">
        <ele>1748.4000244141</ele>
        <time>2015-04-07T07:30:18.000Z</time>
      </trkpt>
      <trkpt lat="45.58528" lon="6.6446">
        <ele>1748.5999755859</ele>
        <time>2015-04-07T07:30:22.000Z</time>
      </trkpt>
      <trkpt lat="45.58525" lon="6.6446">
        <ele>1748.5999755859</ele>
        <time>2015-04-07T07:30:24.000Z</time>
      </trkpt>
      <trkpt lat="45.58519" lon="6.6446">
        <ele>1748.8000488281</ele>
        <time>2015-04-07T07:30:28.000Z</time>
      </trkpt>
      <trkpt lat="45.58514" lon="6.64458">
        <ele>1749</ele>
        <time>2015-04-07T07:30:33.000Z</time>
      </trkpt>
      <trkpt lat="45.58507" lon="6.64457">
        <ele>1748.8000488281</ele>
        <time>2015-04-07T07:30:39.000Z</time>
      </trkpt>
      <trkpt lat="45.585" lon="6.64456">
        <ele>1749.1999511719</ele>
        <time>2015-04-07T07:30:45.000Z</time>
      </trkpt>
      <trkpt lat="45.58497" lon="6.64455">
        <ele>1749.4000244141</ele>
        <time>2015-04-07T07:30:49.000Z</time>
      </trkpt>
      <trkpt lat="45.58496" lon="6.64455">
        <ele>1749.4000244141</ele>
        <time>2015-04-07T07:30:50.000Z</time>
      </trkpt>
      <trkpt lat="45.5849" lon="6.64454">
        <ele>1749.4000244141</ele>
        <time>2015-04-07T07:30:55.000Z</time>
      </trkpt>
      <trkpt lat="45.58486" lon="6.64454">
        <ele>1749.4000244141</ele>
        <time>2015-04-07T07:31:00.000Z</time>
      </trkpt>
      <trkpt lat="45.58484" lon="6.64453">
        <ele>1749.5999755859</ele>
        <time>2015-04-07T07:31:06.000Z</time>
      </trkpt>
      <trkpt lat="45.58482" lon="6.64452">
        <ele>1750.4000244141</ele>
        <time>2015-04-07T07:31:09.000Z</time>
      </trkpt>
      <trkpt lat="45.58481" lon="6.64451">
        <ele>1750.8000488281</ele>
        <time>2015-04-07T07:31:11.000Z</time>
      </trkpt>
      <trkpt lat="45.58479" lon="6.64449">
        <ele>1751.4000244141</ele>
        <time>2015-04-07T07:31:13.000Z</time>
      </trkpt>
      <trkpt lat="45.58478" lon="6.64447">
        <ele>1751.8000488281</ele>
        <time>2015-04-07T07:31:16.000Z</time>
      </trkpt>
      <trkpt lat="45.58475" lon="6.64444">
        <ele>1752.4000244141</ele>
        <time>2015-04-07T07:31:21.000Z</time>
      </trkpt>
      <trkpt lat="45.58474" lon="6.64443">
        <ele>1752.5999755859</ele>
        <time>2015-04-07T07:31:22.000Z</time>
      </trkpt>
      <trkpt lat="45.58471" lon="6.6444">
        <ele>1753.5999755859</ele>
        <time>2015-04-07T07:31:27.000Z</time>
      </trkpt>
      <trkpt lat="45.5847" lon="6.64439">
        <ele>1754</ele>
        <time>2015-04-07T07:31:28.000Z</time>
      </trkpt>
      <trkpt lat="45.58467" lon="6.64434">
        <ele>1754.8000488281</ele>
        <time>2015-04-07T07:31:33.000Z</time>
      </trkpt>
      <trkpt lat="45.58464" lon="6.64429">
        <ele>1755.8000488281</ele>
        <time>2015-04-07T07:31:39.000Z</time>
      </trkpt>
      <trkpt lat="45.58463" lon="6.64427">
        <ele>1757</ele>
        <time>2015-04-07T07:31:43.000Z</time>
      </trkpt>
      <trkpt lat="45.58462" lon="6.64426">
        <ele>1757.1999511719</ele>
        <time>2015-04-07T07:31:45.000Z</time>
      </trkpt>
      <trkpt lat="45.58461" lon="6.64423">
        <ele>1758.1999511719</ele>
        <time>2015-04-07T07:31:49.000Z</time>
      </trkpt>
      <trkpt lat="45.5846" lon="6.64419">
        <ele>1759.1999511719</ele>
        <time>2015-04-07T07:31:53.000Z</time>
      </trkpt>
      <trkpt lat="45.58459" lon="6.64416">
        <ele>1760.1999511719</ele>
        <time>2015-04-07T07:31:58.000Z</time>
      </trkpt>
      <trkpt lat="45.58458" lon="6.64415">
        <ele>1760.4000244141</ele>
        <time>2015-04-07T07:31:59.000Z</time>
      </trkpt>
      <trkpt lat="45.58457" lon="6.64411">
        <ele>1761.4000244141</ele>
        <time>2015-04-07T07:32:02.000Z</time>
      </trkpt>
      <trkpt lat="45.58457" lon="6.64411">
        <ele>1761.5999755859</ele>
        <time>2015-04-07T07:32:03.000Z</time>
      </trkpt>
      <trkpt lat="45.58454" lon="6.64406">
        <ele>1762.5999755859</ele>
        <time>2015-04-07T07:32:08.000Z</time>
      </trkpt>
      <trkpt lat="45.58452" lon="6.64401">
        <ele>1763.5999755859</ele>
        <time>2015-04-07T07:32:14.000Z</time>
      </trkpt>
      <trkpt lat="45.58451" lon="6.644">
        <ele>1763.8000488281</ele>
        <time>2015-04-07T07:32:15.000Z</time>
      </trkpt>
      <trkpt lat="45.58449" lon="6.64397">
        <ele>1764.8000488281</ele>
        <time>2015-04-07T07:32:20.000Z</time>
      </trkpt>
      <trkpt lat="45.58447" lon="6.64392">
        <ele>1765.8000488281</ele>
        <time>2015-04-07T07:32:25.000Z</time>
      </trkpt>
      <trkpt lat="45.58447" lon="6.64392">
        <ele>1766</ele>
        <time>2015-04-07T07:32:26.000Z</time>
      </trkpt>
      <trkpt lat="45.58445" lon="6.64388">
        <ele>1766.8000488281</ele>
        <time>2015-04-07T07:32:30.000Z</time>
      </trkpt>
      <trkpt lat="45.58444" lon="6.64387">
        <ele>1767.1999511719</ele>
        <time>2015-04-07T07:32:31.000Z</time>
      </trkpt>
      <trkpt lat="45.58441" lon="6.64381">
        <ele>1768</ele>
        <time>2015-04-07T07:32:36.000Z</time>
      </trkpt>
      <trkpt lat="45.58441" lon="6.6438">
        <ele>1768.4000244141</ele>
        <time>2015-04-07T07:32:38.000Z</time>
      </trkpt>
      <trkpt lat="45.58439" lon="6.64377">
        <ele>1769.4000244141</ele>
        <time>2015-04-07T07:32:42.000Z</time>
      </trkpt>
      <trkpt lat="45.58439" lon="6.64376">
        <ele>1769.5999755859</ele>
        <time>2015-04-07T07:32:43.000Z</time>
      </trkpt>
      <trkpt lat="45.58438" lon="6.64373">
        <ele>1770.5999755859</ele>
        <time>2015-04-07T07:32:47.000Z</time>
      </trkpt>
      <trkpt lat="45.58436" lon="6.64368">
        <ele>1771.4000244141</ele>
        <time>2015-04-07T07:32:52.000Z</time>
      </trkpt>
      <trkpt lat="45.58435" lon="6.64366">
        <ele>1771.8000488281</ele>
        <time>2015-04-07T07:32:54.000Z</time>
      </trkpt>
      <trkpt lat="45.58433" lon="6.64364">
        <ele>1772.1999511719</ele>
        <time>2015-04-07T07:32:57.000Z</time>
      </trkpt>
      <trkpt lat="45.58431" lon="6.64361">
        <ele>1772.8000488281</ele>
        <time>2015-04-07T07:33:00.000Z</time>
      </trkpt>
      <trkpt lat="45.58431" lon="6.64361">
        <ele>1773.1999511719</ele>
        <time>2015-04-07T07:33:01.000Z</time>
      </trkpt>
      <trkpt lat="45.5843" lon="6.64358">
        <ele>1774</ele>
        <time>2015-04-07T07:33:04.000Z</time>
      </trkpt>
      <trkpt lat="45.58427" lon="6.64354">
        <ele>1774.4000244141</ele>
        <time>2015-04-07T07:33:07.000Z</time>
      </trkpt>
      <trkpt lat="45.58427" lon="6.64353">
        <ele>1775</ele>
        <time>2015-04-07T07:33:09.000Z</time>
      </trkpt>
      <trkpt lat="45.58424" lon="6.64349">
        <ele>1775.5999755859</ele>
        <time>2015-04-07T07:33:13.000Z</time>
      </trkpt>
      <trkpt lat="45.58423" lon="6.64348">
        <ele>1776.1999511719</ele>
        <time>2015-04-07T07:33:16.000Z</time>
      </trkpt>
      <trkpt lat="45.58422" lon="6.64347">
        <ele>1776.5999755859</ele>
        <time>2015-04-07T07:33:18.000Z</time>
      </trkpt>
      <trkpt lat="45.58421" lon="6.64345">
        <ele>1777.1999511719</ele>
        <time>2015-04-07T07:33:21.000Z</time>
      </trkpt>
      <trkpt lat="45.58419" lon="6.64342">
        <ele>1778</ele>
        <time>2015-04-07T07:33:24.000Z</time>
      </trkpt>
      <trkpt lat="45.58418" lon="6.64341">
        <ele>1778.4000244141</ele>
        <time>2015-04-07T07:33:26.000Z</time>
      </trkpt>
      <trkpt lat="45.58416" lon="6.64338">
        <ele>1779.4000244141</ele>
        <time>2015-04-07T07:33:30.000Z</time>
      </trkpt>
      <trkpt lat="45.58416" lon="6.64337">
        <ele>1779.4000244141</ele>
        <time>2015-04-07T07:33:31.000Z</time>
      </trkpt>
      <trkpt lat="45.58415" lon="6.64334">
        <ele>1780.5999755859</ele>
        <time>2015-04-07T07:33:35.000Z</time>
      </trkpt>
      <trkpt lat="45.58415" lon="6.64334">
        <ele>1780.8000488281</ele>
        <time>2015-04-07T07:33:36.000Z</time>
      </trkpt>
      <trkpt lat="45.58415" lon="6.64332">
        <ele>1781.8000488281</ele>
        <time>2015-04-07T07:33:41.000Z</time>
      </trkpt>
      <trkpt lat="45.58418" lon="6.64331">
        <ele>1782.8000488281</ele>
        <time>2015-04-07T07:33:46.000Z</time>
      </trkpt>
      <trkpt lat="45.58419" lon="6.6433">
        <ele>1782.8000488281</ele>
        <time>2015-04-07T07:33:47.000Z</time>
      </trkpt>
      <trkpt lat="45.58423" lon="6.64329">
        <ele>1784</ele>
        <time>2015-04-07T07:33:53.000Z</time>
      </trkpt>
      <trkpt lat="45.58424" lon="6.64329">
        <ele>1784.8000488281</ele>
        <time>2015-04-07T07:34:00.000Z</time>
      </trkpt>
      <trkpt lat="45.58424" lon="6.64329">
        <ele>1784.8000488281</ele>
        <time>2015-04-07T07:34:09.000Z</time>
      </trkpt>
      <trkpt lat="45.58427" lon="6.64328">
        <ele>1785</ele>
        <time>2015-04-07T07:34:12.000Z</time>
      </trkpt>
      <trkpt lat="45.58431" lon="6.64328">
        <ele>1785.5999755859</ele>
        <time>2015-04-07T07:34:16.000Z</time>
      </trkpt>
      <trkpt lat="45.58433" lon="6.64328">
        <ele>1786.1999511719</ele>
        <time>2015-04-07T07:34:18.000Z</time>
      </trkpt>
      <trkpt lat="45.58435" lon="6.64327">
        <ele>1786.8000488281</ele>
        <time>2015-04-07T07:34:22.000Z</time>
      </trkpt>
      <trkpt lat="45.58438" lon="6.64327">
        <ele>1787.1999511719</ele>
        <time>2015-04-07T07:34:24.000Z</time>
      </trkpt>
      <trkpt lat="45.58441" lon="6.64326">
        <ele>1788.1999511719</ele>
        <time>2015-04-07T07:34:28.000Z</time>
      </trkpt>
      <trkpt lat="45.58443" lon="6.64326">
        <ele>1788.4000244141</ele>
        <time>2015-04-07T07:34:30.000Z</time>
      </trkpt>
      <trkpt lat="45.58449" lon="6.64326">
        <ele>1789.1999511719</ele>
        <time>2015-04-07T07:34:36.000Z</time>
      </trkpt>
      <trkpt lat="45.5845" lon="6.64326">
        <ele>1789.4000244141</ele>
        <time>2015-04-07T07:34:37.000Z</time>
      </trkpt>
      <trkpt lat="45.58456" lon="6.64328">
        <ele>1790.5999755859</ele>
        <time>2015-04-07T07:34:43.000Z</time>
      </trkpt>
      <trkpt lat="45.58457" lon="6.64328">
        <ele>1790.5999755859</ele>
        <time>2015-04-07T07:34:44.000Z</time>
      </trkpt>
      <trkpt lat="45.58462" lon="6.64329">
        <ele>1791.5999755859</ele>
        <time>2015-04-07T07:34:50.000Z</time>
      </trkpt>
      <trkpt lat="45.58463" lon="6.6433">
        <ele>1791.8000488281</ele>
        <time>2015-04-07T07:34:51.000Z</time>
      </trkpt>
      <trkpt lat="45.58467" lon="6.64331">
        <ele>1792.5999755859</ele>
        <time>2015-04-07T07:34:56.000Z</time>
      </trkpt>
      <trkpt lat="45.58469" lon="6.64331">
        <ele>1793</ele>
        <time>2015-04-07T07:34:59.000Z</time>
      </trkpt>
      <trkpt lat="45.58472" lon="6.64331">
        <ele>1793.8000488281</ele>
        <time>2015-04-07T07:35:02.000Z</time>
      </trkpt>
      <trkpt lat="45.58474" lon="6.64331">
        <ele>1794.4000244141</ele>
        <time>2015-04-07T07:35:06.000Z</time>
      </trkpt>
      <trkpt lat="45.58476" lon="6.6433">
        <ele>1794.8000488281</ele>
        <time>2015-04-07T07:35:08.000Z</time>
      </trkpt>
      <trkpt lat="45.58479" lon="6.64329">
        <ele>1795.8000488281</ele>
        <time>2015-04-07T07:35:13.000Z</time>
      </trkpt>
      <trkpt lat="45.5848" lon="6.64329">
        <ele>1796</ele>
        <time>2015-04-07T07:35:14.000Z</time>
      </trkpt>
      <trkpt lat="45.5848" lon="6.64329">
        <ele>1796.5999755859</ele>
        <time>2015-04-07T07:35:25.000Z</time>
      </trkpt>
      <trkpt lat="45.58484" lon="6.64326">
        <ele>1797</ele>
        <time>2015-04-07T07:35:32.000Z</time>
      </trkpt>
      <trkpt lat="45.58483" lon="6.64323">
        <ele>1798.1999511719</ele>
        <time>2015-04-07T07:35:38.000Z</time>
      </trkpt>
      <trkpt lat="45.58481" lon="6.64318">
        <ele>1799.1999511719</ele>
        <time>2015-04-07T07:35:42.000Z</time>
      </trkpt>
      <trkpt lat="45.58481" lon="6.64318">
        <ele>1799.4000244141</ele>
        <time>2015-04-07T07:35:43.000Z</time>
      </trkpt>
      <trkpt lat="45.58478" lon="6.64315">
        <ele>1800.1999511719</ele>
        <time>2015-04-07T07:35:48.000Z</time>
      </trkpt>
      <trkpt lat="45.58477" lon="6.64314">
        <ele>1800.4000244141</ele>
        <time>2015-04-07T07:35:49.000Z</time>
      </trkpt>
      <trkpt lat="45.58474" lon="6.64308">
        <ele>1801.4000244141</ele>
        <time>2015-04-07T07:35:55.000Z</time>
      </trkpt>
      <trkpt lat="45.58472" lon="6.64304">
        <ele>1802.4000244141</ele>
        <time>2015-04-07T07:36:00.000Z</time>
      </trkpt>
      <trkpt lat="45.58469" lon="6.64299">
        <ele>1803.4000244141</ele>
        <time>2015-04-07T07:36:05.000Z</time>
      </trkpt>
      <trkpt lat="45.58469" lon="6.64299">
        <ele>1803.5999755859</ele>
        <time>2015-04-07T07:36:06.000Z</time>
      </trkpt>
      <trkpt lat="45.58465" lon="6.64293">
        <ele>1804.1999511719</ele>
        <time>2015-04-07T07:36:10.000Z</time>
      </trkpt>
      <trkpt lat="45.58464" lon="6.64291">
        <ele>1804.8000488281</ele>
        <time>2015-04-07T07:36:13.000Z</time>
      </trkpt>
      <trkpt lat="45.58464" lon="6.64291">
        <ele>1805.1999511719</ele>
        <time>2015-04-07T07:36:15.000Z</time>
      </trkpt>
      <trkpt lat="45.58464" lon="6.6429">
        <ele>1805.8000488281</ele>
        <time>2015-04-07T07:36:17.000Z</time>
      </trkpt>
      <trkpt lat="45.58461" lon="6.64286">
        <ele>1806.5999755859</ele>
        <time>2015-04-07T07:36:20.000Z</time>
      </trkpt>
      <trkpt lat="45.5846" lon="6.64283">
        <ele>1807</ele>
        <time>2015-04-07T07:36:24.000Z</time>
      </trkpt>
      <trkpt lat="45.58459" lon="6.64281">
        <ele>1807.1999511719</ele>
        <time>2015-04-07T07:36:25.000Z</time>
      </trkpt>
      <trkpt lat="45.58458" lon="6.64278">
        <ele>1807.5999755859</ele>
        <time>2015-04-07T07:36:29.000Z</time>
      </trkpt>
      <trkpt lat="45.58459" lon="6.64278">
        <ele>1808.1999511719</ele>
        <time>2015-04-07T07:36:32.000Z</time>
      </trkpt>
      <trkpt lat="45.58462" lon="6.64277">
        <ele>1809</ele>
        <time>2015-04-07T07:36:35.000Z</time>
      </trkpt>
      <trkpt lat="45.58463" lon="6.64277">
        <ele>1809.1999511719</ele>
        <time>2015-04-07T07:36:36.000Z</time>
      </trkpt>
      <trkpt lat="45.58467" lon="6.64276">
        <ele>1810</ele>
        <time>2015-04-07T07:36:41.000Z</time>
      </trkpt>
      <trkpt lat="45.58468" lon="6.64276">
        <ele>1810.1999511719</ele>
        <time>2015-04-07T07:36:43.000Z</time>
      </trkpt>
      <trkpt lat="45.5847" lon="6.64275">
        <ele>1811.1999511719</ele>
        <time>2015-04-07T07:36:47.000Z</time>
      </trkpt>
      <trkpt lat="45.58471" lon="6.64275">
        <ele>1811.4000244141</ele>
        <time>2015-04-07T07:36:48.000Z</time>
      </trkpt>
      <trkpt lat="45.58475" lon="6.64274">
        <ele>1812</ele>
        <time>2015-04-07T07:36:53.000Z</time>
      </trkpt>
      <trkpt lat="45.58476" lon="6.64273">
        <ele>1812.4000244141</ele>
        <time>2015-04-07T07:36:55.000Z</time>
      </trkpt>
      <trkpt lat="45.5848" lon="6.64273">
        <ele>1813.1999511719</ele>
        <time>2015-04-07T07:37:00.000Z</time>
      </trkpt>
      <trkpt lat="45.58482" lon="6.64273">
        <ele>1813.4000244141</ele>
        <time>2015-04-07T07:37:03.000Z</time>
      </trkpt>
      <trkpt lat="45.58484" lon="6.64272">
        <ele>1814</ele>
        <time>2015-04-07T07:37:05.000Z</time>
      </trkpt>
      <trkpt lat="45.58486" lon="6.64272">
        <ele>1814.4000244141</ele>
        <time>2015-04-07T07:37:07.000Z</time>
      </trkpt>
      <trkpt lat="45.58486" lon="6.64272">
        <ele>1814.5999755859</ele>
        <time>2015-04-07T07:37:08.000Z</time>
      </trkpt>
      <trkpt lat="45.5849" lon="6.6427">
        <ele>1815.5999755859</ele>
        <time>2015-04-07T07:37:15.000Z</time>
      </trkpt>
      <trkpt lat="45.58494" lon="6.64269">
        <ele>1816.8000488281</ele>
        <time>2015-04-07T07:37:21.000Z</time>
      </trkpt>
      <trkpt lat="45.58494" lon="6.64269">
        <ele>1817</ele>
        <time>2015-04-07T07:37:22.000Z</time>
      </trkpt>
      <trkpt lat="45.58494" lon="6.64267">
        <ele>1817.4000244141</ele>
        <time>2015-04-07T07:37:28.000Z</time>
      </trkpt>
      <trkpt lat="45.58491" lon="6.64264">
        <ele>1817.8000488281</ele>
        <time>2015-04-07T07:37:31.000Z</time>
      </trkpt>
      <trkpt lat="45.58489" lon="6.64264">
        <ele>1818.1999511719</ele>
        <time>2015-04-07T07:37:33.000Z</time>
      </trkpt>
      <trkpt lat="45.58487" lon="6.64262">
        <ele>1818.4000244141</ele>
        <time>2015-04-07T07:37:35.000Z</time>
      </trkpt>
      <trkpt lat="45.58486" lon="6.64261">
        <ele>1818.8000488281</ele>
        <time>2015-04-07T07:37:38.000Z</time>
      </trkpt>
      <trkpt lat="45.58485" lon="6.6426">
        <ele>1818.8000488281</ele>
        <time>2015-04-07T07:37:39.000Z</time>
      </trkpt>
      <trkpt lat="45.58482" lon="6.64258">
        <ele>1819.8000488281</ele>
        <time>2015-04-07T07:37:44.000Z</time>
      </trkpt>
      <trkpt lat="45.58481" lon="6.64257">
        <ele>1820</ele>
        <time>2015-04-07T07:37:45.000Z</time>
      </trkpt>
      <trkpt lat="45.58479" lon="6.64254">
        <ele>1820.8000488281</ele>
        <time>2015-04-07T07:37:49.000Z</time>
      </trkpt>
      <trkpt lat="45.58478" lon="6.64253">
        <ele>1821</ele>
        <time>2015-04-07T07:37:51.000Z</time>
      </trkpt>
      <trkpt lat="45.58476" lon="6.64251">
        <ele>1821.8000488281</ele>
        <time>2015-04-07T07:37:54.000Z</time>
      </trkpt>
      <trkpt lat="45.58475" lon="6.6425">
        <ele>1822.4000244141</ele>
        <time>2015-04-07T07:37:56.000Z</time>
      </trkpt>
      <trkpt lat="45.58473" lon="6.64249">
        <ele>1822.8000488281</ele>
        <time>2015-04-07T07:38:00.000Z</time>
      </trkpt>
      <trkpt lat="45.58471" lon="6.64247">
        <ele>1823.4000244141</ele>
        <time>2015-04-07T07:38:03.000Z</time>
      </trkpt>
      <trkpt lat="45.58469" lon="6.64245">
        <ele>1823.5999755859</ele>
        <time>2015-04-07T07:38:06.000Z</time>
      </trkpt>
      <trkpt lat="45.58467" lon="6.64244">
        <ele>1824.4000244141</ele>
        <time>2015-04-07T07:38:10.000Z</time>
      </trkpt>
      <trkpt lat="45.58466" lon="6.64243">
        <ele>1824.5999755859</ele>
        <time>2015-04-07T07:38:11.000Z</time>
      </trkpt>
      <trkpt lat="45.58462" lon="6.6424">
        <ele>1825.4000244141</ele>
        <time>2015-04-07T07:38:16.000Z</time>
      </trkpt>
      <trkpt lat="45.58461" lon="6.64239">
        <ele>1825.8000488281</ele>
        <time>2015-04-07T07:38:17.000Z</time>
      </trkpt>
      <trkpt lat="45.58459" lon="6.64238">
        <ele>1826.1999511719</ele>
        <time>2015-04-07T07:38:21.000Z</time>
      </trkpt>
      <trkpt lat="45.58457" lon="6.64235">
        <ele>1826.8000488281</ele>
        <time>2015-04-07T07:38:24.000Z</time>
      </trkpt>
      <trkpt lat="45.58455" lon="6.64235">
        <ele>1827</ele>
        <time>2015-04-07T07:38:27.000Z</time>
      </trkpt>
      <trkpt lat="45.58452" lon="6.64232">
        <ele>1828</ele>
        <time>2015-04-07T07:38:32.000Z</time>
      </trkpt>
      <trkpt lat="45.58452" lon="6.64232">
        <ele>1828.1999511719</ele>
        <time>2015-04-07T07:38:33.000Z</time>
      </trkpt>
      <trkpt lat="45.58449" lon="6.64228">
        <ele>1829</ele>
        <time>2015-04-07T07:38:39.000Z</time>
      </trkpt>
      <trkpt lat="45.58448" lon="6.64227">
        <ele>1829.1999511719</ele>
        <time>2015-04-07T07:38:40.000Z</time>
      </trkpt>
      <trkpt lat="45.58447" lon="6.64225">
        <ele>1829.5999755859</ele>
        <time>2015-04-07T07:38:43.000Z</time>
      </trkpt>
      <trkpt lat="45.58444" lon="6.64223">
        <ele>1830</ele>
        <time>2015-04-07T07:38:48.000Z</time>
      </trkpt>
      <trkpt lat="45.58443" lon="6.64223">
        <ele>1830.1999511719</ele>
        <time>2015-04-07T07:38:49.000Z</time>
      </trkpt>
      <trkpt lat="45.58439" lon="6.64221">
        <ele>1831</ele>
        <time>2015-04-07T07:38:54.000Z</time>
      </trkpt>
      <trkpt lat="45.58438" lon="6.64221">
        <ele>1831.1999511719</ele>
        <time>2015-04-07T07:38:56.000Z</time>
      </trkpt>
      <trkpt lat="45.58435" lon="6.64218">
        <ele>1832</ele>
        <time>2015-04-07T07:38:59.000Z</time>
      </trkpt>
      <trkpt lat="45.58433" lon="6.64216">
        <ele>1832.4000244141</ele>
        <time>2015-04-07T07:39:03.000Z</time>
      </trkpt>
      <trkpt lat="45.58431" lon="6.64215">
        <ele>1833</ele>
        <time>2015-04-07T07:39:05.000Z</time>
      </trkpt>
      <trkpt lat="45.5843" lon="6.64212">
        <ele>1833.4000244141</ele>
        <time>2015-04-07T07:39:09.000Z</time>
      </trkpt>
      <trkpt lat="45.5843" lon="6.64212">
        <ele>1833.5999755859</ele>
        <time>2015-04-07T07:39:10.000Z</time>
      </trkpt>
      <trkpt lat="45.58426" lon="6.64209">
        <ele>1834</ele>
        <time>2015-04-07T07:39:15.000Z</time>
      </trkpt>
      <trkpt lat="45.58423" lon="6.64207">
        <ele>1834.5999755859</ele>
        <time>2015-04-07T07:39:18.000Z</time>
      </trkpt>
      <trkpt lat="45.58422" lon="6.64207">
        <ele>1835</ele>
        <time>2015-04-07T07:39:21.000Z</time>
      </trkpt>
      <trkpt lat="45.58418" lon="6.64205">
        <ele>1835.5999755859</ele>
        <time>2015-04-07T07:39:26.000Z</time>
      </trkpt>
      <trkpt lat="45.58416" lon="6.64203">
        <ele>1835.5999755859</ele>
        <time>2015-04-07T07:39:28.000Z</time>
      </trkpt>
      <trkpt lat="45.58415" lon="6.64202">
        <ele>1836.1999511719</ele>
        <time>2015-04-07T07:39:30.000Z</time>
      </trkpt>
      <trkpt lat="45.58411" lon="6.642">
        <ele>1836.8000488281</ele>
        <time>2015-04-07T07:39:35.000Z</time>
      </trkpt>
      <trkpt lat="45.58406" lon="6.64197">
        <ele>1837.4000244141</ele>
        <time>2015-04-07T07:39:40.000Z</time>
      </trkpt>
      <trkpt lat="45.58403" lon="6.64196">
        <ele>1837.8000488281</ele>
        <time>2015-04-07T07:39:44.000Z</time>
      </trkpt>
      <trkpt lat="45.58402" lon="6.64195">
        <ele>1837.8000488281</ele>
        <time>2015-04-07T07:39:45.000Z</time>
      </trkpt>
      <trkpt lat="45.58398" lon="6.64193">
        <ele>1838.4000244141</ele>
        <time>2015-04-07T07:39:50.000Z</time>
      </trkpt>
      <trkpt lat="45.58397" lon="6.64191">
        <ele>1839</ele>
        <time>2015-04-07T07:39:53.000Z</time>
      </trkpt>
      <trkpt lat="45.58395" lon="6.6419">
        <ele>1839</ele>
        <time>2015-04-07T07:39:56.000Z</time>
      </trkpt>
      <trkpt lat="45.5839" lon="6.64188">
        <ele>1839.8000488281</ele>
        <time>2015-04-07T07:40:03.000Z</time>
      </trkpt>
      <trkpt lat="45.58389" lon="6.64187">
        <ele>1840</ele>
        <time>2015-04-07T07:40:06.000Z</time>
      </trkpt>
      <trkpt lat="45.58388" lon="6.64185">
        <ele>1840.4000244141</ele>
        <time>2015-04-07T07:40:11.000Z</time>
      </trkpt>
      <trkpt lat="45.58386" lon="6.6418">
        <ele>1841.4000244141</ele>
        <time>2015-04-07T07:40:17.000Z</time>
      </trkpt>
      <trkpt lat="45.58382" lon="6.64175">
        <ele>1842.5999755859</ele>
        <time>2015-04-07T07:40:25.000Z</time>
      </trkpt>
      <trkpt lat="45.5838" lon="6.64171">
        <ele>1843.1999511719</ele>
        <time>2015-04-07T07:40:33.000Z</time>
      </trkpt>
      <trkpt lat="45.58378" lon="6.64169">
        <ele>1843.5999755859</ele>
        <time>2015-04-07T07:40:36.000Z</time>
      </trkpt>
      <trkpt lat="45.58376" lon="6.64168">
        <ele>1844</ele>
        <time>2015-04-07T07:40:40.000Z</time>
      </trkpt>
      <trkpt lat="45.58375" lon="6.64167">
        <ele>1844.5999755859</ele>
        <time>2015-04-07T07:40:44.000Z</time>
      </trkpt>
      <trkpt lat="45.58373" lon="6.64165">
        <ele>1845.1999511719</ele>
        <time>2015-04-07T07:40:47.000Z</time>
      </trkpt>
      <trkpt lat="45.5837" lon="6.64161">
        <ele>1845.5999755859</ele>
        <time>2015-04-07T07:40:51.000Z</time>
      </trkpt>
      <trkpt lat="45.58368" lon="6.6416">
        <ele>1845.8000488281</ele>
        <time>2015-04-07T07:40:53.000Z</time>
      </trkpt>
      <trkpt lat="45.58362" lon="6.64154">
        <ele>1846.5999755859</ele>
        <time>2015-04-07T07:41:00.000Z</time>
      </trkpt>
      <trkpt lat="45.58362" lon="6.64154">
        <ele>1846.8000488281</ele>
        <time>2015-04-07T07:41:01.000Z</time>
      </trkpt>
      <trkpt lat="45.58357" lon="6.64151">
        <ele>1846.8000488281</ele>
        <time>2015-04-07T07:41:07.000Z</time>
      </trkpt>
      <trkpt lat="45.58353" lon="6.64147">
        <ele>1847</ele>
        <time>2015-04-07T07:41:13.000Z</time>
      </trkpt>
      <trkpt lat="45.58348" lon="6.64145">
        <ele>1847.8000488281</ele>
        <time>2015-04-07T07:41:17.000Z</time>
      </trkpt>
      <trkpt lat="45.58348" lon="6.64145">
        <ele>1848</ele>
        <time>2015-04-07T07:41:18.000Z</time>
      </trkpt>
      <trkpt lat="45.58343" lon="6.64142">
        <ele>1849</ele>
        <time>2015-04-07T07:41:23.000Z</time>
      </trkpt>
      <trkpt lat="45.58339" lon="6.64136">
        <ele>1850.4000244141</ele>
        <time>2015-04-07T07:41:29.000Z</time>
      </trkpt>
      <trkpt lat="45.58337" lon="6.64134">
        <ele>1851.5999755859</ele>
        <time>2015-04-07T07:41:34.000Z</time>
      </trkpt>
      <trkpt lat="45.58336" lon="6.64134">
        <ele>1851.8000488281</ele>
        <time>2015-04-07T07:41:36.000Z</time>
      </trkpt>
      <trkpt lat="45.58335" lon="6.64132">
        <ele>1852.8000488281</ele>
        <time>2015-04-07T07:41:40.000Z</time>
      </trkpt>
      <trkpt lat="45.58333" lon="6.6413">
        <ele>1853.4000244141</ele>
        <time>2015-04-07T07:41:42.000Z</time>
      </trkpt>
      <trkpt lat="45.58332" lon="6.64128">
        <ele>1854</ele>
        <time>2015-04-07T07:41:44.000Z</time>
      </trkpt>
      <trkpt lat="45.58331" lon="6.64128">
        <ele>1854.4000244141</ele>
        <time>2015-04-07T07:41:46.000Z</time>
      </trkpt>
      <trkpt lat="45.58331" lon="6.64128">
        <ele>1854.5999755859</ele>
        <time>2015-04-07T07:41:47.000Z</time>
      </trkpt>
      <trkpt lat="45.58328" lon="6.64125">
        <ele>1855</ele>
        <time>2015-04-07T07:41:50.000Z</time>
      </trkpt>
      <trkpt lat="45.58328" lon="6.64124">
        <ele>1855.1999511719</ele>
        <time>2015-04-07T07:41:51.000Z</time>
      </trkpt>
      <trkpt lat="45.58326" lon="6.64124">
        <ele>1856.1999511719</ele>
        <time>2015-04-07T07:41:53.000Z</time>
      </trkpt>
      <trkpt lat="45.58325" lon="6.64123">
        <ele>1856.5999755859</ele>
        <time>2015-04-07T07:41:55.000Z</time>
      </trkpt>
      <trkpt lat="45.58323" lon="6.64123">
        <ele>1857.1999511719</ele>
        <time>2015-04-07T07:41:59.000Z</time>
      </trkpt>
      <trkpt lat="45.58323" lon="6.64123">
        <ele>1857.4000244141</ele>
        <time>2015-04-07T07:42:00.000Z</time>
      </trkpt>
      <trkpt lat="45.58321" lon="6.64122">
        <ele>1858.1999511719</ele>
        <time>2015-04-07T07:42:04.000Z</time>
      </trkpt>
      <trkpt lat="45.58321" lon="6.64122">
        <ele>1858.4000244141</ele>
        <time>2015-04-07T07:42:05.000Z</time>
      </trkpt>
      <trkpt lat="45.58318" lon="6.64119">
        <ele>1859.4000244141</ele>
        <time>2015-04-07T07:42:09.000Z</time>
      </trkpt>
      <trkpt lat="45.58317" lon="6.64118">
        <ele>1860</ele>
        <time>2015-04-07T07:42:11.000Z</time>
      </trkpt>
      <trkpt lat="45.58314" lon="6.64115">
        <ele>1860.5999755859</ele>
        <time>2015-04-07T07:42:14.000Z</time>
      </trkpt>
      <trkpt lat="45.58314" lon="6.64115">
        <ele>1860.8000488281</ele>
        <time>2015-04-07T07:42:15.000Z</time>
      </trkpt>
      <trkpt lat="45.58311" lon="6.64113">
        <ele>1861.8000488281</ele>
        <time>2015-04-07T07:42:19.000Z</time>
      </trkpt>
      <trkpt lat="45.58309" lon="6.64111">
        <ele>1862.1999511719</ele>
        <time>2015-04-07T07:42:21.000Z</time>
      </trkpt>
      <trkpt lat="45.58308" lon="6.6411">
        <ele>1862.8000488281</ele>
        <time>2015-04-07T07:42:24.000Z</time>
      </trkpt>
      <trkpt lat="45.58307" lon="6.64109">
        <ele>1863.1999511719</ele>
        <time>2015-04-07T07:42:25.000Z</time>
      </trkpt>
      <trkpt lat="45.58306" lon="6.64108">
        <ele>1863.8000488281</ele>
        <time>2015-04-07T07:42:28.000Z</time>
      </trkpt>
      <trkpt lat="45.58304" lon="6.64106">
        <ele>1864.5999755859</ele>
        <time>2015-04-07T07:42:32.000Z</time>
      </trkpt>
      <trkpt lat="45.58302" lon="6.64103">
        <ele>1865</ele>
        <time>2015-04-07T07:42:35.000Z</time>
      </trkpt>
      <trkpt lat="45.58301" lon="6.64103">
        <ele>1866</ele>
        <time>2015-04-07T07:42:38.000Z</time>
      </trkpt>
      <trkpt lat="45.58301" lon="6.64103">
        <ele>1866.1999511719</ele>
        <time>2015-04-07T07:42:39.000Z</time>
      </trkpt>
      <trkpt lat="45.58299" lon="6.641">
        <ele>1867</ele>
        <time>2015-04-07T07:42:43.000Z</time>
      </trkpt>
      <trkpt lat="45.58297" lon="6.64099">
        <ele>1867.4000244141</ele>
        <time>2015-04-07T07:42:45.000Z</time>
      </trkpt>
      <trkpt lat="45.58298" lon="6.64095">
        <ele>1868.4000244141</ele>
        <time>2015-04-07T07:42:49.000Z</time>
      </trkpt>
      <trkpt lat="45.583" lon="6.64091">
        <ele>1869.4000244141</ele>
        <time>2015-04-07T07:42:53.000Z</time>
      </trkpt>
      <trkpt lat="45.583" lon="6.64091">
        <ele>1869.5999755859</ele>
        <time>2015-04-07T07:42:54.000Z</time>
      </trkpt>
      <trkpt lat="45.58301" lon="6.64089">
        <ele>1870</ele>
        <time>2015-04-07T07:42:55.000Z</time>
      </trkpt>
      <trkpt lat="45.58303" lon="6.64088">
        <ele>1870.4000244141</ele>
        <time>2015-04-07T07:42:58.000Z</time>
      </trkpt>
      <trkpt lat="45.58303" lon="6.64087">
        <ele>1870.5999755859</ele>
        <time>2015-04-07T07:42:59.000Z</time>
      </trkpt>
      <trkpt lat="45.58303" lon="6.64084">
        <ele>1871.1999511719</ele>
        <time>2015-04-07T07:43:03.000Z</time>
      </trkpt>
      <trkpt lat="45.58303" lon="6.64083">
        <ele>1871.8000488281</ele>
        <time>2015-04-07T07:43:05.000Z</time>
      </trkpt>
      <trkpt lat="45.58304" lon="6.64081">
        <ele>1872.4000244141</ele>
        <time>2015-04-07T07:43:09.000Z</time>
      </trkpt>
      <trkpt lat="45.58304" lon="6.64077">
        <ele>1872.8000488281</ele>
        <time>2015-04-07T07:43:12.000Z</time>
      </trkpt>
      <trkpt lat="45.58303" lon="6.64075">
        <ele>1873.5999755859</ele>
        <time>2015-04-07T07:43:15.000Z</time>
      </trkpt>
      <trkpt lat="45.58302" lon="6.64074">
        <ele>1874.1999511719</ele>
        <time>2015-04-07T07:43:17.000Z</time>
      </trkpt>
      <trkpt lat="45.583" lon="6.64071">
        <ele>1875.1999511719</ele>
        <time>2015-04-07T07:43:21.000Z</time>
      </trkpt>
      <trkpt lat="45.58297" lon="6.64065">
        <ele>1876.4000244141</ele>
        <time>2015-04-07T07:43:28.000Z</time>
      </trkpt>
      <trkpt lat="45.58295" lon="6.64061">
        <ele>1877.5999755859</ele>
        <time>2015-04-07T07:43:32.000Z</time>
      </trkpt>
      <trkpt lat="45.58295" lon="6.6406">
        <ele>1877.8000488281</ele>
        <time>2015-04-07T07:43:33.000Z</time>
      </trkpt>
      <trkpt lat="45.58292" lon="6.64055">
        <ele>1878.8000488281</ele>
        <time>2015-04-07T07:43:39.000Z</time>
      </trkpt>
      <trkpt lat="45.58292" lon="6.64054">
        <ele>1879</ele>
        <time>2015-04-07T07:43:40.000Z</time>
      </trkpt>
      <trkpt lat="45.58291" lon="6.64051">
        <ele>1880</ele>
        <time>2015-04-07T07:43:44.000Z</time>
      </trkpt>
      <trkpt lat="45.5829" lon="6.6405">
        <ele>1880.1999511719</ele>
        <time>2015-04-07T07:43:46.000Z</time>
      </trkpt>
      <trkpt lat="45.58287" lon="6.64046">
        <ele>1881</ele>
        <time>2015-04-07T07:43:50.000Z</time>
      </trkpt>
      <trkpt lat="45.58286" lon="6.64044">
        <ele>1881.4000244141</ele>
        <time>2015-04-07T07:43:52.000Z</time>
      </trkpt>
      <trkpt lat="45.58286" lon="6.64043">
        <ele>1882.1999511719</ele>
        <time>2015-04-07T07:43:54.000Z</time>
      </trkpt>
      <trkpt lat="45.58284" lon="6.64041">
        <ele>1882.5999755859</ele>
        <time>2015-04-07T07:43:57.000Z</time>
      </trkpt>
      <trkpt lat="45.58282" lon="6.6404">
        <ele>1883.4000244141</ele>
        <time>2015-04-07T07:44:00.000Z</time>
      </trkpt>
      <trkpt lat="45.58281" lon="6.64038">
        <ele>1884.1999511719</ele>
        <time>2015-04-07T07:44:03.000Z</time>
      </trkpt>
      <trkpt lat="45.5828" lon="6.64037">
        <ele>1884.5999755859</ele>
        <time>2015-04-07T07:44:04.000Z</time>
      </trkpt>
      <trkpt lat="45.58277" lon="6.64033">
        <ele>1885.4000244141</ele>
        <time>2015-04-07T07:44:08.000Z</time>
      </trkpt>
      <trkpt lat="45.58276" lon="6.64033">
        <ele>1885.5999755859</ele>
        <time>2015-04-07T07:44:09.000Z</time>
      </trkpt>
      <trkpt lat="45.58273" lon="6.6403">
        <ele>1886.1999511719</ele>
        <time>2015-04-07T07:44:15.000Z</time>
      </trkpt>
      <trkpt lat="45.58273" lon="6.64029">
        <ele>1887</ele>
        <time>2015-04-07T07:44:17.000Z</time>
      </trkpt>
      <trkpt lat="45.58271" lon="6.64026">
        <ele>1887.4000244141</ele>
        <time>2015-04-07T07:44:21.000Z</time>
      </trkpt>
      <trkpt lat="45.5827" lon="6.64023">
        <ele>1888</ele>
        <time>2015-04-07T07:44:24.000Z</time>
      </trkpt>
      <trkpt lat="45.5827" lon="6.64022">
        <ele>1888.1999511719</ele>
        <time>2015-04-07T07:44:25.000Z</time>
      </trkpt>
      <trkpt lat="45.58269" lon="6.64018">
        <ele>1889.1999511719</ele>
        <time>2015-04-07T07:44:29.000Z</time>
      </trkpt>
      <trkpt lat="45.58269" lon="6.64015">
        <ele>1889.5999755859</ele>
        <time>2015-04-07T07:44:31.000Z</time>
      </trkpt>
      <trkpt lat="45.58268" lon="6.64013">
        <ele>1890.1999511719</ele>
        <time>2015-04-07T07:44:35.000Z</time>
      </trkpt>
      <trkpt lat="45.58268" lon="6.6401">
        <ele>1890.8000488281</ele>
        <time>2015-04-07T07:44:37.000Z</time>
      </trkpt>
      <trkpt lat="45.58267" lon="6.64008">
        <ele>1891.4000244141</ele>
        <time>2015-04-07T07:44:39.000Z</time>
      </trkpt>
      <trkpt lat="45.58267" lon="6.64005">
        <ele>1892.1999511719</ele>
        <time>2015-04-07T07:44:42.000Z</time>
      </trkpt>
      <trkpt lat="45.58267" lon="6.64003">
        <ele>1892.4000244141</ele>
        <time>2015-04-07T07:44:44.000Z</time>
      </trkpt>
      <trkpt lat="45.58266" lon="6.63997">
        <ele>1893.4000244141</ele>
        <time>2015-04-07T07:44:49.000Z</time>
      </trkpt>
      <trkpt lat="45.58265" lon="6.63992">
        <ele>1894.5999755859</ele>
        <time>2015-04-07T07:44:55.000Z</time>
      </trkpt>
      <trkpt lat="45.58264" lon="6.63985">
        <ele>1895.8000488281</ele>
        <time>2015-04-07T07:45:01.000Z</time>
      </trkpt>
      <trkpt lat="45.58263" lon="6.63982">
        <ele>1896.8000488281</ele>
        <time>2015-04-07T07:45:05.000Z</time>
      </trkpt>
      <trkpt lat="45.58263" lon="6.63981">
        <ele>1897</ele>
        <time>2015-04-07T07:45:06.000Z</time>
      </trkpt>
      <trkpt lat="45.58264" lon="6.63977">
        <ele>1898</ele>
        <time>2015-04-07T07:45:11.000Z</time>
      </trkpt>
      <trkpt lat="45.58264" lon="6.63976">
        <ele>1898.4000244141</ele>
        <time>2015-04-07T07:45:12.000Z</time>
      </trkpt>
      <trkpt lat="45.58263" lon="6.63969">
        <ele>1899</ele>
        <time>2015-04-07T07:45:17.000Z</time>
      </trkpt>
      <trkpt lat="45.58263" lon="6.63968">
        <ele>1899.4000244141</ele>
        <time>2015-04-07T07:45:19.000Z</time>
      </trkpt>
      <trkpt lat="45.58263" lon="6.63965">
        <ele>1900.1999511719</ele>
        <time>2015-04-07T07:45:22.000Z</time>
      </trkpt>
      <trkpt lat="45.58263" lon="6.63963">
        <ele>1900.5999755859</ele>
        <time>2015-04-07T07:45:25.000Z</time>
      </trkpt>
      <trkpt lat="45.58263" lon="6.63959">
        <ele>1901.4000244141</ele>
        <time>2015-04-07T07:45:29.000Z</time>
      </trkpt>
      <trkpt lat="45.58263" lon="6.63958">
        <ele>1901.8000488281</ele>
        <time>2015-04-07T07:45:31.000Z</time>
      </trkpt>
      <trkpt lat="45.58262" lon="6.63956">
        <ele>1902.4000244141</ele>
        <time>2015-04-07T07:45:34.000Z</time>
      </trkpt>
      <trkpt lat="45.58262" lon="6.63953">
        <ele>1902.8000488281</ele>
        <time>2015-04-07T07:45:37.000Z</time>
      </trkpt>
      <trkpt lat="45.58262" lon="6.63949">
        <ele>1903.5999755859</ele>
        <time>2015-04-07T07:45:41.000Z</time>
      </trkpt>
      <trkpt lat="45.58262" lon="6.63948">
        <ele>1904</ele>
        <time>2015-04-07T07:45:42.000Z</time>
      </trkpt>
      <trkpt lat="45.58262" lon="6.63942">
        <ele>1904.5999755859</ele>
        <time>2015-04-07T07:45:47.000Z</time>
      </trkpt>
      <trkpt lat="45.58263" lon="6.63939">
        <ele>1904.8000488281</ele>
        <time>2015-04-07T07:45:48.000Z</time>
      </trkpt>
      <trkpt lat="45.58263" lon="6.63936">
        <ele>1905.8000488281</ele>
        <time>2015-04-07T07:45:52.000Z</time>
      </trkpt>
      <trkpt lat="45.58264" lon="6.63934">
        <ele>1906</ele>
        <time>2015-04-07T07:45:54.000Z</time>
      </trkpt>
      <trkpt lat="45.58264" lon="6.6393">
        <ele>1906.5999755859</ele>
        <time>2015-04-07T07:45:58.000Z</time>
      </trkpt>
      <trkpt lat="45.58264" lon="6.63927">
        <ele>1907</ele>
        <time>2015-04-07T07:46:00.000Z</time>
      </trkpt>
      <trkpt lat="45.58265" lon="6.63922">
        <ele>1907.4000244141</ele>
        <time>2015-04-07T07:46:04.000Z</time>
      </trkpt>
      <trkpt lat="45.58267" lon="6.63919">
        <ele>1908</ele>
        <time>2015-04-07T07:46:07.000Z</time>
      </trkpt>
      <trkpt lat="45.58267" lon="6.63918">
        <ele>1908</ele>
        <time>2015-04-07T07:46:08.000Z</time>
      </trkpt>
      <trkpt lat="45.58267" lon="6.63916">
        <ele>1908.4000244141</ele>
        <time>2015-04-07T07:46:10.000Z</time>
      </trkpt>
      <trkpt lat="45.58268" lon="6.63911">
        <ele>1909</ele>
        <time>2015-04-07T07:46:14.000Z</time>
      </trkpt>
      <trkpt lat="45.58268" lon="6.6391">
        <ele>1909.4000244141</ele>
        <time>2015-04-07T07:46:16.000Z</time>
      </trkpt>
      <trkpt lat="45.58266" lon="6.63905">
        <ele>1910.4000244141</ele>
        <time>2015-04-07T07:46:21.000Z</time>
      </trkpt>
      <trkpt lat="45.58266" lon="6.639">
        <ele>1911</ele>
        <time>2015-04-07T07:46:26.000Z</time>
      </trkpt>
      <trkpt lat="45.58265" lon="6.63898">
        <ele>1911.4000244141</ele>
        <time>2015-04-07T07:46:28.000Z</time>
      </trkpt>
      <trkpt lat="45.58265" lon="6.63894">
        <ele>1911.8000488281</ele>
        <time>2015-04-07T07:46:31.000Z</time>
      </trkpt>
      <trkpt lat="45.58265" lon="6.6389">
        <ele>1912.5999755859</ele>
        <time>2015-04-07T07:46:35.000Z</time>
      </trkpt>
      <trkpt lat="45.58265" lon="6.63888">
        <ele>1912.8000488281</ele>
        <time>2015-04-07T07:46:37.000Z</time>
      </trkpt>
      <trkpt lat="45.58265" lon="6.63885">
        <ele>1914</ele>
        <time>2015-04-07T07:46:42.000Z</time>
      </trkpt>
      <trkpt lat="45.58265" lon="6.63884">
        <ele>1914.1999511719</ele>
        <time>2015-04-07T07:46:43.000Z</time>
      </trkpt>
      <trkpt lat="45.58265" lon="6.63879">
        <ele>1915</ele>
        <time>2015-04-07T07:46:48.000Z</time>
      </trkpt>
      <trkpt lat="45.58265" lon="6.63879">
        <ele>1915.4000244141</ele>
        <time>2015-04-07T07:46:49.000Z</time>
      </trkpt>
      <trkpt lat="45.58265" lon="6.63875">
        <ele>1916</ele>
        <time>2015-04-07T07:46:52.000Z</time>
      </trkpt>
      <trkpt lat="45.58263" lon="6.63873">
        <ele>1916.4000244141</ele>
        <time>2015-04-07T07:46:55.000Z</time>
      </trkpt>
      <trkpt lat="45.58262" lon="6.63869">
        <ele>1917.1999511719</ele>
        <time>2015-04-07T07:46:59.000Z</time>
      </trkpt>
      <trkpt lat="45.58262" lon="6.63867">
        <ele>1917.4000244141</ele>
        <time>2015-04-07T07:47:00.000Z</time>
      </trkpt>
      <trkpt lat="45.58261" lon="6.63861">
        <ele>1917.8000488281</ele>
        <time>2015-04-07T07:47:05.000Z</time>
      </trkpt>
      <trkpt lat="45.58261" lon="6.63858">
        <ele>1918.4000244141</ele>
        <time>2015-04-07T07:47:07.000Z</time>
      </trkpt>
      <trkpt lat="45.58262" lon="6.63855">
        <ele>1919.1999511719</ele>
        <time>2015-04-07T07:47:10.000Z</time>
      </trkpt>
      <trkpt lat="45.58263" lon="6.63854">
        <ele>1919.4000244141</ele>
        <time>2015-04-07T07:47:13.000Z</time>
      </trkpt>
      <trkpt lat="45.58264" lon="6.63854">
        <ele>1920.4000244141</ele>
        <time>2015-04-07T07:47:16.000Z</time>
      </trkpt>
      <trkpt lat="45.58265" lon="6.63853">
        <ele>1920.5999755859</ele>
        <time>2015-04-07T07:47:17.000Z</time>
      </trkpt>
      <trkpt lat="45.58269" lon="6.63851">
        <ele>1921.5999755859</ele>
        <time>2015-04-07T07:47:22.000Z</time>
      </trkpt>
      <trkpt lat="45.5827" lon="6.63851">
        <ele>1922</ele>
        <time>2015-04-07T07:47:23.000Z</time>
      </trkpt>
      <trkpt lat="45.58273" lon="6.63849">
        <ele>1922.5999755859</ele>
        <time>2015-04-07T07:47:27.000Z</time>
      </trkpt>
      <trkpt lat="45.58275" lon="6.63847">
        <ele>1923.1999511719</ele>
        <time>2015-04-07T07:47:30.000Z</time>
      </trkpt>
      <trkpt lat="45.58277" lon="6.63846">
        <ele>1923.8000488281</ele>
        <time>2015-04-07T07:47:34.000Z</time>
      </trkpt>
      <trkpt lat="45.58278" lon="6.63845">
        <ele>1924.4000244141</ele>
        <time>2015-04-07T07:47:37.000Z</time>
      </trkpt>
      <trkpt lat="45.5828" lon="6.63843">
        <ele>1924.8000488281</ele>
        <time>2015-04-07T07:47:40.000Z</time>
      </trkpt>
      <trkpt lat="45.58283" lon="6.63842">
        <ele>1925.4000244141</ele>
        <time>2015-04-07T07:47:44.000Z</time>
      </trkpt>
      <trkpt lat="45.58286" lon="6.63841">
        <ele>1926</ele>
        <time>2015-04-07T07:47:46.000Z</time>
      </trkpt>
      <trkpt lat="45.58288" lon="6.63841">
        <ele>1926.5999755859</ele>
        <time>2015-04-07T07:47:49.000Z</time>
      </trkpt>
      <trkpt lat="45.58289" lon="6.63841">
        <ele>1926.8000488281</ele>
        <time>2015-04-07T07:47:52.000Z</time>
      </trkpt>
      <trkpt lat="45.58291" lon="6.63839">
        <ele>1927.8000488281</ele>
        <time>2015-04-07T07:47:56.000Z</time>
      </trkpt>
      <trkpt lat="45.58292" lon="6.63838">
        <ele>1928</ele>
        <time>2015-04-07T07:47:58.000Z</time>
      </trkpt>
      <trkpt lat="45.58294" lon="6.63834">
        <ele>1928.8000488281</ele>
        <time>2015-04-07T07:48:03.000Z</time>
      </trkpt>
      <trkpt lat="45.58294" lon="6.63833">
        <ele>1929</ele>
        <time>2015-04-07T07:48:04.000Z</time>
      </trkpt>
      <trkpt lat="45.58293" lon="6.63829">
        <ele>1930.1999511719</ele>
        <time>2015-04-07T07:48:08.000Z</time>
      </trkpt>
      <trkpt lat="45.58293" lon="6.63826">
        <ele>1930.4000244141</ele>
        <time>2015-04-07T07:48:09.000Z</time>
      </trkpt>
      <trkpt lat="45.58291" lon="6.63821">
        <ele>1931</ele>
        <time>2015-04-07T07:48:14.000Z</time>
      </trkpt>
      <trkpt lat="45.58291" lon="6.63821">
        <ele>1931.4000244141</ele>
        <time>2015-04-07T07:48:15.000Z</time>
      </trkpt>
      <trkpt lat="45.5829" lon="6.63815">
        <ele>1932.4000244141</ele>
        <time>2015-04-07T07:48:19.000Z</time>
      </trkpt>
      <trkpt lat="45.58288" lon="6.6381">
        <ele>1933.1999511719</ele>
        <time>2015-04-07T07:48:25.000Z</time>
      </trkpt>
      <trkpt lat="45.58287" lon="6.63808">
        <ele>1933.4000244141</ele>
        <time>2015-04-07T07:48:26.000Z</time>
      </trkpt>
      <trkpt lat="45.58285" lon="6.63805">
        <ele>1934.1999511719</ele>
        <time>2015-04-07T07:48:31.000Z</time>
      </trkpt>
      <trkpt lat="45.58283" lon="6.63802">
        <ele>1934.4000244141</ele>
        <time>2015-04-07T07:48:33.000Z</time>
      </trkpt>
      <trkpt lat="45.58282" lon="6.638">
        <ele>1935.1999511719</ele>
        <time>2015-04-07T07:48:38.000Z</time>
      </trkpt>
      <trkpt lat="45.58281" lon="6.63798">
        <ele>1935.5999755859</ele>
        <time>2015-04-07T07:48:40.000Z</time>
      </trkpt>
      <trkpt lat="45.5828" lon="6.63795">
        <ele>1936.5999755859</ele>
        <time>2015-04-07T07:48:44.000Z</time>
      </trkpt>
      <trkpt lat="45.5828" lon="6.63794">
        <ele>1936.8000488281</ele>
        <time>2015-04-07T07:48:45.000Z</time>
      </trkpt>
      <trkpt lat="45.58278" lon="6.6379">
        <ele>1937.5999755859</ele>
        <time>2015-04-07T07:48:50.000Z</time>
      </trkpt>
      <trkpt lat="45.58276" lon="6.63789">
        <ele>1937.8000488281</ele>
        <time>2015-04-07T07:48:52.000Z</time>
      </trkpt>
      <trkpt lat="45.58275" lon="6.63786">
        <ele>1938.5999755859</ele>
        <time>2015-04-07T07:48:55.000Z</time>
      </trkpt>
      <trkpt lat="45.58275" lon="6.63786">
        <ele>1939</ele>
        <time>2015-04-07T07:48:56.000Z</time>
      </trkpt>
      <trkpt lat="45.58274" lon="6.63782">
        <ele>1939.5999755859</ele>
        <time>2015-04-07T07:49:00.000Z</time>
      </trkpt>
      <trkpt lat="45.58273" lon="6.6378">
        <ele>1940.1999511719</ele>
        <time>2015-04-07T07:49:03.000Z</time>
      </trkpt>
      <trkpt lat="45.58272" lon="6.63777">
        <ele>1940.8000488281</ele>
        <time>2015-04-07T07:49:06.000Z</time>
      </trkpt>
      <trkpt lat="45.58271" lon="6.63773">
        <ele>1941.1999511719</ele>
        <time>2015-04-07T07:49:10.000Z</time>
      </trkpt>
      <trkpt lat="45.58271" lon="6.63771">
        <ele>1941.5999755859</ele>
        <time>2015-04-07T07:49:11.000Z</time>
      </trkpt>
      <trkpt lat="45.58271" lon="6.63767">
        <ele>1942.1999511719</ele>
        <time>2015-04-07T07:49:14.000Z</time>
      </trkpt>
      <trkpt lat="45.58271" lon="6.63765">
        <ele>1942.4000244141</ele>
        <time>2015-04-07T07:49:16.000Z</time>
      </trkpt>
      <trkpt lat="45.58271" lon="6.63762">
        <ele>1943.4000244141</ele>
        <time>2015-04-07T07:49:20.000Z</time>
      </trkpt>
      <trkpt lat="45.58271" lon="6.63759">
        <ele>1943.5999755859</ele>
        <time>2015-04-07T07:49:21.000Z</time>
      </trkpt>
      <trkpt lat="45.5827" lon="6.63758">
        <ele>1944.1999511719</ele>
        <time>2015-04-07T07:49:25.000Z</time>
      </trkpt>
      <trkpt lat="45.58269" lon="6.63756">
        <ele>1944.4000244141</ele>
        <time>2015-04-07T07:49:26.000Z</time>
      </trkpt>
      <trkpt lat="45.58269" lon="6.6375">
        <ele>1945.4000244141</ele>
        <time>2015-04-07T07:49:31.000Z</time>
      </trkpt>
      <trkpt lat="45.58269" lon="6.6375">
        <ele>1945.5999755859</ele>
        <time>2015-04-07T07:49:32.000Z</time>
      </trkpt>
      <trkpt lat="45.58268" lon="6.63745">
        <ele>1946.4000244141</ele>
        <time>2015-04-07T07:49:36.000Z</time>
      </trkpt>
      <trkpt lat="45.58268" lon="6.63742">
        <ele>1946.8000488281</ele>
        <time>2015-04-07T07:49:38.000Z</time>
      </trkpt>
      <trkpt lat="45.58268" lon="6.63739">
        <ele>1947.1999511719</ele>
        <time>2015-04-07T07:49:41.000Z</time>
      </trkpt>
      <trkpt lat="45.58267" lon="6.63733">
        <ele>1947.8000488281</ele>
        <time>2015-04-07T07:49:46.000Z</time>
      </trkpt>
      <trkpt lat="45.58267" lon="6.63733">
        <ele>1947.8000488281</ele>
        <time>2015-04-07T07:49:47.000Z</time>
      </trkpt>
      <trkpt lat="45.58266" lon="6.6373">
        <ele>1948.5999755859</ele>
        <time>2015-04-07T07:49:52.000Z</time>
      </trkpt>
      <trkpt lat="45.58265" lon="6.63728">
        <ele>1949.1999511719</ele>
        <time>2015-04-07T07:49:54.000Z</time>
      </trkpt>
      <trkpt lat="45.58263" lon="6.63724">
        <ele>1950.1999511719</ele>
        <time>2015-04-07T07:49:58.000Z</time>
      </trkpt>
      <trkpt lat="45.58263" lon="6.63723">
        <ele>1950.1999511719</ele>
        <time>2015-04-07T07:49:59.000Z</time>
      </trkpt>
      <trkpt lat="45.58261" lon="6.63719">
        <ele>1951.1999511719</ele>
        <time>2015-04-07T07:50:05.000Z</time>
      </trkpt>
      <trkpt lat="45.5826" lon="6.63714">
        <ele>1952.1999511719</ele>
        <time>2015-04-07T07:50:10.000Z</time>
      </trkpt>
      <trkpt lat="45.5826" lon="6.63712">
        <ele>1952.5999755859</ele>
        <time>2015-04-07T07:50:11.000Z</time>
      </trkpt>
      <trkpt lat="45.58259" lon="6.63711">
        <ele>1953.1999511719</ele>
        <time>2015-04-07T07:50:15.000Z</time>
      </trkpt>
      <trkpt lat="45.58258" lon="6.63708">
        <ele>1954</ele>
        <time>2015-04-07T07:50:18.000Z</time>
      </trkpt>
      <trkpt lat="45.58258" lon="6.63706">
        <ele>1954.4000244141</ele>
        <time>2015-04-07T07:50:20.000Z</time>
      </trkpt>
      <trkpt lat="45.58256" lon="6.63702">
        <ele>1955.5999755859</ele>
        <time>2015-04-07T07:50:25.000Z</time>
      </trkpt>
      <trkpt lat="45.58253" lon="6.63695">
        <ele>1956.1999511719</ele>
        <time>2015-04-07T07:50:31.000Z</time>
      </trkpt>
      <trkpt lat="45.58253" lon="6.63695">
        <ele>1956.5999755859</ele>
        <time>2015-04-07T07:50:33.000Z</time>
      </trkpt>
      <trkpt lat="45.58252" lon="6.63693">
        <ele>1957.8000488281</ele>
        <time>2015-04-07T07:50:37.000Z</time>
      </trkpt>
      <trkpt lat="45.5825" lon="6.6369">
        <ele>1959</ele>
        <time>2015-04-07T07:50:42.000Z</time>
      </trkpt>
      <trkpt lat="45.58249" lon="6.63688">
        <ele>1959.1999511719</ele>
        <time>2015-04-07T07:50:43.000Z</time>
      </trkpt>
      <trkpt lat="45.58248" lon="6.63685">
        <ele>1960.1999511719</ele>
        <time>2015-04-07T07:50:47.000Z</time>
      </trkpt>
      <trkpt lat="45.58245" lon="6.63682">
        <ele>1961.1999511719</ele>
        <time>2015-04-07T07:50:53.000Z</time>
      </trkpt>
      <trkpt lat="45.58241" lon="6.63679">
        <ele>1962.4000244141</ele>
        <time>2015-04-07T07:50:58.000Z</time>
      </trkpt>
      <trkpt lat="45.58241" lon="6.63678">
        <ele>1962.5999755859</ele>
        <time>2015-04-07T07:50:59.000Z</time>
      </trkpt>
      <trkpt lat="45.58236" lon="6.63674">
        <ele>1963.4000244141</ele>
        <time>2015-04-07T07:51:04.000Z</time>
      </trkpt>
      <trkpt lat="45.58235" lon="6.63674">
        <ele>1963.5999755859</ele>
        <time>2015-04-07T07:51:05.000Z</time>
      </trkpt>
      <trkpt lat="45.5823" lon="6.63673">
        <ele>1964.5999755859</ele>
        <time>2015-04-07T07:51:12.000Z</time>
      </trkpt>
      <trkpt lat="45.58226" lon="6.63671">
        <ele>1965.5999755859</ele>
        <time>2015-04-07T07:51:17.000Z</time>
      </trkpt>
      <trkpt lat="45.58226" lon="6.63671">
        <ele>1965.5999755859</ele>
        <time>2015-04-07T07:51:18.000Z</time>
      </trkpt>
      <trkpt lat="45.58223" lon="6.6367">
        <ele>1966.5999755859</ele>
        <time>2015-04-07T07:51:24.000Z</time>
      </trkpt>
      <trkpt lat="45.58218" lon="6.63667">
        <ele>1967.5999755859</ele>
        <time>2015-04-07T07:51:29.000Z</time>
      </trkpt>
      <trkpt lat="45.58217" lon="6.63666">
        <ele>1968</ele>
        <time>2015-04-07T07:51:30.000Z</time>
      </trkpt>
      <trkpt lat="45.58213" lon="6.63663">
        <ele>1968.5999755859</ele>
        <time>2015-04-07T07:51:35.000Z</time>
      </trkpt>
      <trkpt lat="45.58213" lon="6.63663">
        <ele>1968.8000488281</ele>
        <time>2015-04-07T07:51:36.000Z</time>
      </trkpt>
      <trkpt lat="45.5821" lon="6.6366">
        <ele>1969.4000244141</ele>
        <time>2015-04-07T07:51:41.000Z</time>
      </trkpt>
      <trkpt lat="45.58208" lon="6.63658">
        <ele>1969.8000488281</ele>
        <time>2015-04-07T07:51:43.000Z</time>
      </trkpt>
      <trkpt lat="45.58206" lon="6.63655">
        <ele>1970.1999511719</ele>
        <time>2015-04-07T07:51:47.000Z</time>
      </trkpt>
      <trkpt lat="45.58201" lon="6.63648">
        <ele>1970.5999755859</ele>
        <time>2015-04-07T07:51:53.000Z</time>
      </trkpt>
      <trkpt lat="45.58201" lon="6.63647">
        <ele>1971</ele>
        <time>2015-04-07T07:51:54.000Z</time>
      </trkpt>
      <trkpt lat="45.58198" lon="6.63643">
        <ele>1971.5999755859</ele>
        <time>2015-04-07T07:51:59.000Z</time>
      </trkpt>
      <trkpt lat="45.58196" lon="6.63639">
        <ele>1972.1999511719</ele>
        <time>2015-04-07T07:52:03.000Z</time>
      </trkpt>
      <trkpt lat="45.58194" lon="6.63637">
        <ele>1972.5999755859</ele>
        <time>2015-04-07T07:52:06.000Z</time>
      </trkpt>
      <trkpt lat="45.58193" lon="6.63635">
        <ele>1973.1999511719</ele>
        <time>2015-04-07T07:52:10.000Z</time>
      </trkpt>
      <trkpt lat="45.58193" lon="6.63633">
        <ele>1973.4000244141</ele>
        <time>2015-04-07T07:52:12.000Z</time>
      </trkpt>
      <trkpt lat="45.58192" lon="6.63628">
        <ele>1974.4000244141</ele>
        <time>2015-04-07T07:52:18.000Z</time>
      </trkpt>
      <trkpt lat="45.58191" lon="6.63625">
        <ele>1975</ele>
        <time>2015-04-07T07:52:22.000Z</time>
      </trkpt>
      <trkpt lat="45.58191" lon="6.6362">
        <ele>1975.4000244141</ele>
        <time>2015-04-07T07:52:27.000Z</time>
      </trkpt>
      <trkpt lat="45.58191" lon="6.6362">
        <ele>1975.5999755859</ele>
        <time>2015-04-07T07:52:28.000Z</time>
      </trkpt>
      <trkpt lat="45.58191" lon="6.63615">
        <ele>1976.1999511719</ele>
        <time>2015-04-07T07:52:32.000Z</time>
      </trkpt>
      <trkpt lat="45.5819" lon="6.63611">
        <ele>1976.5999755859</ele>
        <time>2015-04-07T07:52:37.000Z</time>
      </trkpt>
      <trkpt lat="45.5819" lon="6.63611">
        <ele>1976.5999755859</ele>
        <time>2015-04-07T07:52:38.000Z</time>
      </trkpt>
      <trkpt lat="45.5819" lon="6.63606">
        <ele>1977.1999511719</ele>
        <time>2015-04-07T07:52:42.000Z</time>
      </trkpt>
      <trkpt lat="45.5819" lon="6.63604">
        <ele>1977.8000488281</ele>
        <time>2015-04-07T07:52:45.000Z</time>
      </trkpt>
      <trkpt lat="45.5819" lon="6.636">
        <ele>1978.1999511719</ele>
        <time>2015-04-07T07:52:47.000Z</time>
      </trkpt>
      <trkpt lat="45.58192" lon="6.63595">
        <ele>1978.8000488281</ele>
        <time>2015-04-07T07:52:52.000Z</time>
      </trkpt>
      <trkpt lat="45.58194" lon="6.63593">
        <ele>1979.8000488281</ele>
        <time>2015-04-07T07:52:58.000Z</time>
      </trkpt>
      <trkpt lat="45.58194" lon="6.63593">
        <ele>1980</ele>
        <time>2015-04-07T07:52:59.000Z</time>
      </trkpt>
      <trkpt lat="45.58194" lon="6.63593">
        <ele>1980.5999755859</ele>
        <time>2015-04-07T07:53:11.000Z</time>
      </trkpt>
      <trkpt lat="45.58196" lon="6.63592">
        <ele>1980.8000488281</ele>
        <time>2015-04-07T07:53:17.000Z</time>
      </trkpt>
      <trkpt lat="45.58196" lon="6.63592">
        <ele>1981</ele>
        <time>2015-04-07T07:53:19.000Z</time>
      </trkpt>
      <trkpt lat="45.58197" lon="6.63591">
        <ele>1981.5999755859</ele>
        <time>2015-04-07T07:53:30.000Z</time>
      </trkpt>
      <trkpt lat="45.58198" lon="6.63586">
        <ele>1982</ele>
        <time>2015-04-07T07:53:34.000Z</time>
      </trkpt>
      <trkpt lat="45.58198" lon="6.63585">
        <ele>1982.1999511719</ele>
        <time>2015-04-07T07:53:35.000Z</time>
      </trkpt>
      <trkpt lat="45.58198" lon="6.63585">
        <ele>1982.5999755859</ele>
        <time>2015-04-07T07:53:41.000Z</time>
      </trkpt>
      <trkpt lat="45.58198" lon="6.63583">
        <ele>1982.8000488281</ele>
        <time>2015-04-07T07:53:54.000Z</time>
      </trkpt>
      <trkpt lat="45.582" lon="6.63578">
        <ele>1983</ele>
        <time>2015-04-07T07:53:59.000Z</time>
      </trkpt>
      <trkpt lat="45.582" lon="6.63577">
        <ele>1983.1999511719</ele>
        <time>2015-04-07T07:54:01.000Z</time>
      </trkpt>
      <trkpt lat="45.58202" lon="6.63575">
        <ele>1984</ele>
        <time>2015-04-07T07:54:05.000Z</time>
      </trkpt>
      <trkpt lat="45.58202" lon="6.63575">
        <ele>1984.1999511719</ele>
        <time>2015-04-07T07:54:06.000Z</time>
      </trkpt>
      <trkpt lat="45.58202" lon="6.63575">
        <ele>1984.4000244141</ele>
        <time>2015-04-07T07:54:21.000Z</time>
      </trkpt>
      <trkpt lat="45.58202" lon="6.63575">
        <ele>1984.4000244141</ele>
        <time>2015-04-07T07:54:43.000Z</time>
      </trkpt>
      <trkpt lat="45.58202" lon="6.63575">
        <ele>1984.4000244141</ele>
        <time>2015-04-07T07:55:03.000Z</time>
      </trkpt>
      <trkpt lat="45.58203" lon="6.63572">
        <ele>1984.4000244141</ele>
        <time>2015-04-07T07:55:13.000Z</time>
      </trkpt>
      <trkpt lat="45.58207" lon="6.63566">
        <ele>1985</ele>
        <time>2015-04-07T07:55:18.000Z</time>
      </trkpt>
      <trkpt lat="45.58209" lon="6.63564">
        <ele>1985.1999511719</ele>
        <time>2015-04-07T07:55:20.000Z</time>
      </trkpt>
      <trkpt lat="45.5821" lon="6.63562">
        <ele>1985.8000488281</ele>
        <time>2015-04-07T07:55:23.000Z</time>
      </trkpt>
      <trkpt lat="45.5821" lon="6.63561">
        <ele>1986.4000244141</ele>
        <time>2015-04-07T07:55:25.000Z</time>
      </trkpt>
      <trkpt lat="45.58211" lon="6.63556">
        <ele>1987.4000244141</ele>
        <time>2015-04-07T07:55:30.000Z</time>
      </trkpt>
      <trkpt lat="45.58213" lon="6.63551">
        <ele>1988.5999755859</ele>
        <time>2015-04-07T07:55:35.000Z</time>
      </trkpt>
      <trkpt lat="45.58215" lon="6.63549">
        <ele>1989</ele>
        <time>2015-04-07T07:55:37.000Z</time>
      </trkpt>
      <trkpt lat="45.58217" lon="6.63544">
        <ele>1989.8000488281</ele>
        <time>2015-04-07T07:55:41.000Z</time>
      </trkpt>
      <trkpt lat="45.58217" lon="6.63542">
        <ele>1990</ele>
        <time>2015-04-07T07:55:42.000Z</time>
      </trkpt>
      <trkpt lat="45.5822" lon="6.63536">
        <ele>1990.8000488281</ele>
        <time>2015-04-07T07:55:48.000Z</time>
      </trkpt>
      <trkpt lat="45.58222" lon="6.63529">
        <ele>1991.5999755859</ele>
        <time>2015-04-07T07:55:55.000Z</time>
      </trkpt>
      <trkpt lat="45.58222" lon="6.63527">
        <ele>1991.8000488281</ele>
        <time>2015-04-07T07:55:56.000Z</time>
      </trkpt>
      <trkpt lat="45.58223" lon="6.63522">
        <ele>1992.8000488281</ele>
        <time>2015-04-07T07:56:02.000Z</time>
      </trkpt>
      <trkpt lat="45.58223" lon="6.63522">
        <ele>1993</ele>
        <time>2015-04-07T07:56:03.000Z</time>
      </trkpt>
      <trkpt lat="45.58226" lon="6.63515">
        <ele>1994</ele>
        <time>2015-04-07T07:56:09.000Z</time>
      </trkpt>
      <trkpt lat="45.58229" lon="6.6351">
        <ele>1995</ele>
        <time>2015-04-07T07:56:15.000Z</time>
      </trkpt>
      <trkpt lat="45.5823" lon="6.63509">
        <ele>1995.1999511719</ele>
        <time>2015-04-07T07:56:16.000Z</time>
      </trkpt>
      <trkpt lat="45.58232" lon="6.63508">
        <ele>1996.4000244141</ele>
        <time>2015-04-07T07:56:21.000Z</time>
      </trkpt>
      <trkpt lat="45.58233" lon="6.63507">
        <ele>1996.5999755859</ele>
        <time>2015-04-07T07:56:22.000Z</time>
      </trkpt>
      <trkpt lat="45.58237" lon="6.63504">
        <ele>1997.5999755859</ele>
        <time>2015-04-07T07:56:27.000Z</time>
      </trkpt>
      <trkpt lat="45.58238" lon="6.63502">
        <ele>1997.8000488281</ele>
        <time>2015-04-07T07:56:29.000Z</time>
      </trkpt>
      <trkpt lat="45.5824" lon="6.63499">
        <ele>1998.5999755859</ele>
        <time>2015-04-07T07:56:34.000Z</time>
      </trkpt>
      <trkpt lat="45.58241" lon="6.63498">
        <ele>1998.8000488281</ele>
        <time>2015-04-07T07:56:35.000Z</time>
      </trkpt>
      <trkpt lat="45.58246" lon="6.63492">
        <ele>1999.8000488281</ele>
        <time>2015-04-07T07:56:42.000Z</time>
      </trkpt>
      <trkpt lat="45.58248" lon="6.63489">
        <ele>2001</ele>
        <time>2015-04-07T07:56:47.000Z</time>
      </trkpt>
      <trkpt lat="45.58248" lon="6.63488">
        <ele>2001.1999511719</ele>
        <time>2015-04-07T07:56:48.000Z</time>
      </trkpt>
      <trkpt lat="45.58251" lon="6.63485">
        <ele>2002</ele>
        <time>2015-04-07T07:56:53.000Z</time>
      </trkpt>
      <trkpt lat="45.58252" lon="6.63485">
        <ele>2002.1999511719</ele>
        <time>2015-04-07T07:56:54.000Z</time>
      </trkpt>
      <trkpt lat="45.58254" lon="6.63481">
        <ele>2002.8000488281</ele>
        <time>2015-04-07T07:56:59.000Z</time>
      </trkpt>
      <trkpt lat="45.58255" lon="6.6348">
        <ele>2003.1999511719</ele>
        <time>2015-04-07T07:57:01.000Z</time>
      </trkpt>
      <trkpt lat="45.58258" lon="6.63478">
        <ele>2004.1999511719</ele>
        <time>2015-04-07T07:57:05.000Z</time>
      </trkpt>
      <trkpt lat="45.58259" lon="6.63478">
        <ele>2004.1999511719</ele>
        <time>2015-04-07T07:57:06.000Z</time>
      </trkpt>
      <trkpt lat="45.58261" lon="6.63474">
        <ele>2005.1999511719</ele>
        <time>2015-04-07T07:57:11.000Z</time>
      </trkpt>
      <trkpt lat="45.58262" lon="6.63474">
        <ele>2005.4000244141</ele>
        <time>2015-04-07T07:57:12.000Z</time>
      </trkpt>
      <trkpt lat="45.58266" lon="6.63471">
        <ele>2006</ele>
        <time>2015-04-07T07:57:17.000Z</time>
      </trkpt>
      <trkpt lat="45.58267" lon="6.6347">
        <ele>2006.5999755859</ele>
        <time>2015-04-07T07:57:19.000Z</time>
      </trkpt>
      <trkpt lat="45.58269" lon="6.63469">
        <ele>2007.1999511719</ele>
        <time>2015-04-07T07:57:23.000Z</time>
      </trkpt>
      <trkpt lat="45.58272" lon="6.63468">
        <ele>2007.5999755859</ele>
        <time>2015-04-07T07:57:27.000Z</time>
      </trkpt>
      <trkpt lat="45.58273" lon="6.63468">
        <ele>2008</ele>
        <time>2015-04-07T07:57:29.000Z</time>
      </trkpt>
      <trkpt lat="45.58275" lon="6.63467">
        <ele>2008.8000488281</ele>
        <time>2015-04-07T07:57:32.000Z</time>
      </trkpt>
      <trkpt lat="45.58277" lon="6.63466">
        <ele>2009.4000244141</ele>
        <time>2015-04-07T07:57:35.000Z</time>
      </trkpt>
      <trkpt lat="45.58278" lon="6.63466">
        <ele>2009.8000488281</ele>
        <time>2015-04-07T07:57:37.000Z</time>
      </trkpt>
      <trkpt lat="45.58281" lon="6.63464">
        <ele>2010.8000488281</ele>
        <time>2015-04-07T07:57:42.000Z</time>
      </trkpt>
      <trkpt lat="45.58282" lon="6.63464">
        <ele>2011</ele>
        <time>2015-04-07T07:57:43.000Z</time>
      </trkpt>
      <trkpt lat="45.58287" lon="6.63462">
        <ele>2012</ele>
        <time>2015-04-07T07:57:49.000Z</time>
      </trkpt>
      <trkpt lat="45.5829" lon="6.6346">
        <ele>2013.1999511719</ele>
        <time>2015-04-07T07:57:55.000Z</time>
      </trkpt>
      <trkpt lat="45.5829" lon="6.6346">
        <ele>2013.5999755859</ele>
        <time>2015-04-07T07:57:56.000Z</time>
      </trkpt>
      <trkpt lat="45.58291" lon="6.63459">
        <ele>2014.1999511719</ele>
        <time>2015-04-07T07:58:03.000Z</time>
      </trkpt>
      <trkpt lat="45.58292" lon="6.63458">
        <ele>2014.4000244141</ele>
        <time>2015-04-07T07:58:05.000Z</time>
      </trkpt>
      <trkpt lat="45.58292" lon="6.63456">
        <ele>2014.8000488281</ele>
        <time>2015-04-07T07:58:08.000Z</time>
      </trkpt>
      <trkpt lat="45.58292" lon="6.63456">
        <ele>2015.4000244141</ele>
        <time>2015-04-07T07:58:11.000Z</time>
      </trkpt>
      <trkpt lat="45.58291" lon="6.63455">
        <ele>2016.1999511719</ele>
        <time>2015-04-07T07:58:15.000Z</time>
      </trkpt>
      <trkpt lat="45.5829" lon="6.63454">
        <ele>2016.1999511719</ele>
        <time>2015-04-07T07:58:16.000Z</time>
      </trkpt>
      <trkpt lat="45.5829" lon="6.63453">
        <ele>2016.5999755859</ele>
        <time>2015-04-07T07:58:17.000Z</time>
      </trkpt>
      <trkpt lat="45.58288" lon="6.63449">
        <ele>2017</ele>
        <time>2015-04-07T07:58:21.000Z</time>
      </trkpt>
      <trkpt lat="45.58287" lon="6.63446">
        <ele>2017.5999755859</ele>
        <time>2015-04-07T07:58:24.000Z</time>
      </trkpt>
      <trkpt lat="45.58287" lon="6.63445">
        <ele>2018</ele>
        <time>2015-04-07T07:58:26.000Z</time>
      </trkpt>
      <trkpt lat="45.58286" lon="6.63443">
        <ele>2018.5999755859</ele>
        <time>2015-04-07T07:58:29.000Z</time>
      </trkpt>
      <trkpt lat="45.58286" lon="6.63442">
        <ele>2019.1999511719</ele>
        <time>2015-04-07T07:58:31.000Z</time>
      </trkpt>
      <trkpt lat="45.58285" lon="6.63438">
        <ele>2019.8000488281</ele>
        <time>2015-04-07T07:58:34.000Z</time>
      </trkpt>
      <trkpt lat="45.58284" lon="6.63438">
        <ele>2019.5999755859</ele>
        <time>2015-04-07T07:58:37.000Z</time>
      </trkpt>
      <trkpt lat="45.58284" lon="6.63437">
        <ele>2020.8000488281</ele>
        <time>2015-04-07T07:58:44.000Z</time>
      </trkpt>
      <trkpt lat="45.58283" lon="6.63436">
        <ele>2020.8000488281</ele>
        <time>2015-04-07T07:58:46.000Z</time>
      </trkpt>
      <trkpt lat="45.58281" lon="6.63432">
        <ele>2021.4000244141</ele>
        <time>2015-04-07T07:58:50.000Z</time>
      </trkpt>
      <trkpt lat="45.58279" lon="6.63429">
        <ele>2021.8000488281</ele>
        <time>2015-04-07T07:58:54.000Z</time>
      </trkpt>
      <trkpt lat="45.58278" lon="6.63429">
        <ele>2022.1999511719</ele>
        <time>2015-04-07T07:58:55.000Z</time>
      </trkpt>
      <trkpt lat="45.58277" lon="6.63428">
        <ele>2023</ele>
        <time>2015-04-07T07:58:58.000Z</time>
      </trkpt>
      <trkpt lat="45.58277" lon="6.63427">
        <ele>2023.4000244141</ele>
        <time>2015-04-07T07:59:01.000Z</time>
      </trkpt>
      <trkpt lat="45.58278" lon="6.63426">
        <ele>2024.1999511719</ele>
        <time>2015-04-07T07:59:03.000Z</time>
      </trkpt>
      <trkpt lat="45.5828" lon="6.63426">
        <ele>2025</ele>
        <time>2015-04-07T07:59:07.000Z</time>
      </trkpt>
      <trkpt lat="45.58282" lon="6.63425">
        <ele>2025.1999511719</ele>
        <time>2015-04-07T07:59:09.000Z</time>
      </trkpt>
      <trkpt lat="45.58286" lon="6.63424">
        <ele>2026</ele>
        <time>2015-04-07T07:59:14.000Z</time>
      </trkpt>
      <trkpt lat="45.58287" lon="6.63424">
        <ele>2026.1999511719</ele>
        <time>2015-04-07T07:59:15.000Z</time>
      </trkpt>
      <trkpt lat="45.58291" lon="6.63426">
        <ele>2027.4000244141</ele>
        <time>2015-04-07T07:59:21.000Z</time>
      </trkpt>
      <trkpt lat="45.58293" lon="6.63427">
        <ele>2027.8000488281</ele>
        <time>2015-04-07T07:59:23.000Z</time>
      </trkpt>
      <trkpt lat="45.58294" lon="6.63428">
        <ele>2028.4000244141</ele>
        <time>2015-04-07T07:59:26.000Z</time>
      </trkpt>
      <trkpt lat="45.58298" lon="6.63427">
        <ele>2029.1999511719</ele>
        <time>2015-04-07T07:59:31.000Z</time>
      </trkpt>
      <trkpt lat="45.58298" lon="6.63427">
        <ele>2029.4000244141</ele>
        <time>2015-04-07T07:59:32.000Z</time>
      </trkpt>
      <trkpt lat="45.58302" lon="6.63425">
        <ele>2030.5999755859</ele>
        <time>2015-04-07T07:59:37.000Z</time>
      </trkpt>
      <trkpt lat="45.58303" lon="6.63425">
        <ele>2030.8000488281</ele>
        <time>2015-04-07T07:59:39.000Z</time>
      </trkpt>
      <trkpt lat="45.58306" lon="6.63424">
        <ele>2031.5999755859</ele>
        <time>2015-04-07T07:59:43.000Z</time>
      </trkpt>
      <trkpt lat="45.58307" lon="6.63422">
        <ele>2032</ele>
        <time>2015-04-07T07:59:45.000Z</time>
      </trkpt>
      <trkpt lat="45.58309" lon="6.63417">
        <ele>2032.8000488281</ele>
        <time>2015-04-07T07:59:49.000Z</time>
      </trkpt>
      <trkpt lat="45.58309" lon="6.63416">
        <ele>2033</ele>
        <time>2015-04-07T07:59:51.000Z</time>
      </trkpt>
      <trkpt lat="45.58311" lon="6.63411">
        <ele>2034</ele>
        <time>2015-04-07T07:59:55.000Z</time>
      </trkpt>
      <trkpt lat="45.58311" lon="6.6341">
        <ele>2034</ele>
        <time>2015-04-07T07:59:56.000Z</time>
      </trkpt>
      <trkpt lat="45.58313" lon="6.63404">
        <ele>2035</ele>
        <time>2015-04-07T08:00:03.000Z</time>
      </trkpt>
      <trkpt lat="45.58314" lon="6.63403">
        <ele>2035.1999511719</ele>
        <time>2015-04-07T08:00:04.000Z</time>
      </trkpt>
      <trkpt lat="45.58314" lon="6.63401">
        <ele>2035.5999755859</ele>
        <time>2015-04-07T08:00:06.000Z</time>
      </trkpt>
      <trkpt lat="45.58315" lon="6.63397">
        <ele>2035.8000488281</ele>
        <time>2015-04-07T08:00:09.000Z</time>
      </trkpt>
      <trkpt lat="45.58316" lon="6.63396">
        <ele>2036</ele>
        <time>2015-04-07T08:00:10.000Z</time>
      </trkpt>
      <trkpt lat="45.58318" lon="6.63392">
        <ele>2036.5999755859</ele>
        <time>2015-04-07T08:00:14.000Z</time>
      </trkpt>
      <trkpt lat="45.58321" lon="6.63389">
        <ele>2037.1999511719</ele>
        <time>2015-04-07T08:00:17.000Z</time>
      </trkpt>
      <trkpt lat="45.58323" lon="6.63386">
        <ele>2038</ele>
        <time>2015-04-07T08:00:21.000Z</time>
      </trkpt>
      <trkpt lat="45.58324" lon="6.63385">
        <ele>2038.1999511719</ele>
        <time>2015-04-07T08:00:23.000Z</time>
      </trkpt>
      <trkpt lat="45.58326" lon="6.63383">
        <ele>2038.8000488281</ele>
        <time>2015-04-07T08:00:26.000Z</time>
      </trkpt>
      <trkpt lat="45.58327" lon="6.63382">
        <ele>2039.1999511719</ele>
        <time>2015-04-07T08:00:28.000Z</time>
      </trkpt>
      <trkpt lat="45.58329" lon="6.63381">
        <ele>2039.8000488281</ele>
        <time>2015-04-07T08:00:31.000Z</time>
      </trkpt>
      <trkpt lat="45.58332" lon="6.63379">
        <ele>2040.4000244141</ele>
        <time>2015-04-07T08:00:34.000Z</time>
      </trkpt>
      <trkpt lat="45.58335" lon="6.63377">
        <ele>2041</ele>
        <time>2015-04-07T08:00:37.000Z</time>
      </trkpt>
      <trkpt lat="45.58336" lon="6.63375">
        <ele>2041.5999755859</ele>
        <time>2015-04-07T08:00:40.000Z</time>
      </trkpt>
      <trkpt lat="45.58338" lon="6.63373">
        <ele>2042</ele>
        <time>2015-04-07T08:00:43.000Z</time>
      </trkpt>
      <trkpt lat="45.5834" lon="6.63371">
        <ele>2042.8000488281</ele>
        <time>2015-04-07T08:00:46.000Z</time>
      </trkpt>
      <trkpt lat="45.58341" lon="6.6337">
        <ele>2043.1999511719</ele>
        <time>2015-04-07T08:00:48.000Z</time>
      </trkpt>
      <trkpt lat="45.58344" lon="6.63368">
        <ele>2043.8000488281</ele>
        <time>2015-04-07T08:00:52.000Z</time>
      </trkpt>
      <trkpt lat="45.58345" lon="6.63367">
        <ele>2044.1999511719</ele>
        <time>2015-04-07T08:00:54.000Z</time>
      </trkpt>
      <trkpt lat="45.58348" lon="6.63365">
        <ele>2044.8000488281</ele>
        <time>2015-04-07T08:00:59.000Z</time>
      </trkpt>
      <trkpt lat="45.58348" lon="6.63366">
        <ele>2045</ele>
        <time>2015-04-07T08:01:00.000Z</time>
      </trkpt>
      <trkpt lat="45.5835" lon="6.63363">
        <ele>2046</ele>
        <time>2015-04-07T08:01:04.000Z</time>
      </trkpt>
      <trkpt lat="45.58352" lon="6.63362">
        <ele>2046.4000244141</ele>
        <time>2015-04-07T08:01:06.000Z</time>
      </trkpt>
      <trkpt lat="45.58354" lon="6.63361">
        <ele>2047</ele>
        <time>2015-04-07T08:01:08.000Z</time>
      </trkpt>
      <trkpt lat="45.58356" lon="6.63359">
        <ele>2047.5999755859</ele>
        <time>2015-04-07T08:01:12.000Z</time>
      </trkpt>
      <trkpt lat="45.58358" lon="6.63358">
        <ele>2048</ele>
        <time>2015-04-07T08:01:14.000Z</time>
      </trkpt>
      <trkpt lat="45.58361" lon="6.63355">
        <ele>2048.8000488281</ele>
        <time>2015-04-07T08:01:19.000Z</time>
      </trkpt>
      <trkpt lat="45.58363" lon="6.63354">
        <ele>2049.1999511719</ele>
        <time>2015-04-07T08:01:21.000Z</time>
      </trkpt>
      <trkpt lat="45.58364" lon="6.63352">
        <ele>2049.8000488281</ele>
        <time>2015-04-07T08:01:25.000Z</time>
      </trkpt>
      <trkpt lat="45.58365" lon="6.6335">
        <ele>2050.1999511719</ele>
        <time>2015-04-07T08:01:27.000Z</time>
      </trkpt>
      <trkpt lat="45.58366" lon="6.63349">
        <ele>2050.6000976562</ele>
        <time>2015-04-07T08:01:30.000Z</time>
      </trkpt>
      <trkpt lat="45.58365" lon="6.63345">
        <ele>2051.1999511719</ele>
        <time>2015-04-07T08:01:34.000Z</time>
      </trkpt>
      <trkpt lat="45.58363" lon="6.63343">
        <ele>2051.8000488281</ele>
        <time>2015-04-07T08:01:36.000Z</time>
      </trkpt>
      <trkpt lat="45.58362" lon="6.63342">
        <ele>2052.3999023438</ele>
        <time>2015-04-07T08:01:38.000Z</time>
      </trkpt>
      <trkpt lat="45.58359" lon="6.6334">
        <ele>2053.3999023438</ele>
        <time>2015-04-07T08:01:43.000Z</time>
      </trkpt>
      <trkpt lat="45.58355" lon="6.63334">
        <ele>2054.3999023438</ele>
        <time>2015-04-07T08:01:49.000Z</time>
      </trkpt>
      <trkpt lat="45.58354" lon="6.63333">
        <ele>2054.6000976562</ele>
        <time>2015-04-07T08:01:50.000Z</time>
      </trkpt>
      <trkpt lat="45.58351" lon="6.63331">
        <ele>2055.6000976562</ele>
        <time>2015-04-07T08:01:54.000Z</time>
      </trkpt>
      <trkpt lat="45.5835" lon="6.63331">
        <ele>2056</ele>
        <time>2015-04-07T08:01:55.000Z</time>
      </trkpt>
      <trkpt lat="45.58347" lon="6.63328">
        <ele>2056.6000976562</ele>
        <time>2015-04-07T08:01:59.000Z</time>
      </trkpt>
      <trkpt lat="45.58346" lon="6.63327">
        <ele>2057</ele>
        <time>2015-04-07T08:02:01.000Z</time>
      </trkpt>
      <trkpt lat="45.58345" lon="6.63324">
        <ele>2057.8000488281</ele>
        <time>2015-04-07T08:02:04.000Z</time>
      </trkpt>
      <trkpt lat="45.58343" lon="6.63322">
        <ele>2058</ele>
        <time>2015-04-07T08:02:07.000Z</time>
      </trkpt>
      <trkpt lat="45.58341" lon="6.63319">
        <ele>2059</ele>
        <time>2015-04-07T08:02:11.000Z</time>
      </trkpt>
      <trkpt lat="45.58341" lon="6.63318">
        <ele>2059.6000976562</ele>
        <time>2015-04-07T08:02:13.000Z</time>
      </trkpt>
      <trkpt lat="45.58339" lon="6.63316">
        <ele>2060</ele>
        <time>2015-04-07T08:02:16.000Z</time>
      </trkpt>
      <trkpt lat="45.58339" lon="6.63315">
        <ele>2060.1999511719</ele>
        <time>2015-04-07T08:02:18.000Z</time>
      </trkpt>
      <trkpt lat="45.58337" lon="6.63313">
        <ele>2061.1999511719</ele>
        <time>2015-04-07T08:02:21.000Z</time>
      </trkpt>
      <trkpt lat="45.58335" lon="6.63309">
        <ele>2062</ele>
        <time>2015-04-07T08:02:25.000Z</time>
      </trkpt>
      <trkpt lat="45.58334" lon="6.63308">
        <ele>2062.3999023438</ele>
        <time>2015-04-07T08:02:27.000Z</time>
      </trkpt>
      <trkpt lat="45.58333" lon="6.63306">
        <ele>2063.3999023438</ele>
        <time>2015-04-07T08:02:31.000Z</time>
      </trkpt>
      <trkpt lat="45.5833" lon="6.633">
        <ele>2064.3999023438</ele>
        <time>2015-04-07T08:02:36.000Z</time>
      </trkpt>
      <trkpt lat="45.58329" lon="6.63299">
        <ele>2064.6000976562</ele>
        <time>2015-04-07T08:02:37.000Z</time>
      </trkpt>
      <trkpt lat="45.58327" lon="6.63294">
        <ele>2065.3999023438</ele>
        <time>2015-04-07T08:02:42.000Z</time>
      </trkpt>
      <trkpt lat="45.58326" lon="6.63293">
        <ele>2065.8000488281</ele>
        <time>2015-04-07T08:02:43.000Z</time>
      </trkpt>
      <trkpt lat="45.58324" lon="6.63291">
        <ele>2066.8000488281</ele>
        <time>2015-04-07T08:02:48.000Z</time>
      </trkpt>
      <trkpt lat="45.58321" lon="6.63287">
        <ele>2067.8000488281</ele>
        <time>2015-04-07T08:02:53.000Z</time>
      </trkpt>
      <trkpt lat="45.58321" lon="6.63287">
        <ele>2067.8000488281</ele>
        <time>2015-04-07T08:02:54.000Z</time>
      </trkpt>
      <trkpt lat="45.58318" lon="6.63284">
        <ele>2068.6000976562</ele>
        <time>2015-04-07T08:02:59.000Z</time>
      </trkpt>
      <trkpt lat="45.58317" lon="6.63282">
        <ele>2069</ele>
        <time>2015-04-07T08:03:01.000Z</time>
      </trkpt>
      <trkpt lat="45.58315" lon="6.63277">
        <ele>2069.8000488281</ele>
        <time>2015-04-07T08:03:06.000Z</time>
      </trkpt>
      <trkpt lat="45.58314" lon="6.63276">
        <ele>2070</ele>
        <time>2015-04-07T08:03:07.000Z</time>
      </trkpt>
      <trkpt lat="45.58312" lon="6.63274">
        <ele>2071</ele>
        <time>2015-04-07T08:03:10.000Z</time>
      </trkpt>
      <trkpt lat="45.58311" lon="6.63271">
        <ele>2071.8000488281</ele>
        <time>2015-04-07T08:03:13.000Z</time>
      </trkpt>
      <trkpt lat="45.5831" lon="6.63269">
        <ele>2072.1999511719</ele>
        <time>2015-04-07T08:03:15.000Z</time>
      </trkpt>
      <trkpt lat="45.58307" lon="6.63265">
        <ele>2073</ele>
        <time>2015-04-07T08:03:20.000Z</time>
      </trkpt>
      <trkpt lat="45.58307" lon="6.63263">
        <ele>2073.3999023438</ele>
        <time>2015-04-07T08:03:21.000Z</time>
      </trkpt>
      <trkpt lat="45.58305" lon="6.63259">
        <ele>2074.3999023438</ele>
        <time>2015-04-07T08:03:26.000Z</time>
      </trkpt>
      <trkpt lat="45.58305" lon="6.63258">
        <ele>2074.6000976562</ele>
        <time>2015-04-07T08:03:27.000Z</time>
      </trkpt>
      <trkpt lat="45.58303" lon="6.63255">
        <ele>2075.3999023438</ele>
        <time>2015-04-07T08:03:31.000Z</time>
      </trkpt>
      <trkpt lat="45.58303" lon="6.63253">
        <ele>2076</ele>
        <time>2015-04-07T08:03:33.000Z</time>
      </trkpt>
      <trkpt lat="45.58302" lon="6.63251">
        <ele>2076.6000976562</ele>
        <time>2015-04-07T08:03:35.000Z</time>
      </trkpt>
      <trkpt lat="45.58299" lon="6.63249">
        <ele>2077.6000976562</ele>
        <time>2015-04-07T08:03:40.000Z</time>
      </trkpt>
      <trkpt lat="45.58296" lon="6.63243">
        <ele>2078.6000976562</ele>
        <time>2015-04-07T08:03:46.000Z</time>
      </trkpt>
      <trkpt lat="45.58296" lon="6.63242">
        <ele>2079</ele>
        <time>2015-04-07T08:03:47.000Z</time>
      </trkpt>
      <trkpt lat="45.58295" lon="6.6324">
        <ele>2079.3999023438</ele>
        <time>2015-04-07T08:03:49.000Z</time>
      </trkpt>
      <trkpt lat="45.58295" lon="6.63237">
        <ele>2079.8000488281</ele>
        <time>2015-04-07T08:03:52.000Z</time>
      </trkpt>
      <trkpt lat="45.58295" lon="6.63236">
        <ele>2080</ele>
        <time>2015-04-07T08:03:53.000Z</time>
      </trkpt>
      <trkpt lat="45.58294" lon="6.63232">
        <ele>2080.8000488281</ele>
        <time>2015-04-07T08:03:56.000Z</time>
      </trkpt>
      <trkpt lat="45.58294" lon="6.6323">
        <ele>2081</ele>
        <time>2015-04-07T08:03:58.000Z</time>
      </trkpt>
      <trkpt lat="45.58293" lon="6.63224">
        <ele>2082</ele>
        <time>2015-04-07T08:04:03.000Z</time>
      </trkpt>
      <trkpt lat="45.58293" lon="6.63223">
        <ele>2082.3999023438</ele>
        <time>2015-04-07T08:04:04.000Z</time>
      </trkpt>
      <trkpt lat="45.58291" lon="6.63217">
        <ele>2083.1999511719</ele>
        <time>2015-04-07T08:04:10.000Z</time>
      </trkpt>
      <trkpt lat="45.5829" lon="6.63216">
        <ele>2083.3999023438</ele>
        <time>2015-04-07T08:04:11.000Z</time>
      </trkpt>
      <trkpt lat="45.58289" lon="6.63211">
        <ele>2084.1999511719</ele>
        <time>2015-04-07T08:04:16.000Z</time>
      </trkpt>
      <trkpt lat="45.58288" lon="6.63209">
        <ele>2084.6000976562</ele>
        <time>2015-04-07T08:04:18.000Z</time>
      </trkpt>
      <trkpt lat="45.58287" lon="6.63206">
        <ele>2085.6000976562</ele>
        <time>2015-04-07T08:04:21.000Z</time>
      </trkpt>
      <trkpt lat="45.58286" lon="6.63204">
        <ele>2086.1999511719</ele>
        <time>2015-04-07T08:04:24.000Z</time>
      </trkpt>
      <trkpt lat="45.58285" lon="6.632">
        <ele>2086.8000488281</ele>
        <time>2015-04-07T08:04:28.000Z</time>
      </trkpt>
      <trkpt lat="45.58285" lon="6.63197">
        <ele>2087.3999023438</ele>
        <time>2015-04-07T08:04:30.000Z</time>
      </trkpt>
      <trkpt lat="45.58284" lon="6.63195">
        <ele>2088</ele>
        <time>2015-04-07T08:04:32.000Z</time>
      </trkpt>
      <trkpt lat="45.58282" lon="6.63191">
        <ele>2088.6000976562</ele>
        <time>2015-04-07T08:04:36.000Z</time>
      </trkpt>
      <trkpt lat="45.58281" lon="6.6319">
        <ele>2089</ele>
        <time>2015-04-07T08:04:38.000Z</time>
      </trkpt>
      <trkpt lat="45.58279" lon="6.63187">
        <ele>2089.8000488281</ele>
        <time>2015-04-07T08:04:42.000Z</time>
      </trkpt>
      <trkpt lat="45.58278" lon="6.63187">
        <ele>2090.1999511719</ele>
        <time>2015-04-07T08:04:44.000Z</time>
      </trkpt>
      <trkpt lat="45.58276" lon="6.63183">
        <ele>2091.1999511719</ele>
        <time>2015-04-07T08:04:48.000Z</time>
      </trkpt>
      <trkpt lat="45.58274" lon="6.63179">
        <ele>2092.3999023438</ele>
        <time>2015-04-07T08:04:53.000Z</time>
      </trkpt>
      <trkpt lat="45.58274" lon="6.63178">
        <ele>2092.3999023438</ele>
        <time>2015-04-07T08:04:54.000Z</time>
      </trkpt>
      <trkpt lat="45.58274" lon="6.63176">
        <ele>2093.3999023438</ele>
        <time>2015-04-07T08:04:59.000Z</time>
      </trkpt>
      <trkpt lat="45.58274" lon="6.63176">
        <ele>2093.6000976562</ele>
        <time>2015-04-07T08:05:01.000Z</time>
      </trkpt>
      <trkpt lat="45.58274" lon="6.63176">
        <ele>2093.6000976562</ele>
        <time>2015-04-07T08:05:15.000Z</time>
      </trkpt>
      <trkpt lat="45.58273" lon="6.63172">
        <ele>2093.6000976562</ele>
        <time>2015-04-07T08:05:20.000Z</time>
      </trkpt>
      <trkpt lat="45.58274" lon="6.63168">
        <ele>2094.3999023438</ele>
        <time>2015-04-07T08:05:24.000Z</time>
      </trkpt>
      <trkpt lat="45.58274" lon="6.63166">
        <ele>2094.6000976562</ele>
        <time>2015-04-07T08:05:25.000Z</time>
      </trkpt>
      <trkpt lat="45.58274" lon="6.63161">
        <ele>2095</ele>
        <time>2015-04-07T08:05:28.000Z</time>
      </trkpt>
      <trkpt lat="45.58275" lon="6.63156">
        <ele>2095.6000976562</ele>
        <time>2015-04-07T08:05:32.000Z</time>
      </trkpt>
      <trkpt lat="45.58275" lon="6.63154">
        <ele>2095.6000976562</ele>
        <time>2015-04-07T08:05:33.000Z</time>
      </trkpt>
      <trkpt lat="45.58273" lon="6.6315">
        <ele>2096.8000488281</ele>
        <time>2015-04-07T08:05:37.000Z</time>
      </trkpt>
      <trkpt lat="45.58272" lon="6.63145">
        <ele>2097.8000488281</ele>
        <time>2015-04-07T08:05:42.000Z</time>
      </trkpt>
      <trkpt lat="45.58272" lon="6.63144">
        <ele>2098</ele>
        <time>2015-04-07T08:05:43.000Z</time>
      </trkpt>
      <trkpt lat="45.58271" lon="6.63142">
        <ele>2099</ele>
        <time>2015-04-07T08:05:46.000Z</time>
      </trkpt>
      <trkpt lat="45.58271" lon="6.63142">
        <ele>2099.8000488281</ele>
        <time>2015-04-07T08:05:50.000Z</time>
      </trkpt>
      <trkpt lat="45.58271" lon="6.63142">
        <ele>2100</ele>
        <time>2015-04-07T08:06:04.000Z</time>
      </trkpt>
      <trkpt lat="45.58271" lon="6.63142">
        <ele>2100.1999511719</ele>
        <time>2015-04-07T08:06:19.000Z</time>
      </trkpt>
      <trkpt lat="45.58271" lon="6.63141">
        <ele>2100.1999511719</ele>
        <time>2015-04-07T08:06:30.000Z</time>
      </trkpt>
      <trkpt lat="45.58271" lon="6.63141">
        <ele>2100.6000976562</ele>
        <time>2015-04-07T08:06:37.000Z</time>
      </trkpt>
      <trkpt lat="45.58269" lon="6.63139">
        <ele>2100.6000976562</ele>
        <time>2015-04-07T08:06:43.000Z</time>
      </trkpt>
      <trkpt lat="45.58267" lon="6.63137">
        <ele>2100.6000976562</ele>
        <time>2015-04-07T08:06:45.000Z</time>
      </trkpt>
      <trkpt lat="45.58263" lon="6.63134">
        <ele>2100.3999023438</ele>
        <time>2015-04-07T08:06:48.000Z</time>
      </trkpt>
      <trkpt lat="45.58259" lon="6.6313">
        <ele>2100.3999023438</ele>
        <time>2015-04-07T08:06:52.000Z</time>
      </trkpt>
      <trkpt lat="45.58254" lon="6.63128">
        <ele>2100.3999023438</ele>
        <time>2015-04-07T08:06:57.000Z</time>
      </trkpt>
      <trkpt lat="45.5825" lon="6.63123">
        <ele>2100.1999511719</ele>
        <time>2015-04-07T08:07:02.000Z</time>
      </trkpt>
      <trkpt lat="45.58244" lon="6.63114">
        <ele>2100.3999023438</ele>
        <time>2015-04-07T08:07:08.000Z</time>
      </trkpt>
      <trkpt lat="45.5824" lon="6.63108">
        <ele>2100.3999023438</ele>
        <time>2015-04-07T08:07:14.000Z</time>
      </trkpt>
      <trkpt lat="45.58236" lon="6.63102">
        <ele>2101</ele>
        <time>2015-04-07T08:07:19.000Z</time>
      </trkpt>
      <trkpt lat="45.58236" lon="6.631">
        <ele>2101</ele>
        <time>2015-04-07T08:07:20.000Z</time>
      </trkpt>
      <trkpt lat="45.58231" lon="6.63093">
        <ele>2101.3999023438</ele>
        <time>2015-04-07T08:07:26.000Z</time>
      </trkpt>
      <trkpt lat="45.58228" lon="6.6309">
        <ele>2102.1999511719</ele>
        <time>2015-04-07T08:07:29.000Z</time>
      </trkpt>
      <trkpt lat="45.58227" lon="6.63088">
        <ele>2103</ele>
        <time>2015-04-07T08:07:32.000Z</time>
      </trkpt>
      <trkpt lat="45.58226" lon="6.63087">
        <ele>2103.1999511719</ele>
        <time>2015-04-07T08:07:33.000Z</time>
      </trkpt>
      <trkpt lat="45.58223" lon="6.63082">
        <ele>2103.8000488281</ele>
        <time>2015-04-07T08:07:37.000Z</time>
      </trkpt>
      <trkpt lat="45.58219" lon="6.63076">
        <ele>2104.1999511719</ele>
        <time>2015-04-07T08:07:43.000Z</time>
      </trkpt>
      <trkpt lat="45.58216" lon="6.63071">
        <ele>2105</ele>
        <time>2015-04-07T08:07:49.000Z</time>
      </trkpt>
      <trkpt lat="45.58214" lon="6.6307">
        <ele>2105.1999511719</ele>
        <time>2015-04-07T08:07:51.000Z</time>
      </trkpt>
      <trkpt lat="45.58212" lon="6.63068">
        <ele>2105.8000488281</ele>
        <time>2015-04-07T08:07:55.000Z</time>
      </trkpt>
      <trkpt lat="45.5821" lon="6.63066">
        <ele>2106.3999023438</ele>
        <time>2015-04-07T08:07:58.000Z</time>
      </trkpt>
      <trkpt lat="45.58209" lon="6.63064">
        <ele>2106.6000976562</ele>
        <time>2015-04-07T08:08:00.000Z</time>
      </trkpt>
      <trkpt lat="45.58206" lon="6.6306">
        <ele>2107.3999023438</ele>
        <time>2015-04-07T08:08:04.000Z</time>
      </trkpt>
      <trkpt lat="45.58202" lon="6.63057">
        <ele>2108.1999511719</ele>
        <time>2015-04-07T08:08:07.000Z</time>
      </trkpt>
      <trkpt lat="45.58202" lon="6.63056">
        <ele>2108.3999023438</ele>
        <time>2015-04-07T08:08:08.000Z</time>
      </trkpt>
      <trkpt lat="45.58199" lon="6.63051">
        <ele>2109.1999511719</ele>
        <time>2015-04-07T08:08:13.000Z</time>
      </trkpt>
      <trkpt lat="45.58198" lon="6.6305">
        <ele>2109.3999023438</ele>
        <time>2015-04-07T08:08:14.000Z</time>
      </trkpt>
      <trkpt lat="45.58195" lon="6.63047">
        <ele>2110.3999023438</ele>
        <time>2015-04-07T08:08:19.000Z</time>
      </trkpt>
      <trkpt lat="45.58195" lon="6.63046">
        <ele>2110.8000488281</ele>
        <time>2015-04-07T08:08:20.000Z</time>
      </trkpt>
      <trkpt lat="45.58192" lon="6.63042">
        <ele>2111.8000488281</ele>
        <time>2015-04-07T08:08:25.000Z</time>
      </trkpt>
      <trkpt lat="45.58191" lon="6.63041">
        <ele>2112</ele>
        <time>2015-04-07T08:08:26.000Z</time>
      </trkpt>
      <trkpt lat="45.58188" lon="6.63035">
        <ele>2113</ele>
        <time>2015-04-07T08:08:31.000Z</time>
      </trkpt>
      <trkpt lat="45.58188" lon="6.63034">
        <ele>2113</ele>
        <time>2015-04-07T08:08:32.000Z</time>
      </trkpt>
      <trkpt lat="45.58184" lon="6.63028">
        <ele>2114</ele>
        <time>2015-04-07T08:08:38.000Z</time>
      </trkpt>
      <trkpt lat="45.58184" lon="6.63027">
        <ele>2114</ele>
        <time>2015-04-07T08:08:39.000Z</time>
      </trkpt>
      <trkpt lat="45.58181" lon="6.63021">
        <ele>2115</ele>
        <time>2015-04-07T08:08:44.000Z</time>
      </trkpt>
      <trkpt lat="45.58181" lon="6.6302">
        <ele>2115.1999511719</ele>
        <time>2015-04-07T08:08:45.000Z</time>
      </trkpt>
      <trkpt lat="45.58177" lon="6.63016">
        <ele>2116.1999511719</ele>
        <time>2015-04-07T08:08:50.000Z</time>
      </trkpt>
      <trkpt lat="45.58177" lon="6.63014">
        <ele>2116.3999023438</ele>
        <time>2015-04-07T08:08:51.000Z</time>
      </trkpt>
      <trkpt lat="45.58175" lon="6.63011">
        <ele>2117.1999511719</ele>
        <time>2015-04-07T08:08:55.000Z</time>
      </trkpt>
      <trkpt lat="45.58174" lon="6.63009">
        <ele>2117.6000976562</ele>
        <time>2015-04-07T08:08:57.000Z</time>
      </trkpt>
      <trkpt lat="45.58171" lon="6.63004">
        <ele>2118.3999023438</ele>
        <time>2015-04-07T08:09:03.000Z</time>
      </trkpt>
      <trkpt lat="45.58169" lon="6.62999">
        <ele>2119.3999023438</ele>
        <time>2015-04-07T08:09:09.000Z</time>
      </trkpt>
      <trkpt lat="45.58165" lon="6.62994">
        <ele>2120.3999023438</ele>
        <time>2015-04-07T08:09:14.000Z</time>
      </trkpt>
      <trkpt lat="45.58165" lon="6.62993">
        <ele>2120.6000976562</ele>
        <time>2015-04-07T08:09:15.000Z</time>
      </trkpt>
      <trkpt lat="45.58162" lon="6.62988">
        <ele>2121.6000976562</ele>
        <time>2015-04-07T08:09:19.000Z</time>
      </trkpt>
      <trkpt lat="45.58161" lon="6.62986">
        <ele>2121.8000488281</ele>
        <time>2015-04-07T08:09:21.000Z</time>
      </trkpt>
      <trkpt lat="45.58159" lon="6.62981">
        <ele>2122.8000488281</ele>
        <time>2015-04-07T08:09:27.000Z</time>
      </trkpt>
      <trkpt lat="45.58157" lon="6.62976">
        <ele>2123.8000488281</ele>
        <time>2015-04-07T08:09:32.000Z</time>
      </trkpt>
      <trkpt lat="45.58156" lon="6.62975">
        <ele>2123.8000488281</ele>
        <time>2015-04-07T08:09:33.000Z</time>
      </trkpt>
      <trkpt lat="45.58153" lon="6.6297">
        <ele>2124.8000488281</ele>
        <time>2015-04-07T08:09:38.000Z</time>
      </trkpt>
      <trkpt lat="45.58152" lon="6.62968">
        <ele>2125.1999511719</ele>
        <time>2015-04-07T08:09:40.000Z</time>
      </trkpt>
      <trkpt lat="45.5815" lon="6.62964">
        <ele>2125.8000488281</ele>
        <time>2015-04-07T08:09:45.000Z</time>
      </trkpt>
      <trkpt lat="45.58149" lon="6.62963">
        <ele>2126.3999023438</ele>
        <time>2015-04-07T08:09:47.000Z</time>
      </trkpt>
      <trkpt lat="45.58147" lon="6.62959">
        <ele>2127</ele>
        <time>2015-04-07T08:09:51.000Z</time>
      </trkpt>
      <trkpt lat="45.58147" lon="6.62958">
        <ele>2127.3999023438</ele>
        <time>2015-04-07T08:09:53.000Z</time>
      </trkpt>
      <trkpt lat="45.58146" lon="6.62955">
        <ele>2128.3999023438</ele>
        <time>2015-04-07T08:09:56.000Z</time>
      </trkpt>
      <trkpt lat="45.58144" lon="6.62951">
        <ele>2128.8000488281</ele>
        <time>2015-04-07T08:10:00.000Z</time>
      </trkpt>
      <trkpt lat="45.58143" lon="6.62947">
        <ele>2129.3999023438</ele>
        <time>2015-04-07T08:10:04.000Z</time>
      </trkpt>
      <trkpt lat="45.58142" lon="6.62944">
        <ele>2130</ele>
        <time>2015-04-07T08:10:06.000Z</time>
      </trkpt>
      <trkpt lat="45.5814" lon="6.62939">
        <ele>2130.6000976562</ele>
        <time>2015-04-07T08:10:11.000Z</time>
      </trkpt>
      <trkpt lat="45.5814" lon="6.62939">
        <ele>2130.8000488281</ele>
        <time>2015-04-07T08:10:12.000Z</time>
      </trkpt>
      <trkpt lat="45.58138" lon="6.62932">
        <ele>2131.6000976562</ele>
        <time>2015-04-07T08:10:18.000Z</time>
      </trkpt>
      <trkpt lat="45.58138" lon="6.6293">
        <ele>2131.8000488281</ele>
        <time>2015-04-07T08:10:19.000Z</time>
      </trkpt>
      <trkpt lat="45.58137" lon="6.62927">
        <ele>2133</ele>
        <time>2015-04-07T08:10:23.000Z</time>
      </trkpt>
      <trkpt lat="45.58136" lon="6.62925">
        <ele>2133.1999511719</ele>
        <time>2015-04-07T08:10:24.000Z</time>
      </trkpt>
      <trkpt lat="45.58135" lon="6.62918">
        <ele>2133.6000976562</ele>
        <time>2015-04-07T08:10:29.000Z</time>
      </trkpt>
      <trkpt lat="45.58135" lon="6.62914">
        <ele>2134</ele>
        <time>2015-04-07T08:10:32.000Z</time>
      </trkpt>
      <trkpt lat="45.58135" lon="6.6291">
        <ele>2134.1999511719</ele>
        <time>2015-04-07T08:10:35.000Z</time>
      </trkpt>
      <trkpt lat="45.58135" lon="6.62909">
        <ele>2134.3999023438</ele>
        <time>2015-04-07T08:10:36.000Z</time>
      </trkpt>
      <trkpt lat="45.58135" lon="6.62904">
        <ele>2135</ele>
        <time>2015-04-07T08:10:40.000Z</time>
      </trkpt>
      <trkpt lat="45.58135" lon="6.62897">
        <ele>2136</ele>
        <time>2015-04-07T08:10:46.000Z</time>
      </trkpt>
      <trkpt lat="45.58135" lon="6.62896">
        <ele>2136.1999511719</ele>
        <time>2015-04-07T08:10:48.000Z</time>
      </trkpt>
      <trkpt lat="45.58136" lon="6.62892">
        <ele>2137</ele>
        <time>2015-04-07T08:10:51.000Z</time>
      </trkpt>
      <trkpt lat="45.58136" lon="6.6289">
        <ele>2137.3999023438</ele>
        <time>2015-04-07T08:10:53.000Z</time>
      </trkpt>
      <trkpt lat="45.58136" lon="6.62887">
        <ele>2137.6000976562</ele>
        <time>2015-04-07T08:10:55.000Z</time>
      </trkpt>
      <trkpt lat="45.58135" lon="6.62879">
        <ele>2138.1999511719</ele>
        <time>2015-04-07T08:11:01.000Z</time>
      </trkpt>
      <trkpt lat="45.58135" lon="6.62878">
        <ele>2138.3999023438</ele>
        <time>2015-04-07T08:11:02.000Z</time>
      </trkpt>
      <trkpt lat="45.58136" lon="6.62872">
        <ele>2138.6000976562</ele>
        <time>2015-04-07T08:11:06.000Z</time>
      </trkpt>
      <trkpt lat="45.58136" lon="6.62864">
        <ele>2139.1999511719</ele>
        <time>2015-04-07T08:11:12.000Z</time>
      </trkpt>
      <trkpt lat="45.58136" lon="6.62863">
        <ele>2139.3999023438</ele>
        <time>2015-04-07T08:11:13.000Z</time>
      </trkpt>
      <trkpt lat="45.58137" lon="6.62858">
        <ele>2139.8000488281</ele>
        <time>2015-04-07T08:11:17.000Z</time>
      </trkpt>
      <trkpt lat="45.58138" lon="6.62849">
        <ele>2140.1999511719</ele>
        <time>2015-04-07T08:11:23.000Z</time>
      </trkpt>
      <trkpt lat="45.58137" lon="6.6284">
        <ele>2140.1999511719</ele>
        <time>2015-04-07T08:11:29.000Z</time>
      </trkpt>
      <trkpt lat="45.58136" lon="6.62834">
        <ele>2140</ele>
        <time>2015-04-07T08:11:34.000Z</time>
      </trkpt>
      <trkpt lat="45.58135" lon="6.62829">
        <ele>2140.3999023438</ele>
        <time>2015-04-07T08:11:40.000Z</time>
      </trkpt>
      <trkpt lat="45.58135" lon="6.62823">
        <ele>2140.8000488281</ele>
        <time>2015-04-07T08:11:45.000Z</time>
      </trkpt>
      <trkpt lat="45.58133" lon="6.62813">
        <ele>2140.3999023438</ele>
        <time>2015-04-07T08:11:52.000Z</time>
      </trkpt>
      <trkpt lat="45.58134" lon="6.62805">
        <ele>2140.3999023438</ele>
        <time>2015-04-07T08:11:57.000Z</time>
      </trkpt>
      <trkpt lat="45.58134" lon="6.62799">
        <ele>2140.1999511719</ele>
        <time>2015-04-07T08:12:03.000Z</time>
      </trkpt>
      <trkpt lat="45.58134" lon="6.62791">
        <ele>2140.8000488281</ele>
        <time>2015-04-07T08:12:08.000Z</time>
      </trkpt>
      <trkpt lat="45.58133" lon="6.62784">
        <ele>2141.3999023438</ele>
        <time>2015-04-07T08:12:14.000Z</time>
      </trkpt>
      <trkpt lat="45.58133" lon="6.62782">
        <ele>2141.6000976562</ele>
        <time>2015-04-07T08:12:15.000Z</time>
      </trkpt>
      <trkpt lat="45.58134" lon="6.62778">
        <ele>2142.1999511719</ele>
        <time>2015-04-07T08:12:19.000Z</time>
      </trkpt>
      <trkpt lat="45.58135" lon="6.62776">
        <ele>2142.6000976562</ele>
        <time>2015-04-07T08:12:21.000Z</time>
      </trkpt>
      <trkpt lat="45.58135" lon="6.6277">
        <ele>2142.8000488281</ele>
        <time>2015-04-07T08:12:24.000Z</time>
      </trkpt>
      <trkpt lat="45.58135" lon="6.62762">
        <ele>2143</ele>
        <time>2015-04-07T08:12:29.000Z</time>
      </trkpt>
      <trkpt lat="45.58136" lon="6.62756">
        <ele>2143.3999023438</ele>
        <time>2015-04-07T08:12:34.000Z</time>
      </trkpt>
      <trkpt lat="45.58136" lon="6.62752">
        <ele>2143.6000976562</ele>
        <time>2015-04-07T08:12:37.000Z</time>
      </trkpt>
      <trkpt lat="45.58137" lon="6.62748">
        <ele>2143.8000488281</ele>
        <time>2015-04-07T08:12:40.000Z</time>
      </trkpt>
      <trkpt lat="45.58138" lon="6.62741">
        <ele>2144.1999511719</ele>
        <time>2015-04-07T08:12:45.000Z</time>
      </trkpt>
      <trkpt lat="45.58138" lon="6.62739">
        <ele>2144.1999511719</ele>
        <time>2015-04-07T08:12:46.000Z</time>
      </trkpt>
      <trkpt lat="45.5814" lon="6.62735">
        <ele>2144.3999023438</ele>
        <time>2015-04-07T08:12:49.000Z</time>
      </trkpt>
      <trkpt lat="45.58142" lon="6.62728">
        <ele>2144.6000976562</ele>
        <time>2015-04-07T08:12:54.000Z</time>
      </trkpt>
      <trkpt lat="45.58142" lon="6.62724">
        <ele>2144.8000488281</ele>
        <time>2015-04-07T08:12:56.000Z</time>
      </trkpt>
      <trkpt lat="45.58142" lon="6.62717">
        <ele>2145.1999511719</ele>
        <time>2015-04-07T08:13:00.000Z</time>
      </trkpt>
      <trkpt lat="45.58142" lon="6.62714">
        <ele>2145.8000488281</ele>
        <time>2015-04-07T08:13:04.000Z</time>
      </trkpt>
      <trkpt lat="45.58142" lon="6.62714">
        <ele>2146</ele>
        <time>2015-04-07T08:13:05.000Z</time>
      </trkpt>
      <trkpt lat="45.58143" lon="6.62707">
        <ele>2146.8000488281</ele>
        <time>2015-04-07T08:13:10.000Z</time>
      </trkpt>
      <trkpt lat="45.58143" lon="6.62698">
        <ele>2147.3999023438</ele>
        <time>2015-04-07T08:13:17.000Z</time>
      </trkpt>
      <trkpt lat="45.58145" lon="6.6269">
        <ele>2147.8000488281</ele>
        <time>2015-04-07T08:13:24.000Z</time>
      </trkpt>
      <trkpt lat="45.58145" lon="6.62689">
        <ele>2147.8000488281</ele>
        <time>2015-04-07T08:13:25.000Z</time>
      </trkpt>
      <trkpt lat="45.58145" lon="6.62682">
        <ele>2148</ele>
        <time>2015-04-07T08:13:30.000Z</time>
      </trkpt>
      <trkpt lat="45.58145" lon="6.62673">
        <ele>2147.6000976562</ele>
        <time>2015-04-07T08:13:36.000Z</time>
      </trkpt>
      <trkpt lat="45.58145" lon="6.62668">
        <ele>2148</ele>
        <time>2015-04-07T08:13:41.000Z</time>
      </trkpt>
      <trkpt lat="45.58147" lon="6.62661">
        <ele>2148.3999023438</ele>
        <time>2015-04-07T08:13:47.000Z</time>
      </trkpt>
      <trkpt lat="45.58147" lon="6.62654">
        <ele>2148.3999023438</ele>
        <time>2015-04-07T08:13:53.000Z</time>
      </trkpt>
      <trkpt lat="45.5815" lon="6.62647">
        <ele>2148.8000488281</ele>
        <time>2015-04-07T08:13:59.000Z</time>
      </trkpt>
      <trkpt lat="45.5815" lon="6.62645">
        <ele>2149</ele>
        <time>2015-04-07T08:14:00.000Z</time>
      </trkpt>
      <trkpt lat="45.58152" lon="6.6264">
        <ele>2149.1999511719</ele>
        <time>2015-04-07T08:14:04.000Z</time>
      </trkpt>
      <trkpt lat="45.58154" lon="6.62632">
        <ele>2149.3999023438</ele>
        <time>2015-04-07T08:14:11.000Z</time>
      </trkpt>
      <trkpt lat="45.58155" lon="6.62624">
        <ele>2150.1999511719</ele>
        <time>2015-04-07T08:14:16.000Z</time>
      </trkpt>
      <trkpt lat="45.58157" lon="6.62617">
        <ele>2150.8000488281</ele>
        <time>2015-04-07T08:14:22.000Z</time>
      </trkpt>
      <trkpt lat="45.58157" lon="6.62614">
        <ele>2151.1999511719</ele>
        <time>2015-04-07T08:14:26.000Z</time>
      </trkpt>
      <trkpt lat="45.58157" lon="6.62612">
        <ele>2151.3999023438</ele>
        <time>2015-04-07T08:14:28.000Z</time>
      </trkpt>
      <trkpt lat="45.58159" lon="6.62606">
        <ele>2152</ele>
        <time>2015-04-07T08:14:32.000Z</time>
      </trkpt>
      <trkpt lat="45.5816" lon="6.62603">
        <ele>2152.1999511719</ele>
        <time>2015-04-07T08:14:35.000Z</time>
      </trkpt>
      <trkpt lat="45.58161" lon="6.626">
        <ele>2152.3999023438</ele>
        <time>2015-04-07T08:14:38.000Z</time>
      </trkpt>
      <trkpt lat="45.58161" lon="6.62594">
        <ele>2153.1999511719</ele>
        <time>2015-04-07T08:14:43.000Z</time>
      </trkpt>
      <trkpt lat="45.58161" lon="6.62592">
        <ele>2153.3999023438</ele>
        <time>2015-04-07T08:14:44.000Z</time>
      </trkpt>
      <trkpt lat="45.58162" lon="6.62586">
        <ele>2154.1999511719</ele>
        <time>2015-04-07T08:14:49.000Z</time>
      </trkpt>
      <trkpt lat="45.58163" lon="6.62585">
        <ele>2154.6000976562</ele>
        <time>2015-04-07T08:14:51.000Z</time>
      </trkpt>
      <trkpt lat="45.58163" lon="6.6258">
        <ele>2155.1999511719</ele>
        <time>2015-04-07T08:14:55.000Z</time>
      </trkpt>
      <trkpt lat="45.58164" lon="6.62575">
        <ele>2155.6000976562</ele>
        <time>2015-04-07T08:14:59.000Z</time>
      </trkpt>
      <trkpt lat="45.58164" lon="6.62574">
        <ele>2156</ele>
        <time>2015-04-07T08:15:00.000Z</time>
      </trkpt>
      <trkpt lat="45.58165" lon="6.6257">
        <ele>2156.6000976562</ele>
        <time>2015-04-07T08:15:05.000Z</time>
      </trkpt>
      <trkpt lat="45.58165" lon="6.62568">
        <ele>2156.6000976562</ele>
        <time>2015-04-07T08:15:06.000Z</time>
      </trkpt>
      <trkpt lat="45.58166" lon="6.62562">
        <ele>2157.8000488281</ele>
        <time>2015-04-07T08:15:11.000Z</time>
      </trkpt>
      <trkpt lat="45.58166" lon="6.62558">
        <ele>2158.6000976562</ele>
        <time>2015-04-07T08:15:17.000Z</time>
      </trkpt>
      <trkpt lat="45.58166" lon="6.62557">
        <ele>2158.8000488281</ele>
        <time>2015-04-07T08:15:18.000Z</time>
      </trkpt>
      <trkpt lat="45.58167" lon="6.62553">
        <ele>2159.3999023438</ele>
        <time>2015-04-07T08:15:23.000Z</time>
      </trkpt>
      <trkpt lat="45.58168" lon="6.6255">
        <ele>2159.8000488281</ele>
        <time>2015-04-07T08:15:27.000Z</time>
      </trkpt>
      <trkpt lat="45.58169" lon="6.62547">
        <ele>2160.1999511719</ele>
        <time>2015-04-07T08:15:29.000Z</time>
      </trkpt>
      <trkpt lat="45.58173" lon="6.62542">
        <ele>2160.6000976562</ele>
        <time>2015-04-07T08:15:35.000Z</time>
      </trkpt>
      <trkpt lat="45.58175" lon="6.6254">
        <ele>2161</ele>
        <time>2015-04-07T08:15:38.000Z</time>
      </trkpt>
      <trkpt lat="45.58176" lon="6.62536">
        <ele>2161.3999023438</ele>
        <time>2015-04-07T08:15:41.000Z</time>
      </trkpt>
      <trkpt lat="45.58178" lon="6.6253">
        <ele>2161.8000488281</ele>
        <time>2015-04-07T08:15:47.000Z</time>
      </trkpt>
      <trkpt lat="45.58178" lon="6.62529">
        <ele>2162</ele>
        <time>2015-04-07T08:15:48.000Z</time>
      </trkpt>
      <trkpt lat="45.58179" lon="6.62525">
        <ele>2162.1999511719</ele>
        <time>2015-04-07T08:15:52.000Z</time>
      </trkpt>
      <trkpt lat="45.5818" lon="6.62519">
        <ele>2163</ele>
        <time>2015-04-07T08:15:57.000Z</time>
      </trkpt>
      <trkpt lat="45.5818" lon="6.62513">
        <ele>2164</ele>
        <time>2015-04-07T08:16:03.000Z</time>
      </trkpt>
      <trkpt lat="45.5818" lon="6.62513">
        <ele>2164.1999511719</ele>
        <time>2015-04-07T08:16:04.000Z</time>
      </trkpt>
      <trkpt lat="45.58181" lon="6.62508">
        <ele>2165</ele>
        <time>2015-04-07T08:16:08.000Z</time>
      </trkpt>
      <trkpt lat="45.58181" lon="6.62506">
        <ele>2165.1999511719</ele>
        <time>2015-04-07T08:16:10.000Z</time>
      </trkpt>
      <trkpt lat="45.58183" lon="6.62499">
        <ele>2165.8000488281</ele>
        <time>2015-04-07T08:16:14.000Z</time>
      </trkpt>
      <trkpt lat="45.58183" lon="6.62497">
        <ele>2166.1999511719</ele>
        <time>2015-04-07T08:16:16.000Z</time>
      </trkpt>
      <trkpt lat="45.58183" lon="6.62494">
        <ele>2166.8000488281</ele>
        <time>2015-04-07T08:16:20.000Z</time>
      </trkpt>
      <trkpt lat="45.58183" lon="6.62492">
        <ele>2167.3999023438</ele>
        <time>2015-04-07T08:16:22.000Z</time>
      </trkpt>
      <trkpt lat="45.58183" lon="6.62487">
        <ele>2167.8000488281</ele>
        <time>2015-04-07T08:16:26.000Z</time>
      </trkpt>
      <trkpt lat="45.58183" lon="6.62483">
        <ele>2168.3999023438</ele>
        <time>2015-04-07T08:16:30.000Z</time>
      </trkpt>
      <trkpt lat="45.58184" lon="6.62481">
        <ele>2168.6000976562</ele>
        <time>2015-04-07T08:16:32.000Z</time>
      </trkpt>
      <trkpt lat="45.58184" lon="6.62475">
        <ele>2169.3999023438</ele>
        <time>2015-04-07T08:16:37.000Z</time>
      </trkpt>
      <trkpt lat="45.58184" lon="6.62474">
        <ele>2169.6000976562</ele>
        <time>2015-04-07T08:16:38.000Z</time>
      </trkpt>
      <trkpt lat="45.58185" lon="6.62469">
        <ele>2170.6000976562</ele>
        <time>2015-04-07T08:16:43.000Z</time>
      </trkpt>
      <trkpt lat="45.58186" lon="6.62462">
        <ele>2171.1999511719</ele>
        <time>2015-04-07T08:16:48.000Z</time>
      </trkpt>
      <trkpt lat="45.58186" lon="6.6246">
        <ele>2171.6000976562</ele>
        <time>2015-04-07T08:16:50.000Z</time>
      </trkpt>
      <trkpt lat="45.58185" lon="6.62456">
        <ele>2171.8000488281</ele>
        <time>2015-04-07T08:16:53.000Z</time>
      </trkpt>
      <trkpt lat="45.58185" lon="6.62452">
        <ele>2172.3999023438</ele>
        <time>2015-04-07T08:16:58.000Z</time>
      </trkpt>
      <trkpt lat="45.58185" lon="6.62449">
        <ele>2172.6000976562</ele>
        <time>2015-04-07T08:17:00.000Z</time>
      </trkpt>
      <trkpt lat="45.58185" lon="6.62448">
        <ele>2173</ele>
        <time>2015-04-07T08:17:02.000Z</time>
      </trkpt>
      <trkpt lat="45.58184" lon="6.62443">
        <ele>2173.8000488281</ele>
        <time>2015-04-07T08:17:06.000Z</time>
      </trkpt>
      <trkpt lat="45.58184" lon="6.6244">
        <ele>2174.3999023438</ele>
        <time>2015-04-07T08:17:09.000Z</time>
      </trkpt>
      <trkpt lat="45.58184" lon="6.62437">
        <ele>2174.8000488281</ele>
        <time>2015-04-07T08:17:11.000Z</time>
      </trkpt>
      <trkpt lat="45.58185" lon="6.62433">
        <ele>2175.3999023438</ele>
        <time>2015-04-07T08:17:14.000Z</time>
      </trkpt>
      <trkpt lat="45.58184" lon="6.62429">
        <ele>2175.8000488281</ele>
        <time>2015-04-07T08:17:17.000Z</time>
      </trkpt>
      <trkpt lat="45.58185" lon="6.62427">
        <ele>2176.3999023438</ele>
        <time>2015-04-07T08:17:19.000Z</time>
      </trkpt>
      <trkpt lat="45.58185" lon="6.62422">
        <ele>2177</ele>
        <time>2015-04-07T08:17:23.000Z</time>
      </trkpt>
      <trkpt lat="45.58185" lon="6.6242">
        <ele>2177.1999511719</ele>
        <time>2015-04-07T08:17:24.000Z</time>
      </trkpt>
      <trkpt lat="45.58185" lon="6.62413">
        <ele>2178</ele>
        <time>2015-04-07T08:17:30.000Z</time>
      </trkpt>
      <trkpt lat="45.58185" lon="6.62412">
        <ele>2178.1999511719</ele>
        <time>2015-04-07T08:17:31.000Z</time>
      </trkpt>
      <trkpt lat="45.58182" lon="6.62409">
        <ele>2179</ele>
        <time>2015-04-07T08:17:36.000Z</time>
      </trkpt>
      <trkpt lat="45.58183" lon="6.62407">
        <ele>2179.1999511719</ele>
        <time>2015-04-07T08:17:37.000Z</time>
      </trkpt>
      <trkpt lat="45.58183" lon="6.62406">
        <ele>2179.8000488281</ele>
        <time>2015-04-07T08:17:41.000Z</time>
      </trkpt>
      <trkpt lat="45.58183" lon="6.62406">
        <ele>2180.1999511719</ele>
        <time>2015-04-07T08:17:56.000Z</time>
      </trkpt>
      <trkpt lat="45.58183" lon="6.62406">
        <ele>2180.1999511719</ele>
        <time>2015-04-07T08:18:10.000Z</time>
      </trkpt>
      <trkpt lat="45.58183" lon="6.62406">
        <ele>2180.1999511719</ele>
        <time>2015-04-07T08:18:11.000Z</time>
      </trkpt>
      <trkpt lat="45.58183" lon="6.62405">
        <ele>2180.1999511719</ele>
        <time>2015-04-07T08:18:22.000Z</time>
      </trkpt>
      <trkpt lat="45.58183" lon="6.62405">
        <ele>2180.1999511719</ele>
        <time>2015-04-07T08:18:38.000Z</time>
      </trkpt>
      <trkpt lat="45.58183" lon="6.62405">
        <ele>2180</ele>
        <time>2015-04-07T08:18:51.000Z</time>
      </trkpt>
      <trkpt lat="45.58183" lon="6.62405">
        <ele>2180.1999511719</ele>
        <time>2015-04-07T08:19:09.000Z</time>
      </trkpt>
      <trkpt lat="45.58187" lon="6.62401">
        <ele>2180.6000976562</ele>
        <time>2015-04-07T08:19:14.000Z</time>
      </trkpt>
      <trkpt lat="45.5819" lon="6.62398">
        <ele>2181.1999511719</ele>
        <time>2015-04-07T08:19:18.000Z</time>
      </trkpt>
      <trkpt lat="45.58191" lon="6.62396">
        <ele>2181.1999511719</ele>
        <time>2015-04-07T08:19:19.000Z</time>
      </trkpt>
      <trkpt lat="45.58193" lon="6.62393">
        <ele>2181.3999023438</ele>
        <time>2015-04-07T08:19:23.000Z</time>
      </trkpt>
      <trkpt lat="45.58196" lon="6.62391">
        <ele>2181.8000488281</ele>
        <time>2015-04-07T08:19:28.000Z</time>
      </trkpt>
      <trkpt lat="45.58197" lon="6.62391">
        <ele>2182.1999511719</ele>
        <time>2015-04-07T08:19:31.000Z</time>
      </trkpt>
      <trkpt lat="45.58197" lon="6.6239">
        <ele>2182.3999023438</ele>
        <time>2015-04-07T08:19:33.000Z</time>
      </trkpt>
      <trkpt lat="45.582" lon="6.62385">
        <ele>2183</ele>
        <time>2015-04-07T08:19:38.000Z</time>
      </trkpt>
      <trkpt lat="45.58202" lon="6.62382">
        <ele>2183.3999023438</ele>
        <time>2015-04-07T08:19:40.000Z</time>
      </trkpt>
      <trkpt lat="45.58205" lon="6.62379">
        <ele>2183.8000488281</ele>
        <time>2015-04-07T08:19:43.000Z</time>
      </trkpt>
      <trkpt lat="45.58211" lon="6.62371">
        <ele>2184.3999023438</ele>
        <time>2015-04-07T08:19:50.000Z</time>
      </trkpt>
      <trkpt lat="45.58211" lon="6.6237">
        <ele>2184.6000976562</ele>
        <time>2015-04-07T08:19:51.000Z</time>
      </trkpt>
      <trkpt lat="45.58215" lon="6.62365">
        <ele>2185.6000976562</ele>
        <time>2015-04-07T08:19:57.000Z</time>
      </trkpt>
      <trkpt lat="45.58218" lon="6.62358">
        <ele>2186.6000976562</ele>
        <time>2015-04-07T08:20:03.000Z</time>
      </trkpt>
      <trkpt lat="45.5822" lon="6.62352">
        <ele>2187.1999511719</ele>
        <time>2015-04-07T08:20:08.000Z</time>
      </trkpt>
      <trkpt lat="45.58223" lon="6.62348">
        <ele>2187.8000488281</ele>
        <time>2015-04-07T08:20:14.000Z</time>
      </trkpt>
      <trkpt lat="45.58226" lon="6.62344">
        <ele>2188.3999023438</ele>
        <time>2015-04-07T08:20:18.000Z</time>
      </trkpt>
      <trkpt lat="45.58228" lon="6.6234">
        <ele>2188.8000488281</ele>
        <time>2015-04-07T08:20:22.000Z</time>
      </trkpt>
      <trkpt lat="45.58231" lon="6.62334">
        <ele>2189.1999511719</ele>
        <time>2015-04-07T08:20:26.000Z</time>
      </trkpt>
      <trkpt lat="45.58234" lon="6.62328">
        <ele>2190</ele>
        <time>2015-04-07T08:20:31.000Z</time>
      </trkpt>
      <trkpt lat="45.58236" lon="6.62325">
        <ele>2190.3999023438</ele>
        <time>2015-04-07T08:20:33.000Z</time>
      </trkpt>
      <trkpt lat="45.5824" lon="6.6232">
        <ele>2191</ele>
        <time>2015-04-07T08:20:37.000Z</time>
      </trkpt>
      <trkpt lat="45.58243" lon="6.62315">
        <ele>2192</ele>
        <time>2015-04-07T08:20:42.000Z</time>
      </trkpt>
      <trkpt lat="45.58243" lon="6.62311">
        <ele>2193.1999511719</ele>
        <time>2015-04-07T08:20:47.000Z</time>
      </trkpt>
      <trkpt lat="45.58244" lon="6.62309">
        <ele>2193.6000976562</ele>
        <time>2015-04-07T08:20:49.000Z</time>
      </trkpt>
      <trkpt lat="45.58245" lon="6.62306">
        <ele>2194.6000976562</ele>
        <time>2015-04-07T08:20:54.000Z</time>
      </trkpt>
      <trkpt lat="45.58246" lon="6.62304">
        <ele>2194.8000488281</ele>
        <time>2015-04-07T08:20:55.000Z</time>
      </trkpt>
      <trkpt lat="45.58247" lon="6.623">
        <ele>2195.6000976562</ele>
        <time>2015-04-07T08:20:58.000Z</time>
      </trkpt>
      <trkpt lat="45.58248" lon="6.62297">
        <ele>2196.6000976562</ele>
        <time>2015-04-07T08:21:03.000Z</time>
      </trkpt>
      <trkpt lat="45.58248" lon="6.62297">
        <ele>2196.8000488281</ele>
        <time>2015-04-07T08:21:04.000Z</time>
      </trkpt>
      <trkpt lat="45.58248" lon="6.62297">
        <ele>2198</ele>
        <time>2015-04-07T08:21:08.000Z</time>
      </trkpt>
      <trkpt lat="45.58249" lon="6.62295">
        <ele>2198.6000976562</ele>
        <time>2015-04-07T08:21:12.000Z</time>
      </trkpt>
      <trkpt lat="45.58251" lon="6.6229">
        <ele>2199.1999511719</ele>
        <time>2015-04-07T08:21:16.000Z</time>
      </trkpt>
      <trkpt lat="45.58252" lon="6.62289">
        <ele>2199.1999511719</ele>
        <time>2015-04-07T08:21:17.000Z</time>
      </trkpt>
      <trkpt lat="45.58254" lon="6.62284">
        <ele>2200.1999511719</ele>
        <time>2015-04-07T08:21:21.000Z</time>
      </trkpt>
      <trkpt lat="45.58255" lon="6.62282">
        <ele>2200.6000976562</ele>
        <time>2015-04-07T08:21:23.000Z</time>
      </trkpt>
      <trkpt lat="45.58257" lon="6.62278">
        <ele>2201</ele>
        <time>2015-04-07T08:21:28.000Z</time>
      </trkpt>
      <trkpt lat="45.58258" lon="6.62277">
        <ele>2201.1999511719</ele>
        <time>2015-04-07T08:21:29.000Z</time>
      </trkpt>
      <trkpt lat="45.58259" lon="6.62274">
        <ele>2202.1999511719</ele>
        <time>2015-04-07T08:21:33.000Z</time>
      </trkpt>
      <trkpt lat="45.5826" lon="6.62273">
        <ele>2202.6000976562</ele>
        <time>2015-04-07T08:21:34.000Z</time>
      </trkpt>
      <trkpt lat="45.58261" lon="6.6227">
        <ele>2203.3999023438</ele>
        <time>2015-04-07T08:21:38.000Z</time>
      </trkpt>
      <trkpt lat="45.58261" lon="6.62268">
        <ele>2204</ele>
        <time>2015-04-07T08:21:41.000Z</time>
      </trkpt>
      <trkpt lat="45.58261" lon="6.62267">
        <ele>2204.1999511719</ele>
        <time>2015-04-07T08:21:42.000Z</time>
      </trkpt>
      <trkpt lat="45.58263" lon="6.62265">
        <ele>2205.1999511719</ele>
        <time>2015-04-07T08:21:46.000Z</time>
      </trkpt>
      <trkpt lat="45.58264" lon="6.62262">
        <ele>2205.3999023438</ele>
        <time>2015-04-07T08:21:47.000Z</time>
      </trkpt>
      <trkpt lat="45.58267" lon="6.62256">
        <ele>2206.1999511719</ele>
        <time>2015-04-07T08:21:53.000Z</time>
      </trkpt>
      <trkpt lat="45.58266" lon="6.62255">
        <ele>2207.3999023438</ele>
        <time>2015-04-07T08:21:59.000Z</time>
      </trkpt>
      <trkpt lat="45.58267" lon="6.62251">
        <ele>2207.8000488281</ele>
        <time>2015-04-07T08:22:01.000Z</time>
      </trkpt>
      <trkpt lat="45.58268" lon="6.62248">
        <ele>2208.3999023438</ele>
        <time>2015-04-07T08:22:04.000Z</time>
      </trkpt>
      <trkpt lat="45.58268" lon="6.62246">
        <ele>2208.6000976562</ele>
        <time>2015-04-07T08:22:05.000Z</time>
      </trkpt>
      <trkpt lat="45.58268" lon="6.62241">
        <ele>2209.3999023438</ele>
        <time>2015-04-07T08:22:10.000Z</time>
      </trkpt>
      <trkpt lat="45.58269" lon="6.62236">
        <ele>2210.6000976562</ele>
        <time>2015-04-07T08:22:16.000Z</time>
      </trkpt>
      <trkpt lat="45.58269" lon="6.62235">
        <ele>2211.6000976562</ele>
        <time>2015-04-07T08:22:20.000Z</time>
      </trkpt>
      <trkpt lat="45.5827" lon="6.62234">
        <ele>2211.8000488281</ele>
        <time>2015-04-07T08:22:21.000Z</time>
      </trkpt>
      <trkpt lat="45.5827" lon="6.62232">
        <ele>2212.8000488281</ele>
        <time>2015-04-07T08:22:25.000Z</time>
      </trkpt>
      <trkpt lat="45.5827" lon="6.62232">
        <ele>2213</ele>
        <time>2015-04-07T08:22:26.000Z</time>
      </trkpt>
      <trkpt lat="45.58271" lon="6.62232">
        <ele>2214.1999511719</ele>
        <time>2015-04-07T08:22:31.000Z</time>
      </trkpt>
      <trkpt lat="45.58271" lon="6.62232">
        <ele>2214.8000488281</ele>
        <time>2015-04-07T08:22:33.000Z</time>
      </trkpt>
      <trkpt lat="45.58271" lon="6.62232">
        <ele>2215.1999511719</ele>
        <time>2015-04-07T08:22:36.000Z</time>
      </trkpt>
      <trkpt lat="45.5827" lon="6.62231">
        <ele>2215.6000976562</ele>
        <time>2015-04-07T08:22:39.000Z</time>
      </trkpt>
      <trkpt lat="45.5827" lon="6.62231">
        <ele>2214.1999511719</ele>
        <time>2015-04-07T08:22:46.000Z</time>
      </trkpt>
      <trkpt lat="45.5827" lon="6.62231">
        <ele>2214.1999511719</ele>
        <time>2015-04-07T08:22:48.000Z</time>
      </trkpt>
      <trkpt lat="45.5827" lon="6.62231">
        <ele>2214.8000488281</ele>
        <time>2015-04-07T08:23:00.000Z</time>
      </trkpt>
      <trkpt lat="45.58269" lon="6.62231">
        <ele>2214.3999023438</ele>
        <time>2015-04-07T08:23:12.000Z</time>
      </trkpt>
      <trkpt lat="45.58275" lon="6.62231">
        <ele>2215.3999023438</ele>
        <time>2015-04-07T08:23:20.000Z</time>
      </trkpt>
      <trkpt lat="45.58277" lon="6.62231">
        <ele>2215.8000488281</ele>
        <time>2015-04-07T08:23:21.000Z</time>
      </trkpt>
      <trkpt lat="45.58281" lon="6.6223">
        <ele>2216.6000976562</ele>
        <time>2015-04-07T08:23:24.000Z</time>
      </trkpt>
      <trkpt lat="45.58285" lon="6.62231">
        <ele>2217.8000488281</ele>
        <time>2015-04-07T08:23:28.000Z</time>
      </trkpt>
      <trkpt lat="45.58285" lon="6.62231">
        <ele>2218.1999511719</ele>
        <time>2015-04-07T08:23:30.000Z</time>
      </trkpt>
      <trkpt lat="45.58287" lon="6.62232">
        <ele>2218.8000488281</ele>
        <time>2015-04-07T08:23:37.000Z</time>
      </trkpt>
      <trkpt lat="45.58288" lon="6.62232">
        <ele>2219.3999023438</ele>
        <time>2015-04-07T08:23:39.000Z</time>
      </trkpt>
      <trkpt lat="45.58288" lon="6.62233">
        <ele>2220</ele>
        <time>2015-04-07T08:23:41.000Z</time>
      </trkpt>
      <trkpt lat="45.58292" lon="6.62235">
        <ele>2221</ele>
        <time>2015-04-07T08:23:47.000Z</time>
      </trkpt>
      <trkpt lat="45.58294" lon="6.62235">
        <ele>2222.1999511719</ele>
        <time>2015-04-07T08:23:53.000Z</time>
      </trkpt>
      <trkpt lat="45.58296" lon="6.62235">
        <ele>2222.6000976562</ele>
        <time>2015-04-07T08:23:55.000Z</time>
      </trkpt>
      <trkpt lat="45.58296" lon="6.62234">
        <ele>2223.3999023438</ele>
        <time>2015-04-07T08:23:58.000Z</time>
      </trkpt>
      <trkpt lat="45.58297" lon="6.62233">
        <ele>2224</ele>
        <time>2015-04-07T08:24:01.000Z</time>
      </trkpt>
      <trkpt lat="45.583" lon="6.62231">
        <ele>2224.3999023438</ele>
        <time>2015-04-07T08:24:04.000Z</time>
      </trkpt>
      <trkpt lat="45.58301" lon="6.62229">
        <ele>2224.8000488281</ele>
        <time>2015-04-07T08:24:06.000Z</time>
      </trkpt>
      <trkpt lat="45.58302" lon="6.62227">
        <ele>2225.3999023438</ele>
        <time>2015-04-07T08:24:10.000Z</time>
      </trkpt>
      <trkpt lat="45.58303" lon="6.62225">
        <ele>2225.8000488281</ele>
        <time>2015-04-07T08:24:12.000Z</time>
      </trkpt>
      <trkpt lat="45.58304" lon="6.62221">
        <ele>2226.6000976562</ele>
        <time>2015-04-07T08:24:17.000Z</time>
      </trkpt>
      <trkpt lat="45.58305" lon="6.62219">
        <ele>2227.8000488281</ele>
        <time>2015-04-07T08:24:22.000Z</time>
      </trkpt>
      <trkpt lat="45.58306" lon="6.6222">
        <ele>2228</ele>
        <time>2015-04-07T08:24:23.000Z</time>
      </trkpt>
      <trkpt lat="45.58309" lon="6.62222">
        <ele>2229.1999511719</ele>
        <time>2015-04-07T08:24:28.000Z</time>
      </trkpt>
      <trkpt lat="45.58309" lon="6.62222">
        <ele>2229.1999511719</ele>
        <time>2015-04-07T08:24:29.000Z</time>
      </trkpt>
      <trkpt lat="45.58309" lon="6.62225">
        <ele>2230.3999023438</ele>
        <time>2015-04-07T08:24:34.000Z</time>
      </trkpt>
      <trkpt lat="45.58309" lon="6.62227">
        <ele>2230.6000976562</ele>
        <time>2015-04-07T08:24:35.000Z</time>
      </trkpt>
      <trkpt lat="45.58309" lon="6.62231">
        <ele>2231.6000976562</ele>
        <time>2015-04-07T08:24:40.000Z</time>
      </trkpt>
      <trkpt lat="45.5831" lon="6.62234">
        <ele>2231.6000976562</ele>
        <time>2015-04-07T08:24:43.000Z</time>
      </trkpt>
      <trkpt lat="45.58312" lon="6.62232">
        <ele>2232.6000976562</ele>
        <time>2015-04-07T08:24:47.000Z</time>
      </trkpt>
      <trkpt lat="45.58313" lon="6.62231">
        <ele>2233.3999023438</ele>
        <time>2015-04-07T08:24:49.000Z</time>
      </trkpt>
      <trkpt lat="45.58314" lon="6.62229">
        <ele>2233.8000488281</ele>
        <time>2015-04-07T08:24:50.000Z</time>
      </trkpt>
      <trkpt lat="45.58316" lon="6.62226">
        <ele>2234.6000976562</ele>
        <time>2015-04-07T08:24:54.000Z</time>
      </trkpt>
      <trkpt lat="45.58316" lon="6.62226">
        <ele>2234.8000488281</ele>
        <time>2015-04-07T08:24:55.000Z</time>
      </trkpt>
      <trkpt lat="45.58317" lon="6.62225">
        <ele>2235.3999023438</ele>
        <time>2015-04-07T08:24:59.000Z</time>
      </trkpt>
      <trkpt lat="45.58318" lon="6.62224">
        <ele>2235.8000488281</ele>
        <time>2015-04-07T08:25:01.000Z</time>
      </trkpt>
      <trkpt lat="45.5832" lon="6.62224">
        <ele>2236.6000976562</ele>
        <time>2015-04-07T08:25:04.000Z</time>
      </trkpt>
      <trkpt lat="45.5832" lon="6.62223">
        <ele>2237</ele>
        <time>2015-04-07T08:25:05.000Z</time>
      </trkpt>
      <trkpt lat="45.58322" lon="6.62219">
        <ele>2238.1999511719</ele>
        <time>2015-04-07T08:25:10.000Z</time>
      </trkpt>
      <trkpt lat="45.58323" lon="6.62217">
        <ele>2238.6000976562</ele>
        <time>2015-04-07T08:25:12.000Z</time>
      </trkpt>
      <trkpt lat="45.58325" lon="6.62214">
        <ele>2239.3999023438</ele>
        <time>2015-04-07T08:25:16.000Z</time>
      </trkpt>
      <trkpt lat="45.58326" lon="6.62215">
        <ele>2239.8000488281</ele>
        <time>2015-04-07T08:25:18.000Z</time>
      </trkpt>
      <trkpt lat="45.58328" lon="6.62215">
        <ele>2240.3999023438</ele>
        <time>2015-04-07T08:25:20.000Z</time>
      </trkpt>
      <trkpt lat="45.5833" lon="6.62218">
        <ele>2241.1999511719</ele>
        <time>2015-04-07T08:25:24.000Z</time>
      </trkpt>
      <trkpt lat="45.58331" lon="6.62219">
        <ele>2241.6000976562</ele>
        <time>2015-04-07T08:25:26.000Z</time>
      </trkpt>
      <trkpt lat="45.58334" lon="6.62218">
        <ele>2242.3999023438</ele>
        <time>2015-04-07T08:25:30.000Z</time>
      </trkpt>
      <trkpt lat="45.58335" lon="6.62216">
        <ele>2242.8000488281</ele>
        <time>2015-04-07T08:25:32.000Z</time>
      </trkpt>
      <trkpt lat="45.58336" lon="6.62214">
        <ele>2243.8000488281</ele>
        <time>2015-04-07T08:25:37.000Z</time>
      </trkpt>
      <trkpt lat="45.58336" lon="6.62214">
        <ele>2243.8000488281</ele>
        <time>2015-04-07T08:25:38.000Z</time>
      </trkpt>
      <trkpt lat="45.58339" lon="6.62211">
        <ele>2244.8000488281</ele>
        <time>2015-04-07T08:25:43.000Z</time>
      </trkpt>
      <trkpt lat="45.58342" lon="6.62211">
        <ele>2245.3999023438</ele>
        <time>2015-04-07T08:25:47.000Z</time>
      </trkpt>
      <trkpt lat="45.58343" lon="6.62212">
        <ele>2245.8000488281</ele>
        <time>2015-04-07T08:25:49.000Z</time>
      </trkpt>
      <trkpt lat="45.58345" lon="6.62214">
        <ele>2247</ele>
        <time>2015-04-07T08:25:54.000Z</time>
      </trkpt>
      <trkpt lat="45.58349" lon="6.62211">
        <ele>2248</ele>
        <time>2015-04-07T08:25:59.000Z</time>
      </trkpt>
      <trkpt lat="45.5835" lon="6.62211">
        <ele>2248.1999511719</ele>
        <time>2015-04-07T08:26:00.000Z</time>
      </trkpt>
      <trkpt lat="45.58352" lon="6.62211">
        <ele>2249.1999511719</ele>
        <time>2015-04-07T08:26:05.000Z</time>
      </trkpt>
      <trkpt lat="45.58352" lon="6.62212">
        <ele>2249.6000976562</ele>
        <time>2015-04-07T08:26:07.000Z</time>
      </trkpt>
      <trkpt lat="45.58353" lon="6.62213">
        <ele>2250.3999023438</ele>
        <time>2015-04-07T08:26:09.000Z</time>
      </trkpt>
      <trkpt lat="45.58353" lon="6.62213">
        <ele>2250.8000488281</ele>
        <time>2015-04-07T08:26:18.000Z</time>
      </trkpt>
      <trkpt lat="45.58353" lon="6.62213">
        <ele>2250.3999023438</ele>
        <time>2015-04-07T08:26:37.000Z</time>
      </trkpt>
      <trkpt lat="45.58354" lon="6.62216">
        <ele>2250.1999511719</ele>
        <time>2015-04-07T08:26:46.000Z</time>
      </trkpt>
      <trkpt lat="45.58356" lon="6.62215">
        <ele>2251.3999023438</ele>
        <time>2015-04-07T08:26:50.000Z</time>
      </trkpt>
      <trkpt lat="45.58357" lon="6.62215">
        <ele>2251.8000488281</ele>
        <time>2015-04-07T08:26:51.000Z</time>
      </trkpt>
      <trkpt lat="45.58359" lon="6.62212">
        <ele>2252.3999023438</ele>
        <time>2015-04-07T08:26:53.000Z</time>
      </trkpt>
      <trkpt lat="45.58362" lon="6.62209">
        <ele>2253.6000976562</ele>
        <time>2015-04-07T08:26:58.000Z</time>
      </trkpt>
      <trkpt lat="45.58365" lon="6.62207">
        <ele>2254.3999023438</ele>
        <time>2015-04-07T08:27:03.000Z</time>
      </trkpt>
      <trkpt lat="45.58365" lon="6.62207">
        <ele>2254.6000976562</ele>
        <time>2015-04-07T08:27:04.000Z</time>
      </trkpt>
      <trkpt lat="45.58367" lon="6.6221">
        <ele>2255.8000488281</ele>
        <time>2015-04-07T08:27:09.000Z</time>
      </trkpt>
      <trkpt lat="45.58367" lon="6.62211">
        <ele>2256.3999023438</ele>
        <time>2015-04-07T08:27:10.000Z</time>
      </trkpt>
      <trkpt lat="45.58367" lon="6.62211">
        <ele>2257</ele>
        <time>2015-04-07T08:27:13.000Z</time>
      </trkpt>
      <trkpt lat="45.58367" lon="6.62213">
        <ele>2257.8000488281</ele>
        <time>2015-04-07T08:27:17.000Z</time>
      </trkpt>
      <trkpt lat="45.58367" lon="6.62213">
        <ele>2258</ele>
        <time>2015-04-07T08:27:18.000Z</time>
      </trkpt>
      <trkpt lat="45.58366" lon="6.62219">
        <ele>2259</ele>
        <time>2015-04-07T08:27:23.000Z</time>
      </trkpt>
      <trkpt lat="45.58366" lon="6.62222">
        <ele>2260</ele>
        <time>2015-04-07T08:27:28.000Z</time>
      </trkpt>
      <trkpt lat="45.58368" lon="6.62219">
        <ele>2260.1999511719</ele>
        <time>2015-04-07T08:27:35.000Z</time>
      </trkpt>
      <trkpt lat="45.58369" lon="6.62218">
        <ele>2261.3999023438</ele>
        <time>2015-04-07T08:27:39.000Z</time>
      </trkpt>
      <trkpt lat="45.58371" lon="6.62217">
        <ele>2262</ele>
        <time>2015-04-07T08:27:42.000Z</time>
      </trkpt>
      <trkpt lat="45.58372" lon="6.62216">
        <ele>2262.3999023438</ele>
        <time>2015-04-07T08:27:45.000Z</time>
      </trkpt>
      <trkpt lat="45.58373" lon="6.62215">
        <ele>2262.8000488281</ele>
        <time>2015-04-07T08:27:47.000Z</time>
      </trkpt>
      <trkpt lat="45.58377" lon="6.62212">
        <ele>2263.3999023438</ele>
        <time>2015-04-07T08:27:51.000Z</time>
      </trkpt>
      <trkpt lat="45.58381" lon="6.62209">
        <ele>2264.1999511719</ele>
        <time>2015-04-07T08:27:54.000Z</time>
      </trkpt>
      <trkpt lat="45.58382" lon="6.62208">
        <ele>2264.6000976562</ele>
        <time>2015-04-07T08:27:56.000Z</time>
      </trkpt>
      <trkpt lat="45.58384" lon="6.62207">
        <ele>2265.3999023438</ele>
        <time>2015-04-07T08:28:00.000Z</time>
      </trkpt>
      <trkpt lat="45.58385" lon="6.62206">
        <ele>2265.6000976562</ele>
        <time>2015-04-07T08:28:01.000Z</time>
      </trkpt>
      <trkpt lat="45.58389" lon="6.62201">
        <ele>2266.8000488281</ele>
        <time>2015-04-07T08:28:07.000Z</time>
      </trkpt>
      <trkpt lat="45.58394" lon="6.62198">
        <ele>2268</ele>
        <time>2015-04-07T08:28:13.000Z</time>
      </trkpt>
      <trkpt lat="45.58396" lon="6.62196">
        <ele>2269</ele>
        <time>2015-04-07T08:28:18.000Z</time>
      </trkpt>
      <trkpt lat="45.58396" lon="6.62195">
        <ele>2269.1999511719</ele>
        <time>2015-04-07T08:28:19.000Z</time>
      </trkpt>
      <trkpt lat="45.58397" lon="6.62192">
        <ele>2270.6000976562</ele>
        <time>2015-04-07T08:28:23.000Z</time>
      </trkpt>
      <trkpt lat="45.58399" lon="6.6219">
        <ele>2271.6000976562</ele>
        <time>2015-04-07T08:28:27.000Z</time>
      </trkpt>
      <trkpt lat="45.58399" lon="6.62189">
        <ele>2271.8000488281</ele>
        <time>2015-04-07T08:28:29.000Z</time>
      </trkpt>
      <trkpt lat="45.584" lon="6.62188">
        <ele>2272</ele>
        <time>2015-04-07T08:28:32.000Z</time>
      </trkpt>
      <trkpt lat="45.584" lon="6.62184">
        <ele>2273</ele>
        <time>2015-04-07T08:28:36.000Z</time>
      </trkpt>
      <trkpt lat="45.584" lon="6.62183">
        <ele>2273.3999023438</ele>
        <time>2015-04-07T08:28:38.000Z</time>
      </trkpt>
      <trkpt lat="45.58401" lon="6.62182">
        <ele>2274</ele>
        <time>2015-04-07T08:28:41.000Z</time>
      </trkpt>
      <trkpt lat="45.58404" lon="6.62182">
        <ele>2274</ele>
        <time>2015-04-07T08:28:43.000Z</time>
      </trkpt>
      <trkpt lat="45.58405" lon="6.6218">
        <ele>2275</ele>
        <time>2015-04-07T08:28:48.000Z</time>
      </trkpt>
      <trkpt lat="45.58401" lon="6.62174">
        <ele>2275.6000976562</ele>
        <time>2015-04-07T08:28:54.000Z</time>
      </trkpt>
      <trkpt lat="45.58399" lon="6.62175">
        <ele>2276.1999511719</ele>
        <time>2015-04-07T08:28:58.000Z</time>
      </trkpt>
      <trkpt lat="45.58399" lon="6.62174">
        <ele>2276.3999023438</ele>
        <time>2015-04-07T08:28:59.000Z</time>
      </trkpt>
      <trkpt lat="45.58399" lon="6.62174">
        <ele>2277.1999511719</ele>
        <time>2015-04-07T08:29:05.000Z</time>
      </trkpt>
      <trkpt lat="45.58399" lon="6.62174">
        <ele>2277.1999511719</ele>
        <time>2015-04-07T08:29:09.000Z</time>
      </trkpt>
      <trkpt lat="45.58399" lon="6.62174">
        <ele>2277.1999511719</ele>
        <time>2015-04-07T08:29:22.000Z</time>
      </trkpt>
      <trkpt lat="45.58399" lon="6.62174">
        <ele>2277</ele>
        <time>2015-04-07T08:29:40.000Z</time>
      </trkpt>
      <trkpt lat="45.58399" lon="6.62174">
        <ele>2276.8000488281</ele>
        <time>2015-04-07T08:29:54.000Z</time>
      </trkpt>
      <trkpt lat="45.58399" lon="6.62174">
        <ele>2277</ele>
        <time>2015-04-07T08:30:01.000Z</time>
      </trkpt>
      <trkpt lat="45.58399" lon="6.62174">
        <ele>2277</ele>
        <time>2015-04-07T08:30:10.000Z</time>
      </trkpt>
      <trkpt lat="45.58396" lon="6.62173">
        <ele>2277</ele>
        <time>2015-04-07T08:30:17.000Z</time>
      </trkpt>
      <trkpt lat="45.58394" lon="6.62172">
        <ele>2277.3999023438</ele>
        <time>2015-04-07T08:30:21.000Z</time>
      </trkpt>
      <trkpt lat="45.58391" lon="6.62169">
        <ele>2278.3999023438</ele>
        <time>2015-04-07T08:30:26.000Z</time>
      </trkpt>
      <trkpt lat="45.58389" lon="6.62166">
        <ele>2279.3999023438</ele>
        <time>2015-04-07T08:30:31.000Z</time>
      </trkpt>
      <trkpt lat="45.58389" lon="6.62166">
        <ele>2279.8000488281</ele>
        <time>2015-04-07T08:30:34.000Z</time>
      </trkpt>
      <trkpt lat="45.58388" lon="6.6216">
        <ele>2279.8000488281</ele>
        <time>2015-04-07T08:30:41.000Z</time>
      </trkpt>
      <trkpt lat="45.58386" lon="6.62158">
        <ele>2280.3999023438</ele>
        <time>2015-04-07T08:30:46.000Z</time>
      </trkpt>
      <trkpt lat="45.58386" lon="6.62158">
        <ele>2280.6000976562</ele>
        <time>2015-04-07T08:30:47.000Z</time>
      </trkpt>
      <trkpt lat="45.58383" lon="6.62153">
        <ele>2281.3999023438</ele>
        <time>2015-04-07T08:30:52.000Z</time>
      </trkpt>
      <trkpt lat="45.58381" lon="6.62151">
        <ele>2281.8000488281</ele>
        <time>2015-04-07T08:30:55.000Z</time>
      </trkpt>
      <trkpt lat="45.58379" lon="6.62145">
        <ele>2281.8000488281</ele>
        <time>2015-04-07T08:31:02.000Z</time>
      </trkpt>
      <trkpt lat="45.58377" lon="6.62138">
        <ele>2281.3999023438</ele>
        <time>2015-04-07T08:31:09.000Z</time>
      </trkpt>
      <trkpt lat="45.58373" lon="6.62129">
        <ele>2280.8000488281</ele>
        <time>2015-04-07T08:31:16.000Z</time>
      </trkpt>
      <trkpt lat="45.5837" lon="6.62124">
        <ele>2280.8000488281</ele>
        <time>2015-04-07T08:31:21.000Z</time>
      </trkpt>
      <trkpt lat="45.5837" lon="6.62121">
        <ele>2280.8000488281</ele>
        <time>2015-04-07T08:31:23.000Z</time>
      </trkpt>
      <trkpt lat="45.58369" lon="6.62114">
        <ele>2280.6000976562</ele>
        <time>2015-04-07T08:31:27.000Z</time>
      </trkpt>
      <trkpt lat="45.58371" lon="6.62104">
        <ele>2280.1999511719</ele>
        <time>2015-04-07T08:31:33.000Z</time>
      </trkpt>
      <trkpt lat="45.58374" lon="6.62093">
        <ele>2281</ele>
        <time>2015-04-07T08:31:39.000Z</time>
      </trkpt>
      <trkpt lat="45.58376" lon="6.62086">
        <ele>2281.3999023438</ele>
        <time>2015-04-07T08:31:44.000Z</time>
      </trkpt>
      <trkpt lat="45.58378" lon="6.62082">
        <ele>2281.8000488281</ele>
        <time>2015-04-07T08:31:49.000Z</time>
      </trkpt>
      <trkpt lat="45.58378" lon="6.62082">
        <ele>2281.8000488281</ele>
        <time>2015-04-07T08:31:51.000Z</time>
      </trkpt>
      <trkpt lat="45.58379" lon="6.62077">
        <ele>2281.8000488281</ele>
        <time>2015-04-07T08:31:56.000Z</time>
      </trkpt>
      <trkpt lat="45.5838" lon="6.62072">
        <ele>2281.8000488281</ele>
        <time>2015-04-07T08:32:01.000Z</time>
      </trkpt>
      <trkpt lat="45.58381" lon="6.62071">
        <ele>2282.1999511719</ele>
        <time>2015-04-07T08:32:09.000Z</time>
      </trkpt>
      <trkpt lat="45.58381" lon="6.62071">
        <ele>2282.6000976562</ele>
        <time>2015-04-07T08:32:14.000Z</time>
      </trkpt>
      <trkpt lat="45.58381" lon="6.62071">
        <ele>2282.8000488281</ele>
        <time>2015-04-07T08:32:18.000Z</time>
      </trkpt>
      <trkpt lat="45.58381" lon="6.6207">
        <ele>2282.8000488281</ele>
        <time>2015-04-07T08:32:21.000Z</time>
      </trkpt>
      <trkpt lat="45.58381" lon="6.62066">
        <ele>2282.8000488281</ele>
        <time>2015-04-07T08:32:24.000Z</time>
      </trkpt>
      <trkpt lat="45.58381" lon="6.62065">
        <ele>2282.8000488281</ele>
        <time>2015-04-07T08:32:25.000Z</time>
      </trkpt>
      <trkpt lat="45.5838" lon="6.62064">
        <ele>2282.8000488281</ele>
        <time>2015-04-07T08:32:26.000Z</time>
      </trkpt>
      <trkpt lat="45.58381" lon="6.62061">
        <ele>2282.8000488281</ele>
        <time>2015-04-07T08:32:28.000Z</time>
      </trkpt>
      <trkpt lat="45.58383" lon="6.62051">
        <ele>2282.3999023438</ele>
        <time>2015-04-07T08:32:34.000Z</time>
      </trkpt>
      <trkpt lat="45.58387" lon="6.62042">
        <ele>2282.1999511719</ele>
        <time>2015-04-07T08:32:39.000Z</time>
      </trkpt>
      <trkpt lat="45.5839" lon="6.62037">
        <ele>2282</ele>
        <time>2015-04-07T08:32:43.000Z</time>
      </trkpt>
      <trkpt lat="45.58393" lon="6.62032">
        <ele>2283</ele>
        <time>2015-04-07T08:32:47.000Z</time>
      </trkpt>
      <trkpt lat="45.58398" lon="6.62025">
        <ele>2283.3999023438</ele>
        <time>2015-04-07T08:32:52.000Z</time>
      </trkpt>
      <trkpt lat="45.584" lon="6.6202">
        <ele>2283.6000976562</ele>
        <time>2015-04-07T08:32:57.000Z</time>
      </trkpt>
      <trkpt lat="45.58401" lon="6.62019">
        <ele>2284</ele>
        <time>2015-04-07T08:32:58.000Z</time>
      </trkpt>
      <trkpt lat="45.58401" lon="6.62016">
        <ele>2284.6000976562</ele>
        <time>2015-04-07T08:33:02.000Z</time>
      </trkpt>
      <trkpt lat="45.58404" lon="6.6201">
        <ele>2285</ele>
        <time>2015-04-07T08:33:06.000Z</time>
      </trkpt>
      <trkpt lat="45.58405" lon="6.62008">
        <ele>2285</ele>
        <time>2015-04-07T08:33:07.000Z</time>
      </trkpt>
      <trkpt lat="45.58408" lon="6.62001">
        <ele>2284.8000488281</ele>
        <time>2015-04-07T08:33:13.000Z</time>
      </trkpt>
      <trkpt lat="45.5841" lon="6.61996">
        <ele>2285</ele>
        <time>2015-04-07T08:33:18.000Z</time>
      </trkpt>
      <trkpt lat="45.58412" lon="6.6199">
        <ele>2285.3999023438</ele>
        <time>2015-04-07T08:33:23.000Z</time>
      </trkpt>
      <trkpt lat="45.58416" lon="6.61984">
        <ele>2286</ele>
        <time>2015-04-07T08:33:29.000Z</time>
      </trkpt>
      <trkpt lat="45.58422" lon="6.61979">
        <ele>2286.8000488281</ele>
        <time>2015-04-07T08:33:35.000Z</time>
      </trkpt>
      <trkpt lat="45.58423" lon="6.61977">
        <ele>2287.1999511719</ele>
        <time>2015-04-07T08:33:37.000Z</time>
      </trkpt>
      <trkpt lat="45.58422" lon="6.61973">
        <ele>2287.8000488281</ele>
        <time>2015-04-07T08:33:41.000Z</time>
      </trkpt>
      <trkpt lat="45.58422" lon="6.61969">
        <ele>2288.1999511719</ele>
        <time>2015-04-07T08:33:44.000Z</time>
      </trkpt>
      <trkpt lat="45.58425" lon="6.61969">
        <ele>2289.1999511719</ele>
        <time>2015-04-07T08:33:49.000Z</time>
      </trkpt>
      <trkpt lat="45.58432" lon="6.61968">
        <ele>2290.3999023438</ele>
        <time>2015-04-07T08:33:57.000Z</time>
      </trkpt>
      <trkpt lat="45.58433" lon="6.61967">
        <ele>2291.1999511719</ele>
        <time>2015-04-07T08:33:59.000Z</time>
      </trkpt>
      <trkpt lat="45.58432" lon="6.61966">
        <ele>2291.3999023438</ele>
        <time>2015-04-07T08:34:00.000Z</time>
      </trkpt>
      <trkpt lat="45.58436" lon="6.61965">
        <ele>2292.6000976562</ele>
        <time>2015-04-07T08:34:06.000Z</time>
      </trkpt>
      <trkpt lat="45.58436" lon="6.61963">
        <ele>2293.6000976562</ele>
        <time>2015-04-07T08:34:10.000Z</time>
      </trkpt>
      <trkpt lat="45.58438" lon="6.61962">
        <ele>2294.6000976562</ele>
        <time>2015-04-07T08:34:14.000Z</time>
      </trkpt>
      <trkpt lat="45.58438" lon="6.61962">
        <ele>2294.8000488281</ele>
        <time>2015-04-07T08:34:15.000Z</time>
      </trkpt>
      <trkpt lat="45.58441" lon="6.61961">
        <ele>2295.8000488281</ele>
        <time>2015-04-07T08:34:21.000Z</time>
      </trkpt>
      <trkpt lat="45.58441" lon="6.61961">
        <ele>2296</ele>
        <time>2015-04-07T08:34:22.000Z</time>
      </trkpt>
      <trkpt lat="45.58442" lon="6.6196">
        <ele>2297</ele>
        <time>2015-04-07T08:34:26.000Z</time>
      </trkpt>
      <trkpt lat="45.58445" lon="6.61959">
        <ele>2297.8000488281</ele>
        <time>2015-04-07T08:34:29.000Z</time>
      </trkpt>
      <trkpt lat="45.58446" lon="6.6196">
        <ele>2298</ele>
        <time>2015-04-07T08:34:31.000Z</time>
      </trkpt>
      <trkpt lat="45.58449" lon="6.61961">
        <ele>2298.8000488281</ele>
        <time>2015-04-07T08:34:35.000Z</time>
      </trkpt>
      <trkpt lat="45.58451" lon="6.61961">
        <ele>2299.1999511719</ele>
        <time>2015-04-07T08:34:37.000Z</time>
      </trkpt>
      <trkpt lat="45.58452" lon="6.61956">
        <ele>2299.8000488281</ele>
        <time>2015-04-07T08:34:40.000Z</time>
      </trkpt>
      <trkpt lat="45.58452" lon="6.61955">
        <ele>2300.1999511719</ele>
        <time>2015-04-07T08:34:43.000Z</time>
      </trkpt>
      <trkpt lat="45.58452" lon="6.61953">
        <ele>2300.3999023438</ele>
        <time>2015-04-07T08:34:44.000Z</time>
      </trkpt>
      <trkpt lat="45.58451" lon="6.61947">
        <ele>2301.3999023438</ele>
        <time>2015-04-07T08:34:49.000Z</time>
      </trkpt>
      <trkpt lat="45.58451" lon="6.61947">
        <ele>2301.8000488281</ele>
        <time>2015-04-07T08:34:50.000Z</time>
      </trkpt>
      <trkpt lat="45.58452" lon="6.61941">
        <ele>2302.6000976562</ele>
        <time>2015-04-07T08:34:55.000Z</time>
      </trkpt>
      <trkpt lat="45.58453" lon="6.61936">
        <ele>2303.1999511719</ele>
        <time>2015-04-07T08:35:00.000Z</time>
      </trkpt>
      <trkpt lat="45.58453" lon="6.61933">
        <ele>2303.6000976562</ele>
        <time>2015-04-07T08:35:02.000Z</time>
      </trkpt>
      <trkpt lat="45.58453" lon="6.6193">
        <ele>2304</ele>
        <time>2015-04-07T08:35:05.000Z</time>
      </trkpt>
      <trkpt lat="45.58453" lon="6.61924">
        <ele>2304.8000488281</ele>
        <time>2015-04-07T08:35:11.000Z</time>
      </trkpt>
      <trkpt lat="45.58454" lon="6.61919">
        <ele>2305.6000976562</ele>
        <time>2015-04-07T08:35:17.000Z</time>
      </trkpt>
      <trkpt lat="45.58454" lon="6.61919">
        <ele>2305.8000488281</ele>
        <time>2015-04-07T08:35:18.000Z</time>
      </trkpt>
      <trkpt lat="45.58456" lon="6.61916">
        <ele>2306.1999511719</ele>
        <time>2015-04-07T08:35:22.000Z</time>
      </trkpt>
      <trkpt lat="45.58458" lon="6.61914">
        <ele>2306.8000488281</ele>
        <time>2015-04-07T08:35:25.000Z</time>
      </trkpt>
      <trkpt lat="45.58459" lon="6.61913">
        <ele>2307.3999023438</ele>
        <time>2015-04-07T08:35:28.000Z</time>
      </trkpt>
      <trkpt lat="45.58461" lon="6.6191">
        <ele>2308</ele>
        <time>2015-04-07T08:35:31.000Z</time>
      </trkpt>
      <trkpt lat="45.58462" lon="6.6191">
        <ele>2308.6000976562</ele>
        <time>2015-04-07T08:35:33.000Z</time>
      </trkpt>
      <trkpt lat="45.58464" lon="6.61909">
        <ele>2309</ele>
        <time>2015-04-07T08:35:35.000Z</time>
      </trkpt>
      <trkpt lat="45.58467" lon="6.61907">
        <ele>2310</ele>
        <time>2015-04-07T08:35:40.000Z</time>
      </trkpt>
      <trkpt lat="45.58473" lon="6.61905">
        <ele>2311.1999511719</ele>
        <time>2015-04-07T08:35:46.000Z</time>
      </trkpt>
      <trkpt lat="45.58476" lon="6.61903">
        <ele>2312.1999511719</ele>
        <time>2015-04-07T08:35:50.000Z</time>
      </trkpt>
      <trkpt lat="45.58478" lon="6.61902">
        <ele>2312.6000976562</ele>
        <time>2015-04-07T08:35:53.000Z</time>
      </trkpt>
      <trkpt lat="45.58481" lon="6.61901">
        <ele>2313.1999511719</ele>
        <time>2015-04-07T08:35:56.000Z</time>
      </trkpt>
      <trkpt lat="45.58481" lon="6.61901">
        <ele>2313.6000976562</ele>
        <time>2015-04-07T08:35:58.000Z</time>
      </trkpt>
      <trkpt lat="45.58483" lon="6.61899">
        <ele>2314.1999511719</ele>
        <time>2015-04-07T08:36:01.000Z</time>
      </trkpt>
      <trkpt lat="45.58485" lon="6.61899">
        <ele>2315</ele>
        <time>2015-04-07T08:36:04.000Z</time>
      </trkpt>
      <trkpt lat="45.58487" lon="6.61898">
        <ele>2315.3999023438</ele>
        <time>2015-04-07T08:36:06.000Z</time>
      </trkpt>
      <trkpt lat="45.58489" lon="6.61897">
        <ele>2316</ele>
        <time>2015-04-07T08:36:09.000Z</time>
      </trkpt>
      <trkpt lat="45.58491" lon="6.61896">
        <ele>2316.3999023438</ele>
        <time>2015-04-07T08:36:11.000Z</time>
      </trkpt>
      <trkpt lat="45.58492" lon="6.61895">
        <ele>2316.6000976562</ele>
        <time>2015-04-07T08:36:12.000Z</time>
      </trkpt>
      <trkpt lat="45.58495" lon="6.61893">
        <ele>2317</ele>
        <time>2015-04-07T08:36:15.000Z</time>
      </trkpt>
      <trkpt lat="45.58498" lon="6.61892">
        <ele>2317.8000488281</ele>
        <time>2015-04-07T08:36:19.000Z</time>
      </trkpt>
      <trkpt lat="45.585" lon="6.61891">
        <ele>2318.3999023438</ele>
        <time>2015-04-07T08:36:22.000Z</time>
      </trkpt>
      <trkpt lat="45.58501" lon="6.61891">
        <ele>2319</ele>
        <time>2015-04-07T08:36:24.000Z</time>
      </trkpt>
      <trkpt lat="45.58502" lon="6.61889">
        <ele>2319.8000488281</ele>
        <time>2015-04-07T08:36:28.000Z</time>
      </trkpt>
      <trkpt lat="45.58501" lon="6.6189">
        <ele>2320</ele>
        <time>2015-04-07T08:36:29.000Z</time>
      </trkpt>
      <trkpt lat="45.58502" lon="6.61888">
        <ele>2320.8000488281</ele>
        <time>2015-04-07T08:36:34.000Z</time>
      </trkpt>
      <trkpt lat="45.58504" lon="6.61887">
        <ele>2321</ele>
        <time>2015-04-07T08:36:35.000Z</time>
      </trkpt>
      <trkpt lat="45.58507" lon="6.61884">
        <ele>2322.1999511719</ele>
        <time>2015-04-07T08:36:41.000Z</time>
      </trkpt>
      <trkpt lat="45.58513" lon="6.61882">
        <ele>2323.3999023438</ele>
        <time>2015-04-07T08:36:47.000Z</time>
      </trkpt>
      <trkpt lat="45.58512" lon="6.61882">
        <ele>2323.6000976562</ele>
        <time>2015-04-07T08:36:48.000Z</time>
      </trkpt>
      <trkpt lat="45.58514" lon="6.61881">
        <ele>2324.3999023438</ele>
        <time>2015-04-07T08:36:52.000Z</time>
      </trkpt>
      <trkpt lat="45.58515" lon="6.61881">
        <ele>2324.8000488281</ele>
        <time>2015-04-07T08:36:54.000Z</time>
      </trkpt>
      <trkpt lat="45.58517" lon="6.6188">
        <ele>2325.3999023438</ele>
        <time>2015-04-07T08:36:57.000Z</time>
      </trkpt>
      <trkpt lat="45.58522" lon="6.6188">
        <ele>2326.3999023438</ele>
        <time>2015-04-07T08:37:03.000Z</time>
      </trkpt>
      <trkpt lat="45.58522" lon="6.6188">
        <ele>2326.6000976562</ele>
        <time>2015-04-07T08:37:04.000Z</time>
      </trkpt>
      <trkpt lat="45.58524" lon="6.61881">
        <ele>2327.6000976562</ele>
        <time>2015-04-07T08:37:09.000Z</time>
      </trkpt>
      <trkpt lat="45.58526" lon="6.61882">
        <ele>2328.8000488281</ele>
        <time>2015-04-07T08:37:14.000Z</time>
      </trkpt>
      <trkpt lat="45.58527" lon="6.61882">
        <ele>2329</ele>
        <time>2015-04-07T08:37:15.000Z</time>
      </trkpt>
      <trkpt lat="45.58529" lon="6.61882">
        <ele>2330</ele>
        <time>2015-04-07T08:37:19.000Z</time>
      </trkpt>
      <trkpt lat="45.58532" lon="6.6188">
        <ele>2330.6000976562</ele>
        <time>2015-04-07T08:37:23.000Z</time>
      </trkpt>
      <trkpt lat="45.58533" lon="6.61879">
        <ele>2331</ele>
        <time>2015-04-07T08:37:25.000Z</time>
      </trkpt>
      <trkpt lat="45.58533" lon="6.61878">
        <ele>2331.6000976562</ele>
        <time>2015-04-07T08:37:28.000Z</time>
      </trkpt>
      <trkpt lat="45.58533" lon="6.61876">
        <ele>2332.1999511719</ele>
        <time>2015-04-07T08:37:30.000Z</time>
      </trkpt>
      <trkpt lat="45.58533" lon="6.61873">
        <ele>2332.3999023438</ele>
        <time>2015-04-07T08:37:31.000Z</time>
      </trkpt>
      <trkpt lat="45.58534" lon="6.61871">
        <ele>2332.8000488281</ele>
        <time>2015-04-07T08:37:33.000Z</time>
      </trkpt>
      <trkpt lat="45.58535" lon="6.61869">
        <ele>2333.1999511719</ele>
        <time>2015-04-07T08:37:36.000Z</time>
      </trkpt>
      <trkpt lat="45.58535" lon="6.61868">
        <ele>2333.6000976562</ele>
        <time>2015-04-07T08:37:38.000Z</time>
      </trkpt>
      <trkpt lat="45.58536" lon="6.61863">
        <ele>2334.3999023438</ele>
        <time>2015-04-07T08:37:42.000Z</time>
      </trkpt>
      <trkpt lat="45.58537" lon="6.61861">
        <ele>2334.6000976562</ele>
        <time>2015-04-07T08:37:44.000Z</time>
      </trkpt>
      <trkpt lat="45.58539" lon="6.61859">
        <ele>2335.3999023438</ele>
        <time>2015-04-07T08:37:48.000Z</time>
      </trkpt>
      <trkpt lat="45.5854" lon="6.61858">
        <ele>2335.8000488281</ele>
        <time>2015-04-07T08:37:50.000Z</time>
      </trkpt>
      <trkpt lat="45.58542" lon="6.61856">
        <ele>2336.3999023438</ele>
        <time>2015-04-07T08:37:55.000Z</time>
      </trkpt>
      <trkpt lat="45.58542" lon="6.61855">
        <ele>2336.6000976562</ele>
        <time>2015-04-07T08:37:56.000Z</time>
      </trkpt>
      <trkpt lat="45.58544" lon="6.61852">
        <ele>2337.6000976562</ele>
        <time>2015-04-07T08:37:59.000Z</time>
      </trkpt>
      <trkpt lat="45.58545" lon="6.6185">
        <ele>2338</ele>
        <time>2015-04-07T08:38:01.000Z</time>
      </trkpt>
      <trkpt lat="45.58546" lon="6.61848">
        <ele>2338.8000488281</ele>
        <time>2015-04-07T08:38:05.000Z</time>
      </trkpt>
      <trkpt lat="45.58548" lon="6.61845">
        <ele>2339.1999511719</ele>
        <time>2015-04-07T08:38:07.000Z</time>
      </trkpt>
      <trkpt lat="45.5855" lon="6.61842">
        <ele>2340</ele>
        <time>2015-04-07T08:38:10.000Z</time>
      </trkpt>
      <trkpt lat="45.58551" lon="6.61842">
        <ele>2340.1999511719</ele>
        <time>2015-04-07T08:38:11.000Z</time>
      </trkpt>
      <trkpt lat="45.58553" lon="6.61837">
        <ele>2341.1999511719</ele>
        <time>2015-04-07T08:38:15.000Z</time>
      </trkpt>
      <trkpt lat="45.58553" lon="6.61836">
        <ele>2341.6000976562</ele>
        <time>2015-04-07T08:38:17.000Z</time>
      </trkpt>
      <trkpt lat="45.58553" lon="6.61833">
        <ele>2342.1999511719</ele>
        <time>2015-04-07T08:38:20.000Z</time>
      </trkpt>
      <trkpt lat="45.58554" lon="6.6183">
        <ele>2343</ele>
        <time>2015-04-07T08:38:23.000Z</time>
      </trkpt>
      <trkpt lat="45.58555" lon="6.61826">
        <ele>2343.3999023438</ele>
        <time>2015-04-07T08:38:25.000Z</time>
      </trkpt>
      <trkpt lat="45.58556" lon="6.61823">
        <ele>2344</ele>
        <time>2015-04-07T08:38:28.000Z</time>
      </trkpt>
      <trkpt lat="45.58557" lon="6.61819">
        <ele>2344.6000976562</ele>
        <time>2015-04-07T08:38:31.000Z</time>
      </trkpt>
      <trkpt lat="45.58557" lon="6.61817">
        <ele>2345.1999511719</ele>
        <time>2015-04-07T08:38:33.000Z</time>
      </trkpt>
      <trkpt lat="45.58557" lon="6.61815">
        <ele>2345.6000976562</ele>
        <time>2015-04-07T08:38:35.000Z</time>
      </trkpt>
      <trkpt lat="45.58557" lon="6.61809">
        <ele>2346.6000976562</ele>
        <time>2015-04-07T08:38:39.000Z</time>
      </trkpt>
      <trkpt lat="45.58558" lon="6.61808">
        <ele>2346.8000488281</ele>
        <time>2015-04-07T08:38:40.000Z</time>
      </trkpt>
      <trkpt lat="45.58558" lon="6.61804">
        <ele>2347.6000976562</ele>
        <time>2015-04-07T08:38:43.000Z</time>
      </trkpt>
      <trkpt lat="45.58558" lon="6.61802">
        <ele>2347.8000488281</ele>
        <time>2015-04-07T08:38:45.000Z</time>
      </trkpt>
      <trkpt lat="45.58558" lon="6.61801">
        <ele>2348</ele>
        <time>2015-04-07T08:38:46.000Z</time>
      </trkpt>
      <trkpt lat="45.58559" lon="6.61797">
        <ele>2349.3999023438</ele>
        <time>2015-04-07T08:38:49.000Z</time>
      </trkpt>
      <trkpt lat="45.58558" lon="6.61796">
        <ele>2349.8000488281</ele>
        <time>2015-04-07T08:38:51.000Z</time>
      </trkpt>
      <trkpt lat="45.58558" lon="6.61792">
        <ele>2350.6000976562</ele>
        <time>2015-04-07T08:38:54.000Z</time>
      </trkpt>
      <trkpt lat="45.58558" lon="6.61788">
        <ele>2351.3999023438</ele>
        <time>2015-04-07T08:38:57.000Z</time>
      </trkpt>
      <trkpt lat="45.58558" lon="6.61786">
        <ele>2351.6000976562</ele>
        <time>2015-04-07T08:38:58.000Z</time>
      </trkpt>
      <trkpt lat="45.58558" lon="6.61783">
        <ele>2352.8000488281</ele>
        <time>2015-04-07T08:39:02.000Z</time>
      </trkpt>
      <trkpt lat="45.58557" lon="6.61783">
        <ele>2353</ele>
        <time>2015-04-07T08:39:03.000Z</time>
      </trkpt>
      <trkpt lat="45.58557" lon="6.6178">
        <ele>2353.8000488281</ele>
        <time>2015-04-07T08:39:07.000Z</time>
      </trkpt>
      <trkpt lat="45.58556" lon="6.61777">
        <ele>2354.3999023438</ele>
        <time>2015-04-07T08:39:09.000Z</time>
      </trkpt>
      <trkpt lat="45.58556" lon="6.61774">
        <ele>2355</ele>
        <time>2015-04-07T08:39:12.000Z</time>
      </trkpt>
      <trkpt lat="45.58555" lon="6.61771">
        <ele>2355.6000976562</ele>
        <time>2015-04-07T08:39:15.000Z</time>
      </trkpt>
      <trkpt lat="45.58554" lon="6.61769">
        <ele>2356.1999511719</ele>
        <time>2015-04-07T08:39:17.000Z</time>
      </trkpt>
      <trkpt lat="45.58554" lon="6.61767">
        <ele>2356.8000488281</ele>
        <time>2015-04-07T08:39:19.000Z</time>
      </trkpt>
      <trkpt lat="45.58554" lon="6.61766">
        <ele>2357.1999511719</ele>
        <time>2015-04-07T08:39:21.000Z</time>
      </trkpt>
      <trkpt lat="45.58553" lon="6.61765">
        <ele>2358</ele>
        <time>2015-04-07T08:39:24.000Z</time>
      </trkpt>
      <trkpt lat="45.58553" lon="6.61762">
        <ele>2358.3999023438</ele>
        <time>2015-04-07T08:39:26.000Z</time>
      </trkpt>
      <trkpt lat="45.58553" lon="6.61761">
        <ele>2359</ele>
        <time>2015-04-07T08:39:29.000Z</time>
      </trkpt>
      <trkpt lat="45.58552" lon="6.61759">
        <ele>2359.8000488281</ele>
        <time>2015-04-07T08:39:32.000Z</time>
      </trkpt>
      <trkpt lat="45.58552" lon="6.61758">
        <ele>2360</ele>
        <time>2015-04-07T08:39:33.000Z</time>
      </trkpt>
      <trkpt lat="45.58551" lon="6.61754">
        <ele>2361</ele>
        <time>2015-04-07T08:39:38.000Z</time>
      </trkpt>
      <trkpt lat="45.58551" lon="6.61751">
        <ele>2361</ele>
        <time>2015-04-07T08:39:39.000Z</time>
      </trkpt>
      <trkpt lat="45.58551" lon="6.61751">
        <ele>2362.1999511719</ele>
        <time>2015-04-07T08:39:43.000Z</time>
      </trkpt>
      <trkpt lat="45.58553" lon="6.61747">
        <ele>2363.1999511719</ele>
        <time>2015-04-07T08:39:48.000Z</time>
      </trkpt>
      <trkpt lat="45.58553" lon="6.61747">
        <ele>2363.6000976562</ele>
        <time>2015-04-07T08:39:49.000Z</time>
      </trkpt>
      <trkpt lat="45.58555" lon="6.61747">
        <ele>2364.3999023438</ele>
        <time>2015-04-07T08:39:52.000Z</time>
      </trkpt>
      <trkpt lat="45.58558" lon="6.61746">
        <ele>2365</ele>
        <time>2015-04-07T08:39:55.000Z</time>
      </trkpt>
      <trkpt lat="45.58561" lon="6.61745">
        <ele>2365.3999023438</ele>
        <time>2015-04-07T08:39:59.000Z</time>
      </trkpt>
      <trkpt lat="45.58562" lon="6.61744">
        <ele>2366</ele>
        <time>2015-04-07T08:40:01.000Z</time>
      </trkpt>
      <trkpt lat="45.58565" lon="6.61742">
        <ele>2366.6000976562</ele>
        <time>2015-04-07T08:40:05.000Z</time>
      </trkpt>
      <trkpt lat="45.58567" lon="6.6174">
        <ele>2367.1999511719</ele>
        <time>2015-04-07T08:40:08.000Z</time>
      </trkpt>
      <trkpt lat="45.58567" lon="6.61737">
        <ele>2367.6000976562</ele>
        <time>2015-04-07T08:40:10.000Z</time>
      </trkpt>
      <trkpt lat="45.58567" lon="6.61734">
        <ele>2368.1999511719</ele>
        <time>2015-04-07T08:40:14.000Z</time>
      </trkpt>
      <trkpt lat="45.58567" lon="6.6173">
        <ele>2368.6000976562</ele>
        <time>2015-04-07T08:40:16.000Z</time>
      </trkpt>
      <trkpt lat="45.58568" lon="6.61727">
        <ele>2369.1999511719</ele>
        <time>2015-04-07T08:40:19.000Z</time>
      </trkpt>
      <trkpt lat="45.58567" lon="6.61722">
        <ele>2369.8000488281</ele>
        <time>2015-04-07T08:40:22.000Z</time>
      </trkpt>
      <trkpt lat="45.58567" lon="6.61723">
        <ele>2370</ele>
        <time>2015-04-07T08:40:23.000Z</time>
      </trkpt>
      <trkpt lat="45.58565" lon="6.61716">
        <ele>2371</ele>
        <time>2015-04-07T08:40:29.000Z</time>
      </trkpt>
      <trkpt lat="45.58564" lon="6.61711">
        <ele>2372</ele>
        <time>2015-04-07T08:40:35.000Z</time>
      </trkpt>
      <trkpt lat="45.58563" lon="6.61709">
        <ele>2372.3999023438</ele>
        <time>2015-04-07T08:40:36.000Z</time>
      </trkpt>
      <trkpt lat="45.58562" lon="6.61709">
        <ele>2373</ele>
        <time>2015-04-07T08:40:38.000Z</time>
      </trkpt>
      <trkpt lat="45.58561" lon="6.61705">
        <ele>2373.6000976562</ele>
        <time>2015-04-07T08:40:41.000Z</time>
      </trkpt>
      <trkpt lat="45.5856" lon="6.61704">
        <ele>2374</ele>
        <time>2015-04-07T08:40:44.000Z</time>
      </trkpt>
      <trkpt lat="45.58559" lon="6.61703">
        <ele>2374.6000976562</ele>
        <time>2015-04-07T08:40:46.000Z</time>
      </trkpt>
      <trkpt lat="45.58559" lon="6.61703">
        <ele>2375</ele>
        <time>2015-04-07T08:40:47.000Z</time>
      </trkpt>
      <trkpt lat="45.58557" lon="6.617">
        <ele>2376</ele>
        <time>2015-04-07T08:40:52.000Z</time>
      </trkpt>
      <trkpt lat="45.58556" lon="6.61697">
        <ele>2377.1999511719</ele>
        <time>2015-04-07T08:40:57.000Z</time>
      </trkpt>
      <trkpt lat="45.58553" lon="6.61691">
        <ele>2378.1999511719</ele>
        <time>2015-04-07T08:41:03.000Z</time>
      </trkpt>
      <trkpt lat="45.58554" lon="6.61691">
        <ele>2378.3999023438</ele>
        <time>2015-04-07T08:41:04.000Z</time>
      </trkpt>
      <trkpt lat="45.58553" lon="6.61688">
        <ele>2379.3999023438</ele>
        <time>2015-04-07T08:41:08.000Z</time>
      </trkpt>
      <trkpt lat="45.58552" lon="6.61687">
        <ele>2379.6000976562</ele>
        <time>2015-04-07T08:41:09.000Z</time>
      </trkpt>
      <trkpt lat="45.58552" lon="6.61685">
        <ele>2380.3999023438</ele>
        <time>2015-04-07T08:41:11.000Z</time>
      </trkpt>
      <trkpt lat="45.5855" lon="6.61683">
        <ele>2381</ele>
        <time>2015-04-07T08:41:14.000Z</time>
      </trkpt>
      <trkpt lat="45.5855" lon="6.61681">
        <ele>2381.6000976562</ele>
        <time>2015-04-07T08:41:17.000Z</time>
      </trkpt>
      <trkpt lat="45.58549" lon="6.61678">
        <ele>2382.6000976562</ele>
        <time>2015-04-07T08:41:21.000Z</time>
      </trkpt>
      <trkpt lat="45.58548" lon="6.61676">
        <ele>2383.8000488281</ele>
        <time>2015-04-07T08:41:26.000Z</time>
      </trkpt>
      <trkpt lat="45.58548" lon="6.61676">
        <ele>2384.1999511719</ele>
        <time>2015-04-07T08:41:27.000Z</time>
      </trkpt>
      <trkpt lat="45.58547" lon="6.61672">
        <ele>2385</ele>
        <time>2015-04-07T08:41:30.000Z</time>
      </trkpt>
      <trkpt lat="45.58547" lon="6.61671">
        <ele>2385.3999023438</ele>
        <time>2015-04-07T08:41:33.000Z</time>
      </trkpt>
      <trkpt lat="45.58547" lon="6.6167">
        <ele>2386</ele>
        <time>2015-04-07T08:41:35.000Z</time>
      </trkpt>
      <trkpt lat="45.58546" lon="6.61664">
        <ele>2387</ele>
        <time>2015-04-07T08:41:39.000Z</time>
      </trkpt>
      <trkpt lat="45.58546" lon="6.61664">
        <ele>2387.1999511719</ele>
        <time>2015-04-07T08:41:40.000Z</time>
      </trkpt>
      <trkpt lat="45.58546" lon="6.61661">
        <ele>2388.1999511719</ele>
        <time>2015-04-07T08:41:44.000Z</time>
      </trkpt>
      <trkpt lat="45.58546" lon="6.6166">
        <ele>2388.1999511719</ele>
        <time>2015-04-07T08:41:45.000Z</time>
      </trkpt>
      <trkpt lat="45.58548" lon="6.61656">
        <ele>2389</ele>
        <time>2015-04-07T08:41:49.000Z</time>
      </trkpt>
      <trkpt lat="45.58548" lon="6.61655">
        <ele>2389.3999023438</ele>
        <time>2015-04-07T08:41:51.000Z</time>
      </trkpt>
      <trkpt lat="45.5855" lon="6.61651">
        <ele>2390.1999511719</ele>
        <time>2015-04-07T08:41:54.000Z</time>
      </trkpt>
      <trkpt lat="45.58551" lon="6.61649">
        <ele>2390.3999023438</ele>
        <time>2015-04-07T08:41:55.000Z</time>
      </trkpt>
      <trkpt lat="45.58553" lon="6.61647">
        <ele>2391.3999023438</ele>
        <time>2015-04-07T08:41:59.000Z</time>
      </trkpt>
      <trkpt lat="45.58552" lon="6.61647">
        <ele>2391.6000976562</ele>
        <time>2015-04-07T08:42:00.000Z</time>
      </trkpt>
      <trkpt lat="45.58552" lon="6.61646">
        <ele>2392</ele>
        <time>2015-04-07T08:42:03.000Z</time>
      </trkpt>
      <trkpt lat="45.58554" lon="6.61643">
        <ele>2392.6000976562</ele>
        <time>2015-04-07T08:42:08.000Z</time>
      </trkpt>
      <trkpt lat="45.58554" lon="6.61643">
        <ele>2393</ele>
        <time>2015-04-07T08:42:09.000Z</time>
      </trkpt>
      <trkpt lat="45.58555" lon="6.6164">
        <ele>2394</ele>
        <time>2015-04-07T08:42:13.000Z</time>
      </trkpt>
      <trkpt lat="45.58555" lon="6.61639">
        <ele>2394.1999511719</ele>
        <time>2015-04-07T08:42:14.000Z</time>
      </trkpt>
      <trkpt lat="45.58557" lon="6.61635">
        <ele>2394.8000488281</ele>
        <time>2015-04-07T08:42:18.000Z</time>
      </trkpt>
      <trkpt lat="45.58557" lon="6.61635">
        <ele>2395</ele>
        <time>2015-04-07T08:42:19.000Z</time>
      </trkpt>
      <trkpt lat="45.58562" lon="6.6163">
        <ele>2396</ele>
        <time>2015-04-07T08:42:24.000Z</time>
      </trkpt>
      <trkpt lat="45.58564" lon="6.61627">
        <ele>2396.8000488281</ele>
        <time>2015-04-07T08:42:29.000Z</time>
      </trkpt>
      <trkpt lat="45.58564" lon="6.61626">
        <ele>2397.1999511719</ele>
        <time>2015-04-07T08:42:31.000Z</time>
      </trkpt>
      <trkpt lat="45.58566" lon="6.61624">
        <ele>2397.8000488281</ele>
        <time>2015-04-07T08:42:34.000Z</time>
      </trkpt>
      <trkpt lat="45.58569" lon="6.61621">
        <ele>2398.1999511719</ele>
        <time>2015-04-07T08:42:37.000Z</time>
      </trkpt>
      <trkpt lat="45.5857" lon="6.6162">
        <ele>2398.3999023438</ele>
        <time>2015-04-07T08:42:38.000Z</time>
      </trkpt>
      <trkpt lat="45.58573" lon="6.61617">
        <ele>2399</ele>
        <time>2015-04-07T08:42:43.000Z</time>
      </trkpt>
      <trkpt lat="45.58573" lon="6.61617">
        <ele>2399.3999023438</ele>
        <time>2015-04-07T08:42:45.000Z</time>
      </trkpt>
      <trkpt lat="45.58577" lon="6.61614">
        <ele>2400</ele>
        <time>2015-04-07T08:42:48.000Z</time>
      </trkpt>
      <trkpt lat="45.58579" lon="6.61613">
        <ele>2400.6000976562</ele>
        <time>2015-04-07T08:42:51.000Z</time>
      </trkpt>
      <trkpt lat="45.5858" lon="6.61613">
        <ele>2401</ele>
        <time>2015-04-07T08:42:53.000Z</time>
      </trkpt>
      <trkpt lat="45.58582" lon="6.61611">
        <ele>2401.8000488281</ele>
        <time>2015-04-07T08:42:57.000Z</time>
      </trkpt>
      <trkpt lat="45.58584" lon="6.6161">
        <ele>2402.1999511719</ele>
        <time>2015-04-07T08:42:59.000Z</time>
      </trkpt>
      <trkpt lat="45.58586" lon="6.6161">
        <ele>2402.8000488281</ele>
        <time>2015-04-07T08:43:03.000Z</time>
      </trkpt>
      <trkpt lat="45.58586" lon="6.6161">
        <ele>2403</ele>
        <time>2015-04-07T08:43:04.000Z</time>
      </trkpt>
      <trkpt lat="45.58588" lon="6.61609">
        <ele>2404.1999511719</ele>
        <time>2015-04-07T08:43:08.000Z</time>
      </trkpt>
      <trkpt lat="45.58588" lon="6.61608">
        <ele>2404.8000488281</ele>
        <time>2015-04-07T08:43:11.000Z</time>
      </trkpt>
      <trkpt lat="45.58589" lon="6.61608">
        <ele>2405.1999511719</ele>
        <time>2015-04-07T08:43:13.000Z</time>
      </trkpt>
      <trkpt lat="45.58591" lon="6.61607">
        <ele>2405.6000976562</ele>
        <time>2015-04-07T08:43:16.000Z</time>
      </trkpt>
      <trkpt lat="45.58592" lon="6.61607">
        <ele>2406.1999511719</ele>
        <time>2015-04-07T08:43:18.000Z</time>
      </trkpt>
      <trkpt lat="45.58595" lon="6.61607">
        <ele>2407</ele>
        <time>2015-04-07T08:43:22.000Z</time>
      </trkpt>
      <trkpt lat="45.58596" lon="6.61607">
        <ele>2407.1999511719</ele>
        <time>2015-04-07T08:43:23.000Z</time>
      </trkpt>
      <trkpt lat="45.586" lon="6.61606">
        <ele>2408.3999023438</ele>
        <time>2015-04-07T08:43:29.000Z</time>
      </trkpt>
      <trkpt lat="45.586" lon="6.61606">
        <ele>2408.6000976562</ele>
        <time>2015-04-07T08:43:30.000Z</time>
      </trkpt>
      <trkpt lat="45.58603" lon="6.61606">
        <ele>2409.6000976562</ele>
        <time>2015-04-07T08:43:34.000Z</time>
      </trkpt>
      <trkpt lat="45.58609" lon="6.61606">
        <ele>2410.6000976562</ele>
        <time>2015-04-07T08:43:38.000Z</time>
      </trkpt>
      <trkpt lat="45.58613" lon="6.61606">
        <ele>2411.8000488281</ele>
        <time>2015-04-07T08:43:44.000Z</time>
      </trkpt>
      <trkpt lat="45.58614" lon="6.61606">
        <ele>2412</ele>
        <time>2015-04-07T08:43:45.000Z</time>
      </trkpt>
      <trkpt lat="45.5862" lon="6.61606">
        <ele>2412.8000488281</ele>
        <time>2015-04-07T08:43:51.000Z</time>
      </trkpt>
      <trkpt lat="45.58624" lon="6.61607">
        <ele>2413.3999023438</ele>
        <time>2015-04-07T08:43:56.000Z</time>
      </trkpt>
      <trkpt lat="45.58628" lon="6.61608">
        <ele>2414</ele>
        <time>2015-04-07T08:44:00.000Z</time>
      </trkpt>
      <trkpt lat="45.5863" lon="6.61609">
        <ele>2414.1999511719</ele>
        <time>2015-04-07T08:44:02.000Z</time>
      </trkpt>
      <trkpt lat="45.58636" lon="6.61611">
        <ele>2414.6000976562</ele>
        <time>2015-04-07T08:44:08.000Z</time>
      </trkpt>
      <trkpt lat="45.58644" lon="6.61614">
        <ele>2414.8000488281</ele>
        <time>2015-04-07T08:44:15.000Z</time>
      </trkpt>
      <trkpt lat="45.58644" lon="6.61614">
        <ele>2415</ele>
        <time>2015-04-07T08:44:17.000Z</time>
      </trkpt>
      <trkpt lat="45.58649" lon="6.61616">
        <ele>2415.1999511719</ele>
        <time>2015-04-07T08:44:21.000Z</time>
      </trkpt>
      <trkpt lat="45.58656" lon="6.6162">
        <ele>2415.1999511719</ele>
        <time>2015-04-07T08:44:29.000Z</time>
      </trkpt>
      <trkpt lat="45.58661" lon="6.61623">
        <ele>2414.8000488281</ele>
        <time>2015-04-07T08:44:36.000Z</time>
      </trkpt>
      <trkpt lat="45.58668" lon="6.61623">
        <ele>2414.8000488281</ele>
        <time>2015-04-07T08:44:44.000Z</time>
      </trkpt>
      <trkpt lat="45.58671" lon="6.61624">
        <ele>2415.1999511719</ele>
        <time>2015-04-07T08:44:48.000Z</time>
      </trkpt>
      <trkpt lat="45.58674" lon="6.61624">
        <ele>2415.8000488281</ele>
        <time>2015-04-07T08:44:51.000Z</time>
      </trkpt>
      <trkpt lat="45.58675" lon="6.61624">
        <ele>2416</ele>
        <time>2015-04-07T08:44:52.000Z</time>
      </trkpt>
      <trkpt lat="45.58682" lon="6.61624">
        <ele>2417</ele>
        <time>2015-04-07T08:44:59.000Z</time>
      </trkpt>
      <trkpt lat="45.58683" lon="6.61624">
        <ele>2417</ele>
        <time>2015-04-07T08:45:00.000Z</time>
      </trkpt>
      <trkpt lat="45.58689" lon="6.61623">
        <ele>2418</ele>
        <time>2015-04-07T08:45:07.000Z</time>
      </trkpt>
      <trkpt lat="45.5869" lon="6.61623">
        <ele>2418.1999511719</ele>
        <time>2015-04-07T08:45:08.000Z</time>
      </trkpt>
      <trkpt lat="45.58695" lon="6.61623">
        <ele>2419.3999023438</ele>
        <time>2015-04-07T08:45:15.000Z</time>
      </trkpt>
      <trkpt lat="45.58695" lon="6.61623">
        <ele>2419.3999023438</ele>
        <time>2015-04-07T08:45:16.000Z</time>
      </trkpt>
      <trkpt lat="45.58697" lon="6.61623">
        <ele>2420.3999023438</ele>
        <time>2015-04-07T08:45:19.000Z</time>
      </trkpt>
      <trkpt lat="45.587" lon="6.61622">
        <ele>2421.3999023438</ele>
        <time>2015-04-07T08:45:24.000Z</time>
      </trkpt>
      <trkpt lat="45.58701" lon="6.61622">
        <ele>2421.8000488281</ele>
        <time>2015-04-07T08:45:27.000Z</time>
      </trkpt>
      <trkpt lat="45.58704" lon="6.61622">
        <ele>2422.6000976562</ele>
        <time>2015-04-07T08:45:31.000Z</time>
      </trkpt>
      <trkpt lat="45.58706" lon="6.61621">
        <ele>2423.3999023438</ele>
        <time>2015-04-07T08:45:35.000Z</time>
      </trkpt>
      <trkpt lat="45.58707" lon="6.61621">
        <ele>2423.8000488281</ele>
        <time>2015-04-07T08:45:36.000Z</time>
      </trkpt>
      <trkpt lat="45.58709" lon="6.61621">
        <ele>2425</ele>
        <time>2015-04-07T08:45:40.000Z</time>
      </trkpt>
      <trkpt lat="45.58709" lon="6.61621">
        <ele>2425.3999023438</ele>
        <time>2015-04-07T08:45:42.000Z</time>
      </trkpt>
      <trkpt lat="45.5871" lon="6.61619">
        <ele>2426</ele>
        <time>2015-04-07T08:45:45.000Z</time>
      </trkpt>
      <trkpt lat="45.58711" lon="6.61619">
        <ele>2426.8000488281</ele>
        <time>2015-04-07T08:45:48.000Z</time>
      </trkpt>
      <trkpt lat="45.58711" lon="6.61619">
        <ele>2427.1999511719</ele>
        <time>2015-04-07T08:45:49.000Z</time>
      </trkpt>
      <trkpt lat="45.58712" lon="6.61619">
        <ele>2427.8000488281</ele>
        <time>2015-04-07T08:46:00.000Z</time>
      </trkpt>
      <trkpt lat="45.58717" lon="6.61617">
        <ele>2428.3999023438</ele>
        <time>2015-04-07T08:46:05.000Z</time>
      </trkpt>
      <trkpt lat="45.58719" lon="6.61617">
        <ele>2429.3999023438</ele>
        <time>2015-04-07T08:46:10.000Z</time>
      </trkpt>
      <trkpt lat="45.5872" lon="6.61613">
        <ele>2430.6000976562</ele>
        <time>2015-04-07T08:46:15.000Z</time>
      </trkpt>
      <trkpt lat="45.5872" lon="6.6161">
        <ele>2431.6000976562</ele>
        <time>2015-04-07T08:46:19.000Z</time>
      </trkpt>
      <trkpt lat="45.5872" lon="6.6161">
        <ele>2431.8000488281</ele>
        <time>2015-04-07T08:46:20.000Z</time>
      </trkpt>
      <trkpt lat="45.58724" lon="6.61606">
        <ele>2432.8000488281</ele>
        <time>2015-04-07T08:46:24.000Z</time>
      </trkpt>
      <trkpt lat="45.58725" lon="6.61606">
        <ele>2432.8000488281</ele>
        <time>2015-04-07T08:46:25.000Z</time>
      </trkpt>
      <trkpt lat="45.58727" lon="6.61602">
        <ele>2433.8000488281</ele>
        <time>2015-04-07T08:46:30.000Z</time>
      </trkpt>
      <trkpt lat="45.58728" lon="6.61601">
        <ele>2434.1999511719</ele>
        <time>2015-04-07T08:46:32.000Z</time>
      </trkpt>
      <trkpt lat="45.58731" lon="6.61598">
        <ele>2434.8000488281</ele>
        <time>2015-04-07T08:46:35.000Z</time>
      </trkpt>
      <trkpt lat="45.58733" lon="6.61595">
        <ele>2435</ele>
        <time>2015-04-07T08:46:38.000Z</time>
      </trkpt>
      <trkpt lat="45.58733" lon="6.61593">
        <ele>2435.8000488281</ele>
        <time>2015-04-07T08:46:42.000Z</time>
      </trkpt>
      <trkpt lat="45.58734" lon="6.61591">
        <ele>2436</ele>
        <time>2015-04-07T08:46:43.000Z</time>
      </trkpt>
      <trkpt lat="45.58735" lon="6.61589">
        <ele>2436.8000488281</ele>
        <time>2015-04-07T08:46:47.000Z</time>
      </trkpt>
      <trkpt lat="45.58737" lon="6.61584">
        <ele>2437.8000488281</ele>
        <time>2015-04-07T08:46:51.000Z</time>
      </trkpt>
      <trkpt lat="45.58737" lon="6.61584">
        <ele>2438</ele>
        <time>2015-04-07T08:46:52.000Z</time>
      </trkpt>
      <trkpt lat="45.58738" lon="6.61581">
        <ele>2438.6000976562</ele>
        <time>2015-04-07T08:46:56.000Z</time>
      </trkpt>
      <trkpt lat="45.58738" lon="6.61581">
        <ele>2439</ele>
        <time>2015-04-07T08:46:57.000Z</time>
      </trkpt>
      <trkpt lat="45.58739" lon="6.61577">
        <ele>2439.6000976562</ele>
        <time>2015-04-07T08:47:01.000Z</time>
      </trkpt>
      <trkpt lat="45.5874" lon="6.61574">
        <ele>2440.1999511719</ele>
        <time>2015-04-07T08:47:04.000Z</time>
      </trkpt>
      <trkpt lat="45.58741" lon="6.61571">
        <ele>2440.6000976562</ele>
        <time>2015-04-07T08:47:07.000Z</time>
      </trkpt>
      <trkpt lat="45.58742" lon="6.61567">
        <ele>2441.3999023438</ele>
        <time>2015-04-07T08:47:11.000Z</time>
      </trkpt>
      <trkpt lat="45.58742" lon="6.61565">
        <ele>2442.1999511719</ele>
        <time>2015-04-07T08:47:13.000Z</time>
      </trkpt>
      <trkpt lat="45.58743" lon="6.61564">
        <ele>2442.3999023438</ele>
        <time>2015-04-07T08:47:14.000Z</time>
      </trkpt>
      <trkpt lat="45.58745" lon="6.6156">
        <ele>2443.1999511719</ele>
        <time>2015-04-07T08:47:18.000Z</time>
      </trkpt>
      <trkpt lat="45.58745" lon="6.6156">
        <ele>2443.3999023438</ele>
        <time>2015-04-07T08:47:19.000Z</time>
      </trkpt>
      <trkpt lat="45.58745" lon="6.61556">
        <ele>2443.8000488281</ele>
        <time>2015-04-07T08:47:23.000Z</time>
      </trkpt>
      <trkpt lat="45.58745" lon="6.61554">
        <ele>2444.3999023438</ele>
        <time>2015-04-07T08:47:26.000Z</time>
      </trkpt>
      <trkpt lat="45.58746" lon="6.61552">
        <ele>2445.1999511719</ele>
        <time>2015-04-07T08:47:29.000Z</time>
      </trkpt>
      <trkpt lat="45.58746" lon="6.61552">
        <ele>2445.3999023438</ele>
        <time>2015-04-07T08:47:31.000Z</time>
      </trkpt>
      <trkpt lat="45.58746" lon="6.6155">
        <ele>2445.8000488281</ele>
        <time>2015-04-07T08:47:34.000Z</time>
      </trkpt>
      <trkpt lat="45.58747" lon="6.61548">
        <ele>2446.6000976562</ele>
        <time>2015-04-07T08:47:36.000Z</time>
      </trkpt>
      <trkpt lat="45.58748" lon="6.61545">
        <ele>2447.3999023438</ele>
        <time>2015-04-07T08:47:39.000Z</time>
      </trkpt>
      <trkpt lat="45.58748" lon="6.61542">
        <ele>2447.6000976562</ele>
        <time>2015-04-07T08:47:42.000Z</time>
      </trkpt>
      <trkpt lat="45.58748" lon="6.6154">
        <ele>2448</ele>
        <time>2015-04-07T08:47:44.000Z</time>
      </trkpt>
      <trkpt lat="45.58749" lon="6.61538">
        <ele>2448.6000976562</ele>
        <time>2015-04-07T08:47:47.000Z</time>
      </trkpt>
      <trkpt lat="45.5875" lon="6.61535">
        <ele>2449.1999511719</ele>
        <time>2015-04-07T08:47:50.000Z</time>
      </trkpt>
      <trkpt lat="45.58751" lon="6.61533">
        <ele>2449.8000488281</ele>
        <time>2015-04-07T08:47:54.000Z</time>
      </trkpt>
      <trkpt lat="45.58751" lon="6.61531">
        <ele>2450.3999023438</ele>
        <time>2015-04-07T08:47:56.000Z</time>
      </trkpt>
      <trkpt lat="45.58753" lon="6.61528">
        <ele>2451</ele>
        <time>2015-04-07T08:48:01.000Z</time>
      </trkpt>
      <trkpt lat="45.58754" lon="6.61527">
        <ele>2451.1999511719</ele>
        <time>2015-04-07T08:48:02.000Z</time>
      </trkpt>
      <trkpt lat="45.58757" lon="6.61525">
        <ele>2452</ele>
        <time>2015-04-07T08:48:06.000Z</time>
      </trkpt>
      <trkpt lat="45.5876" lon="6.61521">
        <ele>2453</ele>
        <time>2015-04-07T08:48:11.000Z</time>
      </trkpt>
      <trkpt lat="45.58761" lon="6.61521">
        <ele>2453.1999511719</ele>
        <time>2015-04-07T08:48:12.000Z</time>
      </trkpt>
      <trkpt lat="45.58761" lon="6.61519">
        <ele>2453.8000488281</ele>
        <time>2015-04-07T08:48:16.000Z</time>
      </trkpt>
      <trkpt lat="45.58761" lon="6.61519">
        <ele>2454.6000976562</ele>
        <time>2015-04-07T08:48:20.000Z</time>
      </trkpt>
      <trkpt lat="45.58762" lon="6.61521">
        <ele>2455</ele>
        <time>2015-04-07T08:48:22.000Z</time>
      </trkpt>
      <trkpt lat="45.58763" lon="6.61523">
        <ele>2455.6000976562</ele>
        <time>2015-04-07T08:48:24.000Z</time>
      </trkpt>
      <trkpt lat="45.58763" lon="6.61526">
        <ele>2456.1999511719</ele>
        <time>2015-04-07T08:48:28.000Z</time>
      </trkpt>
      <trkpt lat="45.58766" lon="6.61528">
        <ele>2456.8000488281</ele>
        <time>2015-04-07T08:48:31.000Z</time>
      </trkpt>
      <trkpt lat="45.58768" lon="6.6153">
        <ele>2457.3999023438</ele>
        <time>2015-04-07T08:48:34.000Z</time>
      </trkpt>
      <trkpt lat="45.58769" lon="6.61532">
        <ele>2457.8000488281</ele>
        <time>2015-04-07T08:48:37.000Z</time>
      </trkpt>
      <trkpt lat="45.58772" lon="6.61534">
        <ele>2458.8000488281</ele>
        <time>2015-04-07T08:48:41.000Z</time>
      </trkpt>
      <trkpt lat="45.58774" lon="6.61536">
        <ele>2459.8000488281</ele>
        <time>2015-04-07T08:48:47.000Z</time>
      </trkpt>
      <trkpt lat="45.58775" lon="6.61536">
        <ele>2460</ele>
        <time>2015-04-07T08:48:48.000Z</time>
      </trkpt>
      <trkpt lat="45.58779" lon="6.61538">
        <ele>2461</ele>
        <time>2015-04-07T08:48:53.000Z</time>
      </trkpt>
      <trkpt lat="45.5878" lon="6.6154">
        <ele>2461.8000488281</ele>
        <time>2015-04-07T08:48:56.000Z</time>
      </trkpt>
      <trkpt lat="45.58782" lon="6.61542">
        <ele>2462.1999511719</ele>
        <time>2015-04-07T08:48:59.000Z</time>
      </trkpt>
      <trkpt lat="45.58783" lon="6.61544">
        <ele>2462.8000488281</ele>
        <time>2015-04-07T08:49:02.000Z</time>
      </trkpt>
      <trkpt lat="45.58784" lon="6.61545">
        <ele>2463.1999511719</ele>
        <time>2015-04-07T08:49:04.000Z</time>
      </trkpt>
      <trkpt lat="45.58787" lon="6.61548">
        <ele>2464</ele>
        <time>2015-04-07T08:49:09.000Z</time>
      </trkpt>
      <trkpt lat="45.58788" lon="6.6155">
        <ele>2464.3999023438</ele>
        <time>2015-04-07T08:49:11.000Z</time>
      </trkpt>
      <trkpt lat="45.58789" lon="6.61552">
        <ele>2465.1999511719</ele>
        <time>2015-04-07T08:49:15.000Z</time>
      </trkpt>
      <trkpt lat="45.58789" lon="6.61553">
        <ele>2465.3999023438</ele>
        <time>2015-04-07T08:49:16.000Z</time>
      </trkpt>
      <trkpt lat="45.58792" lon="6.61555">
        <ele>2466.3999023438</ele>
        <time>2015-04-07T08:49:21.000Z</time>
      </trkpt>
      <trkpt lat="45.58792" lon="6.61555">
        <ele>2466.6000976562</ele>
        <time>2015-04-07T08:49:22.000Z</time>
      </trkpt>
      <trkpt lat="45.58792" lon="6.61555">
        <ele>2467.6000976562</ele>
        <time>2015-04-07T08:49:26.000Z</time>
      </trkpt>
      <trkpt lat="45.58792" lon="6.61555">
        <ele>2467.8000488281</ele>
        <time>2015-04-07T08:49:30.000Z</time>
      </trkpt>
      <trkpt lat="45.58793" lon="6.61558">
        <ele>2467.6000976562</ele>
        <time>2015-04-07T08:49:41.000Z</time>
      </trkpt>
      <trkpt lat="45.58797" lon="6.61561">
        <ele>2468.8000488281</ele>
        <time>2015-04-07T08:49:47.000Z</time>
      </trkpt>
      <trkpt lat="45.58797" lon="6.61562">
        <ele>2469</ele>
        <time>2015-04-07T08:49:48.000Z</time>
      </trkpt>
      <trkpt lat="45.588" lon="6.61564">
        <ele>2469.8000488281</ele>
        <time>2015-04-07T08:49:52.000Z</time>
      </trkpt>
      <trkpt lat="45.58801" lon="6.61566">
        <ele>2470.3999023438</ele>
        <time>2015-04-07T08:49:55.000Z</time>
      </trkpt>
      <trkpt lat="45.58802" lon="6.61568">
        <ele>2471</ele>
        <time>2015-04-07T08:49:58.000Z</time>
      </trkpt>
      <trkpt lat="45.58805" lon="6.61568">
        <ele>2471.8000488281</ele>
        <time>2015-04-07T08:50:03.000Z</time>
      </trkpt>
      <trkpt lat="45.58806" lon="6.61567">
        <ele>2472.1999511719</ele>
        <time>2015-04-07T08:50:04.000Z</time>
      </trkpt>
      <trkpt lat="45.58808" lon="6.61566">
        <ele>2473.3999023438</ele>
        <time>2015-04-07T08:50:09.000Z</time>
      </trkpt>
      <trkpt lat="45.58809" lon="6.61566">
        <ele>2473.6000976562</ele>
        <time>2015-04-07T08:50:10.000Z</time>
      </trkpt>
      <trkpt lat="45.5881" lon="6.61565">
        <ele>2474.3999023438</ele>
        <time>2015-04-07T08:50:14.000Z</time>
      </trkpt>
      <trkpt lat="45.58812" lon="6.61565">
        <ele>2474.6000976562</ele>
        <time>2015-04-07T08:50:16.000Z</time>
      </trkpt>
      <trkpt lat="45.58815" lon="6.61563">
        <ele>2475.3999023438</ele>
        <time>2015-04-07T08:50:20.000Z</time>
      </trkpt>
      <trkpt lat="45.58816" lon="6.61562">
        <ele>2475.6000976562</ele>
        <time>2015-04-07T08:50:22.000Z</time>
      </trkpt>
      <trkpt lat="45.58818" lon="6.6156">
        <ele>2476.3999023438</ele>
        <time>2015-04-07T08:50:25.000Z</time>
      </trkpt>
      <trkpt lat="45.5882" lon="6.61559">
        <ele>2477</ele>
        <time>2015-04-07T08:50:27.000Z</time>
      </trkpt>
      <trkpt lat="45.58821" lon="6.61557">
        <ele>2477.6000976562</ele>
        <time>2015-04-07T08:50:30.000Z</time>
      </trkpt>
      <trkpt lat="45.58821" lon="6.61555">
        <ele>2477.8000488281</ele>
        <time>2015-04-07T08:50:33.000Z</time>
      </trkpt>
      <trkpt lat="45.58822" lon="6.61552">
        <ele>2478.6000976562</ele>
        <time>2015-04-07T08:50:37.000Z</time>
      </trkpt>
      <trkpt lat="45.58823" lon="6.6155">
        <ele>2479</ele>
        <time>2015-04-07T08:50:39.000Z</time>
      </trkpt>
      <trkpt lat="45.58826" lon="6.61547">
        <ele>2479.6000976562</ele>
        <time>2015-04-07T08:50:44.000Z</time>
      </trkpt>
      <trkpt lat="45.58826" lon="6.61547">
        <ele>2479.8000488281</ele>
        <time>2015-04-07T08:50:45.000Z</time>
      </trkpt>
      <trkpt lat="45.58827" lon="6.61545">
        <ele>2481</ele>
        <time>2015-04-07T08:50:49.000Z</time>
      </trkpt>
      <trkpt lat="45.58827" lon="6.61544">
        <ele>2481.6000976562</ele>
        <time>2015-04-07T08:50:51.000Z</time>
      </trkpt>
      <trkpt lat="45.58828" lon="6.61542">
        <ele>2482.1999511719</ele>
        <time>2015-04-07T08:50:54.000Z</time>
      </trkpt>
      <trkpt lat="45.58828" lon="6.61541">
        <ele>2482.3999023438</ele>
        <time>2015-04-07T08:50:56.000Z</time>
      </trkpt>
      <trkpt lat="45.58828" lon="6.61538">
        <ele>2483.1999511719</ele>
        <time>2015-04-07T08:51:00.000Z</time>
      </trkpt>
      <trkpt lat="45.58828" lon="6.61536">
        <ele>2483.6000976562</ele>
        <time>2015-04-07T08:51:03.000Z</time>
      </trkpt>
      <trkpt lat="45.58828" lon="6.61533">
        <ele>2484.3999023438</ele>
        <time>2015-04-07T08:51:06.000Z</time>
      </trkpt>
      <trkpt lat="45.58828" lon="6.6153">
        <ele>2485.3999023438</ele>
        <time>2015-04-07T08:51:12.000Z</time>
      </trkpt>
      <trkpt lat="45.58828" lon="6.61528">
        <ele>2486.3999023438</ele>
        <time>2015-04-07T08:51:17.000Z</time>
      </trkpt>
      <trkpt lat="45.58828" lon="6.61528">
        <ele>2486.6000976562</ele>
        <time>2015-04-07T08:51:18.000Z</time>
      </trkpt>
      <trkpt lat="45.58828" lon="6.61527">
        <ele>2487.3999023438</ele>
        <time>2015-04-07T08:51:26.000Z</time>
      </trkpt>
      <trkpt lat="45.58828" lon="6.61525">
        <ele>2487.8000488281</ele>
        <time>2015-04-07T08:51:28.000Z</time>
      </trkpt>
      <trkpt lat="45.58827" lon="6.61522">
        <ele>2488.6000976562</ele>
        <time>2015-04-07T08:51:33.000Z</time>
      </trkpt>
      <trkpt lat="45.58828" lon="6.61518">
        <ele>2489</ele>
        <time>2015-04-07T08:51:38.000Z</time>
      </trkpt>
      <trkpt lat="45.58828" lon="6.61517">
        <ele>2490</ele>
        <time>2015-04-07T08:51:41.000Z</time>
      </trkpt>
      <trkpt lat="45.58828" lon="6.61517">
        <ele>2490.8000488281</ele>
        <time>2015-04-07T08:51:44.000Z</time>
      </trkpt>
      <trkpt lat="45.58828" lon="6.61517">
        <ele>2491</ele>
        <time>2015-04-07T08:51:55.000Z</time>
      </trkpt>
      <trkpt lat="45.58828" lon="6.61517">
        <ele>2491.3999023438</ele>
        <time>2015-04-07T08:51:56.000Z</time>
      </trkpt>
      <trkpt lat="45.58828" lon="6.61517">
        <ele>2491</ele>
        <time>2015-04-07T08:52:09.000Z</time>
      </trkpt>
      <trkpt lat="45.58828" lon="6.61517">
        <ele>2490.6000976562</ele>
        <time>2015-04-07T08:52:31.000Z</time>
      </trkpt>
      <trkpt lat="45.58829" lon="6.61513">
        <ele>2490.6000976562</ele>
        <time>2015-04-07T08:52:39.000Z</time>
      </trkpt>
      <trkpt lat="45.58829" lon="6.61509">
        <ele>2491.8000488281</ele>
        <time>2015-04-07T08:52:46.000Z</time>
      </trkpt>
      <trkpt lat="45.58829" lon="6.61508">
        <ele>2492.6000976562</ele>
        <time>2015-04-07T08:52:52.000Z</time>
      </trkpt>
      <trkpt lat="45.58829" lon="6.61508">
        <ele>2492.8000488281</ele>
        <time>2015-04-07T08:52:53.000Z</time>
      </trkpt>
      <trkpt lat="45.5883" lon="6.61506">
        <ele>2493</ele>
        <time>2015-04-07T08:53:01.000Z</time>
      </trkpt>
      <trkpt lat="45.58831" lon="6.61507">
        <ele>2493.8000488281</ele>
        <time>2015-04-07T08:53:04.000Z</time>
      </trkpt>
      <trkpt lat="45.58831" lon="6.61507">
        <ele>2494.3999023438</ele>
        <time>2015-04-07T08:53:11.000Z</time>
      </trkpt>
      <trkpt lat="45.58831" lon="6.61507">
        <ele>2494.3999023438</ele>
        <time>2015-04-07T08:53:30.000Z</time>
      </trkpt>
      <trkpt lat="45.58831" lon="6.61507">
        <ele>2494.3999023438</ele>
        <time>2015-04-07T08:53:45.000Z</time>
      </trkpt>
      <trkpt lat="45.58831" lon="6.61507">
        <ele>2494.3999023438</ele>
        <time>2015-04-07T08:53:57.000Z</time>
      </trkpt>
      <trkpt lat="45.58831" lon="6.61507">
        <ele>2493.3999023438</ele>
        <time>2015-04-07T08:54:09.000Z</time>
      </trkpt>
      <trkpt lat="45.58831" lon="6.61507">
        <ele>2494.6000976562</ele>
        <time>2015-04-07T08:54:28.000Z</time>
      </trkpt>
      <trkpt lat="45.58831" lon="6.61507">
        <ele>2494.3999023438</ele>
        <time>2015-04-07T08:54:47.000Z</time>
      </trkpt>
      <trkpt lat="45.58831" lon="6.61507">
        <ele>2494.1999511719</ele>
        <time>2015-04-07T08:55:03.000Z</time>
      </trkpt>
      <trkpt lat="45.58831" lon="6.61507">
        <ele>2494.1999511719</ele>
        <time>2015-04-07T08:55:23.000Z</time>
      </trkpt>
      <trkpt lat="45.58831" lon="6.61507">
        <ele>2494.1999511719</ele>
        <time>2015-04-07T08:55:44.000Z</time>
      </trkpt>
      <trkpt lat="45.58831" lon="6.61507">
        <ele>2494.1999511719</ele>
        <time>2015-04-07T08:56:08.000Z</time>
      </trkpt>
      <trkpt lat="45.58831" lon="6.61507">
        <ele>2494.1999511719</ele>
        <time>2015-04-07T08:56:31.000Z</time>
      </trkpt>
      <trkpt lat="45.58831" lon="6.61507">
        <ele>2494.1999511719</ele>
        <time>2015-04-07T08:56:52.000Z</time>
      </trkpt>
      <trkpt lat="45.58831" lon="6.61507">
        <ele>2494.1999511719</ele>
        <time>2015-04-07T08:57:15.000Z</time>
      </trkpt>
      <trkpt lat="45.58831" lon="6.61507">
        <ele>2494.1999511719</ele>
        <time>2015-04-07T08:57:35.000Z</time>
      </trkpt>
      <trkpt lat="45.58831" lon="6.61507">
        <ele>2494.1999511719</ele>
        <time>2015-04-07T08:57:49.000Z</time>
      </trkpt>
      <trkpt lat="45.58831" lon="6.61507">
        <ele>2494.3999023438</ele>
        <time>2015-04-07T08:58:10.000Z</time>
      </trkpt>
      <trkpt lat="45.58831" lon="6.61507">
        <ele>2494.3999023438</ele>
        <time>2015-04-07T08:58:29.000Z</time>
      </trkpt>
      <trkpt lat="45.58831" lon="6.61507">
        <ele>2494.1999511719</ele>
        <time>2015-04-07T08:58:49.000Z</time>
      </trkpt>
      <trkpt lat="45.58831" lon="6.61507">
        <ele>2494.8000488281</ele>
        <time>2015-04-07T08:58:54.000Z</time>
      </trkpt>
      <trkpt lat="45.58831" lon="6.61507">
        <ele>2494.1999511719</ele>
        <time>2015-04-07T08:59:07.000Z</time>
      </trkpt>
      <trkpt lat="45.58831" lon="6.61507">
        <ele>2494.1999511719</ele>
        <time>2015-04-07T08:59:23.000Z</time>
      </trkpt>
      <trkpt lat="45.58831" lon="6.61507">
        <ele>2494.1999511719</ele>
        <time>2015-04-07T08:59:41.000Z</time>
      </trkpt>
      <trkpt lat="45.58831" lon="6.61507">
        <ele>2494.3999023438</ele>
        <time>2015-04-07T08:59:52.000Z</time>
      </trkpt>
      <trkpt lat="45.58831" lon="6.61507">
        <ele>2494.1999511719</ele>
        <time>2015-04-07T09:00:06.000Z</time>
      </trkpt>
      <trkpt lat="45.58831" lon="6.61506">
        <ele>2494.1999511719</ele>
        <time>2015-04-07T09:00:14.000Z</time>
      </trkpt>
      <trkpt lat="45.58831" lon="6.61506">
        <ele>2493.8000488281</ele>
        <time>2015-04-07T09:00:26.000Z</time>
      </trkpt>
      <trkpt lat="45.58831" lon="6.61506">
        <ele>2494.6000976562</ele>
        <time>2015-04-07T09:00:29.000Z</time>
      </trkpt>
      <trkpt lat="45.58832" lon="6.61507">
        <ele>2495</ele>
        <time>2015-04-07T09:00:30.000Z</time>
      </trkpt>
      <trkpt lat="45.58835" lon="6.61508">
        <ele>2495.1999511719</ele>
        <time>2015-04-07T09:00:32.000Z</time>
      </trkpt>
      <trkpt lat="45.58837" lon="6.61508">
        <ele>2495</ele>
        <time>2015-04-07T09:00:35.000Z</time>
      </trkpt>
      <trkpt lat="45.58838" lon="6.6151">
        <ele>2495</ele>
        <time>2015-04-07T09:00:41.000Z</time>
      </trkpt>
      <trkpt lat="45.58843" lon="6.61514">
        <ele>2495.3999023438</ele>
        <time>2015-04-07T09:00:47.000Z</time>
      </trkpt>
      <trkpt lat="45.58845" lon="6.61515">
        <ele>2496</ele>
        <time>2015-04-07T09:00:50.000Z</time>
      </trkpt>
      <trkpt lat="45.58848" lon="6.61516">
        <ele>2496.6000976562</ele>
        <time>2015-04-07T09:00:53.000Z</time>
      </trkpt>
      <trkpt lat="45.5885" lon="6.61517">
        <ele>2497.1999511719</ele>
        <time>2015-04-07T09:00:56.000Z</time>
      </trkpt>
      <trkpt lat="45.58853" lon="6.61518">
        <ele>2497.6000976562</ele>
        <time>2015-04-07T09:00:59.000Z</time>
      </trkpt>
      <trkpt lat="45.58855" lon="6.6152">
        <ele>2498.1999511719</ele>
        <time>2015-04-07T09:01:02.000Z</time>
      </trkpt>
      <trkpt lat="45.58857" lon="6.61522">
        <ele>2498.8000488281</ele>
        <time>2015-04-07T09:01:06.000Z</time>
      </trkpt>
      <trkpt lat="45.58859" lon="6.61524">
        <ele>2499.3999023438</ele>
        <time>2015-04-07T09:01:09.000Z</time>
      </trkpt>
      <trkpt lat="45.58861" lon="6.61526">
        <ele>2499.6000976562</ele>
        <time>2015-04-07T09:01:13.000Z</time>
      </trkpt>
      <trkpt lat="45.58862" lon="6.61528">
        <ele>2500.3999023438</ele>
        <time>2015-04-07T09:01:16.000Z</time>
      </trkpt>
      <trkpt lat="45.58863" lon="6.61529">
        <ele>2500.8000488281</ele>
        <time>2015-04-07T09:01:18.000Z</time>
      </trkpt>
      <trkpt lat="45.58863" lon="6.6153">
        <ele>2501.3999023438</ele>
        <time>2015-04-07T09:01:20.000Z</time>
      </trkpt>
      <trkpt lat="45.58866" lon="6.61533">
        <ele>2502.3999023438</ele>
        <time>2015-04-07T09:01:24.000Z</time>
      </trkpt>
      <trkpt lat="45.58868" lon="6.61535">
        <ele>2503.1999511719</ele>
        <time>2015-04-07T09:01:28.000Z</time>
      </trkpt>
      <trkpt lat="45.58868" lon="6.61535">
        <ele>2503.1999511719</ele>
        <time>2015-04-07T09:01:29.000Z</time>
      </trkpt>
      <trkpt lat="45.58869" lon="6.61536">
        <ele>2503.3999023438</ele>
        <time>2015-04-07T09:01:31.000Z</time>
      </trkpt>
      <trkpt lat="45.5887" lon="6.61538">
        <ele>2504.3999023438</ele>
        <time>2015-04-07T09:01:35.000Z</time>
      </trkpt>
      <trkpt lat="45.58871" lon="6.61538">
        <ele>2504.6000976562</ele>
        <time>2015-04-07T09:01:36.000Z</time>
      </trkpt>
      <trkpt lat="45.58872" lon="6.6154">
        <ele>2505.6000976562</ele>
        <time>2015-04-07T09:01:40.000Z</time>
      </trkpt>
      <trkpt lat="45.58873" lon="6.61541">
        <ele>2505.8000488281</ele>
        <time>2015-04-07T09:01:41.000Z</time>
      </trkpt>
      <trkpt lat="45.58875" lon="6.61543">
        <ele>2506.3999023438</ele>
        <time>2015-04-07T09:01:46.000Z</time>
      </trkpt>
      <trkpt lat="45.58876" lon="6.61544">
        <ele>2506.8000488281</ele>
        <time>2015-04-07T09:01:47.000Z</time>
      </trkpt>
      <trkpt lat="45.58879" lon="6.61547">
        <ele>2508</ele>
        <time>2015-04-07T09:01:52.000Z</time>
      </trkpt>
      <trkpt lat="45.5888" lon="6.61548">
        <ele>2508.1999511719</ele>
        <time>2015-04-07T09:01:53.000Z</time>
      </trkpt>
      <trkpt lat="45.58883" lon="6.61551">
        <ele>2509</ele>
        <time>2015-04-07T09:01:57.000Z</time>
      </trkpt>
      <trkpt lat="45.58884" lon="6.61553">
        <ele>2509.3999023438</ele>
        <time>2015-04-07T09:01:59.000Z</time>
      </trkpt>
      <trkpt lat="45.58886" lon="6.61555">
        <ele>2510.1999511719</ele>
        <time>2015-04-07T09:02:04.000Z</time>
      </trkpt>
      <trkpt lat="45.58887" lon="6.61556">
        <ele>2510.3999023438</ele>
        <time>2015-04-07T09:02:05.000Z</time>
      </trkpt>
      <trkpt lat="45.58889" lon="6.61559">
        <ele>2511.1999511719</ele>
        <time>2015-04-07T09:02:09.000Z</time>
      </trkpt>
      <trkpt lat="45.5889" lon="6.6156">
        <ele>2511.3999023438</ele>
        <time>2015-04-07T09:02:10.000Z</time>
      </trkpt>
      <trkpt lat="45.58894" lon="6.61564">
        <ele>2512.1999511719</ele>
        <time>2015-04-07T09:02:16.000Z</time>
      </trkpt>
      <trkpt lat="45.58898" lon="6.6157">
        <ele>2512.8000488281</ele>
        <time>2015-04-07T09:02:21.000Z</time>
      </trkpt>
      <trkpt lat="45.58904" lon="6.61576">
        <ele>2513</ele>
        <time>2015-04-07T09:02:28.000Z</time>
      </trkpt>
      <trkpt lat="45.58907" lon="6.61579">
        <ele>2513.3999023438</ele>
        <time>2015-04-07T09:02:31.000Z</time>
      </trkpt>
      <trkpt lat="45.58909" lon="6.6158">
        <ele>2513.6000976562</ele>
        <time>2015-04-07T09:02:33.000Z</time>
      </trkpt>
      <trkpt lat="45.58915" lon="6.61585">
        <ele>2514.3999023438</ele>
        <time>2015-04-07T09:02:40.000Z</time>
      </trkpt>
      <trkpt lat="45.5892" lon="6.61588">
        <ele>2514.6000976562</ele>
        <time>2015-04-07T09:02:45.000Z</time>
      </trkpt>
      <trkpt lat="45.58927" lon="6.61592">
        <ele>2515</ele>
        <time>2015-04-07T09:02:51.000Z</time>
      </trkpt>
      <trkpt lat="45.58933" lon="6.61594">
        <ele>2515.3999023438</ele>
        <time>2015-04-07T09:02:57.000Z</time>
      </trkpt>
      <trkpt lat="45.58934" lon="6.61594">
        <ele>2515.3999023438</ele>
        <time>2015-04-07T09:02:58.000Z</time>
      </trkpt>
      <trkpt lat="45.58939" lon="6.61595">
        <ele>2515.8000488281</ele>
        <time>2015-04-07T09:03:03.000Z</time>
      </trkpt>
      <trkpt lat="45.58943" lon="6.61595">
        <ele>2516.3999023438</ele>
        <time>2015-04-07T09:03:09.000Z</time>
      </trkpt>
      <trkpt lat="45.58943" lon="6.61595">
        <ele>2516.6000976562</ele>
        <time>2015-04-07T09:03:11.000Z</time>
      </trkpt>
      <trkpt lat="45.58943" lon="6.61595">
        <ele>2516.6000976562</ele>
        <time>2015-04-07T09:03:19.000Z</time>
      </trkpt>
      <trkpt lat="45.58943" lon="6.61595">
        <ele>2516.3999023438</ele>
        <time>2015-04-07T09:03:30.000Z</time>
      </trkpt>
      <trkpt lat="45.58943" lon="6.61595">
        <ele>2516.6000976562</ele>
        <time>2015-04-07T09:03:49.000Z</time>
      </trkpt>
      <trkpt lat="45.58943" lon="6.61595">
        <ele>2516.8000488281</ele>
        <time>2015-04-07T09:04:04.000Z</time>
      </trkpt>
      <trkpt lat="45.58943" lon="6.61595">
        <ele>2516.6000976562</ele>
        <time>2015-04-07T09:04:13.000Z</time>
      </trkpt>
      <trkpt lat="45.58943" lon="6.61595">
        <ele>2516.6000976562</ele>
        <time>2015-04-07T09:04:21.000Z</time>
      </trkpt>
      <trkpt lat="45.58943" lon="6.61595">
        <ele>2517</ele>
        <time>2015-04-07T09:04:38.000Z</time>
      </trkpt>
      <trkpt lat="45.58943" lon="6.61595">
        <ele>2517</ele>
        <time>2015-04-07T09:04:53.000Z</time>
      </trkpt>
      <trkpt lat="45.58943" lon="6.61595">
        <ele>2516.8000488281</ele>
        <time>2015-04-07T09:05:21.000Z</time>
      </trkpt>
      <trkpt lat="45.58943" lon="6.61595">
        <ele>2516.6000976562</ele>
        <time>2015-04-07T09:05:40.000Z</time>
      </trkpt>
      <trkpt lat="45.58943" lon="6.61595">
        <ele>2516.8000488281</ele>
        <time>2015-04-07T09:05:59.000Z</time>
      </trkpt>
      <trkpt lat="45.58943" lon="6.61595">
        <ele>2516.6000976562</ele>
        <time>2015-04-07T09:06:22.000Z</time>
      </trkpt>
      <trkpt lat="45.58943" lon="6.61595">
        <ele>2516.6000976562</ele>
        <time>2015-04-07T09:06:37.000Z</time>
      </trkpt>
      <trkpt lat="45.58943" lon="6.61595">
        <ele>2516.8000488281</ele>
        <time>2015-04-07T09:06:57.000Z</time>
      </trkpt>
      <trkpt lat="45.58943" lon="6.61595">
        <ele>2516.1999511719</ele>
        <time>2015-04-07T09:07:16.000Z</time>
      </trkpt>
      <trkpt lat="45.58943" lon="6.61595">
        <ele>2516</ele>
        <time>2015-04-07T09:07:40.000Z</time>
      </trkpt>
      <trkpt lat="45.58943" lon="6.61595">
        <ele>2515.8000488281</ele>
        <time>2015-04-07T09:07:41.000Z</time>
      </trkpt>
      <trkpt lat="45.58943" lon="6.61596">
        <ele>2516</ele>
        <time>2015-04-07T09:07:53.000Z</time>
      </trkpt>
      <trkpt lat="45.58943" lon="6.61596">
        <ele>2515.8000488281</ele>
        <time>2015-04-07T09:08:14.000Z</time>
      </trkpt>
      <trkpt lat="45.58943" lon="6.61596">
        <ele>2515.8000488281</ele>
        <time>2015-04-07T09:08:41.000Z</time>
      </trkpt>
      <trkpt lat="45.58943" lon="6.61596">
        <ele>2515.8000488281</ele>
        <time>2015-04-07T09:09:07.000Z</time>
      </trkpt>
      <trkpt lat="45.58943" lon="6.61596">
        <ele>2515.6000976562</ele>
        <time>2015-04-07T09:09:30.000Z</time>
      </trkpt>
      <trkpt lat="45.58943" lon="6.61596">
        <ele>2515.8000488281</ele>
        <time>2015-04-07T09:09:51.000Z</time>
      </trkpt>
      <trkpt lat="45.58943" lon="6.61596">
        <ele>2515.6000976562</ele>
        <time>2015-04-07T09:10:09.000Z</time>
      </trkpt>
      <trkpt lat="45.58943" lon="6.61596">
        <ele>2515.3999023438</ele>
        <time>2015-04-07T09:10:11.000Z</time>
      </trkpt>
      <trkpt lat="45.58943" lon="6.61596">
        <ele>2515.3999023438</ele>
        <time>2015-04-07T09:10:22.000Z</time>
      </trkpt>
      <trkpt lat="45.58943" lon="6.61596">
        <ele>2515.6000976562</ele>
        <time>2015-04-07T09:10:40.000Z</time>
      </trkpt>
      <trkpt lat="45.58943" lon="6.61596">
        <ele>2515.6000976562</ele>
        <time>2015-04-07T09:10:53.000Z</time>
      </trkpt>
      <trkpt lat="45.58943" lon="6.61596">
        <ele>2515.6000976562</ele>
        <time>2015-04-07T09:11:01.000Z</time>
      </trkpt>
      <trkpt lat="45.58946" lon="6.61597">
        <ele>2515.6000976562</ele>
        <time>2015-04-07T09:11:08.000Z</time>
      </trkpt>
      <trkpt lat="45.58951" lon="6.61596">
        <ele>2515.3999023438</ele>
        <time>2015-04-07T09:11:13.000Z</time>
      </trkpt>
      <trkpt lat="45.58954" lon="6.61595">
        <ele>2514.3999023438</ele>
        <time>2015-04-07T09:11:16.000Z</time>
      </trkpt>
      <trkpt lat="45.58958" lon="6.61593">
        <ele>2513.6000976562</ele>
        <time>2015-04-07T09:11:18.000Z</time>
      </trkpt>
      <trkpt lat="45.58961" lon="6.61592">
        <ele>2513</ele>
        <time>2015-04-07T09:11:19.000Z</time>
      </trkpt>
      <trkpt lat="45.58967" lon="6.61589">
        <ele>2511.8000488281</ele>
        <time>2015-04-07T09:11:21.000Z</time>
      </trkpt>
      <trkpt lat="45.58971" lon="6.61587">
        <ele>2510.3999023438</ele>
        <time>2015-04-07T09:11:23.000Z</time>
      </trkpt>
      <trkpt lat="45.58973" lon="6.61587">
        <ele>2508.3999023438</ele>
        <time>2015-04-07T09:11:25.000Z</time>
      </trkpt>
      <trkpt lat="45.58976" lon="6.61585">
        <ele>2507.3999023438</ele>
        <time>2015-04-07T09:11:27.000Z</time>
      </trkpt>
      <trkpt lat="45.58977" lon="6.61585">
        <ele>2507.1999511719</ele>
        <time>2015-04-07T09:11:28.000Z</time>
      </trkpt>
      <trkpt lat="45.58979" lon="6.61584">
        <ele>2506.1999511719</ele>
        <time>2015-04-07T09:11:31.000Z</time>
      </trkpt>
      <trkpt lat="45.58986" lon="6.61581">
        <ele>2505.3999023438</ele>
        <time>2015-04-07T09:11:35.000Z</time>
      </trkpt>
      <trkpt lat="45.5899" lon="6.6158">
        <ele>2505.1999511719</ele>
        <time>2015-04-07T09:11:36.000Z</time>
      </trkpt>
      <trkpt lat="45.59001" lon="6.61577">
        <ele>2504</ele>
        <time>2015-04-07T09:11:39.000Z</time>
      </trkpt>
      <trkpt lat="45.59003" lon="6.61576">
        <ele>2502.3999023438</ele>
        <time>2015-04-07T09:11:40.000Z</time>
      </trkpt>
      <trkpt lat="45.59005" lon="6.61576">
        <ele>2501</ele>
        <time>2015-04-07T09:11:42.000Z</time>
      </trkpt>
      <trkpt lat="45.59006" lon="6.61575">
        <ele>2500</ele>
        <time>2015-04-07T09:11:44.000Z</time>
      </trkpt>
      <trkpt lat="45.59006" lon="6.61575">
        <ele>2499.6000976562</ele>
        <time>2015-04-07T09:11:45.000Z</time>
      </trkpt>
      <trkpt lat="45.59009" lon="6.61575">
        <ele>2498.8000488281</ele>
        <time>2015-04-07T09:11:49.000Z</time>
      </trkpt>
      <trkpt lat="45.59011" lon="6.61575">
        <ele>2499</ele>
        <time>2015-04-07T09:11:55.000Z</time>
      </trkpt>
      <trkpt lat="45.59013" lon="6.61574">
        <ele>2499</ele>
        <time>2015-04-07T09:12:05.000Z</time>
      </trkpt>
      <trkpt lat="45.59017" lon="6.61573">
        <ele>2498.8000488281</ele>
        <time>2015-04-07T09:12:08.000Z</time>
      </trkpt>
      <trkpt lat="45.59025" lon="6.6157">
        <ele>2498.6000976562</ele>
        <time>2015-04-07T09:12:11.000Z</time>
      </trkpt>
      <trkpt lat="45.59037" lon="6.61565">
        <ele>2497.3999023438</ele>
        <time>2015-04-07T09:12:14.000Z</time>
      </trkpt>
      <trkpt lat="45.59045" lon="6.61562">
        <ele>2496.1999511719</ele>
        <time>2015-04-07T09:12:16.000Z</time>
      </trkpt>
      <trkpt lat="45.5905" lon="6.61562">
        <ele>2494.3999023438</ele>
        <time>2015-04-07T09:12:18.000Z</time>
      </trkpt>
      <trkpt lat="45.59054" lon="6.61561">
        <ele>2492.8000488281</ele>
        <time>2015-04-07T09:12:20.000Z</time>
      </trkpt>
      <trkpt lat="45.59057" lon="6.6156">
        <ele>2491.6000976562</ele>
        <time>2015-04-07T09:12:23.000Z</time>
      </trkpt>
      <trkpt lat="45.59058" lon="6.61559">
        <ele>2491.1999511719</ele>
        <time>2015-04-07T09:12:25.000Z</time>
      </trkpt>
      <trkpt lat="45.59062" lon="6.61557">
        <ele>2491.1999511719</ele>
        <time>2015-04-07T09:12:31.000Z</time>
      </trkpt>
      <trkpt lat="45.59063" lon="6.61556">
        <ele>2491.6000976562</ele>
        <time>2015-04-07T09:12:40.000Z</time>
      </trkpt>
      <trkpt lat="45.59068" lon="6.61555">
        <ele>2491.1999511719</ele>
        <time>2015-04-07T09:12:46.000Z</time>
      </trkpt>
      <trkpt lat="45.59071" lon="6.61553">
        <ele>2491.3999023438</ele>
        <time>2015-04-07T09:12:51.000Z</time>
      </trkpt>
      <trkpt lat="45.59076" lon="6.61549">
        <ele>2491.8000488281</ele>
        <time>2015-04-07T09:12:57.000Z</time>
      </trkpt>
      <trkpt lat="45.5908" lon="6.61547">
        <ele>2492.3999023438</ele>
        <time>2015-04-07T09:13:02.000Z</time>
      </trkpt>
      <trkpt lat="45.59079" lon="6.61547">
        <ele>2492.6000976562</ele>
        <time>2015-04-07T09:13:03.000Z</time>
      </trkpt>
      <trkpt lat="45.59083" lon="6.61546">
        <ele>2493</ele>
        <time>2015-04-07T09:13:07.000Z</time>
      </trkpt>
      <trkpt lat="45.59086" lon="6.61545">
        <ele>2493.8000488281</ele>
        <time>2015-04-07T09:13:11.000Z</time>
      </trkpt>
      <trkpt lat="45.59089" lon="6.61544">
        <ele>2494.3999023438</ele>
        <time>2015-04-07T09:13:14.000Z</time>
      </trkpt>
      <trkpt lat="45.59092" lon="6.61544">
        <ele>2494.8000488281</ele>
        <time>2015-04-07T09:13:17.000Z</time>
      </trkpt>
      <trkpt lat="45.59094" lon="6.61543">
        <ele>2495.1999511719</ele>
        <time>2015-04-07T09:13:20.000Z</time>
      </trkpt>
      <trkpt lat="45.59099" lon="6.61542">
        <ele>2495.8000488281</ele>
        <time>2015-04-07T09:13:26.000Z</time>
      </trkpt>
      <trkpt lat="45.59101" lon="6.61542">
        <ele>2496</ele>
        <time>2015-04-07T09:13:28.000Z</time>
      </trkpt>
      <trkpt lat="45.59104" lon="6.61541">
        <ele>2496.8000488281</ele>
        <time>2015-04-07T09:13:32.000Z</time>
      </trkpt>
      <trkpt lat="45.59105" lon="6.61541">
        <ele>2497</ele>
        <time>2015-04-07T09:13:33.000Z</time>
      </trkpt>
      <trkpt lat="45.59111" lon="6.61541">
        <ele>2497.8000488281</ele>
        <time>2015-04-07T09:13:39.000Z</time>
      </trkpt>
      <trkpt lat="45.59112" lon="6.6154">
        <ele>2498</ele>
        <time>2015-04-07T09:13:40.000Z</time>
      </trkpt>
      <trkpt lat="45.59118" lon="6.61539">
        <ele>2498.8000488281</ele>
        <time>2015-04-07T09:13:46.000Z</time>
      </trkpt>
      <trkpt lat="45.59124" lon="6.61538">
        <ele>2499.1999511719</ele>
        <time>2015-04-07T09:13:53.000Z</time>
      </trkpt>
      <trkpt lat="45.59128" lon="6.61537">
        <ele>2500</ele>
        <time>2015-04-07T09:13:59.000Z</time>
      </trkpt>
      <trkpt lat="45.5913" lon="6.61536">
        <ele>2500.1999511719</ele>
        <time>2015-04-07T09:14:00.000Z</time>
      </trkpt>
      <trkpt lat="45.59133" lon="6.61536">
        <ele>2501</ele>
        <time>2015-04-07T09:14:05.000Z</time>
      </trkpt>
      <trkpt lat="45.59136" lon="6.61536">
        <ele>2501.3999023438</ele>
        <time>2015-04-07T09:14:09.000Z</time>
      </trkpt>
      <trkpt lat="45.59139" lon="6.61536">
        <ele>2501.3999023438</ele>
        <time>2015-04-07T09:14:12.000Z</time>
      </trkpt>
      <trkpt lat="45.59143" lon="6.61534">
        <ele>2502</ele>
        <time>2015-04-07T09:14:19.000Z</time>
      </trkpt>
      <trkpt lat="45.59146" lon="6.61533">
        <ele>2502.3999023438</ele>
        <time>2015-04-07T09:14:24.000Z</time>
      </trkpt>
      <trkpt lat="45.59146" lon="6.61533">
        <ele>2502.3999023438</ele>
        <time>2015-04-07T09:14:25.000Z</time>
      </trkpt>
      <trkpt lat="45.59149" lon="6.61532">
        <ele>2503.3999023438</ele>
        <time>2015-04-07T09:14:30.000Z</time>
      </trkpt>
      <trkpt lat="45.5915" lon="6.61533">
        <ele>2503.8000488281</ele>
        <time>2015-04-07T09:14:32.000Z</time>
      </trkpt>
      <trkpt lat="45.59152" lon="6.61533">
        <ele>2504.3999023438</ele>
        <time>2015-04-07T09:14:35.000Z</time>
      </trkpt>
      <trkpt lat="45.59154" lon="6.61532">
        <ele>2505</ele>
        <time>2015-04-07T09:14:38.000Z</time>
      </trkpt>
      <trkpt lat="45.59157" lon="6.61532">
        <ele>2505.3999023438</ele>
        <time>2015-04-07T09:14:43.000Z</time>
      </trkpt>
      <trkpt lat="45.59157" lon="6.61532">
        <ele>2505.6000976562</ele>
        <time>2015-04-07T09:14:45.000Z</time>
      </trkpt>
      <trkpt lat="45.5916" lon="6.61535">
        <ele>2506.6000976562</ele>
        <time>2015-04-07T09:14:52.000Z</time>
      </trkpt>
      <trkpt lat="45.5916" lon="6.61536">
        <ele>2506.8000488281</ele>
        <time>2015-04-07T09:14:53.000Z</time>
      </trkpt>
      <trkpt lat="45.59162" lon="6.61538">
        <ele>2507.8000488281</ele>
        <time>2015-04-07T09:14:58.000Z</time>
      </trkpt>
      <trkpt lat="45.59165" lon="6.61539">
        <ele>2508.3999023438</ele>
        <time>2015-04-07T09:15:02.000Z</time>
      </trkpt>
      <trkpt lat="45.59166" lon="6.61539">
        <ele>2508.8000488281</ele>
        <time>2015-04-07T09:15:04.000Z</time>
      </trkpt>
      <trkpt lat="45.59169" lon="6.61537">
        <ele>2510.1999511719</ele>
        <time>2015-04-07T09:15:09.000Z</time>
      </trkpt>
      <trkpt lat="45.5917" lon="6.61536">
        <ele>2510.3999023438</ele>
        <time>2015-04-07T09:15:10.000Z</time>
      </trkpt>
      <trkpt lat="45.59173" lon="6.61534">
        <ele>2511.1999511719</ele>
        <time>2015-04-07T09:15:15.000Z</time>
      </trkpt>
      <trkpt lat="45.59174" lon="6.61533">
        <ele>2512</ele>
        <time>2015-04-07T09:15:18.000Z</time>
      </trkpt>
      <trkpt lat="45.59175" lon="6.61532">
        <ele>2512.1999511719</ele>
        <time>2015-04-07T09:15:19.000Z</time>
      </trkpt>
      <trkpt lat="45.59177" lon="6.6153">
        <ele>2513.1999511719</ele>
        <time>2015-04-07T09:15:24.000Z</time>
      </trkpt>
      <trkpt lat="45.59178" lon="6.6153">
        <ele>2513.1999511719</ele>
        <time>2015-04-07T09:15:25.000Z</time>
      </trkpt>
      <trkpt lat="45.5918" lon="6.61528">
        <ele>2513.8000488281</ele>
        <time>2015-04-07T09:15:30.000Z</time>
      </trkpt>
      <trkpt lat="45.59181" lon="6.61528">
        <ele>2514.3999023438</ele>
        <time>2015-04-07T09:15:34.000Z</time>
      </trkpt>
      <trkpt lat="45.59181" lon="6.61528">
        <ele>2514.3999023438</ele>
        <time>2015-04-07T09:15:35.000Z</time>
      </trkpt>
      <trkpt lat="45.59183" lon="6.6153">
        <ele>2515.3999023438</ele>
        <time>2015-04-07T09:15:42.000Z</time>
      </trkpt>
      <trkpt lat="45.59184" lon="6.61531">
        <ele>2515.6000976562</ele>
        <time>2015-04-07T09:15:43.000Z</time>
      </trkpt>
      <trkpt lat="45.59185" lon="6.61533">
        <ele>2516</ele>
        <time>2015-04-07T09:15:47.000Z</time>
      </trkpt>
      <trkpt lat="45.59186" lon="6.61534">
        <ele>2516.3999023438</ele>
        <time>2015-04-07T09:15:59.000Z</time>
      </trkpt>
      <trkpt lat="45.59188" lon="6.61537">
        <ele>2516.8000488281</ele>
        <time>2015-04-07T09:16:04.000Z</time>
      </trkpt>
      <trkpt lat="45.5919" lon="6.61538">
        <ele>2517.3999023438</ele>
        <time>2015-04-07T09:16:07.000Z</time>
      </trkpt>
      <trkpt lat="45.59191" lon="6.61537">
        <ele>2517.8000488281</ele>
        <time>2015-04-07T09:16:09.000Z</time>
      </trkpt>
      <trkpt lat="45.59192" lon="6.61536">
        <ele>2518.8000488281</ele>
        <time>2015-04-07T09:16:13.000Z</time>
      </trkpt>
      <trkpt lat="45.59193" lon="6.61534">
        <ele>2520</ele>
        <time>2015-04-07T09:16:17.000Z</time>
      </trkpt>
      <trkpt lat="45.59195" lon="6.61532">
        <ele>2521</ele>
        <time>2015-04-07T09:16:22.000Z</time>
      </trkpt>
      <trkpt lat="45.59196" lon="6.61531">
        <ele>2521.1999511719</ele>
        <time>2015-04-07T09:16:23.000Z</time>
      </trkpt>
      <trkpt lat="45.59198" lon="6.61528">
        <ele>2522.1999511719</ele>
        <time>2015-04-07T09:16:28.000Z</time>
      </trkpt>
      <trkpt lat="45.59203" lon="6.61526">
        <ele>2523.1999511719</ele>
        <time>2015-04-07T09:16:33.000Z</time>
      </trkpt>
      <trkpt lat="45.59203" lon="6.61526">
        <ele>2523.3999023438</ele>
        <time>2015-04-07T09:16:34.000Z</time>
      </trkpt>
      <trkpt lat="45.59204" lon="6.61525">
        <ele>2524</ele>
        <time>2015-04-07T09:16:39.000Z</time>
      </trkpt>
      <trkpt lat="45.59206" lon="6.61524">
        <ele>2524.6000976562</ele>
        <time>2015-04-07T09:16:42.000Z</time>
      </trkpt>
      <trkpt lat="45.59208" lon="6.61523">
        <ele>2525</ele>
        <time>2015-04-07T09:16:45.000Z</time>
      </trkpt>
      <trkpt lat="45.59208" lon="6.61523">
        <ele>2525.8000488281</ele>
        <time>2015-04-07T09:16:48.000Z</time>
      </trkpt>
      <trkpt lat="45.59208" lon="6.61523">
        <ele>2526</ele>
        <time>2015-04-07T09:16:54.000Z</time>
      </trkpt>
      <trkpt lat="45.59211" lon="6.61524">
        <ele>2526</ele>
        <time>2015-04-07T09:16:59.000Z</time>
      </trkpt>
      <trkpt lat="45.59214" lon="6.61525">
        <ele>2526.3999023438</ele>
        <time>2015-04-07T09:17:05.000Z</time>
      </trkpt>
      <trkpt lat="45.59215" lon="6.61525">
        <ele>2526.8000488281</ele>
        <time>2015-04-07T09:17:07.000Z</time>
      </trkpt>
      <trkpt lat="45.59219" lon="6.61525">
        <ele>2527.8000488281</ele>
        <time>2015-04-07T09:17:11.000Z</time>
      </trkpt>
      <trkpt lat="45.5922" lon="6.61525">
        <ele>2528.1999511719</ele>
        <time>2015-04-07T09:17:12.000Z</time>
      </trkpt>
      <trkpt lat="45.59221" lon="6.61525">
        <ele>2529</ele>
        <time>2015-04-07T09:17:15.000Z</time>
      </trkpt>
      <trkpt lat="45.59223" lon="6.61524">
        <ele>2529.8000488281</ele>
        <time>2015-04-07T09:17:18.000Z</time>
      </trkpt>
      <trkpt lat="45.59224" lon="6.61524">
        <ele>2530</ele>
        <time>2015-04-07T09:17:19.000Z</time>
      </trkpt>
      <trkpt lat="45.59228" lon="6.61521">
        <ele>2530.6000976562</ele>
        <time>2015-04-07T09:17:24.000Z</time>
      </trkpt>
      <trkpt lat="45.5923" lon="6.6152">
        <ele>2530.8000488281</ele>
        <time>2015-04-07T09:17:29.000Z</time>
      </trkpt>
      <trkpt lat="45.59234" lon="6.61518">
        <ele>2531</ele>
        <time>2015-04-07T09:17:33.000Z</time>
      </trkpt>
      <trkpt lat="45.59235" lon="6.61517">
        <ele>2531.1999511719</ele>
        <time>2015-04-07T09:17:35.000Z</time>
      </trkpt>
      <trkpt lat="45.5924" lon="6.61514">
        <ele>2532.1999511719</ele>
        <time>2015-04-07T09:17:40.000Z</time>
      </trkpt>
      <trkpt lat="45.59241" lon="6.61513">
        <ele>2532.3999023438</ele>
        <time>2015-04-07T09:17:41.000Z</time>
      </trkpt>
      <trkpt lat="45.59245" lon="6.61512">
        <ele>2533.3999023438</ele>
        <time>2015-04-07T09:17:46.000Z</time>
      </trkpt>
      <trkpt lat="45.59246" lon="6.61511">
        <ele>2533.3999023438</ele>
        <time>2015-04-07T09:17:47.000Z</time>
      </trkpt>
      <trkpt lat="45.59248" lon="6.61509">
        <ele>2534.3999023438</ele>
        <time>2015-04-07T09:17:51.000Z</time>
      </trkpt>
      <trkpt lat="45.59249" lon="6.61509">
        <ele>2534.8000488281</ele>
        <time>2015-04-07T09:17:52.000Z</time>
      </trkpt>
      <trkpt lat="45.59249" lon="6.61509">
        <ele>2535.6000976562</ele>
        <time>2015-04-07T09:17:54.000Z</time>
      </trkpt>
      <trkpt lat="45.59251" lon="6.6151">
        <ele>2536.6000976562</ele>
        <time>2015-04-07T09:17:58.000Z</time>
      </trkpt>
      <trkpt lat="45.59256" lon="6.61509">
        <ele>2537.8000488281</ele>
        <time>2015-04-07T09:18:04.000Z</time>
      </trkpt>
      <trkpt lat="45.5926" lon="6.61509">
        <ele>2538.6000976562</ele>
        <time>2015-04-07T09:18:10.000Z</time>
      </trkpt>
      <trkpt lat="45.59262" lon="6.6151">
        <ele>2538.8000488281</ele>
        <time>2015-04-07T09:18:13.000Z</time>
      </trkpt>
      <trkpt lat="45.59266" lon="6.61511">
        <ele>2539</ele>
        <time>2015-04-07T09:18:18.000Z</time>
      </trkpt>
      <trkpt lat="45.59272" lon="6.61513">
        <ele>2539.3999023438</ele>
        <time>2015-04-07T09:18:25.000Z</time>
      </trkpt>
      <trkpt lat="45.59277" lon="6.61514">
        <ele>2539.3999023438</ele>
        <time>2015-04-07T09:18:30.000Z</time>
      </trkpt>
      <trkpt lat="45.59281" lon="6.61514">
        <ele>2539.8000488281</ele>
        <time>2015-04-07T09:18:36.000Z</time>
      </trkpt>
      <trkpt lat="45.59285" lon="6.61514">
        <ele>2540.8000488281</ele>
        <time>2015-04-07T09:18:41.000Z</time>
      </trkpt>
      <trkpt lat="45.59286" lon="6.61514">
        <ele>2541.1999511719</ele>
        <time>2015-04-07T09:18:43.000Z</time>
      </trkpt>
      <trkpt lat="45.59289" lon="6.61515">
        <ele>2542</ele>
        <time>2015-04-07T09:18:48.000Z</time>
      </trkpt>
      <trkpt lat="45.59291" lon="6.61514">
        <ele>2542.1999511719</ele>
        <time>2015-04-07T09:18:50.000Z</time>
      </trkpt>
      <trkpt lat="45.59292" lon="6.61514">
        <ele>2543</ele>
        <time>2015-04-07T09:18:53.000Z</time>
      </trkpt>
      <trkpt lat="45.59293" lon="6.61514">
        <ele>2543.6000976562</ele>
        <time>2015-04-07T09:18:55.000Z</time>
      </trkpt>
      <trkpt lat="45.59295" lon="6.61514">
        <ele>2544.3999023438</ele>
        <time>2015-04-07T09:18:58.000Z</time>
      </trkpt>
      <trkpt lat="45.59298" lon="6.61512">
        <ele>2545.1999511719</ele>
        <time>2015-04-07T09:19:02.000Z</time>
      </trkpt>
      <trkpt lat="45.59298" lon="6.61512">
        <ele>2545.3999023438</ele>
        <time>2015-04-07T09:19:03.000Z</time>
      </trkpt>
      <trkpt lat="45.59301" lon="6.61513">
        <ele>2546.6000976562</ele>
        <time>2015-04-07T09:19:08.000Z</time>
      </trkpt>
      <trkpt lat="45.59308" lon="6.61516">
        <ele>2547.6000976562</ele>
        <time>2015-04-07T09:19:15.000Z</time>
      </trkpt>
      <trkpt lat="45.59313" lon="6.61518">
        <ele>2548.6000976562</ele>
        <time>2015-04-07T09:19:23.000Z</time>
      </trkpt>
      <trkpt lat="45.59316" lon="6.61519">
        <ele>2549.6000976562</ele>
        <time>2015-04-07T09:19:29.000Z</time>
      </trkpt>
      <trkpt lat="45.59317" lon="6.61519">
        <ele>2550</ele>
        <time>2015-04-07T09:19:30.000Z</time>
      </trkpt>
      <trkpt lat="45.59322" lon="6.6152">
        <ele>2551</ele>
        <time>2015-04-07T09:19:36.000Z</time>
      </trkpt>
      <trkpt lat="45.59325" lon="6.6152">
        <ele>2552.1999511719</ele>
        <time>2015-04-07T09:19:42.000Z</time>
      </trkpt>
      <trkpt lat="45.59332" lon="6.61522">
        <ele>2553.3999023438</ele>
        <time>2015-04-07T09:19:49.000Z</time>
      </trkpt>
      <trkpt lat="45.59337" lon="6.61523">
        <ele>2554.1999511719</ele>
        <time>2015-04-07T09:19:55.000Z</time>
      </trkpt>
      <trkpt lat="45.59343" lon="6.61523">
        <ele>2554.3999023438</ele>
        <time>2015-04-07T09:20:01.000Z</time>
      </trkpt>
      <trkpt lat="45.59343" lon="6.61523">
        <ele>2554.6000976562</ele>
        <time>2015-04-07T09:20:02.000Z</time>
      </trkpt>
      <trkpt lat="45.59348" lon="6.61522">
        <ele>2555.3999023438</ele>
        <time>2015-04-07T09:20:08.000Z</time>
      </trkpt>
      <trkpt lat="45.59349" lon="6.61522">
        <ele>2555.6000976562</ele>
        <time>2015-04-07T09:20:09.000Z</time>
      </trkpt>
      <trkpt lat="45.59355" lon="6.61519">
        <ele>2556.3999023438</ele>
        <time>2015-04-07T09:20:15.000Z</time>
      </trkpt>
      <trkpt lat="45.59356" lon="6.61518">
        <ele>2556.3999023438</ele>
        <time>2015-04-07T09:20:17.000Z</time>
      </trkpt>
      <trkpt lat="45.5936" lon="6.61516">
        <ele>2557</ele>
        <time>2015-04-07T09:20:22.000Z</time>
      </trkpt>
      <trkpt lat="45.59363" lon="6.61515">
        <ele>2557.6000976562</ele>
        <time>2015-04-07T09:20:26.000Z</time>
      </trkpt>
      <trkpt lat="45.59364" lon="6.61514">
        <ele>2557.8000488281</ele>
        <time>2015-04-07T09:20:27.000Z</time>
      </trkpt>
      <trkpt lat="45.59365" lon="6.61514">
        <ele>2558.1999511719</ele>
        <time>2015-04-07T09:20:28.000Z</time>
      </trkpt>
      <trkpt lat="45.59368" lon="6.61514">
        <ele>2558.8000488281</ele>
        <time>2015-04-07T09:20:32.000Z</time>
      </trkpt>
      <trkpt lat="45.59368" lon="6.61514">
        <ele>2559</ele>
        <time>2015-04-07T09:20:33.000Z</time>
      </trkpt>
      <trkpt lat="45.59372" lon="6.61513">
        <ele>2559.8000488281</ele>
        <time>2015-04-07T09:20:39.000Z</time>
      </trkpt>
      <trkpt lat="45.59372" lon="6.61512">
        <ele>2560</ele>
        <time>2015-04-07T09:20:40.000Z</time>
      </trkpt>
      <trkpt lat="45.59377" lon="6.61512">
        <ele>2560.8000488281</ele>
        <time>2015-04-07T09:20:45.000Z</time>
      </trkpt>
      <trkpt lat="45.59379" lon="6.61513">
        <ele>2561</ele>
        <time>2015-04-07T09:20:47.000Z</time>
      </trkpt>
      <trkpt lat="45.59382" lon="6.61513">
        <ele>2561.8000488281</ele>
        <time>2015-04-07T09:20:51.000Z</time>
      </trkpt>
      <trkpt lat="45.59383" lon="6.61513">
        <ele>2562.3999023438</ele>
        <time>2015-04-07T09:20:53.000Z</time>
      </trkpt>
      <trkpt lat="45.59385" lon="6.61513">
        <ele>2563.1999511719</ele>
        <time>2015-04-07T09:20:58.000Z</time>
      </trkpt>
      <trkpt lat="45.59385" lon="6.61513">
        <ele>2563.3999023438</ele>
        <time>2015-04-07T09:20:59.000Z</time>
      </trkpt>
      <trkpt lat="45.59388" lon="6.61513">
        <ele>2564.1999511719</ele>
        <time>2015-04-07T09:21:04.000Z</time>
      </trkpt>
      <trkpt lat="45.59391" lon="6.61512">
        <ele>2564.3999023438</ele>
        <time>2015-04-07T09:21:07.000Z</time>
      </trkpt>
      <trkpt lat="45.59396" lon="6.61511">
        <ele>2565</ele>
        <time>2015-04-07T09:21:11.000Z</time>
      </trkpt>
      <trkpt lat="45.594" lon="6.61509">
        <ele>2565.6000976562</ele>
        <time>2015-04-07T09:21:16.000Z</time>
      </trkpt>
      <trkpt lat="45.594" lon="6.61509">
        <ele>2565.8000488281</ele>
        <time>2015-04-07T09:21:17.000Z</time>
      </trkpt>
      <trkpt lat="45.59405" lon="6.61508">
        <ele>2566.8000488281</ele>
        <time>2015-04-07T09:21:23.000Z</time>
      </trkpt>
      <trkpt lat="45.5941" lon="6.61507">
        <ele>2567.8000488281</ele>
        <time>2015-04-07T09:21:28.000Z</time>
      </trkpt>
      <trkpt lat="45.59411" lon="6.61507">
        <ele>2568.1999511719</ele>
        <time>2015-04-07T09:21:30.000Z</time>
      </trkpt>
      <trkpt lat="45.59415" lon="6.61509">
        <ele>2568.8000488281</ele>
        <time>2015-04-07T09:21:35.000Z</time>
      </trkpt>
      <trkpt lat="45.59416" lon="6.61509">
        <ele>2569</ele>
        <time>2015-04-07T09:21:36.000Z</time>
      </trkpt>
      <trkpt lat="45.5942" lon="6.6151">
        <ele>2570</ele>
        <time>2015-04-07T09:21:41.000Z</time>
      </trkpt>
      <trkpt lat="45.5942" lon="6.6151">
        <ele>2570</ele>
        <time>2015-04-07T09:21:42.000Z</time>
      </trkpt>
      <trkpt lat="45.59424" lon="6.61509">
        <ele>2571</ele>
        <time>2015-04-07T09:21:48.000Z</time>
      </trkpt>
      <trkpt lat="45.59426" lon="6.61508">
        <ele>2571.1999511719</ele>
        <time>2015-04-07T09:21:49.000Z</time>
      </trkpt>
      <trkpt lat="45.59428" lon="6.61507">
        <ele>2572</ele>
        <time>2015-04-07T09:21:53.000Z</time>
      </trkpt>
      <trkpt lat="45.59429" lon="6.61507">
        <ele>2572.3999023438</ele>
        <time>2015-04-07T09:21:55.000Z</time>
      </trkpt>
      <trkpt lat="45.59432" lon="6.61507">
        <ele>2573.3999023438</ele>
        <time>2015-04-07T09:21:59.000Z</time>
      </trkpt>
      <trkpt lat="45.59433" lon="6.61507">
        <ele>2573.3999023438</ele>
        <time>2015-04-07T09:22:00.000Z</time>
      </trkpt>
      <trkpt lat="45.59436" lon="6.61507">
        <ele>2574.6000976562</ele>
        <time>2015-04-07T09:22:05.000Z</time>
      </trkpt>
      <trkpt lat="45.59437" lon="6.61507">
        <ele>2574.6000976562</ele>
        <time>2015-04-07T09:22:06.000Z</time>
      </trkpt>
      <trkpt lat="45.5944" lon="6.61507">
        <ele>2575.1999511719</ele>
        <time>2015-04-07T09:22:12.000Z</time>
      </trkpt>
      <trkpt lat="45.59443" lon="6.61506">
        <ele>2575.6000976562</ele>
        <time>2015-04-07T09:22:16.000Z</time>
      </trkpt>
      <trkpt lat="45.59444" lon="6.61506">
        <ele>2575.8000488281</ele>
        <time>2015-04-07T09:22:17.000Z</time>
      </trkpt>
      <trkpt lat="45.59449" lon="6.61507">
        <ele>2576.3999023438</ele>
        <time>2015-04-07T09:22:24.000Z</time>
      </trkpt>
      <trkpt lat="45.59451" lon="6.61508">
        <ele>2576.6000976562</ele>
        <time>2015-04-07T09:22:32.000Z</time>
      </trkpt>
      <trkpt lat="45.59451" lon="6.61508">
        <ele>2576.8000488281</ele>
        <time>2015-04-07T09:22:42.000Z</time>
      </trkpt>
      <trkpt lat="45.59451" lon="6.61508">
        <ele>2577</ele>
        <time>2015-04-07T09:22:50.000Z</time>
      </trkpt>
      <trkpt lat="45.59451" lon="6.61508">
        <ele>2577.1999511719</ele>
        <time>2015-04-07T09:23:03.000Z</time>
      </trkpt>
      <trkpt lat="45.59451" lon="6.61508">
        <ele>2577.1999511719</ele>
        <time>2015-04-07T09:23:17.000Z</time>
      </trkpt>
      <trkpt lat="45.59451" lon="6.61508">
        <ele>2577.3999023438</ele>
        <time>2015-04-07T09:23:28.000Z</time>
      </trkpt>
      <trkpt lat="45.59451" lon="6.61508">
        <ele>2577.6000976562</ele>
        <time>2015-04-07T09:23:44.000Z</time>
      </trkpt>
      <trkpt lat="45.59451" lon="6.61508">
        <ele>2577.8000488281</ele>
        <time>2015-04-07T09:23:45.000Z</time>
      </trkpt>
      <trkpt lat="45.59452" lon="6.61509">
        <ele>2578</ele>
        <time>2015-04-07T09:23:52.000Z</time>
      </trkpt>
      <trkpt lat="45.59452" lon="6.61509">
        <ele>2577.3999023438</ele>
        <time>2015-04-07T09:24:02.000Z</time>
      </trkpt>
      <trkpt lat="45.59452" lon="6.61509">
        <ele>2577.1999511719</ele>
        <time>2015-04-07T09:24:19.000Z</time>
      </trkpt>
      <trkpt lat="45.59451" lon="6.61509">
        <ele>2577.3999023438</ele>
        <time>2015-04-07T09:24:36.000Z</time>
      </trkpt>
      <trkpt lat="45.59451" lon="6.61509">
        <ele>2577.8000488281</ele>
        <time>2015-04-07T09:24:59.000Z</time>
      </trkpt>
      <trkpt lat="45.59451" lon="6.61509">
        <ele>2577.6000976562</ele>
        <time>2015-04-07T09:25:10.000Z</time>
      </trkpt>
      <trkpt lat="45.59451" lon="6.6151">
        <ele>2577.1999511719</ele>
        <time>2015-04-07T09:25:16.000Z</time>
      </trkpt>
      <trkpt lat="45.59451" lon="6.6151">
        <ele>2577.3999023438</ele>
        <time>2015-04-07T09:25:30.000Z</time>
      </trkpt>
      <trkpt lat="45.59451" lon="6.6151">
        <ele>2577.1999511719</ele>
        <time>2015-04-07T09:25:46.000Z</time>
      </trkpt>
      <trkpt lat="45.59451" lon="6.6151">
        <ele>2576.6000976562</ele>
        <time>2015-04-07T09:26:00.000Z</time>
      </trkpt>
      <trkpt lat="45.59451" lon="6.6151">
        <ele>2576.6000976562</ele>
        <time>2015-04-07T09:26:01.000Z</time>
      </trkpt>
      <trkpt lat="45.59451" lon="6.6151">
        <ele>2577.3999023438</ele>
        <time>2015-04-07T09:26:17.000Z</time>
      </trkpt>
      <trkpt lat="45.59451" lon="6.6151">
        <ele>2577.8000488281</ele>
        <time>2015-04-07T09:26:19.000Z</time>
      </trkpt>
      <trkpt lat="45.59451" lon="6.6151">
        <ele>2577.1999511719</ele>
        <time>2015-04-07T09:26:30.000Z</time>
      </trkpt>
      <trkpt lat="45.59451" lon="6.6151">
        <ele>2577.3999023438</ele>
        <time>2015-04-07T09:26:44.000Z</time>
      </trkpt>
      <trkpt lat="45.59451" lon="6.6151">
        <ele>2577.1999511719</ele>
        <time>2015-04-07T09:26:58.000Z</time>
      </trkpt>
      <trkpt lat="45.59451" lon="6.6151">
        <ele>2578</ele>
        <time>2015-04-07T09:27:11.000Z</time>
      </trkpt>
      <trkpt lat="45.59451" lon="6.6151">
        <ele>2576.8000488281</ele>
        <time>2015-04-07T09:27:34.000Z</time>
      </trkpt>
      <trkpt lat="45.59451" lon="6.6151">
        <ele>2576.6000976562</ele>
        <time>2015-04-07T09:27:42.000Z</time>
      </trkpt>
      <trkpt lat="45.59451" lon="6.6151">
        <ele>2576.6000976562</ele>
        <time>2015-04-07T09:27:46.000Z</time>
      </trkpt>
      <trkpt lat="45.59451" lon="6.6151">
        <ele>2576.8000488281</ele>
        <time>2015-04-07T09:28:01.000Z</time>
      </trkpt>
      <trkpt lat="45.59451" lon="6.6151">
        <ele>2576.6000976562</ele>
        <time>2015-04-07T09:28:18.000Z</time>
      </trkpt>
      <trkpt lat="45.59451" lon="6.6151">
        <ele>2576.3999023438</ele>
        <time>2015-04-07T09:28:34.000Z</time>
      </trkpt>
      <trkpt lat="45.59451" lon="6.6151">
        <ele>2577</ele>
        <time>2015-04-07T09:28:46.000Z</time>
      </trkpt>
      <trkpt lat="45.59451" lon="6.6151">
        <ele>2576.3999023438</ele>
        <time>2015-04-07T09:29:01.000Z</time>
      </trkpt>
      <trkpt lat="45.59451" lon="6.6151">
        <ele>2576.6000976562</ele>
        <time>2015-04-07T09:29:16.000Z</time>
      </trkpt>
      <trkpt lat="45.59451" lon="6.6151">
        <ele>2576.6000976562</ele>
        <time>2015-04-07T09:29:31.000Z</time>
      </trkpt>
      <trkpt lat="45.59451" lon="6.6151">
        <ele>2576.8000488281</ele>
        <time>2015-04-07T09:29:46.000Z</time>
      </trkpt>
      <trkpt lat="45.59451" lon="6.6151">
        <ele>2576.8000488281</ele>
        <time>2015-04-07T09:30:01.000Z</time>
      </trkpt>
      <trkpt lat="45.59451" lon="6.6151">
        <ele>2576.6000976562</ele>
        <time>2015-04-07T09:30:14.000Z</time>
      </trkpt>
      <trkpt lat="45.59451" lon="6.6151">
        <ele>2577</ele>
        <time>2015-04-07T09:30:24.000Z</time>
      </trkpt>
      <trkpt lat="45.59451" lon="6.6151">
        <ele>2576.1999511719</ele>
        <time>2015-04-07T09:30:41.000Z</time>
      </trkpt>
      <trkpt lat="45.59451" lon="6.6151">
        <ele>2577</ele>
        <time>2015-04-07T09:30:54.000Z</time>
      </trkpt>
      <trkpt lat="45.59451" lon="6.6151">
        <ele>2577</ele>
        <time>2015-04-07T09:30:57.000Z</time>
      </trkpt>
      <trkpt lat="45.59451" lon="6.6151">
        <ele>2577.1999511719</ele>
        <time>2015-04-07T09:31:09.000Z</time>
      </trkpt>
      <trkpt lat="45.59451" lon="6.6151">
        <ele>2576.8000488281</ele>
        <time>2015-04-07T09:31:22.000Z</time>
      </trkpt>
      <trkpt lat="45.59451" lon="6.6151">
        <ele>2577</ele>
        <time>2015-04-07T09:31:39.000Z</time>
      </trkpt>
      <trkpt lat="45.59451" lon="6.6151">
        <ele>2576.1999511719</ele>
        <time>2015-04-07T09:31:53.000Z</time>
      </trkpt>
      <trkpt lat="45.59451" lon="6.61509">
        <ele>2576.8000488281</ele>
        <time>2015-04-07T09:32:11.000Z</time>
      </trkpt>
      <trkpt lat="45.59451" lon="6.61509">
        <ele>2576.8000488281</ele>
        <time>2015-04-07T09:32:23.000Z</time>
      </trkpt>
      <trkpt lat="45.59451" lon="6.6151">
        <ele>2576.8000488281</ele>
        <time>2015-04-07T09:32:45.000Z</time>
      </trkpt>
      <trkpt lat="45.59451" lon="6.6151">
        <ele>2576.8000488281</ele>
        <time>2015-04-07T09:33:05.000Z</time>
      </trkpt>
      <trkpt lat="45.59451" lon="6.61509">
        <ele>2577</ele>
        <time>2015-04-07T09:33:26.000Z</time>
      </trkpt>
      <trkpt lat="45.59451" lon="6.61509">
        <ele>2576.8000488281</ele>
        <time>2015-04-07T09:33:42.000Z</time>
      </trkpt>
      <trkpt lat="45.59451" lon="6.61509">
        <ele>2576.8000488281</ele>
        <time>2015-04-07T09:34:05.000Z</time>
      </trkpt>
      <trkpt lat="45.59451" lon="6.61509">
        <ele>2576.8000488281</ele>
        <time>2015-04-07T09:34:25.000Z</time>
      </trkpt>
      <trkpt lat="45.59451" lon="6.61509">
        <ele>2576.6000976562</ele>
        <time>2015-04-07T09:34:42.000Z</time>
      </trkpt>
      <trkpt lat="45.59451" lon="6.61509">
        <ele>2576.6000976562</ele>
        <time>2015-04-07T09:35:04.000Z</time>
      </trkpt>
      <trkpt lat="45.59451" lon="6.61509">
        <ele>2576.3999023438</ele>
        <time>2015-04-07T09:35:25.000Z</time>
      </trkpt>
      <trkpt lat="45.59451" lon="6.61509">
        <ele>2576.1999511719</ele>
        <time>2015-04-07T09:35:48.000Z</time>
      </trkpt>
      <trkpt lat="45.5945" lon="6.61509">
        <ele>2576</ele>
        <time>2015-04-07T09:36:07.000Z</time>
      </trkpt>
      <trkpt lat="45.5945" lon="6.61509">
        <ele>2575.8000488281</ele>
        <time>2015-04-07T09:36:25.000Z</time>
      </trkpt>
      <trkpt lat="45.5945" lon="6.61509">
        <ele>2575.8000488281</ele>
        <time>2015-04-07T09:36:39.000Z</time>
      </trkpt>
      <trkpt lat="45.5945" lon="6.61509">
        <ele>2575.6000976562</ele>
        <time>2015-04-07T09:36:53.000Z</time>
      </trkpt>
      <trkpt lat="45.5945" lon="6.61509">
        <ele>2575.6000976562</ele>
        <time>2015-04-07T09:36:56.000Z</time>
      </trkpt>
      <trkpt lat="45.5945" lon="6.6151">
        <ele>2575.3999023438</ele>
        <time>2015-04-07T09:37:10.000Z</time>
      </trkpt>
      <trkpt lat="45.5945" lon="6.6151">
        <ele>2576.1999511719</ele>
        <time>2015-04-07T09:37:23.000Z</time>
      </trkpt>
      <trkpt lat="45.5945" lon="6.6151">
        <ele>2576.1999511719</ele>
        <time>2015-04-07T09:37:40.000Z</time>
      </trkpt>
      <trkpt lat="45.5945" lon="6.6151">
        <ele>2576.1999511719</ele>
        <time>2015-04-07T09:38:01.000Z</time>
      </trkpt>
      <trkpt lat="45.5945" lon="6.6151">
        <ele>2576.1999511719</ele>
        <time>2015-04-07T09:38:17.000Z</time>
      </trkpt>
      <trkpt lat="45.5945" lon="6.6151">
        <ele>2576</ele>
        <time>2015-04-07T09:38:32.000Z</time>
      </trkpt>
      <trkpt lat="45.5945" lon="6.6151">
        <ele>2576</ele>
        <time>2015-04-07T09:38:53.000Z</time>
      </trkpt>
      <trkpt lat="45.5945" lon="6.6151">
        <ele>2576</ele>
        <time>2015-04-07T09:39:06.000Z</time>
      </trkpt>
      <trkpt lat="45.5945" lon="6.6151">
        <ele>2576</ele>
        <time>2015-04-07T09:39:23.000Z</time>
      </trkpt>
      <trkpt lat="45.5945" lon="6.6151">
        <ele>2576</ele>
        <time>2015-04-07T09:39:43.000Z</time>
      </trkpt>
      <trkpt lat="45.5945" lon="6.6151">
        <ele>2576</ele>
        <time>2015-04-07T09:40:01.000Z</time>
      </trkpt>
      <trkpt lat="45.5945" lon="6.6151">
        <ele>2576.3999023438</ele>
        <time>2015-04-07T09:40:21.000Z</time>
      </trkpt>
      <trkpt lat="45.5945" lon="6.6151">
        <ele>2576.3999023438</ele>
        <time>2015-04-07T09:40:35.000Z</time>
      </trkpt>
      <trkpt lat="45.5945" lon="6.6151">
        <ele>2576.3999023438</ele>
        <time>2015-04-07T09:40:51.000Z</time>
      </trkpt>
      <trkpt lat="45.59451" lon="6.6151">
        <ele>2576.6000976562</ele>
        <time>2015-04-07T09:41:10.000Z</time>
      </trkpt>
      <trkpt lat="45.59451" lon="6.6151">
        <ele>2576.3999023438</ele>
        <time>2015-04-07T09:41:26.000Z</time>
      </trkpt>
      <trkpt lat="45.59451" lon="6.6151">
        <ele>2576.3999023438</ele>
        <time>2015-04-07T09:41:44.000Z</time>
      </trkpt>
      <trkpt lat="45.5945" lon="6.6151">
        <ele>2576.6000976562</ele>
        <time>2015-04-07T09:42:00.000Z</time>
      </trkpt>
      <trkpt lat="45.5945" lon="6.6151">
        <ele>2576.3999023438</ele>
        <time>2015-04-07T09:42:16.000Z</time>
      </trkpt>
      <trkpt lat="45.59451" lon="6.6151">
        <ele>2576.3999023438</ele>
        <time>2015-04-07T09:42:31.000Z</time>
      </trkpt>
      <trkpt lat="45.59451" lon="6.6151">
        <ele>2576.3999023438</ele>
        <time>2015-04-07T09:42:45.000Z</time>
      </trkpt>
      <trkpt lat="45.59451" lon="6.6151">
        <ele>2576.3999023438</ele>
        <time>2015-04-07T09:42:51.000Z</time>
      </trkpt>
      <trkpt lat="45.5945" lon="6.6151">
        <ele>2576.1999511719</ele>
        <time>2015-04-07T09:43:10.000Z</time>
      </trkpt>
      <trkpt lat="45.5945" lon="6.6151">
        <ele>2576.1999511719</ele>
        <time>2015-04-07T09:43:25.000Z</time>
      </trkpt>
      <trkpt lat="45.5945" lon="6.6151">
        <ele>2576.1999511719</ele>
        <time>2015-04-07T09:43:40.000Z</time>
      </trkpt>
      <trkpt lat="45.5945" lon="6.61509">
        <ele>2576.6000976562</ele>
        <time>2015-04-07T09:43:50.000Z</time>
      </trkpt>
      <trkpt lat="45.5945" lon="6.61509">
        <ele>2575.8000488281</ele>
        <time>2015-04-07T09:44:05.000Z</time>
      </trkpt>
      <trkpt lat="45.5945" lon="6.61509">
        <ele>2575.8000488281</ele>
        <time>2015-04-07T09:44:23.000Z</time>
      </trkpt>
      <trkpt lat="45.5945" lon="6.61509">
        <ele>2575.6000976562</ele>
        <time>2015-04-07T09:44:38.000Z</time>
      </trkpt>
      <trkpt lat="45.5945" lon="6.61509">
        <ele>2575.1999511719</ele>
        <time>2015-04-07T09:44:56.000Z</time>
      </trkpt>
      <trkpt lat="45.5945" lon="6.61509">
        <ele>2575.6000976562</ele>
        <time>2015-04-07T09:45:07.000Z</time>
      </trkpt>
      <trkpt lat="45.5945" lon="6.6151">
        <ele>2575.1999511719</ele>
        <time>2015-04-07T09:45:16.000Z</time>
      </trkpt>
      <trkpt lat="45.5945" lon="6.6151">
        <ele>2575.3999023438</ele>
        <time>2015-04-07T09:45:27.000Z</time>
      </trkpt>
      <trkpt lat="45.5945" lon="6.6151">
        <ele>2575.1999511719</ele>
        <time>2015-04-07T09:45:43.000Z</time>
      </trkpt>
      <trkpt lat="45.5945" lon="6.6151">
        <ele>2577</ele>
        <time>2015-04-07T09:45:48.000Z</time>
      </trkpt>
      <trkpt lat="45.59451" lon="6.6151">
        <ele>2575.8000488281</ele>
        <time>2015-04-07T09:45:55.000Z</time>
      </trkpt>
      <trkpt lat="45.59451" lon="6.6151">
        <ele>2575.8000488281</ele>
        <time>2015-04-07T09:45:56.000Z</time>
      </trkpt>
      <trkpt lat="45.59451" lon="6.6151">
        <ele>2575.6000976562</ele>
        <time>2015-04-07T09:46:09.000Z</time>
      </trkpt>
      <trkpt lat="45.59451" lon="6.6151">
        <ele>2575.8000488281</ele>
        <time>2015-04-07T09:46:24.000Z</time>
      </trkpt>
      <trkpt lat="45.59451" lon="6.61509">
        <ele>2575.6000976562</ele>
        <time>2015-04-07T09:46:39.000Z</time>
      </trkpt>
      <trkpt lat="45.59451" lon="6.61509">
        <ele>2575.6000976562</ele>
        <time>2015-04-07T09:46:56.000Z</time>
      </trkpt>
      <trkpt lat="45.59451" lon="6.61509">
        <ele>2575.6000976562</ele>
        <time>2015-04-07T09:47:19.000Z</time>
      </trkpt>
      <trkpt lat="45.59451" lon="6.61509">
        <ele>2575.3999023438</ele>
        <time>2015-04-07T09:47:33.000Z</time>
      </trkpt>
      <trkpt lat="45.59451" lon="6.61509">
        <ele>2575.6000976562</ele>
        <time>2015-04-07T09:47:43.000Z</time>
      </trkpt>
      <trkpt lat="45.5945" lon="6.61509">
        <ele>2575.3999023438</ele>
        <time>2015-04-07T09:48:05.000Z</time>
      </trkpt>
      <trkpt lat="45.5945" lon="6.61509">
        <ele>2575.8000488281</ele>
        <time>2015-04-07T09:48:21.000Z</time>
      </trkpt>
      <trkpt lat="45.59451" lon="6.61509">
        <ele>2575.8000488281</ele>
        <time>2015-04-07T09:48:38.000Z</time>
      </trkpt>
      <trkpt lat="45.59451" lon="6.61509">
        <ele>2575.8000488281</ele>
        <time>2015-04-07T09:48:59.000Z</time>
      </trkpt>
      <trkpt lat="45.59451" lon="6.61509">
        <ele>2575.8000488281</ele>
        <time>2015-04-07T09:49:12.000Z</time>
      </trkpt>
      <trkpt lat="45.59451" lon="6.61509">
        <ele>2575.8000488281</ele>
        <time>2015-04-07T09:49:24.000Z</time>
      </trkpt>
      <trkpt lat="45.59452" lon="6.61509">
        <ele>2575.8000488281</ele>
        <time>2015-04-07T09:49:42.000Z</time>
      </trkpt>
      <trkpt lat="45.59452" lon="6.61509">
        <ele>2575.6000976562</ele>
        <time>2015-04-07T09:49:52.000Z</time>
      </trkpt>
      <trkpt lat="45.59452" lon="6.61509">
        <ele>2575.3999023438</ele>
        <time>2015-04-07T09:50:05.000Z</time>
      </trkpt>
      <trkpt lat="45.59452" lon="6.61509">
        <ele>2575.1999511719</ele>
        <time>2015-04-07T09:50:21.000Z</time>
      </trkpt>
      <trkpt lat="45.59459" lon="6.61511">
        <ele>2575</ele>
        <time>2015-04-07T09:50:26.000Z</time>
      </trkpt>
      <trkpt lat="45.59462" lon="6.61512">
        <ele>2574.6000976562</ele>
        <time>2015-04-07T09:50:27.000Z</time>
      </trkpt>
      <trkpt lat="45.59469" lon="6.61515">
        <ele>2573.3999023438</ele>
        <time>2015-04-07T09:50:29.000Z</time>
      </trkpt>
      <trkpt lat="45.59472" lon="6.61517">
        <ele>2572.8000488281</ele>
        <time>2015-04-07T09:50:30.000Z</time>
      </trkpt>
      <trkpt lat="45.59475" lon="6.61521">
        <ele>2571.3999023438</ele>
        <time>2015-04-07T09:50:32.000Z</time>
      </trkpt>
      <trkpt lat="45.59478" lon="6.61527">
        <ele>2570</ele>
        <time>2015-04-07T09:50:35.000Z</time>
      </trkpt>
      <trkpt lat="45.59479" lon="6.61528">
        <ele>2568.8000488281</ele>
        <time>2015-04-07T09:50:38.000Z</time>
      </trkpt>
      <trkpt lat="45.59482" lon="6.61527">
        <ele>2568</ele>
        <time>2015-04-07T09:50:40.000Z</time>
      </trkpt>
      <trkpt lat="45.59484" lon="6.61528">
        <ele>2567.8000488281</ele>
        <time>2015-04-07T09:50:41.000Z</time>
      </trkpt>
      <trkpt lat="45.59486" lon="6.6153">
        <ele>2566.6000976562</ele>
        <time>2015-04-07T09:50:43.000Z</time>
      </trkpt>
      <trkpt lat="45.59486" lon="6.61531">
        <ele>2565.3999023438</ele>
        <time>2015-04-07T09:50:44.000Z</time>
      </trkpt>
      <trkpt lat="45.59486" lon="6.61531">
        <ele>2564.3999023438</ele>
        <time>2015-04-07T09:50:45.000Z</time>
      </trkpt>
      <trkpt lat="45.59486" lon="6.61531">
        <ele>2563.1999511719</ele>
        <time>2015-04-07T09:50:47.000Z</time>
      </trkpt>
      <trkpt lat="45.59486" lon="6.61531">
        <ele>2562.3999023438</ele>
        <time>2015-04-07T09:50:50.000Z</time>
      </trkpt>
      <trkpt lat="45.59487" lon="6.61532">
        <ele>2562.1999511719</ele>
        <time>2015-04-07T09:51:02.000Z</time>
      </trkpt>
      <trkpt lat="45.59488" lon="6.61534">
        <ele>2562.1999511719</ele>
        <time>2015-04-07T09:51:03.000Z</time>
      </trkpt>
      <trkpt lat="45.59491" lon="6.61537">
        <ele>2561.1999511719</ele>
        <time>2015-04-07T09:51:08.000Z</time>
      </trkpt>
      <trkpt lat="45.59491" lon="6.61537">
        <ele>2561</ele>
        <time>2015-04-07T09:51:09.000Z</time>
      </trkpt>
      <trkpt lat="45.59493" lon="6.61537">
        <ele>2560.8000488281</ele>
        <time>2015-04-07T09:51:17.000Z</time>
      </trkpt>
      <trkpt lat="45.59493" lon="6.61537">
        <ele>2560</ele>
        <time>2015-04-07T09:51:24.000Z</time>
      </trkpt>
      <trkpt lat="45.59492" lon="6.61538">
        <ele>2559.8000488281</ele>
        <time>2015-04-07T09:51:25.000Z</time>
      </trkpt>
      <trkpt lat="45.59494" lon="6.61542">
        <ele>2559.1999511719</ele>
        <time>2015-04-07T09:51:29.000Z</time>
      </trkpt>
      <trkpt lat="45.59496" lon="6.61544">
        <ele>2559</ele>
        <time>2015-04-07T09:51:30.000Z</time>
      </trkpt>
      <trkpt lat="45.59499" lon="6.61547">
        <ele>2559</ele>
        <time>2015-04-07T09:51:31.000Z</time>
      </trkpt>
      <trkpt lat="45.59501" lon="6.6155">
        <ele>2558.8000488281</ele>
        <time>2015-04-07T09:51:32.000Z</time>
      </trkpt>
      <trkpt lat="45.59507" lon="6.61557">
        <ele>2557.6000976562</ele>
        <time>2015-04-07T09:51:34.000Z</time>
      </trkpt>
      <trkpt lat="45.59512" lon="6.61564">
        <ele>2556.3999023438</ele>
        <time>2015-04-07T09:51:36.000Z</time>
      </trkpt>
      <trkpt lat="45.59518" lon="6.61571">
        <ele>2555.3999023438</ele>
        <time>2015-04-07T09:51:38.000Z</time>
      </trkpt>
      <trkpt lat="45.59522" lon="6.61575">
        <ele>2554.8000488281</ele>
        <time>2015-04-07T09:51:39.000Z</time>
      </trkpt>
      <trkpt lat="45.59529" lon="6.61582">
        <ele>2553.8000488281</ele>
        <time>2015-04-07T09:51:41.000Z</time>
      </trkpt>
      <trkpt lat="45.5953" lon="6.61584">
        <ele>2553.1999511719</ele>
        <time>2015-04-07T09:51:42.000Z</time>
      </trkpt>
      <trkpt lat="45.59531" lon="6.61584">
        <ele>2552.6000976562</ele>
        <time>2015-04-07T09:51:43.000Z</time>
      </trkpt>
      <trkpt lat="45.59531" lon="6.61584">
        <ele>2551.3999023438</ele>
        <time>2015-04-07T09:51:45.000Z</time>
      </trkpt>
      <trkpt lat="45.59531" lon="6.61584">
        <ele>2551.3999023438</ele>
        <time>2015-04-07T09:51:47.000Z</time>
      </trkpt>
      <trkpt lat="45.59535" lon="6.61588">
        <ele>2551</ele>
        <time>2015-04-07T09:51:57.000Z</time>
      </trkpt>
      <trkpt lat="45.59536" lon="6.61595">
        <ele>2550.3999023438</ele>
        <time>2015-04-07T09:52:02.000Z</time>
      </trkpt>
      <trkpt lat="45.59541" lon="6.61607">
        <ele>2549</ele>
        <time>2015-04-07T09:52:08.000Z</time>
      </trkpt>
      <trkpt lat="45.59544" lon="6.61611">
        <ele>2548</ele>
        <time>2015-04-07T09:52:11.000Z</time>
      </trkpt>
      <trkpt lat="45.59544" lon="6.61611">
        <ele>2547.8000488281</ele>
        <time>2015-04-07T09:52:12.000Z</time>
      </trkpt>
      <trkpt lat="45.59547" lon="6.61612">
        <ele>2548</ele>
        <time>2015-04-07T09:52:20.000Z</time>
      </trkpt>
      <trkpt lat="45.59548" lon="6.61614">
        <ele>2548.1999511719</ele>
        <time>2015-04-07T09:52:26.000Z</time>
      </trkpt>
      <trkpt lat="45.59548" lon="6.61614">
        <ele>2548.1999511719</ele>
        <time>2015-04-07T09:52:41.000Z</time>
      </trkpt>
      <trkpt lat="45.59548" lon="6.61614">
        <ele>2548</ele>
        <time>2015-04-07T09:53:00.000Z</time>
      </trkpt>
      <trkpt lat="45.59548" lon="6.61614">
        <ele>2548</ele>
        <time>2015-04-07T09:53:17.000Z</time>
      </trkpt>
      <trkpt lat="45.59548" lon="6.61614">
        <ele>2547.8000488281</ele>
        <time>2015-04-07T09:53:33.000Z</time>
      </trkpt>
      <trkpt lat="45.59549" lon="6.61617">
        <ele>2547.3999023438</ele>
        <time>2015-04-07T09:53:39.000Z</time>
      </trkpt>
      <trkpt lat="45.5955" lon="6.6162">
        <ele>2547.3999023438</ele>
        <time>2015-04-07T09:53:40.000Z</time>
      </trkpt>
      <trkpt lat="45.59552" lon="6.61626">
        <ele>2547</ele>
        <time>2015-04-07T09:53:42.000Z</time>
      </trkpt>
      <trkpt lat="45.59555" lon="6.61631">
        <ele>2545.8000488281</ele>
        <time>2015-04-07T09:53:44.000Z</time>
      </trkpt>
      <trkpt lat="45.59562" lon="6.61641">
        <ele>2544.6000976562</ele>
        <time>2015-04-07T09:53:48.000Z</time>
      </trkpt>
      <trkpt lat="45.59575" lon="6.61663">
        <ele>2543.6000976562</ele>
        <time>2015-04-07T09:53:52.000Z</time>
      </trkpt>
      <trkpt lat="45.59579" lon="6.61668">
        <ele>2543</ele>
        <time>2015-04-07T09:53:53.000Z</time>
      </trkpt>
      <trkpt lat="45.59585" lon="6.61677">
        <ele>2541.1999511719</ele>
        <time>2015-04-07T09:53:55.000Z</time>
      </trkpt>
      <trkpt lat="45.59591" lon="6.61683">
        <ele>2539.6000976562</ele>
        <time>2015-04-07T09:53:57.000Z</time>
      </trkpt>
      <trkpt lat="45.596" lon="6.61692">
        <ele>2538.6000976562</ele>
        <time>2015-04-07T09:54:01.000Z</time>
      </trkpt>
      <trkpt lat="45.59602" lon="6.61693">
        <ele>2538.6000976562</ele>
        <time>2015-04-07T09:54:02.000Z</time>
      </trkpt>
      <trkpt lat="45.59605" lon="6.61696">
        <ele>2538.8000488281</ele>
        <time>2015-04-07T09:54:08.000Z</time>
      </trkpt>
      <trkpt lat="45.59605" lon="6.61696">
        <ele>2538.6000976562</ele>
        <time>2015-04-07T09:54:15.000Z</time>
      </trkpt>
      <trkpt lat="45.59605" lon="6.61696">
        <ele>2538.6000976562</ele>
        <time>2015-04-07T09:54:27.000Z</time>
      </trkpt>
      <trkpt lat="45.59605" lon="6.61696">
        <ele>2538.6000976562</ele>
        <time>2015-04-07T09:54:44.000Z</time>
      </trkpt>
      <trkpt lat="45.59604" lon="6.61695">
        <ele>2538.3999023438</ele>
        <time>2015-04-07T09:54:51.000Z</time>
      </trkpt>
      <trkpt lat="45.59603" lon="6.61694">
        <ele>2538.6000976562</ele>
        <time>2015-04-07T09:54:59.000Z</time>
      </trkpt>
      <trkpt lat="45.59603" lon="6.61694">
        <ele>2538.6000976562</ele>
        <time>2015-04-07T09:55:07.000Z</time>
      </trkpt>
      <trkpt lat="45.59602" lon="6.61692">
        <ele>2538.8000488281</ele>
        <time>2015-04-07T09:55:09.000Z</time>
      </trkpt>
      <trkpt lat="45.59598" lon="6.61687">
        <ele>2538.8000488281</ele>
        <time>2015-04-07T09:55:12.000Z</time>
      </trkpt>
      <trkpt lat="45.59595" lon="6.61685">
        <ele>2538.1999511719</ele>
        <time>2015-04-07T09:55:17.000Z</time>
      </trkpt>
      <trkpt lat="45.59593" lon="6.61684">
        <ele>2538.3999023438</ele>
        <time>2015-04-07T09:55:23.000Z</time>
      </trkpt>
      <trkpt lat="45.59591" lon="6.61683">
        <ele>2538.6000976562</ele>
        <time>2015-04-07T09:55:30.000Z</time>
      </trkpt>
      <trkpt lat="45.59591" lon="6.61683">
        <ele>2538.8000488281</ele>
        <time>2015-04-07T09:55:41.000Z</time>
      </trkpt>
      <trkpt lat="45.59591" lon="6.61683">
        <ele>2539.6000976562</ele>
        <time>2015-04-07T09:55:48.000Z</time>
      </trkpt>
      <trkpt lat="45.59591" lon="6.61683">
        <ele>2539.3999023438</ele>
        <time>2015-04-07T09:55:50.000Z</time>
      </trkpt>
      <trkpt lat="45.59591" lon="6.61683">
        <ele>2539.6000976562</ele>
        <time>2015-04-07T09:55:58.000Z</time>
      </trkpt>
      <trkpt lat="45.59591" lon="6.61683">
        <ele>2539.1999511719</ele>
        <time>2015-04-07T09:56:10.000Z</time>
      </trkpt>
      <trkpt lat="45.59591" lon="6.61684">
        <ele>2539.1999511719</ele>
        <time>2015-04-07T09:56:20.000Z</time>
      </trkpt>
      <trkpt lat="45.59591" lon="6.61684">
        <ele>2539.6000976562</ele>
        <time>2015-04-07T09:56:32.000Z</time>
      </trkpt>
      <trkpt lat="45.59591" lon="6.61684">
        <ele>2539.6000976562</ele>
        <time>2015-04-07T09:56:38.000Z</time>
      </trkpt>
      <trkpt lat="45.59591" lon="6.61684">
        <ele>2540</ele>
        <time>2015-04-07T09:56:45.000Z</time>
      </trkpt>
      <trkpt lat="45.59589" lon="6.61685">
        <ele>2539.8000488281</ele>
        <time>2015-04-07T09:56:50.000Z</time>
      </trkpt>
      <trkpt lat="45.59587" lon="6.61684">
        <ele>2539.3999023438</ele>
        <time>2015-04-07T09:56:52.000Z</time>
      </trkpt>
      <trkpt lat="45.59586" lon="6.61684">
        <ele>2538.6000976562</ele>
        <time>2015-04-07T09:56:57.000Z</time>
      </trkpt>
      <trkpt lat="45.59586" lon="6.61684">
        <ele>2538.6000976562</ele>
        <time>2015-04-07T09:56:59.000Z</time>
      </trkpt>
      <trkpt lat="45.59586" lon="6.61686">
        <ele>2538.6000976562</ele>
        <time>2015-04-07T09:57:00.000Z</time>
      </trkpt>
      <trkpt lat="45.59588" lon="6.61694">
        <ele>2538.3999023438</ele>
        <time>2015-04-07T09:57:02.000Z</time>
      </trkpt>
      <trkpt lat="45.5959" lon="6.61701">
        <ele>2537.6000976562</ele>
        <time>2015-04-07T09:57:04.000Z</time>
      </trkpt>
      <trkpt lat="45.59588" lon="6.61703">
        <ele>2536.1999511719</ele>
        <time>2015-04-07T09:57:05.000Z</time>
      </trkpt>
      <trkpt lat="45.59586" lon="6.61703">
        <ele>2534.3999023438</ele>
        <time>2015-04-07T09:57:06.000Z</time>
      </trkpt>
      <trkpt lat="45.59584" lon="6.61704">
        <ele>2532.3999023438</ele>
        <time>2015-04-07T09:57:07.000Z</time>
      </trkpt>
      <trkpt lat="45.59584" lon="6.61707">
        <ele>2530.8000488281</ele>
        <time>2015-04-07T09:57:08.000Z</time>
      </trkpt>
      <trkpt lat="45.59586" lon="6.61712">
        <ele>2529.8000488281</ele>
        <time>2015-04-07T09:57:09.000Z</time>
      </trkpt>
      <trkpt lat="45.5959" lon="6.61722">
        <ele>2528.1999511719</ele>
        <time>2015-04-07T09:57:11.000Z</time>
      </trkpt>
      <trkpt lat="45.59591" lon="6.61724">
        <ele>2527</ele>
        <time>2015-04-07T09:57:12.000Z</time>
      </trkpt>
      <trkpt lat="45.59592" lon="6.61726">
        <ele>2525.6000976562</ele>
        <time>2015-04-07T09:57:13.000Z</time>
      </trkpt>
      <trkpt lat="45.59592" lon="6.61726">
        <ele>2524.1999511719</ele>
        <time>2015-04-07T09:57:14.000Z</time>
      </trkpt>
      <trkpt lat="45.59592" lon="6.61726">
        <ele>2522.6000976562</ele>
        <time>2015-04-07T09:57:16.000Z</time>
      </trkpt>
      <trkpt lat="45.59592" lon="6.61726">
        <ele>2522.1999511719</ele>
        <time>2015-04-07T09:57:23.000Z</time>
      </trkpt>
      <trkpt lat="45.59592" lon="6.61726">
        <ele>2522</ele>
        <time>2015-04-07T09:57:39.000Z</time>
      </trkpt>
      <trkpt lat="45.59592" lon="6.61726">
        <ele>2522.1999511719</ele>
        <time>2015-04-07T09:58:01.000Z</time>
      </trkpt>
      <trkpt lat="45.59592" lon="6.61726">
        <ele>2522</ele>
        <time>2015-04-07T09:58:21.000Z</time>
      </trkpt>
      <trkpt lat="45.59592" lon="6.61726">
        <ele>2522.1999511719</ele>
        <time>2015-04-07T09:58:23.000Z</time>
      </trkpt>
      <trkpt lat="45.59592" lon="6.61726">
        <ele>2522.1999511719</ele>
        <time>2015-04-07T09:58:38.000Z</time>
      </trkpt>
      <trkpt lat="45.59593" lon="6.61726">
        <ele>2522.1999511719</ele>
        <time>2015-04-07T09:58:44.000Z</time>
      </trkpt>
      <trkpt lat="45.59595" lon="6.61726">
        <ele>2523.1999511719</ele>
        <time>2015-04-07T09:58:52.000Z</time>
      </trkpt>
      <trkpt lat="45.59597" lon="6.61725">
        <ele>2523.6000976562</ele>
        <time>2015-04-07T09:59:02.000Z</time>
      </trkpt>
      <trkpt lat="45.59597" lon="6.61725">
        <ele>2523.3999023438</ele>
        <time>2015-04-07T09:59:15.000Z</time>
      </trkpt>
      <trkpt lat="45.59597" lon="6.61725">
        <ele>2523.8000488281</ele>
        <time>2015-04-07T09:59:23.000Z</time>
      </trkpt>
      <trkpt lat="45.59597" lon="6.61725">
        <ele>2524</ele>
        <time>2015-04-07T09:59:27.000Z</time>
      </trkpt>
      <trkpt lat="45.59597" lon="6.61725">
        <ele>2524</ele>
        <time>2015-04-07T09:59:43.000Z</time>
      </trkpt>
      <trkpt lat="45.59597" lon="6.61725">
        <ele>2524</ele>
        <time>2015-04-07T09:59:56.000Z</time>
      </trkpt>
      <trkpt lat="45.59597" lon="6.61725">
        <ele>2523.8000488281</ele>
        <time>2015-04-07T10:00:16.000Z</time>
      </trkpt>
      <trkpt lat="45.59597" lon="6.61725">
        <ele>2524</ele>
        <time>2015-04-07T10:00:31.000Z</time>
      </trkpt>
      <trkpt lat="45.59597" lon="6.61725">
        <ele>2524</ele>
        <time>2015-04-07T10:00:50.000Z</time>
      </trkpt>
      <trkpt lat="45.59597" lon="6.61725">
        <ele>2523.8000488281</ele>
        <time>2015-04-07T10:01:00.000Z</time>
      </trkpt>
      <trkpt lat="45.59597" lon="6.61725">
        <ele>2522.6000976562</ele>
        <time>2015-04-07T10:01:04.000Z</time>
      </trkpt>
      <trkpt lat="45.59597" lon="6.61725">
        <ele>2521.8000488281</ele>
        <time>2015-04-07T10:01:06.000Z</time>
      </trkpt>
      <trkpt lat="45.59597" lon="6.61725">
        <ele>2521.6000976562</ele>
        <time>2015-04-07T10:01:07.000Z</time>
      </trkpt>
      <trkpt lat="45.59597" lon="6.61725">
        <ele>2521.1999511719</ele>
        <time>2015-04-07T10:01:14.000Z</time>
      </trkpt>
      <trkpt lat="45.59598" lon="6.61724">
        <ele>2520.3999023438</ele>
        <time>2015-04-07T10:01:19.000Z</time>
      </trkpt>
      <trkpt lat="45.59599" lon="6.61726">
        <ele>2519.1999511719</ele>
        <time>2015-04-07T10:01:21.000Z</time>
      </trkpt>
      <trkpt lat="45.596" lon="6.61727">
        <ele>2517.3999023438</ele>
        <time>2015-04-07T10:01:22.000Z</time>
      </trkpt>
      <trkpt lat="45.59601" lon="6.61729">
        <ele>2515.8000488281</ele>
        <time>2015-04-07T10:01:24.000Z</time>
      </trkpt>
      <trkpt lat="45.59603" lon="6.61727">
        <ele>2515</ele>
        <time>2015-04-07T10:01:26.000Z</time>
      </trkpt>
      <trkpt lat="45.59603" lon="6.61727">
        <ele>2514.8000488281</ele>
        <time>2015-04-07T10:01:27.000Z</time>
      </trkpt>
      <trkpt lat="45.59605" lon="6.61725">
        <ele>2513.6000976562</ele>
        <time>2015-04-07T10:01:29.000Z</time>
      </trkpt>
      <trkpt lat="45.59606" lon="6.61725">
        <ele>2512</ele>
        <time>2015-04-07T10:01:31.000Z</time>
      </trkpt>
      <trkpt lat="45.59608" lon="6.61726">
        <ele>2511</ele>
        <time>2015-04-07T10:01:34.000Z</time>
      </trkpt>
      <trkpt lat="45.59609" lon="6.61726">
        <ele>2510</ele>
        <time>2015-04-07T10:01:38.000Z</time>
      </trkpt>
      <trkpt lat="45.59609" lon="6.61726">
        <ele>2510</ele>
        <time>2015-04-07T10:01:39.000Z</time>
      </trkpt>
      <trkpt lat="45.5961" lon="6.61727">
        <ele>2508.3999023438</ele>
        <time>2015-04-07T10:01:45.000Z</time>
      </trkpt>
      <trkpt lat="45.5961" lon="6.61727">
        <ele>2507.6000976562</ele>
        <time>2015-04-07T10:01:46.000Z</time>
      </trkpt>
      <trkpt lat="45.5961" lon="6.61727">
        <ele>2507.3999023438</ele>
        <time>2015-04-07T10:01:47.000Z</time>
      </trkpt>
      <trkpt lat="45.5961" lon="6.61727">
        <ele>2506.3999023438</ele>
        <time>2015-04-07T10:01:52.000Z</time>
      </trkpt>
      <trkpt lat="45.59612" lon="6.61728">
        <ele>2505.8000488281</ele>
        <time>2015-04-07T10:01:56.000Z</time>
      </trkpt>
      <trkpt lat="45.59613" lon="6.61727">
        <ele>2505.1999511719</ele>
        <time>2015-04-07T10:01:58.000Z</time>
      </trkpt>
      <trkpt lat="45.59613" lon="6.61727">
        <ele>2503.8000488281</ele>
        <time>2015-04-07T10:02:00.000Z</time>
      </trkpt>
      <trkpt lat="45.59614" lon="6.61731">
        <ele>2502.8000488281</ele>
        <time>2015-04-07T10:02:02.000Z</time>
      </trkpt>
      <trkpt lat="45.59614" lon="6.61733">
        <ele>2502.1999511719</ele>
        <time>2015-04-07T10:02:03.000Z</time>
      </trkpt>
      <trkpt lat="45.59614" lon="6.61734">
        <ele>2501.6000976562</ele>
        <time>2015-04-07T10:02:04.000Z</time>
      </trkpt>
      <trkpt lat="45.59615" lon="6.61736">
        <ele>2500.8000488281</ele>
        <time>2015-04-07T10:02:05.000Z</time>
      </trkpt>
      <trkpt lat="45.59617" lon="6.6174">
        <ele>2500.3999023438</ele>
        <time>2015-04-07T10:02:06.000Z</time>
      </trkpt>
      <trkpt lat="45.59617" lon="6.61744">
        <ele>2499.6000976562</ele>
        <time>2015-04-07T10:02:07.000Z</time>
      </trkpt>
      <trkpt lat="45.59616" lon="6.61745">
        <ele>2498.1999511719</ele>
        <time>2015-04-07T10:02:08.000Z</time>
      </trkpt>
      <trkpt lat="45.59617" lon="6.61745">
        <ele>2496</ele>
        <time>2015-04-07T10:02:09.000Z</time>
      </trkpt>
      <trkpt lat="45.59617" lon="6.61746">
        <ele>2492.6000976562</ele>
        <time>2015-04-07T10:02:10.000Z</time>
      </trkpt>
      <trkpt lat="45.59617" lon="6.61747">
        <ele>2491.8000488281</ele>
        <time>2015-04-07T10:02:11.000Z</time>
      </trkpt>
      <trkpt lat="45.59617" lon="6.61745">
        <ele>2491.3999023438</ele>
        <time>2015-04-07T10:02:12.000Z</time>
      </trkpt>
      <trkpt lat="45.59617" lon="6.61744">
        <ele>2490.8000488281</ele>
        <time>2015-04-07T10:02:14.000Z</time>
      </trkpt>
      <trkpt lat="45.59619" lon="6.61743">
        <ele>2489.6000976562</ele>
        <time>2015-04-07T10:02:15.000Z</time>
      </trkpt>
      <trkpt lat="45.5962" lon="6.61742">
        <ele>2488.1999511719</ele>
        <time>2015-04-07T10:02:16.000Z</time>
      </trkpt>
      <trkpt lat="45.59621" lon="6.61741">
        <ele>2487</ele>
        <time>2015-04-07T10:02:17.000Z</time>
      </trkpt>
      <trkpt lat="45.59622" lon="6.6174">
        <ele>2486</ele>
        <time>2015-04-07T10:02:18.000Z</time>
      </trkpt>
      <trkpt lat="45.59622" lon="6.6174">
        <ele>2484.8000488281</ele>
        <time>2015-04-07T10:02:19.000Z</time>
      </trkpt>
      <trkpt lat="45.59623" lon="6.61741">
        <ele>2483.3999023438</ele>
        <time>2015-04-07T10:02:20.000Z</time>
      </trkpt>
      <trkpt lat="45.59624" lon="6.61741">
        <ele>2482.3999023438</ele>
        <time>2015-04-07T10:02:21.000Z</time>
      </trkpt>
      <trkpt lat="45.59625" lon="6.61741">
        <ele>2481.3999023438</ele>
        <time>2015-04-07T10:02:23.000Z</time>
      </trkpt>
      <trkpt lat="45.59631" lon="6.61741">
        <ele>2481.1999511719</ele>
        <time>2015-04-07T10:02:31.000Z</time>
      </trkpt>
      <trkpt lat="45.59634" lon="6.61742">
        <ele>2480.6000976562</ele>
        <time>2015-04-07T10:02:34.000Z</time>
      </trkpt>
      <trkpt lat="45.59636" lon="6.61742">
        <ele>2480</ele>
        <time>2015-04-07T10:02:35.000Z</time>
      </trkpt>
      <trkpt lat="45.59636" lon="6.61743">
        <ele>2479.3999023438</ele>
        <time>2015-04-07T10:02:36.000Z</time>
      </trkpt>
      <trkpt lat="45.59636" lon="6.61745">
        <ele>2479</ele>
        <time>2015-04-07T10:02:37.000Z</time>
      </trkpt>
      <trkpt lat="45.59637" lon="6.61746">
        <ele>2477.8000488281</ele>
        <time>2015-04-07T10:02:40.000Z</time>
      </trkpt>
      <trkpt lat="45.59637" lon="6.61746">
        <ele>2477</ele>
        <time>2015-04-07T10:02:43.000Z</time>
      </trkpt>
      <trkpt lat="45.59637" lon="6.61746">
        <ele>2476.6000976562</ele>
        <time>2015-04-07T10:02:49.000Z</time>
      </trkpt>
      <trkpt lat="45.59637" lon="6.61746">
        <ele>2476.3999023438</ele>
        <time>2015-04-07T10:03:00.000Z</time>
      </trkpt>
      <trkpt lat="45.59636" lon="6.61747">
        <ele>2476.3999023438</ele>
        <time>2015-04-07T10:03:19.000Z</time>
      </trkpt>
      <trkpt lat="45.59636" lon="6.61747">
        <ele>2476.3999023438</ele>
        <time>2015-04-07T10:03:35.000Z</time>
      </trkpt>
      <trkpt lat="45.59636" lon="6.61747">
        <ele>2476.1999511719</ele>
        <time>2015-04-07T10:03:56.000Z</time>
      </trkpt>
      <trkpt lat="45.59635" lon="6.61747">
        <ele>2476</ele>
        <time>2015-04-07T10:04:14.000Z</time>
      </trkpt>
      <trkpt lat="45.59635" lon="6.61747">
        <ele>2476.1999511719</ele>
        <time>2015-04-07T10:04:25.000Z</time>
      </trkpt>
      <trkpt lat="45.59636" lon="6.61746">
        <ele>2475.8000488281</ele>
        <time>2015-04-07T10:04:35.000Z</time>
      </trkpt>
      <trkpt lat="45.59638" lon="6.61745">
        <ele>2476</ele>
        <time>2015-04-07T10:04:45.000Z</time>
      </trkpt>
      <trkpt lat="45.59638" lon="6.61745">
        <ele>2475.6000976562</ele>
        <time>2015-04-07T10:05:00.000Z</time>
      </trkpt>
      <trkpt lat="45.59638" lon="6.61745">
        <ele>2475.6000976562</ele>
        <time>2015-04-07T10:05:05.000Z</time>
      </trkpt>
      <trkpt lat="45.59638" lon="6.61744">
        <ele>2475.6000976562</ele>
        <time>2015-04-07T10:05:24.000Z</time>
      </trkpt>
      <trkpt lat="45.59639" lon="6.61744">
        <ele>2475.3999023438</ele>
        <time>2015-04-07T10:05:39.000Z</time>
      </trkpt>
      <trkpt lat="45.59644" lon="6.61744">
        <ele>2475</ele>
        <time>2015-04-07T10:05:41.000Z</time>
      </trkpt>
      <trkpt lat="45.59646" lon="6.61742">
        <ele>2474.6000976562</ele>
        <time>2015-04-07T10:05:42.000Z</time>
      </trkpt>
      <trkpt lat="45.59649" lon="6.6174">
        <ele>2474.1999511719</ele>
        <time>2015-04-07T10:05:43.000Z</time>
      </trkpt>
      <trkpt lat="45.59656" lon="6.61742">
        <ele>2472.6000976562</ele>
        <time>2015-04-07T10:05:45.000Z</time>
      </trkpt>
      <trkpt lat="45.59659" lon="6.6174">
        <ele>2469.3999023438</ele>
        <time>2015-04-07T10:05:46.000Z</time>
      </trkpt>
      <trkpt lat="45.59662" lon="6.61737">
        <ele>2468.1999511719</ele>
        <time>2015-04-07T10:05:47.000Z</time>
      </trkpt>
      <trkpt lat="45.59669" lon="6.61735">
        <ele>2466</ele>
        <time>2015-04-07T10:05:49.000Z</time>
      </trkpt>
      <trkpt lat="45.59672" lon="6.61736">
        <ele>2464</ele>
        <time>2015-04-07T10:05:50.000Z</time>
      </trkpt>
      <trkpt lat="45.59676" lon="6.61736">
        <ele>2462.1999511719</ele>
        <time>2015-04-07T10:05:51.000Z</time>
      </trkpt>
      <trkpt lat="45.59679" lon="6.61737">
        <ele>2460.6000976562</ele>
        <time>2015-04-07T10:05:52.000Z</time>
      </trkpt>
      <trkpt lat="45.59681" lon="6.61738">
        <ele>2459.1999511719</ele>
        <time>2015-04-07T10:05:53.000Z</time>
      </trkpt>
      <trkpt lat="45.59682" lon="6.61739">
        <ele>2457.3999023438</ele>
        <time>2015-04-07T10:05:54.000Z</time>
      </trkpt>
      <trkpt lat="45.59684" lon="6.61739">
        <ele>2455.1999511719</ele>
        <time>2015-04-07T10:05:55.000Z</time>
      </trkpt>
      <trkpt lat="45.59685" lon="6.61739">
        <ele>2453.3999023438</ele>
        <time>2015-04-07T10:05:56.000Z</time>
      </trkpt>
      <trkpt lat="45.59686" lon="6.61739">
        <ele>2451.8000488281</ele>
        <time>2015-04-07T10:05:57.000Z</time>
      </trkpt>
      <trkpt lat="45.59687" lon="6.61739">
        <ele>2450</ele>
        <time>2015-04-07T10:05:58.000Z</time>
      </trkpt>
      <trkpt lat="45.59686" lon="6.6174">
        <ele>2448.1999511719</ele>
        <time>2015-04-07T10:05:59.000Z</time>
      </trkpt>
      <trkpt lat="45.59688" lon="6.6174">
        <ele>2446.6000976562</ele>
        <time>2015-04-07T10:06:00.000Z</time>
      </trkpt>
      <trkpt lat="45.59687" lon="6.61742">
        <ele>2445.6000976562</ele>
        <time>2015-04-07T10:06:01.000Z</time>
      </trkpt>
      <trkpt lat="45.59688" lon="6.61744">
        <ele>2444.1999511719</ele>
        <time>2015-04-07T10:06:03.000Z</time>
      </trkpt>
      <trkpt lat="45.59691" lon="6.61749">
        <ele>2442.3999023438</ele>
        <time>2015-04-07T10:06:05.000Z</time>
      </trkpt>
      <trkpt lat="45.59693" lon="6.61749">
        <ele>2441.1999511719</ele>
        <time>2015-04-07T10:06:06.000Z</time>
      </trkpt>
      <trkpt lat="45.59695" lon="6.6175">
        <ele>2439.6000976562</ele>
        <time>2015-04-07T10:06:07.000Z</time>
      </trkpt>
      <trkpt lat="45.59698" lon="6.61751">
        <ele>2437.8000488281</ele>
        <time>2015-04-07T10:06:08.000Z</time>
      </trkpt>
      <trkpt lat="45.59701" lon="6.61753">
        <ele>2435.8000488281</ele>
        <time>2015-04-07T10:06:09.000Z</time>
      </trkpt>
      <trkpt lat="45.59704" lon="6.61754">
        <ele>2431.8000488281</ele>
        <time>2015-04-07T10:06:10.000Z</time>
      </trkpt>
      <trkpt lat="45.59707" lon="6.61754">
        <ele>2430</ele>
        <time>2015-04-07T10:06:11.000Z</time>
      </trkpt>
      <trkpt lat="45.59709" lon="6.61755">
        <ele>2427.8000488281</ele>
        <time>2015-04-07T10:06:12.000Z</time>
      </trkpt>
      <trkpt lat="45.59711" lon="6.61755">
        <ele>2425.3999023438</ele>
        <time>2015-04-07T10:06:13.000Z</time>
      </trkpt>
      <trkpt lat="45.59713" lon="6.61756">
        <ele>2423.1999511719</ele>
        <time>2015-04-07T10:06:14.000Z</time>
      </trkpt>
      <trkpt lat="45.59714" lon="6.61755">
        <ele>2421.3999023438</ele>
        <time>2015-04-07T10:06:15.000Z</time>
      </trkpt>
      <trkpt lat="45.59716" lon="6.61755">
        <ele>2419.8000488281</ele>
        <time>2015-04-07T10:06:16.000Z</time>
      </trkpt>
      <trkpt lat="45.59716" lon="6.61755">
        <ele>2418.1999511719</ele>
        <time>2015-04-07T10:06:17.000Z</time>
      </trkpt>
      <trkpt lat="45.59716" lon="6.61756">
        <ele>2417</ele>
        <time>2015-04-07T10:06:18.000Z</time>
      </trkpt>
      <trkpt lat="45.59711" lon="6.61758">
        <ele>2416</ele>
        <time>2015-04-07T10:06:20.000Z</time>
      </trkpt>
      <trkpt lat="45.59712" lon="6.61752">
        <ele>2415.8000488281</ele>
        <time>2015-04-07T10:06:22.000Z</time>
      </trkpt>
      <trkpt lat="45.59713" lon="6.61747">
        <ele>2414.6000976562</ele>
        <time>2015-04-07T10:06:26.000Z</time>
      </trkpt>
      <trkpt lat="45.59715" lon="6.61751">
        <ele>2413.1999511719</ele>
        <time>2015-04-07T10:06:28.000Z</time>
      </trkpt>
      <trkpt lat="45.59716" lon="6.61756">
        <ele>2412.8000488281</ele>
        <time>2015-04-07T10:06:29.000Z</time>
      </trkpt>
      <trkpt lat="45.59716" lon="6.61767">
        <ele>2411.3999023438</ele>
        <time>2015-04-07T10:06:31.000Z</time>
      </trkpt>
      <trkpt lat="45.59717" lon="6.61772">
        <ele>2410</ele>
        <time>2015-04-07T10:06:32.000Z</time>
      </trkpt>
      <trkpt lat="45.59718" lon="6.61778">
        <ele>2408.6000976562</ele>
        <time>2015-04-07T10:06:33.000Z</time>
      </trkpt>
      <trkpt lat="45.5972" lon="6.61782">
        <ele>2405.8000488281</ele>
        <time>2015-04-07T10:06:34.000Z</time>
      </trkpt>
      <trkpt lat="45.59722" lon="6.61786">
        <ele>2404</ele>
        <time>2015-04-07T10:06:35.000Z</time>
      </trkpt>
      <trkpt lat="45.59722" lon="6.61792">
        <ele>2402</ele>
        <time>2015-04-07T10:06:36.000Z</time>
      </trkpt>
      <trkpt lat="45.59724" lon="6.61796">
        <ele>2400</ele>
        <time>2015-04-07T10:06:37.000Z</time>
      </trkpt>
      <trkpt lat="45.59726" lon="6.61798">
        <ele>2397.6000976562</ele>
        <time>2015-04-07T10:06:38.000Z</time>
      </trkpt>
      <trkpt lat="45.59727" lon="6.61801">
        <ele>2395.6000976562</ele>
        <time>2015-04-07T10:06:39.000Z</time>
      </trkpt>
      <trkpt lat="45.59729" lon="6.61803">
        <ele>2393.6000976562</ele>
        <time>2015-04-07T10:06:40.000Z</time>
      </trkpt>
      <trkpt lat="45.5973" lon="6.61806">
        <ele>2391.6000976562</ele>
        <time>2015-04-07T10:06:41.000Z</time>
      </trkpt>
      <trkpt lat="45.59731" lon="6.61806">
        <ele>2390.3999023438</ele>
        <time>2015-04-07T10:06:42.000Z</time>
      </trkpt>
      <trkpt lat="45.59733" lon="6.61805">
        <ele>2389</ele>
        <time>2015-04-07T10:06:44.000Z</time>
      </trkpt>
      <trkpt lat="45.59734" lon="6.61805">
        <ele>2388.6000976562</ele>
        <time>2015-04-07T10:06:45.000Z</time>
      </trkpt>
      <trkpt lat="45.59735" lon="6.61803">
        <ele>2388.1999511719</ele>
        <time>2015-04-07T10:06:54.000Z</time>
      </trkpt>
      <trkpt lat="45.59735" lon="6.61803">
        <ele>2388.1999511719</ele>
        <time>2015-04-07T10:07:00.000Z</time>
      </trkpt>
      <trkpt lat="45.59733" lon="6.618">
        <ele>2388.1999511719</ele>
        <time>2015-04-07T10:07:11.000Z</time>
      </trkpt>
      <trkpt lat="45.59733" lon="6.61798">
        <ele>2388.1999511719</ele>
        <time>2015-04-07T10:07:26.000Z</time>
      </trkpt>
      <trkpt lat="45.59733" lon="6.61798">
        <ele>2388.1999511719</ele>
        <time>2015-04-07T10:07:43.000Z</time>
      </trkpt>
      <trkpt lat="45.59732" lon="6.61799">
        <ele>2388</ele>
        <time>2015-04-07T10:07:59.000Z</time>
      </trkpt>
      <trkpt lat="45.59733" lon="6.61803">
        <ele>2388</ele>
        <time>2015-04-07T10:08:12.000Z</time>
      </trkpt>
      <trkpt lat="45.59731" lon="6.61806">
        <ele>2387.8000488281</ele>
        <time>2015-04-07T10:08:13.000Z</time>
      </trkpt>
      <trkpt lat="45.59732" lon="6.6182">
        <ele>2386.6000976562</ele>
        <time>2015-04-07T10:08:16.000Z</time>
      </trkpt>
      <trkpt lat="45.59732" lon="6.61831">
        <ele>2384.1999511719</ele>
        <time>2015-04-07T10:08:18.000Z</time>
      </trkpt>
      <trkpt lat="45.59734" lon="6.61834">
        <ele>2382.6000976562</ele>
        <time>2015-04-07T10:08:19.000Z</time>
      </trkpt>
      <trkpt lat="45.59736" lon="6.61839">
        <ele>2381</ele>
        <time>2015-04-07T10:08:20.000Z</time>
      </trkpt>
      <trkpt lat="45.59735" lon="6.61846">
        <ele>2379</ele>
        <time>2015-04-07T10:08:21.000Z</time>
      </trkpt>
      <trkpt lat="45.59736" lon="6.61852">
        <ele>2376.6000976562</ele>
        <time>2015-04-07T10:08:22.000Z</time>
      </trkpt>
      <trkpt lat="45.59737" lon="6.61858">
        <ele>2374.1999511719</ele>
        <time>2015-04-07T10:08:23.000Z</time>
      </trkpt>
      <trkpt lat="45.59736" lon="6.61864">
        <ele>2372.1999511719</ele>
        <time>2015-04-07T10:08:24.000Z</time>
      </trkpt>
      <trkpt lat="45.59736" lon="6.61871">
        <ele>2370</ele>
        <time>2015-04-07T10:08:25.000Z</time>
      </trkpt>
      <trkpt lat="45.59737" lon="6.61878">
        <ele>2367.3999023438</ele>
        <time>2015-04-07T10:08:26.000Z</time>
      </trkpt>
      <trkpt lat="45.59738" lon="6.61884">
        <ele>2364.8000488281</ele>
        <time>2015-04-07T10:08:27.000Z</time>
      </trkpt>
      <trkpt lat="45.59738" lon="6.61892">
        <ele>2362.3999023438</ele>
        <time>2015-04-07T10:08:28.000Z</time>
      </trkpt>
      <trkpt lat="45.59738" lon="6.61899">
        <ele>2359.6000976562</ele>
        <time>2015-04-07T10:08:29.000Z</time>
      </trkpt>
      <trkpt lat="45.59739" lon="6.61905">
        <ele>2357</ele>
        <time>2015-04-07T10:08:30.000Z</time>
      </trkpt>
      <trkpt lat="45.59739" lon="6.61912">
        <ele>2354.3999023438</ele>
        <time>2015-04-07T10:08:31.000Z</time>
      </trkpt>
      <trkpt lat="45.59739" lon="6.61919">
        <ele>2352</ele>
        <time>2015-04-07T10:08:32.000Z</time>
      </trkpt>
      <trkpt lat="45.5974" lon="6.61926">
        <ele>2349.3999023438</ele>
        <time>2015-04-07T10:08:33.000Z</time>
      </trkpt>
      <trkpt lat="45.5974" lon="6.61934">
        <ele>2343.8000488281</ele>
        <time>2015-04-07T10:08:34.000Z</time>
      </trkpt>
      <trkpt lat="45.5974" lon="6.61942">
        <ele>2341.3999023438</ele>
        <time>2015-04-07T10:08:35.000Z</time>
      </trkpt>
      <trkpt lat="45.5974" lon="6.61951">
        <ele>2338.6000976562</ele>
        <time>2015-04-07T10:08:36.000Z</time>
      </trkpt>
      <trkpt lat="45.59741" lon="6.61959">
        <ele>2335.6000976562</ele>
        <time>2015-04-07T10:08:37.000Z</time>
      </trkpt>
      <trkpt lat="45.59743" lon="6.61967">
        <ele>2332.8000488281</ele>
        <time>2015-04-07T10:08:38.000Z</time>
      </trkpt>
      <trkpt lat="45.59743" lon="6.61976">
        <ele>2330</ele>
        <time>2015-04-07T10:08:39.000Z</time>
      </trkpt>
      <trkpt lat="45.59745" lon="6.61984">
        <ele>2327.1999511719</ele>
        <time>2015-04-07T10:08:40.000Z</time>
      </trkpt>
      <trkpt lat="45.59747" lon="6.61992">
        <ele>2324.3999023438</ele>
        <time>2015-04-07T10:08:41.000Z</time>
      </trkpt>
      <trkpt lat="45.59748" lon="6.62002">
        <ele>2321.8000488281</ele>
        <time>2015-04-07T10:08:42.000Z</time>
      </trkpt>
      <trkpt lat="45.59749" lon="6.62011">
        <ele>2319</ele>
        <time>2015-04-07T10:08:43.000Z</time>
      </trkpt>
      <trkpt lat="45.59749" lon="6.62018">
        <ele>2316.1999511719</ele>
        <time>2015-04-07T10:08:44.000Z</time>
      </trkpt>
      <trkpt lat="45.5975" lon="6.62029">
        <ele>2313.3999023438</ele>
        <time>2015-04-07T10:08:45.000Z</time>
      </trkpt>
      <trkpt lat="45.5975" lon="6.62036">
        <ele>2310.6000976562</ele>
        <time>2015-04-07T10:08:46.000Z</time>
      </trkpt>
      <trkpt lat="45.59749" lon="6.62043">
        <ele>2307.8000488281</ele>
        <time>2015-04-07T10:08:47.000Z</time>
      </trkpt>
      <trkpt lat="45.59749" lon="6.62046">
        <ele>2305</ele>
        <time>2015-04-07T10:08:48.000Z</time>
      </trkpt>
      <trkpt lat="45.59749" lon="6.62047">
        <ele>2302.3999023438</ele>
        <time>2015-04-07T10:08:49.000Z</time>
      </trkpt>
      <trkpt lat="45.59749" lon="6.62047">
        <ele>2300.1999511719</ele>
        <time>2015-04-07T10:08:50.000Z</time>
      </trkpt>
      <trkpt lat="45.5975" lon="6.62047">
        <ele>2298.8000488281</ele>
        <time>2015-04-07T10:08:51.000Z</time>
      </trkpt>
      <trkpt lat="45.59751" lon="6.62043">
        <ele>2297.6000976562</ele>
        <time>2015-04-07T10:08:53.000Z</time>
      </trkpt>
      <trkpt lat="45.59751" lon="6.62043">
        <ele>2297.3999023438</ele>
        <time>2015-04-07T10:09:00.000Z</time>
      </trkpt>
      <trkpt lat="45.59755" lon="6.62035">
        <ele>2297.3999023438</ele>
        <time>2015-04-07T10:09:04.000Z</time>
      </trkpt>
      <trkpt lat="45.59756" lon="6.62037">
        <ele>2297.3999023438</ele>
        <time>2015-04-07T10:09:05.000Z</time>
      </trkpt>
      <trkpt lat="45.59768" lon="6.62035">
        <ele>2295.3999023438</ele>
        <time>2015-04-07T10:09:08.000Z</time>
      </trkpt>
      <trkpt lat="45.59774" lon="6.62029">
        <ele>2294</ele>
        <time>2015-04-07T10:09:09.000Z</time>
      </trkpt>
      <trkpt lat="45.59781" lon="6.62028">
        <ele>2292.3999023438</ele>
        <time>2015-04-07T10:09:10.000Z</time>
      </trkpt>
      <trkpt lat="45.59787" lon="6.62027">
        <ele>2290.6000976562</ele>
        <time>2015-04-07T10:09:11.000Z</time>
      </trkpt>
      <trkpt lat="45.59793" lon="6.62025">
        <ele>2288.1999511719</ele>
        <time>2015-04-07T10:09:12.000Z</time>
      </trkpt>
      <trkpt lat="45.598" lon="6.62024">
        <ele>2285.3999023438</ele>
        <time>2015-04-07T10:09:13.000Z</time>
      </trkpt>
      <trkpt lat="45.59806" lon="6.62026">
        <ele>2282.6000976562</ele>
        <time>2015-04-07T10:09:14.000Z</time>
      </trkpt>
      <trkpt lat="45.59813" lon="6.62027">
        <ele>2279.6000976562</ele>
        <time>2015-04-07T10:09:15.000Z</time>
      </trkpt>
      <trkpt lat="45.59819" lon="6.62026">
        <ele>2276.8000488281</ele>
        <time>2015-04-07T10:09:16.000Z</time>
      </trkpt>
      <trkpt lat="45.59825" lon="6.62027">
        <ele>2274</ele>
        <time>2015-04-07T10:09:17.000Z</time>
      </trkpt>
      <trkpt lat="45.59831" lon="6.6203">
        <ele>2271.1999511719</ele>
        <time>2015-04-07T10:09:18.000Z</time>
      </trkpt>
      <trkpt lat="45.59837" lon="6.62031">
        <ele>2268.6000976562</ele>
        <time>2015-04-07T10:09:19.000Z</time>
      </trkpt>
      <trkpt lat="45.59843" lon="6.62031">
        <ele>2265.8000488281</ele>
        <time>2015-04-07T10:09:20.000Z</time>
      </trkpt>
      <trkpt lat="45.5985" lon="6.62032">
        <ele>2263.3999023438</ele>
        <time>2015-04-07T10:09:21.000Z</time>
      </trkpt>
      <trkpt lat="45.59857" lon="6.62034">
        <ele>2258.8000488281</ele>
        <time>2015-04-07T10:09:22.000Z</time>
      </trkpt>
      <trkpt lat="45.59865" lon="6.62034">
        <ele>2256.1999511719</ele>
        <time>2015-04-07T10:09:23.000Z</time>
      </trkpt>
      <trkpt lat="45.59873" lon="6.62033">
        <ele>2253.3999023438</ele>
        <time>2015-04-07T10:09:24.000Z</time>
      </trkpt>
      <trkpt lat="45.5988" lon="6.62034">
        <ele>2250.8000488281</ele>
        <time>2015-04-07T10:09:25.000Z</time>
      </trkpt>
      <trkpt lat="45.59887" lon="6.62032">
        <ele>2248</ele>
        <time>2015-04-07T10:09:26.000Z</time>
      </trkpt>
      <trkpt lat="45.59895" lon="6.62033">
        <ele>2245.3999023438</ele>
        <time>2015-04-07T10:09:27.000Z</time>
      </trkpt>
      <trkpt lat="45.59903" lon="6.62034">
        <ele>2242.3999023438</ele>
        <time>2015-04-07T10:09:28.000Z</time>
      </trkpt>
      <trkpt lat="45.59911" lon="6.62035">
        <ele>2238.8000488281</ele>
        <time>2015-04-07T10:09:29.000Z</time>
      </trkpt>
      <trkpt lat="45.59918" lon="6.62033">
        <ele>2235.1999511719</ele>
        <time>2015-04-07T10:09:30.000Z</time>
      </trkpt>
      <trkpt lat="45.59927" lon="6.62026">
        <ele>2231.8000488281</ele>
        <time>2015-04-07T10:09:31.000Z</time>
      </trkpt>
      <trkpt lat="45.59934" lon="6.62021">
        <ele>2228.6000976562</ele>
        <time>2015-04-07T10:09:32.000Z</time>
      </trkpt>
      <trkpt lat="45.59941" lon="6.62018">
        <ele>2225.3999023438</ele>
        <time>2015-04-07T10:09:33.000Z</time>
      </trkpt>
      <trkpt lat="45.59947" lon="6.62015">
        <ele>2222.3999023438</ele>
        <time>2015-04-07T10:09:34.000Z</time>
      </trkpt>
      <trkpt lat="45.59955" lon="6.62016">
        <ele>2220</ele>
        <time>2015-04-07T10:09:35.000Z</time>
      </trkpt>
      <trkpt lat="45.5996" lon="6.62016">
        <ele>2218.1999511719</ele>
        <time>2015-04-07T10:09:36.000Z</time>
      </trkpt>
      <trkpt lat="45.59966" lon="6.62015">
        <ele>2217</ele>
        <time>2015-04-07T10:09:37.000Z</time>
      </trkpt>
      <trkpt lat="45.5997" lon="6.62015">
        <ele>2215.8000488281</ele>
        <time>2015-04-07T10:09:38.000Z</time>
      </trkpt>
      <trkpt lat="45.59974" lon="6.62015">
        <ele>2215</ele>
        <time>2015-04-07T10:09:39.000Z</time>
      </trkpt>
      <trkpt lat="45.59978" lon="6.62013">
        <ele>2214</ele>
        <time>2015-04-07T10:09:40.000Z</time>
      </trkpt>
      <trkpt lat="45.59981" lon="6.62014">
        <ele>2213</ele>
        <time>2015-04-07T10:09:41.000Z</time>
      </trkpt>
      <trkpt lat="45.59984" lon="6.62016">
        <ele>2211.3999023438</ele>
        <time>2015-04-07T10:09:42.000Z</time>
      </trkpt>
      <trkpt lat="45.59988" lon="6.62017">
        <ele>2209.3999023438</ele>
        <time>2015-04-07T10:09:43.000Z</time>
      </trkpt>
      <trkpt lat="45.59991" lon="6.62017">
        <ele>2207</ele>
        <time>2015-04-07T10:09:44.000Z</time>
      </trkpt>
      <trkpt lat="45.59995" lon="6.62018">
        <ele>2204.8000488281</ele>
        <time>2015-04-07T10:09:45.000Z</time>
      </trkpt>
      <trkpt lat="45.6" lon="6.62018">
        <ele>2200</ele>
        <time>2015-04-07T10:09:46.000Z</time>
      </trkpt>
      <trkpt lat="45.60004" lon="6.62019">
        <ele>2197.8000488281</ele>
        <time>2015-04-07T10:09:47.000Z</time>
      </trkpt>
      <trkpt lat="45.60009" lon="6.62018">
        <ele>2195.3999023438</ele>
        <time>2015-04-07T10:09:48.000Z</time>
      </trkpt>
      <trkpt lat="45.60014" lon="6.62016">
        <ele>2193</ele>
        <time>2015-04-07T10:09:49.000Z</time>
      </trkpt>
      <trkpt lat="45.60018" lon="6.62013">
        <ele>2190.3999023438</ele>
        <time>2015-04-07T10:09:50.000Z</time>
      </trkpt>
      <trkpt lat="45.60019" lon="6.62011">
        <ele>2187.6000976562</ele>
        <time>2015-04-07T10:09:51.000Z</time>
      </trkpt>
      <trkpt lat="45.60024" lon="6.62007">
        <ele>2185</ele>
        <time>2015-04-07T10:09:52.000Z</time>
      </trkpt>
      <trkpt lat="45.60024" lon="6.62004">
        <ele>2182.6000976562</ele>
        <time>2015-04-07T10:09:53.000Z</time>
      </trkpt>
      <trkpt lat="45.60033" lon="6.62003">
        <ele>2179.8000488281</ele>
        <time>2015-04-07T10:09:54.000Z</time>
      </trkpt>
      <trkpt lat="45.60037" lon="6.62005">
        <ele>2176.8000488281</ele>
        <time>2015-04-07T10:09:55.000Z</time>
      </trkpt>
      <trkpt lat="45.60039" lon="6.62003">
        <ele>2173.8000488281</ele>
        <time>2015-04-07T10:09:56.000Z</time>
      </trkpt>
      <trkpt lat="45.60043" lon="6.62002">
        <ele>2170.8000488281</ele>
        <time>2015-04-07T10:09:57.000Z</time>
      </trkpt>
      <trkpt lat="45.60048" lon="6.62003">
        <ele>2167.8000488281</ele>
        <time>2015-04-07T10:09:58.000Z</time>
      </trkpt>
      <trkpt lat="45.60055" lon="6.62004">
        <ele>2165</ele>
        <time>2015-04-07T10:09:59.000Z</time>
      </trkpt>
      <trkpt lat="45.6006" lon="6.62005">
        <ele>2162.1999511719</ele>
        <time>2015-04-07T10:10:00.000Z</time>
      </trkpt>
      <trkpt lat="45.60065" lon="6.62003">
        <ele>2159.1999511719</ele>
        <time>2015-04-07T10:10:01.000Z</time>
      </trkpt>
      <trkpt lat="45.60069" lon="6.62003">
        <ele>2156.1999511719</ele>
        <time>2015-04-07T10:10:02.000Z</time>
      </trkpt>
      <trkpt lat="45.60074" lon="6.62002">
        <ele>2153</ele>
        <time>2015-04-07T10:10:03.000Z</time>
      </trkpt>
      <trkpt lat="45.6008" lon="6.62">
        <ele>2149.8000488281</ele>
        <time>2015-04-07T10:10:04.000Z</time>
      </trkpt>
      <trkpt lat="45.60085" lon="6.61997">
        <ele>2146.6000976562</ele>
        <time>2015-04-07T10:10:05.000Z</time>
      </trkpt>
      <trkpt lat="45.60092" lon="6.61997">
        <ele>2143.3999023438</ele>
        <time>2015-04-07T10:10:06.000Z</time>
      </trkpt>
      <trkpt lat="45.60099" lon="6.61996">
        <ele>2140.1999511719</ele>
        <time>2015-04-07T10:10:07.000Z</time>
      </trkpt>
      <trkpt lat="45.60105" lon="6.61994">
        <ele>2137.1999511719</ele>
        <time>2015-04-07T10:10:08.000Z</time>
      </trkpt>
      <trkpt lat="45.6011" lon="6.61992">
        <ele>2134.6000976562</ele>
        <time>2015-04-07T10:10:09.000Z</time>
      </trkpt>
      <trkpt lat="45.60115" lon="6.61989">
        <ele>2132.1999511719</ele>
        <time>2015-04-07T10:10:10.000Z</time>
      </trkpt>
      <trkpt lat="45.6012" lon="6.61987">
        <ele>2127.3999023438</ele>
        <time>2015-04-07T10:10:11.000Z</time>
      </trkpt>
      <trkpt lat="45.60125" lon="6.61985">
        <ele>2125.3999023438</ele>
        <time>2015-04-07T10:10:12.000Z</time>
      </trkpt>
      <trkpt lat="45.60131" lon="6.61984">
        <ele>2123.8000488281</ele>
        <time>2015-04-07T10:10:13.000Z</time>
      </trkpt>
      <trkpt lat="45.60136" lon="6.61983">
        <ele>2122.1999511719</ele>
        <time>2015-04-07T10:10:14.000Z</time>
      </trkpt>
      <trkpt lat="45.60139" lon="6.61984">
        <ele>2120.6000976562</ele>
        <time>2015-04-07T10:10:15.000Z</time>
      </trkpt>
      <trkpt lat="45.60137" lon="6.61989">
        <ele>2119.1999511719</ele>
        <time>2015-04-07T10:10:16.000Z</time>
      </trkpt>
      <trkpt lat="45.60143" lon="6.61983">
        <ele>2117.8000488281</ele>
        <time>2015-04-07T10:10:17.000Z</time>
      </trkpt>
      <trkpt lat="45.6015" lon="6.61971">
        <ele>2116.6000976562</ele>
        <time>2015-04-07T10:10:18.000Z</time>
      </trkpt>
      <trkpt lat="45.6016" lon="6.6196">
        <ele>2115.3999023438</ele>
        <time>2015-04-07T10:10:19.000Z</time>
      </trkpt>
      <trkpt lat="45.60168" lon="6.61951">
        <ele>2114.3999023438</ele>
        <time>2015-04-07T10:10:20.000Z</time>
      </trkpt>
      <trkpt lat="45.60179" lon="6.61938">
        <ele>2113</ele>
        <time>2015-04-07T10:10:22.000Z</time>
      </trkpt>
      <trkpt lat="45.60176" lon="6.6194">
        <ele>2112.3999023438</ele>
        <time>2015-04-07T10:10:23.000Z</time>
      </trkpt>
      <trkpt lat="45.60177" lon="6.61937">
        <ele>2111.6000976562</ele>
        <time>2015-04-07T10:10:25.000Z</time>
      </trkpt>
      <trkpt lat="45.60184" lon="6.61925">
        <ele>2110.3999023438</ele>
        <time>2015-04-07T10:10:29.000Z</time>
      </trkpt>
      <trkpt lat="45.60194" lon="6.61916">
        <ele>2109.6000976562</ele>
        <time>2015-04-07T10:10:33.000Z</time>
      </trkpt>
      <trkpt lat="45.60198" lon="6.61913">
        <ele>2109.3999023438</ele>
        <time>2015-04-07T10:10:34.000Z</time>
      </trkpt>
      <trkpt lat="45.60201" lon="6.61912">
        <ele>2108.8000488281</ele>
        <time>2015-04-07T10:10:35.000Z</time>
      </trkpt>
      <trkpt lat="45.60204" lon="6.61908">
        <ele>2108.3999023438</ele>
        <time>2015-04-07T10:10:36.000Z</time>
      </trkpt>
      <trkpt lat="45.60211" lon="6.61903">
        <ele>2107.6000976562</ele>
        <time>2015-04-07T10:10:38.000Z</time>
      </trkpt>
      <trkpt lat="45.6022" lon="6.61896">
        <ele>2106.6000976562</ele>
        <time>2015-04-07T10:10:40.000Z</time>
      </trkpt>
      <trkpt lat="45.60224" lon="6.61894">
        <ele>2106.1999511719</ele>
        <time>2015-04-07T10:10:41.000Z</time>
      </trkpt>
      <trkpt lat="45.60232" lon="6.61887">
        <ele>2104.8000488281</ele>
        <time>2015-04-07T10:10:44.000Z</time>
      </trkpt>
      <trkpt lat="45.60235" lon="6.61884">
        <ele>2104.3999023438</ele>
        <time>2015-04-07T10:10:50.000Z</time>
      </trkpt>
      <trkpt lat="45.60235" lon="6.61884">
        <ele>2104.1999511719</ele>
        <time>2015-04-07T10:11:08.000Z</time>
      </trkpt>
      <trkpt lat="45.60235" lon="6.61884">
        <ele>2104</ele>
        <time>2015-04-07T10:11:19.000Z</time>
      </trkpt>
      <trkpt lat="45.60235" lon="6.61886">
        <ele>2104</ele>
        <time>2015-04-07T10:11:32.000Z</time>
      </trkpt>
      <trkpt lat="45.60235" lon="6.61886">
        <ele>2104</ele>
        <time>2015-04-07T10:11:44.000Z</time>
      </trkpt>
      <trkpt lat="45.60235" lon="6.61886">
        <ele>2103.8000488281</ele>
        <time>2015-04-07T10:11:49.000Z</time>
      </trkpt>
      <trkpt lat="45.60235" lon="6.61886">
        <ele>2103.6000976562</ele>
        <time>2015-04-07T10:11:57.000Z</time>
      </trkpt>
      <trkpt lat="45.60235" lon="6.61886">
        <ele>2103.8000488281</ele>
        <time>2015-04-07T10:12:11.000Z</time>
      </trkpt>
      <trkpt lat="45.60235" lon="6.61886">
        <ele>2103.8000488281</ele>
        <time>2015-04-07T10:12:28.000Z</time>
      </trkpt>
      <trkpt lat="45.60235" lon="6.61886">
        <ele>2103.6000976562</ele>
        <time>2015-04-07T10:12:40.000Z</time>
      </trkpt>
      <trkpt lat="45.60235" lon="6.61886">
        <ele>2103.6000976562</ele>
        <time>2015-04-07T10:12:51.000Z</time>
      </trkpt>
      <trkpt lat="45.60235" lon="6.61886">
        <ele>2103.1999511719</ele>
        <time>2015-04-07T10:12:55.000Z</time>
      </trkpt>
      <trkpt lat="45.60235" lon="6.61886">
        <ele>2103.3999023438</ele>
        <time>2015-04-07T10:13:08.000Z</time>
      </trkpt>
      <trkpt lat="45.60235" lon="6.61886">
        <ele>2102.6000976562</ele>
        <time>2015-04-07T10:13:26.000Z</time>
      </trkpt>
      <trkpt lat="45.60235" lon="6.61886">
        <ele>2103.3999023438</ele>
        <time>2015-04-07T10:13:42.000Z</time>
      </trkpt>
      <trkpt lat="45.60235" lon="6.61886">
        <ele>2103.8000488281</ele>
        <time>2015-04-07T10:13:46.000Z</time>
      </trkpt>
      <trkpt lat="45.60235" lon="6.61886">
        <ele>2103.1999511719</ele>
        <time>2015-04-07T10:13:56.000Z</time>
      </trkpt>
      <trkpt lat="45.60236" lon="6.61885">
        <ele>2103.3999023438</ele>
        <time>2015-04-07T10:14:14.000Z</time>
      </trkpt>
      <trkpt lat="45.60236" lon="6.61885">
        <ele>2103.1999511719</ele>
        <time>2015-04-07T10:14:34.000Z</time>
      </trkpt>
      <trkpt lat="45.60236" lon="6.61885">
        <ele>2103.1999511719</ele>
        <time>2015-04-07T10:14:50.000Z</time>
      </trkpt>
      <trkpt lat="45.60236" lon="6.61885">
        <ele>2103.1999511719</ele>
        <time>2015-04-07T10:15:04.000Z</time>
      </trkpt>
      <trkpt lat="45.60236" lon="6.61885">
        <ele>2103.1999511719</ele>
        <time>2015-04-07T10:15:17.000Z</time>
      </trkpt>
      <trkpt lat="45.60237" lon="6.61885">
        <ele>2103.1999511719</ele>
        <time>2015-04-07T10:15:37.000Z</time>
      </trkpt>
      <trkpt lat="45.60237" lon="6.61885">
        <ele>2103.1999511719</ele>
        <time>2015-04-07T10:15:56.000Z</time>
      </trkpt>
      <trkpt lat="45.60237" lon="6.61885">
        <ele>2102.8000488281</ele>
        <time>2015-04-07T10:16:01.000Z</time>
      </trkpt>
      <trkpt lat="45.60237" lon="6.61885">
        <ele>2103.3999023438</ele>
        <time>2015-04-07T10:16:11.000Z</time>
      </trkpt>
      <trkpt lat="45.60237" lon="6.61885">
        <ele>2103.3999023438</ele>
        <time>2015-04-07T10:16:28.000Z</time>
      </trkpt>
      <trkpt lat="45.60237" lon="6.61885">
        <ele>2103.3999023438</ele>
        <time>2015-04-07T10:16:40.000Z</time>
      </trkpt>
      <trkpt lat="45.60237" lon="6.61885">
        <ele>2103.3999023438</ele>
        <time>2015-04-07T10:16:54.000Z</time>
      </trkpt>
      <trkpt lat="45.60237" lon="6.61885">
        <ele>2103.3999023438</ele>
        <time>2015-04-07T10:17:08.000Z</time>
      </trkpt>
      <trkpt lat="45.60237" lon="6.61884">
        <ele>2103.1999511719</ele>
        <time>2015-04-07T10:17:26.000Z</time>
      </trkpt>
      <trkpt lat="45.60237" lon="6.61884">
        <ele>2103</ele>
        <time>2015-04-07T10:17:41.000Z</time>
      </trkpt>
      <trkpt lat="45.60237" lon="6.61884">
        <ele>2103.1999511719</ele>
        <time>2015-04-07T10:17:55.000Z</time>
      </trkpt>
      <trkpt lat="45.60236" lon="6.61886">
        <ele>2103</ele>
        <time>2015-04-07T10:18:13.000Z</time>
      </trkpt>
      <trkpt lat="45.60236" lon="6.61886">
        <ele>2103.1999511719</ele>
        <time>2015-04-07T10:18:29.000Z</time>
      </trkpt>
      <trkpt lat="45.60236" lon="6.61886">
        <ele>2102.8000488281</ele>
        <time>2015-04-07T10:18:46.000Z</time>
      </trkpt>
      <trkpt lat="45.60236" lon="6.61886">
        <ele>2102.8000488281</ele>
        <time>2015-04-07T10:19:09.000Z</time>
      </trkpt>
      <trkpt lat="45.60235" lon="6.61887">
        <ele>2103</ele>
        <time>2015-04-07T10:19:31.000Z</time>
      </trkpt>
      <trkpt lat="45.60235" lon="6.61887">
        <ele>2102.8000488281</ele>
        <time>2015-04-07T10:19:46.000Z</time>
      </trkpt>
      <trkpt lat="45.60235" lon="6.61887">
        <ele>2102.6000976562</ele>
        <time>2015-04-07T10:20:01.000Z</time>
      </trkpt>
      <trkpt lat="45.60235" lon="6.61887">
        <ele>2103</ele>
        <time>2015-04-07T10:20:19.000Z</time>
      </trkpt>
      <trkpt lat="45.60235" lon="6.61887">
        <ele>2103</ele>
        <time>2015-04-07T10:20:33.000Z</time>
      </trkpt>
      <trkpt lat="45.60234" lon="6.61887">
        <ele>2102.8000488281</ele>
        <time>2015-04-07T10:20:48.000Z</time>
      </trkpt>
      <trkpt lat="45.60234" lon="6.61887">
        <ele>2102.6000976562</ele>
        <time>2015-04-07T10:21:00.000Z</time>
      </trkpt>
      <trkpt lat="45.60234" lon="6.61887">
        <ele>2102.8000488281</ele>
        <time>2015-04-07T10:21:11.000Z</time>
      </trkpt>
      <trkpt lat="45.60235" lon="6.61887">
        <ele>2102.8000488281</ele>
        <time>2015-04-07T10:21:23.000Z</time>
      </trkpt>
      <trkpt lat="45.60235" lon="6.61887">
        <ele>2102.3999023438</ele>
        <time>2015-04-07T10:21:34.000Z</time>
      </trkpt>
      <trkpt lat="45.60235" lon="6.61887">
        <ele>2102.6000976562</ele>
        <time>2015-04-07T10:21:46.000Z</time>
      </trkpt>
      <trkpt lat="45.60236" lon="6.61885">
        <ele>2103.1999511719</ele>
        <time>2015-04-07T10:21:55.000Z</time>
      </trkpt>
      <trkpt lat="45.60233" lon="6.61877">
        <ele>2103</ele>
        <time>2015-04-07T10:22:02.000Z</time>
      </trkpt>
      <trkpt lat="45.60232" lon="6.61875">
        <ele>2103.1999511719</ele>
        <time>2015-04-07T10:22:10.000Z</time>
      </trkpt>
      <trkpt lat="45.60229" lon="6.61871">
        <ele>2103.6000976562</ele>
        <time>2015-04-07T10:22:17.000Z</time>
      </trkpt>
      <trkpt lat="45.60227" lon="6.61861">
        <ele>2104</ele>
        <time>2015-04-07T10:22:26.000Z</time>
      </trkpt>
      <trkpt lat="45.60224" lon="6.6185">
        <ele>2104.3999023438</ele>
        <time>2015-04-07T10:22:33.000Z</time>
      </trkpt>
      <trkpt lat="45.60224" lon="6.61848">
        <ele>2104.3999023438</ele>
        <time>2015-04-07T10:22:34.000Z</time>
      </trkpt>
      <trkpt lat="45.60221" lon="6.61841">
        <ele>2104.3999023438</ele>
        <time>2015-04-07T10:22:39.000Z</time>
      </trkpt>
      <trkpt lat="45.60221" lon="6.61835">
        <ele>2105</ele>
        <time>2015-04-07T10:22:42.000Z</time>
      </trkpt>
      <trkpt lat="45.6022" lon="6.61829">
        <ele>2105.1999511719</ele>
        <time>2015-04-07T10:22:46.000Z</time>
      </trkpt>
      <trkpt lat="45.60218" lon="6.6182">
        <ele>2106</ele>
        <time>2015-04-07T10:22:52.000Z</time>
      </trkpt>
      <trkpt lat="45.60218" lon="6.61818">
        <ele>2106</ele>
        <time>2015-04-07T10:22:53.000Z</time>
      </trkpt>
      <trkpt lat="45.60217" lon="6.61812">
        <ele>2106.6000976562</ele>
        <time>2015-04-07T10:23:00.000Z</time>
      </trkpt>
      <trkpt lat="45.60216" lon="6.61811">
        <ele>2106.6000976562</ele>
        <time>2015-04-07T10:23:09.000Z</time>
      </trkpt>
      <trkpt lat="45.60216" lon="6.61807">
        <ele>2106.6000976562</ele>
        <time>2015-04-07T10:23:22.000Z</time>
      </trkpt>
      <trkpt lat="45.60213" lon="6.61799">
        <ele>2107</ele>
        <time>2015-04-07T10:23:27.000Z</time>
      </trkpt>
      <trkpt lat="45.60212" lon="6.61797">
        <ele>2107</ele>
        <time>2015-04-07T10:23:28.000Z</time>
      </trkpt>
      <trkpt lat="45.60207" lon="6.61787">
        <ele>2107.1999511719</ele>
        <time>2015-04-07T10:23:33.000Z</time>
      </trkpt>
      <trkpt lat="45.60204" lon="6.61777">
        <ele>2107.6000976562</ele>
        <time>2015-04-07T10:23:40.000Z</time>
      </trkpt>
      <trkpt lat="45.60202" lon="6.61767">
        <ele>2108</ele>
        <time>2015-04-07T10:23:46.000Z</time>
      </trkpt>
      <trkpt lat="45.60202" lon="6.61766">
        <ele>2108.1999511719</ele>
        <time>2015-04-07T10:23:47.000Z</time>
      </trkpt>
      <trkpt lat="45.60201" lon="6.61764">
        <ele>2108.3999023438</ele>
        <time>2015-04-07T10:23:53.000Z</time>
      </trkpt>
      <trkpt lat="45.60199" lon="6.61756">
        <ele>2108.6000976562</ele>
        <time>2015-04-07T10:23:59.000Z</time>
      </trkpt>
      <trkpt lat="45.60197" lon="6.61751">
        <ele>2109</ele>
        <time>2015-04-07T10:24:04.000Z</time>
      </trkpt>
      <trkpt lat="45.60195" lon="6.61745">
        <ele>2109.3999023438</ele>
        <time>2015-04-07T10:24:08.000Z</time>
      </trkpt>
      <trkpt lat="45.60193" lon="6.61741">
        <ele>2109.8000488281</ele>
        <time>2015-04-07T10:24:11.000Z</time>
      </trkpt>
      <trkpt lat="45.6019" lon="6.61734">
        <ele>2109.8000488281</ele>
        <time>2015-04-07T10:24:17.000Z</time>
      </trkpt>
      <trkpt lat="45.60188" lon="6.61729">
        <ele>2110.3999023438</ele>
        <time>2015-04-07T10:24:21.000Z</time>
      </trkpt>
      <trkpt lat="45.60187" lon="6.61726">
        <ele>2110.8000488281</ele>
        <time>2015-04-07T10:24:24.000Z</time>
      </trkpt>
      <trkpt lat="45.60186" lon="6.61722">
        <ele>2111.1999511719</ele>
        <time>2015-04-07T10:24:30.000Z</time>
      </trkpt>
      <trkpt lat="45.60184" lon="6.61718">
        <ele>2111.3999023438</ele>
        <time>2015-04-07T10:24:32.000Z</time>
      </trkpt>
      <trkpt lat="45.60183" lon="6.61712">
        <ele>2112</ele>
        <time>2015-04-07T10:24:38.000Z</time>
      </trkpt>
      <trkpt lat="45.60182" lon="6.61703">
        <ele>2112.3999023438</ele>
        <time>2015-04-07T10:24:44.000Z</time>
      </trkpt>
      <trkpt lat="45.60182" lon="6.61703">
        <ele>2112.3999023438</ele>
        <time>2015-04-07T10:24:45.000Z</time>
      </trkpt>
      <trkpt lat="45.60179" lon="6.61695">
        <ele>2112.6000976562</ele>
        <time>2015-04-07T10:24:52.000Z</time>
      </trkpt>
      <trkpt lat="45.60177" lon="6.61692">
        <ele>2113.1999511719</ele>
        <time>2015-04-07T10:24:58.000Z</time>
      </trkpt>
      <trkpt lat="45.60175" lon="6.61686">
        <ele>2113.3999023438</ele>
        <time>2015-04-07T10:25:04.000Z</time>
      </trkpt>
      <trkpt lat="45.60174" lon="6.61684">
        <ele>2113.6000976562</ele>
        <time>2015-04-07T10:25:05.000Z</time>
      </trkpt>
      <trkpt lat="45.60168" lon="6.61674">
        <ele>2114.1999511719</ele>
        <time>2015-04-07T10:25:13.000Z</time>
      </trkpt>
      <trkpt lat="45.60166" lon="6.61668">
        <ele>2114.6000976562</ele>
        <time>2015-04-07T10:25:18.000Z</time>
      </trkpt>
      <trkpt lat="45.60166" lon="6.61667">
        <ele>2114.8000488281</ele>
        <time>2015-04-07T10:25:20.000Z</time>
      </trkpt>
      <trkpt lat="45.60165" lon="6.61659">
        <ele>2115.6000976562</ele>
        <time>2015-04-07T10:25:26.000Z</time>
      </trkpt>
      <trkpt lat="45.60165" lon="6.61658">
        <ele>2115.6000976562</ele>
        <time>2015-04-07T10:25:27.000Z</time>
      </trkpt>
      <trkpt lat="45.60164" lon="6.61654">
        <ele>2116.6000976562</ele>
        <time>2015-04-07T10:25:32.000Z</time>
      </trkpt>
      <trkpt lat="45.60164" lon="6.61652">
        <ele>2116.8000488281</ele>
        <time>2015-04-07T10:25:33.000Z</time>
      </trkpt>
      <trkpt lat="45.60162" lon="6.61646">
        <ele>2117.6000976562</ele>
        <time>2015-04-07T10:25:39.000Z</time>
      </trkpt>
      <trkpt lat="45.60162" lon="6.61646">
        <ele>2117.8000488281</ele>
        <time>2015-04-07T10:25:40.000Z</time>
      </trkpt>
      <trkpt lat="45.60163" lon="6.61642">
        <ele>2118.6000976562</ele>
        <time>2015-04-07T10:25:46.000Z</time>
      </trkpt>
      <trkpt lat="45.60163" lon="6.61642">
        <ele>2118.8000488281</ele>
        <time>2015-04-07T10:25:47.000Z</time>
      </trkpt>
      <trkpt lat="45.60162" lon="6.6164">
        <ele>2119.8000488281</ele>
        <time>2015-04-07T10:25:52.000Z</time>
      </trkpt>
      <trkpt lat="45.6016" lon="6.61636">
        <ele>2120.3999023438</ele>
        <time>2015-04-07T10:25:55.000Z</time>
      </trkpt>
      <trkpt lat="45.6016" lon="6.61634">
        <ele>2121</ele>
        <time>2015-04-07T10:25:57.000Z</time>
      </trkpt>
      <trkpt lat="45.60159" lon="6.61629">
        <ele>2122</ele>
        <time>2015-04-07T10:26:02.000Z</time>
      </trkpt>
      <trkpt lat="45.60159" lon="6.61629">
        <ele>2122</ele>
        <time>2015-04-07T10:26:03.000Z</time>
      </trkpt>
      <trkpt lat="45.60157" lon="6.61623">
        <ele>2122.6000976562</ele>
        <time>2015-04-07T10:26:10.000Z</time>
      </trkpt>
      <trkpt lat="45.60156" lon="6.61622">
        <ele>2123.1999511719</ele>
        <time>2015-04-07T10:26:13.000Z</time>
      </trkpt>
      <trkpt lat="45.60156" lon="6.61618">
        <ele>2124</ele>
        <time>2015-04-07T10:26:17.000Z</time>
      </trkpt>
      <trkpt lat="45.60156" lon="6.61617">
        <ele>2124.1999511719</ele>
        <time>2015-04-07T10:26:18.000Z</time>
      </trkpt>
      <trkpt lat="45.60156" lon="6.61612">
        <ele>2124.8000488281</ele>
        <time>2015-04-07T10:26:23.000Z</time>
      </trkpt>
      <trkpt lat="45.60154" lon="6.61607">
        <ele>2125.1999511719</ele>
        <time>2015-04-07T10:26:29.000Z</time>
      </trkpt>
      <trkpt lat="45.60154" lon="6.61605">
        <ele>2125.3999023438</ele>
        <time>2015-04-07T10:26:34.000Z</time>
      </trkpt>
      <trkpt lat="45.60153" lon="6.61604">
        <ele>2125.3999023438</ele>
        <time>2015-04-07T10:26:36.000Z</time>
      </trkpt>
      <trkpt lat="45.60152" lon="6.616">
        <ele>2126</ele>
        <time>2015-04-07T10:26:41.000Z</time>
      </trkpt>
      <trkpt lat="45.60151" lon="6.61598">
        <ele>2126.1999511719</ele>
        <time>2015-04-07T10:26:42.000Z</time>
      </trkpt>
      <trkpt lat="45.6015" lon="6.61596">
        <ele>2126.1999511719</ele>
        <time>2015-04-07T10:26:44.000Z</time>
      </trkpt>
      <trkpt lat="45.6015" lon="6.61595">
        <ele>2126.3999023438</ele>
        <time>2015-04-07T10:26:45.000Z</time>
      </trkpt>
      <trkpt lat="45.6015" lon="6.61591">
        <ele>2127.1999511719</ele>
        <time>2015-04-07T10:26:52.000Z</time>
      </trkpt>
      <trkpt lat="45.60149" lon="6.6159">
        <ele>2127.3999023438</ele>
        <time>2015-04-07T10:26:54.000Z</time>
      </trkpt>
      <trkpt lat="45.60149" lon="6.61588">
        <ele>2128.1999511719</ele>
        <time>2015-04-07T10:27:00.000Z</time>
      </trkpt>
      <trkpt lat="45.60149" lon="6.61587">
        <ele>2128.3999023438</ele>
        <time>2015-04-07T10:27:08.000Z</time>
      </trkpt>
      <trkpt lat="45.60149" lon="6.61581">
        <ele>2128.6000976562</ele>
        <time>2015-04-07T10:27:13.000Z</time>
      </trkpt>
      <trkpt lat="45.60149" lon="6.61578">
        <ele>2129.6000976562</ele>
        <time>2015-04-07T10:27:18.000Z</time>
      </trkpt>
      <trkpt lat="45.60148" lon="6.61569">
        <ele>2130.3999023438</ele>
        <time>2015-04-07T10:27:24.000Z</time>
      </trkpt>
      <trkpt lat="45.60147" lon="6.61566">
        <ele>2130.6000976562</ele>
        <time>2015-04-07T10:27:27.000Z</time>
      </trkpt>
      <trkpt lat="45.60147" lon="6.61564">
        <ele>2130.8000488281</ele>
        <time>2015-04-07T10:27:29.000Z</time>
      </trkpt>
      <trkpt lat="45.60147" lon="6.61557">
        <ele>2131.6000976562</ele>
        <time>2015-04-07T10:27:35.000Z</time>
      </trkpt>
      <trkpt lat="45.60147" lon="6.61556">
        <ele>2131.8000488281</ele>
        <time>2015-04-07T10:27:36.000Z</time>
      </trkpt>
      <trkpt lat="45.60146" lon="6.61553">
        <ele>2132.1999511719</ele>
        <time>2015-04-07T10:27:41.000Z</time>
      </trkpt>
      <trkpt lat="45.60146" lon="6.61547">
        <ele>2132.8000488281</ele>
        <time>2015-04-07T10:27:46.000Z</time>
      </trkpt>
      <trkpt lat="45.60145" lon="6.61543">
        <ele>2133.3999023438</ele>
        <time>2015-04-07T10:27:50.000Z</time>
      </trkpt>
      <trkpt lat="45.60144" lon="6.61539">
        <ele>2133.8000488281</ele>
        <time>2015-04-07T10:27:53.000Z</time>
      </trkpt>
      <trkpt lat="45.60144" lon="6.61536">
        <ele>2134</ele>
        <time>2015-04-07T10:27:55.000Z</time>
      </trkpt>
      <trkpt lat="45.60143" lon="6.61531">
        <ele>2135</ele>
        <time>2015-04-07T10:28:00.000Z</time>
      </trkpt>
      <trkpt lat="45.60142" lon="6.6153">
        <ele>2135.1999511719</ele>
        <time>2015-04-07T10:28:01.000Z</time>
      </trkpt>
      <trkpt lat="45.6014" lon="6.61523">
        <ele>2136</ele>
        <time>2015-04-07T10:28:05.000Z</time>
      </trkpt>
      <trkpt lat="45.6014" lon="6.61523">
        <ele>2136</ele>
        <time>2015-04-07T10:28:06.000Z</time>
      </trkpt>
      <trkpt lat="45.6014" lon="6.6152">
        <ele>2137</ele>
        <time>2015-04-07T10:28:12.000Z</time>
      </trkpt>
      <trkpt lat="45.6014" lon="6.6152">
        <ele>2137</ele>
        <time>2015-04-07T10:28:13.000Z</time>
      </trkpt>
      <trkpt lat="45.60141" lon="6.61517">
        <ele>2138</ele>
        <time>2015-04-07T10:28:18.000Z</time>
      </trkpt>
      <trkpt lat="45.6014" lon="6.61512">
        <ele>2139</ele>
        <time>2015-04-07T10:28:23.000Z</time>
      </trkpt>
      <trkpt lat="45.6014" lon="6.61511">
        <ele>2139.3999023438</ele>
        <time>2015-04-07T10:28:24.000Z</time>
      </trkpt>
      <trkpt lat="45.6014" lon="6.61504">
        <ele>2140.1999511719</ele>
        <time>2015-04-07T10:28:31.000Z</time>
      </trkpt>
      <trkpt lat="45.6014" lon="6.61503">
        <ele>2140.3999023438</ele>
        <time>2015-04-07T10:28:32.000Z</time>
      </trkpt>
      <trkpt lat="45.60139" lon="6.61498">
        <ele>2141.1999511719</ele>
        <time>2015-04-07T10:28:36.000Z</time>
      </trkpt>
      <trkpt lat="45.60139" lon="6.61498">
        <ele>2141.3999023438</ele>
        <time>2015-04-07T10:28:37.000Z</time>
      </trkpt>
      <trkpt lat="45.60139" lon="6.61494">
        <ele>2142.1999511719</ele>
        <time>2015-04-07T10:28:41.000Z</time>
      </trkpt>
      <trkpt lat="45.60139" lon="6.61492">
        <ele>2142.3999023438</ele>
        <time>2015-04-07T10:28:43.000Z</time>
      </trkpt>
      <trkpt lat="45.6014" lon="6.61489">
        <ele>2143</ele>
        <time>2015-04-07T10:28:47.000Z</time>
      </trkpt>
      <trkpt lat="45.6014" lon="6.61487">
        <ele>2143.6000976562</ele>
        <time>2015-04-07T10:28:50.000Z</time>
      </trkpt>
      <trkpt lat="45.60141" lon="6.61485">
        <ele>2143.8000488281</ele>
        <time>2015-04-07T10:28:53.000Z</time>
      </trkpt>
      <trkpt lat="45.60141" lon="6.61478">
        <ele>2144.1999511719</ele>
        <time>2015-04-07T10:28:58.000Z</time>
      </trkpt>
      <trkpt lat="45.6014" lon="6.61474">
        <ele>2144.8000488281</ele>
        <time>2015-04-07T10:29:01.000Z</time>
      </trkpt>
      <trkpt lat="45.6014" lon="6.61473">
        <ele>2145.1999511719</ele>
        <time>2015-04-07T10:29:03.000Z</time>
      </trkpt>
      <trkpt lat="45.60139" lon="6.61468">
        <ele>2145.8000488281</ele>
        <time>2015-04-07T10:29:08.000Z</time>
      </trkpt>
      <trkpt lat="45.60139" lon="6.61467">
        <ele>2146</ele>
        <time>2015-04-07T10:29:09.000Z</time>
      </trkpt>
      <trkpt lat="45.60139" lon="6.61462">
        <ele>2146.6000976562</ele>
        <time>2015-04-07T10:29:15.000Z</time>
      </trkpt>
      <trkpt lat="45.60139" lon="6.61461">
        <ele>2146.8000488281</ele>
        <time>2015-04-07T10:29:17.000Z</time>
      </trkpt>
      <trkpt lat="45.60138" lon="6.61456">
        <ele>2147.1999511719</ele>
        <time>2015-04-07T10:29:22.000Z</time>
      </trkpt>
      <trkpt lat="45.60134" lon="6.61451">
        <ele>2147.8000488281</ele>
        <time>2015-04-07T10:29:29.000Z</time>
      </trkpt>
      <trkpt lat="45.60133" lon="6.6145">
        <ele>2148</ele>
        <time>2015-04-07T10:29:30.000Z</time>
      </trkpt>
      <trkpt lat="45.60129" lon="6.61445">
        <ele>2148</ele>
        <time>2015-04-07T10:29:35.000Z</time>
      </trkpt>
      <trkpt lat="45.60123" lon="6.61436">
        <ele>2148.6000976562</ele>
        <time>2015-04-07T10:29:42.000Z</time>
      </trkpt>
      <trkpt lat="45.60119" lon="6.61431">
        <ele>2149</ele>
        <time>2015-04-07T10:29:46.000Z</time>
      </trkpt>
      <trkpt lat="45.60117" lon="6.61428">
        <ele>2148.8000488281</ele>
        <time>2015-04-07T10:29:48.000Z</time>
      </trkpt>
      <trkpt lat="45.6011" lon="6.61418">
        <ele>2148.1999511719</ele>
        <time>2015-04-07T10:29:55.000Z</time>
      </trkpt>
      <trkpt lat="45.60107" lon="6.61414">
        <ele>2148.3999023438</ele>
        <time>2015-04-07T10:30:00.000Z</time>
      </trkpt>
      <trkpt lat="45.60104" lon="6.61407">
        <ele>2148.8000488281</ele>
        <time>2015-04-07T10:30:06.000Z</time>
      </trkpt>
      <trkpt lat="45.60101" lon="6.61403">
        <ele>2150</ele>
        <time>2015-04-07T10:30:13.000Z</time>
      </trkpt>
      <trkpt lat="45.60099" lon="6.61399">
        <ele>2151</ele>
        <time>2015-04-07T10:30:18.000Z</time>
      </trkpt>
      <trkpt lat="45.60098" lon="6.61397">
        <ele>2151.3999023438</ele>
        <time>2015-04-07T10:30:20.000Z</time>
      </trkpt>
      <trkpt lat="45.60096" lon="6.61392">
        <ele>2152.1999511719</ele>
        <time>2015-04-07T10:30:24.000Z</time>
      </trkpt>
      <trkpt lat="45.60093" lon="6.6139">
        <ele>2152.8000488281</ele>
        <time>2015-04-07T10:30:27.000Z</time>
      </trkpt>
      <trkpt lat="45.60093" lon="6.61387">
        <ele>2153.1999511719</ele>
        <time>2015-04-07T10:30:30.000Z</time>
      </trkpt>
      <trkpt lat="45.60092" lon="6.61382">
        <ele>2154.1999511719</ele>
        <time>2015-04-07T10:30:35.000Z</time>
      </trkpt>
      <trkpt lat="45.60092" lon="6.61381">
        <ele>2154.3999023438</ele>
        <time>2015-04-07T10:30:36.000Z</time>
      </trkpt>
      <trkpt lat="45.6009" lon="6.61372">
        <ele>2155.3999023438</ele>
        <time>2015-04-07T10:30:43.000Z</time>
      </trkpt>
      <trkpt lat="45.6009" lon="6.61371">
        <ele>2155.6000976562</ele>
        <time>2015-04-07T10:30:44.000Z</time>
      </trkpt>
      <trkpt lat="45.60087" lon="6.61366">
        <ele>2156.3999023438</ele>
        <time>2015-04-07T10:30:50.000Z</time>
      </trkpt>
      <trkpt lat="45.60084" lon="6.61363">
        <ele>2156.8000488281</ele>
        <time>2015-04-07T10:30:54.000Z</time>
      </trkpt>
      <trkpt lat="45.60084" lon="6.6136">
        <ele>2157.3999023438</ele>
        <time>2015-04-07T10:30:57.000Z</time>
      </trkpt>
      <trkpt lat="45.60083" lon="6.61357">
        <ele>2158</ele>
        <time>2015-04-07T10:31:00.000Z</time>
      </trkpt>
      <trkpt lat="45.60083" lon="6.61355">
        <ele>2158.6000976562</ele>
        <time>2015-04-07T10:31:03.000Z</time>
      </trkpt>
      <trkpt lat="45.60083" lon="6.61351">
        <ele>2159.1999511719</ele>
        <time>2015-04-07T10:31:06.000Z</time>
      </trkpt>
      <trkpt lat="45.60082" lon="6.61344">
        <ele>2160.1999511719</ele>
        <time>2015-04-07T10:31:12.000Z</time>
      </trkpt>
      <trkpt lat="45.60082" lon="6.61343">
        <ele>2160.3999023438</ele>
        <time>2015-04-07T10:31:13.000Z</time>
      </trkpt>
      <trkpt lat="45.60081" lon="6.6134">
        <ele>2161</ele>
        <time>2015-04-07T10:31:18.000Z</time>
      </trkpt>
      <trkpt lat="45.60078" lon="6.61337">
        <ele>2161.3999023438</ele>
        <time>2015-04-07T10:31:20.000Z</time>
      </trkpt>
      <trkpt lat="45.60077" lon="6.61329">
        <ele>2162.6000976562</ele>
        <time>2015-04-07T10:31:25.000Z</time>
      </trkpt>
      <trkpt lat="45.60074" lon="6.61322">
        <ele>2163.3999023438</ele>
        <time>2015-04-07T10:31:32.000Z</time>
      </trkpt>
      <trkpt lat="45.60074" lon="6.61322">
        <ele>2163.6000976562</ele>
        <time>2015-04-07T10:31:33.000Z</time>
      </trkpt>
      <trkpt lat="45.60072" lon="6.61318">
        <ele>2164.3999023438</ele>
        <time>2015-04-07T10:31:38.000Z</time>
      </trkpt>
      <trkpt lat="45.60071" lon="6.61319">
        <ele>2164.6000976562</ele>
        <time>2015-04-07T10:31:39.000Z</time>
      </trkpt>
      <trkpt lat="45.60073" lon="6.61313">
        <ele>2165.6000976562</ele>
        <time>2015-04-07T10:31:44.000Z</time>
      </trkpt>
      <trkpt lat="45.60073" lon="6.61311">
        <ele>2165.6000976562</ele>
        <time>2015-04-07T10:31:45.000Z</time>
      </trkpt>
      <trkpt lat="45.60074" lon="6.61305">
        <ele>2166.6000976562</ele>
        <time>2015-04-07T10:31:50.000Z</time>
      </trkpt>
      <trkpt lat="45.60076" lon="6.613">
        <ele>2167.6000976562</ele>
        <time>2015-04-07T10:31:56.000Z</time>
      </trkpt>
      <trkpt lat="45.60076" lon="6.61298">
        <ele>2167.8000488281</ele>
        <time>2015-04-07T10:31:57.000Z</time>
      </trkpt>
      <trkpt lat="45.60079" lon="6.61295">
        <ele>2168.8000488281</ele>
        <time>2015-04-07T10:32:02.000Z</time>
      </trkpt>
      <trkpt lat="45.60079" lon="6.61294">
        <ele>2168.8000488281</ele>
        <time>2015-04-07T10:32:03.000Z</time>
      </trkpt>
      <trkpt lat="45.60076" lon="6.61289">
        <ele>2169.3999023438</ele>
        <time>2015-04-07T10:32:09.000Z</time>
      </trkpt>
      <trkpt lat="45.60075" lon="6.61286">
        <ele>2170.1999511719</ele>
        <time>2015-04-07T10:32:11.000Z</time>
      </trkpt>
      <trkpt lat="45.60075" lon="6.61283">
        <ele>2171</ele>
        <time>2015-04-07T10:32:14.000Z</time>
      </trkpt>
      <trkpt lat="45.60075" lon="6.61284">
        <ele>2171.1999511719</ele>
        <time>2015-04-07T10:32:15.000Z</time>
      </trkpt>
      <trkpt lat="45.60073" lon="6.6128">
        <ele>2171.8000488281</ele>
        <time>2015-04-07T10:32:20.000Z</time>
      </trkpt>
      <trkpt lat="45.60073" lon="6.61279">
        <ele>2172.1999511719</ele>
        <time>2015-04-07T10:32:23.000Z</time>
      </trkpt>
      <trkpt lat="45.60073" lon="6.61272">
        <ele>2172.8000488281</ele>
        <time>2015-04-07T10:32:26.000Z</time>
      </trkpt>
      <trkpt lat="45.60071" lon="6.61265">
        <ele>2173.1999511719</ele>
        <time>2015-04-07T10:32:31.000Z</time>
      </trkpt>
      <trkpt lat="45.6007" lon="6.61263">
        <ele>2173.3999023438</ele>
        <time>2015-04-07T10:32:32.000Z</time>
      </trkpt>
      <trkpt lat="45.6007" lon="6.61257">
        <ele>2174.3999023438</ele>
        <time>2015-04-07T10:32:37.000Z</time>
      </trkpt>
      <trkpt lat="45.60068" lon="6.6125">
        <ele>2175.1999511719</ele>
        <time>2015-04-07T10:32:42.000Z</time>
      </trkpt>
      <trkpt lat="45.60067" lon="6.61247">
        <ele>2175.3999023438</ele>
        <time>2015-04-07T10:32:45.000Z</time>
      </trkpt>
      <trkpt lat="45.60068" lon="6.61244">
        <ele>2176</ele>
        <time>2015-04-07T10:32:49.000Z</time>
      </trkpt>
      <trkpt lat="45.60066" lon="6.61243">
        <ele>2176.3999023438</ele>
        <time>2015-04-07T10:32:52.000Z</time>
      </trkpt>
      <trkpt lat="45.60065" lon="6.61241">
        <ele>2176.8000488281</ele>
        <time>2015-04-07T10:32:56.000Z</time>
      </trkpt>
      <trkpt lat="45.60062" lon="6.61235">
        <ele>2177.3999023438</ele>
        <time>2015-04-07T10:33:02.000Z</time>
      </trkpt>
      <trkpt lat="45.60061" lon="6.61232">
        <ele>2177.6000976562</ele>
        <time>2015-04-07T10:33:03.000Z</time>
      </trkpt>
      <trkpt lat="45.60058" lon="6.61226">
        <ele>2177.8000488281</ele>
        <time>2015-04-07T10:33:08.000Z</time>
      </trkpt>
      <trkpt lat="45.60052" lon="6.61218">
        <ele>2178.1999511719</ele>
        <time>2015-04-07T10:33:13.000Z</time>
      </trkpt>
      <trkpt lat="45.60047" lon="6.61213">
        <ele>2178.1999511719</ele>
        <time>2015-04-07T10:33:20.000Z</time>
      </trkpt>
      <trkpt lat="45.60046" lon="6.61208">
        <ele>2178.3999023438</ele>
        <time>2015-04-07T10:33:26.000Z</time>
      </trkpt>
      <trkpt lat="45.60045" lon="6.61208">
        <ele>2178.6000976562</ele>
        <time>2015-04-07T10:33:27.000Z</time>
      </trkpt>
      <trkpt lat="45.60043" lon="6.61204">
        <ele>2179.3999023438</ele>
        <time>2015-04-07T10:33:33.000Z</time>
      </trkpt>
      <trkpt lat="45.60041" lon="6.612">
        <ele>2179.8000488281</ele>
        <time>2015-04-07T10:33:37.000Z</time>
      </trkpt>
      <trkpt lat="45.6004" lon="6.61199">
        <ele>2180</ele>
        <time>2015-04-07T10:33:39.000Z</time>
      </trkpt>
      <trkpt lat="45.60039" lon="6.61195">
        <ele>2180.8000488281</ele>
        <time>2015-04-07T10:33:43.000Z</time>
      </trkpt>
      <trkpt lat="45.60037" lon="6.61192">
        <ele>2181.3999023438</ele>
        <time>2015-04-07T10:33:46.000Z</time>
      </trkpt>
      <trkpt lat="45.60036" lon="6.61188">
        <ele>2182</ele>
        <time>2015-04-07T10:33:49.000Z</time>
      </trkpt>
      <trkpt lat="45.60035" lon="6.61186">
        <ele>2182.6000976562</ele>
        <time>2015-04-07T10:33:53.000Z</time>
      </trkpt>
      <trkpt lat="45.60034" lon="6.61184">
        <ele>2183</ele>
        <time>2015-04-07T10:33:56.000Z</time>
      </trkpt>
      <trkpt lat="45.60032" lon="6.61181">
        <ele>2183.1999511719</ele>
        <time>2015-04-07T10:33:59.000Z</time>
      </trkpt>
      <trkpt lat="45.60028" lon="6.61175">
        <ele>2184.1999511719</ele>
        <time>2015-04-07T10:34:05.000Z</time>
      </trkpt>
      <trkpt lat="45.60028" lon="6.61173">
        <ele>2184.1999511719</ele>
        <time>2015-04-07T10:34:06.000Z</time>
      </trkpt>
      <trkpt lat="45.60025" lon="6.61165">
        <ele>2184.8000488281</ele>
        <time>2015-04-07T10:34:12.000Z</time>
      </trkpt>
      <trkpt lat="45.60022" lon="6.61161">
        <ele>2185.1999511719</ele>
        <time>2015-04-07T10:34:18.000Z</time>
      </trkpt>
      <trkpt lat="45.60022" lon="6.6116">
        <ele>2185.3999023438</ele>
        <time>2015-04-07T10:34:19.000Z</time>
      </trkpt>
      <trkpt lat="45.60019" lon="6.61154">
        <ele>2186</ele>
        <time>2015-04-07T10:34:24.000Z</time>
      </trkpt>
      <trkpt lat="45.60018" lon="6.61151">
        <ele>2186.3999023438</ele>
        <time>2015-04-07T10:34:26.000Z</time>
      </trkpt>
      <trkpt lat="45.60016" lon="6.61145">
        <ele>2186.8000488281</ele>
        <time>2015-04-07T10:34:30.000Z</time>
      </trkpt>
      <trkpt lat="45.60013" lon="6.61137">
        <ele>2187.1999511719</ele>
        <time>2015-04-07T10:34:36.000Z</time>
      </trkpt>
      <trkpt lat="45.60012" lon="6.61135">
        <ele>2187.3999023438</ele>
        <time>2015-04-07T10:34:38.000Z</time>
      </trkpt>
      <trkpt lat="45.60011" lon="6.61129">
        <ele>2188</ele>
        <time>2015-04-07T10:34:42.000Z</time>
      </trkpt>
      <trkpt lat="45.6001" lon="6.61126">
        <ele>2188.6000976562</ele>
        <time>2015-04-07T10:34:44.000Z</time>
      </trkpt>
      <trkpt lat="45.60009" lon="6.61123">
        <ele>2188.8000488281</ele>
        <time>2015-04-07T10:34:48.000Z</time>
      </trkpt>
      <trkpt lat="45.60007" lon="6.61117">
        <ele>2189.3999023438</ele>
        <time>2015-04-07T10:34:53.000Z</time>
      </trkpt>
      <trkpt lat="45.60007" lon="6.61116">
        <ele>2189.6000976562</ele>
        <time>2015-04-07T10:34:54.000Z</time>
      </trkpt>
      <trkpt lat="45.60005" lon="6.61112">
        <ele>2190.1999511719</ele>
        <time>2015-04-07T10:34:59.000Z</time>
      </trkpt>
      <trkpt lat="45.60005" lon="6.61111">
        <ele>2190.8000488281</ele>
        <time>2015-04-07T10:35:00.000Z</time>
      </trkpt>
      <trkpt lat="45.60004" lon="6.61108">
        <ele>2191.8000488281</ele>
        <time>2015-04-07T10:35:07.000Z</time>
      </trkpt>
      <trkpt lat="45.60004" lon="6.61108">
        <ele>2192.1999511719</ele>
        <time>2015-04-07T10:35:16.000Z</time>
      </trkpt>
      <trkpt lat="45.60004" lon="6.61108">
        <ele>2193</ele>
        <time>2015-04-07T10:35:24.000Z</time>
      </trkpt>
      <trkpt lat="45.60004" lon="6.61108">
        <ele>2192.6000976562</ele>
        <time>2015-04-07T10:35:32.000Z</time>
      </trkpt>
      <trkpt lat="45.60002" lon="6.61102">
        <ele>2192.6000976562</ele>
        <time>2015-04-07T10:35:37.000Z</time>
      </trkpt>
      <trkpt lat="45.60001" lon="6.61096">
        <ele>2194</ele>
        <time>2015-04-07T10:35:42.000Z</time>
      </trkpt>
      <trkpt lat="45.60001" lon="6.61095">
        <ele>2194.1999511719</ele>
        <time>2015-04-07T10:35:43.000Z</time>
      </trkpt>
      <trkpt lat="45.59999" lon="6.61093">
        <ele>2195.1999511719</ele>
        <time>2015-04-07T10:35:47.000Z</time>
      </trkpt>
      <trkpt lat="45.59999" lon="6.61093">
        <ele>2195.8000488281</ele>
        <time>2015-04-07T10:35:48.000Z</time>
      </trkpt>
      <trkpt lat="45.59996" lon="6.61089">
        <ele>2197</ele>
        <time>2015-04-07T10:35:53.000Z</time>
      </trkpt>
      <trkpt lat="45.59996" lon="6.61088">
        <ele>2197.1999511719</ele>
        <time>2015-04-07T10:35:54.000Z</time>
      </trkpt>
      <trkpt lat="45.59994" lon="6.61086">
        <ele>2198</ele>
        <time>2015-04-07T10:35:59.000Z</time>
      </trkpt>
      <trkpt lat="45.5999" lon="6.61084">
        <ele>2199</ele>
        <time>2015-04-07T10:36:05.000Z</time>
      </trkpt>
      <trkpt lat="45.5999" lon="6.61083">
        <ele>2199.1999511719</ele>
        <time>2015-04-07T10:36:06.000Z</time>
      </trkpt>
      <trkpt lat="45.59989" lon="6.6108">
        <ele>2199.8000488281</ele>
        <time>2015-04-07T10:36:11.000Z</time>
      </trkpt>
      <trkpt lat="45.59988" lon="6.61079">
        <ele>2200.1999511719</ele>
        <time>2015-04-07T10:36:12.000Z</time>
      </trkpt>
      <trkpt lat="45.59986" lon="6.61076">
        <ele>2201.3999023438</ele>
        <time>2015-04-07T10:36:17.000Z</time>
      </trkpt>
      <trkpt lat="45.59985" lon="6.61076">
        <ele>2201.6000976562</ele>
        <time>2015-04-07T10:36:18.000Z</time>
      </trkpt>
      <trkpt lat="45.59979" lon="6.61077">
        <ele>2202.3999023438</ele>
        <time>2015-04-07T10:36:23.000Z</time>
      </trkpt>
      <trkpt lat="45.59978" lon="6.61078">
        <ele>2202.3999023438</ele>
        <time>2015-04-07T10:36:24.000Z</time>
      </trkpt>
      <trkpt lat="45.59974" lon="6.61079">
        <ele>2203</ele>
        <time>2015-04-07T10:36:29.000Z</time>
      </trkpt>
      <trkpt lat="45.59972" lon="6.6108">
        <ele>2203.3999023438</ele>
        <time>2015-04-07T10:36:32.000Z</time>
      </trkpt>
      <trkpt lat="45.5997" lon="6.61081">
        <ele>2203.6000976562</ele>
        <time>2015-04-07T10:36:33.000Z</time>
      </trkpt>
      <trkpt lat="45.5997" lon="6.61081">
        <ele>2203.8000488281</ele>
        <time>2015-04-07T10:36:34.000Z</time>
      </trkpt>
      <trkpt lat="45.59968" lon="6.6108">
        <ele>2204.6000976562</ele>
        <time>2015-04-07T10:36:38.000Z</time>
      </trkpt>
      <trkpt lat="45.59968" lon="6.61081">
        <ele>2204.6000976562</ele>
        <time>2015-04-07T10:36:39.000Z</time>
      </trkpt>
      <trkpt lat="45.59963" lon="6.61082">
        <ele>2205.6000976562</ele>
        <time>2015-04-07T10:36:44.000Z</time>
      </trkpt>
      <trkpt lat="45.59962" lon="6.61081">
        <ele>2206.1999511719</ele>
        <time>2015-04-07T10:36:48.000Z</time>
      </trkpt>
      <trkpt lat="45.5996" lon="6.61082">
        <ele>2206.8000488281</ele>
        <time>2015-04-07T10:36:52.000Z</time>
      </trkpt>
      <trkpt lat="45.59959" lon="6.61083">
        <ele>2206.8000488281</ele>
        <time>2015-04-07T10:36:53.000Z</time>
      </trkpt>
      <trkpt lat="45.59955" lon="6.61085">
        <ele>2207.3999023438</ele>
        <time>2015-04-07T10:36:57.000Z</time>
      </trkpt>
      <trkpt lat="45.59954" lon="6.61084">
        <ele>2208</ele>
        <time>2015-04-07T10:37:00.000Z</time>
      </trkpt>
      <trkpt lat="45.59954" lon="6.61084">
        <ele>2208</ele>
        <time>2015-04-07T10:37:01.000Z</time>
      </trkpt>
      <trkpt lat="45.59955" lon="6.61083">
        <ele>2208.8000488281</ele>
        <time>2015-04-07T10:37:05.000Z</time>
      </trkpt>
      <trkpt lat="45.59956" lon="6.61082">
        <ele>2209.1999511719</ele>
        <time>2015-04-07T10:37:07.000Z</time>
      </trkpt>
      <trkpt lat="45.59957" lon="6.61076">
        <ele>2209.3999023438</ele>
        <time>2015-04-07T10:37:12.000Z</time>
      </trkpt>
      <trkpt lat="45.59958" lon="6.61072">
        <ele>2210.1999511719</ele>
        <time>2015-04-07T10:37:18.000Z</time>
      </trkpt>
      <trkpt lat="45.59959" lon="6.6107">
        <ele>2210.3999023438</ele>
        <time>2015-04-07T10:37:19.000Z</time>
      </trkpt>
      <trkpt lat="45.59959" lon="6.61066">
        <ele>2210.6000976562</ele>
        <time>2015-04-07T10:37:21.000Z</time>
      </trkpt>
      <trkpt lat="45.5996" lon="6.61062">
        <ele>2211</ele>
        <time>2015-04-07T10:37:24.000Z</time>
      </trkpt>
      <trkpt lat="45.59961" lon="6.61058">
        <ele>2211.1999511719</ele>
        <time>2015-04-07T10:37:28.000Z</time>
      </trkpt>
      <trkpt lat="45.59961" lon="6.61056">
        <ele>2211.8000488281</ele>
        <time>2015-04-07T10:37:30.000Z</time>
      </trkpt>
      <trkpt lat="45.59962" lon="6.61054">
        <ele>2212.3999023438</ele>
        <time>2015-04-07T10:37:33.000Z</time>
      </trkpt>
      <trkpt lat="45.59964" lon="6.6105">
        <ele>2213</ele>
        <time>2015-04-07T10:37:36.000Z</time>
      </trkpt>
      <trkpt lat="45.59965" lon="6.61043">
        <ele>2213.1999511719</ele>
        <time>2015-04-07T10:37:41.000Z</time>
      </trkpt>
      <trkpt lat="45.59966" lon="6.61042">
        <ele>2213.8000488281</ele>
        <time>2015-04-07T10:37:43.000Z</time>
      </trkpt>
      <trkpt lat="45.59968" lon="6.61037">
        <ele>2214.6000976562</ele>
        <time>2015-04-07T10:37:47.000Z</time>
      </trkpt>
      <trkpt lat="45.59968" lon="6.61036">
        <ele>2214.8000488281</ele>
        <time>2015-04-07T10:37:48.000Z</time>
      </trkpt>
      <trkpt lat="45.59971" lon="6.61032">
        <ele>2215.3999023438</ele>
        <time>2015-04-07T10:37:54.000Z</time>
      </trkpt>
      <trkpt lat="45.59973" lon="6.61028">
        <ele>2216.1999511719</ele>
        <time>2015-04-07T10:37:57.000Z</time>
      </trkpt>
      <trkpt lat="45.59973" lon="6.61027">
        <ele>2216.1999511719</ele>
        <time>2015-04-07T10:37:58.000Z</time>
      </trkpt>
      <trkpt lat="45.59976" lon="6.61024">
        <ele>2217.1999511719</ele>
        <time>2015-04-07T10:38:04.000Z</time>
      </trkpt>
      <trkpt lat="45.59978" lon="6.61021">
        <ele>2218</ele>
        <time>2015-04-07T10:38:08.000Z</time>
      </trkpt>
      <trkpt lat="45.59978" lon="6.6102">
        <ele>2218.1999511719</ele>
        <time>2015-04-07T10:38:09.000Z</time>
      </trkpt>
      <trkpt lat="45.5998" lon="6.6101">
        <ele>2219</ele>
        <time>2015-04-07T10:38:15.000Z</time>
      </trkpt>
      <trkpt lat="45.59982" lon="6.61006">
        <ele>2219.3999023438</ele>
        <time>2015-04-07T10:38:18.000Z</time>
      </trkpt>
      <trkpt lat="45.5998" lon="6.61006">
        <ele>2220</ele>
        <time>2015-04-07T10:38:20.000Z</time>
      </trkpt>
      <trkpt lat="45.59978" lon="6.61007">
        <ele>2220.3999023438</ele>
        <time>2015-04-07T10:38:23.000Z</time>
      </trkpt>
      <trkpt lat="45.59976" lon="6.61008">
        <ele>2220.6000976562</ele>
        <time>2015-04-07T10:38:26.000Z</time>
      </trkpt>
      <trkpt lat="45.59972" lon="6.61009">
        <ele>2221.3999023438</ele>
        <time>2015-04-07T10:38:30.000Z</time>
      </trkpt>
      <trkpt lat="45.5997" lon="6.61008">
        <ele>2221.8000488281</ele>
        <time>2015-04-07T10:38:32.000Z</time>
      </trkpt>
      <trkpt lat="45.59966" lon="6.61008">
        <ele>2222.8000488281</ele>
        <time>2015-04-07T10:38:37.000Z</time>
      </trkpt>
      <trkpt lat="45.59961" lon="6.61007">
        <ele>2223.8000488281</ele>
        <time>2015-04-07T10:38:44.000Z</time>
      </trkpt>
      <trkpt lat="45.59958" lon="6.61007">
        <ele>2224.6000976562</ele>
        <time>2015-04-07T10:38:50.000Z</time>
      </trkpt>
      <trkpt lat="45.59956" lon="6.61007">
        <ele>2224.8000488281</ele>
        <time>2015-04-07T10:38:52.000Z</time>
      </trkpt>
      <trkpt lat="45.59956" lon="6.61007">
        <ele>2225.6000976562</ele>
        <time>2015-04-07T10:38:56.000Z</time>
      </trkpt>
      <trkpt lat="45.59954" lon="6.61007">
        <ele>2225.8000488281</ele>
        <time>2015-04-07T10:39:03.000Z</time>
      </trkpt>
      <trkpt lat="45.59954" lon="6.61008">
        <ele>2226</ele>
        <time>2015-04-07T10:39:04.000Z</time>
      </trkpt>
      <trkpt lat="45.5995" lon="6.61009">
        <ele>2226.1999511719</ele>
        <time>2015-04-07T10:39:08.000Z</time>
      </trkpt>
      <trkpt lat="45.5995" lon="6.6101">
        <ele>2226.1999511719</ele>
        <time>2015-04-07T10:39:09.000Z</time>
      </trkpt>
      <trkpt lat="45.59947" lon="6.61009">
        <ele>2227</ele>
        <time>2015-04-07T10:39:13.000Z</time>
      </trkpt>
      <trkpt lat="45.59946" lon="6.61009">
        <ele>2227.1999511719</ele>
        <time>2015-04-07T10:39:14.000Z</time>
      </trkpt>
      <trkpt lat="45.59942" lon="6.6101">
        <ele>2228</ele>
        <time>2015-04-07T10:39:20.000Z</time>
      </trkpt>
      <trkpt lat="45.59942" lon="6.6101">
        <ele>2228.1999511719</ele>
        <time>2015-04-07T10:39:21.000Z</time>
      </trkpt>
      <trkpt lat="45.5994" lon="6.6101">
        <ele>2229.1999511719</ele>
        <time>2015-04-07T10:39:25.000Z</time>
      </trkpt>
      <trkpt lat="45.5994" lon="6.6101">
        <ele>2229.3999023438</ele>
        <time>2015-04-07T10:39:26.000Z</time>
      </trkpt>
      <trkpt lat="45.5994" lon="6.61009">
        <ele>2230</ele>
        <time>2015-04-07T10:39:32.000Z</time>
      </trkpt>
      <trkpt lat="45.59942" lon="6.61007">
        <ele>2230.3999023438</ele>
        <time>2015-04-07T10:39:36.000Z</time>
      </trkpt>
      <trkpt lat="45.59942" lon="6.61006">
        <ele>2230.3999023438</ele>
        <time>2015-04-07T10:39:37.000Z</time>
      </trkpt>
      <trkpt lat="45.59943" lon="6.61003">
        <ele>2230.8000488281</ele>
        <time>2015-04-07T10:39:40.000Z</time>
      </trkpt>
      <trkpt lat="45.59945" lon="6.60999">
        <ele>2231.6000976562</ele>
        <time>2015-04-07T10:39:44.000Z</time>
      </trkpt>
      <trkpt lat="45.59946" lon="6.60997">
        <ele>2231.8000488281</ele>
        <time>2015-04-07T10:39:45.000Z</time>
      </trkpt>
      <trkpt lat="45.59947" lon="6.60994">
        <ele>2232.1999511719</ele>
        <time>2015-04-07T10:39:49.000Z</time>
      </trkpt>
      <trkpt lat="45.59948" lon="6.60991">
        <ele>2232.6000976562</ele>
        <time>2015-04-07T10:39:51.000Z</time>
      </trkpt>
      <trkpt lat="45.59951" lon="6.60985">
        <ele>2233.1999511719</ele>
        <time>2015-04-07T10:39:55.000Z</time>
      </trkpt>
      <trkpt lat="45.59953" lon="6.60981">
        <ele>2233.8000488281</ele>
        <time>2015-04-07T10:39:59.000Z</time>
      </trkpt>
      <trkpt lat="45.59955" lon="6.60978">
        <ele>2234.1999511719</ele>
        <time>2015-04-07T10:40:01.000Z</time>
      </trkpt>
      <trkpt lat="45.59958" lon="6.60974">
        <ele>2234.8000488281</ele>
        <time>2015-04-07T10:40:05.000Z</time>
      </trkpt>
      <trkpt lat="45.5996" lon="6.60969">
        <ele>2235.3999023438</ele>
        <time>2015-04-07T10:40:09.000Z</time>
      </trkpt>
      <trkpt lat="45.59961" lon="6.60967">
        <ele>2236</ele>
        <time>2015-04-07T10:40:12.000Z</time>
      </trkpt>
      <trkpt lat="45.59962" lon="6.60965">
        <ele>2236.3999023438</ele>
        <time>2015-04-07T10:40:16.000Z</time>
      </trkpt>
      <trkpt lat="45.59964" lon="6.60962">
        <ele>2237</ele>
        <time>2015-04-07T10:40:19.000Z</time>
      </trkpt>
      <trkpt lat="45.59965" lon="6.60959">
        <ele>2237.6000976562</ele>
        <time>2015-04-07T10:40:22.000Z</time>
      </trkpt>
      <trkpt lat="45.59965" lon="6.60956">
        <ele>2238.1999511719</ele>
        <time>2015-04-07T10:40:24.000Z</time>
      </trkpt>
      <trkpt lat="45.59967" lon="6.60953">
        <ele>2239.1999511719</ele>
        <time>2015-04-07T10:40:29.000Z</time>
      </trkpt>
      <trkpt lat="45.5996" lon="6.60953">
        <ele>2239.8000488281</ele>
        <time>2015-04-07T10:40:35.000Z</time>
      </trkpt>
      <trkpt lat="45.59956" lon="6.60955">
        <ele>2240.3999023438</ele>
        <time>2015-04-07T10:40:39.000Z</time>
      </trkpt>
      <trkpt lat="45.59954" lon="6.60955">
        <ele>2240.6000976562</ele>
        <time>2015-04-07T10:40:40.000Z</time>
      </trkpt>
      <trkpt lat="45.59951" lon="6.60953">
        <ele>2241.1999511719</ele>
        <time>2015-04-07T10:40:45.000Z</time>
      </trkpt>
      <trkpt lat="45.5995" lon="6.60953">
        <ele>2241.3999023438</ele>
        <time>2015-04-07T10:40:46.000Z</time>
      </trkpt>
      <trkpt lat="45.59948" lon="6.60953">
        <ele>2242</ele>
        <time>2015-04-07T10:40:49.000Z</time>
      </trkpt>
      <trkpt lat="45.59943" lon="6.60954">
        <ele>2242.6000976562</ele>
        <time>2015-04-07T10:40:54.000Z</time>
      </trkpt>
      <trkpt lat="45.59943" lon="6.60954">
        <ele>2242.6000976562</ele>
        <time>2015-04-07T10:40:55.000Z</time>
      </trkpt>
      <trkpt lat="45.59939" lon="6.60954">
        <ele>2243.3999023438</ele>
        <time>2015-04-07T10:41:00.000Z</time>
      </trkpt>
      <trkpt lat="45.59939" lon="6.60954">
        <ele>2243.6000976562</ele>
        <time>2015-04-07T10:41:01.000Z</time>
      </trkpt>
      <trkpt lat="45.59935" lon="6.60955">
        <ele>2244.6000976562</ele>
        <time>2015-04-07T10:41:06.000Z</time>
      </trkpt>
      <trkpt lat="45.59934" lon="6.60956">
        <ele>2244.8000488281</ele>
        <time>2015-04-07T10:41:07.000Z</time>
      </trkpt>
      <trkpt lat="45.59932" lon="6.60957">
        <ele>2245.1999511719</ele>
        <time>2015-04-07T10:41:11.000Z</time>
      </trkpt>
      <trkpt lat="45.59932" lon="6.60955">
        <ele>2245.8000488281</ele>
        <time>2015-04-07T10:41:16.000Z</time>
      </trkpt>
      <trkpt lat="45.5993" lon="6.6095">
        <ele>2246.1999511719</ele>
        <time>2015-04-07T10:41:18.000Z</time>
      </trkpt>
      <trkpt lat="45.59931" lon="6.60947">
        <ele>2246.3999023438</ele>
        <time>2015-04-07T10:41:22.000Z</time>
      </trkpt>
      <trkpt lat="45.59931" lon="6.60947">
        <ele>2246.6000976562</ele>
        <time>2015-04-07T10:41:23.000Z</time>
      </trkpt>
      <trkpt lat="45.59933" lon="6.60946">
        <ele>2246.8000488281</ele>
        <time>2015-04-07T10:41:26.000Z</time>
      </trkpt>
      <trkpt lat="45.59934" lon="6.60945">
        <ele>2247</ele>
        <time>2015-04-07T10:41:27.000Z</time>
      </trkpt>
      <trkpt lat="45.59935" lon="6.60944">
        <ele>2247.1999511719</ele>
        <time>2015-04-07T10:41:29.000Z</time>
      </trkpt>
      <trkpt lat="45.59937" lon="6.60943">
        <ele>2248</ele>
        <time>2015-04-07T10:41:32.000Z</time>
      </trkpt>
      <trkpt lat="45.59937" lon="6.60943">
        <ele>2248.3999023438</ele>
        <time>2015-04-07T10:41:34.000Z</time>
      </trkpt>
      <trkpt lat="45.59941" lon="6.60938">
        <ele>2249.1999511719</ele>
        <time>2015-04-07T10:41:40.000Z</time>
      </trkpt>
      <trkpt lat="45.59944" lon="6.60935">
        <ele>2250</ele>
        <time>2015-04-07T10:41:46.000Z</time>
      </trkpt>
      <trkpt lat="45.59946" lon="6.60934">
        <ele>2250.1999511719</ele>
        <time>2015-04-07T10:41:48.000Z</time>
      </trkpt>
      <trkpt lat="45.59947" lon="6.60934">
        <ele>2251.1999511719</ele>
        <time>2015-04-07T10:41:53.000Z</time>
      </trkpt>
      <trkpt lat="45.59947" lon="6.60933">
        <ele>2251.3999023438</ele>
        <time>2015-04-07T10:41:54.000Z</time>
      </trkpt>
      <trkpt lat="45.59948" lon="6.60932">
        <ele>2252.3999023438</ele>
        <time>2015-04-07T10:41:58.000Z</time>
      </trkpt>
      <trkpt lat="45.59948" lon="6.60932">
        <ele>2252.6000976562</ele>
        <time>2015-04-07T10:41:59.000Z</time>
      </trkpt>
      <trkpt lat="45.59952" lon="6.60931">
        <ele>2253.1999511719</ele>
        <time>2015-04-07T10:42:03.000Z</time>
      </trkpt>
      <trkpt lat="45.59955" lon="6.60929">
        <ele>2253.8000488281</ele>
        <time>2015-04-07T10:42:06.000Z</time>
      </trkpt>
      <trkpt lat="45.59954" lon="6.60929">
        <ele>2254.6000976562</ele>
        <time>2015-04-07T10:42:10.000Z</time>
      </trkpt>
      <trkpt lat="45.59952" lon="6.60924">
        <ele>2254.6000976562</ele>
        <time>2015-04-07T10:42:15.000Z</time>
      </trkpt>
      <trkpt lat="45.59951" lon="6.60923">
        <ele>2254.8000488281</ele>
        <time>2015-04-07T10:42:16.000Z</time>
      </trkpt>
      <trkpt lat="45.59947" lon="6.60919">
        <ele>2255.6000976562</ele>
        <time>2015-04-07T10:42:19.000Z</time>
      </trkpt>
      <trkpt lat="45.59946" lon="6.60917">
        <ele>2256</ele>
        <time>2015-04-07T10:42:22.000Z</time>
      </trkpt>
      <trkpt lat="45.59945" lon="6.60914">
        <ele>2256.1999511719</ele>
        <time>2015-04-07T10:42:24.000Z</time>
      </trkpt>
      <trkpt lat="45.59943" lon="6.60912">
        <ele>2256.8000488281</ele>
        <time>2015-04-07T10:42:28.000Z</time>
      </trkpt>
      <trkpt lat="45.59943" lon="6.60912">
        <ele>2257</ele>
        <time>2015-04-07T10:42:29.000Z</time>
      </trkpt>
      <trkpt lat="45.5994" lon="6.6091">
        <ele>2257.3999023438</ele>
        <time>2015-04-07T10:42:33.000Z</time>
      </trkpt>
      <trkpt lat="45.59937" lon="6.60909">
        <ele>2258</ele>
        <time>2015-04-07T10:42:37.000Z</time>
      </trkpt>
      <trkpt lat="45.59933" lon="6.60913">
        <ele>2259.1999511719</ele>
        <time>2015-04-07T10:42:43.000Z</time>
      </trkpt>
      <trkpt lat="45.5993" lon="6.60915">
        <ele>2259.8000488281</ele>
        <time>2015-04-07T10:42:46.000Z</time>
      </trkpt>
      <trkpt lat="45.59928" lon="6.60916">
        <ele>2260</ele>
        <time>2015-04-07T10:42:48.000Z</time>
      </trkpt>
      <trkpt lat="45.59926" lon="6.60917">
        <ele>2260.1999511719</ele>
        <time>2015-04-07T10:42:51.000Z</time>
      </trkpt>
      <trkpt lat="45.59926" lon="6.60918">
        <ele>2260.6000976562</ele>
        <time>2015-04-07T10:42:53.000Z</time>
      </trkpt>
      <trkpt lat="45.59925" lon="6.60919">
        <ele>2261.3999023438</ele>
        <time>2015-04-07T10:42:57.000Z</time>
      </trkpt>
      <trkpt lat="45.59925" lon="6.60919">
        <ele>2261.6000976562</ele>
        <time>2015-04-07T10:43:00.000Z</time>
      </trkpt>
      <trkpt lat="45.59926" lon="6.60918">
        <ele>2262.3999023438</ele>
        <time>2015-04-07T10:43:03.000Z</time>
      </trkpt>
      <trkpt lat="45.59926" lon="6.60918">
        <ele>2262.6000976562</ele>
        <time>2015-04-07T10:43:04.000Z</time>
      </trkpt>
      <trkpt lat="45.59928" lon="6.60915">
        <ele>2262.6000976562</ele>
        <time>2015-04-07T10:43:09.000Z</time>
      </trkpt>
      <trkpt lat="45.59932" lon="6.60908">
        <ele>2263.6000976562</ele>
        <time>2015-04-07T10:43:16.000Z</time>
      </trkpt>
      <trkpt lat="45.59937" lon="6.60901">
        <ele>2264.3999023438</ele>
        <time>2015-04-07T10:43:23.000Z</time>
      </trkpt>
      <trkpt lat="45.59938" lon="6.609">
        <ele>2264.8000488281</ele>
        <time>2015-04-07T10:43:26.000Z</time>
      </trkpt>
      <trkpt lat="45.59938" lon="6.609">
        <ele>2265.1999511719</ele>
        <time>2015-04-07T10:43:28.000Z</time>
      </trkpt>
      <trkpt lat="45.59941" lon="6.60895">
        <ele>2265.8000488281</ele>
        <time>2015-04-07T10:43:33.000Z</time>
      </trkpt>
      <trkpt lat="45.59941" lon="6.60894">
        <ele>2266</ele>
        <time>2015-04-07T10:43:34.000Z</time>
      </trkpt>
      <trkpt lat="45.59944" lon="6.60891">
        <ele>2266.3999023438</ele>
        <time>2015-04-07T10:43:38.000Z</time>
      </trkpt>
      <trkpt lat="45.59946" lon="6.6089">
        <ele>2266.8000488281</ele>
        <time>2015-04-07T10:43:41.000Z</time>
      </trkpt>
      <trkpt lat="45.59947" lon="6.60889">
        <ele>2267.1999511719</ele>
        <time>2015-04-07T10:43:44.000Z</time>
      </trkpt>
      <trkpt lat="45.59949" lon="6.60888">
        <ele>2267.8000488281</ele>
        <time>2015-04-07T10:43:47.000Z</time>
      </trkpt>
      <trkpt lat="45.5995" lon="6.60888">
        <ele>2268.1999511719</ele>
        <time>2015-04-07T10:43:49.000Z</time>
      </trkpt>
      <trkpt lat="45.59955" lon="6.60888">
        <ele>2269</ele>
        <time>2015-04-07T10:43:54.000Z</time>
      </trkpt>
      <trkpt lat="45.59956" lon="6.60888">
        <ele>2269.1999511719</ele>
        <time>2015-04-07T10:43:55.000Z</time>
      </trkpt>
      <trkpt lat="45.59957" lon="6.60889">
        <ele>2270.1999511719</ele>
        <time>2015-04-07T10:44:00.000Z</time>
      </trkpt>
      <trkpt lat="45.59957" lon="6.60889">
        <ele>2270.3999023438</ele>
        <time>2015-04-07T10:44:02.000Z</time>
      </trkpt>
      <trkpt lat="45.59953" lon="6.60884">
        <ele>2270.8000488281</ele>
        <time>2015-04-07T10:44:07.000Z</time>
      </trkpt>
      <trkpt lat="45.59952" lon="6.60882">
        <ele>2271.1999511719</ele>
        <time>2015-04-07T10:44:09.000Z</time>
      </trkpt>
      <trkpt lat="45.59952" lon="6.60881">
        <ele>2271.8000488281</ele>
        <time>2015-04-07T10:44:11.000Z</time>
      </trkpt>
      <trkpt lat="45.59951" lon="6.6088">
        <ele>2272.1999511719</ele>
        <time>2015-04-07T10:44:14.000Z</time>
      </trkpt>
      <trkpt lat="45.59949" lon="6.60879">
        <ele>2272.6000976562</ele>
        <time>2015-04-07T10:44:17.000Z</time>
      </trkpt>
      <trkpt lat="45.59947" lon="6.60879">
        <ele>2273.3999023438</ele>
        <time>2015-04-07T10:44:21.000Z</time>
      </trkpt>
      <trkpt lat="45.59943" lon="6.60877">
        <ele>2274.3999023438</ele>
        <time>2015-04-07T10:44:27.000Z</time>
      </trkpt>
      <trkpt lat="45.59942" lon="6.60877">
        <ele>2274.6000976562</ele>
        <time>2015-04-07T10:44:29.000Z</time>
      </trkpt>
      <trkpt lat="45.59941" lon="6.60878">
        <ele>2275</ele>
        <time>2015-04-07T10:44:31.000Z</time>
      </trkpt>
      <trkpt lat="45.59938" lon="6.60878">
        <ele>2275.6000976562</ele>
        <time>2015-04-07T10:44:35.000Z</time>
      </trkpt>
      <trkpt lat="45.59931" lon="6.60878">
        <ele>2276.6000976562</ele>
        <time>2015-04-07T10:44:41.000Z</time>
      </trkpt>
      <trkpt lat="45.59928" lon="6.60878">
        <ele>2277.1999511719</ele>
        <time>2015-04-07T10:44:46.000Z</time>
      </trkpt>
      <trkpt lat="45.59926" lon="6.60878">
        <ele>2277.8000488281</ele>
        <time>2015-04-07T10:44:49.000Z</time>
      </trkpt>
      <trkpt lat="45.59926" lon="6.60878">
        <ele>2278</ele>
        <time>2015-04-07T10:44:52.000Z</time>
      </trkpt>
      <trkpt lat="45.59926" lon="6.60878">
        <ele>2278.8000488281</ele>
        <time>2015-04-07T10:44:56.000Z</time>
      </trkpt>
      <trkpt lat="45.59926" lon="6.60877">
        <ele>2279.1999511719</ele>
        <time>2015-04-07T10:45:00.000Z</time>
      </trkpt>
      <trkpt lat="45.59928" lon="6.60873">
        <ele>2279</ele>
        <time>2015-04-07T10:45:05.000Z</time>
      </trkpt>
      <trkpt lat="45.59929" lon="6.6087">
        <ele>2279.8000488281</ele>
        <time>2015-04-07T10:45:09.000Z</time>
      </trkpt>
      <trkpt lat="45.5993" lon="6.60869">
        <ele>2280.1999511719</ele>
        <time>2015-04-07T10:45:11.000Z</time>
      </trkpt>
      <trkpt lat="45.59932" lon="6.60869">
        <ele>2281</ele>
        <time>2015-04-07T10:45:15.000Z</time>
      </trkpt>
      <trkpt lat="45.59933" lon="6.60868">
        <ele>2282</ele>
        <time>2015-04-07T10:45:19.000Z</time>
      </trkpt>
      <trkpt lat="45.59936" lon="6.60864">
        <ele>2282.8000488281</ele>
        <time>2015-04-07T10:45:24.000Z</time>
      </trkpt>
      <trkpt lat="45.59936" lon="6.60864">
        <ele>2283.1999511719</ele>
        <time>2015-04-07T10:45:25.000Z</time>
      </trkpt>
      <trkpt lat="45.59937" lon="6.60862">
        <ele>2283.3999023438</ele>
        <time>2015-04-07T10:45:35.000Z</time>
      </trkpt>
      <trkpt lat="45.5994" lon="6.60857">
        <ele>2283.8000488281</ele>
        <time>2015-04-07T10:45:39.000Z</time>
      </trkpt>
      <trkpt lat="45.59943" lon="6.60855">
        <ele>2284.3999023438</ele>
        <time>2015-04-07T10:45:43.000Z</time>
      </trkpt>
      <trkpt lat="45.59943" lon="6.60855">
        <ele>2284.8000488281</ele>
        <time>2015-04-07T10:45:44.000Z</time>
      </trkpt>
      <trkpt lat="45.59947" lon="6.60852">
        <ele>2285.6000976562</ele>
        <time>2015-04-07T10:45:49.000Z</time>
      </trkpt>
      <trkpt lat="45.59947" lon="6.60851">
        <ele>2286</ele>
        <time>2015-04-07T10:45:51.000Z</time>
      </trkpt>
      <trkpt lat="45.5995" lon="6.60848">
        <ele>2286.6000976562</ele>
        <time>2015-04-07T10:45:56.000Z</time>
      </trkpt>
      <trkpt lat="45.5995" lon="6.60848">
        <ele>2286.8000488281</ele>
        <time>2015-04-07T10:45:57.000Z</time>
      </trkpt>
      <trkpt lat="45.59952" lon="6.60844">
        <ele>2287.8000488281</ele>
        <time>2015-04-07T10:46:02.000Z</time>
      </trkpt>
      <trkpt lat="45.59955" lon="6.60842">
        <ele>2288.8000488281</ele>
        <time>2015-04-07T10:46:08.000Z</time>
      </trkpt>
      <trkpt lat="45.59956" lon="6.60841">
        <ele>2289</ele>
        <time>2015-04-07T10:46:10.000Z</time>
      </trkpt>
      <trkpt lat="45.5996" lon="6.6084">
        <ele>2289.6000976562</ele>
        <time>2015-04-07T10:46:14.000Z</time>
      </trkpt>
      <trkpt lat="45.59962" lon="6.60839">
        <ele>2290</ele>
        <time>2015-04-07T10:46:16.000Z</time>
      </trkpt>
      <trkpt lat="45.59965" lon="6.60843">
        <ele>2291</ele>
        <time>2015-04-07T10:46:22.000Z</time>
      </trkpt>
      <trkpt lat="45.59969" lon="6.60845">
        <ele>2292</ele>
        <time>2015-04-07T10:46:28.000Z</time>
      </trkpt>
      <trkpt lat="45.59969" lon="6.60845">
        <ele>2292</ele>
        <time>2015-04-07T10:46:29.000Z</time>
      </trkpt>
      <trkpt lat="45.59968" lon="6.60845">
        <ele>2292.6000976562</ele>
        <time>2015-04-07T10:46:34.000Z</time>
      </trkpt>
      <trkpt lat="45.59967" lon="6.60839">
        <ele>2293</ele>
        <time>2015-04-07T10:46:41.000Z</time>
      </trkpt>
      <trkpt lat="45.59967" lon="6.60838">
        <ele>2293.1999511719</ele>
        <time>2015-04-07T10:46:42.000Z</time>
      </trkpt>
      <trkpt lat="45.59965" lon="6.60832">
        <ele>2293.8000488281</ele>
        <time>2015-04-07T10:46:47.000Z</time>
      </trkpt>
      <trkpt lat="45.59963" lon="6.6083">
        <ele>2294.1999511719</ele>
        <time>2015-04-07T10:46:49.000Z</time>
      </trkpt>
      <trkpt lat="45.59963" lon="6.60829">
        <ele>2294.6000976562</ele>
        <time>2015-04-07T10:46:51.000Z</time>
      </trkpt>
      <trkpt lat="45.59961" lon="6.60826">
        <ele>2295.1999511719</ele>
        <time>2015-04-07T10:46:56.000Z</time>
      </trkpt>
      <trkpt lat="45.5996" lon="6.60826">
        <ele>2295.3999023438</ele>
        <time>2015-04-07T10:46:57.000Z</time>
      </trkpt>
      <trkpt lat="45.59957" lon="6.60824">
        <ele>2296.1999511719</ele>
        <time>2015-04-07T10:47:01.000Z</time>
      </trkpt>
      <trkpt lat="45.59957" lon="6.60824">
        <ele>2296.3999023438</ele>
        <time>2015-04-07T10:47:02.000Z</time>
      </trkpt>
      <trkpt lat="45.59954" lon="6.60824">
        <ele>2297</ele>
        <time>2015-04-07T10:47:07.000Z</time>
      </trkpt>
      <trkpt lat="45.59954" lon="6.60824">
        <ele>2297.1999511719</ele>
        <time>2015-04-07T10:47:08.000Z</time>
      </trkpt>
      <trkpt lat="45.59953" lon="6.60824">
        <ele>2297.6000976562</ele>
        <time>2015-04-07T10:47:09.000Z</time>
      </trkpt>
      <trkpt lat="45.59953" lon="6.60822">
        <ele>2298</ele>
        <time>2015-04-07T10:47:14.000Z</time>
      </trkpt>
      <trkpt lat="45.59956" lon="6.60821">
        <ele>2298.6000976562</ele>
        <time>2015-04-07T10:47:18.000Z</time>
      </trkpt>
      <trkpt lat="45.59957" lon="6.6082">
        <ele>2299</ele>
        <time>2015-04-07T10:47:20.000Z</time>
      </trkpt>
      <trkpt lat="45.5996" lon="6.60817">
        <ele>2299.3999023438</ele>
        <time>2015-04-07T10:47:26.000Z</time>
      </trkpt>
      <trkpt lat="45.59961" lon="6.60817">
        <ele>2299.6000976562</ele>
        <time>2015-04-07T10:47:28.000Z</time>
      </trkpt>
      <trkpt lat="45.59965" lon="6.60816">
        <ele>2300.3999023438</ele>
        <time>2015-04-07T10:47:32.000Z</time>
      </trkpt>
      <trkpt lat="45.59966" lon="6.60816">
        <ele>2300.8000488281</ele>
        <time>2015-04-07T10:47:34.000Z</time>
      </trkpt>
      <trkpt lat="45.59969" lon="6.60815">
        <ele>2301.6000976562</ele>
        <time>2015-04-07T10:47:40.000Z</time>
      </trkpt>
      <trkpt lat="45.59969" lon="6.60815">
        <ele>2301.8000488281</ele>
        <time>2015-04-07T10:47:41.000Z</time>
      </trkpt>
      <trkpt lat="45.59972" lon="6.60812">
        <ele>2303</ele>
        <time>2015-04-07T10:47:47.000Z</time>
      </trkpt>
      <trkpt lat="45.59973" lon="6.6081">
        <ele>2303.3999023438</ele>
        <time>2015-04-07T10:47:49.000Z</time>
      </trkpt>
      <trkpt lat="45.59974" lon="6.60808">
        <ele>2304</ele>
        <time>2015-04-07T10:47:52.000Z</time>
      </trkpt>
      <trkpt lat="45.59975" lon="6.60803">
        <ele>2304.3999023438</ele>
        <time>2015-04-07T10:47:55.000Z</time>
      </trkpt>
      <trkpt lat="45.59974" lon="6.608">
        <ele>2304.8000488281</ele>
        <time>2015-04-07T10:48:00.000Z</time>
      </trkpt>
      <trkpt lat="45.59974" lon="6.60798">
        <ele>2304.8000488281</ele>
        <time>2015-04-07T10:48:01.000Z</time>
      </trkpt>
      <trkpt lat="45.59974" lon="6.60797">
        <ele>2305.1999511719</ele>
        <time>2015-04-07T10:48:02.000Z</time>
      </trkpt>
      <trkpt lat="45.59971" lon="6.60791">
        <ele>2305.8000488281</ele>
        <time>2015-04-07T10:48:07.000Z</time>
      </trkpt>
      <trkpt lat="45.5997" lon="6.60789">
        <ele>2306.1999511719</ele>
        <time>2015-04-07T10:48:09.000Z</time>
      </trkpt>
      <trkpt lat="45.5997" lon="6.60788">
        <ele>2306.8000488281</ele>
        <time>2015-04-07T10:48:12.000Z</time>
      </trkpt>
      <trkpt lat="45.5997" lon="6.60787">
        <ele>2307.3999023438</ele>
        <time>2015-04-07T10:48:14.000Z</time>
      </trkpt>
      <trkpt lat="45.59968" lon="6.60782">
        <ele>2308.1999511719</ele>
        <time>2015-04-07T10:48:19.000Z</time>
      </trkpt>
      <trkpt lat="45.59967" lon="6.60781">
        <ele>2308.3999023438</ele>
        <time>2015-04-07T10:48:20.000Z</time>
      </trkpt>
      <trkpt lat="45.59963" lon="6.60783">
        <ele>2309.3999023438</ele>
        <time>2015-04-07T10:48:25.000Z</time>
      </trkpt>
      <trkpt lat="45.59963" lon="6.60783">
        <ele>2309.6000976562</ele>
        <time>2015-04-07T10:48:26.000Z</time>
      </trkpt>
      <trkpt lat="45.59962" lon="6.6078">
        <ele>2310.6000976562</ele>
        <time>2015-04-07T10:48:31.000Z</time>
      </trkpt>
      <trkpt lat="45.59962" lon="6.6078">
        <ele>2310.8000488281</ele>
        <time>2015-04-07T10:48:32.000Z</time>
      </trkpt>
      <trkpt lat="45.59961" lon="6.60778">
        <ele>2311.3999023438</ele>
        <time>2015-04-07T10:48:35.000Z</time>
      </trkpt>
      <trkpt lat="45.5996" lon="6.60776">
        <ele>2312</ele>
        <time>2015-04-07T10:48:38.000Z</time>
      </trkpt>
      <trkpt lat="45.5996" lon="6.60774">
        <ele>2312.6000976562</ele>
        <time>2015-04-07T10:48:41.000Z</time>
      </trkpt>
      <trkpt lat="45.5996" lon="6.60772">
        <ele>2313.1999511719</ele>
        <time>2015-04-07T10:48:44.000Z</time>
      </trkpt>
      <trkpt lat="45.5996" lon="6.6077">
        <ele>2313.3999023438</ele>
        <time>2015-04-07T10:48:46.000Z</time>
      </trkpt>
      <trkpt lat="45.5996" lon="6.60768">
        <ele>2314.1999511719</ele>
        <time>2015-04-07T10:48:50.000Z</time>
      </trkpt>
      <trkpt lat="45.5996" lon="6.60768">
        <ele>2314.3999023438</ele>
        <time>2015-04-07T10:48:54.000Z</time>
      </trkpt>
      <trkpt lat="45.5996" lon="6.60764">
        <ele>2314.8000488281</ele>
        <time>2015-04-07T10:49:03.000Z</time>
      </trkpt>
      <trkpt lat="45.59961" lon="6.60761">
        <ele>2315.1999511719</ele>
        <time>2015-04-07T10:49:05.000Z</time>
      </trkpt>
      <trkpt lat="45.5996" lon="6.60757">
        <ele>2315.8000488281</ele>
        <time>2015-04-07T10:49:08.000Z</time>
      </trkpt>
      <trkpt lat="45.59959" lon="6.60752">
        <ele>2316.1999511719</ele>
        <time>2015-04-07T10:49:12.000Z</time>
      </trkpt>
      <trkpt lat="45.59959" lon="6.6075">
        <ele>2316.3999023438</ele>
        <time>2015-04-07T10:49:13.000Z</time>
      </trkpt>
      <trkpt lat="45.5996" lon="6.60742">
        <ele>2317.1999511719</ele>
        <time>2015-04-07T10:49:19.000Z</time>
      </trkpt>
      <trkpt lat="45.5996" lon="6.60741">
        <ele>2317.3999023438</ele>
        <time>2015-04-07T10:49:20.000Z</time>
      </trkpt>
      <trkpt lat="45.5996" lon="6.60737">
        <ele>2318</ele>
        <time>2015-04-07T10:49:25.000Z</time>
      </trkpt>
      <trkpt lat="45.5996" lon="6.60733">
        <ele>2318.3999023438</ele>
        <time>2015-04-07T10:49:27.000Z</time>
      </trkpt>
      <trkpt lat="45.59962" lon="6.60729">
        <ele>2318.8000488281</ele>
        <time>2015-04-07T10:49:30.000Z</time>
      </trkpt>
      <trkpt lat="45.59962" lon="6.60723">
        <ele>2319.6000976562</ele>
        <time>2015-04-07T10:49:35.000Z</time>
      </trkpt>
      <trkpt lat="45.59961" lon="6.6072">
        <ele>2320.1999511719</ele>
        <time>2015-04-07T10:49:40.000Z</time>
      </trkpt>
      <trkpt lat="45.59961" lon="6.60719">
        <ele>2320.8000488281</ele>
        <time>2015-04-07T10:49:43.000Z</time>
      </trkpt>
      <trkpt lat="45.59961" lon="6.60717">
        <ele>2321.1999511719</ele>
        <time>2015-04-07T10:49:45.000Z</time>
      </trkpt>
      <trkpt lat="45.59961" lon="6.60714">
        <ele>2321.8000488281</ele>
        <time>2015-04-07T10:49:48.000Z</time>
      </trkpt>
      <trkpt lat="45.59961" lon="6.60711">
        <ele>2321.8000488281</ele>
        <time>2015-04-07T10:49:49.000Z</time>
      </trkpt>
      <trkpt lat="45.59961" lon="6.6071">
        <ele>2322.1999511719</ele>
        <time>2015-04-07T10:49:50.000Z</time>
      </trkpt>
      <trkpt lat="45.59961" lon="6.60705">
        <ele>2322.8000488281</ele>
        <time>2015-04-07T10:49:54.000Z</time>
      </trkpt>
      <trkpt lat="45.59961" lon="6.60705">
        <ele>2323</ele>
        <time>2015-04-07T10:49:55.000Z</time>
      </trkpt>
      <trkpt lat="45.59962" lon="6.60698">
        <ele>2323.8000488281</ele>
        <time>2015-04-07T10:50:00.000Z</time>
      </trkpt>
      <trkpt lat="45.59962" lon="6.60698">
        <ele>2324</ele>
        <time>2015-04-07T10:50:01.000Z</time>
      </trkpt>
      <trkpt lat="45.59961" lon="6.60695">
        <ele>2324.8000488281</ele>
        <time>2015-04-07T10:50:05.000Z</time>
      </trkpt>
      <trkpt lat="45.59962" lon="6.60694">
        <ele>2325</ele>
        <time>2015-04-07T10:50:07.000Z</time>
      </trkpt>
      <trkpt lat="45.59962" lon="6.60692">
        <ele>2325.6000976562</ele>
        <time>2015-04-07T10:50:10.000Z</time>
      </trkpt>
      <trkpt lat="45.59962" lon="6.6069">
        <ele>2326.1999511719</ele>
        <time>2015-04-07T10:50:13.000Z</time>
      </trkpt>
      <trkpt lat="45.59963" lon="6.60688">
        <ele>2326.6000976562</ele>
        <time>2015-04-07T10:50:15.000Z</time>
      </trkpt>
      <trkpt lat="45.59962" lon="6.60684">
        <ele>2327.1999511719</ele>
        <time>2015-04-07T10:50:19.000Z</time>
      </trkpt>
      <trkpt lat="45.59961" lon="6.60681">
        <ele>2327.6000976562</ele>
        <time>2015-04-07T10:50:21.000Z</time>
      </trkpt>
      <trkpt lat="45.5996" lon="6.6068">
        <ele>2328.3999023438</ele>
        <time>2015-04-07T10:50:25.000Z</time>
      </trkpt>
      <trkpt lat="45.59959" lon="6.6068">
        <ele>2328.8000488281</ele>
        <time>2015-04-07T10:50:28.000Z</time>
      </trkpt>
      <trkpt lat="45.59953" lon="6.60682">
        <ele>2329.3999023438</ele>
        <time>2015-04-07T10:50:33.000Z</time>
      </trkpt>
      <trkpt lat="45.59953" lon="6.60682">
        <ele>2329.3999023438</ele>
        <time>2015-04-07T10:50:34.000Z</time>
      </trkpt>
      <trkpt lat="45.5995" lon="6.60683">
        <ele>2330.1999511719</ele>
        <time>2015-04-07T10:50:38.000Z</time>
      </trkpt>
      <trkpt lat="45.59949" lon="6.60682">
        <ele>2330.6000976562</ele>
        <time>2015-04-07T10:50:40.000Z</time>
      </trkpt>
      <trkpt lat="45.59948" lon="6.60683">
        <ele>2330.8000488281</ele>
        <time>2015-04-07T10:50:42.000Z</time>
      </trkpt>
      <trkpt lat="45.59945" lon="6.60684">
        <ele>2331.1999511719</ele>
        <time>2015-04-07T10:50:47.000Z</time>
      </trkpt>
      <trkpt lat="45.59944" lon="6.60684">
        <ele>2331.6000976562</ele>
        <time>2015-04-07T10:50:49.000Z</time>
      </trkpt>
      <trkpt lat="45.59941" lon="6.60684">
        <ele>2332.3999023438</ele>
        <time>2015-04-07T10:50:53.000Z</time>
      </trkpt>
      <trkpt lat="45.59939" lon="6.60685">
        <ele>2332.8000488281</ele>
        <time>2015-04-07T10:50:55.000Z</time>
      </trkpt>
      <trkpt lat="45.59939" lon="6.60684">
        <ele>2333.1999511719</ele>
        <time>2015-04-07T10:50:58.000Z</time>
      </trkpt>
      <trkpt lat="45.59939" lon="6.60684">
        <ele>2333.3999023438</ele>
        <time>2015-04-07T10:50:59.000Z</time>
      </trkpt>
      <trkpt lat="45.59939" lon="6.60684">
        <ele>2334</ele>
        <time>2015-04-07T10:51:01.000Z</time>
      </trkpt>
      <trkpt lat="45.59939" lon="6.60684">
        <ele>2334.3999023438</ele>
        <time>2015-04-07T10:51:12.000Z</time>
      </trkpt>
      <trkpt lat="45.59939" lon="6.60684">
        <ele>2334.3999023438</ele>
        <time>2015-04-07T10:51:29.000Z</time>
      </trkpt>
      <trkpt lat="45.59938" lon="6.60684">
        <ele>2334.6000976562</ele>
        <time>2015-04-07T10:51:39.000Z</time>
      </trkpt>
      <trkpt lat="45.59938" lon="6.60683">
        <ele>2335</ele>
        <time>2015-04-07T10:51:45.000Z</time>
      </trkpt>
      <trkpt lat="45.59938" lon="6.60683">
        <ele>2335.1999511719</ele>
        <time>2015-04-07T10:51:46.000Z</time>
      </trkpt>
      <trkpt lat="45.59937" lon="6.60681">
        <ele>2335.3999023438</ele>
        <time>2015-04-07T10:51:51.000Z</time>
      </trkpt>
      <trkpt lat="45.59937" lon="6.60676">
        <ele>2336</ele>
        <time>2015-04-07T10:51:55.000Z</time>
      </trkpt>
      <trkpt lat="45.59937" lon="6.60675">
        <ele>2336</ele>
        <time>2015-04-07T10:51:56.000Z</time>
      </trkpt>
      <trkpt lat="45.59937" lon="6.60673">
        <ele>2336.3999023438</ele>
        <time>2015-04-07T10:51:59.000Z</time>
      </trkpt>
      <trkpt lat="45.59937" lon="6.60668">
        <ele>2337.3999023438</ele>
        <time>2015-04-07T10:52:03.000Z</time>
      </trkpt>
      <trkpt lat="45.59937" lon="6.60668">
        <ele>2337.6000976562</ele>
        <time>2015-04-07T10:52:04.000Z</time>
      </trkpt>
      <trkpt lat="45.59935" lon="6.60667">
        <ele>2338.3999023438</ele>
        <time>2015-04-07T10:52:07.000Z</time>
      </trkpt>
      <trkpt lat="45.59935" lon="6.60665">
        <ele>2338.8000488281</ele>
        <time>2015-04-07T10:52:09.000Z</time>
      </trkpt>
      <trkpt lat="45.59934" lon="6.60661">
        <ele>2339.3999023438</ele>
        <time>2015-04-07T10:52:13.000Z</time>
      </trkpt>
      <trkpt lat="45.59934" lon="6.60661">
        <ele>2339.8000488281</ele>
        <time>2015-04-07T10:52:14.000Z</time>
      </trkpt>
      <trkpt lat="45.59936" lon="6.60655">
        <ele>2340.3999023438</ele>
        <time>2015-04-07T10:52:19.000Z</time>
      </trkpt>
      <trkpt lat="45.59938" lon="6.60651">
        <ele>2341.1999511719</ele>
        <time>2015-04-07T10:52:25.000Z</time>
      </trkpt>
      <trkpt lat="45.5994" lon="6.60649">
        <ele>2341.6000976562</ele>
        <time>2015-04-07T10:52:27.000Z</time>
      </trkpt>
      <trkpt lat="45.59944" lon="6.60645">
        <ele>2342.1999511719</ele>
        <time>2015-04-07T10:52:31.000Z</time>
      </trkpt>
      <trkpt lat="45.59947" lon="6.60642">
        <ele>2342.8000488281</ele>
        <time>2015-04-07T10:52:34.000Z</time>
      </trkpt>
      <trkpt lat="45.59949" lon="6.60639">
        <ele>2343.1999511719</ele>
        <time>2015-04-07T10:52:36.000Z</time>
      </trkpt>
      <trkpt lat="45.59952" lon="6.60634">
        <ele>2343.8000488281</ele>
        <time>2015-04-07T10:52:41.000Z</time>
      </trkpt>
      <trkpt lat="45.59953" lon="6.60632">
        <ele>2343.8000488281</ele>
        <time>2015-04-07T10:52:42.000Z</time>
      </trkpt>
      <trkpt lat="45.59951" lon="6.6063">
        <ele>2344.1999511719</ele>
        <time>2015-04-07T10:52:46.000Z</time>
      </trkpt>
      <trkpt lat="45.59951" lon="6.60628">
        <ele>2344.8000488281</ele>
        <time>2015-04-07T10:52:52.000Z</time>
      </trkpt>
      <trkpt lat="45.59953" lon="6.60625">
        <ele>2345</ele>
        <time>2015-04-07T10:52:54.000Z</time>
      </trkpt>
      <trkpt lat="45.59956" lon="6.60622">
        <ele>2345.1999511719</ele>
        <time>2015-04-07T10:52:57.000Z</time>
      </trkpt>
      <trkpt lat="45.59961" lon="6.60617">
        <ele>2345.6000976562</ele>
        <time>2015-04-07T10:53:01.000Z</time>
      </trkpt>
      <trkpt lat="45.59962" lon="6.60616">
        <ele>2346</ele>
        <time>2015-04-07T10:53:02.000Z</time>
      </trkpt>
      <trkpt lat="45.59967" lon="6.60613">
        <ele>2347</ele>
        <time>2015-04-07T10:53:07.000Z</time>
      </trkpt>
      <trkpt lat="45.59968" lon="6.60613">
        <ele>2347.1999511719</ele>
        <time>2015-04-07T10:53:08.000Z</time>
      </trkpt>
      <trkpt lat="45.59975" lon="6.60613">
        <ele>2348.1999511719</ele>
        <time>2015-04-07T10:53:15.000Z</time>
      </trkpt>
      <trkpt lat="45.59979" lon="6.60613">
        <ele>2349.3999023438</ele>
        <time>2015-04-07T10:53:21.000Z</time>
      </trkpt>
      <trkpt lat="45.5998" lon="6.60613">
        <ele>2349.6000976562</ele>
        <time>2015-04-07T10:53:22.000Z</time>
      </trkpt>
      <trkpt lat="45.59984" lon="6.60612">
        <ele>2350.3999023438</ele>
        <time>2015-04-07T10:53:28.000Z</time>
      </trkpt>
      <trkpt lat="45.59986" lon="6.60612">
        <ele>2350.6000976562</ele>
        <time>2015-04-07T10:53:29.000Z</time>
      </trkpt>
      <trkpt lat="45.59988" lon="6.6061">
        <ele>2351.6000976562</ele>
        <time>2015-04-07T10:53:35.000Z</time>
      </trkpt>
      <trkpt lat="45.59989" lon="6.6061">
        <ele>2351.8000488281</ele>
        <time>2015-04-07T10:53:37.000Z</time>
      </trkpt>
      <trkpt lat="45.59993" lon="6.60612">
        <ele>2352.6000976562</ele>
        <time>2015-04-07T10:53:43.000Z</time>
      </trkpt>
      <trkpt lat="45.59995" lon="6.60611">
        <ele>2352.8000488281</ele>
        <time>2015-04-07T10:53:46.000Z</time>
      </trkpt>
      <trkpt lat="45.59997" lon="6.60611">
        <ele>2353.8000488281</ele>
        <time>2015-04-07T10:53:51.000Z</time>
      </trkpt>
      <trkpt lat="45.59997" lon="6.60611">
        <ele>2354</ele>
        <time>2015-04-07T10:53:52.000Z</time>
      </trkpt>
      <trkpt lat="45.60004" lon="6.60608">
        <ele>2354.8000488281</ele>
        <time>2015-04-07T10:53:59.000Z</time>
      </trkpt>
      <trkpt lat="45.60004" lon="6.60606">
        <ele>2355.1999511719</ele>
        <time>2015-04-07T10:54:00.000Z</time>
      </trkpt>
      <trkpt lat="45.60004" lon="6.60606">
        <ele>2356</ele>
        <time>2015-04-07T10:54:04.000Z</time>
      </trkpt>
      <trkpt lat="45.60004" lon="6.60605">
        <ele>2356</ele>
        <time>2015-04-07T10:54:06.000Z</time>
      </trkpt>
      <trkpt lat="45.60004" lon="6.60601">
        <ele>2356.8000488281</ele>
        <time>2015-04-07T10:54:11.000Z</time>
      </trkpt>
      <trkpt lat="45.60004" lon="6.606">
        <ele>2357</ele>
        <time>2015-04-07T10:54:12.000Z</time>
      </trkpt>
      <trkpt lat="45.60001" lon="6.60598">
        <ele>2357.6000976562</ele>
        <time>2015-04-07T10:54:17.000Z</time>
      </trkpt>
      <trkpt lat="45.59999" lon="6.60599">
        <ele>2358</ele>
        <time>2015-04-07T10:54:20.000Z</time>
      </trkpt>
      <trkpt lat="45.59999" lon="6.60599">
        <ele>2358.8000488281</ele>
        <time>2015-04-07T10:54:24.000Z</time>
      </trkpt>
      <trkpt lat="45.59999" lon="6.60598">
        <ele>2359.1999511719</ele>
        <time>2015-04-07T10:54:26.000Z</time>
      </trkpt>
      <trkpt lat="45.6" lon="6.60597">
        <ele>2359.6000976562</ele>
        <time>2015-04-07T10:54:29.000Z</time>
      </trkpt>
      <trkpt lat="45.60002" lon="6.60593">
        <ele>2360.1999511719</ele>
        <time>2015-04-07T10:54:33.000Z</time>
      </trkpt>
      <trkpt lat="45.60006" lon="6.60589">
        <ele>2360.6000976562</ele>
        <time>2015-04-07T10:54:35.000Z</time>
      </trkpt>
      <trkpt lat="45.60008" lon="6.60587">
        <ele>2361.1999511719</ele>
        <time>2015-04-07T10:54:38.000Z</time>
      </trkpt>
      <trkpt lat="45.60009" lon="6.60586">
        <ele>2361.3999023438</ele>
        <time>2015-04-07T10:54:40.000Z</time>
      </trkpt>
      <trkpt lat="45.60014" lon="6.60585">
        <ele>2362</ele>
        <time>2015-04-07T10:54:47.000Z</time>
      </trkpt>
      <trkpt lat="45.60015" lon="6.60585">
        <ele>2362.3999023438</ele>
        <time>2015-04-07T10:54:49.000Z</time>
      </trkpt>
      <trkpt lat="45.60015" lon="6.60585">
        <ele>2362.8000488281</ele>
        <time>2015-04-07T10:54:55.000Z</time>
      </trkpt>
      <trkpt lat="45.60015" lon="6.60585">
        <ele>2363.1999511719</ele>
        <time>2015-04-07T10:55:08.000Z</time>
      </trkpt>
      <trkpt lat="45.60015" lon="6.60585">
        <ele>2362.8000488281</ele>
        <time>2015-04-07T10:55:24.000Z</time>
      </trkpt>
      <trkpt lat="45.60015" lon="6.60585">
        <ele>2362.8000488281</ele>
        <time>2015-04-07T10:55:36.000Z</time>
      </trkpt>
      <trkpt lat="45.60015" lon="6.60586">
        <ele>2362.8000488281</ele>
        <time>2015-04-07T10:55:49.000Z</time>
      </trkpt>
      <trkpt lat="45.60015" lon="6.60586">
        <ele>2362.8000488281</ele>
        <time>2015-04-07T10:56:02.000Z</time>
      </trkpt>
      <trkpt lat="45.60016" lon="6.60586">
        <ele>2362.8000488281</ele>
        <time>2015-04-07T10:56:22.000Z</time>
      </trkpt>
      <trkpt lat="45.60016" lon="6.60586">
        <ele>2362.1999511719</ele>
        <time>2015-04-07T10:56:36.000Z</time>
      </trkpt>
      <trkpt lat="45.60016" lon="6.60586">
        <ele>2362.6000976562</ele>
        <time>2015-04-07T10:56:54.000Z</time>
      </trkpt>
      <trkpt lat="45.60016" lon="6.60586">
        <ele>2362.6000976562</ele>
        <time>2015-04-07T10:57:14.000Z</time>
      </trkpt>
      <trkpt lat="45.60016" lon="6.60586">
        <ele>2362.6000976562</ele>
        <time>2015-04-07T10:57:28.000Z</time>
      </trkpt>
      <trkpt lat="45.60016" lon="6.60586">
        <ele>2362.8000488281</ele>
        <time>2015-04-07T10:57:44.000Z</time>
      </trkpt>
      <trkpt lat="45.60016" lon="6.60586">
        <ele>2362.6000976562</ele>
        <time>2015-04-07T10:58:00.000Z</time>
      </trkpt>
      <trkpt lat="45.60016" lon="6.60588">
        <ele>2363</ele>
        <time>2015-04-07T10:58:13.000Z</time>
      </trkpt>
      <trkpt lat="45.60016" lon="6.60588">
        <ele>2362.3999023438</ele>
        <time>2015-04-07T10:58:27.000Z</time>
      </trkpt>
      <trkpt lat="45.60016" lon="6.60588">
        <ele>2362.3999023438</ele>
        <time>2015-04-07T10:58:39.000Z</time>
      </trkpt>
      <trkpt lat="45.60016" lon="6.60588">
        <ele>2362.3999023438</ele>
        <time>2015-04-07T10:58:40.000Z</time>
      </trkpt>
      <trkpt lat="45.60016" lon="6.60589">
        <ele>2362.6000976562</ele>
        <time>2015-04-07T10:58:55.000Z</time>
      </trkpt>
      <trkpt lat="45.60016" lon="6.60589">
        <ele>2362.6000976562</ele>
        <time>2015-04-07T10:59:10.000Z</time>
      </trkpt>
      <trkpt lat="45.60016" lon="6.60589">
        <ele>2362.6000976562</ele>
        <time>2015-04-07T10:59:13.000Z</time>
      </trkpt>
      <trkpt lat="45.60016" lon="6.60589">
        <ele>2362.6000976562</ele>
        <time>2015-04-07T10:59:25.000Z</time>
      </trkpt>
      <trkpt lat="45.60016" lon="6.60588">
        <ele>2362.3999023438</ele>
        <time>2015-04-07T10:59:35.000Z</time>
      </trkpt>
      <trkpt lat="45.60016" lon="6.60588">
        <ele>2362.6000976562</ele>
        <time>2015-04-07T10:59:42.000Z</time>
      </trkpt>
      <trkpt lat="45.60016" lon="6.60588">
        <ele>2362.6000976562</ele>
        <time>2015-04-07T10:59:49.000Z</time>
      </trkpt>
      <trkpt lat="45.60016" lon="6.60588">
        <ele>2362.3999023438</ele>
        <time>2015-04-07T11:00:05.000Z</time>
      </trkpt>
      <trkpt lat="45.60017" lon="6.60588">
        <ele>2362.6000976562</ele>
        <time>2015-04-07T11:00:15.000Z</time>
      </trkpt>
      <trkpt lat="45.60017" lon="6.60588">
        <ele>2362.6000976562</ele>
        <time>2015-04-07T11:00:20.000Z</time>
      </trkpt>
      <trkpt lat="45.60017" lon="6.60588">
        <ele>2362.8000488281</ele>
        <time>2015-04-07T11:00:34.000Z</time>
      </trkpt>
      <trkpt lat="45.60016" lon="6.60588">
        <ele>2362.8000488281</ele>
        <time>2015-04-07T11:00:45.000Z</time>
      </trkpt>
      <trkpt lat="45.60016" lon="6.60587">
        <ele>2363</ele>
        <time>2015-04-07T11:00:52.000Z</time>
      </trkpt>
      <trkpt lat="45.60018" lon="6.60586">
        <ele>2363</ele>
        <time>2015-04-07T11:00:58.000Z</time>
      </trkpt>
      <trkpt lat="45.60018" lon="6.60586">
        <ele>2363</ele>
        <time>2015-04-07T11:01:04.000Z</time>
      </trkpt>
      <trkpt lat="45.60018" lon="6.60586">
        <ele>2363</ele>
        <time>2015-04-07T11:01:05.000Z</time>
      </trkpt>
      <trkpt lat="45.60018" lon="6.60587">
        <ele>2362.8000488281</ele>
        <time>2015-04-07T11:01:10.000Z</time>
      </trkpt>
      <trkpt lat="45.60018" lon="6.60586">
        <ele>2362.8000488281</ele>
        <time>2015-04-07T11:01:17.000Z</time>
      </trkpt>
      <trkpt lat="45.60018" lon="6.60586">
        <ele>2362.6000976562</ele>
        <time>2015-04-07T11:01:33.000Z</time>
      </trkpt>
      <trkpt lat="45.60018" lon="6.60586">
        <ele>2362.3999023438</ele>
        <time>2015-04-07T11:01:47.000Z</time>
      </trkpt>
      <trkpt lat="45.60018" lon="6.60586">
        <ele>2362.6000976562</ele>
        <time>2015-04-07T11:02:00.000Z</time>
      </trkpt>
      <trkpt lat="45.60019" lon="6.60587">
        <ele>2363</ele>
        <time>2015-04-07T11:02:06.000Z</time>
      </trkpt>
      <trkpt lat="45.60025" lon="6.60589">
        <ele>2363.6000976562</ele>
        <time>2015-04-07T11:02:12.000Z</time>
      </trkpt>
      <trkpt lat="45.60028" lon="6.60585">
        <ele>2365</ele>
        <time>2015-04-07T11:02:18.000Z</time>
      </trkpt>
      <trkpt lat="45.60028" lon="6.60582">
        <ele>2366</ele>
        <time>2015-04-07T11:02:21.000Z</time>
      </trkpt>
      <trkpt lat="45.60028" lon="6.6058">
        <ele>2366.3999023438</ele>
        <time>2015-04-07T11:02:23.000Z</time>
      </trkpt>
      <trkpt lat="45.60029" lon="6.6058">
        <ele>2366.8000488281</ele>
        <time>2015-04-07T11:02:24.000Z</time>
      </trkpt>
      <trkpt lat="45.60028" lon="6.6058">
        <ele>2367.1999511719</ele>
        <time>2015-04-07T11:02:26.000Z</time>
      </trkpt>
      <trkpt lat="45.60028" lon="6.60579">
        <ele>2367.3999023438</ele>
        <time>2015-04-07T11:02:29.000Z</time>
      </trkpt>
      <trkpt lat="45.60028" lon="6.60579">
        <ele>2368</ele>
        <time>2015-04-07T11:02:34.000Z</time>
      </trkpt>
      <trkpt lat="45.60028" lon="6.60579">
        <ele>2368.1999511719</ele>
        <time>2015-04-07T11:02:40.000Z</time>
      </trkpt>
      <trkpt lat="45.60028" lon="6.60579">
        <ele>2368.1999511719</ele>
        <time>2015-04-07T11:02:41.000Z</time>
      </trkpt>
      <trkpt lat="45.60028" lon="6.60575">
        <ele>2368.6000976562</ele>
        <time>2015-04-07T11:02:45.000Z</time>
      </trkpt>
      <trkpt lat="45.60028" lon="6.6057">
        <ele>2369.1999511719</ele>
        <time>2015-04-07T11:02:49.000Z</time>
      </trkpt>
      <trkpt lat="45.60028" lon="6.60561">
        <ele>2370.1999511719</ele>
        <time>2015-04-07T11:02:55.000Z</time>
      </trkpt>
      <trkpt lat="45.60028" lon="6.6056">
        <ele>2370.3999023438</ele>
        <time>2015-04-07T11:02:57.000Z</time>
      </trkpt>
      <trkpt lat="45.60028" lon="6.60559">
        <ele>2370.8000488281</ele>
        <time>2015-04-07T11:02:59.000Z</time>
      </trkpt>
      <trkpt lat="45.6003" lon="6.60555">
        <ele>2371.6000976562</ele>
        <time>2015-04-07T11:03:04.000Z</time>
      </trkpt>
      <trkpt lat="45.60034" lon="6.60551">
        <ele>2372.1999511719</ele>
        <time>2015-04-07T11:03:09.000Z</time>
      </trkpt>
      <trkpt lat="45.60036" lon="6.60548">
        <ele>2372.6000976562</ele>
        <time>2015-04-07T11:03:11.000Z</time>
      </trkpt>
      <trkpt lat="45.60037" lon="6.60546">
        <ele>2373.1999511719</ele>
        <time>2015-04-07T11:03:13.000Z</time>
      </trkpt>
      <trkpt lat="45.60037" lon="6.60544">
        <ele>2373.8000488281</ele>
        <time>2015-04-07T11:03:15.000Z</time>
      </trkpt>
      <trkpt lat="45.60037" lon="6.60543">
        <ele>2374.3999023438</ele>
        <time>2015-04-07T11:03:17.000Z</time>
      </trkpt>
      <trkpt lat="45.60037" lon="6.60542">
        <ele>2375</ele>
        <time>2015-04-07T11:03:19.000Z</time>
      </trkpt>
      <trkpt lat="45.60037" lon="6.60539">
        <ele>2375.3999023438</ele>
        <time>2015-04-07T11:03:22.000Z</time>
      </trkpt>
      <trkpt lat="45.60037" lon="6.60537">
        <ele>2376.3999023438</ele>
        <time>2015-04-07T11:03:27.000Z</time>
      </trkpt>
      <trkpt lat="45.60037" lon="6.60537">
        <ele>2376.6000976562</ele>
        <time>2015-04-07T11:03:29.000Z</time>
      </trkpt>
      <trkpt lat="45.60037" lon="6.60531">
        <ele>2376.3999023438</ele>
        <time>2015-04-07T11:03:35.000Z</time>
      </trkpt>
      <trkpt lat="45.60037" lon="6.60528">
        <ele>2377.3999023438</ele>
        <time>2015-04-07T11:03:39.000Z</time>
      </trkpt>
      <trkpt lat="45.60038" lon="6.60527">
        <ele>2378.1999511719</ele>
        <time>2015-04-07T11:03:43.000Z</time>
      </trkpt>
      <trkpt lat="45.60038" lon="6.60527">
        <ele>2378.6000976562</ele>
        <time>2015-04-07T11:03:44.000Z</time>
      </trkpt>
      <trkpt lat="45.60038" lon="6.60521">
        <ele>2379</ele>
        <time>2015-04-07T11:03:48.000Z</time>
      </trkpt>
      <trkpt lat="45.60039" lon="6.60517">
        <ele>2379.6000976562</ele>
        <time>2015-04-07T11:03:52.000Z</time>
      </trkpt>
      <trkpt lat="45.60039" lon="6.60517">
        <ele>2380.6000976562</ele>
        <time>2015-04-07T11:03:56.000Z</time>
      </trkpt>
      <trkpt lat="45.6004" lon="6.60516">
        <ele>2380.8000488281</ele>
        <time>2015-04-07T11:03:57.000Z</time>
      </trkpt>
      <trkpt lat="45.6004" lon="6.60512">
        <ele>2381.3999023438</ele>
        <time>2015-04-07T11:04:02.000Z</time>
      </trkpt>
      <trkpt lat="45.6004" lon="6.60512">
        <ele>2381.8000488281</ele>
        <time>2015-04-07T11:04:06.000Z</time>
      </trkpt>
      <trkpt lat="45.60043" lon="6.60507">
        <ele>2382.3999023438</ele>
        <time>2015-04-07T11:04:10.000Z</time>
      </trkpt>
      <trkpt lat="45.60044" lon="6.60506">
        <ele>2382.8000488281</ele>
        <time>2015-04-07T11:04:13.000Z</time>
      </trkpt>
      <trkpt lat="45.60045" lon="6.60505">
        <ele>2383.3999023438</ele>
        <time>2015-04-07T11:04:15.000Z</time>
      </trkpt>
      <trkpt lat="45.60048" lon="6.60501">
        <ele>2383.8000488281</ele>
        <time>2015-04-07T11:04:19.000Z</time>
      </trkpt>
      <trkpt lat="45.60049" lon="6.605">
        <ele>2384.1999511719</ele>
        <time>2015-04-07T11:04:21.000Z</time>
      </trkpt>
      <trkpt lat="45.6005" lon="6.60496">
        <ele>2385</ele>
        <time>2015-04-07T11:04:26.000Z</time>
      </trkpt>
      <trkpt lat="45.60052" lon="6.60492">
        <ele>2385.8000488281</ele>
        <time>2015-04-07T11:04:32.000Z</time>
      </trkpt>
      <trkpt lat="45.60051" lon="6.6049">
        <ele>2386</ele>
        <time>2015-04-07T11:04:34.000Z</time>
      </trkpt>
      <trkpt lat="45.60051" lon="6.60486">
        <ele>2386.1999511719</ele>
        <time>2015-04-07T11:04:36.000Z</time>
      </trkpt>
      <trkpt lat="45.60051" lon="6.60479">
        <ele>2387</ele>
        <time>2015-04-07T11:04:42.000Z</time>
      </trkpt>
      <trkpt lat="45.6005" lon="6.60474">
        <ele>2387</ele>
        <time>2015-04-07T11:04:47.000Z</time>
      </trkpt>
      <trkpt lat="45.6005" lon="6.60474">
        <ele>2387.1999511719</ele>
        <time>2015-04-07T11:04:48.000Z</time>
      </trkpt>
      <trkpt lat="45.60051" lon="6.60465">
        <ele>2388</ele>
        <time>2015-04-07T11:04:54.000Z</time>
      </trkpt>
      <trkpt lat="45.60052" lon="6.60463">
        <ele>2388</ele>
        <time>2015-04-07T11:04:57.000Z</time>
      </trkpt>
      <trkpt lat="45.60053" lon="6.60459">
        <ele>2388.1999511719</ele>
        <time>2015-04-07T11:05:00.000Z</time>
      </trkpt>
      <trkpt lat="45.60053" lon="6.60458">
        <ele>2388.3999023438</ele>
        <time>2015-04-07T11:05:01.000Z</time>
      </trkpt>
      <trkpt lat="45.60055" lon="6.60453">
        <ele>2389.1999511719</ele>
        <time>2015-04-07T11:05:05.000Z</time>
      </trkpt>
      <trkpt lat="45.60055" lon="6.60452">
        <ele>2389.3999023438</ele>
        <time>2015-04-07T11:05:06.000Z</time>
      </trkpt>
      <trkpt lat="45.60054" lon="6.60449">
        <ele>2390.1999511719</ele>
        <time>2015-04-07T11:05:11.000Z</time>
      </trkpt>
      <trkpt lat="45.60054" lon="6.60449">
        <ele>2390.3999023438</ele>
        <time>2015-04-07T11:05:13.000Z</time>
      </trkpt>
      <trkpt lat="45.60054" lon="6.60449">
        <ele>2390.6000976562</ele>
        <time>2015-04-07T11:05:16.000Z</time>
      </trkpt>
      <trkpt lat="45.60054" lon="6.60448">
        <ele>2391.6000976562</ele>
        <time>2015-04-07T11:05:22.000Z</time>
      </trkpt>
      <trkpt lat="45.60055" lon="6.60446">
        <ele>2391.6000976562</ele>
        <time>2015-04-07T11:05:23.000Z</time>
      </trkpt>
      <trkpt lat="45.60056" lon="6.60442">
        <ele>2392.6000976562</ele>
        <time>2015-04-07T11:05:27.000Z</time>
      </trkpt>
      <trkpt lat="45.60058" lon="6.60437">
        <ele>2393.1999511719</ele>
        <time>2015-04-07T11:05:32.000Z</time>
      </trkpt>
      <trkpt lat="45.60059" lon="6.60434">
        <ele>2393.6000976562</ele>
        <time>2015-04-07T11:05:35.000Z</time>
      </trkpt>
      <trkpt lat="45.60059" lon="6.60432">
        <ele>2394.1999511719</ele>
        <time>2015-04-07T11:05:38.000Z</time>
      </trkpt>
      <trkpt lat="45.60059" lon="6.60432">
        <ele>2394.6000976562</ele>
        <time>2015-04-07T11:05:40.000Z</time>
      </trkpt>
      <trkpt lat="45.60064" lon="6.60421">
        <ele>2395.6000976562</ele>
        <time>2015-04-07T11:05:45.000Z</time>
      </trkpt>
      <trkpt lat="45.60064" lon="6.60421">
        <ele>2395.6000976562</ele>
        <time>2015-04-07T11:05:46.000Z</time>
      </trkpt>
      <trkpt lat="45.60064" lon="6.60419">
        <ele>2396</ele>
        <time>2015-04-07T11:05:49.000Z</time>
      </trkpt>
      <trkpt lat="45.60064" lon="6.60417">
        <ele>2396.8000488281</ele>
        <time>2015-04-07T11:05:52.000Z</time>
      </trkpt>
      <trkpt lat="45.60065" lon="6.60414">
        <ele>2397</ele>
        <time>2015-04-07T11:05:54.000Z</time>
      </trkpt>
      <trkpt lat="45.60067" lon="6.6041">
        <ele>2397.8000488281</ele>
        <time>2015-04-07T11:05:58.000Z</time>
      </trkpt>
      <trkpt lat="45.60067" lon="6.60411">
        <ele>2398</ele>
        <time>2015-04-07T11:05:59.000Z</time>
      </trkpt>
      <trkpt lat="45.6007" lon="6.60404">
        <ele>2398.8000488281</ele>
        <time>2015-04-07T11:06:05.000Z</time>
      </trkpt>
      <trkpt lat="45.60074" lon="6.60398">
        <ele>2399.8000488281</ele>
        <time>2015-04-07T11:06:12.000Z</time>
      </trkpt>
      <trkpt lat="45.60074" lon="6.60398">
        <ele>2400</ele>
        <time>2015-04-07T11:06:13.000Z</time>
      </trkpt>
      <trkpt lat="45.60075" lon="6.60398">
        <ele>2400.8000488281</ele>
        <time>2015-04-07T11:06:16.000Z</time>
      </trkpt>
      <trkpt lat="45.60075" lon="6.60397">
        <ele>2400.8000488281</ele>
        <time>2015-04-07T11:06:20.000Z</time>
      </trkpt>
      <trkpt lat="45.60077" lon="6.60393">
        <ele>2401</ele>
        <time>2015-04-07T11:06:25.000Z</time>
      </trkpt>
      <trkpt lat="45.60079" lon="6.60389">
        <ele>2401.8000488281</ele>
        <time>2015-04-07T11:06:29.000Z</time>
      </trkpt>
      <trkpt lat="45.60079" lon="6.60389">
        <ele>2402</ele>
        <time>2015-04-07T11:06:31.000Z</time>
      </trkpt>
      <trkpt lat="45.60081" lon="6.60385">
        <ele>2402.8000488281</ele>
        <time>2015-04-07T11:06:35.000Z</time>
      </trkpt>
      <trkpt lat="45.60082" lon="6.60382">
        <ele>2403.1999511719</ele>
        <time>2015-04-07T11:06:37.000Z</time>
      </trkpt>
      <trkpt lat="45.60082" lon="6.60382">
        <ele>2403.3999023438</ele>
        <time>2015-04-07T11:06:39.000Z</time>
      </trkpt>
      <trkpt lat="45.60085" lon="6.60378">
        <ele>2404.1999511719</ele>
        <time>2015-04-07T11:06:44.000Z</time>
      </trkpt>
      <trkpt lat="45.60089" lon="6.60374">
        <ele>2405</ele>
        <time>2015-04-07T11:06:49.000Z</time>
      </trkpt>
      <trkpt lat="45.6009" lon="6.60373">
        <ele>2405.3999023438</ele>
        <time>2015-04-07T11:06:51.000Z</time>
      </trkpt>
      <trkpt lat="45.60092" lon="6.60371">
        <ele>2406</ele>
        <time>2015-04-07T11:06:55.000Z</time>
      </trkpt>
      <trkpt lat="45.60094" lon="6.6037">
        <ele>2406.3999023438</ele>
        <time>2015-04-07T11:06:58.000Z</time>
      </trkpt>
      <trkpt lat="45.60097" lon="6.60368">
        <ele>2406.8000488281</ele>
        <time>2015-04-07T11:07:01.000Z</time>
      </trkpt>
      <trkpt lat="45.601" lon="6.60367">
        <ele>2407</ele>
        <time>2015-04-07T11:07:04.000Z</time>
      </trkpt>
      <trkpt lat="45.60102" lon="6.60366">
        <ele>2407.1999511719</ele>
        <time>2015-04-07T11:07:07.000Z</time>
      </trkpt>
      <trkpt lat="45.60104" lon="6.60366">
        <ele>2407.3999023438</ele>
        <time>2015-04-07T11:07:09.000Z</time>
      </trkpt>
      <trkpt lat="45.60106" lon="6.60364">
        <ele>2408</ele>
        <time>2015-04-07T11:07:13.000Z</time>
      </trkpt>
      <trkpt lat="45.60109" lon="6.60362">
        <ele>2408.6000976562</ele>
        <time>2015-04-07T11:07:18.000Z</time>
      </trkpt>
      <trkpt lat="45.60109" lon="6.60362">
        <ele>2408.6000976562</ele>
        <time>2015-04-07T11:07:19.000Z</time>
      </trkpt>
      <trkpt lat="45.60114" lon="6.60359">
        <ele>2409.3999023438</ele>
        <time>2015-04-07T11:07:26.000Z</time>
      </trkpt>
      <trkpt lat="45.60115" lon="6.60357">
        <ele>2409.6000976562</ele>
        <time>2015-04-07T11:07:28.000Z</time>
      </trkpt>
      <trkpt lat="45.60118" lon="6.60355">
        <ele>2410</ele>
        <time>2015-04-07T11:07:32.000Z</time>
      </trkpt>
      <trkpt lat="45.60121" lon="6.60356">
        <ele>2410.6000976562</ele>
        <time>2015-04-07T11:07:36.000Z</time>
      </trkpt>
      <trkpt lat="45.60122" lon="6.60356">
        <ele>2411.1999511719</ele>
        <time>2015-04-07T11:07:38.000Z</time>
      </trkpt>
      <trkpt lat="45.60127" lon="6.60353">
        <ele>2411.8000488281</ele>
        <time>2015-04-07T11:07:44.000Z</time>
      </trkpt>
      <trkpt lat="45.60128" lon="6.60353">
        <ele>2411.8000488281</ele>
        <time>2015-04-07T11:07:45.000Z</time>
      </trkpt>
      <trkpt lat="45.60131" lon="6.60352">
        <ele>2412.8000488281</ele>
        <time>2015-04-07T11:07:51.000Z</time>
      </trkpt>
      <trkpt lat="45.60136" lon="6.60351">
        <ele>2413.8000488281</ele>
        <time>2015-04-07T11:07:58.000Z</time>
      </trkpt>
      <trkpt lat="45.60138" lon="6.60351">
        <ele>2413.8000488281</ele>
        <time>2015-04-07T11:07:59.000Z</time>
      </trkpt>
      <trkpt lat="45.6014" lon="6.60351">
        <ele>2414.6000976562</ele>
        <time>2015-04-07T11:08:04.000Z</time>
      </trkpt>
      <trkpt lat="45.6014" lon="6.60351">
        <ele>2415</ele>
        <time>2015-04-07T11:08:06.000Z</time>
      </trkpt>
      <trkpt lat="45.60144" lon="6.60349">
        <ele>2415.1999511719</ele>
        <time>2015-04-07T11:08:11.000Z</time>
      </trkpt>
      <trkpt lat="45.60142" lon="6.60345">
        <ele>2416</ele>
        <time>2015-04-07T11:08:16.000Z</time>
      </trkpt>
      <trkpt lat="45.60142" lon="6.60344">
        <ele>2416.1999511719</ele>
        <time>2015-04-07T11:08:17.000Z</time>
      </trkpt>
      <trkpt lat="45.6014" lon="6.60341">
        <ele>2416.8000488281</ele>
        <time>2015-04-07T11:08:21.000Z</time>
      </trkpt>
      <trkpt lat="45.60139" lon="6.60337">
        <ele>2417.3999023438</ele>
        <time>2015-04-07T11:08:25.000Z</time>
      </trkpt>
      <trkpt lat="45.60139" lon="6.60337">
        <ele>2417.6000976562</ele>
        <time>2015-04-07T11:08:26.000Z</time>
      </trkpt>
      <trkpt lat="45.60135" lon="6.6033">
        <ele>2418.3999023438</ele>
        <time>2015-04-07T11:08:32.000Z</time>
      </trkpt>
      <trkpt lat="45.60134" lon="6.60328">
        <ele>2418.6000976562</ele>
        <time>2015-04-07T11:08:33.000Z</time>
      </trkpt>
      <trkpt lat="45.60133" lon="6.60326">
        <ele>2419.1999511719</ele>
        <time>2015-04-07T11:08:36.000Z</time>
      </trkpt>
      <trkpt lat="45.60133" lon="6.60326">
        <ele>2419.6000976562</ele>
        <time>2015-04-07T11:08:38.000Z</time>
      </trkpt>
      <trkpt lat="45.6013" lon="6.60321">
        <ele>2420.6000976562</ele>
        <time>2015-04-07T11:08:43.000Z</time>
      </trkpt>
      <trkpt lat="45.60128" lon="6.60318">
        <ele>2421.1999511719</ele>
        <time>2015-04-07T11:08:47.000Z</time>
      </trkpt>
      <trkpt lat="45.60125" lon="6.60312">
        <ele>2421.8000488281</ele>
        <time>2015-04-07T11:08:53.000Z</time>
      </trkpt>
      <trkpt lat="45.60125" lon="6.60311">
        <ele>2422.3999023438</ele>
        <time>2015-04-07T11:08:58.000Z</time>
      </trkpt>
      <trkpt lat="45.60123" lon="6.60309">
        <ele>2422.8000488281</ele>
        <time>2015-04-07T11:09:01.000Z</time>
      </trkpt>
      <trkpt lat="45.60121" lon="6.60308">
        <ele>2423.3999023438</ele>
        <time>2015-04-07T11:09:04.000Z</time>
      </trkpt>
      <trkpt lat="45.60119" lon="6.60305">
        <ele>2424</ele>
        <time>2015-04-07T11:09:08.000Z</time>
      </trkpt>
      <trkpt lat="45.60117" lon="6.60303">
        <ele>2424.3999023438</ele>
        <time>2015-04-07T11:09:12.000Z</time>
      </trkpt>
      <trkpt lat="45.60115" lon="6.603">
        <ele>2425</ele>
        <time>2015-04-07T11:09:16.000Z</time>
      </trkpt>
      <trkpt lat="45.60113" lon="6.60299">
        <ele>2425</ele>
        <time>2015-04-07T11:09:17.000Z</time>
      </trkpt>
      <trkpt lat="45.60112" lon="6.60297">
        <ele>2426</ele>
        <time>2015-04-07T11:09:23.000Z</time>
      </trkpt>
      <trkpt lat="45.60113" lon="6.60297">
        <ele>2426.8000488281</ele>
        <time>2015-04-07T11:09:29.000Z</time>
      </trkpt>
      <trkpt lat="45.60115" lon="6.60296">
        <ele>2427.1999511719</ele>
        <time>2015-04-07T11:09:32.000Z</time>
      </trkpt>
      <trkpt lat="45.60118" lon="6.60295">
        <ele>2427.8000488281</ele>
        <time>2015-04-07T11:09:36.000Z</time>
      </trkpt>
      <trkpt lat="45.6012" lon="6.60294">
        <ele>2428.3999023438</ele>
        <time>2015-04-07T11:09:40.000Z</time>
      </trkpt>
      <trkpt lat="45.60124" lon="6.60294">
        <ele>2429.1999511719</ele>
        <time>2015-04-07T11:09:45.000Z</time>
      </trkpt>
      <trkpt lat="45.60126" lon="6.60293">
        <ele>2429.3999023438</ele>
        <time>2015-04-07T11:09:47.000Z</time>
      </trkpt>
      <trkpt lat="45.60129" lon="6.60291">
        <ele>2430.1999511719</ele>
        <time>2015-04-07T11:09:52.000Z</time>
      </trkpt>
      <trkpt lat="45.60132" lon="6.60288">
        <ele>2430.6000976562</ele>
        <time>2015-04-07T11:09:56.000Z</time>
      </trkpt>
      <trkpt lat="45.60135" lon="6.60287">
        <ele>2431</ele>
        <time>2015-04-07T11:10:00.000Z</time>
      </trkpt>
      <trkpt lat="45.60141" lon="6.60285">
        <ele>2431.6000976562</ele>
        <time>2015-04-07T11:10:06.000Z</time>
      </trkpt>
      <trkpt lat="45.60145" lon="6.60281">
        <ele>2432.8000488281</ele>
        <time>2015-04-07T11:10:13.000Z</time>
      </trkpt>
      <trkpt lat="45.60146" lon="6.60281">
        <ele>2432.8000488281</ele>
        <time>2015-04-07T11:10:14.000Z</time>
      </trkpt>
      <trkpt lat="45.60151" lon="6.6028">
        <ele>2433.8000488281</ele>
        <time>2015-04-07T11:10:21.000Z</time>
      </trkpt>
      <trkpt lat="45.60155" lon="6.60277">
        <ele>2434.6000976562</ele>
        <time>2015-04-07T11:10:27.000Z</time>
      </trkpt>
      <trkpt lat="45.60156" lon="6.60276">
        <ele>2434.8000488281</ele>
        <time>2015-04-07T11:10:29.000Z</time>
      </trkpt>
      <trkpt lat="45.6016" lon="6.60274">
        <ele>2436</ele>
        <time>2015-04-07T11:10:36.000Z</time>
      </trkpt>
      <trkpt lat="45.60165" lon="6.60272">
        <ele>2436.8000488281</ele>
        <time>2015-04-07T11:10:42.000Z</time>
      </trkpt>
      <trkpt lat="45.60167" lon="6.60271">
        <ele>2437</ele>
        <time>2015-04-07T11:10:45.000Z</time>
      </trkpt>
      <trkpt lat="45.60168" lon="6.6027">
        <ele>2437.3999023438</ele>
        <time>2015-04-07T11:10:49.000Z</time>
      </trkpt>
      <trkpt lat="45.60171" lon="6.60269">
        <ele>2438.1999511719</ele>
        <time>2015-04-07T11:10:54.000Z</time>
      </trkpt>
      <trkpt lat="45.60173" lon="6.60268">
        <ele>2438.6000976562</ele>
        <time>2015-04-07T11:10:57.000Z</time>
      </trkpt>
      <trkpt lat="45.60178" lon="6.60266">
        <ele>2439.3999023438</ele>
        <time>2015-04-07T11:11:04.000Z</time>
      </trkpt>
      <trkpt lat="45.60183" lon="6.60263">
        <ele>2440.6000976562</ele>
        <time>2015-04-07T11:11:11.000Z</time>
      </trkpt>
      <trkpt lat="45.60184" lon="6.60263">
        <ele>2440.6000976562</ele>
        <time>2015-04-07T11:11:12.000Z</time>
      </trkpt>
      <trkpt lat="45.6019" lon="6.60262">
        <ele>2441.6000976562</ele>
        <time>2015-04-07T11:11:20.000Z</time>
      </trkpt>
      <trkpt lat="45.60194" lon="6.60262">
        <ele>2442.1999511719</ele>
        <time>2015-04-07T11:11:26.000Z</time>
      </trkpt>
      <trkpt lat="45.60195" lon="6.60264">
        <ele>2442.8000488281</ele>
        <time>2015-04-07T11:11:29.000Z</time>
      </trkpt>
      <trkpt lat="45.60198" lon="6.60266">
        <ele>2443.1999511719</ele>
        <time>2015-04-07T11:11:33.000Z</time>
      </trkpt>
      <trkpt lat="45.602" lon="6.60267">
        <ele>2443.8000488281</ele>
        <time>2015-04-07T11:11:36.000Z</time>
      </trkpt>
      <trkpt lat="45.60202" lon="6.60266">
        <ele>2444.3999023438</ele>
        <time>2015-04-07T11:11:40.000Z</time>
      </trkpt>
      <trkpt lat="45.60204" lon="6.60266">
        <ele>2444.8000488281</ele>
        <time>2015-04-07T11:11:43.000Z</time>
      </trkpt>
      <trkpt lat="45.60205" lon="6.60266">
        <ele>2445.3999023438</ele>
        <time>2015-04-07T11:11:48.000Z</time>
      </trkpt>
      <trkpt lat="45.60204" lon="6.60263">
        <ele>2445.3999023438</ele>
        <time>2015-04-07T11:11:53.000Z</time>
      </trkpt>
      <trkpt lat="45.60201" lon="6.60256">
        <ele>2446</ele>
        <time>2015-04-07T11:11:57.000Z</time>
      </trkpt>
      <trkpt lat="45.60201" lon="6.60257">
        <ele>2446.1999511719</ele>
        <time>2015-04-07T11:11:58.000Z</time>
      </trkpt>
      <trkpt lat="45.60199" lon="6.6025">
        <ele>2446.3999023438</ele>
        <time>2015-04-07T11:12:03.000Z</time>
      </trkpt>
      <trkpt lat="45.60197" lon="6.60247">
        <ele>2447.1999511719</ele>
        <time>2015-04-07T11:12:07.000Z</time>
      </trkpt>
      <trkpt lat="45.60196" lon="6.60241">
        <ele>2448.1999511719</ele>
        <time>2015-04-07T11:12:12.000Z</time>
      </trkpt>
      <trkpt lat="45.60195" lon="6.6024">
        <ele>2448.3999023438</ele>
        <time>2015-04-07T11:12:13.000Z</time>
      </trkpt>
      <trkpt lat="45.60194" lon="6.60237">
        <ele>2449.1999511719</ele>
        <time>2015-04-07T11:12:18.000Z</time>
      </trkpt>
      <trkpt lat="45.60194" lon="6.60235">
        <ele>2449.3999023438</ele>
        <time>2015-04-07T11:12:20.000Z</time>
      </trkpt>
      <trkpt lat="45.60193" lon="6.60233">
        <ele>2449.8000488281</ele>
        <time>2015-04-07T11:12:22.000Z</time>
      </trkpt>
      <trkpt lat="45.60192" lon="6.6023">
        <ele>2450.3999023438</ele>
        <time>2015-04-07T11:12:27.000Z</time>
      </trkpt>
      <trkpt lat="45.6019" lon="6.60229">
        <ele>2450.6000976562</ele>
        <time>2015-04-07T11:12:29.000Z</time>
      </trkpt>
      <trkpt lat="45.60188" lon="6.60226">
        <ele>2451.1999511719</ele>
        <time>2015-04-07T11:12:33.000Z</time>
      </trkpt>
      <trkpt lat="45.60187" lon="6.60225">
        <ele>2451.6000976562</ele>
        <time>2015-04-07T11:12:35.000Z</time>
      </trkpt>
      <trkpt lat="45.60186" lon="6.60224">
        <ele>2452</ele>
        <time>2015-04-07T11:12:37.000Z</time>
      </trkpt>
      <trkpt lat="45.60186" lon="6.60224">
        <ele>2452.6000976562</ele>
        <time>2015-04-07T11:12:40.000Z</time>
      </trkpt>
      <trkpt lat="45.60184" lon="6.60223">
        <ele>2453</ele>
        <time>2015-04-07T11:12:42.000Z</time>
      </trkpt>
      <trkpt lat="45.6018" lon="6.6022">
        <ele>2453.6000976562</ele>
        <time>2015-04-07T11:12:48.000Z</time>
      </trkpt>
      <trkpt lat="45.60176" lon="6.60215">
        <ele>2454</ele>
        <time>2015-04-07T11:12:51.000Z</time>
      </trkpt>
      <trkpt lat="45.60176" lon="6.60216">
        <ele>2454.3999023438</ele>
        <time>2015-04-07T11:12:52.000Z</time>
      </trkpt>
      <trkpt lat="45.60174" lon="6.60212">
        <ele>2454.8000488281</ele>
        <time>2015-04-07T11:12:55.000Z</time>
      </trkpt>
      <trkpt lat="45.60173" lon="6.6021">
        <ele>2455.1999511719</ele>
        <time>2015-04-07T11:12:57.000Z</time>
      </trkpt>
      <trkpt lat="45.60172" lon="6.6021">
        <ele>2455.8000488281</ele>
        <time>2015-04-07T11:13:02.000Z</time>
      </trkpt>
      <trkpt lat="45.60171" lon="6.6021">
        <ele>2455.8000488281</ele>
        <time>2015-04-07T11:13:03.000Z</time>
      </trkpt>
      <trkpt lat="45.60168" lon="6.60208">
        <ele>2456.8000488281</ele>
        <time>2015-04-07T11:13:09.000Z</time>
      </trkpt>
      <trkpt lat="45.60167" lon="6.60207">
        <ele>2457</ele>
        <time>2015-04-07T11:13:10.000Z</time>
      </trkpt>
      <trkpt lat="45.60164" lon="6.60206">
        <ele>2457.6000976562</ele>
        <time>2015-04-07T11:13:14.000Z</time>
      </trkpt>
      <trkpt lat="45.60162" lon="6.60206">
        <ele>2458</ele>
        <time>2015-04-07T11:13:16.000Z</time>
      </trkpt>
      <trkpt lat="45.60161" lon="6.60206">
        <ele>2458.3999023438</ele>
        <time>2015-04-07T11:13:18.000Z</time>
      </trkpt>
      <trkpt lat="45.6016" lon="6.60205">
        <ele>2459.1999511719</ele>
        <time>2015-04-07T11:13:23.000Z</time>
      </trkpt>
      <trkpt lat="45.60158" lon="6.60204">
        <ele>2459.8000488281</ele>
        <time>2015-04-07T11:13:27.000Z</time>
      </trkpt>
      <trkpt lat="45.60157" lon="6.60203">
        <ele>2460.1999511719</ele>
        <time>2015-04-07T11:13:28.000Z</time>
      </trkpt>
      <trkpt lat="45.60156" lon="6.60203">
        <ele>2460.6000976562</ele>
        <time>2015-04-07T11:13:31.000Z</time>
      </trkpt>
      <trkpt lat="45.60155" lon="6.60203">
        <ele>2461.1999511719</ele>
        <time>2015-04-07T11:13:35.000Z</time>
      </trkpt>
      <trkpt lat="45.60155" lon="6.60203">
        <ele>2461.1999511719</ele>
        <time>2015-04-07T11:13:36.000Z</time>
      </trkpt>
      <trkpt lat="45.60155" lon="6.60203">
        <ele>2462.1999511719</ele>
        <time>2015-04-07T11:13:45.000Z</time>
      </trkpt>
      <trkpt lat="45.60155" lon="6.60203">
        <ele>2462.1999511719</ele>
        <time>2015-04-07T11:13:46.000Z</time>
      </trkpt>
      <trkpt lat="45.6016" lon="6.60201">
        <ele>2462.3999023438</ele>
        <time>2015-04-07T11:13:53.000Z</time>
      </trkpt>
      <trkpt lat="45.60164" lon="6.60199">
        <ele>2463.3999023438</ele>
        <time>2015-04-07T11:13:58.000Z</time>
      </trkpt>
      <trkpt lat="45.60165" lon="6.60199">
        <ele>2464</ele>
        <time>2015-04-07T11:14:01.000Z</time>
      </trkpt>
      <trkpt lat="45.60167" lon="6.60198">
        <ele>2464.3999023438</ele>
        <time>2015-04-07T11:14:04.000Z</time>
      </trkpt>
      <trkpt lat="45.60173" lon="6.60196">
        <ele>2465.1999511719</ele>
        <time>2015-04-07T11:14:10.000Z</time>
      </trkpt>
      <trkpt lat="45.60173" lon="6.60195">
        <ele>2465.3999023438</ele>
        <time>2015-04-07T11:14:12.000Z</time>
      </trkpt>
      <trkpt lat="45.60179" lon="6.60192">
        <ele>2466.3999023438</ele>
        <time>2015-04-07T11:14:18.000Z</time>
      </trkpt>
      <trkpt lat="45.60182" lon="6.60191">
        <ele>2467.3999023438</ele>
        <time>2015-04-07T11:14:26.000Z</time>
      </trkpt>
      <trkpt lat="45.60184" lon="6.6019">
        <ele>2467.6000976562</ele>
        <time>2015-04-07T11:14:28.000Z</time>
      </trkpt>
      <trkpt lat="45.60187" lon="6.60189">
        <ele>2468.1999511719</ele>
        <time>2015-04-07T11:14:33.000Z</time>
      </trkpt>
      <trkpt lat="45.60192" lon="6.60189">
        <ele>2468.6000976562</ele>
        <time>2015-04-07T11:14:39.000Z</time>
      </trkpt>
      <trkpt lat="45.60194" lon="6.60188">
        <ele>2469</ele>
        <time>2015-04-07T11:14:41.000Z</time>
      </trkpt>
      <trkpt lat="45.60196" lon="6.60186">
        <ele>2469.8000488281</ele>
        <time>2015-04-07T11:14:46.000Z</time>
      </trkpt>
      <trkpt lat="45.602" lon="6.60184">
        <ele>2470.1999511719</ele>
        <time>2015-04-07T11:14:51.000Z</time>
      </trkpt>
      <trkpt lat="45.60202" lon="6.60185">
        <ele>2470.8000488281</ele>
        <time>2015-04-07T11:14:56.000Z</time>
      </trkpt>
      <trkpt lat="45.60202" lon="6.60185">
        <ele>2471</ele>
        <time>2015-04-07T11:14:57.000Z</time>
      </trkpt>
      <trkpt lat="45.60205" lon="6.60184">
        <ele>2471.8000488281</ele>
        <time>2015-04-07T11:15:02.000Z</time>
      </trkpt>
      <trkpt lat="45.6021" lon="6.60185">
        <ele>2472.6000976562</ele>
        <time>2015-04-07T11:15:07.000Z</time>
      </trkpt>
      <trkpt lat="45.60213" lon="6.60187">
        <ele>2473</ele>
        <time>2015-04-07T11:15:11.000Z</time>
      </trkpt>
      <trkpt lat="45.60217" lon="6.60187">
        <ele>2473.6000976562</ele>
        <time>2015-04-07T11:15:16.000Z</time>
      </trkpt>
      <trkpt lat="45.60219" lon="6.60188">
        <ele>2474</ele>
        <time>2015-04-07T11:15:19.000Z</time>
      </trkpt>
      <trkpt lat="45.6022" lon="6.60188">
        <ele>2474.3999023438</ele>
        <time>2015-04-07T11:15:22.000Z</time>
      </trkpt>
      <trkpt lat="45.60223" lon="6.60189">
        <ele>2475.1999511719</ele>
        <time>2015-04-07T11:15:26.000Z</time>
      </trkpt>
      <trkpt lat="45.60223" lon="6.60189">
        <ele>2475.3999023438</ele>
        <time>2015-04-07T11:15:27.000Z</time>
      </trkpt>
      <trkpt lat="45.60226" lon="6.60189">
        <ele>2476.1999511719</ele>
        <time>2015-04-07T11:15:31.000Z</time>
      </trkpt>
      <trkpt lat="45.60226" lon="6.60189">
        <ele>2476.3999023438</ele>
        <time>2015-04-07T11:15:33.000Z</time>
      </trkpt>
      <trkpt lat="45.60226" lon="6.60188">
        <ele>2476.6000976562</ele>
        <time>2015-04-07T11:15:45.000Z</time>
      </trkpt>
      <trkpt lat="45.60224" lon="6.60182">
        <ele>2476.6000976562</ele>
        <time>2015-04-07T11:15:49.000Z</time>
      </trkpt>
      <trkpt lat="45.60222" lon="6.60179">
        <ele>2477.1999511719</ele>
        <time>2015-04-07T11:15:52.000Z</time>
      </trkpt>
      <trkpt lat="45.60222" lon="6.60178">
        <ele>2477.6000976562</ele>
        <time>2015-04-07T11:15:53.000Z</time>
      </trkpt>
      <trkpt lat="45.60221" lon="6.60176">
        <ele>2478</ele>
        <time>2015-04-07T11:15:56.000Z</time>
      </trkpt>
      <trkpt lat="45.6022" lon="6.60175">
        <ele>2478.3999023438</ele>
        <time>2015-04-07T11:15:58.000Z</time>
      </trkpt>
      <trkpt lat="45.60219" lon="6.60173">
        <ele>2478.6000976562</ele>
        <time>2015-04-07T11:16:00.000Z</time>
      </trkpt>
      <trkpt lat="45.60216" lon="6.60167">
        <ele>2479.1999511719</ele>
        <time>2015-04-07T11:16:06.000Z</time>
      </trkpt>
      <trkpt lat="45.60215" lon="6.60166">
        <ele>2479.3999023438</ele>
        <time>2015-04-07T11:16:07.000Z</time>
      </trkpt>
      <trkpt lat="45.60213" lon="6.60163">
        <ele>2479.8000488281</ele>
        <time>2015-04-07T11:16:10.000Z</time>
      </trkpt>
      <trkpt lat="45.60211" lon="6.60161">
        <ele>2480.1999511719</ele>
        <time>2015-04-07T11:16:14.000Z</time>
      </trkpt>
      <trkpt lat="45.60211" lon="6.6016">
        <ele>2480.3999023438</ele>
        <time>2015-04-07T11:16:15.000Z</time>
      </trkpt>
      <trkpt lat="45.60209" lon="6.60158">
        <ele>2480.8000488281</ele>
        <time>2015-04-07T11:16:19.000Z</time>
      </trkpt>
      <trkpt lat="45.60207" lon="6.60153">
        <ele>2481.6000976562</ele>
        <time>2015-04-07T11:16:23.000Z</time>
      </trkpt>
      <trkpt lat="45.60206" lon="6.60151">
        <ele>2481.8000488281</ele>
        <time>2015-04-07T11:16:24.000Z</time>
      </trkpt>
      <trkpt lat="45.60204" lon="6.60149">
        <ele>2482.3999023438</ele>
        <time>2015-04-07T11:16:29.000Z</time>
      </trkpt>
      <trkpt lat="45.60202" lon="6.60147">
        <ele>2482.8000488281</ele>
        <time>2015-04-07T11:16:33.000Z</time>
      </trkpt>
      <trkpt lat="45.60201" lon="6.60147">
        <ele>2483</ele>
        <time>2015-04-07T11:16:34.000Z</time>
      </trkpt>
      <trkpt lat="45.60197" lon="6.60146">
        <ele>2483.8000488281</ele>
        <time>2015-04-07T11:16:38.000Z</time>
      </trkpt>
      <trkpt lat="45.60197" lon="6.60146">
        <ele>2484</ele>
        <time>2015-04-07T11:16:39.000Z</time>
      </trkpt>
      <trkpt lat="45.60195" lon="6.60144">
        <ele>2484.6000976562</ele>
        <time>2015-04-07T11:16:44.000Z</time>
      </trkpt>
      <trkpt lat="45.60195" lon="6.60143">
        <ele>2485</ele>
        <time>2015-04-07T11:16:46.000Z</time>
      </trkpt>
      <trkpt lat="45.60194" lon="6.60143">
        <ele>2485.1999511719</ele>
        <time>2015-04-07T11:16:48.000Z</time>
      </trkpt>
      <trkpt lat="45.60192" lon="6.60142">
        <ele>2485.8000488281</ele>
        <time>2015-04-07T11:16:53.000Z</time>
      </trkpt>
      <trkpt lat="45.60191" lon="6.60141">
        <ele>2486</ele>
        <time>2015-04-07T11:16:54.000Z</time>
      </trkpt>
      <trkpt lat="45.60191" lon="6.60141">
        <ele>2486.6000976562</ele>
        <time>2015-04-07T11:16:59.000Z</time>
      </trkpt>
      <trkpt lat="45.60191" lon="6.60141">
        <ele>2486.8000488281</ele>
        <time>2015-04-07T11:17:10.000Z</time>
      </trkpt>
      <trkpt lat="45.60194" lon="6.60139">
        <ele>2487.1999511719</ele>
        <time>2015-04-07T11:17:17.000Z</time>
      </trkpt>
      <trkpt lat="45.60195" lon="6.60139">
        <ele>2487.6000976562</ele>
        <time>2015-04-07T11:17:18.000Z</time>
      </trkpt>
      <trkpt lat="45.60201" lon="6.60135">
        <ele>2488.3999023438</ele>
        <time>2015-04-07T11:17:25.000Z</time>
      </trkpt>
      <trkpt lat="45.60202" lon="6.60134">
        <ele>2489</ele>
        <time>2015-04-07T11:17:28.000Z</time>
      </trkpt>
      <trkpt lat="45.60204" lon="6.60134">
        <ele>2489.3999023438</ele>
        <time>2015-04-07T11:17:30.000Z</time>
      </trkpt>
      <trkpt lat="45.60209" lon="6.60134">
        <ele>2490.1999511719</ele>
        <time>2015-04-07T11:17:37.000Z</time>
      </trkpt>
      <trkpt lat="45.60211" lon="6.60135">
        <ele>2490.6000976562</ele>
        <time>2015-04-07T11:17:40.000Z</time>
      </trkpt>
      <trkpt lat="45.60213" lon="6.60135">
        <ele>2491.1999511719</ele>
        <time>2015-04-07T11:17:44.000Z</time>
      </trkpt>
      <trkpt lat="45.60214" lon="6.60136">
        <ele>2491.6000976562</ele>
        <time>2015-04-07T11:17:47.000Z</time>
      </trkpt>
      <trkpt lat="45.60216" lon="6.60136">
        <ele>2492.1999511719</ele>
        <time>2015-04-07T11:17:52.000Z</time>
      </trkpt>
      <trkpt lat="45.60217" lon="6.60136">
        <ele>2492.6000976562</ele>
        <time>2015-04-07T11:17:53.000Z</time>
      </trkpt>
      <trkpt lat="45.6022" lon="6.60137">
        <ele>2493.8000488281</ele>
        <time>2015-04-07T11:17:58.000Z</time>
      </trkpt>
      <trkpt lat="45.60221" lon="6.60137">
        <ele>2494</ele>
        <time>2015-04-07T11:18:00.000Z</time>
      </trkpt>
      <trkpt lat="45.60225" lon="6.6014">
        <ele>2494.8000488281</ele>
        <time>2015-04-07T11:18:07.000Z</time>
      </trkpt>
      <trkpt lat="45.60226" lon="6.60141">
        <ele>2495.1999511719</ele>
        <time>2015-04-07T11:18:09.000Z</time>
      </trkpt>
      <trkpt lat="45.60228" lon="6.60141">
        <ele>2495.8000488281</ele>
        <time>2015-04-07T11:18:13.000Z</time>
      </trkpt>
      <trkpt lat="45.60229" lon="6.60142">
        <ele>2496</ele>
        <time>2015-04-07T11:18:16.000Z</time>
      </trkpt>
      <trkpt lat="45.60231" lon="6.6014">
        <ele>2497</ele>
        <time>2015-04-07T11:18:20.000Z</time>
      </trkpt>
      <trkpt lat="45.60229" lon="6.6014">
        <ele>2497.6000976562</ele>
        <time>2015-04-07T11:18:25.000Z</time>
      </trkpt>
      <trkpt lat="45.60227" lon="6.60136">
        <ele>2497.3999023438</ele>
        <time>2015-04-07T11:18:30.000Z</time>
      </trkpt>
      <trkpt lat="45.60226" lon="6.60135">
        <ele>2497.8000488281</ele>
        <time>2015-04-07T11:18:33.000Z</time>
      </trkpt>
      <trkpt lat="45.60226" lon="6.60134">
        <ele>2498</ele>
        <time>2015-04-07T11:18:34.000Z</time>
      </trkpt>
      <trkpt lat="45.60225" lon="6.60132">
        <ele>2498.8000488281</ele>
        <time>2015-04-07T11:18:37.000Z</time>
      </trkpt>
      <trkpt lat="45.60224" lon="6.60131">
        <ele>2499.1999511719</ele>
        <time>2015-04-07T11:18:39.000Z</time>
      </trkpt>
      <trkpt lat="45.60224" lon="6.6013">
        <ele>2499.3999023438</ele>
        <time>2015-04-07T11:18:41.000Z</time>
      </trkpt>
      <trkpt lat="45.60223" lon="6.60128">
        <ele>2500</ele>
        <time>2015-04-07T11:18:45.000Z</time>
      </trkpt>
      <trkpt lat="45.60223" lon="6.60128">
        <ele>2500.1999511719</ele>
        <time>2015-04-07T11:18:46.000Z</time>
      </trkpt>
      <trkpt lat="45.60221" lon="6.60125">
        <ele>2501</ele>
        <time>2015-04-07T11:18:50.000Z</time>
      </trkpt>
      <trkpt lat="45.60221" lon="6.60124">
        <ele>2501.3999023438</ele>
        <time>2015-04-07T11:18:52.000Z</time>
      </trkpt>
      <trkpt lat="45.60219" lon="6.6012">
        <ele>2502</ele>
        <time>2015-04-07T11:18:57.000Z</time>
      </trkpt>
      <trkpt lat="45.60217" lon="6.60118">
        <ele>2502.3999023438</ele>
        <time>2015-04-07T11:19:00.000Z</time>
      </trkpt>
      <trkpt lat="45.60216" lon="6.60115">
        <ele>2502.8000488281</ele>
        <time>2015-04-07T11:19:03.000Z</time>
      </trkpt>
      <trkpt lat="45.60215" lon="6.60113">
        <ele>2503.3999023438</ele>
        <time>2015-04-07T11:19:06.000Z</time>
      </trkpt>
      <trkpt lat="45.60214" lon="6.60111">
        <ele>2503.6000976562</ele>
        <time>2015-04-07T11:19:08.000Z</time>
      </trkpt>
      <trkpt lat="45.60214" lon="6.60109">
        <ele>2503.6000976562</ele>
        <time>2015-04-07T11:19:13.000Z</time>
      </trkpt>
      <trkpt lat="45.60214" lon="6.60109">
        <ele>2504.3999023438</ele>
        <time>2015-04-07T11:19:16.000Z</time>
      </trkpt>
      <trkpt lat="45.60213" lon="6.60109">
        <ele>2505</ele>
        <time>2015-04-07T11:19:23.000Z</time>
      </trkpt>
      <trkpt lat="45.60213" lon="6.6011">
        <ele>2505.3999023438</ele>
        <time>2015-04-07T11:19:28.000Z</time>
      </trkpt>
      <trkpt lat="45.60215" lon="6.6011">
        <ele>2506.1999511719</ele>
        <time>2015-04-07T11:19:32.000Z</time>
      </trkpt>
      <trkpt lat="45.60218" lon="6.60111">
        <ele>2506.6000976562</ele>
        <time>2015-04-07T11:19:37.000Z</time>
      </trkpt>
      <trkpt lat="45.6022" lon="6.60111">
        <ele>2507.1999511719</ele>
        <time>2015-04-07T11:19:40.000Z</time>
      </trkpt>
      <trkpt lat="45.60222" lon="6.60111">
        <ele>2507.8000488281</ele>
        <time>2015-04-07T11:19:42.000Z</time>
      </trkpt>
      <trkpt lat="45.60224" lon="6.60113">
        <ele>2508.1999511719</ele>
        <time>2015-04-07T11:19:47.000Z</time>
      </trkpt>
      <trkpt lat="45.60227" lon="6.60113">
        <ele>2509.1999511719</ele>
        <time>2015-04-07T11:19:53.000Z</time>
      </trkpt>
      <trkpt lat="45.60229" lon="6.60113">
        <ele>2509.3999023438</ele>
        <time>2015-04-07T11:19:56.000Z</time>
      </trkpt>
      <trkpt lat="45.60229" lon="6.60113">
        <ele>2510.1999511719</ele>
        <time>2015-04-07T11:20:02.000Z</time>
      </trkpt>
      <trkpt lat="45.60229" lon="6.60113">
        <ele>2510.1999511719</ele>
        <time>2015-04-07T11:20:09.000Z</time>
      </trkpt>
      <trkpt lat="45.60233" lon="6.60114">
        <ele>2510.1999511719</ele>
        <time>2015-04-07T11:20:19.000Z</time>
      </trkpt>
      <trkpt lat="45.60239" lon="6.60114">
        <ele>2511.3999023438</ele>
        <time>2015-04-07T11:20:26.000Z</time>
      </trkpt>
      <trkpt lat="45.60241" lon="6.60114">
        <ele>2511.8000488281</ele>
        <time>2015-04-07T11:20:29.000Z</time>
      </trkpt>
      <trkpt lat="45.60243" lon="6.60114">
        <ele>2512.3999023438</ele>
        <time>2015-04-07T11:20:33.000Z</time>
      </trkpt>
      <trkpt lat="45.60244" lon="6.60114">
        <ele>2513</ele>
        <time>2015-04-07T11:20:36.000Z</time>
      </trkpt>
      <trkpt lat="45.60245" lon="6.60115">
        <ele>2513.6000976562</ele>
        <time>2015-04-07T11:20:40.000Z</time>
      </trkpt>
      <trkpt lat="45.60246" lon="6.60117">
        <ele>2514.1999511719</ele>
        <time>2015-04-07T11:20:43.000Z</time>
      </trkpt>
      <trkpt lat="45.60247" lon="6.60118">
        <ele>2514.6000976562</ele>
        <time>2015-04-07T11:20:45.000Z</time>
      </trkpt>
      <trkpt lat="45.6025" lon="6.60118">
        <ele>2515.1999511719</ele>
        <time>2015-04-07T11:20:51.000Z</time>
      </trkpt>
      <trkpt lat="45.60251" lon="6.60118">
        <ele>2515.8000488281</ele>
        <time>2015-04-07T11:20:53.000Z</time>
      </trkpt>
      <trkpt lat="45.60252" lon="6.60119">
        <ele>2516.6000976562</ele>
        <time>2015-04-07T11:20:59.000Z</time>
      </trkpt>
      <trkpt lat="45.60253" lon="6.60119">
        <ele>2517</ele>
        <time>2015-04-07T11:21:05.000Z</time>
      </trkpt>
      <trkpt lat="45.60255" lon="6.6012">
        <ele>2517.6000976562</ele>
        <time>2015-04-07T11:21:08.000Z</time>
      </trkpt>
      <trkpt lat="45.60257" lon="6.60119">
        <ele>2518</ele>
        <time>2015-04-07T11:21:11.000Z</time>
      </trkpt>
      <trkpt lat="45.6026" lon="6.6012">
        <ele>2518.8000488281</ele>
        <time>2015-04-07T11:21:15.000Z</time>
      </trkpt>
      <trkpt lat="45.60261" lon="6.60123">
        <ele>2519</ele>
        <time>2015-04-07T11:21:18.000Z</time>
      </trkpt>
      <trkpt lat="45.60262" lon="6.60125">
        <ele>2519.1999511719</ele>
        <time>2015-04-07T11:21:21.000Z</time>
      </trkpt>
      <trkpt lat="45.60265" lon="6.60127">
        <ele>2520</ele>
        <time>2015-04-07T11:21:27.000Z</time>
      </trkpt>
      <trkpt lat="45.60266" lon="6.60127">
        <ele>2520.8000488281</ele>
        <time>2015-04-07T11:21:29.000Z</time>
      </trkpt>
      <trkpt lat="45.60268" lon="6.60128">
        <ele>2521.1999511719</ele>
        <time>2015-04-07T11:21:34.000Z</time>
      </trkpt>
      <trkpt lat="45.60269" lon="6.60128">
        <ele>2521.3999023438</ele>
        <time>2015-04-07T11:21:36.000Z</time>
      </trkpt>
      <trkpt lat="45.60272" lon="6.60131">
        <ele>2522.1999511719</ele>
        <time>2015-04-07T11:21:41.000Z</time>
      </trkpt>
      <trkpt lat="45.60273" lon="6.60133">
        <ele>2522.3999023438</ele>
        <time>2015-04-07T11:21:46.000Z</time>
      </trkpt>
      <trkpt lat="45.60275" lon="6.60136">
        <ele>2523.1999511719</ele>
        <time>2015-04-07T11:21:51.000Z</time>
      </trkpt>
      <trkpt lat="45.60275" lon="6.60136">
        <ele>2523.3999023438</ele>
        <time>2015-04-07T11:21:52.000Z</time>
      </trkpt>
      <trkpt lat="45.60277" lon="6.60139">
        <ele>2524.3999023438</ele>
        <time>2015-04-07T11:21:56.000Z</time>
      </trkpt>
      <trkpt lat="45.60277" lon="6.60139">
        <ele>2524.6000976562</ele>
        <time>2015-04-07T11:21:58.000Z</time>
      </trkpt>
      <trkpt lat="45.60279" lon="6.60141">
        <ele>2524.8000488281</ele>
        <time>2015-04-07T11:22:08.000Z</time>
      </trkpt>
      <trkpt lat="45.60281" lon="6.60142">
        <ele>2525</ele>
        <time>2015-04-07T11:22:13.000Z</time>
      </trkpt>
      <trkpt lat="45.60281" lon="6.60142">
        <ele>2525.3999023438</ele>
        <time>2015-04-07T11:22:16.000Z</time>
      </trkpt>
      <trkpt lat="45.60283" lon="6.60141">
        <ele>2525.3999023438</ele>
        <time>2015-04-07T11:22:23.000Z</time>
      </trkpt>
      <trkpt lat="45.60285" lon="6.60143">
        <ele>2526</ele>
        <time>2015-04-07T11:22:30.000Z</time>
      </trkpt>
      <trkpt lat="45.60285" lon="6.60143">
        <ele>2526.6000976562</ele>
        <time>2015-04-07T11:22:34.000Z</time>
      </trkpt>
      <trkpt lat="45.60285" lon="6.60143">
        <ele>2526.8000488281</ele>
        <time>2015-04-07T11:22:45.000Z</time>
      </trkpt>
      <trkpt lat="45.60285" lon="6.60143">
        <ele>2527</ele>
        <time>2015-04-07T11:23:04.000Z</time>
      </trkpt>
      <trkpt lat="45.60285" lon="6.60144">
        <ele>2526.8000488281</ele>
        <time>2015-04-07T11:23:20.000Z</time>
      </trkpt>
      <trkpt lat="45.60285" lon="6.60144">
        <ele>2527</ele>
        <time>2015-04-07T11:23:29.000Z</time>
      </trkpt>
      <trkpt lat="45.60285" lon="6.60144">
        <ele>2526.8000488281</ele>
        <time>2015-04-07T11:23:38.000Z</time>
      </trkpt>
      <trkpt lat="45.60285" lon="6.60144">
        <ele>2526.8000488281</ele>
        <time>2015-04-07T11:24:01.000Z</time>
      </trkpt>
      <trkpt lat="45.60285" lon="6.60144">
        <ele>2527.1999511719</ele>
        <time>2015-04-07T11:24:11.000Z</time>
      </trkpt>
      <trkpt lat="45.60286" lon="6.60143">
        <ele>2527.3999023438</ele>
        <time>2015-04-07T11:24:32.000Z</time>
      </trkpt>
      <trkpt lat="45.60286" lon="6.60143">
        <ele>2527.1999511719</ele>
        <time>2015-04-07T11:24:51.000Z</time>
      </trkpt>
      <trkpt lat="45.60286" lon="6.60143">
        <ele>2527.3999023438</ele>
        <time>2015-04-07T11:25:14.000Z</time>
      </trkpt>
      <trkpt lat="45.60286" lon="6.60143">
        <ele>2527.1999511719</ele>
        <time>2015-04-07T11:25:36.000Z</time>
      </trkpt>
      <trkpt lat="45.60286" lon="6.60143">
        <ele>2527</ele>
        <time>2015-04-07T11:25:56.000Z</time>
      </trkpt>
      <trkpt lat="45.60286" lon="6.60143">
        <ele>2527</ele>
        <time>2015-04-07T11:26:18.000Z</time>
      </trkpt>
      <trkpt lat="45.60286" lon="6.60143">
        <ele>2526.8000488281</ele>
        <time>2015-04-07T11:26:38.000Z</time>
      </trkpt>
      <trkpt lat="45.60286" lon="6.60143">
        <ele>2526.6000976562</ele>
        <time>2015-04-07T11:26:52.000Z</time>
      </trkpt>
      <trkpt lat="45.60286" lon="6.60143">
        <ele>2526.8000488281</ele>
        <time>2015-04-07T11:27:00.000Z</time>
      </trkpt>
      <trkpt lat="45.60286" lon="6.60143">
        <ele>2526.6000976562</ele>
        <time>2015-04-07T11:27:06.000Z</time>
      </trkpt>
      <trkpt lat="45.60286" lon="6.60142">
        <ele>2526.6000976562</ele>
        <time>2015-04-07T11:27:23.000Z</time>
      </trkpt>
      <trkpt lat="45.60286" lon="6.60142">
        <ele>2526.3999023438</ele>
        <time>2015-04-07T11:27:43.000Z</time>
      </trkpt>
      <trkpt lat="45.60286" lon="6.60142">
        <ele>2526.1999511719</ele>
        <time>2015-04-07T11:28:00.000Z</time>
      </trkpt>
      <trkpt lat="45.60286" lon="6.60142">
        <ele>2526.1999511719</ele>
        <time>2015-04-07T11:28:16.000Z</time>
      </trkpt>
      <trkpt lat="45.60286" lon="6.60142">
        <ele>2526.1999511719</ele>
        <time>2015-04-07T11:28:32.000Z</time>
      </trkpt>
      <trkpt lat="45.60286" lon="6.60142">
        <ele>2526</ele>
        <time>2015-04-07T11:28:48.000Z</time>
      </trkpt>
      <trkpt lat="45.60286" lon="6.60142">
        <ele>2525.8000488281</ele>
        <time>2015-04-07T11:29:06.000Z</time>
      </trkpt>
      <trkpt lat="45.60286" lon="6.60142">
        <ele>2525.8000488281</ele>
        <time>2015-04-07T11:29:10.000Z</time>
      </trkpt>
      <trkpt lat="45.60286" lon="6.60142">
        <ele>2525.6000976562</ele>
        <time>2015-04-07T11:29:26.000Z</time>
      </trkpt>
      <trkpt lat="45.60286" lon="6.60142">
        <ele>2525.8000488281</ele>
        <time>2015-04-07T11:29:48.000Z</time>
      </trkpt>
      <trkpt lat="45.60286" lon="6.60142">
        <ele>2525.8000488281</ele>
        <time>2015-04-07T11:30:03.000Z</time>
      </trkpt>
      <trkpt lat="45.60286" lon="6.60142">
        <ele>2526.1999511719</ele>
        <time>2015-04-07T11:30:17.000Z</time>
      </trkpt>
      <trkpt lat="45.60284" lon="6.60141">
        <ele>2525.6000976562</ele>
        <time>2015-04-07T11:30:27.000Z</time>
      </trkpt>
      <trkpt lat="45.60284" lon="6.60141">
        <ele>2526.6000976562</ele>
        <time>2015-04-07T11:30:45.000Z</time>
      </trkpt>
      <trkpt lat="45.60284" lon="6.60141">
        <ele>2526.6000976562</ele>
        <time>2015-04-07T11:31:02.000Z</time>
      </trkpt>
      <trkpt lat="45.60284" lon="6.60141">
        <ele>2527</ele>
        <time>2015-04-07T11:31:11.000Z</time>
      </trkpt>
      <trkpt lat="45.60284" lon="6.6014">
        <ele>2527</ele>
        <time>2015-04-07T11:31:16.000Z</time>
      </trkpt>
      <trkpt lat="45.60284" lon="6.6014">
        <ele>2527.6000976562</ele>
        <time>2015-04-07T11:31:22.000Z</time>
      </trkpt>
      <trkpt lat="45.60284" lon="6.6014">
        <ele>2527.8000488281</ele>
        <time>2015-04-07T11:31:24.000Z</time>
      </trkpt>
      <trkpt lat="45.60284" lon="6.6014">
        <ele>2527.8000488281</ele>
        <time>2015-04-07T11:31:29.000Z</time>
      </trkpt>
      <trkpt lat="45.60281" lon="6.60134">
        <ele>2528.3999023438</ele>
        <time>2015-04-07T11:31:34.000Z</time>
      </trkpt>
      <trkpt lat="45.60278" lon="6.60127">
        <ele>2528.3999023438</ele>
        <time>2015-04-07T11:31:39.000Z</time>
      </trkpt>
      <trkpt lat="45.60275" lon="6.60123">
        <ele>2528.6000976562</ele>
        <time>2015-04-07T11:31:43.000Z</time>
      </trkpt>
      <trkpt lat="45.60275" lon="6.60122">
        <ele>2528.8000488281</ele>
        <time>2015-04-07T11:31:44.000Z</time>
      </trkpt>
      <trkpt lat="45.60272" lon="6.60116">
        <ele>2529.1999511719</ele>
        <time>2015-04-07T11:31:49.000Z</time>
      </trkpt>
      <trkpt lat="45.6027" lon="6.60113">
        <ele>2529.8000488281</ele>
        <time>2015-04-07T11:31:52.000Z</time>
      </trkpt>
      <trkpt lat="45.60269" lon="6.60111">
        <ele>2530.1999511719</ele>
        <time>2015-04-07T11:31:54.000Z</time>
      </trkpt>
      <trkpt lat="45.60266" lon="6.60105">
        <ele>2530.8000488281</ele>
        <time>2015-04-07T11:31:59.000Z</time>
      </trkpt>
      <trkpt lat="45.60265" lon="6.60104">
        <ele>2530.8000488281</ele>
        <time>2015-04-07T11:32:00.000Z</time>
      </trkpt>
      <trkpt lat="45.60263" lon="6.60099">
        <ele>2531.3999023438</ele>
        <time>2015-04-07T11:32:05.000Z</time>
      </trkpt>
      <trkpt lat="45.60259" lon="6.60094">
        <ele>2531.8000488281</ele>
        <time>2015-04-07T11:32:10.000Z</time>
      </trkpt>
      <trkpt lat="45.60256" lon="6.60088">
        <ele>2532.1999511719</ele>
        <time>2015-04-07T11:32:15.000Z</time>
      </trkpt>
      <trkpt lat="45.60252" lon="6.60083">
        <ele>2532.3999023438</ele>
        <time>2015-04-07T11:32:20.000Z</time>
      </trkpt>
      <trkpt lat="45.60249" lon="6.60076">
        <ele>2532.8000488281</ele>
        <time>2015-04-07T11:32:25.000Z</time>
      </trkpt>
      <trkpt lat="45.60247" lon="6.60072">
        <ele>2533</ele>
        <time>2015-04-07T11:32:29.000Z</time>
      </trkpt>
      <trkpt lat="45.60246" lon="6.60072">
        <ele>2533.1999511719</ele>
        <time>2015-04-07T11:32:31.000Z</time>
      </trkpt>
      <trkpt lat="45.60245" lon="6.60069">
        <ele>2534</ele>
        <time>2015-04-07T11:32:36.000Z</time>
      </trkpt>
      <trkpt lat="45.60245" lon="6.60069">
        <ele>2535</ele>
        <time>2015-04-07T11:32:40.000Z</time>
      </trkpt>
      <trkpt lat="45.60243" lon="6.60067">
        <ele>2535.3999023438</ele>
        <time>2015-04-07T11:32:42.000Z</time>
      </trkpt>
      <trkpt lat="45.60241" lon="6.60062">
        <ele>2536</ele>
        <time>2015-04-07T11:32:47.000Z</time>
      </trkpt>
      <trkpt lat="45.60238" lon="6.60058">
        <ele>2536.8000488281</ele>
        <time>2015-04-07T11:32:53.000Z</time>
      </trkpt>
      <trkpt lat="45.60237" lon="6.60057">
        <ele>2537.1999511719</ele>
        <time>2015-04-07T11:32:55.000Z</time>
      </trkpt>
      <trkpt lat="45.60235" lon="6.60055">
        <ele>2538.6000976562</ele>
        <time>2015-04-07T11:32:59.000Z</time>
      </trkpt>
      <trkpt lat="45.60234" lon="6.60054">
        <ele>2539.1999511719</ele>
        <time>2015-04-07T11:33:01.000Z</time>
      </trkpt>
      <trkpt lat="45.60234" lon="6.60053">
        <ele>2539.6000976562</ele>
        <time>2015-04-07T11:33:03.000Z</time>
      </trkpt>
      <trkpt lat="45.60232" lon="6.60052">
        <ele>2539.8000488281</ele>
        <time>2015-04-07T11:33:05.000Z</time>
      </trkpt>
      <trkpt lat="45.6023" lon="6.6005">
        <ele>2540.8000488281</ele>
        <time>2015-04-07T11:33:09.000Z</time>
      </trkpt>
      <trkpt lat="45.6023" lon="6.6005">
        <ele>2541</ele>
        <time>2015-04-07T11:33:11.000Z</time>
      </trkpt>
      <trkpt lat="45.60229" lon="6.6005">
        <ele>2541.8000488281</ele>
        <time>2015-04-07T11:33:15.000Z</time>
      </trkpt>
      <trkpt lat="45.60229" lon="6.6005">
        <ele>2542.3999023438</ele>
        <time>2015-04-07T11:33:17.000Z</time>
      </trkpt>
      <trkpt lat="45.60224" lon="6.60047">
        <ele>2542.3999023438</ele>
        <time>2015-04-07T11:33:25.000Z</time>
      </trkpt>
      <trkpt lat="45.60221" lon="6.60044">
        <ele>2543</ele>
        <time>2015-04-07T11:33:29.000Z</time>
      </trkpt>
      <trkpt lat="45.6022" lon="6.60042">
        <ele>2544.1999511719</ele>
        <time>2015-04-07T11:33:34.000Z</time>
      </trkpt>
      <trkpt lat="45.60219" lon="6.60041">
        <ele>2544.8000488281</ele>
        <time>2015-04-07T11:33:40.000Z</time>
      </trkpt>
      <trkpt lat="45.60218" lon="6.60041">
        <ele>2545.1999511719</ele>
        <time>2015-04-07T11:33:42.000Z</time>
      </trkpt>
      <trkpt lat="45.60218" lon="6.6004">
        <ele>2545.6000976562</ele>
        <time>2015-04-07T11:33:44.000Z</time>
      </trkpt>
      <trkpt lat="45.60218" lon="6.6004">
        <ele>2545.8000488281</ele>
        <time>2015-04-07T11:33:46.000Z</time>
      </trkpt>
      <trkpt lat="45.60218" lon="6.6004">
        <ele>2545.1999511719</ele>
        <time>2015-04-07T11:34:01.000Z</time>
      </trkpt>
      <trkpt lat="45.60218" lon="6.6004">
        <ele>2545.8000488281</ele>
        <time>2015-04-07T11:34:15.000Z</time>
      </trkpt>
      <trkpt lat="45.60218" lon="6.6004">
        <ele>2545.3999023438</ele>
        <time>2015-04-07T11:34:27.000Z</time>
      </trkpt>
      <trkpt lat="45.60218" lon="6.6004">
        <ele>2545.1999511719</ele>
        <time>2015-04-07T11:34:45.000Z</time>
      </trkpt>
      <trkpt lat="45.60218" lon="6.6004">
        <ele>2545.8000488281</ele>
        <time>2015-04-07T11:34:57.000Z</time>
      </trkpt>
      <trkpt lat="45.60218" lon="6.6004">
        <ele>2545.6000976562</ele>
        <time>2015-04-07T11:35:14.000Z</time>
      </trkpt>
      <trkpt lat="45.60218" lon="6.6004">
        <ele>2545.1999511719</ele>
        <time>2015-04-07T11:35:30.000Z</time>
      </trkpt>
      <trkpt lat="45.60218" lon="6.6004">
        <ele>2545.1999511719</ele>
        <time>2015-04-07T11:35:43.000Z</time>
      </trkpt>
      <trkpt lat="45.60218" lon="6.6004">
        <ele>2545.3999023438</ele>
        <time>2015-04-07T11:35:54.000Z</time>
      </trkpt>
      <trkpt lat="45.60218" lon="6.6004">
        <ele>2545.1999511719</ele>
        <time>2015-04-07T11:36:12.000Z</time>
      </trkpt>
      <trkpt lat="45.60218" lon="6.60041">
        <ele>2545</ele>
        <time>2015-04-07T11:36:28.000Z</time>
      </trkpt>
      <trkpt lat="45.60218" lon="6.60041">
        <ele>2545</ele>
        <time>2015-04-07T11:36:32.000Z</time>
      </trkpt>
      <trkpt lat="45.60218" lon="6.60041">
        <ele>2545</ele>
        <time>2015-04-07T11:36:44.000Z</time>
      </trkpt>
      <trkpt lat="45.60218" lon="6.60041">
        <ele>2545.1999511719</ele>
        <time>2015-04-07T11:36:56.000Z</time>
      </trkpt>
      <trkpt lat="45.60218" lon="6.60041">
        <ele>2545.1999511719</ele>
        <time>2015-04-07T11:37:13.000Z</time>
      </trkpt>
      <trkpt lat="45.60218" lon="6.60041">
        <ele>2545.1999511719</ele>
        <time>2015-04-07T11:37:28.000Z</time>
      </trkpt>
      <trkpt lat="45.60218" lon="6.60041">
        <ele>2545.3999023438</ele>
        <time>2015-04-07T11:37:35.000Z</time>
      </trkpt>
      <trkpt lat="45.60218" lon="6.60041">
        <ele>2546.1999511719</ele>
        <time>2015-04-07T11:37:39.000Z</time>
      </trkpt>
      <trkpt lat="45.60218" lon="6.60041">
        <ele>2546.8000488281</ele>
        <time>2015-04-07T11:37:42.000Z</time>
      </trkpt>
      <trkpt lat="45.60218" lon="6.60041">
        <ele>2547.3999023438</ele>
        <time>2015-04-07T11:37:44.000Z</time>
      </trkpt>
      <trkpt lat="45.60218" lon="6.60041">
        <ele>2548.6000976562</ele>
        <time>2015-04-07T11:37:49.000Z</time>
      </trkpt>
      <trkpt lat="45.60217" lon="6.60038">
        <ele>2549.8000488281</ele>
        <time>2015-04-07T11:37:56.000Z</time>
      </trkpt>
      <trkpt lat="45.60217" lon="6.60037">
        <ele>2550.6000976562</ele>
        <time>2015-04-07T11:38:04.000Z</time>
      </trkpt>
      <trkpt lat="45.60217" lon="6.60037">
        <ele>2551</ele>
        <time>2015-04-07T11:38:06.000Z</time>
      </trkpt>
      <trkpt lat="45.60217" lon="6.60037">
        <ele>2551.1999511719</ele>
        <time>2015-04-07T11:38:12.000Z</time>
      </trkpt>
      <trkpt lat="45.60217" lon="6.60037">
        <ele>2552.1999511719</ele>
        <time>2015-04-07T11:38:15.000Z</time>
      </trkpt>
      <trkpt lat="45.60217" lon="6.60037">
        <ele>2552.8000488281</ele>
        <time>2015-04-07T11:38:20.000Z</time>
      </trkpt>
      <trkpt lat="45.60217" lon="6.60037">
        <ele>2553.1999511719</ele>
        <time>2015-04-07T11:38:23.000Z</time>
      </trkpt>
      <trkpt lat="45.60217" lon="6.60037">
        <ele>2553.8000488281</ele>
        <time>2015-04-07T11:38:27.000Z</time>
      </trkpt>
      <trkpt lat="45.60217" lon="6.60037">
        <ele>2554.6000976562</ele>
        <time>2015-04-07T11:38:33.000Z</time>
      </trkpt>
      <trkpt lat="45.60217" lon="6.60037">
        <ele>2554.6000976562</ele>
        <time>2015-04-07T11:38:34.000Z</time>
      </trkpt>
      <trkpt lat="45.60214" lon="6.60033">
        <ele>2555.3999023438</ele>
        <time>2015-04-07T11:38:40.000Z</time>
      </trkpt>
      <trkpt lat="45.60213" lon="6.60032">
        <ele>2555.6000976562</ele>
        <time>2015-04-07T11:38:41.000Z</time>
      </trkpt>
      <trkpt lat="45.60213" lon="6.60032">
        <ele>2556.3999023438</ele>
        <time>2015-04-07T11:38:45.000Z</time>
      </trkpt>
      <trkpt lat="45.60213" lon="6.60032">
        <ele>2556.8000488281</ele>
        <time>2015-04-07T11:38:47.000Z</time>
      </trkpt>
      <trkpt lat="45.60213" lon="6.60032">
        <ele>2557</ele>
        <time>2015-04-07T11:38:50.000Z</time>
      </trkpt>
      <trkpt lat="45.60213" lon="6.60032">
        <ele>2558</ele>
        <time>2015-04-07T11:38:55.000Z</time>
      </trkpt>
      <trkpt lat="45.60213" lon="6.60032">
        <ele>2558.1999511719</ele>
        <time>2015-04-07T11:38:58.000Z</time>
      </trkpt>
      <trkpt lat="45.60213" lon="6.60032">
        <ele>2559</ele>
        <time>2015-04-07T11:39:07.000Z</time>
      </trkpt>
      <trkpt lat="45.60213" lon="6.60032">
        <ele>2559</ele>
        <time>2015-04-07T11:39:08.000Z</time>
      </trkpt>
      <trkpt lat="45.60213" lon="6.60032">
        <ele>2559.8000488281</ele>
        <time>2015-04-07T11:39:18.000Z</time>
      </trkpt>
      <trkpt lat="45.60212" lon="6.60032">
        <ele>2560</ele>
        <time>2015-04-07T11:39:21.000Z</time>
      </trkpt>
      <trkpt lat="45.60212" lon="6.60032">
        <ele>2560.6000976562</ele>
        <time>2015-04-07T11:39:27.000Z</time>
      </trkpt>
      <trkpt lat="45.60212" lon="6.60032">
        <ele>2561.1999511719</ele>
        <time>2015-04-07T11:39:30.000Z</time>
      </trkpt>
      <trkpt lat="45.60212" lon="6.60032">
        <ele>2561.6000976562</ele>
        <time>2015-04-07T11:39:34.000Z</time>
      </trkpt>
      <trkpt lat="45.60212" lon="6.60032">
        <ele>2562.3999023438</ele>
        <time>2015-04-07T11:39:37.000Z</time>
      </trkpt>
      <trkpt lat="45.60212" lon="6.60032">
        <ele>2563.1999511719</ele>
        <time>2015-04-07T11:39:41.000Z</time>
      </trkpt>
      <trkpt lat="45.60212" lon="6.60032">
        <ele>2563.3999023438</ele>
        <time>2015-04-07T11:39:42.000Z</time>
      </trkpt>
      <trkpt lat="45.60212" lon="6.60032">
        <ele>2564</ele>
        <time>2015-04-07T11:39:47.000Z</time>
      </trkpt>
      <trkpt lat="45.60212" lon="6.60032">
        <ele>2564.6000976562</ele>
        <time>2015-04-07T11:39:56.000Z</time>
      </trkpt>
      <trkpt lat="45.60211" lon="6.60031">
        <ele>2565.1999511719</ele>
        <time>2015-04-07T11:40:02.000Z</time>
      </trkpt>
      <trkpt lat="45.60211" lon="6.60031">
        <ele>2565.6000976562</ele>
        <time>2015-04-07T11:40:08.000Z</time>
      </trkpt>
      <trkpt lat="45.60211" lon="6.60031">
        <ele>2565.6000976562</ele>
        <time>2015-04-07T11:40:09.000Z</time>
      </trkpt>
      <trkpt lat="45.60211" lon="6.60031">
        <ele>2566.6000976562</ele>
        <time>2015-04-07T11:40:16.000Z</time>
      </trkpt>
      <trkpt lat="45.60211" lon="6.60031">
        <ele>2566.8000488281</ele>
        <time>2015-04-07T11:40:17.000Z</time>
      </trkpt>
      <trkpt lat="45.60211" lon="6.60031">
        <ele>2568</ele>
        <time>2015-04-07T11:40:23.000Z</time>
      </trkpt>
      <trkpt lat="45.60211" lon="6.60031">
        <ele>2568.1999511719</ele>
        <time>2015-04-07T11:40:24.000Z</time>
      </trkpt>
      <trkpt lat="45.60211" lon="6.60031">
        <ele>2569</ele>
        <time>2015-04-07T11:40:29.000Z</time>
      </trkpt>
      <trkpt lat="45.60211" lon="6.60031">
        <ele>2569.1999511719</ele>
        <time>2015-04-07T11:40:31.000Z</time>
      </trkpt>
      <trkpt lat="45.60211" lon="6.60031">
        <ele>2569.8000488281</ele>
        <time>2015-04-07T11:40:36.000Z</time>
      </trkpt>
      <trkpt lat="45.60211" lon="6.6003">
        <ele>2571</ele>
        <time>2015-04-07T11:40:44.000Z</time>
      </trkpt>
      <trkpt lat="45.60211" lon="6.6003">
        <ele>2571.6000976562</ele>
        <time>2015-04-07T11:40:46.000Z</time>
      </trkpt>
      <trkpt lat="45.6021" lon="6.60029">
        <ele>2571.6000976562</ele>
        <time>2015-04-07T11:40:54.000Z</time>
      </trkpt>
      <trkpt lat="45.6021" lon="6.60029">
        <ele>2572</ele>
        <time>2015-04-07T11:40:56.000Z</time>
      </trkpt>
      <trkpt lat="45.6021" lon="6.60029">
        <ele>2572.8000488281</ele>
        <time>2015-04-07T11:40:59.000Z</time>
      </trkpt>
      <trkpt lat="45.6021" lon="6.60029">
        <ele>2573.1999511719</ele>
        <time>2015-04-07T11:41:04.000Z</time>
      </trkpt>
      <trkpt lat="45.6021" lon="6.60029">
        <ele>2573.6000976562</ele>
        <time>2015-04-07T11:41:06.000Z</time>
      </trkpt>
      <trkpt lat="45.6021" lon="6.60029">
        <ele>2574.3999023438</ele>
        <time>2015-04-07T11:41:11.000Z</time>
      </trkpt>
      <trkpt lat="45.6021" lon="6.60029">
        <ele>2574.3999023438</ele>
        <time>2015-04-07T11:41:12.000Z</time>
      </trkpt>
      <trkpt lat="45.6021" lon="6.60029">
        <ele>2575.3999023438</ele>
        <time>2015-04-07T11:41:17.000Z</time>
      </trkpt>
      <trkpt lat="45.6021" lon="6.60029">
        <ele>2575.3999023438</ele>
        <time>2015-04-07T11:41:18.000Z</time>
      </trkpt>
      <trkpt lat="45.6021" lon="6.60029">
        <ele>2576.3999023438</ele>
        <time>2015-04-07T11:41:24.000Z</time>
      </trkpt>
      <trkpt lat="45.6021" lon="6.60029">
        <ele>2576.6000976562</ele>
        <time>2015-04-07T11:41:25.000Z</time>
      </trkpt>
      <trkpt lat="45.6021" lon="6.60029">
        <ele>2576.8000488281</ele>
        <time>2015-04-07T11:41:31.000Z</time>
      </trkpt>
      <trkpt lat="45.6021" lon="6.6003">
        <ele>2577.6000976562</ele>
        <time>2015-04-07T11:41:35.000Z</time>
      </trkpt>
      <trkpt lat="45.6021" lon="6.6003">
        <ele>2577.8000488281</ele>
        <time>2015-04-07T11:41:41.000Z</time>
      </trkpt>
      <trkpt lat="45.6021" lon="6.6003">
        <ele>2578.3999023438</ele>
        <time>2015-04-07T11:41:48.000Z</time>
      </trkpt>
      <trkpt lat="45.6021" lon="6.6003">
        <ele>2578.3999023438</ele>
        <time>2015-04-07T11:41:51.000Z</time>
      </trkpt>
      <trkpt lat="45.6021" lon="6.6003">
        <ele>2578.6000976562</ele>
        <time>2015-04-07T11:41:52.000Z</time>
      </trkpt>
      <trkpt lat="45.6021" lon="6.6003">
        <ele>2579.8000488281</ele>
        <time>2015-04-07T11:41:56.000Z</time>
      </trkpt>
      <trkpt lat="45.6021" lon="6.6003">
        <ele>2580.6000976562</ele>
        <time>2015-04-07T11:42:04.000Z</time>
      </trkpt>
      <trkpt lat="45.6021" lon="6.6003">
        <ele>2581</ele>
        <time>2015-04-07T11:42:07.000Z</time>
      </trkpt>
      <trkpt lat="45.6021" lon="6.6003">
        <ele>2581.3999023438</ele>
        <time>2015-04-07T11:42:12.000Z</time>
      </trkpt>
      <trkpt lat="45.60209" lon="6.60029">
        <ele>2582</ele>
        <time>2015-04-07T11:42:15.000Z</time>
      </trkpt>
      <trkpt lat="45.60209" lon="6.60029">
        <ele>2582.8000488281</ele>
        <time>2015-04-07T11:42:19.000Z</time>
      </trkpt>
      <trkpt lat="45.60209" lon="6.60029">
        <ele>2583.1999511719</ele>
        <time>2015-04-07T11:42:20.000Z</time>
      </trkpt>
      <trkpt lat="45.60209" lon="6.60029">
        <ele>2583.3999023438</ele>
        <time>2015-04-07T11:42:24.000Z</time>
      </trkpt>
      <trkpt lat="45.60209" lon="6.60029">
        <ele>2584</ele>
        <time>2015-04-07T11:42:30.000Z</time>
      </trkpt>
      <trkpt lat="45.60209" lon="6.60029">
        <ele>2584.1999511719</ele>
        <time>2015-04-07T11:42:32.000Z</time>
      </trkpt>
      <trkpt lat="45.60209" lon="6.60029">
        <ele>2584.8000488281</ele>
        <time>2015-04-07T11:42:37.000Z</time>
      </trkpt>
      <trkpt lat="45.60209" lon="6.60029">
        <ele>2585.3999023438</ele>
        <time>2015-04-07T11:42:39.000Z</time>
      </trkpt>
      <trkpt lat="45.60209" lon="6.60029">
        <ele>2586.3999023438</ele>
        <time>2015-04-07T11:42:44.000Z</time>
      </trkpt>
      <trkpt lat="45.60209" lon="6.60028">
        <ele>2587</ele>
        <time>2015-04-07T11:42:53.000Z</time>
      </trkpt>
      <trkpt lat="45.60209" lon="6.60028">
        <ele>2587.6000976562</ele>
        <time>2015-04-07T11:42:58.000Z</time>
      </trkpt>
      <trkpt lat="45.60209" lon="6.60028">
        <ele>2587.8000488281</ele>
        <time>2015-04-07T11:42:59.000Z</time>
      </trkpt>
      <trkpt lat="45.60209" lon="6.60028">
        <ele>2588.6000976562</ele>
        <time>2015-04-07T11:43:07.000Z</time>
      </trkpt>
      <trkpt lat="45.60209" lon="6.60028">
        <ele>2589</ele>
        <time>2015-04-07T11:43:09.000Z</time>
      </trkpt>
      <trkpt lat="45.60209" lon="6.60028">
        <ele>2589.8000488281</ele>
        <time>2015-04-07T11:43:17.000Z</time>
      </trkpt>
      <trkpt lat="45.60209" lon="6.60028">
        <ele>2590.3999023438</ele>
        <time>2015-04-07T11:43:20.000Z</time>
      </trkpt>
      <trkpt lat="45.60209" lon="6.60028">
        <ele>2591</ele>
        <time>2015-04-07T11:43:25.000Z</time>
      </trkpt>
      <trkpt lat="45.60209" lon="6.60028">
        <ele>2591.1999511719</ele>
        <time>2015-04-07T11:43:30.000Z</time>
      </trkpt>
      <trkpt lat="45.60209" lon="6.60026">
        <ele>2592.3999023438</ele>
        <time>2015-04-07T11:43:34.000Z</time>
      </trkpt>
      <trkpt lat="45.60209" lon="6.60026">
        <ele>2593.3999023438</ele>
        <time>2015-04-07T11:43:38.000Z</time>
      </trkpt>
      <trkpt lat="45.60209" lon="6.60026">
        <ele>2593.6000976562</ele>
        <time>2015-04-07T11:43:42.000Z</time>
      </trkpt>
      <trkpt lat="45.60209" lon="6.60026">
        <ele>2594.6000976562</ele>
        <time>2015-04-07T11:43:47.000Z</time>
      </trkpt>
      <trkpt lat="45.60209" lon="6.60026">
        <ele>2595.6000976562</ele>
        <time>2015-04-07T11:43:51.000Z</time>
      </trkpt>
      <trkpt lat="45.60209" lon="6.60026">
        <ele>2596.3999023438</ele>
        <time>2015-04-07T11:44:06.000Z</time>
      </trkpt>
      <trkpt lat="45.60209" lon="6.60026">
        <ele>2596.8000488281</ele>
        <time>2015-04-07T11:44:10.000Z</time>
      </trkpt>
      <trkpt lat="45.60208" lon="6.60025">
        <ele>2598</ele>
        <time>2015-04-07T11:44:14.000Z</time>
      </trkpt>
      <trkpt lat="45.60208" lon="6.60025">
        <ele>2598.1999511719</ele>
        <time>2015-04-07T11:44:15.000Z</time>
      </trkpt>
      <trkpt lat="45.60208" lon="6.60025">
        <ele>2598.1999511719</ele>
        <time>2015-04-07T11:44:22.000Z</time>
      </trkpt>
      <trkpt lat="45.60208" lon="6.60025">
        <ele>2599</ele>
        <time>2015-04-07T11:44:30.000Z</time>
      </trkpt>
      <trkpt lat="45.60208" lon="6.60025">
        <ele>2599</ele>
        <time>2015-04-07T11:44:37.000Z</time>
      </trkpt>
      <trkpt lat="45.60207" lon="6.60024">
        <ele>2599.1999511719</ele>
        <time>2015-04-07T11:44:55.000Z</time>
      </trkpt>
      <trkpt lat="45.60207" lon="6.60024">
        <ele>2600</ele>
        <time>2015-04-07T11:45:03.000Z</time>
      </trkpt>
      <trkpt lat="45.60206" lon="6.60022">
        <ele>2600</ele>
        <time>2015-04-07T11:45:04.000Z</time>
      </trkpt>
      <trkpt lat="45.60204" lon="6.6002">
        <ele>2600.8000488281</ele>
        <time>2015-04-07T11:45:09.000Z</time>
      </trkpt>
      <trkpt lat="45.60204" lon="6.6002">
        <ele>2601.1999511719</ele>
        <time>2015-04-07T11:45:12.000Z</time>
      </trkpt>
      <trkpt lat="45.60203" lon="6.60019">
        <ele>2602</ele>
        <time>2015-04-07T11:45:15.000Z</time>
      </trkpt>
      <trkpt lat="45.60203" lon="6.60019">
        <ele>2602.1999511719</ele>
        <time>2015-04-07T11:45:16.000Z</time>
      </trkpt>
      <trkpt lat="45.60203" lon="6.60019">
        <ele>2602.8000488281</ele>
        <time>2015-04-07T11:45:20.000Z</time>
      </trkpt>
      <trkpt lat="45.60201" lon="6.60017">
        <ele>2603.1999511719</ele>
        <time>2015-04-07T11:45:24.000Z</time>
      </trkpt>
      <trkpt lat="45.60201" lon="6.60017">
        <ele>2603.3999023438</ele>
        <time>2015-04-07T11:45:25.000Z</time>
      </trkpt>
      <trkpt lat="45.60201" lon="6.60017">
        <ele>2604.3999023438</ele>
        <time>2015-04-07T11:45:30.000Z</time>
      </trkpt>
      <trkpt lat="45.60201" lon="6.60017">
        <ele>2604.3999023438</ele>
        <time>2015-04-07T11:45:31.000Z</time>
      </trkpt>
      <trkpt lat="45.60201" lon="6.60017">
        <ele>2605.6000976562</ele>
        <time>2015-04-07T11:45:35.000Z</time>
      </trkpt>
      <trkpt lat="45.60201" lon="6.60017">
        <ele>2605.8000488281</ele>
        <time>2015-04-07T11:45:37.000Z</time>
      </trkpt>
      <trkpt lat="45.60201" lon="6.60017">
        <ele>2606.6000976562</ele>
        <time>2015-04-07T11:45:44.000Z</time>
      </trkpt>
      <trkpt lat="45.60201" lon="6.60017">
        <ele>2606.6000976562</ele>
        <time>2015-04-07T11:45:50.000Z</time>
      </trkpt>
      <trkpt lat="45.602" lon="6.60013">
        <ele>2607.6000976562</ele>
        <time>2015-04-07T11:45:56.000Z</time>
      </trkpt>
      <trkpt lat="45.602" lon="6.60013">
        <ele>2607.6000976562</ele>
        <time>2015-04-07T11:45:57.000Z</time>
      </trkpt>
      <trkpt lat="45.60197" lon="6.60006">
        <ele>2608.3999023438</ele>
        <time>2015-04-07T11:46:04.000Z</time>
      </trkpt>
      <trkpt lat="45.60196" lon="6.60005">
        <ele>2608.6000976562</ele>
        <time>2015-04-07T11:46:06.000Z</time>
      </trkpt>
      <trkpt lat="45.60196" lon="6.60005">
        <ele>2609.6000976562</ele>
        <time>2015-04-07T11:46:12.000Z</time>
      </trkpt>
      <trkpt lat="45.60196" lon="6.60005">
        <ele>2609.8000488281</ele>
        <time>2015-04-07T11:46:14.000Z</time>
      </trkpt>
      <trkpt lat="45.60196" lon="6.60005">
        <ele>2611</ele>
        <time>2015-04-07T11:46:20.000Z</time>
      </trkpt>
      <trkpt lat="45.60196" lon="6.60005">
        <ele>2610.8000488281</ele>
        <time>2015-04-07T11:46:23.000Z</time>
      </trkpt>
      <trkpt lat="45.60196" lon="6.60005">
        <ele>2612</ele>
        <time>2015-04-07T11:46:30.000Z</time>
      </trkpt>
      <trkpt lat="45.60196" lon="6.60005">
        <ele>2612.3999023438</ele>
        <time>2015-04-07T11:46:32.000Z</time>
      </trkpt>
      <trkpt lat="45.60196" lon="6.60005">
        <ele>2612.8000488281</ele>
        <time>2015-04-07T11:46:44.000Z</time>
      </trkpt>
      <trkpt lat="45.60195" lon="6.60003">
        <ele>2613.1999511719</ele>
        <time>2015-04-07T11:46:49.000Z</time>
      </trkpt>
      <trkpt lat="45.60195" lon="6.60003">
        <ele>2614.3999023438</ele>
        <time>2015-04-07T11:46:53.000Z</time>
      </trkpt>
      <trkpt lat="45.60195" lon="6.60003">
        <ele>2615</ele>
        <time>2015-04-07T11:46:55.000Z</time>
      </trkpt>
      <trkpt lat="45.60195" lon="6.60003">
        <ele>2615.3999023438</ele>
        <time>2015-04-07T11:47:01.000Z</time>
      </trkpt>
      <trkpt lat="45.60195" lon="6.60003">
        <ele>2616.3999023438</ele>
        <time>2015-04-07T11:47:06.000Z</time>
      </trkpt>
      <trkpt lat="45.60195" lon="6.60003">
        <ele>2617.3999023438</ele>
        <time>2015-04-07T11:47:14.000Z</time>
      </trkpt>
      <trkpt lat="45.60195" lon="6.60003">
        <ele>2617.8000488281</ele>
        <time>2015-04-07T11:47:15.000Z</time>
      </trkpt>
      <trkpt lat="45.6019" lon="6.59998">
        <ele>2618.8000488281</ele>
        <time>2015-04-07T11:47:19.000Z</time>
      </trkpt>
      <trkpt lat="45.60189" lon="6.59996">
        <ele>2619</ele>
        <time>2015-04-07T11:47:20.000Z</time>
      </trkpt>
      <trkpt lat="45.60187" lon="6.59992">
        <ele>2619.8000488281</ele>
        <time>2015-04-07T11:47:28.000Z</time>
      </trkpt>
      <trkpt lat="45.60187" lon="6.59992">
        <ele>2619.8000488281</ele>
        <time>2015-04-07T11:47:31.000Z</time>
      </trkpt>
      <trkpt lat="45.60187" lon="6.59992">
        <ele>2620</ele>
        <time>2015-04-07T11:47:45.000Z</time>
      </trkpt>
      <trkpt lat="45.60186" lon="6.59988">
        <ele>2621</ele>
        <time>2015-04-07T11:47:51.000Z</time>
      </trkpt>
      <trkpt lat="45.60184" lon="6.59985">
        <ele>2622</ele>
        <time>2015-04-07T11:47:55.000Z</time>
      </trkpt>
      <trkpt lat="45.60184" lon="6.59985">
        <ele>2622.3999023438</ele>
        <time>2015-04-07T11:47:56.000Z</time>
      </trkpt>
      <trkpt lat="45.60184" lon="6.59985">
        <ele>2623.1999511719</ele>
        <time>2015-04-07T11:48:06.000Z</time>
      </trkpt>
      <trkpt lat="45.60184" lon="6.59985">
        <ele>2623.6000976562</ele>
        <time>2015-04-07T11:48:12.000Z</time>
      </trkpt>
      <trkpt lat="45.60184" lon="6.59985">
        <ele>2624.3999023438</ele>
        <time>2015-04-07T11:48:15.000Z</time>
      </trkpt>
      <trkpt lat="45.60184" lon="6.59985">
        <ele>2624.8000488281</ele>
        <time>2015-04-07T11:48:16.000Z</time>
      </trkpt>
      <trkpt lat="45.60184" lon="6.59985">
        <ele>2625.8000488281</ele>
        <time>2015-04-07T11:48:23.000Z</time>
      </trkpt>
      <trkpt lat="45.6017" lon="6.59977">
        <ele>2627</ele>
        <time>2015-04-07T11:48:29.000Z</time>
      </trkpt>
      <trkpt lat="45.60168" lon="6.59975">
        <ele>2628</ele>
        <time>2015-04-07T11:48:32.000Z</time>
      </trkpt>
      <trkpt lat="45.60168" lon="6.59975">
        <ele>2628.3999023438</ele>
        <time>2015-04-07T11:48:34.000Z</time>
      </trkpt>
      <trkpt lat="45.60168" lon="6.59975">
        <ele>2628</ele>
        <time>2015-04-07T11:48:49.000Z</time>
      </trkpt>
      <trkpt lat="45.60168" lon="6.59975">
        <ele>2628.6000976562</ele>
        <time>2015-04-07T11:48:56.000Z</time>
      </trkpt>
      <trkpt lat="45.60168" lon="6.59975">
        <ele>2629.1999511719</ele>
        <time>2015-04-07T11:49:04.000Z</time>
      </trkpt>
      <trkpt lat="45.60168" lon="6.59975">
        <ele>2629</ele>
        <time>2015-04-07T11:49:05.000Z</time>
      </trkpt>
      <trkpt lat="45.60166" lon="6.5997">
        <ele>2629.3999023438</ele>
        <time>2015-04-07T11:49:12.000Z</time>
      </trkpt>
      <trkpt lat="45.60158" lon="6.59955">
        <ele>2630</ele>
        <time>2015-04-07T11:49:18.000Z</time>
      </trkpt>
      <trkpt lat="45.60155" lon="6.59947">
        <ele>2630.1999511719</ele>
        <time>2015-04-07T11:49:21.000Z</time>
      </trkpt>
      <trkpt lat="45.60153" lon="6.59944">
        <ele>2630.6000976562</ele>
        <time>2015-04-07T11:49:24.000Z</time>
      </trkpt>
      <trkpt lat="45.60148" lon="6.59936">
        <ele>2631</ele>
        <time>2015-04-07T11:49:30.000Z</time>
      </trkpt>
      <trkpt lat="45.60148" lon="6.59936">
        <ele>2631</ele>
        <time>2015-04-07T11:49:43.000Z</time>
      </trkpt>
      <trkpt lat="45.60148" lon="6.59936">
        <ele>2630.3999023438</ele>
        <time>2015-04-07T11:49:57.000Z</time>
      </trkpt>
      <trkpt lat="45.60148" lon="6.59936">
        <ele>2631.1999511719</ele>
        <time>2015-04-07T11:50:00.000Z</time>
      </trkpt>
      <trkpt lat="45.60146" lon="6.59934">
        <ele>2631.1999511719</ele>
        <time>2015-04-07T11:50:05.000Z</time>
      </trkpt>
      <trkpt lat="45.60146" lon="6.59934">
        <ele>2630.8000488281</ele>
        <time>2015-04-07T11:50:20.000Z</time>
      </trkpt>
      <trkpt lat="45.60143" lon="6.59929">
        <ele>2630.6000976562</ele>
        <time>2015-04-07T11:50:27.000Z</time>
      </trkpt>
      <trkpt lat="45.60143" lon="6.59929">
        <ele>2630.8000488281</ele>
        <time>2015-04-07T11:50:37.000Z</time>
      </trkpt>
      <trkpt lat="45.60141" lon="6.59924">
        <ele>2631.1999511719</ele>
        <time>2015-04-07T11:50:47.000Z</time>
      </trkpt>
      <trkpt lat="45.60141" lon="6.59924">
        <ele>2630.6000976562</ele>
        <time>2015-04-07T11:50:57.000Z</time>
      </trkpt>
      <trkpt lat="45.60141" lon="6.59924">
        <ele>2630.8000488281</ele>
        <time>2015-04-07T11:51:09.000Z</time>
      </trkpt>
      <trkpt lat="45.6014" lon="6.59922">
        <ele>2630.6000976562</ele>
        <time>2015-04-07T11:51:20.000Z</time>
      </trkpt>
      <trkpt lat="45.6014" lon="6.59922">
        <ele>2630.8000488281</ele>
        <time>2015-04-07T11:51:40.000Z</time>
      </trkpt>
      <trkpt lat="45.6014" lon="6.59922">
        <ele>2630.6000976562</ele>
        <time>2015-04-07T11:51:59.000Z</time>
      </trkpt>
      <trkpt lat="45.6014" lon="6.59922">
        <ele>2630.8000488281</ele>
        <time>2015-04-07T11:52:06.000Z</time>
      </trkpt>
      <trkpt lat="45.6014" lon="6.59922">
        <ele>2630.8000488281</ele>
        <time>2015-04-07T11:52:16.000Z</time>
      </trkpt>
      <trkpt lat="45.6014" lon="6.59922">
        <ele>2630.1999511719</ele>
        <time>2015-04-07T11:52:22.000Z</time>
      </trkpt>
      <trkpt lat="45.6014" lon="6.59922">
        <ele>2630.1999511719</ele>
        <time>2015-04-07T11:52:29.000Z</time>
      </trkpt>
      <trkpt lat="45.60139" lon="6.59921">
        <ele>2631</ele>
        <time>2015-04-07T11:52:46.000Z</time>
      </trkpt>
      <trkpt lat="45.60139" lon="6.59921">
        <ele>2631.1999511719</ele>
        <time>2015-04-07T11:52:49.000Z</time>
      </trkpt>
      <trkpt lat="45.60139" lon="6.59921">
        <ele>2630.3999023438</ele>
        <time>2015-04-07T11:53:00.000Z</time>
      </trkpt>
      <trkpt lat="45.60139" lon="6.59921">
        <ele>2630.6000976562</ele>
        <time>2015-04-07T11:53:02.000Z</time>
      </trkpt>
      <trkpt lat="45.60139" lon="6.5992">
        <ele>2630.3999023438</ele>
        <time>2015-04-07T11:53:14.000Z</time>
      </trkpt>
      <trkpt lat="45.60139" lon="6.5992">
        <ele>2630</ele>
        <time>2015-04-07T11:53:17.000Z</time>
      </trkpt>
      <trkpt lat="45.60139" lon="6.5992">
        <ele>2630</ele>
        <time>2015-04-07T11:53:29.000Z</time>
      </trkpt>
      <trkpt lat="45.60139" lon="6.5992">
        <ele>2630.1999511719</ele>
        <time>2015-04-07T11:53:42.000Z</time>
      </trkpt>
      <trkpt lat="45.60139" lon="6.5992">
        <ele>2630.1999511719</ele>
        <time>2015-04-07T11:53:54.000Z</time>
      </trkpt>
      <trkpt lat="45.6014" lon="6.59918">
        <ele>2630.1999511719</ele>
        <time>2015-04-07T11:54:24.000Z</time>
      </trkpt>
      <trkpt lat="45.6014" lon="6.59918">
        <ele>2629.8000488281</ele>
        <time>2015-04-07T11:54:43.000Z</time>
      </trkpt>
      <trkpt lat="45.6014" lon="6.59918">
        <ele>2629.8000488281</ele>
        <time>2015-04-07T11:55:00.000Z</time>
      </trkpt>
      <trkpt lat="45.6014" lon="6.59918">
        <ele>2629.6000976562</ele>
        <time>2015-04-07T11:55:16.000Z</time>
      </trkpt>
      <trkpt lat="45.6014" lon="6.59918">
        <ele>2629</ele>
        <time>2015-04-07T11:55:24.000Z</time>
      </trkpt>
      <trkpt lat="45.6014" lon="6.59918">
        <ele>2629</ele>
        <time>2015-04-07T11:55:31.000Z</time>
      </trkpt>
      <trkpt lat="45.6014" lon="6.59918">
        <ele>2630</ele>
        <time>2015-04-07T11:55:34.000Z</time>
      </trkpt>
      <trkpt lat="45.6014" lon="6.59918">
        <ele>2629.1999511719</ele>
        <time>2015-04-07T11:55:47.000Z</time>
      </trkpt>
      <trkpt lat="45.6014" lon="6.59918">
        <ele>2629.8000488281</ele>
        <time>2015-04-07T11:56:01.000Z</time>
      </trkpt>
      <trkpt lat="45.6014" lon="6.59918">
        <ele>2629.6000976562</ele>
        <time>2015-04-07T11:56:04.000Z</time>
      </trkpt>
      <trkpt lat="45.60139" lon="6.59918">
        <ele>2629.6000976562</ele>
        <time>2015-04-07T11:56:18.000Z</time>
      </trkpt>
      <trkpt lat="45.60139" lon="6.59918">
        <ele>2629.3999023438</ele>
        <time>2015-04-07T11:56:38.000Z</time>
      </trkpt>
      <trkpt lat="45.60139" lon="6.59917">
        <ele>2629.8000488281</ele>
        <time>2015-04-07T11:56:56.000Z</time>
      </trkpt>
      <trkpt lat="45.60139" lon="6.59917">
        <ele>2630</ele>
        <time>2015-04-07T11:57:16.000Z</time>
      </trkpt>
      <trkpt lat="45.60139" lon="6.59916">
        <ele>2629.8000488281</ele>
        <time>2015-04-07T11:57:31.000Z</time>
      </trkpt>
      <trkpt lat="45.60139" lon="6.59916">
        <ele>2630.3999023438</ele>
        <time>2015-04-07T11:57:48.000Z</time>
      </trkpt>
      <trkpt lat="45.60139" lon="6.59916">
        <ele>2630</ele>
        <time>2015-04-07T11:58:04.000Z</time>
      </trkpt>
      <trkpt lat="45.60138" lon="6.59916">
        <ele>2630</ele>
        <time>2015-04-07T11:58:19.000Z</time>
      </trkpt>
      <trkpt lat="45.60138" lon="6.59916">
        <ele>2629.8000488281</ele>
        <time>2015-04-07T11:58:40.000Z</time>
      </trkpt>
      <trkpt lat="45.60138" lon="6.59915">
        <ele>2629.8000488281</ele>
        <time>2015-04-07T11:58:50.000Z</time>
      </trkpt>
      <trkpt lat="45.60138" lon="6.59915">
        <ele>2629.6000976562</ele>
        <time>2015-04-07T11:58:55.000Z</time>
      </trkpt>
      <trkpt lat="45.60138" lon="6.59915">
        <ele>2629.1999511719</ele>
        <time>2015-04-07T11:59:07.000Z</time>
      </trkpt>
      <trkpt lat="45.60138" lon="6.59915">
        <ele>2629.3999023438</ele>
        <time>2015-04-07T11:59:22.000Z</time>
      </trkpt>
      <trkpt lat="45.60138" lon="6.59915">
        <ele>2629</ele>
        <time>2015-04-07T11:59:26.000Z</time>
      </trkpt>
      <trkpt lat="45.60138" lon="6.59915">
        <ele>2629</ele>
        <time>2015-04-07T11:59:39.000Z</time>
      </trkpt>
      <trkpt lat="45.60138" lon="6.59915">
        <ele>2628.8000488281</ele>
        <time>2015-04-07T11:59:55.000Z</time>
      </trkpt>
      <trkpt lat="45.60137" lon="6.59915">
        <ele>2628.6000976562</ele>
        <time>2015-04-07T12:00:11.000Z</time>
      </trkpt>
      <trkpt lat="45.60137" lon="6.59915">
        <ele>2628.8000488281</ele>
        <time>2015-04-07T12:00:23.000Z</time>
      </trkpt>
      <trkpt lat="45.60137" lon="6.59915">
        <ele>2628.6000976562</ele>
        <time>2015-04-07T12:00:39.000Z</time>
      </trkpt>
      <trkpt lat="45.60137" lon="6.59915">
        <ele>2628.6000976562</ele>
        <time>2015-04-07T12:00:55.000Z</time>
      </trkpt>
      <trkpt lat="45.60137" lon="6.59915">
        <ele>2628.8000488281</ele>
        <time>2015-04-07T12:01:10.000Z</time>
      </trkpt>
      <trkpt lat="45.60137" lon="6.59915">
        <ele>2628</ele>
        <time>2015-04-07T12:01:27.000Z</time>
      </trkpt>
      <trkpt lat="45.60137" lon="6.59915">
        <ele>2628</ele>
        <time>2015-04-07T12:01:28.000Z</time>
      </trkpt>
      <trkpt lat="45.60137" lon="6.59915">
        <ele>2628.3999023438</ele>
        <time>2015-04-07T12:01:41.000Z</time>
      </trkpt>
      <trkpt lat="45.60137" lon="6.59915">
        <ele>2628.3999023438</ele>
        <time>2015-04-07T12:02:04.000Z</time>
      </trkpt>
      <trkpt lat="45.60137" lon="6.59915">
        <ele>2628.6000976562</ele>
        <time>2015-04-07T12:02:26.000Z</time>
      </trkpt>
      <trkpt lat="45.60137" lon="6.59915">
        <ele>2628.8000488281</ele>
        <time>2015-04-07T12:02:43.000Z</time>
      </trkpt>
      <trkpt lat="45.60137" lon="6.59915">
        <ele>2628.8000488281</ele>
        <time>2015-04-07T12:03:02.000Z</time>
      </trkpt>
      <trkpt lat="45.60137" lon="6.59915">
        <ele>2627</ele>
        <time>2015-04-07T12:03:11.000Z</time>
      </trkpt>
      <trkpt lat="45.60137" lon="6.59915">
        <ele>2628.6000976562</ele>
        <time>2015-04-07T12:03:15.000Z</time>
      </trkpt>
      <trkpt lat="45.60137" lon="6.59915">
        <ele>2629.8000488281</ele>
        <time>2015-04-07T12:03:18.000Z</time>
      </trkpt>
      <trkpt lat="45.60137" lon="6.59915">
        <ele>2629.3999023438</ele>
        <time>2015-04-07T12:03:20.000Z</time>
      </trkpt>
      <trkpt lat="45.60137" lon="6.59915">
        <ele>2628.6000976562</ele>
        <time>2015-04-07T12:03:38.000Z</time>
      </trkpt>
      <trkpt lat="45.60137" lon="6.59915">
        <ele>2628.6000976562</ele>
        <time>2015-04-07T12:03:40.000Z</time>
      </trkpt>
      <trkpt lat="45.60137" lon="6.59915">
        <ele>2628.3999023438</ele>
        <time>2015-04-07T12:03:58.000Z</time>
      </trkpt>
      <trkpt lat="45.60137" lon="6.59915">
        <ele>2629</ele>
        <time>2015-04-07T12:04:09.000Z</time>
      </trkpt>
      <trkpt lat="45.60137" lon="6.59914">
        <ele>2628.3999023438</ele>
        <time>2015-04-07T12:04:30.000Z</time>
      </trkpt>
      <trkpt lat="45.60135" lon="6.59913">
        <ele>2628</ele>
        <time>2015-04-07T12:04:51.000Z</time>
      </trkpt>
      <trkpt lat="45.60135" lon="6.59913">
        <ele>2627.8000488281</ele>
        <time>2015-04-07T12:05:05.000Z</time>
      </trkpt>
      <trkpt lat="45.60135" lon="6.59913">
        <ele>2627.6000976562</ele>
        <time>2015-04-07T12:05:12.000Z</time>
      </trkpt>
      <trkpt lat="45.60135" lon="6.59913">
        <ele>2627.6000976562</ele>
        <time>2015-04-07T12:05:18.000Z</time>
      </trkpt>
      <trkpt lat="45.60135" lon="6.59913">
        <ele>2627.3999023438</ele>
        <time>2015-04-07T12:05:38.000Z</time>
      </trkpt>
      <trkpt lat="45.60135" lon="6.59913">
        <ele>2627.1999511719</ele>
        <time>2015-04-07T12:05:56.000Z</time>
      </trkpt>
      <trkpt lat="45.60135" lon="6.59912">
        <ele>2627.3999023438</ele>
        <time>2015-04-07T12:06:19.000Z</time>
      </trkpt>
      <trkpt lat="45.60135" lon="6.59912">
        <ele>2627.3999023438</ele>
        <time>2015-04-07T12:06:40.000Z</time>
      </trkpt>
      <trkpt lat="45.60135" lon="6.5991">
        <ele>2627.8000488281</ele>
        <time>2015-04-07T12:06:59.000Z</time>
      </trkpt>
      <trkpt lat="45.60135" lon="6.5991">
        <ele>2628.1999511719</ele>
        <time>2015-04-07T12:07:28.000Z</time>
      </trkpt>
      <trkpt lat="45.60135" lon="6.5991">
        <ele>2628.3999023438</ele>
        <time>2015-04-07T12:07:44.000Z</time>
      </trkpt>
      <trkpt lat="45.60135" lon="6.5991">
        <ele>2628.6000976562</ele>
        <time>2015-04-07T12:07:59.000Z</time>
      </trkpt>
      <trkpt lat="45.60135" lon="6.5991">
        <ele>2628.6000976562</ele>
        <time>2015-04-07T12:08:02.000Z</time>
      </trkpt>
      <trkpt lat="45.60134" lon="6.5991">
        <ele>2628.8000488281</ele>
        <time>2015-04-07T12:08:20.000Z</time>
      </trkpt>
      <trkpt lat="45.60134" lon="6.5991">
        <ele>2628.8000488281</ele>
        <time>2015-04-07T12:08:37.000Z</time>
      </trkpt>
      <trkpt lat="45.60134" lon="6.59909">
        <ele>2628.8000488281</ele>
        <time>2015-04-07T12:08:44.000Z</time>
      </trkpt>
      <trkpt lat="45.60134" lon="6.59909">
        <ele>2628.8000488281</ele>
        <time>2015-04-07T12:08:59.000Z</time>
      </trkpt>
      <trkpt lat="45.60134" lon="6.59909">
        <ele>2628.8000488281</ele>
        <time>2015-04-07T12:09:15.000Z</time>
      </trkpt>
      <trkpt lat="45.60134" lon="6.59909">
        <ele>2628.3999023438</ele>
        <time>2015-04-07T12:09:29.000Z</time>
      </trkpt>
      <trkpt lat="45.60134" lon="6.59909">
        <ele>2628</ele>
        <time>2015-04-07T12:09:46.000Z</time>
      </trkpt>
      <trkpt lat="45.60134" lon="6.59909">
        <ele>2627.6000976562</ele>
        <time>2015-04-07T12:09:54.000Z</time>
      </trkpt>
      <trkpt lat="45.60134" lon="6.59909">
        <ele>2628.3999023438</ele>
        <time>2015-04-07T12:10:02.000Z</time>
      </trkpt>
      <trkpt lat="45.60134" lon="6.59909">
        <ele>2627.6000976562</ele>
        <time>2015-04-07T12:10:19.000Z</time>
      </trkpt>
      <trkpt lat="45.60134" lon="6.59909">
        <ele>2627.6000976562</ele>
        <time>2015-04-07T12:10:36.000Z</time>
      </trkpt>
      <trkpt lat="45.60134" lon="6.59908">
        <ele>2627.8000488281</ele>
        <time>2015-04-07T12:10:55.000Z</time>
      </trkpt>
      <trkpt lat="45.60134" lon="6.59908">
        <ele>2627.8000488281</ele>
        <time>2015-04-07T12:11:10.000Z</time>
      </trkpt>
      <trkpt lat="45.60133" lon="6.59907">
        <ele>2627.8000488281</ele>
        <time>2015-04-07T12:11:26.000Z</time>
      </trkpt>
      <trkpt lat="45.60133" lon="6.59907">
        <ele>2627.8000488281</ele>
        <time>2015-04-07T12:11:46.000Z</time>
      </trkpt>
      <trkpt lat="45.60132" lon="6.59912">
        <ele>2628.1999511719</ele>
        <time>2015-04-07T12:11:52.000Z</time>
      </trkpt>
      <trkpt lat="45.60132" lon="6.59914">
        <ele>2628.1999511719</ele>
        <time>2015-04-07T12:11:53.000Z</time>
      </trkpt>
      <trkpt lat="45.60133" lon="6.59928">
        <ele>2626.3999023438</ele>
        <time>2015-04-07T12:11:59.000Z</time>
      </trkpt>
      <trkpt lat="45.60133" lon="6.59929">
        <ele>2626.1999511719</ele>
        <time>2015-04-07T12:12:00.000Z</time>
      </trkpt>
      <trkpt lat="45.60133" lon="6.5993">
        <ele>2625.8000488281</ele>
        <time>2015-04-07T12:12:07.000Z</time>
      </trkpt>
      <trkpt lat="45.60133" lon="6.5993">
        <ele>2625.6000976562</ele>
        <time>2015-04-07T12:12:23.000Z</time>
      </trkpt>
      <trkpt lat="45.60133" lon="6.5993">
        <ele>2625.8000488281</ele>
        <time>2015-04-07T12:12:44.000Z</time>
      </trkpt>
      <trkpt lat="45.60133" lon="6.5993">
        <ele>2625.6000976562</ele>
        <time>2015-04-07T12:13:04.000Z</time>
      </trkpt>
      <trkpt lat="45.60133" lon="6.5993">
        <ele>2625.3999023438</ele>
        <time>2015-04-07T12:13:26.000Z</time>
      </trkpt>
      <trkpt lat="45.60133" lon="6.5993">
        <ele>2625.3999023438</ele>
        <time>2015-04-07T12:13:42.000Z</time>
      </trkpt>
      <trkpt lat="45.60133" lon="6.5993">
        <ele>2625.3999023438</ele>
        <time>2015-04-07T12:13:50.000Z</time>
      </trkpt>
      <trkpt lat="45.60133" lon="6.5993">
        <ele>2625.1999511719</ele>
        <time>2015-04-07T12:14:09.000Z</time>
      </trkpt>
      <trkpt lat="45.60133" lon="6.5993">
        <ele>2625</ele>
        <time>2015-04-07T12:14:18.000Z</time>
      </trkpt>
      <trkpt lat="45.60133" lon="6.5993">
        <ele>2625</ele>
        <time>2015-04-07T12:14:34.000Z</time>
      </trkpt>
      <trkpt lat="45.60133" lon="6.59931">
        <ele>2624.3999023438</ele>
        <time>2015-04-07T12:14:44.000Z</time>
      </trkpt>
      <trkpt lat="45.60133" lon="6.59931">
        <ele>2624.3999023438</ele>
        <time>2015-04-07T12:14:46.000Z</time>
      </trkpt>
      <trkpt lat="45.60133" lon="6.59931">
        <ele>2624</ele>
        <time>2015-04-07T12:15:04.000Z</time>
      </trkpt>
      <trkpt lat="45.60133" lon="6.59931">
        <ele>2624</ele>
        <time>2015-04-07T12:15:14.000Z</time>
      </trkpt>
      <trkpt lat="45.60133" lon="6.59931">
        <ele>2623.8000488281</ele>
        <time>2015-04-07T12:15:29.000Z</time>
      </trkpt>
      <trkpt lat="45.60133" lon="6.59931">
        <ele>2623.8000488281</ele>
        <time>2015-04-07T12:15:46.000Z</time>
      </trkpt>
      <trkpt lat="45.60132" lon="6.59931">
        <ele>2624</ele>
        <time>2015-04-07T12:16:09.000Z</time>
      </trkpt>
      <trkpt lat="45.60132" lon="6.59931">
        <ele>2624</ele>
        <time>2015-04-07T12:16:29.000Z</time>
      </trkpt>
      <trkpt lat="45.60132" lon="6.59931">
        <ele>2623.8000488281</ele>
        <time>2015-04-07T12:16:50.000Z</time>
      </trkpt>
      <trkpt lat="45.60132" lon="6.59931">
        <ele>2624</ele>
        <time>2015-04-07T12:17:02.000Z</time>
      </trkpt>
      <trkpt lat="45.60132" lon="6.59932">
        <ele>2623.8000488281</ele>
        <time>2015-04-07T12:17:14.000Z</time>
      </trkpt>
      <trkpt lat="45.6013" lon="6.59934">
        <ele>2623.1999511719</ele>
        <time>2015-04-07T12:17:22.000Z</time>
      </trkpt>
      <trkpt lat="45.6013" lon="6.59934">
        <ele>2622.1999511719</ele>
        <time>2015-04-07T12:17:29.000Z</time>
      </trkpt>
      <trkpt lat="45.6013" lon="6.59934">
        <ele>2621.3999023438</ele>
        <time>2015-04-07T12:17:40.000Z</time>
      </trkpt>
      <trkpt lat="45.60129" lon="6.59939">
        <ele>2621.1999511719</ele>
        <time>2015-04-07T12:17:46.000Z</time>
      </trkpt>
      <trkpt lat="45.6013" lon="6.5994">
        <ele>2621.1999511719</ele>
        <time>2015-04-07T12:17:47.000Z</time>
      </trkpt>
      <trkpt lat="45.60129" lon="6.5994">
        <ele>2620.8000488281</ele>
        <time>2015-04-07T12:17:50.000Z</time>
      </trkpt>
      <trkpt lat="45.60129" lon="6.5994">
        <ele>2619.8000488281</ele>
        <time>2015-04-07T12:17:52.000Z</time>
      </trkpt>
      <trkpt lat="45.60129" lon="6.5994">
        <ele>2619.1999511719</ele>
        <time>2015-04-07T12:17:54.000Z</time>
      </trkpt>
      <trkpt lat="45.60129" lon="6.5994">
        <ele>2618.6000976562</ele>
        <time>2015-04-07T12:17:57.000Z</time>
      </trkpt>
      <trkpt lat="45.60126" lon="6.59942">
        <ele>2617.1999511719</ele>
        <time>2015-04-07T12:18:02.000Z</time>
      </trkpt>
      <trkpt lat="45.60126" lon="6.59942">
        <ele>2616.1999511719</ele>
        <time>2015-04-07T12:18:11.000Z</time>
      </trkpt>
      <trkpt lat="45.60128" lon="6.59947">
        <ele>2615.8000488281</ele>
        <time>2015-04-07T12:18:15.000Z</time>
      </trkpt>
      <trkpt lat="45.60128" lon="6.59948">
        <ele>2614.3999023438</ele>
        <time>2015-04-07T12:18:18.000Z</time>
      </trkpt>
      <trkpt lat="45.60128" lon="6.59948">
        <ele>2613.1999511719</ele>
        <time>2015-04-07T12:18:20.000Z</time>
      </trkpt>
      <trkpt lat="45.60128" lon="6.5995">
        <ele>2612.3999023438</ele>
        <time>2015-04-07T12:18:23.000Z</time>
      </trkpt>
      <trkpt lat="45.60128" lon="6.5995">
        <ele>2612.1999511719</ele>
        <time>2015-04-07T12:18:24.000Z</time>
      </trkpt>
      <trkpt lat="45.60128" lon="6.5995">
        <ele>2611.1999511719</ele>
        <time>2015-04-07T12:18:35.000Z</time>
      </trkpt>
      <trkpt lat="45.60128" lon="6.5995">
        <ele>2611.1999511719</ele>
        <time>2015-04-07T12:18:37.000Z</time>
      </trkpt>
      <trkpt lat="45.60128" lon="6.5995">
        <ele>2610.8000488281</ele>
        <time>2015-04-07T12:18:53.000Z</time>
      </trkpt>
      <trkpt lat="45.60128" lon="6.5995">
        <ele>2610.6000976562</ele>
        <time>2015-04-07T12:19:11.000Z</time>
      </trkpt>
      <trkpt lat="45.60129" lon="6.59951">
        <ele>2610</ele>
        <time>2015-04-07T12:19:14.000Z</time>
      </trkpt>
      <trkpt lat="45.60129" lon="6.59951">
        <ele>2608.8000488281</ele>
        <time>2015-04-07T12:19:17.000Z</time>
      </trkpt>
      <trkpt lat="45.60129" lon="6.59951">
        <ele>2608.6000976562</ele>
        <time>2015-04-07T12:19:18.000Z</time>
      </trkpt>
      <trkpt lat="45.60129" lon="6.59951">
        <ele>2607.8000488281</ele>
        <time>2015-04-07T12:19:26.000Z</time>
      </trkpt>
      <trkpt lat="45.60128" lon="6.59956">
        <ele>2607.3999023438</ele>
        <time>2015-04-07T12:19:29.000Z</time>
      </trkpt>
      <trkpt lat="45.60128" lon="6.59956">
        <ele>2606.1999511719</ele>
        <time>2015-04-07T12:19:33.000Z</time>
      </trkpt>
      <trkpt lat="45.60129" lon="6.59958">
        <ele>2604.8000488281</ele>
        <time>2015-04-07T12:19:35.000Z</time>
      </trkpt>
      <trkpt lat="45.60129" lon="6.5996">
        <ele>2604.8000488281</ele>
        <time>2015-04-07T12:19:36.000Z</time>
      </trkpt>
      <trkpt lat="45.6013" lon="6.59962">
        <ele>2603.8000488281</ele>
        <time>2015-04-07T12:19:40.000Z</time>
      </trkpt>
      <trkpt lat="45.6013" lon="6.59963">
        <ele>2602.8000488281</ele>
        <time>2015-04-07T12:19:41.000Z</time>
      </trkpt>
      <trkpt lat="45.6013" lon="6.59965">
        <ele>2601.1999511719</ele>
        <time>2015-04-07T12:19:43.000Z</time>
      </trkpt>
      <trkpt lat="45.6013" lon="6.59967">
        <ele>2600.8000488281</ele>
        <time>2015-04-07T12:19:44.000Z</time>
      </trkpt>
      <trkpt lat="45.60129" lon="6.59968">
        <ele>2600.3999023438</ele>
        <time>2015-04-07T12:19:45.000Z</time>
      </trkpt>
      <trkpt lat="45.60129" lon="6.59968">
        <ele>2600</ele>
        <time>2015-04-07T12:19:46.000Z</time>
      </trkpt>
      <trkpt lat="45.60129" lon="6.59968">
        <ele>2599</ele>
        <time>2015-04-07T12:19:48.000Z</time>
      </trkpt>
      <trkpt lat="45.6013" lon="6.59972">
        <ele>2598.3999023438</ele>
        <time>2015-04-07T12:19:50.000Z</time>
      </trkpt>
      <trkpt lat="45.60132" lon="6.59976">
        <ele>2598</ele>
        <time>2015-04-07T12:19:52.000Z</time>
      </trkpt>
      <trkpt lat="45.60134" lon="6.59979">
        <ele>2596</ele>
        <time>2015-04-07T12:19:54.000Z</time>
      </trkpt>
      <trkpt lat="45.60134" lon="6.5998">
        <ele>2594.1999511719</ele>
        <time>2015-04-07T12:19:55.000Z</time>
      </trkpt>
      <trkpt lat="45.60135" lon="6.59981">
        <ele>2592.6000976562</ele>
        <time>2015-04-07T12:19:56.000Z</time>
      </trkpt>
      <trkpt lat="45.60135" lon="6.59982">
        <ele>2591.6000976562</ele>
        <time>2015-04-07T12:19:57.000Z</time>
      </trkpt>
      <trkpt lat="45.60136" lon="6.59982">
        <ele>2590.3999023438</ele>
        <time>2015-04-07T12:19:59.000Z</time>
      </trkpt>
      <trkpt lat="45.60135" lon="6.59981">
        <ele>2590</ele>
        <time>2015-04-07T12:20:05.000Z</time>
      </trkpt>
      <trkpt lat="45.60135" lon="6.59981">
        <ele>2589.3999023438</ele>
        <time>2015-04-07T12:20:09.000Z</time>
      </trkpt>
      <trkpt lat="45.60133" lon="6.59982">
        <ele>2589</ele>
        <time>2015-04-07T12:20:11.000Z</time>
      </trkpt>
      <trkpt lat="45.60132" lon="6.59983">
        <ele>2588.6000976562</ele>
        <time>2015-04-07T12:20:12.000Z</time>
      </trkpt>
      <trkpt lat="45.60132" lon="6.59982">
        <ele>2588</ele>
        <time>2015-04-07T12:20:13.000Z</time>
      </trkpt>
      <trkpt lat="45.60132" lon="6.59984">
        <ele>2586.8000488281</ele>
        <time>2015-04-07T12:20:16.000Z</time>
      </trkpt>
      <trkpt lat="45.60134" lon="6.59985">
        <ele>2586.6000976562</ele>
        <time>2015-04-07T12:20:17.000Z</time>
      </trkpt>
      <trkpt lat="45.60138" lon="6.5999">
        <ele>2585.6000976562</ele>
        <time>2015-04-07T12:20:20.000Z</time>
      </trkpt>
      <trkpt lat="45.60138" lon="6.5999">
        <ele>2584.3999023438</ele>
        <time>2015-04-07T12:20:21.000Z</time>
      </trkpt>
      <trkpt lat="45.60137" lon="6.59989">
        <ele>2582.6000976562</ele>
        <time>2015-04-07T12:20:22.000Z</time>
      </trkpt>
      <trkpt lat="45.60137" lon="6.59989">
        <ele>2580</ele>
        <time>2015-04-07T12:20:23.000Z</time>
      </trkpt>
      <trkpt lat="45.60135" lon="6.59983">
        <ele>2579</ele>
        <time>2015-04-07T12:20:27.000Z</time>
      </trkpt>
      <trkpt lat="45.60133" lon="6.59978">
        <ele>2579.1999511719</ele>
        <time>2015-04-07T12:20:35.000Z</time>
      </trkpt>
      <trkpt lat="45.60134" lon="6.59977">
        <ele>2579</ele>
        <time>2015-04-07T12:20:52.000Z</time>
      </trkpt>
      <trkpt lat="45.60128" lon="6.59971">
        <ele>2579</ele>
        <time>2015-04-07T12:21:06.000Z</time>
      </trkpt>
      <trkpt lat="45.60128" lon="6.59971">
        <ele>2579</ele>
        <time>2015-04-07T12:21:20.000Z</time>
      </trkpt>
      <trkpt lat="45.60129" lon="6.59972">
        <ele>2578.8000488281</ele>
        <time>2015-04-07T12:21:34.000Z</time>
      </trkpt>
      <trkpt lat="45.60133" lon="6.59979">
        <ele>2577.6000976562</ele>
        <time>2015-04-07T12:21:38.000Z</time>
      </trkpt>
      <trkpt lat="45.60136" lon="6.59985">
        <ele>2576.6000976562</ele>
        <time>2015-04-07T12:21:40.000Z</time>
      </trkpt>
      <trkpt lat="45.60137" lon="6.59987">
        <ele>2576.1999511719</ele>
        <time>2015-04-07T12:21:41.000Z</time>
      </trkpt>
      <trkpt lat="45.60138" lon="6.59989">
        <ele>2574.6000976562</ele>
        <time>2015-04-07T12:21:43.000Z</time>
      </trkpt>
      <trkpt lat="45.6014" lon="6.59997">
        <ele>2572.8000488281</ele>
        <time>2015-04-07T12:21:45.000Z</time>
      </trkpt>
      <trkpt lat="45.60136" lon="6.60002">
        <ele>2571.3999023438</ele>
        <time>2015-04-07T12:21:47.000Z</time>
      </trkpt>
      <trkpt lat="45.6013" lon="6.60006">
        <ele>2570.1999511719</ele>
        <time>2015-04-07T12:21:49.000Z</time>
      </trkpt>
      <trkpt lat="45.6012" lon="6.60012">
        <ele>2568.1999511719</ele>
        <time>2015-04-07T12:21:52.000Z</time>
      </trkpt>
      <trkpt lat="45.60117" lon="6.60015">
        <ele>2566.8000488281</ele>
        <time>2015-04-07T12:21:53.000Z</time>
      </trkpt>
      <trkpt lat="45.60114" lon="6.60018">
        <ele>2565.3999023438</ele>
        <time>2015-04-07T12:21:54.000Z</time>
      </trkpt>
      <trkpt lat="45.6011" lon="6.60021">
        <ele>2564</ele>
        <time>2015-04-07T12:21:55.000Z</time>
      </trkpt>
      <trkpt lat="45.60106" lon="6.60023">
        <ele>2562.8000488281</ele>
        <time>2015-04-07T12:21:56.000Z</time>
      </trkpt>
      <trkpt lat="45.60102" lon="6.60026">
        <ele>2561.6000976562</ele>
        <time>2015-04-07T12:21:57.000Z</time>
      </trkpt>
      <trkpt lat="45.60101" lon="6.60028">
        <ele>2560.1999511719</ele>
        <time>2015-04-07T12:21:58.000Z</time>
      </trkpt>
      <trkpt lat="45.60099" lon="6.60032">
        <ele>2557.6000976562</ele>
        <time>2015-04-07T12:21:59.000Z</time>
      </trkpt>
      <trkpt lat="45.60099" lon="6.60039">
        <ele>2556</ele>
        <time>2015-04-07T12:22:01.000Z</time>
      </trkpt>
      <trkpt lat="45.60099" lon="6.60046">
        <ele>2553.6000976562</ele>
        <time>2015-04-07T12:22:03.000Z</time>
      </trkpt>
      <trkpt lat="45.601" lon="6.60048">
        <ele>2552</ele>
        <time>2015-04-07T12:22:04.000Z</time>
      </trkpt>
      <trkpt lat="45.601" lon="6.60051">
        <ele>2550.8000488281</ele>
        <time>2015-04-07T12:22:05.000Z</time>
      </trkpt>
      <trkpt lat="45.601" lon="6.60055">
        <ele>2549.6000976562</ele>
        <time>2015-04-07T12:22:06.000Z</time>
      </trkpt>
      <trkpt lat="45.601" lon="6.60059">
        <ele>2548</ele>
        <time>2015-04-07T12:22:07.000Z</time>
      </trkpt>
      <trkpt lat="45.60099" lon="6.60064">
        <ele>2545.8000488281</ele>
        <time>2015-04-07T12:22:08.000Z</time>
      </trkpt>
      <trkpt lat="45.60098" lon="6.60068">
        <ele>2543.8000488281</ele>
        <time>2015-04-07T12:22:09.000Z</time>
      </trkpt>
      <trkpt lat="45.60098" lon="6.60072">
        <ele>2542.1999511719</ele>
        <time>2015-04-07T12:22:10.000Z</time>
      </trkpt>
      <trkpt lat="45.60098" lon="6.60076">
        <ele>2540.6000976562</ele>
        <time>2015-04-07T12:22:11.000Z</time>
      </trkpt>
      <trkpt lat="45.60098" lon="6.60081">
        <ele>2538.8000488281</ele>
        <time>2015-04-07T12:22:12.000Z</time>
      </trkpt>
      <trkpt lat="45.60096" lon="6.60084">
        <ele>2536.3999023438</ele>
        <time>2015-04-07T12:22:13.000Z</time>
      </trkpt>
      <trkpt lat="45.60097" lon="6.60089">
        <ele>2534.1999511719</ele>
        <time>2015-04-07T12:22:14.000Z</time>
      </trkpt>
      <trkpt lat="45.60097" lon="6.60094">
        <ele>2532.3999023438</ele>
        <time>2015-04-07T12:22:15.000Z</time>
      </trkpt>
      <trkpt lat="45.60098" lon="6.601">
        <ele>2531</ele>
        <time>2015-04-07T12:22:16.000Z</time>
      </trkpt>
      <trkpt lat="45.60098" lon="6.60105">
        <ele>2529.3999023438</ele>
        <time>2015-04-07T12:22:17.000Z</time>
      </trkpt>
      <trkpt lat="45.60097" lon="6.60112">
        <ele>2527.1999511719</ele>
        <time>2015-04-07T12:22:18.000Z</time>
      </trkpt>
      <trkpt lat="45.60097" lon="6.60119">
        <ele>2525</ele>
        <time>2015-04-07T12:22:19.000Z</time>
      </trkpt>
      <trkpt lat="45.60097" lon="6.60125">
        <ele>2523.1999511719</ele>
        <time>2015-04-07T12:22:20.000Z</time>
      </trkpt>
      <trkpt lat="45.60097" lon="6.6013">
        <ele>2521.3999023438</ele>
        <time>2015-04-07T12:22:21.000Z</time>
      </trkpt>
      <trkpt lat="45.60096" lon="6.60135">
        <ele>2519.3999023438</ele>
        <time>2015-04-07T12:22:22.000Z</time>
      </trkpt>
      <trkpt lat="45.60095" lon="6.60141">
        <ele>2514.1999511719</ele>
        <time>2015-04-07T12:22:23.000Z</time>
      </trkpt>
      <trkpt lat="45.60093" lon="6.60147">
        <ele>2512.6000976562</ele>
        <time>2015-04-07T12:22:24.000Z</time>
      </trkpt>
      <trkpt lat="45.60092" lon="6.60151">
        <ele>2511.3999023438</ele>
        <time>2015-04-07T12:22:25.000Z</time>
      </trkpt>
      <trkpt lat="45.60091" lon="6.60155">
        <ele>2510.3999023438</ele>
        <time>2015-04-07T12:22:26.000Z</time>
      </trkpt>
      <trkpt lat="45.6009" lon="6.60158">
        <ele>2508.3999023438</ele>
        <time>2015-04-07T12:22:27.000Z</time>
      </trkpt>
      <trkpt lat="45.60088" lon="6.60162">
        <ele>2506.3999023438</ele>
        <time>2015-04-07T12:22:28.000Z</time>
      </trkpt>
      <trkpt lat="45.60087" lon="6.60166">
        <ele>2504.6000976562</ele>
        <time>2015-04-07T12:22:29.000Z</time>
      </trkpt>
      <trkpt lat="45.60085" lon="6.6017">
        <ele>2503.3999023438</ele>
        <time>2015-04-07T12:22:30.000Z</time>
      </trkpt>
      <trkpt lat="45.60085" lon="6.60174">
        <ele>2502.3999023438</ele>
        <time>2015-04-07T12:22:31.000Z</time>
      </trkpt>
      <trkpt lat="45.60085" lon="6.60178">
        <ele>2501.3999023438</ele>
        <time>2015-04-07T12:22:32.000Z</time>
      </trkpt>
      <trkpt lat="45.60084" lon="6.60183">
        <ele>2500.1999511719</ele>
        <time>2015-04-07T12:22:33.000Z</time>
      </trkpt>
      <trkpt lat="45.60083" lon="6.60186">
        <ele>2498.6000976562</ele>
        <time>2015-04-07T12:22:34.000Z</time>
      </trkpt>
      <trkpt lat="45.60082" lon="6.6019">
        <ele>2496.8000488281</ele>
        <time>2015-04-07T12:22:35.000Z</time>
      </trkpt>
      <trkpt lat="45.60081" lon="6.60195">
        <ele>2495.6000976562</ele>
        <time>2015-04-07T12:22:36.000Z</time>
      </trkpt>
      <trkpt lat="45.6008" lon="6.602">
        <ele>2494.3999023438</ele>
        <time>2015-04-07T12:22:37.000Z</time>
      </trkpt>
      <trkpt lat="45.60079" lon="6.60205">
        <ele>2492.8000488281</ele>
        <time>2015-04-07T12:22:38.000Z</time>
      </trkpt>
      <trkpt lat="45.60077" lon="6.60209">
        <ele>2490.8000488281</ele>
        <time>2015-04-07T12:22:39.000Z</time>
      </trkpt>
      <trkpt lat="45.60076" lon="6.60215">
        <ele>2489</ele>
        <time>2015-04-07T12:22:40.000Z</time>
      </trkpt>
      <trkpt lat="45.60075" lon="6.60222">
        <ele>2487.6000976562</ele>
        <time>2015-04-07T12:22:41.000Z</time>
      </trkpt>
      <trkpt lat="45.60074" lon="6.60229">
        <ele>2486.8000488281</ele>
        <time>2015-04-07T12:22:42.000Z</time>
      </trkpt>
      <trkpt lat="45.60075" lon="6.60234">
        <ele>2485.6000976562</ele>
        <time>2015-04-07T12:22:43.000Z</time>
      </trkpt>
      <trkpt lat="45.60074" lon="6.60242">
        <ele>2483.8000488281</ele>
        <time>2015-04-07T12:22:44.000Z</time>
      </trkpt>
      <trkpt lat="45.60072" lon="6.60251">
        <ele>2481.6000976562</ele>
        <time>2015-04-07T12:22:45.000Z</time>
      </trkpt>
      <trkpt lat="45.60073" lon="6.60258">
        <ele>2479.8000488281</ele>
        <time>2015-04-07T12:22:46.000Z</time>
      </trkpt>
      <trkpt lat="45.60074" lon="6.60265">
        <ele>2476.6000976562</ele>
        <time>2015-04-07T12:22:47.000Z</time>
      </trkpt>
      <trkpt lat="45.60073" lon="6.60271">
        <ele>2474</ele>
        <time>2015-04-07T12:22:48.000Z</time>
      </trkpt>
      <trkpt lat="45.60071" lon="6.60278">
        <ele>2471</ele>
        <time>2015-04-07T12:22:49.000Z</time>
      </trkpt>
      <trkpt lat="45.6007" lon="6.60288">
        <ele>2468.8000488281</ele>
        <time>2015-04-07T12:22:50.000Z</time>
      </trkpt>
      <trkpt lat="45.60069" lon="6.60295">
        <ele>2467.1999511719</ele>
        <time>2015-04-07T12:22:51.000Z</time>
      </trkpt>
      <trkpt lat="45.60067" lon="6.60301">
        <ele>2465.8000488281</ele>
        <time>2015-04-07T12:22:52.000Z</time>
      </trkpt>
      <trkpt lat="45.60065" lon="6.60307">
        <ele>2463.6000976562</ele>
        <time>2015-04-07T12:22:53.000Z</time>
      </trkpt>
      <trkpt lat="45.60063" lon="6.60313">
        <ele>2461.1999511719</ele>
        <time>2015-04-07T12:22:54.000Z</time>
      </trkpt>
      <trkpt lat="45.60063" lon="6.6032">
        <ele>2459.3999023438</ele>
        <time>2015-04-07T12:22:55.000Z</time>
      </trkpt>
      <trkpt lat="45.60062" lon="6.60327">
        <ele>2457.8000488281</ele>
        <time>2015-04-07T12:22:56.000Z</time>
      </trkpt>
      <trkpt lat="45.60061" lon="6.60333">
        <ele>2455.8000488281</ele>
        <time>2015-04-07T12:22:57.000Z</time>
      </trkpt>
      <trkpt lat="45.60059" lon="6.60337">
        <ele>2453.1999511719</ele>
        <time>2015-04-07T12:22:58.000Z</time>
      </trkpt>
      <trkpt lat="45.60058" lon="6.60343">
        <ele>2450.8000488281</ele>
        <time>2015-04-07T12:22:59.000Z</time>
      </trkpt>
      <trkpt lat="45.60055" lon="6.6035">
        <ele>2449</ele>
        <time>2015-04-07T12:23:00.000Z</time>
      </trkpt>
      <trkpt lat="45.60055" lon="6.60355">
        <ele>2447.3999023438</ele>
        <time>2015-04-07T12:23:01.000Z</time>
      </trkpt>
      <trkpt lat="45.60055" lon="6.60361">
        <ele>2446.1999511719</ele>
        <time>2015-04-07T12:23:02.000Z</time>
      </trkpt>
      <trkpt lat="45.60052" lon="6.60364">
        <ele>2445</ele>
        <time>2015-04-07T12:23:03.000Z</time>
      </trkpt>
      <trkpt lat="45.60046" lon="6.60363">
        <ele>2443.3999023438</ele>
        <time>2015-04-07T12:23:04.000Z</time>
      </trkpt>
      <trkpt lat="45.60044" lon="6.6036">
        <ele>2441.3999023438</ele>
        <time>2015-04-07T12:23:05.000Z</time>
      </trkpt>
      <trkpt lat="45.6004" lon="6.60358">
        <ele>2439.1999511719</ele>
        <time>2015-04-07T12:23:06.000Z</time>
      </trkpt>
      <trkpt lat="45.60037" lon="6.60358">
        <ele>2437.6000976562</ele>
        <time>2015-04-07T12:23:07.000Z</time>
      </trkpt>
      <trkpt lat="45.60035" lon="6.60358">
        <ele>2436.3999023438</ele>
        <time>2015-04-07T12:23:08.000Z</time>
      </trkpt>
      <trkpt lat="45.60033" lon="6.60359">
        <ele>2435.3999023438</ele>
        <time>2015-04-07T12:23:09.000Z</time>
      </trkpt>
      <trkpt lat="45.60033" lon="6.60355">
        <ele>2434.6000976562</ele>
        <time>2015-04-07T12:23:10.000Z</time>
      </trkpt>
      <trkpt lat="45.60035" lon="6.6035">
        <ele>2433.8000488281</ele>
        <time>2015-04-07T12:23:11.000Z</time>
      </trkpt>
      <trkpt lat="45.60035" lon="6.6035">
        <ele>2433.3999023438</ele>
        <time>2015-04-07T12:23:20.000Z</time>
      </trkpt>
      <trkpt lat="45.60042" lon="6.60344">
        <ele>2433.6000976562</ele>
        <time>2015-04-07T12:23:29.000Z</time>
      </trkpt>
      <trkpt lat="45.60034" lon="6.60353">
        <ele>2432.1999511719</ele>
        <time>2015-04-07T12:23:33.000Z</time>
      </trkpt>
      <trkpt lat="45.60027" lon="6.60361">
        <ele>2429.3999023438</ele>
        <time>2015-04-07T12:23:35.000Z</time>
      </trkpt>
      <trkpt lat="45.60019" lon="6.60372">
        <ele>2427.3999023438</ele>
        <time>2015-04-07T12:23:37.000Z</time>
      </trkpt>
      <trkpt lat="45.60015" lon="6.60378">
        <ele>2426.1999511719</ele>
        <time>2015-04-07T12:23:38.000Z</time>
      </trkpt>
      <trkpt lat="45.6001" lon="6.60384">
        <ele>2425</ele>
        <time>2015-04-07T12:23:39.000Z</time>
      </trkpt>
      <trkpt lat="45.60006" lon="6.60392">
        <ele>2423.8000488281</ele>
        <time>2015-04-07T12:23:40.000Z</time>
      </trkpt>
      <trkpt lat="45.60001" lon="6.60399">
        <ele>2422.3999023438</ele>
        <time>2015-04-07T12:23:41.000Z</time>
      </trkpt>
      <trkpt lat="45.59996" lon="6.60407">
        <ele>2421</ele>
        <time>2015-04-07T12:23:42.000Z</time>
      </trkpt>
      <trkpt lat="45.59992" lon="6.60414">
        <ele>2419.3999023438</ele>
        <time>2015-04-07T12:23:43.000Z</time>
      </trkpt>
      <trkpt lat="45.59989" lon="6.60421">
        <ele>2418.1999511719</ele>
        <time>2015-04-07T12:23:44.000Z</time>
      </trkpt>
      <trkpt lat="45.59987" lon="6.60426">
        <ele>2417</ele>
        <time>2015-04-07T12:23:45.000Z</time>
      </trkpt>
      <trkpt lat="45.59984" lon="6.60435">
        <ele>2415.3999023438</ele>
        <time>2015-04-07T12:23:47.000Z</time>
      </trkpt>
      <trkpt lat="45.59976" lon="6.60455">
        <ele>2414</ele>
        <time>2015-04-07T12:23:51.000Z</time>
      </trkpt>
      <trkpt lat="45.59972" lon="6.60467">
        <ele>2412.6000976562</ele>
        <time>2015-04-07T12:23:53.000Z</time>
      </trkpt>
      <trkpt lat="45.59969" lon="6.60477">
        <ele>2411.1999511719</ele>
        <time>2015-04-07T12:23:55.000Z</time>
      </trkpt>
      <trkpt lat="45.59965" lon="6.60491">
        <ele>2409.6000976562</ele>
        <time>2015-04-07T12:23:57.000Z</time>
      </trkpt>
      <trkpt lat="45.59964" lon="6.60496">
        <ele>2407.8000488281</ele>
        <time>2015-04-07T12:23:58.000Z</time>
      </trkpt>
      <trkpt lat="45.59963" lon="6.60504">
        <ele>2404.1999511719</ele>
        <time>2015-04-07T12:23:59.000Z</time>
      </trkpt>
      <trkpt lat="45.59962" lon="6.60511">
        <ele>2402</ele>
        <time>2015-04-07T12:24:00.000Z</time>
      </trkpt>
      <trkpt lat="45.5996" lon="6.60521">
        <ele>2399.1999511719</ele>
        <time>2015-04-07T12:24:01.000Z</time>
      </trkpt>
      <trkpt lat="45.59959" lon="6.60532">
        <ele>2396.3999023438</ele>
        <time>2015-04-07T12:24:02.000Z</time>
      </trkpt>
      <trkpt lat="45.59956" lon="6.60539">
        <ele>2394</ele>
        <time>2015-04-07T12:24:03.000Z</time>
      </trkpt>
      <trkpt lat="45.59954" lon="6.60547">
        <ele>2392</ele>
        <time>2015-04-07T12:24:04.000Z</time>
      </trkpt>
      <trkpt lat="45.59952" lon="6.60557">
        <ele>2389.8000488281</ele>
        <time>2015-04-07T12:24:05.000Z</time>
      </trkpt>
      <trkpt lat="45.59949" lon="6.60566">
        <ele>2387.6000976562</ele>
        <time>2015-04-07T12:24:06.000Z</time>
      </trkpt>
      <trkpt lat="45.59945" lon="6.60577">
        <ele>2385.6000976562</ele>
        <time>2015-04-07T12:24:07.000Z</time>
      </trkpt>
      <trkpt lat="45.5994" lon="6.60588">
        <ele>2383.1999511719</ele>
        <time>2015-04-07T12:24:08.000Z</time>
      </trkpt>
      <trkpt lat="45.59934" lon="6.60598">
        <ele>2380.8000488281</ele>
        <time>2015-04-07T12:24:09.000Z</time>
      </trkpt>
      <trkpt lat="45.59929" lon="6.60608">
        <ele>2378.6000976562</ele>
        <time>2015-04-07T12:24:10.000Z</time>
      </trkpt>
      <trkpt lat="45.59925" lon="6.60618">
        <ele>2376.6000976562</ele>
        <time>2015-04-07T12:24:11.000Z</time>
      </trkpt>
      <trkpt lat="45.5992" lon="6.60627">
        <ele>2374.6000976562</ele>
        <time>2015-04-07T12:24:12.000Z</time>
      </trkpt>
      <trkpt lat="45.59916" lon="6.60635">
        <ele>2372.8000488281</ele>
        <time>2015-04-07T12:24:13.000Z</time>
      </trkpt>
      <trkpt lat="45.59911" lon="6.60644">
        <ele>2371.1999511719</ele>
        <time>2015-04-07T12:24:14.000Z</time>
      </trkpt>
      <trkpt lat="45.59907" lon="6.60651">
        <ele>2369.8000488281</ele>
        <time>2015-04-07T12:24:15.000Z</time>
      </trkpt>
      <trkpt lat="45.59902" lon="6.60659">
        <ele>2368.8000488281</ele>
        <time>2015-04-07T12:24:16.000Z</time>
      </trkpt>
      <trkpt lat="45.59899" lon="6.60669">
        <ele>2367.8000488281</ele>
        <time>2015-04-07T12:24:17.000Z</time>
      </trkpt>
      <trkpt lat="45.59896" lon="6.60677">
        <ele>2366.6000976562</ele>
        <time>2015-04-07T12:24:18.000Z</time>
      </trkpt>
      <trkpt lat="45.59893" lon="6.60687">
        <ele>2365.1999511719</ele>
        <time>2015-04-07T12:24:19.000Z</time>
      </trkpt>
      <trkpt lat="45.5989" lon="6.60697">
        <ele>2363.6000976562</ele>
        <time>2015-04-07T12:24:20.000Z</time>
      </trkpt>
      <trkpt lat="45.59887" lon="6.60706">
        <ele>2362</ele>
        <time>2015-04-07T12:24:21.000Z</time>
      </trkpt>
      <trkpt lat="45.59886" lon="6.60716">
        <ele>2360.3999023438</ele>
        <time>2015-04-07T12:24:22.000Z</time>
      </trkpt>
      <trkpt lat="45.59884" lon="6.60727">
        <ele>2357.8000488281</ele>
        <time>2015-04-07T12:24:23.000Z</time>
      </trkpt>
      <trkpt lat="45.59882" lon="6.60738">
        <ele>2356.8000488281</ele>
        <time>2015-04-07T12:24:24.000Z</time>
      </trkpt>
      <trkpt lat="45.59882" lon="6.60752">
        <ele>2355.6000976562</ele>
        <time>2015-04-07T12:24:25.000Z</time>
      </trkpt>
      <trkpt lat="45.59882" lon="6.60767">
        <ele>2354.3999023438</ele>
        <time>2015-04-07T12:24:26.000Z</time>
      </trkpt>
      <trkpt lat="45.59883" lon="6.60783">
        <ele>2353.1999511719</ele>
        <time>2015-04-07T12:24:27.000Z</time>
      </trkpt>
      <trkpt lat="45.59884" lon="6.60799">
        <ele>2351.6000976562</ele>
        <time>2015-04-07T12:24:28.000Z</time>
      </trkpt>
      <trkpt lat="45.59886" lon="6.60817">
        <ele>2349.3999023438</ele>
        <time>2015-04-07T12:24:29.000Z</time>
      </trkpt>
      <trkpt lat="45.59889" lon="6.60836">
        <ele>2346.6000976562</ele>
        <time>2015-04-07T12:24:30.000Z</time>
      </trkpt>
      <trkpt lat="45.59891" lon="6.60855">
        <ele>2343.8000488281</ele>
        <time>2015-04-07T12:24:31.000Z</time>
      </trkpt>
      <trkpt lat="45.59894" lon="6.60872">
        <ele>2340.6000976562</ele>
        <time>2015-04-07T12:24:32.000Z</time>
      </trkpt>
      <trkpt lat="45.59898" lon="6.60889">
        <ele>2337.1999511719</ele>
        <time>2015-04-07T12:24:33.000Z</time>
      </trkpt>
      <trkpt lat="45.599" lon="6.6091">
        <ele>2333.3999023438</ele>
        <time>2015-04-07T12:24:34.000Z</time>
      </trkpt>
      <trkpt lat="45.59901" lon="6.60928">
        <ele>2329.8000488281</ele>
        <time>2015-04-07T12:24:35.000Z</time>
      </trkpt>
      <trkpt lat="45.59902" lon="6.60944">
        <ele>2326.1999511719</ele>
        <time>2015-04-07T12:24:36.000Z</time>
      </trkpt>
      <trkpt lat="45.59902" lon="6.60959">
        <ele>2322.8000488281</ele>
        <time>2015-04-07T12:24:37.000Z</time>
      </trkpt>
      <trkpt lat="45.59901" lon="6.60974">
        <ele>2319.3999023438</ele>
        <time>2015-04-07T12:24:38.000Z</time>
      </trkpt>
      <trkpt lat="45.599" lon="6.60986">
        <ele>2316.6000976562</ele>
        <time>2015-04-07T12:24:39.000Z</time>
      </trkpt>
      <trkpt lat="45.59899" lon="6.60997">
        <ele>2314.6000976562</ele>
        <time>2015-04-07T12:24:40.000Z</time>
      </trkpt>
      <trkpt lat="45.59898" lon="6.61006">
        <ele>2313</ele>
        <time>2015-04-07T12:24:41.000Z</time>
      </trkpt>
      <trkpt lat="45.59896" lon="6.61014">
        <ele>2311.6000976562</ele>
        <time>2015-04-07T12:24:42.000Z</time>
      </trkpt>
      <trkpt lat="45.59893" lon="6.61022">
        <ele>2310</ele>
        <time>2015-04-07T12:24:43.000Z</time>
      </trkpt>
      <trkpt lat="45.59891" lon="6.61029">
        <ele>2308.6000976562</ele>
        <time>2015-04-07T12:24:44.000Z</time>
      </trkpt>
      <trkpt lat="45.59889" lon="6.61036">
        <ele>2307.6000976562</ele>
        <time>2015-04-07T12:24:45.000Z</time>
      </trkpt>
      <trkpt lat="45.59883" lon="6.61049">
        <ele>2305.8000488281</ele>
        <time>2015-04-07T12:24:47.000Z</time>
      </trkpt>
      <trkpt lat="45.59876" lon="6.6106">
        <ele>2304.1999511719</ele>
        <time>2015-04-07T12:24:49.000Z</time>
      </trkpt>
      <trkpt lat="45.59873" lon="6.61068">
        <ele>2303.3999023438</ele>
        <time>2015-04-07T12:24:50.000Z</time>
      </trkpt>
      <trkpt lat="45.5987" lon="6.61077">
        <ele>2303</ele>
        <time>2015-04-07T12:24:51.000Z</time>
      </trkpt>
      <trkpt lat="45.59868" lon="6.61084">
        <ele>2302.6000976562</ele>
        <time>2015-04-07T12:24:52.000Z</time>
      </trkpt>
      <trkpt lat="45.59864" lon="6.61097">
        <ele>2301</ele>
        <time>2015-04-07T12:24:54.000Z</time>
      </trkpt>
      <trkpt lat="45.59861" lon="6.61103">
        <ele>2299.1999511719</ele>
        <time>2015-04-07T12:24:55.000Z</time>
      </trkpt>
      <trkpt lat="45.59857" lon="6.61109">
        <ele>2297.1999511719</ele>
        <time>2015-04-07T12:24:56.000Z</time>
      </trkpt>
      <trkpt lat="45.59854" lon="6.61115">
        <ele>2295.3999023438</ele>
        <time>2015-04-07T12:24:57.000Z</time>
      </trkpt>
      <trkpt lat="45.59851" lon="6.61125">
        <ele>2293.8000488281</ele>
        <time>2015-04-07T12:24:58.000Z</time>
      </trkpt>
      <trkpt lat="45.59848" lon="6.61134">
        <ele>2292</ele>
        <time>2015-04-07T12:24:59.000Z</time>
      </trkpt>
      <trkpt lat="45.59845" lon="6.61143">
        <ele>2290</ele>
        <time>2015-04-07T12:25:00.000Z</time>
      </trkpt>
      <trkpt lat="45.59841" lon="6.61152">
        <ele>2287.8000488281</ele>
        <time>2015-04-07T12:25:01.000Z</time>
      </trkpt>
      <trkpt lat="45.59838" lon="6.6116">
        <ele>2285.6000976562</ele>
        <time>2015-04-07T12:25:02.000Z</time>
      </trkpt>
      <trkpt lat="45.59835" lon="6.61168">
        <ele>2283.8000488281</ele>
        <time>2015-04-07T12:25:03.000Z</time>
      </trkpt>
      <trkpt lat="45.59832" lon="6.61175">
        <ele>2282.1999511719</ele>
        <time>2015-04-07T12:25:04.000Z</time>
      </trkpt>
      <trkpt lat="45.59829" lon="6.61181">
        <ele>2281</ele>
        <time>2015-04-07T12:25:05.000Z</time>
      </trkpt>
      <trkpt lat="45.59828" lon="6.61188">
        <ele>2280.1999511719</ele>
        <time>2015-04-07T12:25:06.000Z</time>
      </trkpt>
      <trkpt lat="45.59826" lon="6.61197">
        <ele>2279.6000976562</ele>
        <time>2015-04-07T12:25:07.000Z</time>
      </trkpt>
      <trkpt lat="45.59824" lon="6.61214">
        <ele>2277.8000488281</ele>
        <time>2015-04-07T12:25:09.000Z</time>
      </trkpt>
      <trkpt lat="45.59822" lon="6.61221">
        <ele>2275.3999023438</ele>
        <time>2015-04-07T12:25:10.000Z</time>
      </trkpt>
      <trkpt lat="45.59821" lon="6.61231">
        <ele>2271.3999023438</ele>
        <time>2015-04-07T12:25:11.000Z</time>
      </trkpt>
      <trkpt lat="45.59821" lon="6.61242">
        <ele>2269.3999023438</ele>
        <time>2015-04-07T12:25:12.000Z</time>
      </trkpt>
      <trkpt lat="45.59821" lon="6.61252">
        <ele>2267</ele>
        <time>2015-04-07T12:25:13.000Z</time>
      </trkpt>
      <trkpt lat="45.59822" lon="6.61261">
        <ele>2264</ele>
        <time>2015-04-07T12:25:14.000Z</time>
      </trkpt>
      <trkpt lat="45.59822" lon="6.61272">
        <ele>2261.1999511719</ele>
        <time>2015-04-07T12:25:15.000Z</time>
      </trkpt>
      <trkpt lat="45.59823" lon="6.61284">
        <ele>2258</ele>
        <time>2015-04-07T12:25:16.000Z</time>
      </trkpt>
      <trkpt lat="45.59824" lon="6.61293">
        <ele>2254.6000976562</ele>
        <time>2015-04-07T12:25:17.000Z</time>
      </trkpt>
      <trkpt lat="45.59825" lon="6.613">
        <ele>2250.6000976562</ele>
        <time>2015-04-07T12:25:18.000Z</time>
      </trkpt>
      <trkpt lat="45.59826" lon="6.61304">
        <ele>2246</ele>
        <time>2015-04-07T12:25:19.000Z</time>
      </trkpt>
      <trkpt lat="45.59828" lon="6.61307">
        <ele>2242.8000488281</ele>
        <time>2015-04-07T12:25:20.000Z</time>
      </trkpt>
      <trkpt lat="45.5983" lon="6.61308">
        <ele>2240.8000488281</ele>
        <time>2015-04-07T12:25:21.000Z</time>
      </trkpt>
      <trkpt lat="45.59833" lon="6.61309">
        <ele>2239.8000488281</ele>
        <time>2015-04-07T12:25:22.000Z</time>
      </trkpt>
      <trkpt lat="45.59836" lon="6.61309">
        <ele>2239.1999511719</ele>
        <time>2015-04-07T12:25:24.000Z</time>
      </trkpt>
      <trkpt lat="45.59837" lon="6.6131">
        <ele>2239.3999023438</ele>
        <time>2015-04-07T12:25:25.000Z</time>
      </trkpt>
      <trkpt lat="45.5984" lon="6.61309">
        <ele>2239</ele>
        <time>2015-04-07T12:25:29.000Z</time>
      </trkpt>
      <trkpt lat="45.59841" lon="6.61309">
        <ele>2238.6000976562</ele>
        <time>2015-04-07T12:25:30.000Z</time>
      </trkpt>
      <trkpt lat="45.59841" lon="6.61313">
        <ele>2238</ele>
        <time>2015-04-07T12:25:35.000Z</time>
      </trkpt>
      <trkpt lat="45.59844" lon="6.61327">
        <ele>2237.6000976562</ele>
        <time>2015-04-07T12:25:38.000Z</time>
      </trkpt>
      <trkpt lat="45.59845" lon="6.61336">
        <ele>2237</ele>
        <time>2015-04-07T12:25:39.000Z</time>
      </trkpt>
      <trkpt lat="45.59846" lon="6.61347">
        <ele>2235.6000976562</ele>
        <time>2015-04-07T12:25:40.000Z</time>
      </trkpt>
      <trkpt lat="45.59846" lon="6.61359">
        <ele>2234</ele>
        <time>2015-04-07T12:25:41.000Z</time>
      </trkpt>
      <trkpt lat="45.59845" lon="6.61371">
        <ele>2232</ele>
        <time>2015-04-07T12:25:42.000Z</time>
      </trkpt>
      <trkpt lat="45.59844" lon="6.61381">
        <ele>2229.3999023438</ele>
        <time>2015-04-07T12:25:43.000Z</time>
      </trkpt>
      <trkpt lat="45.59843" lon="6.61392">
        <ele>2226.6000976562</ele>
        <time>2015-04-07T12:25:44.000Z</time>
      </trkpt>
      <trkpt lat="45.59844" lon="6.614">
        <ele>2223.8000488281</ele>
        <time>2015-04-07T12:25:45.000Z</time>
      </trkpt>
      <trkpt lat="45.59844" lon="6.61405">
        <ele>2221.3999023438</ele>
        <time>2015-04-07T12:25:46.000Z</time>
      </trkpt>
      <trkpt lat="45.59845" lon="6.61412">
        <ele>2219.6000976562</ele>
        <time>2015-04-07T12:25:47.000Z</time>
      </trkpt>
      <trkpt lat="45.59845" lon="6.6142">
        <ele>2218.3999023438</ele>
        <time>2015-04-07T12:25:48.000Z</time>
      </trkpt>
      <trkpt lat="45.59847" lon="6.61426">
        <ele>2216.6000976562</ele>
        <time>2015-04-07T12:25:49.000Z</time>
      </trkpt>
      <trkpt lat="45.59848" lon="6.61434">
        <ele>2214.8000488281</ele>
        <time>2015-04-07T12:25:50.000Z</time>
      </trkpt>
      <trkpt lat="45.5985" lon="6.61444">
        <ele>2213</ele>
        <time>2015-04-07T12:25:51.000Z</time>
      </trkpt>
      <trkpt lat="45.59852" lon="6.61458">
        <ele>2211.1999511719</ele>
        <time>2015-04-07T12:25:52.000Z</time>
      </trkpt>
      <trkpt lat="45.59853" lon="6.61473">
        <ele>2209.1999511719</ele>
        <time>2015-04-07T12:25:53.000Z</time>
      </trkpt>
      <trkpt lat="45.59854" lon="6.61489">
        <ele>2206.8000488281</ele>
        <time>2015-04-07T12:25:54.000Z</time>
      </trkpt>
      <trkpt lat="45.59856" lon="6.61504">
        <ele>2204.1999511719</ele>
        <time>2015-04-07T12:25:55.000Z</time>
      </trkpt>
      <trkpt lat="45.59859" lon="6.61515">
        <ele>2201.8000488281</ele>
        <time>2015-04-07T12:25:56.000Z</time>
      </trkpt>
      <trkpt lat="45.59862" lon="6.61527">
        <ele>2199.1999511719</ele>
        <time>2015-04-07T12:25:57.000Z</time>
      </trkpt>
      <trkpt lat="45.59865" lon="6.6154">
        <ele>2196.8000488281</ele>
        <time>2015-04-07T12:25:58.000Z</time>
      </trkpt>
      <trkpt lat="45.59868" lon="6.61553">
        <ele>2192.8000488281</ele>
        <time>2015-04-07T12:25:59.000Z</time>
      </trkpt>
      <trkpt lat="45.59872" lon="6.61564">
        <ele>2191.1999511719</ele>
        <time>2015-04-07T12:26:00.000Z</time>
      </trkpt>
      <trkpt lat="45.59877" lon="6.61575">
        <ele>2189.3999023438</ele>
        <time>2015-04-07T12:26:01.000Z</time>
      </trkpt>
      <trkpt lat="45.59882" lon="6.61584">
        <ele>2187.3999023438</ele>
        <time>2015-04-07T12:26:02.000Z</time>
      </trkpt>
      <trkpt lat="45.59888" lon="6.61592">
        <ele>2185.3999023438</ele>
        <time>2015-04-07T12:26:03.000Z</time>
      </trkpt>
      <trkpt lat="45.59895" lon="6.61598">
        <ele>2183.3999023438</ele>
        <time>2015-04-07T12:26:04.000Z</time>
      </trkpt>
      <trkpt lat="45.59901" lon="6.61603">
        <ele>2181.6000976562</ele>
        <time>2015-04-07T12:26:05.000Z</time>
      </trkpt>
      <trkpt lat="45.59906" lon="6.61607">
        <ele>2180.3999023438</ele>
        <time>2015-04-07T12:26:06.000Z</time>
      </trkpt>
      <trkpt lat="45.59918" lon="6.61615">
        <ele>2178.8000488281</ele>
        <time>2015-04-07T12:26:08.000Z</time>
      </trkpt>
      <trkpt lat="45.59902" lon="6.6163">
        <ele>2177.6000976562</ele>
        <time>2015-04-07T12:26:11.000Z</time>
      </trkpt>
      <trkpt lat="45.59896" lon="6.61643">
        <ele>2176.3999023438</ele>
        <time>2015-04-07T12:26:13.000Z</time>
      </trkpt>
      <trkpt lat="45.59891" lon="6.61657">
        <ele>2175</ele>
        <time>2015-04-07T12:26:15.000Z</time>
      </trkpt>
      <trkpt lat="45.59894" lon="6.61673">
        <ele>2173.6000976562</ele>
        <time>2015-04-07T12:26:17.000Z</time>
      </trkpt>
      <trkpt lat="45.59896" lon="6.61681">
        <ele>2173</ele>
        <time>2015-04-07T12:26:18.000Z</time>
      </trkpt>
      <trkpt lat="45.59897" lon="6.61691">
        <ele>2172.6000976562</ele>
        <time>2015-04-07T12:26:19.000Z</time>
      </trkpt>
      <trkpt lat="45.59905" lon="6.61713">
        <ele>2171</ele>
        <time>2015-04-07T12:26:21.000Z</time>
      </trkpt>
      <trkpt lat="45.5991" lon="6.61723">
        <ele>2170</ele>
        <time>2015-04-07T12:26:22.000Z</time>
      </trkpt>
      <trkpt lat="45.59913" lon="6.61732">
        <ele>2167</ele>
        <time>2015-04-07T12:26:23.000Z</time>
      </trkpt>
      <trkpt lat="45.59915" lon="6.61745">
        <ele>2165.6000976562</ele>
        <time>2015-04-07T12:26:24.000Z</time>
      </trkpt>
      <trkpt lat="45.59918" lon="6.61755">
        <ele>2164</ele>
        <time>2015-04-07T12:26:25.000Z</time>
      </trkpt>
      <trkpt lat="45.59921" lon="6.61764">
        <ele>2162.6000976562</ele>
        <time>2015-04-07T12:26:26.000Z</time>
      </trkpt>
      <trkpt lat="45.59924" lon="6.61773">
        <ele>2161.1999511719</ele>
        <time>2015-04-07T12:26:27.000Z</time>
      </trkpt>
      <trkpt lat="45.59928" lon="6.61781">
        <ele>2159.8000488281</ele>
        <time>2015-04-07T12:26:28.000Z</time>
      </trkpt>
      <trkpt lat="45.59931" lon="6.61791">
        <ele>2158.3999023438</ele>
        <time>2015-04-07T12:26:29.000Z</time>
      </trkpt>
      <trkpt lat="45.59935" lon="6.618">
        <ele>2157</ele>
        <time>2015-04-07T12:26:30.000Z</time>
      </trkpt>
      <trkpt lat="45.5994" lon="6.61809">
        <ele>2155.8000488281</ele>
        <time>2015-04-07T12:26:31.000Z</time>
      </trkpt>
      <trkpt lat="45.59945" lon="6.61818">
        <ele>2154.3999023438</ele>
        <time>2015-04-07T12:26:32.000Z</time>
      </trkpt>
      <trkpt lat="45.5995" lon="6.61826">
        <ele>2152.8000488281</ele>
        <time>2015-04-07T12:26:33.000Z</time>
      </trkpt>
      <trkpt lat="45.59956" lon="6.61833">
        <ele>2151.1999511719</ele>
        <time>2015-04-07T12:26:34.000Z</time>
      </trkpt>
      <trkpt lat="45.59962" lon="6.61837">
        <ele>2149.6000976562</ele>
        <time>2015-04-07T12:26:35.000Z</time>
      </trkpt>
      <trkpt lat="45.59968" lon="6.61841">
        <ele>2148.1999511719</ele>
        <time>2015-04-07T12:26:36.000Z</time>
      </trkpt>
      <trkpt lat="45.59973" lon="6.61844">
        <ele>2147.1999511719</ele>
        <time>2015-04-07T12:26:37.000Z</time>
      </trkpt>
      <trkpt lat="45.5998" lon="6.61852">
        <ele>2146.1999511719</ele>
        <time>2015-04-07T12:26:39.000Z</time>
      </trkpt>
      <trkpt lat="45.59996" lon="6.61848">
        <ele>2146</ele>
        <time>2015-04-07T12:26:40.000Z</time>
      </trkpt>
      <trkpt lat="45.60028" lon="6.61837">
        <ele>2145</ele>
        <time>2015-04-07T12:26:43.000Z</time>
      </trkpt>
      <trkpt lat="45.60041" lon="6.61837">
        <ele>2144.1999511719</ele>
        <time>2015-04-07T12:26:45.000Z</time>
      </trkpt>
      <trkpt lat="45.60046" lon="6.61839">
        <ele>2143.6000976562</ele>
        <time>2015-04-07T12:26:46.000Z</time>
      </trkpt>
      <trkpt lat="45.60051" lon="6.61842">
        <ele>2142.6000976562</ele>
        <time>2015-04-07T12:26:47.000Z</time>
      </trkpt>
      <trkpt lat="45.60058" lon="6.61851">
        <ele>2141.1999511719</ele>
        <time>2015-04-07T12:26:49.000Z</time>
      </trkpt>
      <trkpt lat="45.60063" lon="6.61857">
        <ele>2140.1999511719</ele>
        <time>2015-04-07T12:26:50.000Z</time>
      </trkpt>
      <trkpt lat="45.60067" lon="6.61865">
        <ele>2139.1999511719</ele>
        <time>2015-04-07T12:26:51.000Z</time>
      </trkpt>
      <trkpt lat="45.60076" lon="6.61884">
        <ele>2137.1999511719</ele>
        <time>2015-04-07T12:26:53.000Z</time>
      </trkpt>
      <trkpt lat="45.60081" lon="6.61895">
        <ele>2136.1999511719</ele>
        <time>2015-04-07T12:26:54.000Z</time>
      </trkpt>
      <trkpt lat="45.60087" lon="6.61907">
        <ele>2134.8000488281</ele>
        <time>2015-04-07T12:26:55.000Z</time>
      </trkpt>
      <trkpt lat="45.60093" lon="6.61921">
        <ele>2133.1999511719</ele>
        <time>2015-04-07T12:26:57.000Z</time>
      </trkpt>
      <trkpt lat="45.60099" lon="6.61936">
        <ele>2131.1999511719</ele>
        <time>2015-04-07T12:26:58.000Z</time>
      </trkpt>
      <trkpt lat="45.60106" lon="6.61952">
        <ele>2128.8000488281</ele>
        <time>2015-04-07T12:26:59.000Z</time>
      </trkpt>
      <trkpt lat="45.60114" lon="6.61968">
        <ele>2126.3999023438</ele>
        <time>2015-04-07T12:27:00.000Z</time>
      </trkpt>
      <trkpt lat="45.60121" lon="6.61983">
        <ele>2123.6000976562</ele>
        <time>2015-04-07T12:27:01.000Z</time>
      </trkpt>
      <trkpt lat="45.60129" lon="6.61996">
        <ele>2120.3999023438</ele>
        <time>2015-04-07T12:27:02.000Z</time>
      </trkpt>
      <trkpt lat="45.60139" lon="6.62006">
        <ele>2117</ele>
        <time>2015-04-07T12:27:03.000Z</time>
      </trkpt>
      <trkpt lat="45.60148" lon="6.62015">
        <ele>2113.3999023438</ele>
        <time>2015-04-07T12:27:04.000Z</time>
      </trkpt>
      <trkpt lat="45.60155" lon="6.62026">
        <ele>2110.6000976562</ele>
        <time>2015-04-07T12:27:05.000Z</time>
      </trkpt>
      <trkpt lat="45.60163" lon="6.62036">
        <ele>2108.6000976562</ele>
        <time>2015-04-07T12:27:06.000Z</time>
      </trkpt>
      <trkpt lat="45.6017" lon="6.62046">
        <ele>2107.1999511719</ele>
        <time>2015-04-07T12:27:07.000Z</time>
      </trkpt>
      <trkpt lat="45.60175" lon="6.62055">
        <ele>2106</ele>
        <time>2015-04-07T12:27:08.000Z</time>
      </trkpt>
      <trkpt lat="45.60181" lon="6.62064">
        <ele>2105.1999511719</ele>
        <time>2015-04-07T12:27:09.000Z</time>
      </trkpt>
      <trkpt lat="45.60186" lon="6.62072">
        <ele>2104.1999511719</ele>
        <time>2015-04-07T12:27:10.000Z</time>
      </trkpt>
      <trkpt lat="45.60197" lon="6.62088">
        <ele>2101.8000488281</ele>
        <time>2015-04-07T12:27:12.000Z</time>
      </trkpt>
      <trkpt lat="45.60203" lon="6.62095">
        <ele>2100.6000976562</ele>
        <time>2015-04-07T12:27:13.000Z</time>
      </trkpt>
      <trkpt lat="45.6021" lon="6.621">
        <ele>2099.8000488281</ele>
        <time>2015-04-07T12:27:14.000Z</time>
      </trkpt>
      <trkpt lat="45.60215" lon="6.62105">
        <ele>2098.8000488281</ele>
        <time>2015-04-07T12:27:15.000Z</time>
      </trkpt>
      <trkpt lat="45.60222" lon="6.62111">
        <ele>2097.6000976562</ele>
        <time>2015-04-07T12:27:17.000Z</time>
      </trkpt>
      <trkpt lat="45.60229" lon="6.62107">
        <ele>2096.3999023438</ele>
        <time>2015-04-07T12:27:20.000Z</time>
      </trkpt>
      <trkpt lat="45.60232" lon="6.62101">
        <ele>2096.3999023438</ele>
        <time>2015-04-07T12:27:21.000Z</time>
      </trkpt>
      <trkpt lat="45.60241" lon="6.62118">
        <ele>2096.3999023438</ele>
        <time>2015-04-07T12:27:25.000Z</time>
      </trkpt>
      <trkpt lat="45.60246" lon="6.62101">
        <ele>2095.1999511719</ele>
        <time>2015-04-07T12:27:28.000Z</time>
      </trkpt>
      <trkpt lat="45.60249" lon="6.62075">
        <ele>2094.1999511719</ele>
        <time>2015-04-07T12:27:30.000Z</time>
      </trkpt>
      <trkpt lat="45.60249" lon="6.62075">
        <ele>2093.3999023438</ele>
        <time>2015-04-07T12:27:33.000Z</time>
      </trkpt>
      <trkpt lat="45.60249" lon="6.62075">
        <ele>2093.1999511719</ele>
        <time>2015-04-07T12:27:34.000Z</time>
      </trkpt>
      <trkpt lat="45.60249" lon="6.62075">
        <ele>2092.6000976562</ele>
        <time>2015-04-07T12:27:51.000Z</time>
      </trkpt>
      <trkpt lat="45.60249" lon="6.62075">
        <ele>2092.6000976562</ele>
        <time>2015-04-07T12:28:05.000Z</time>
      </trkpt>
      <trkpt lat="45.60249" lon="6.62073">
        <ele>2092.3999023438</ele>
        <time>2015-04-07T12:28:20.000Z</time>
      </trkpt>
      <trkpt lat="45.60249" lon="6.62073">
        <ele>2092.8000488281</ele>
        <time>2015-04-07T12:28:34.000Z</time>
      </trkpt>
      <trkpt lat="45.60249" lon="6.62073">
        <ele>2092.3999023438</ele>
        <time>2015-04-07T12:28:47.000Z</time>
      </trkpt>
      <trkpt lat="45.60252" lon="6.62071">
        <ele>2092.1999511719</ele>
        <time>2015-04-07T12:28:55.000Z</time>
      </trkpt>
      <trkpt lat="45.60254" lon="6.62072">
        <ele>2092.1999511719</ele>
        <time>2015-04-07T12:28:56.000Z</time>
      </trkpt>
      <trkpt lat="45.60266" lon="6.62076">
        <ele>2091.6000976562</ele>
        <time>2015-04-07T12:29:00.000Z</time>
      </trkpt>
      <trkpt lat="45.60273" lon="6.62077">
        <ele>2091</ele>
        <time>2015-04-07T12:29:02.000Z</time>
      </trkpt>
      <trkpt lat="45.60277" lon="6.62083">
        <ele>2090.8000488281</ele>
        <time>2015-04-07T12:29:03.000Z</time>
      </trkpt>
      <trkpt lat="45.60282" lon="6.62089">
        <ele>2090.3999023438</ele>
        <time>2015-04-07T12:29:04.000Z</time>
      </trkpt>
      <trkpt lat="45.60294" lon="6.62097">
        <ele>2089.3999023438</ele>
        <time>2015-04-07T12:29:06.000Z</time>
      </trkpt>
      <trkpt lat="45.60299" lon="6.621">
        <ele>2088.1999511719</ele>
        <time>2015-04-07T12:29:07.000Z</time>
      </trkpt>
      <trkpt lat="45.60304" lon="6.62089">
        <ele>2086.6000976562</ele>
        <time>2015-04-07T12:29:08.000Z</time>
      </trkpt>
      <trkpt lat="45.60307" lon="6.6208">
        <ele>2084.8000488281</ele>
        <time>2015-04-07T12:29:09.000Z</time>
      </trkpt>
      <trkpt lat="45.60309" lon="6.62073">
        <ele>2083.1999511719</ele>
        <time>2015-04-07T12:29:10.000Z</time>
      </trkpt>
      <trkpt lat="45.60311" lon="6.62068">
        <ele>2082.1999511719</ele>
        <time>2015-04-07T12:29:11.000Z</time>
      </trkpt>
      <trkpt lat="45.60313" lon="6.62065">
        <ele>2080.6000976562</ele>
        <time>2015-04-07T12:29:12.000Z</time>
      </trkpt>
      <trkpt lat="45.60314" lon="6.62062">
        <ele>2080.1999511719</ele>
        <time>2015-04-07T12:29:14.000Z</time>
      </trkpt>
      <trkpt lat="45.6031" lon="6.62065">
        <ele>2079.6000976562</ele>
        <time>2015-04-07T12:29:16.000Z</time>
      </trkpt>
      <trkpt lat="45.60307" lon="6.62068">
        <ele>2079.1999511719</ele>
        <time>2015-04-07T12:29:17.000Z</time>
      </trkpt>
      <trkpt lat="45.60304" lon="6.62077">
        <ele>2077.8000488281</ele>
        <time>2015-04-07T12:29:19.000Z</time>
      </trkpt>
      <trkpt lat="45.60302" lon="6.62081">
        <ele>2076.3999023438</ele>
        <time>2015-04-07T12:29:20.000Z</time>
      </trkpt>
      <trkpt lat="45.60304" lon="6.6209">
        <ele>2075</ele>
        <time>2015-04-07T12:29:21.000Z</time>
      </trkpt>
      <trkpt lat="45.60305" lon="6.62097">
        <ele>2074</ele>
        <time>2015-04-07T12:29:22.000Z</time>
      </trkpt>
      <trkpt lat="45.60309" lon="6.62111">
        <ele>2072.6000976562</ele>
        <time>2015-04-07T12:29:24.000Z</time>
      </trkpt>
      <trkpt lat="45.60312" lon="6.6212">
        <ele>2071.3999023438</ele>
        <time>2015-04-07T12:29:26.000Z</time>
      </trkpt>
      <trkpt lat="45.60315" lon="6.6212">
        <ele>2070</ele>
        <time>2015-04-07T12:29:28.000Z</time>
      </trkpt>
      <trkpt lat="45.60317" lon="6.621">
        <ele>2068.8000488281</ele>
        <time>2015-04-07T12:29:30.000Z</time>
      </trkpt>
      <trkpt lat="45.60316" lon="6.62099">
        <ele>2067.8000488281</ele>
        <time>2015-04-07T12:29:31.000Z</time>
      </trkpt>
      <trkpt lat="45.60317" lon="6.621">
        <ele>2066.1999511719</ele>
        <time>2015-04-07T12:29:32.000Z</time>
      </trkpt>
      <trkpt lat="45.60319" lon="6.62102">
        <ele>2064.3999023438</ele>
        <time>2015-04-07T12:29:33.000Z</time>
      </trkpt>
      <trkpt lat="45.60322" lon="6.62107">
        <ele>2062.1999511719</ele>
        <time>2015-04-07T12:29:34.000Z</time>
      </trkpt>
      <trkpt lat="45.60325" lon="6.62113">
        <ele>2059.8000488281</ele>
        <time>2015-04-07T12:29:35.000Z</time>
      </trkpt>
      <trkpt lat="45.60327" lon="6.62119">
        <ele>2055.1999511719</ele>
        <time>2015-04-07T12:29:36.000Z</time>
      </trkpt>
      <trkpt lat="45.60329" lon="6.62124">
        <ele>2053.3999023438</ele>
        <time>2015-04-07T12:29:37.000Z</time>
      </trkpt>
      <trkpt lat="45.60329" lon="6.62127">
        <ele>2051.8000488281</ele>
        <time>2015-04-07T12:29:38.000Z</time>
      </trkpt>
      <trkpt lat="45.60329" lon="6.62129">
        <ele>2050.3999023438</ele>
        <time>2015-04-07T12:29:39.000Z</time>
      </trkpt>
      <trkpt lat="45.60331" lon="6.62132">
        <ele>2048.8000488281</ele>
        <time>2015-04-07T12:29:41.000Z</time>
      </trkpt>
      <trkpt lat="45.60331" lon="6.62132">
        <ele>2047.8000488281</ele>
        <time>2015-04-07T12:29:45.000Z</time>
      </trkpt>
      <trkpt lat="45.60332" lon="6.62137">
        <ele>2047.8000488281</ele>
        <time>2015-04-07T12:29:52.000Z</time>
      </trkpt>
      <trkpt lat="45.60338" lon="6.62152">
        <ele>2047.5999755859</ele>
        <time>2015-04-07T12:29:55.000Z</time>
      </trkpt>
      <trkpt lat="45.60343" lon="6.62153">
        <ele>2046.5999755859</ele>
        <time>2015-04-07T12:29:57.000Z</time>
      </trkpt>
      <trkpt lat="45.60344" lon="6.62153">
        <ele>2045.5999755859</ele>
        <time>2015-04-07T12:29:58.000Z</time>
      </trkpt>
      <trkpt lat="45.60344" lon="6.62153">
        <ele>2044.5999755859</ele>
        <time>2015-04-07T12:29:59.000Z</time>
      </trkpt>
      <trkpt lat="45.60344" lon="6.62153">
        <ele>2043.4000244141</ele>
        <time>2015-04-07T12:30:00.000Z</time>
      </trkpt>
      <trkpt lat="45.60344" lon="6.62153">
        <ele>2042.8000488281</ele>
        <time>2015-04-07T12:30:10.000Z</time>
      </trkpt>
      <trkpt lat="45.60346" lon="6.62165">
        <ele>2042.5999755859</ele>
        <time>2015-04-07T12:30:14.000Z</time>
      </trkpt>
      <trkpt lat="45.60346" lon="6.62176">
        <ele>2042.4000244141</ele>
        <time>2015-04-07T12:30:16.000Z</time>
      </trkpt>
      <trkpt lat="45.60346" lon="6.62182">
        <ele>2041.8000488281</ele>
        <time>2015-04-07T12:30:17.000Z</time>
      </trkpt>
      <trkpt lat="45.60347" lon="6.6218">
        <ele>2040.5999755859</ele>
        <time>2015-04-07T12:30:18.000Z</time>
      </trkpt>
      <trkpt lat="45.60348" lon="6.62181">
        <ele>2038.8000488281</ele>
        <time>2015-04-07T12:30:19.000Z</time>
      </trkpt>
      <trkpt lat="45.60351" lon="6.62185">
        <ele>2037</ele>
        <time>2015-04-07T12:30:20.000Z</time>
      </trkpt>
      <trkpt lat="45.60354" lon="6.62189">
        <ele>2035</ele>
        <time>2015-04-07T12:30:21.000Z</time>
      </trkpt>
      <trkpt lat="45.60359" lon="6.62191">
        <ele>2032.1999511719</ele>
        <time>2015-04-07T12:30:22.000Z</time>
      </trkpt>
      <trkpt lat="45.60363" lon="6.62191">
        <ele>2029.4000244141</ele>
        <time>2015-04-07T12:30:23.000Z</time>
      </trkpt>
      <trkpt lat="45.60364" lon="6.62194">
        <ele>2025.4000244141</ele>
        <time>2015-04-07T12:30:24.000Z</time>
      </trkpt>
      <trkpt lat="45.60368" lon="6.62197">
        <ele>2023.1999511719</ele>
        <time>2015-04-07T12:30:25.000Z</time>
      </trkpt>
      <trkpt lat="45.60372" lon="6.62198">
        <ele>2020</ele>
        <time>2015-04-07T12:30:26.000Z</time>
      </trkpt>
      <trkpt lat="45.60378" lon="6.62198">
        <ele>2017.1999511719</ele>
        <time>2015-04-07T12:30:27.000Z</time>
      </trkpt>
      <trkpt lat="45.60383" lon="6.62192">
        <ele>2015</ele>
        <time>2015-04-07T12:30:28.000Z</time>
      </trkpt>
      <trkpt lat="45.60387" lon="6.62183">
        <ele>2013</ele>
        <time>2015-04-07T12:30:29.000Z</time>
      </trkpt>
      <trkpt lat="45.60389" lon="6.62172">
        <ele>2010.5999755859</ele>
        <time>2015-04-07T12:30:30.000Z</time>
      </trkpt>
      <trkpt lat="45.60391" lon="6.62163">
        <ele>2007.8000488281</ele>
        <time>2015-04-07T12:30:31.000Z</time>
      </trkpt>
      <trkpt lat="45.60392" lon="6.62155">
        <ele>2005.4000244141</ele>
        <time>2015-04-07T12:30:32.000Z</time>
      </trkpt>
      <trkpt lat="45.60391" lon="6.62151">
        <ele>2003.4000244141</ele>
        <time>2015-04-07T12:30:33.000Z</time>
      </trkpt>
      <trkpt lat="45.60393" lon="6.62148">
        <ele>2001.8000488281</ele>
        <time>2015-04-07T12:30:34.000Z</time>
      </trkpt>
      <trkpt lat="45.60397" lon="6.62146">
        <ele>2000.1999511719</ele>
        <time>2015-04-07T12:30:35.000Z</time>
      </trkpt>
      <trkpt lat="45.60397" lon="6.62144">
        <ele>1998.8000488281</ele>
        <time>2015-04-07T12:30:36.000Z</time>
      </trkpt>
      <trkpt lat="45.60397" lon="6.62144">
        <ele>1997.5999755859</ele>
        <time>2015-04-07T12:30:37.000Z</time>
      </trkpt>
      <trkpt lat="45.60401" lon="6.62143">
        <ele>1996.4000244141</ele>
        <time>2015-04-07T12:30:38.000Z</time>
      </trkpt>
      <trkpt lat="45.60406" lon="6.62143">
        <ele>1995.4000244141</ele>
        <time>2015-04-07T12:30:39.000Z</time>
      </trkpt>
      <trkpt lat="45.6041" lon="6.62146">
        <ele>1993.8000488281</ele>
        <time>2015-04-07T12:30:40.000Z</time>
      </trkpt>
      <trkpt lat="45.6041" lon="6.62149">
        <ele>1991.5999755859</ele>
        <time>2015-04-07T12:30:41.000Z</time>
      </trkpt>
      <trkpt lat="45.60411" lon="6.62151">
        <ele>1989.1999511719</ele>
        <time>2015-04-07T12:30:42.000Z</time>
      </trkpt>
      <trkpt lat="45.6041" lon="6.6215">
        <ele>1987</ele>
        <time>2015-04-07T12:30:43.000Z</time>
      </trkpt>
      <trkpt lat="45.60409" lon="6.62148">
        <ele>1985.1999511719</ele>
        <time>2015-04-07T12:30:44.000Z</time>
      </trkpt>
      <trkpt lat="45.60407" lon="6.62149">
        <ele>1983</ele>
        <time>2015-04-07T12:30:45.000Z</time>
      </trkpt>
      <trkpt lat="45.60407" lon="6.62149">
        <ele>1980.4000244141</ele>
        <time>2015-04-07T12:30:46.000Z</time>
      </trkpt>
      <trkpt lat="45.60404" lon="6.62148">
        <ele>1978</ele>
        <time>2015-04-07T12:30:47.000Z</time>
      </trkpt>
      <trkpt lat="45.60403" lon="6.62148">
        <ele>1975.8000488281</ele>
        <time>2015-04-07T12:30:48.000Z</time>
      </trkpt>
      <trkpt lat="45.60404" lon="6.62149">
        <ele>1972.8000488281</ele>
        <time>2015-04-07T12:30:49.000Z</time>
      </trkpt>
      <trkpt lat="45.60404" lon="6.62149">
        <ele>1970.4000244141</ele>
        <time>2015-04-07T12:30:50.000Z</time>
      </trkpt>
      <trkpt lat="45.60404" lon="6.62149">
        <ele>1967.5999755859</ele>
        <time>2015-04-07T12:30:51.000Z</time>
      </trkpt>
      <trkpt lat="45.60404" lon="6.6215">
        <ele>1964.8000488281</ele>
        <time>2015-04-07T12:30:52.000Z</time>
      </trkpt>
      <trkpt lat="45.60406" lon="6.62153">
        <ele>1962.1999511719</ele>
        <time>2015-04-07T12:30:53.000Z</time>
      </trkpt>
      <trkpt lat="45.6041" lon="6.62156">
        <ele>1959.4000244141</ele>
        <time>2015-04-07T12:30:54.000Z</time>
      </trkpt>
      <trkpt lat="45.60411" lon="6.62158">
        <ele>1956.8000488281</ele>
        <time>2015-04-07T12:30:55.000Z</time>
      </trkpt>
      <trkpt lat="45.60417" lon="6.62163">
        <ele>1954.1999511719</ele>
        <time>2015-04-07T12:30:56.000Z</time>
      </trkpt>
      <trkpt lat="45.60425" lon="6.62169">
        <ele>1951.5999755859</ele>
        <time>2015-04-07T12:30:57.000Z</time>
      </trkpt>
      <trkpt lat="45.6043" lon="6.62177">
        <ele>1949</ele>
        <time>2015-04-07T12:30:58.000Z</time>
      </trkpt>
      <trkpt lat="45.60433" lon="6.62183">
        <ele>1946.5999755859</ele>
        <time>2015-04-07T12:30:59.000Z</time>
      </trkpt>
      <trkpt lat="45.60433" lon="6.62187">
        <ele>1944.5999755859</ele>
        <time>2015-04-07T12:31:00.000Z</time>
      </trkpt>
      <trkpt lat="45.60433" lon="6.6219">
        <ele>1942.8000488281</ele>
        <time>2015-04-07T12:31:01.000Z</time>
      </trkpt>
      <trkpt lat="45.60433" lon="6.62192">
        <ele>1941</ele>
        <time>2015-04-07T12:31:02.000Z</time>
      </trkpt>
      <trkpt lat="45.60434" lon="6.62194">
        <ele>1939.8000488281</ele>
        <time>2015-04-07T12:31:03.000Z</time>
      </trkpt>
      <trkpt lat="45.60435" lon="6.62195">
        <ele>1939</ele>
        <time>2015-04-07T12:31:04.000Z</time>
      </trkpt>
      <trkpt lat="45.60436" lon="6.62196">
        <ele>1938.5999755859</ele>
        <time>2015-04-07T12:31:06.000Z</time>
      </trkpt>
      <trkpt lat="45.60436" lon="6.62196">
        <ele>1939.5999755859</ele>
        <time>2015-04-07T12:31:12.000Z</time>
      </trkpt>
      <trkpt lat="45.60436" lon="6.62196">
        <ele>1939.8000488281</ele>
        <time>2015-04-07T12:31:13.000Z</time>
      </trkpt>
      <trkpt lat="45.60436" lon="6.62196">
        <ele>1938.5999755859</ele>
        <time>2015-04-07T12:31:35.000Z</time>
      </trkpt>
      <trkpt lat="45.60436" lon="6.62196">
        <ele>1938.5999755859</ele>
        <time>2015-04-07T12:31:36.000Z</time>
      </trkpt>
      <trkpt lat="45.60437" lon="6.62198">
        <ele>1938.5999755859</ele>
        <time>2015-04-07T12:31:51.000Z</time>
      </trkpt>
      <trkpt lat="45.60437" lon="6.622">
        <ele>1939</ele>
        <time>2015-04-07T12:31:58.000Z</time>
      </trkpt>
      <trkpt lat="45.60441" lon="6.62202">
        <ele>1939</ele>
        <time>2015-04-07T12:31:59.000Z</time>
      </trkpt>
      <trkpt lat="45.60449" lon="6.62208">
        <ele>1937</ele>
        <time>2015-04-07T12:32:01.000Z</time>
      </trkpt>
      <trkpt lat="45.60454" lon="6.6221">
        <ele>1935.5999755859</ele>
        <time>2015-04-07T12:32:02.000Z</time>
      </trkpt>
      <trkpt lat="45.60457" lon="6.62213">
        <ele>1934.1999511719</ele>
        <time>2015-04-07T12:32:03.000Z</time>
      </trkpt>
      <trkpt lat="45.6046" lon="6.62217">
        <ele>1932.5999755859</ele>
        <time>2015-04-07T12:32:04.000Z</time>
      </trkpt>
      <trkpt lat="45.60461" lon="6.62224">
        <ele>1930.8000488281</ele>
        <time>2015-04-07T12:32:05.000Z</time>
      </trkpt>
      <trkpt lat="45.6046" lon="6.62233">
        <ele>1928.5999755859</ele>
        <time>2015-04-07T12:32:06.000Z</time>
      </trkpt>
      <trkpt lat="45.60461" lon="6.62239">
        <ele>1926.5999755859</ele>
        <time>2015-04-07T12:32:07.000Z</time>
      </trkpt>
      <trkpt lat="45.60457" lon="6.62248">
        <ele>1924.5999755859</ele>
        <time>2015-04-07T12:32:08.000Z</time>
      </trkpt>
      <trkpt lat="45.60454" lon="6.62254">
        <ele>1923</ele>
        <time>2015-04-07T12:32:09.000Z</time>
      </trkpt>
      <trkpt lat="45.60453" lon="6.62261">
        <ele>1921.4000244141</ele>
        <time>2015-04-07T12:32:10.000Z</time>
      </trkpt>
      <trkpt lat="45.60451" lon="6.62272">
        <ele>1920</ele>
        <time>2015-04-07T12:32:12.000Z</time>
      </trkpt>
      <trkpt lat="45.60451" lon="6.62281">
        <ele>1919.5999755859</ele>
        <time>2015-04-07T12:32:13.000Z</time>
      </trkpt>
      <trkpt lat="45.60451" lon="6.62298">
        <ele>1918.8000488281</ele>
        <time>2015-04-07T12:32:15.000Z</time>
      </trkpt>
      <trkpt lat="45.6045" lon="6.62312">
        <ele>1917</ele>
        <time>2015-04-07T12:32:17.000Z</time>
      </trkpt>
      <trkpt lat="45.60449" lon="6.62317">
        <ele>1916</ele>
        <time>2015-04-07T12:32:18.000Z</time>
      </trkpt>
      <trkpt lat="45.60449" lon="6.6232">
        <ele>1915.1999511719</ele>
        <time>2015-04-07T12:32:19.000Z</time>
      </trkpt>
      <trkpt lat="45.60448" lon="6.62321">
        <ele>1914.4000244141</ele>
        <time>2015-04-07T12:32:20.000Z</time>
      </trkpt>
      <trkpt lat="45.60449" lon="6.62322">
        <ele>1913.4000244141</ele>
        <time>2015-04-07T12:32:22.000Z</time>
      </trkpt>
      <trkpt lat="45.60449" lon="6.62322">
        <ele>1913.1999511719</ele>
        <time>2015-04-07T12:32:23.000Z</time>
      </trkpt>
      <trkpt lat="45.60451" lon="6.62325">
        <ele>1913</ele>
        <time>2015-04-07T12:32:31.000Z</time>
      </trkpt>
      <trkpt lat="45.60454" lon="6.62326">
        <ele>1912.8000488281</ele>
        <time>2015-04-07T12:32:32.000Z</time>
      </trkpt>
      <trkpt lat="45.60463" lon="6.62322">
        <ele>1912.1999511719</ele>
        <time>2015-04-07T12:32:35.000Z</time>
      </trkpt>
      <trkpt lat="45.60465" lon="6.62321">
        <ele>1911</ele>
        <time>2015-04-07T12:32:36.000Z</time>
      </trkpt>
      <trkpt lat="45.60467" lon="6.62322">
        <ele>1909.1999511719</ele>
        <time>2015-04-07T12:32:37.000Z</time>
      </trkpt>
      <trkpt lat="45.6047" lon="6.62327">
        <ele>1907.1999511719</ele>
        <time>2015-04-07T12:32:38.000Z</time>
      </trkpt>
      <trkpt lat="45.6047" lon="6.62333">
        <ele>1905.4000244141</ele>
        <time>2015-04-07T12:32:39.000Z</time>
      </trkpt>
      <trkpt lat="45.60471" lon="6.62337">
        <ele>1904</ele>
        <time>2015-04-07T12:32:40.000Z</time>
      </trkpt>
      <trkpt lat="45.6047" lon="6.6234">
        <ele>1902.5999755859</ele>
        <time>2015-04-07T12:32:41.000Z</time>
      </trkpt>
      <trkpt lat="45.60471" lon="6.62343">
        <ele>1901</ele>
        <time>2015-04-07T12:32:42.000Z</time>
      </trkpt>
      <trkpt lat="45.60471" lon="6.62346">
        <ele>1899.5999755859</ele>
        <time>2015-04-07T12:32:43.000Z</time>
      </trkpt>
      <trkpt lat="45.60472" lon="6.6235">
        <ele>1898</ele>
        <time>2015-04-07T12:32:44.000Z</time>
      </trkpt>
      <trkpt lat="45.60475" lon="6.62353">
        <ele>1896</ele>
        <time>2015-04-07T12:32:45.000Z</time>
      </trkpt>
      <trkpt lat="45.60479" lon="6.62353">
        <ele>1894</ele>
        <time>2015-04-07T12:32:46.000Z</time>
      </trkpt>
      <trkpt lat="45.60482" lon="6.62353">
        <ele>1892.4000244141</ele>
        <time>2015-04-07T12:32:47.000Z</time>
      </trkpt>
      <trkpt lat="45.60487" lon="6.62354">
        <ele>1891</ele>
        <time>2015-04-07T12:32:48.000Z</time>
      </trkpt>
      <trkpt lat="45.60492" lon="6.62357">
        <ele>1887.5999755859</ele>
        <time>2015-04-07T12:32:49.000Z</time>
      </trkpt>
      <trkpt lat="45.60495" lon="6.62363">
        <ele>1885.4000244141</ele>
        <time>2015-04-07T12:32:50.000Z</time>
      </trkpt>
      <trkpt lat="45.60499" lon="6.62369">
        <ele>1883.1999511719</ele>
        <time>2015-04-07T12:32:51.000Z</time>
      </trkpt>
      <trkpt lat="45.60504" lon="6.62372">
        <ele>1881.1999511719</ele>
        <time>2015-04-07T12:32:52.000Z</time>
      </trkpt>
      <trkpt lat="45.60508" lon="6.62374">
        <ele>1879.4000244141</ele>
        <time>2015-04-07T12:32:53.000Z</time>
      </trkpt>
      <trkpt lat="45.60513" lon="6.62377">
        <ele>1877.5999755859</ele>
        <time>2015-04-07T12:32:54.000Z</time>
      </trkpt>
      <trkpt lat="45.60517" lon="6.62378">
        <ele>1875.5999755859</ele>
        <time>2015-04-07T12:32:55.000Z</time>
      </trkpt>
      <trkpt lat="45.60521" lon="6.62381">
        <ele>1873.8000488281</ele>
        <time>2015-04-07T12:32:56.000Z</time>
      </trkpt>
      <trkpt lat="45.60525" lon="6.62383">
        <ele>1872.5999755859</ele>
        <time>2015-04-07T12:32:57.000Z</time>
      </trkpt>
      <trkpt lat="45.60529" lon="6.62385">
        <ele>1871.4000244141</ele>
        <time>2015-04-07T12:32:58.000Z</time>
      </trkpt>
      <trkpt lat="45.6053" lon="6.62395">
        <ele>1869.8000488281</ele>
        <time>2015-04-07T12:32:59.000Z</time>
      </trkpt>
      <trkpt lat="45.60532" lon="6.62401">
        <ele>1868.1999511719</ele>
        <time>2015-04-07T12:33:00.000Z</time>
      </trkpt>
      <trkpt lat="45.60533" lon="6.62407">
        <ele>1866.8000488281</ele>
        <time>2015-04-07T12:33:01.000Z</time>
      </trkpt>
      <trkpt lat="45.60533" lon="6.62409">
        <ele>1865.5999755859</ele>
        <time>2015-04-07T12:33:02.000Z</time>
      </trkpt>
      <trkpt lat="45.60534" lon="6.62411">
        <ele>1864.1999511719</ele>
        <time>2015-04-07T12:33:03.000Z</time>
      </trkpt>
      <trkpt lat="45.60538" lon="6.62411">
        <ele>1862.5999755859</ele>
        <time>2015-04-07T12:33:04.000Z</time>
      </trkpt>
      <trkpt lat="45.60538" lon="6.62409">
        <ele>1861.1999511719</ele>
        <time>2015-04-07T12:33:05.000Z</time>
      </trkpt>
      <trkpt lat="45.60535" lon="6.6241">
        <ele>1860</ele>
        <time>2015-04-07T12:33:06.000Z</time>
      </trkpt>
      <trkpt lat="45.60531" lon="6.62411">
        <ele>1858.4000244141</ele>
        <time>2015-04-07T12:33:08.000Z</time>
      </trkpt>
      <trkpt lat="45.60531" lon="6.62416">
        <ele>1857.8000488281</ele>
        <time>2015-04-07T12:33:09.000Z</time>
      </trkpt>
      <trkpt lat="45.60532" lon="6.62422">
        <ele>1857</ele>
        <time>2015-04-07T12:33:10.000Z</time>
      </trkpt>
      <trkpt lat="45.60531" lon="6.62429">
        <ele>1855.1999511719</ele>
        <time>2015-04-07T12:33:12.000Z</time>
      </trkpt>
      <trkpt lat="45.60531" lon="6.62428">
        <ele>1853.8000488281</ele>
        <time>2015-04-07T12:33:13.000Z</time>
      </trkpt>
      <trkpt lat="45.60532" lon="6.62426">
        <ele>1853</ele>
        <time>2015-04-07T12:33:14.000Z</time>
      </trkpt>
      <trkpt lat="45.60531" lon="6.62423">
        <ele>1851.4000244141</ele>
        <time>2015-04-07T12:33:15.000Z</time>
      </trkpt>
      <trkpt lat="45.60531" lon="6.62421">
        <ele>1849.4000244141</ele>
        <time>2015-04-07T12:33:16.000Z</time>
      </trkpt>
      <trkpt lat="45.6053" lon="6.62416">
        <ele>1845.8000488281</ele>
        <time>2015-04-07T12:33:18.000Z</time>
      </trkpt>
      <trkpt lat="45.6053" lon="6.62414">
        <ele>1844.4000244141</ele>
        <time>2015-04-07T12:33:19.000Z</time>
      </trkpt>
      <trkpt lat="45.60529" lon="6.62411">
        <ele>1843.4000244141</ele>
        <time>2015-04-07T12:33:20.000Z</time>
      </trkpt>
      <trkpt lat="45.60533" lon="6.6241">
        <ele>1842.1999511719</ele>
        <time>2015-04-07T12:33:21.000Z</time>
      </trkpt>
      <trkpt lat="45.60535" lon="6.62411">
        <ele>1840.8000488281</ele>
        <time>2015-04-07T12:33:22.000Z</time>
      </trkpt>
      <trkpt lat="45.60535" lon="6.62413">
        <ele>1839</ele>
        <time>2015-04-07T12:33:23.000Z</time>
      </trkpt>
      <trkpt lat="45.60533" lon="6.62416">
        <ele>1837.5999755859</ele>
        <time>2015-04-07T12:33:24.000Z</time>
      </trkpt>
      <trkpt lat="45.60531" lon="6.62418">
        <ele>1836.4000244141</ele>
        <time>2015-04-07T12:33:25.000Z</time>
      </trkpt>
      <trkpt lat="45.60529" lon="6.6242">
        <ele>1835.5999755859</ele>
        <time>2015-04-07T12:33:26.000Z</time>
      </trkpt>
      <trkpt lat="45.6053" lon="6.62419">
        <ele>1834.8000488281</ele>
        <time>2015-04-07T12:33:27.000Z</time>
      </trkpt>
      <trkpt lat="45.60532" lon="6.62422">
        <ele>1833.5999755859</ele>
        <time>2015-04-07T12:33:28.000Z</time>
      </trkpt>
      <trkpt lat="45.60534" lon="6.62423">
        <ele>1831.8000488281</ele>
        <time>2015-04-07T12:33:29.000Z</time>
      </trkpt>
      <trkpt lat="45.60537" lon="6.62425">
        <ele>1829.8000488281</ele>
        <time>2015-04-07T12:33:30.000Z</time>
      </trkpt>
      <trkpt lat="45.6054" lon="6.62427">
        <ele>1828</ele>
        <time>2015-04-07T12:33:31.000Z</time>
      </trkpt>
      <trkpt lat="45.60538" lon="6.62432">
        <ele>1826.4000244141</ele>
        <time>2015-04-07T12:33:32.000Z</time>
      </trkpt>
      <trkpt lat="45.60537" lon="6.62435">
        <ele>1824.8000488281</ele>
        <time>2015-04-07T12:33:33.000Z</time>
      </trkpt>
      <trkpt lat="45.60536" lon="6.62438">
        <ele>1823.1999511719</ele>
        <time>2015-04-07T12:33:34.000Z</time>
      </trkpt>
      <trkpt lat="45.60534" lon="6.62442">
        <ele>1821.8000488281</ele>
        <time>2015-04-07T12:33:35.000Z</time>
      </trkpt>
      <trkpt lat="45.6053" lon="6.62453">
        <ele>1819.8000488281</ele>
        <time>2015-04-07T12:33:37.000Z</time>
      </trkpt>
      <trkpt lat="45.60527" lon="6.62463">
        <ele>1818.5999755859</ele>
        <time>2015-04-07T12:33:39.000Z</time>
      </trkpt>
      <trkpt lat="45.60528" lon="6.62472">
        <ele>1817</ele>
        <time>2015-04-07T12:33:41.000Z</time>
      </trkpt>
      <trkpt lat="45.60529" lon="6.62488">
        <ele>1815.1999511719</ele>
        <time>2015-04-07T12:33:44.000Z</time>
      </trkpt>
      <trkpt lat="45.60531" lon="6.62491">
        <ele>1814</ele>
        <time>2015-04-07T12:33:45.000Z</time>
      </trkpt>
      <trkpt lat="45.60533" lon="6.62492">
        <ele>1812.8000488281</ele>
        <time>2015-04-07T12:33:46.000Z</time>
      </trkpt>
      <trkpt lat="45.60536" lon="6.62496">
        <ele>1811.4000244141</ele>
        <time>2015-04-07T12:33:47.000Z</time>
      </trkpt>
      <trkpt lat="45.60538" lon="6.625">
        <ele>1810</ele>
        <time>2015-04-07T12:33:48.000Z</time>
      </trkpt>
      <trkpt lat="45.60538" lon="6.62507">
        <ele>1808.1999511719</ele>
        <time>2015-04-07T12:33:49.000Z</time>
      </trkpt>
      <trkpt lat="45.6054" lon="6.62511">
        <ele>1806.4000244141</ele>
        <time>2015-04-07T12:33:50.000Z</time>
      </trkpt>
      <trkpt lat="45.60541" lon="6.62515">
        <ele>1804.8000488281</ele>
        <time>2015-04-07T12:33:51.000Z</time>
      </trkpt>
      <trkpt lat="45.60541" lon="6.6252">
        <ele>1803.1999511719</ele>
        <time>2015-04-07T12:33:52.000Z</time>
      </trkpt>
      <trkpt lat="45.6054" lon="6.62526">
        <ele>1801.5999755859</ele>
        <time>2015-04-07T12:33:53.000Z</time>
      </trkpt>
      <trkpt lat="45.60539" lon="6.62533">
        <ele>1799.8000488281</ele>
        <time>2015-04-07T12:33:54.000Z</time>
      </trkpt>
      <trkpt lat="45.60538" lon="6.6254">
        <ele>1798</ele>
        <time>2015-04-07T12:33:55.000Z</time>
      </trkpt>
      <trkpt lat="45.60538" lon="6.62545">
        <ele>1796.1999511719</ele>
        <time>2015-04-07T12:33:56.000Z</time>
      </trkpt>
      <trkpt lat="45.6054" lon="6.62547">
        <ele>1794.8000488281</ele>
        <time>2015-04-07T12:33:57.000Z</time>
      </trkpt>
      <trkpt lat="45.60543" lon="6.62546">
        <ele>1793.1999511719</ele>
        <time>2015-04-07T12:33:58.000Z</time>
      </trkpt>
      <trkpt lat="45.60546" lon="6.62546">
        <ele>1791.4000244141</ele>
        <time>2015-04-07T12:33:59.000Z</time>
      </trkpt>
      <trkpt lat="45.60548" lon="6.62546">
        <ele>1789.4000244141</ele>
        <time>2015-04-07T12:34:00.000Z</time>
      </trkpt>
      <trkpt lat="45.60549" lon="6.62545">
        <ele>1786.1999511719</ele>
        <time>2015-04-07T12:34:01.000Z</time>
      </trkpt>
      <trkpt lat="45.60548" lon="6.62544">
        <ele>1785.1999511719</ele>
        <time>2015-04-07T12:34:03.000Z</time>
      </trkpt>
      <trkpt lat="45.60547" lon="6.62543">
        <ele>1784.8000488281</ele>
        <time>2015-04-07T12:34:05.000Z</time>
      </trkpt>
      <trkpt lat="45.60545" lon="6.62553">
        <ele>1784.4000244141</ele>
        <time>2015-04-07T12:34:08.000Z</time>
      </trkpt>
      <trkpt lat="45.60546" lon="6.6256">
        <ele>1783.8000488281</ele>
        <time>2015-04-07T12:34:09.000Z</time>
      </trkpt>
      <trkpt lat="45.60551" lon="6.62575">
        <ele>1782</ele>
        <time>2015-04-07T12:34:11.000Z</time>
      </trkpt>
      <trkpt lat="45.60551" lon="6.62582">
        <ele>1780.4000244141</ele>
        <time>2015-04-07T12:34:12.000Z</time>
      </trkpt>
      <trkpt lat="45.60551" lon="6.62592">
        <ele>1778.1999511719</ele>
        <time>2015-04-07T12:34:13.000Z</time>
      </trkpt>
      <trkpt lat="45.60554" lon="6.62603">
        <ele>1776</ele>
        <time>2015-04-07T12:34:14.000Z</time>
      </trkpt>
      <trkpt lat="45.60553" lon="6.62614">
        <ele>1774</ele>
        <time>2015-04-07T12:34:15.000Z</time>
      </trkpt>
      <trkpt lat="45.6055" lon="6.62627">
        <ele>1771.5999755859</ele>
        <time>2015-04-07T12:34:16.000Z</time>
      </trkpt>
      <trkpt lat="45.6055" lon="6.6264">
        <ele>1769</ele>
        <time>2015-04-07T12:34:17.000Z</time>
      </trkpt>
      <trkpt lat="45.6055" lon="6.62653">
        <ele>1766.8000488281</ele>
        <time>2015-04-07T12:34:18.000Z</time>
      </trkpt>
      <trkpt lat="45.60551" lon="6.62665">
        <ele>1764.8000488281</ele>
        <time>2015-04-07T12:34:19.000Z</time>
      </trkpt>
      <trkpt lat="45.60552" lon="6.62675">
        <ele>1762.4000244141</ele>
        <time>2015-04-07T12:34:20.000Z</time>
      </trkpt>
      <trkpt lat="45.60551" lon="6.62688">
        <ele>1759.5999755859</ele>
        <time>2015-04-07T12:34:21.000Z</time>
      </trkpt>
      <trkpt lat="45.60551" lon="6.627">
        <ele>1757</ele>
        <time>2015-04-07T12:34:22.000Z</time>
      </trkpt>
      <trkpt lat="45.60553" lon="6.62715">
        <ele>1754.8000488281</ele>
        <time>2015-04-07T12:34:23.000Z</time>
      </trkpt>
      <trkpt lat="45.60555" lon="6.62726">
        <ele>1753.4000244141</ele>
        <time>2015-04-07T12:34:24.000Z</time>
      </trkpt>
      <trkpt lat="45.60559" lon="6.62737">
        <ele>1749.8000488281</ele>
        <time>2015-04-07T12:34:25.000Z</time>
      </trkpt>
      <trkpt lat="45.60565" lon="6.62746">
        <ele>1747.4000244141</ele>
        <time>2015-04-07T12:34:26.000Z</time>
      </trkpt>
      <trkpt lat="45.6057" lon="6.62753">
        <ele>1744.8000488281</ele>
        <time>2015-04-07T12:34:27.000Z</time>
      </trkpt>
      <trkpt lat="45.60577" lon="6.6276">
        <ele>1742.8000488281</ele>
        <time>2015-04-07T12:34:28.000Z</time>
      </trkpt>
      <trkpt lat="45.60586" lon="6.62761">
        <ele>1741</ele>
        <time>2015-04-07T12:34:29.000Z</time>
      </trkpt>
      <trkpt lat="45.60593" lon="6.62767">
        <ele>1739.4000244141</ele>
        <time>2015-04-07T12:34:30.000Z</time>
      </trkpt>
      <trkpt lat="45.60599" lon="6.62764">
        <ele>1738.1999511719</ele>
        <time>2015-04-07T12:34:31.000Z</time>
      </trkpt>
      <trkpt lat="45.60602" lon="6.62763">
        <ele>1736.8000488281</ele>
        <time>2015-04-07T12:34:32.000Z</time>
      </trkpt>
      <trkpt lat="45.60601" lon="6.62746">
        <ele>1735.4000244141</ele>
        <time>2015-04-07T12:34:33.000Z</time>
      </trkpt>
      <trkpt lat="45.60601" lon="6.62739">
        <ele>1733.5999755859</ele>
        <time>2015-04-07T12:34:34.000Z</time>
      </trkpt>
      <trkpt lat="45.60601" lon="6.62739">
        <ele>1731.8000488281</ele>
        <time>2015-04-07T12:34:35.000Z</time>
      </trkpt>
      <trkpt lat="45.60601" lon="6.62739">
        <ele>1730.4000244141</ele>
        <time>2015-04-07T12:34:36.000Z</time>
      </trkpt>
      <trkpt lat="45.60601" lon="6.62739">
        <ele>1729.1999511719</ele>
        <time>2015-04-07T12:34:38.000Z</time>
      </trkpt>
      <trkpt lat="45.60601" lon="6.62739">
        <ele>1728.8000488281</ele>
        <time>2015-04-07T12:34:50.000Z</time>
      </trkpt>
      <trkpt lat="45.60601" lon="6.62739">
        <ele>1728.4000244141</ele>
        <time>2015-04-07T12:35:02.000Z</time>
      </trkpt>
      <trkpt lat="45.60603" lon="6.62743">
        <ele>1728.4000244141</ele>
        <time>2015-04-07T12:35:07.000Z</time>
      </trkpt>
      <trkpt lat="45.60603" lon="6.62748">
        <ele>1728.1999511719</ele>
        <time>2015-04-07T12:35:08.000Z</time>
      </trkpt>
      <trkpt lat="45.60601" lon="6.62756">
        <ele>1728.1999511719</ele>
        <time>2015-04-07T12:35:09.000Z</time>
      </trkpt>
      <trkpt lat="45.60597" lon="6.62765">
        <ele>1728</ele>
        <time>2015-04-07T12:35:10.000Z</time>
      </trkpt>
      <trkpt lat="45.60585" lon="6.62794">
        <ele>1725</ele>
        <time>2015-04-07T12:35:13.000Z</time>
      </trkpt>
      <trkpt lat="45.60581" lon="6.62803">
        <ele>1723.4000244141</ele>
        <time>2015-04-07T12:35:14.000Z</time>
      </trkpt>
      <trkpt lat="45.60576" lon="6.62812">
        <ele>1721.8000488281</ele>
        <time>2015-04-07T12:35:15.000Z</time>
      </trkpt>
      <trkpt lat="45.60571" lon="6.62821">
        <ele>1720.4000244141</ele>
        <time>2015-04-07T12:35:16.000Z</time>
      </trkpt>
      <trkpt lat="45.60566" lon="6.6283">
        <ele>1719.1999511719</ele>
        <time>2015-04-07T12:35:17.000Z</time>
      </trkpt>
      <trkpt lat="45.60561" lon="6.62839">
        <ele>1718.1999511719</ele>
        <time>2015-04-07T12:35:18.000Z</time>
      </trkpt>
      <trkpt lat="45.6055" lon="6.62856">
        <ele>1716.5999755859</ele>
        <time>2015-04-07T12:35:20.000Z</time>
      </trkpt>
      <trkpt lat="45.60544" lon="6.62861">
        <ele>1716</ele>
        <time>2015-04-07T12:35:21.000Z</time>
      </trkpt>
      <trkpt lat="45.60538" lon="6.62866">
        <ele>1715.1999511719</ele>
        <time>2015-04-07T12:35:22.000Z</time>
      </trkpt>
      <trkpt lat="45.60527" lon="6.62875">
        <ele>1713.1999511719</ele>
        <time>2015-04-07T12:35:24.000Z</time>
      </trkpt>
      <trkpt lat="45.60521" lon="6.62882">
        <ele>1712.1999511719</ele>
        <time>2015-04-07T12:35:25.000Z</time>
      </trkpt>
      <trkpt lat="45.60515" lon="6.62889">
        <ele>1711.4000244141</ele>
        <time>2015-04-07T12:35:26.000Z</time>
      </trkpt>
      <trkpt lat="45.60505" lon="6.62901">
        <ele>1710.1999511719</ele>
        <time>2015-04-07T12:35:28.000Z</time>
      </trkpt>
      <trkpt lat="45.60502" lon="6.62909">
        <ele>1709.4000244141</ele>
        <time>2015-04-07T12:35:29.000Z</time>
      </trkpt>
      <trkpt lat="45.60499" lon="6.62914">
        <ele>1708.4000244141</ele>
        <time>2015-04-07T12:35:30.000Z</time>
      </trkpt>
      <trkpt lat="45.60496" lon="6.62918">
        <ele>1707.1999511719</ele>
        <time>2015-04-07T12:35:31.000Z</time>
      </trkpt>
      <trkpt lat="45.60492" lon="6.62922">
        <ele>1706.1999511719</ele>
        <time>2015-04-07T12:35:32.000Z</time>
      </trkpt>
      <trkpt lat="45.60489" lon="6.62925">
        <ele>1705</ele>
        <time>2015-04-07T12:35:33.000Z</time>
      </trkpt>
      <trkpt lat="45.60483" lon="6.62933">
        <ele>1703.4000244141</ele>
        <time>2015-04-07T12:35:35.000Z</time>
      </trkpt>
      <trkpt lat="45.60478" lon="6.6294">
        <ele>1700.1999511719</ele>
        <time>2015-04-07T12:35:37.000Z</time>
      </trkpt>
      <trkpt lat="45.6048" lon="6.62944">
        <ele>1698.5999755859</ele>
        <time>2015-04-07T12:35:38.000Z</time>
      </trkpt>
      <trkpt lat="45.60483" lon="6.62948">
        <ele>1697.4000244141</ele>
        <time>2015-04-07T12:35:39.000Z</time>
      </trkpt>
      <trkpt lat="45.60488" lon="6.62961">
        <ele>1694.4000244141</ele>
        <time>2015-04-07T12:35:42.000Z</time>
      </trkpt>
      <trkpt lat="45.60489" lon="6.62965">
        <ele>1692.5999755859</ele>
        <time>2015-04-07T12:35:43.000Z</time>
      </trkpt>
      <trkpt lat="45.60491" lon="6.62971">
        <ele>1690.8000488281</ele>
        <time>2015-04-07T12:35:44.000Z</time>
      </trkpt>
      <trkpt lat="45.60492" lon="6.62976">
        <ele>1689</ele>
        <time>2015-04-07T12:35:45.000Z</time>
      </trkpt>
      <trkpt lat="45.60489" lon="6.62984">
        <ele>1686.8000488281</ele>
        <time>2015-04-07T12:35:46.000Z</time>
      </trkpt>
      <trkpt lat="45.60483" lon="6.62994">
        <ele>1684.8000488281</ele>
        <time>2015-04-07T12:35:47.000Z</time>
      </trkpt>
      <trkpt lat="45.6048" lon="6.63002">
        <ele>1683</ele>
        <time>2015-04-07T12:35:48.000Z</time>
      </trkpt>
      <trkpt lat="45.60471" lon="6.63015">
        <ele>1681.4000244141</ele>
        <time>2015-04-07T12:35:49.000Z</time>
      </trkpt>
      <trkpt lat="45.60463" lon="6.63028">
        <ele>1679.8000488281</ele>
        <time>2015-04-07T12:35:50.000Z</time>
      </trkpt>
      <trkpt lat="45.60453" lon="6.6304">
        <ele>1678.1999511719</ele>
        <time>2015-04-07T12:35:51.000Z</time>
      </trkpt>
      <trkpt lat="45.60445" lon="6.63053">
        <ele>1677</ele>
        <time>2015-04-07T12:35:52.000Z</time>
      </trkpt>
      <trkpt lat="45.60437" lon="6.63065">
        <ele>1675.8000488281</ele>
        <time>2015-04-07T12:35:53.000Z</time>
      </trkpt>
      <trkpt lat="45.60428" lon="6.63077">
        <ele>1674.5999755859</ele>
        <time>2015-04-07T12:35:54.000Z</time>
      </trkpt>
      <trkpt lat="45.6042" lon="6.63088">
        <ele>1673.4000244141</ele>
        <time>2015-04-07T12:35:55.000Z</time>
      </trkpt>
      <trkpt lat="45.6041" lon="6.63102">
        <ele>1672.1999511719</ele>
        <time>2015-04-07T12:35:56.000Z</time>
      </trkpt>
      <trkpt lat="45.60402" lon="6.63116">
        <ele>1671.4000244141</ele>
        <time>2015-04-07T12:35:57.000Z</time>
      </trkpt>
      <trkpt lat="45.60393" lon="6.63129">
        <ele>1670.5999755859</ele>
        <time>2015-04-07T12:35:58.000Z</time>
      </trkpt>
      <trkpt lat="45.60378" lon="6.63154">
        <ele>1669</ele>
        <time>2015-04-07T12:36:00.000Z</time>
      </trkpt>
      <trkpt lat="45.6037" lon="6.63166">
        <ele>1667</ele>
        <time>2015-04-07T12:36:01.000Z</time>
      </trkpt>
      <trkpt lat="45.60364" lon="6.63179">
        <ele>1665.8000488281</ele>
        <time>2015-04-07T12:36:02.000Z</time>
      </trkpt>
      <trkpt lat="45.60358" lon="6.63189">
        <ele>1664.4000244141</ele>
        <time>2015-04-07T12:36:03.000Z</time>
      </trkpt>
      <trkpt lat="45.60353" lon="6.63198">
        <ele>1663.1999511719</ele>
        <time>2015-04-07T12:36:04.000Z</time>
      </trkpt>
      <trkpt lat="45.60348" lon="6.63206">
        <ele>1662.1999511719</ele>
        <time>2015-04-07T12:36:05.000Z</time>
      </trkpt>
      <trkpt lat="45.60342" lon="6.63213">
        <ele>1661</ele>
        <time>2015-04-07T12:36:06.000Z</time>
      </trkpt>
      <trkpt lat="45.60337" lon="6.63221">
        <ele>1660</ele>
        <time>2015-04-07T12:36:07.000Z</time>
      </trkpt>
      <trkpt lat="45.60331" lon="6.63225">
        <ele>1659.1999511719</ele>
        <time>2015-04-07T12:36:08.000Z</time>
      </trkpt>
      <trkpt lat="45.60325" lon="6.63231">
        <ele>1658.4000244141</ele>
        <time>2015-04-07T12:36:09.000Z</time>
      </trkpt>
      <trkpt lat="45.60307" lon="6.6325">
        <ele>1657</ele>
        <time>2015-04-07T12:36:12.000Z</time>
      </trkpt>
      <trkpt lat="45.60295" lon="6.63266">
        <ele>1655.4000244141</ele>
        <time>2015-04-07T12:36:14.000Z</time>
      </trkpt>
      <trkpt lat="45.60284" lon="6.63281">
        <ele>1653.5999755859</ele>
        <time>2015-04-07T12:36:16.000Z</time>
      </trkpt>
      <trkpt lat="45.60272" lon="6.63295">
        <ele>1652.4000244141</ele>
        <time>2015-04-07T12:36:18.000Z</time>
      </trkpt>
      <trkpt lat="45.60262" lon="6.6331">
        <ele>1650.5999755859</ele>
        <time>2015-04-07T12:36:20.000Z</time>
      </trkpt>
      <trkpt lat="45.60252" lon="6.63327">
        <ele>1649.1999511719</ele>
        <time>2015-04-07T12:36:22.000Z</time>
      </trkpt>
      <trkpt lat="45.60242" lon="6.63346">
        <ele>1648</ele>
        <time>2015-04-07T12:36:24.000Z</time>
      </trkpt>
      <trkpt lat="45.60241" lon="6.63356">
        <ele>1646.5999755859</ele>
        <time>2015-04-07T12:36:25.000Z</time>
      </trkpt>
      <trkpt lat="45.60241" lon="6.63375">
        <ele>1645</ele>
        <time>2015-04-07T12:36:27.000Z</time>
      </trkpt>
      <trkpt lat="45.6024" lon="6.63385">
        <ele>1644.1999511719</ele>
        <time>2015-04-07T12:36:28.000Z</time>
      </trkpt>
      <trkpt lat="45.60239" lon="6.63393">
        <ele>1643.5999755859</ele>
        <time>2015-04-07T12:36:29.000Z</time>
      </trkpt>
      <trkpt lat="45.60232" lon="6.63411">
        <ele>1642.5999755859</ele>
        <time>2015-04-07T12:36:31.000Z</time>
      </trkpt>
      <trkpt lat="45.60227" lon="6.63418">
        <ele>1641.8000488281</ele>
        <time>2015-04-07T12:36:32.000Z</time>
      </trkpt>
      <trkpt lat="45.60223" lon="6.63427">
        <ele>1640.8000488281</ele>
        <time>2015-04-07T12:36:33.000Z</time>
      </trkpt>
      <trkpt lat="45.6022" lon="6.63434">
        <ele>1639.5999755859</ele>
        <time>2015-04-07T12:36:34.000Z</time>
      </trkpt>
      <trkpt lat="45.60214" lon="6.63446">
        <ele>1637.8000488281</ele>
        <time>2015-04-07T12:36:36.000Z</time>
      </trkpt>
      <trkpt lat="45.60211" lon="6.63451">
        <ele>1637.4000244141</ele>
        <time>2015-04-07T12:36:37.000Z</time>
      </trkpt>
      <trkpt lat="45.60203" lon="6.6347">
        <ele>1637</ele>
        <time>2015-04-07T12:36:42.000Z</time>
      </trkpt>
      <trkpt lat="45.60196" lon="6.63489">
        <ele>1637.5999755859</ele>
        <time>2015-04-07T12:36:47.000Z</time>
      </trkpt>
      <trkpt lat="45.6019" lon="6.63501">
        <ele>1636.8000488281</ele>
        <time>2015-04-07T12:36:52.000Z</time>
      </trkpt>
      <trkpt lat="45.6019" lon="6.63502">
        <ele>1636.8000488281</ele>
        <time>2015-04-07T12:36:54.000Z</time>
      </trkpt>
      <trkpt lat="45.6019" lon="6.63502">
        <ele>1636.8000488281</ele>
        <time>2015-04-07T12:37:05.000Z</time>
      </trkpt>
      <trkpt lat="45.60189" lon="6.63502">
        <ele>1637.1999511719</ele>
        <time>2015-04-07T12:37:20.000Z</time>
      </trkpt>
      <trkpt lat="45.60182" lon="6.63515">
        <ele>1636.5999755859</ele>
        <time>2015-04-07T12:37:25.000Z</time>
      </trkpt>
      <trkpt lat="45.60175" lon="6.63527">
        <ele>1635.8000488281</ele>
        <time>2015-04-07T12:37:30.000Z</time>
      </trkpt>
      <trkpt lat="45.60174" lon="6.63528">
        <ele>1635.8000488281</ele>
        <time>2015-04-07T12:37:31.000Z</time>
      </trkpt>
      <trkpt lat="45.60173" lon="6.63543">
        <ele>1635.4000244141</ele>
        <time>2015-04-07T12:37:36.000Z</time>
      </trkpt>
      <trkpt lat="45.6017" lon="6.63573">
        <ele>1635</ele>
        <time>2015-04-07T12:37:44.000Z</time>
      </trkpt>
      <trkpt lat="45.60169" lon="6.63577">
        <ele>1634.8000488281</ele>
        <time>2015-04-07T12:37:45.000Z</time>
      </trkpt>
      <trkpt lat="45.60153" lon="6.63612">
        <ele>1633.5999755859</ele>
        <time>2015-04-07T12:37:54.000Z</time>
      </trkpt>
      <trkpt lat="45.60142" lon="6.63626">
        <ele>1632.5999755859</ele>
        <time>2015-04-07T12:37:59.000Z</time>
      </trkpt>
      <trkpt lat="45.60137" lon="6.63629">
        <ele>1631.8000488281</ele>
        <time>2015-04-07T12:38:01.000Z</time>
      </trkpt>
      <trkpt lat="45.60132" lon="6.63629">
        <ele>1631.1999511719</ele>
        <time>2015-04-07T12:38:03.000Z</time>
      </trkpt>
      <trkpt lat="45.60124" lon="6.63633">
        <ele>1630.8000488281</ele>
        <time>2015-04-07T12:38:05.000Z</time>
      </trkpt>
      <trkpt lat="45.6012" lon="6.63635">
        <ele>1630.5999755859</ele>
        <time>2015-04-07T12:38:06.000Z</time>
      </trkpt>
      <trkpt lat="45.60111" lon="6.63641">
        <ele>1629.8000488281</ele>
        <time>2015-04-07T12:38:08.000Z</time>
      </trkpt>
      <trkpt lat="45.60102" lon="6.63646">
        <ele>1628.5999755859</ele>
        <time>2015-04-07T12:38:10.000Z</time>
      </trkpt>
      <trkpt lat="45.60093" lon="6.63652">
        <ele>1627.5999755859</ele>
        <time>2015-04-07T12:38:12.000Z</time>
      </trkpt>
      <trkpt lat="45.60089" lon="6.63656">
        <ele>1626.8000488281</ele>
        <time>2015-04-07T12:38:13.000Z</time>
      </trkpt>
      <trkpt lat="45.60074" lon="6.63668">
        <ele>1625.4000244141</ele>
        <time>2015-04-07T12:38:16.000Z</time>
      </trkpt>
      <trkpt lat="45.6007" lon="6.63673">
        <ele>1625</ele>
        <time>2015-04-07T12:38:17.000Z</time>
      </trkpt>
      <trkpt lat="45.60062" lon="6.63684">
        <ele>1624.5999755859</ele>
        <time>2015-04-07T12:38:19.000Z</time>
      </trkpt>
      <trkpt lat="45.60051" lon="6.63701">
        <ele>1623.5999755859</ele>
        <time>2015-04-07T12:38:22.000Z</time>
      </trkpt>
      <trkpt lat="45.60043" lon="6.63716">
        <ele>1622.5999755859</ele>
        <time>2015-04-07T12:38:25.000Z</time>
      </trkpt>
      <trkpt lat="45.6004" lon="6.63721">
        <ele>1622.4000244141</ele>
        <time>2015-04-07T12:38:26.000Z</time>
      </trkpt>
      <trkpt lat="45.60024" lon="6.63748">
        <ele>1621.8000488281</ele>
        <time>2015-04-07T12:38:33.000Z</time>
      </trkpt>
      <trkpt lat="45.60018" lon="6.63755">
        <ele>1621.5999755859</ele>
        <time>2015-04-07T12:38:35.000Z</time>
      </trkpt>
      <trkpt lat="45.60005" lon="6.63765">
        <ele>1620.8000488281</ele>
        <time>2015-04-07T12:38:40.000Z</time>
      </trkpt>
      <trkpt lat="45.6" lon="6.63768">
        <ele>1620.5999755859</ele>
        <time>2015-04-07T12:38:43.000Z</time>
      </trkpt>
      <trkpt lat="45.5998" lon="6.6378">
        <ele>1620.4000244141</ele>
        <time>2015-04-07T12:38:49.000Z</time>
      </trkpt>
      <trkpt lat="45.59964" lon="6.63797">
        <ele>1619.4000244141</ele>
        <time>2015-04-07T12:38:55.000Z</time>
      </trkpt>
      <trkpt lat="45.59961" lon="6.638">
        <ele>1619.1999511719</ele>
        <time>2015-04-07T12:38:56.000Z</time>
      </trkpt>
      <trkpt lat="45.59951" lon="6.63812">
        <ele>1618.1999511719</ele>
        <time>2015-04-07T12:38:59.000Z</time>
      </trkpt>
      <trkpt lat="45.5994" lon="6.63824">
        <ele>1617</ele>
        <time>2015-04-07T12:39:02.000Z</time>
      </trkpt>
      <trkpt lat="45.59936" lon="6.63827">
        <ele>1616.5999755859</ele>
        <time>2015-04-07T12:39:03.000Z</time>
      </trkpt>
      <trkpt lat="45.59923" lon="6.6384">
        <ele>1615.8000488281</ele>
        <time>2015-04-07T12:39:07.000Z</time>
      </trkpt>
      <trkpt lat="45.59914" lon="6.63846">
        <ele>1615.1999511719</ele>
        <time>2015-04-07T12:39:10.000Z</time>
      </trkpt>
      <trkpt lat="45.59908" lon="6.6385">
        <ele>1614.8000488281</ele>
        <time>2015-04-07T12:39:13.000Z</time>
      </trkpt>
      <trkpt lat="45.59904" lon="6.63851">
        <ele>1614.5999755859</ele>
        <time>2015-04-07T12:39:15.000Z</time>
      </trkpt>
      <trkpt lat="45.5989" lon="6.63863">
        <ele>1614.4000244141</ele>
        <time>2015-04-07T12:39:23.000Z</time>
      </trkpt>
      <trkpt lat="45.59878" lon="6.63881">
        <ele>1614</ele>
        <time>2015-04-07T12:39:29.000Z</time>
      </trkpt>
      <trkpt lat="45.59875" lon="6.63886">
        <ele>1613.5999755859</ele>
        <time>2015-04-07T12:39:31.000Z</time>
      </trkpt>
      <trkpt lat="45.5987" lon="6.63898">
        <ele>1613</ele>
        <time>2015-04-07T12:39:35.000Z</time>
      </trkpt>
      <trkpt lat="45.59868" lon="6.63902">
        <ele>1612.5999755859</ele>
        <time>2015-04-07T12:39:37.000Z</time>
      </trkpt>
      <trkpt lat="45.59868" lon="6.63904">
        <ele>1612.4000244141</ele>
        <time>2015-04-07T12:39:40.000Z</time>
      </trkpt>
      <trkpt lat="45.59865" lon="6.63916">
        <ele>1611.8000488281</ele>
        <time>2015-04-07T12:39:48.000Z</time>
      </trkpt>
      <trkpt lat="45.59863" lon="6.6392">
        <ele>1611.5999755859</ele>
        <time>2015-04-07T12:39:50.000Z</time>
      </trkpt>
      <trkpt lat="45.59857" lon="6.63928">
        <ele>1611.1999511719</ele>
        <time>2015-04-07T12:39:55.000Z</time>
      </trkpt>
      <trkpt lat="45.59849" lon="6.63939">
        <ele>1611</ele>
        <time>2015-04-07T12:40:02.000Z</time>
      </trkpt>
      <trkpt lat="45.59843" lon="6.63951">
        <ele>1610.5999755859</ele>
        <time>2015-04-07T12:40:09.000Z</time>
      </trkpt>
      <trkpt lat="45.5984" lon="6.63956">
        <ele>1610.4000244141</ele>
        <time>2015-04-07T12:40:12.000Z</time>
      </trkpt>
      <trkpt lat="45.59834" lon="6.63963">
        <ele>1610</ele>
        <time>2015-04-07T12:40:18.000Z</time>
      </trkpt>
      <trkpt lat="45.59823" lon="6.6398">
        <ele>1609.4000244141</ele>
        <time>2015-04-07T12:40:23.000Z</time>
      </trkpt>
      <trkpt lat="45.59819" lon="6.63988">
        <ele>1608.8000488281</ele>
        <time>2015-04-07T12:40:25.000Z</time>
      </trkpt>
      <trkpt lat="45.59817" lon="6.63992">
        <ele>1608.4000244141</ele>
        <time>2015-04-07T12:40:26.000Z</time>
      </trkpt>
      <trkpt lat="45.59804" lon="6.64015">
        <ele>1607.1999511719</ele>
        <time>2015-04-07T12:40:31.000Z</time>
      </trkpt>
      <trkpt lat="45.59801" lon="6.64018">
        <ele>1607</ele>
        <time>2015-04-07T12:40:32.000Z</time>
      </trkpt>
      <trkpt lat="45.59784" lon="6.64039">
        <ele>1606.4000244141</ele>
        <time>2015-04-07T12:40:37.000Z</time>
      </trkpt>
      <trkpt lat="45.59779" lon="6.64044">
        <ele>1606</ele>
        <time>2015-04-07T12:40:38.000Z</time>
      </trkpt>
      <trkpt lat="45.59769" lon="6.64059">
        <ele>1605.4000244141</ele>
        <time>2015-04-07T12:40:41.000Z</time>
      </trkpt>
      <trkpt lat="45.59766" lon="6.64064">
        <ele>1605.1999511719</ele>
        <time>2015-04-07T12:40:42.000Z</time>
      </trkpt>
      <trkpt lat="45.59764" lon="6.64069">
        <ele>1604.8000488281</ele>
        <time>2015-04-07T12:40:43.000Z</time>
      </trkpt>
      <trkpt lat="45.59759" lon="6.64078">
        <ele>1603.5999755859</ele>
        <time>2015-04-07T12:40:45.000Z</time>
      </trkpt>
      <trkpt lat="45.59752" lon="6.64084">
        <ele>1602.4000244141</ele>
        <time>2015-04-07T12:40:47.000Z</time>
      </trkpt>
      <trkpt lat="45.59749" lon="6.64086">
        <ele>1602</ele>
        <time>2015-04-07T12:40:48.000Z</time>
      </trkpt>
      <trkpt lat="45.59726" lon="6.64097">
        <ele>1601.5999755859</ele>
        <time>2015-04-07T12:40:55.000Z</time>
      </trkpt>
      <trkpt lat="45.59711" lon="6.64109">
        <ele>1601.4000244141</ele>
        <time>2015-04-07T12:41:01.000Z</time>
      </trkpt>
      <trkpt lat="45.59707" lon="6.64112">
        <ele>1601</ele>
        <time>2015-04-07T12:41:03.000Z</time>
      </trkpt>
      <trkpt lat="45.5969" lon="6.64124">
        <ele>1600.1999511719</ele>
        <time>2015-04-07T12:41:11.000Z</time>
      </trkpt>
      <trkpt lat="45.59672" lon="6.64137">
        <ele>1600</ele>
        <time>2015-04-07T12:41:19.000Z</time>
      </trkpt>
      <trkpt lat="45.59656" lon="6.6415">
        <ele>1599.8000488281</ele>
        <time>2015-04-07T12:41:26.000Z</time>
      </trkpt>
      <trkpt lat="45.59639" lon="6.64158">
        <ele>1599.1999511719</ele>
        <time>2015-04-07T12:41:33.000Z</time>
      </trkpt>
      <trkpt lat="45.59636" lon="6.6416">
        <ele>1599</ele>
        <time>2015-04-07T12:41:34.000Z</time>
      </trkpt>
      <trkpt lat="45.59624" lon="6.64169">
        <ele>1598</ele>
        <time>2015-04-07T12:41:37.000Z</time>
      </trkpt>
      <trkpt lat="45.5962" lon="6.64173">
        <ele>1597.5999755859</ele>
        <time>2015-04-07T12:41:38.000Z</time>
      </trkpt>
      <trkpt lat="45.59612" lon="6.64182">
        <ele>1597</ele>
        <time>2015-04-07T12:41:40.000Z</time>
      </trkpt>
      <trkpt lat="45.59608" lon="6.64184">
        <ele>1596.5999755859</ele>
        <time>2015-04-07T12:41:41.000Z</time>
      </trkpt>
      <trkpt lat="45.59601" lon="6.64188">
        <ele>1595.5999755859</ele>
        <time>2015-04-07T12:41:43.000Z</time>
      </trkpt>
      <trkpt lat="45.59598" lon="6.64189">
        <ele>1595.4000244141</ele>
        <time>2015-04-07T12:41:44.000Z</time>
      </trkpt>
      <trkpt lat="45.59593" lon="6.6419">
        <ele>1595.4000244141</ele>
        <time>2015-04-07T12:41:46.000Z</time>
      </trkpt>
      <trkpt lat="45.5959" lon="6.64191">
        <ele>1595.4000244141</ele>
        <time>2015-04-07T12:41:47.000Z</time>
      </trkpt>
      <trkpt lat="45.59576" lon="6.64206">
        <ele>1595.5999755859</ele>
        <time>2015-04-07T12:41:52.000Z</time>
      </trkpt>
      <trkpt lat="45.5956" lon="6.64227">
        <ele>1594.1999511719</ele>
        <time>2015-04-07T12:41:59.000Z</time>
      </trkpt>
      <trkpt lat="45.59556" lon="6.64237">
        <ele>1593.5999755859</ele>
        <time>2015-04-07T12:42:02.000Z</time>
      </trkpt>
      <trkpt lat="45.59545" lon="6.64258">
        <ele>1593.1999511719</ele>
        <time>2015-04-07T12:42:09.000Z</time>
      </trkpt>
      <trkpt lat="45.59536" lon="6.64265">
        <ele>1593.1999511719</ele>
        <time>2015-04-07T12:42:15.000Z</time>
      </trkpt>
      <trkpt lat="45.59531" lon="6.6427">
        <ele>1593</ele>
        <time>2015-04-07T12:42:18.000Z</time>
      </trkpt>
      <trkpt lat="45.59521" lon="6.64275">
        <ele>1592.4000244141</ele>
        <time>2015-04-07T12:42:23.000Z</time>
      </trkpt>
      <trkpt lat="45.59515" lon="6.64278">
        <ele>1592</ele>
        <time>2015-04-07T12:42:26.000Z</time>
      </trkpt>
      <trkpt lat="45.59504" lon="6.64281">
        <ele>1591.5999755859</ele>
        <time>2015-04-07T12:42:31.000Z</time>
      </trkpt>
      <trkpt lat="45.5949" lon="6.6429">
        <ele>1592.1999511719</ele>
        <time>2015-04-07T12:42:38.000Z</time>
      </trkpt>
      <trkpt lat="45.59475" lon="6.64302">
        <ele>1590.8000488281</ele>
        <time>2015-04-07T12:42:44.000Z</time>
      </trkpt>
      <trkpt lat="45.59469" lon="6.64306">
        <ele>1590.1999511719</ele>
        <time>2015-04-07T12:42:46.000Z</time>
      </trkpt>
      <trkpt lat="45.59466" lon="6.64308">
        <ele>1589.8000488281</ele>
        <time>2015-04-07T12:42:47.000Z</time>
      </trkpt>
      <trkpt lat="45.59459" lon="6.64312">
        <ele>1588.8000488281</ele>
        <time>2015-04-07T12:42:49.000Z</time>
      </trkpt>
      <trkpt lat="45.59441" lon="6.6432">
        <ele>1588</ele>
        <time>2015-04-07T12:42:54.000Z</time>
      </trkpt>
      <trkpt lat="45.59431" lon="6.64324">
        <ele>1587.8000488281</ele>
        <time>2015-04-07T12:42:57.000Z</time>
      </trkpt>
      <trkpt lat="45.59419" lon="6.64329">
        <ele>1587</ele>
        <time>2015-04-07T12:43:02.000Z</time>
      </trkpt>
      <trkpt lat="45.59413" lon="6.64329">
        <ele>1586.5999755859</ele>
        <time>2015-04-07T12:43:05.000Z</time>
      </trkpt>
      <trkpt lat="45.59409" lon="6.6433">
        <ele>1586.4000244141</ele>
        <time>2015-04-07T12:43:07.000Z</time>
      </trkpt>
      <trkpt lat="45.59404" lon="6.64335">
        <ele>1586.4000244141</ele>
        <time>2015-04-07T12:43:10.000Z</time>
      </trkpt>
      <trkpt lat="45.59402" lon="6.64336">
        <ele>1586.1999511719</ele>
        <time>2015-04-07T12:43:11.000Z</time>
      </trkpt>
      <trkpt lat="45.59394" lon="6.6434">
        <ele>1585.5999755859</ele>
        <time>2015-04-07T12:43:15.000Z</time>
      </trkpt>
      <trkpt lat="45.59388" lon="6.64343">
        <ele>1585.5999755859</ele>
        <time>2015-04-07T12:43:18.000Z</time>
      </trkpt>
      <trkpt lat="45.59371" lon="6.64342">
        <ele>1585.1999511719</ele>
        <time>2015-04-07T12:43:24.000Z</time>
      </trkpt>
      <trkpt lat="45.59354" lon="6.64343">
        <ele>1585</ele>
        <time>2015-04-07T12:43:31.000Z</time>
      </trkpt>
      <trkpt lat="45.59345" lon="6.64343">
        <ele>1586.1999511719</ele>
        <time>2015-04-07T12:43:37.000Z</time>
      </trkpt>
      <trkpt lat="45.59344" lon="6.64343">
        <ele>1585.8000488281</ele>
        <time>2015-04-07T12:43:45.000Z</time>
      </trkpt>
      <trkpt lat="45.59344" lon="6.64343">
        <ele>1586.4000244141</ele>
        <time>2015-04-07T12:44:00.000Z</time>
      </trkpt>
      <trkpt lat="45.59343" lon="6.64343">
        <ele>1586.4000244141</ele>
        <time>2015-04-07T12:44:08.000Z</time>
      </trkpt>
      <trkpt lat="45.59343" lon="6.64343">
        <ele>1586.4000244141</ele>
        <time>2015-04-07T12:44:22.000Z</time>
      </trkpt>
      <trkpt lat="45.59343" lon="6.64343">
        <ele>1586.5999755859</ele>
        <time>2015-04-07T12:44:31.000Z</time>
      </trkpt>
      <trkpt lat="45.59343" lon="6.64343">
        <ele>1586.1999511719</ele>
        <time>2015-04-07T12:44:35.000Z</time>
      </trkpt>
      <trkpt lat="45.59343" lon="6.64343">
        <ele>1586.5999755859</ele>
        <time>2015-04-07T12:44:47.000Z</time>
      </trkpt>
      <trkpt lat="45.59343" lon="6.64343">
        <ele>1586.5999755859</ele>
        <time>2015-04-07T12:45:02.000Z</time>
      </trkpt>
      <trkpt lat="45.59343" lon="6.64343">
        <ele>1586.4000244141</ele>
        <time>2015-04-07T12:45:20.000Z</time>
      </trkpt>
      <trkpt lat="45.59342" lon="6.64344">
        <ele>1586.4000244141</ele>
        <time>2015-04-07T12:45:33.000Z</time>
      </trkpt>
      <trkpt lat="45.5934" lon="6.64344">
        <ele>1586.4000244141</ele>
        <time>2015-04-07T12:45:48.000Z</time>
      </trkpt>
      <trkpt lat="45.59335" lon="6.64347">
        <ele>1587</ele>
        <time>2015-04-07T12:45:56.000Z</time>
      </trkpt>
      <trkpt lat="45.59326" lon="6.64351">
        <ele>1587</ele>
        <time>2015-04-07T12:46:03.000Z</time>
      </trkpt>
      <trkpt lat="45.59318" lon="6.64357">
        <ele>1587.8000488281</ele>
        <time>2015-04-07T12:46:09.000Z</time>
      </trkpt>
      <trkpt lat="45.59314" lon="6.64361">
        <ele>1587.5999755859</ele>
        <time>2015-04-07T12:46:15.000Z</time>
      </trkpt>
      <trkpt lat="45.59308" lon="6.64369">
        <ele>1587.1999511719</ele>
        <time>2015-04-07T12:46:22.000Z</time>
      </trkpt>
      <trkpt lat="45.593" lon="6.64381">
        <ele>1586.8000488281</ele>
        <time>2015-04-07T12:46:30.000Z</time>
      </trkpt>
      <trkpt lat="45.59299" lon="6.64382">
        <ele>1586.8000488281</ele>
        <time>2015-04-07T12:46:31.000Z</time>
      </trkpt>
      <trkpt lat="45.59288" lon="6.64398">
        <ele>1586.8000488281</ele>
        <time>2015-04-07T12:46:39.000Z</time>
      </trkpt>
      <trkpt lat="45.59275" lon="6.64414">
        <ele>1586.4000244141</ele>
        <time>2015-04-07T12:46:46.000Z</time>
      </trkpt>
      <trkpt lat="45.59257" lon="6.64437">
        <ele>1587</ele>
        <time>2015-04-07T12:46:57.000Z</time>
      </trkpt>
      <trkpt lat="45.59244" lon="6.64454">
        <ele>1587.4000244141</ele>
        <time>2015-04-07T12:47:07.000Z</time>
      </trkpt>
      <trkpt lat="45.59229" lon="6.64474">
        <ele>1587.4000244141</ele>
        <time>2015-04-07T12:47:16.000Z</time>
      </trkpt>
      <trkpt lat="45.59215" lon="6.64491">
        <ele>1586.4000244141</ele>
        <time>2015-04-07T12:47:24.000Z</time>
      </trkpt>
      <trkpt lat="45.59202" lon="6.64503">
        <ele>1585.8000488281</ele>
        <time>2015-04-07T12:47:28.000Z</time>
      </trkpt>
      <trkpt lat="45.59192" lon="6.64521">
        <ele>1584.5999755859</ele>
        <time>2015-04-07T12:47:32.000Z</time>
      </trkpt>
      <trkpt lat="45.59185" lon="6.64535">
        <ele>1583.5999755859</ele>
        <time>2015-04-07T12:47:35.000Z</time>
      </trkpt>
      <trkpt lat="45.59174" lon="6.64547">
        <ele>1582.1999511719</ele>
        <time>2015-04-07T12:47:38.000Z</time>
      </trkpt>
      <trkpt lat="45.59171" lon="6.64549">
        <ele>1581.8000488281</ele>
        <time>2015-04-07T12:47:39.000Z</time>
      </trkpt>
      <trkpt lat="45.59158" lon="6.64557">
        <ele>1580.8000488281</ele>
        <time>2015-04-07T12:47:42.000Z</time>
      </trkpt>
      <trkpt lat="45.59145" lon="6.64567">
        <ele>1580.4000244141</ele>
        <time>2015-04-07T12:47:46.000Z</time>
      </trkpt>
      <trkpt lat="45.59123" lon="6.64585">
        <ele>1580.8000488281</ele>
        <time>2015-04-07T12:47:54.000Z</time>
      </trkpt>
      <trkpt lat="45.59102" lon="6.64604">
        <ele>1580.5999755859</ele>
        <time>2015-04-07T12:48:02.000Z</time>
      </trkpt>
      <trkpt lat="45.59091" lon="6.64617">
        <ele>1580.4000244141</ele>
        <time>2015-04-07T12:48:07.000Z</time>
      </trkpt>
      <trkpt lat="45.5907" lon="6.64634">
        <ele>1580.4000244141</ele>
        <time>2015-04-07T12:48:14.000Z</time>
      </trkpt>
      <trkpt lat="45.59065" lon="6.64638">
        <ele>1579.8000488281</ele>
        <time>2015-04-07T12:48:16.000Z</time>
      </trkpt>
      <trkpt lat="45.59056" lon="6.64642">
        <ele>1578.5999755859</ele>
        <time>2015-04-07T12:48:19.000Z</time>
      </trkpt>
      <trkpt lat="45.59046" lon="6.64653">
        <ele>1578</ele>
        <time>2015-04-07T12:48:22.000Z</time>
      </trkpt>
      <trkpt lat="45.59039" lon="6.64662">
        <ele>1577.5999755859</ele>
        <time>2015-04-07T12:48:24.000Z</time>
      </trkpt>
      <trkpt lat="45.59019" lon="6.64679">
        <ele>1576.4000244141</ele>
        <time>2015-04-07T12:48:28.000Z</time>
      </trkpt>
      <trkpt lat="45.59003" lon="6.64707">
        <ele>1575.4000244141</ele>
        <time>2015-04-07T12:48:33.000Z</time>
      </trkpt>
      <trkpt lat="45.59" lon="6.64712">
        <ele>1575.1999511719</ele>
        <time>2015-04-07T12:48:34.000Z</time>
      </trkpt>
      <trkpt lat="45.5899" lon="6.64722">
        <ele>1574</ele>
        <time>2015-04-07T12:48:37.000Z</time>
      </trkpt>
      <trkpt lat="45.58983" lon="6.64726">
        <ele>1573.4000244141</ele>
        <time>2015-04-07T12:48:39.000Z</time>
      </trkpt>
      <trkpt lat="45.58978" lon="6.64732">
        <ele>1572.8000488281</ele>
        <time>2015-04-07T12:48:41.000Z</time>
      </trkpt>
      <trkpt lat="45.58971" lon="6.64738">
        <ele>1571.5999755859</ele>
        <time>2015-04-07T12:48:44.000Z</time>
      </trkpt>
      <trkpt lat="45.58963" lon="6.64742">
        <ele>1570.8000488281</ele>
        <time>2015-04-07T12:48:48.000Z</time>
      </trkpt>
      <trkpt lat="45.58961" lon="6.64742">
        <ele>1570.5999755859</ele>
        <time>2015-04-07T12:48:49.000Z</time>
      </trkpt>
      <trkpt lat="45.58946" lon="6.64743">
        <ele>1569.4000244141</ele>
        <time>2015-04-07T12:48:55.000Z</time>
      </trkpt>
      <trkpt lat="45.58939" lon="6.64745">
        <ele>1569</ele>
        <time>2015-04-07T12:48:57.000Z</time>
      </trkpt>
      <trkpt lat="45.58923" lon="6.64758">
        <ele>1568.4000244141</ele>
        <time>2015-04-07T12:49:01.000Z</time>
      </trkpt>
      <trkpt lat="45.58919" lon="6.64761">
        <ele>1568.4000244141</ele>
        <time>2015-04-07T12:49:02.000Z</time>
      </trkpt>
      <trkpt lat="45.58905" lon="6.64776">
        <ele>1567.1999511719</ele>
        <time>2015-04-07T12:49:06.000Z</time>
      </trkpt>
      <trkpt lat="45.589" lon="6.64781">
        <ele>1566.8000488281</ele>
        <time>2015-04-07T12:49:08.000Z</time>
      </trkpt>
      <trkpt lat="45.58892" lon="6.64787">
        <ele>1566.1999511719</ele>
        <time>2015-04-07T12:49:13.000Z</time>
      </trkpt>
      <trkpt lat="45.58891" lon="6.64788">
        <ele>1565.8000488281</ele>
        <time>2015-04-07T12:49:14.000Z</time>
      </trkpt>
      <trkpt lat="45.58891" lon="6.64788">
        <ele>1564.5999755859</ele>
        <time>2015-04-07T12:49:19.000Z</time>
      </trkpt>
      <trkpt lat="45.58891" lon="6.64789">
        <ele>1565.5999755859</ele>
        <time>2015-04-07T12:49:29.000Z</time>
      </trkpt>
      <trkpt lat="45.58891" lon="6.64789">
        <ele>1565.8000488281</ele>
        <time>2015-04-07T12:49:31.000Z</time>
      </trkpt>
      <trkpt lat="45.5889" lon="6.64789">
        <ele>1565.1999511719</ele>
        <time>2015-04-07T12:49:38.000Z</time>
      </trkpt>
      <trkpt lat="45.58886" lon="6.64789">
        <ele>1564.8000488281</ele>
        <time>2015-04-07T12:49:46.000Z</time>
      </trkpt>
      <trkpt lat="45.58886" lon="6.64789">
        <ele>1564.5999755859</ele>
        <time>2015-04-07T12:49:47.000Z</time>
      </trkpt>
      <trkpt lat="45.58884" lon="6.64788">
        <ele>1563.4000244141</ele>
        <time>2015-04-07T12:49:53.000Z</time>
      </trkpt>
      <trkpt lat="45.58882" lon="6.64786">
        <ele>1562.5999755859</ele>
        <time>2015-04-07T12:49:55.000Z</time>
      </trkpt>
      <trkpt lat="45.58881" lon="6.64785">
        <ele>1562.4000244141</ele>
        <time>2015-04-07T12:49:56.000Z</time>
      </trkpt>
      <trkpt lat="45.58871" lon="6.64784">
        <ele>1561.5999755859</ele>
        <time>2015-04-07T12:50:01.000Z</time>
      </trkpt>
      <trkpt lat="45.58871" lon="6.64783">
        <ele>1561</ele>
        <time>2015-04-07T12:50:03.000Z</time>
      </trkpt>
      <trkpt lat="45.5887" lon="6.64781">
        <ele>1561</ele>
        <time>2015-04-07T12:50:06.000Z</time>
      </trkpt>
      <trkpt lat="45.58868" lon="6.64781">
        <ele>1561.4000244141</ele>
        <time>2015-04-07T12:50:16.000Z</time>
      </trkpt>
      <trkpt lat="45.58866" lon="6.64783">
        <ele>1561.4000244141</ele>
        <time>2015-04-07T12:50:25.000Z</time>
      </trkpt>
      <trkpt lat="45.58859" lon="6.64788">
        <ele>1559.5999755859</ele>
        <time>2015-04-07T12:50:30.000Z</time>
      </trkpt>
      <trkpt lat="45.58858" lon="6.64789">
        <ele>1558.8000488281</ele>
        <time>2015-04-07T12:50:31.000Z</time>
      </trkpt>
      <trkpt lat="45.58857" lon="6.6479">
        <ele>1558</ele>
        <time>2015-04-07T12:50:32.000Z</time>
      </trkpt>
      <trkpt lat="45.58855" lon="6.64792">
        <ele>1556</ele>
        <time>2015-04-07T12:50:34.000Z</time>
      </trkpt>
      <trkpt lat="45.58853" lon="6.64793">
        <ele>1555</ele>
        <time>2015-04-07T12:50:35.000Z</time>
      </trkpt>
      <trkpt lat="45.58845" lon="6.64797">
        <ele>1554</ele>
        <time>2015-04-07T12:50:36.000Z</time>
      </trkpt>
      <trkpt lat="45.58839" lon="6.64801">
        <ele>1553.1999511719</ele>
        <time>2015-04-07T12:50:37.000Z</time>
      </trkpt>
      <trkpt lat="45.58827" lon="6.6481">
        <ele>1551.8000488281</ele>
        <time>2015-04-07T12:50:39.000Z</time>
      </trkpt>
      <trkpt lat="45.58811" lon="6.64816">
        <ele>1550.1999511719</ele>
        <time>2015-04-07T12:50:41.000Z</time>
      </trkpt>
      <trkpt lat="45.58804" lon="6.64819">
        <ele>1549.4000244141</ele>
        <time>2015-04-07T12:50:42.000Z</time>
      </trkpt>
      <trkpt lat="45.58799" lon="6.64822">
        <ele>1548.5999755859</ele>
        <time>2015-04-07T12:50:43.000Z</time>
      </trkpt>
      <trkpt lat="45.58788" lon="6.6483">
        <ele>1547</ele>
        <time>2015-04-07T12:50:45.000Z</time>
      </trkpt>
      <trkpt lat="45.58779" lon="6.64839">
        <ele>1545.4000244141</ele>
        <time>2015-04-07T12:50:47.000Z</time>
      </trkpt>
      <trkpt lat="45.5877" lon="6.64849">
        <ele>1543.5999755859</ele>
        <time>2015-04-07T12:50:49.000Z</time>
      </trkpt>
      <trkpt lat="45.58763" lon="6.64852">
        <ele>1542.5999755859</ele>
        <time>2015-04-07T12:50:50.000Z</time>
      </trkpt>
      <trkpt lat="45.58755" lon="6.64855">
        <ele>1540.4000244141</ele>
        <time>2015-04-07T12:50:51.000Z</time>
      </trkpt>
      <trkpt lat="45.5875" lon="6.64858">
        <ele>1539.1999511719</ele>
        <time>2015-04-07T12:50:52.000Z</time>
      </trkpt>
      <trkpt lat="45.58749" lon="6.64862">
        <ele>1537.8000488281</ele>
        <time>2015-04-07T12:50:53.000Z</time>
      </trkpt>
      <trkpt lat="45.58746" lon="6.64866">
        <ele>1536.4000244141</ele>
        <time>2015-04-07T12:50:54.000Z</time>
      </trkpt>
      <trkpt lat="45.58744" lon="6.6487">
        <ele>1535.1999511719</ele>
        <time>2015-04-07T12:50:55.000Z</time>
      </trkpt>
      <trkpt lat="45.58737" lon="6.64877">
        <ele>1533.8000488281</ele>
        <time>2015-04-07T12:50:57.000Z</time>
      </trkpt>
      <trkpt lat="45.58732" lon="6.64882">
        <ele>1532</ele>
        <time>2015-04-07T12:50:59.000Z</time>
      </trkpt>
      <trkpt lat="45.58729" lon="6.64885">
        <ele>1531</ele>
        <time>2015-04-07T12:51:00.000Z</time>
      </trkpt>
      <trkpt lat="45.58723" lon="6.64891">
        <ele>1529.5999755859</ele>
        <time>2015-04-07T12:51:02.000Z</time>
      </trkpt>
      <trkpt lat="45.58717" lon="6.64897">
        <ele>1528.1999511719</ele>
        <time>2015-04-07T12:51:04.000Z</time>
      </trkpt>
      <trkpt lat="45.58712" lon="6.64902">
        <ele>1526.4000244141</ele>
        <time>2015-04-07T12:51:06.000Z</time>
      </trkpt>
      <trkpt lat="45.58706" lon="6.64906">
        <ele>1525</ele>
        <time>2015-04-07T12:51:08.000Z</time>
      </trkpt>
      <trkpt lat="45.58704" lon="6.64909">
        <ele>1523.8000488281</ele>
        <time>2015-04-07T12:51:10.000Z</time>
      </trkpt>
      <trkpt lat="45.58703" lon="6.64909">
        <ele>1523</ele>
        <time>2015-04-07T12:51:11.000Z</time>
      </trkpt>
      <trkpt lat="45.58701" lon="6.6491">
        <ele>1522.1999511719</ele>
        <time>2015-04-07T12:51:12.000Z</time>
      </trkpt>
      <trkpt lat="45.587" lon="6.64913">
        <ele>1520.1999511719</ele>
        <time>2015-04-07T12:51:14.000Z</time>
      </trkpt>
      <trkpt lat="45.58698" lon="6.64914">
        <ele>1518.4000244141</ele>
        <time>2015-04-07T12:51:15.000Z</time>
      </trkpt>
      <trkpt lat="45.58693" lon="6.64917">
        <ele>1516.4000244141</ele>
        <time>2015-04-07T12:51:17.000Z</time>
      </trkpt>
      <trkpt lat="45.58689" lon="6.64924">
        <ele>1514.8000488281</ele>
        <time>2015-04-07T12:51:19.000Z</time>
      </trkpt>
      <trkpt lat="45.58687" lon="6.64932">
        <ele>1513.1999511719</ele>
        <time>2015-04-07T12:51:22.000Z</time>
      </trkpt>
      <trkpt lat="45.58683" lon="6.64937">
        <ele>1512.1999511719</ele>
        <time>2015-04-07T12:51:23.000Z</time>
      </trkpt>
      <trkpt lat="45.58683" lon="6.64937">
        <ele>1511.5999755859</ele>
        <time>2015-04-07T12:51:24.000Z</time>
      </trkpt>
      <trkpt lat="45.58683" lon="6.64937">
        <ele>1510.1999511719</ele>
        <time>2015-04-07T12:51:26.000Z</time>
      </trkpt>
      <trkpt lat="45.58683" lon="6.64937">
        <ele>1509</ele>
        <time>2015-04-07T12:51:29.000Z</time>
      </trkpt>
      <trkpt lat="45.58683" lon="6.64937">
        <ele>1508.4000244141</ele>
        <time>2015-04-07T12:51:31.000Z</time>
      </trkpt>
      <trkpt lat="45.5868" lon="6.64944">
        <ele>1507.8000488281</ele>
        <time>2015-04-07T12:51:34.000Z</time>
      </trkpt>
      <trkpt lat="45.58678" lon="6.64948">
        <ele>1507.4000244141</ele>
        <time>2015-04-07T12:51:41.000Z</time>
      </trkpt>
      <trkpt lat="45.58677" lon="6.64953">
        <ele>1507</ele>
        <time>2015-04-07T12:51:51.000Z</time>
      </trkpt>
      <trkpt lat="45.58677" lon="6.64953">
        <ele>1506.8000488281</ele>
        <time>2015-04-07T12:51:55.000Z</time>
      </trkpt>
      <trkpt lat="45.58677" lon="6.64953">
        <ele>1506.8000488281</ele>
        <time>2015-04-07T12:52:01.000Z</time>
      </trkpt>
      <trkpt lat="45.5867" lon="6.64975">
        <ele>1505.8000488281</ele>
        <time>2015-04-07T12:52:07.000Z</time>
      </trkpt>
      <trkpt lat="45.58661" lon="6.64999">
        <ele>1505</ele>
        <time>2015-04-07T12:52:10.000Z</time>
      </trkpt>
      <trkpt lat="45.58655" lon="6.65008">
        <ele>1504.5999755859</ele>
        <time>2015-04-07T12:52:12.000Z</time>
      </trkpt>
      <trkpt lat="45.58655" lon="6.65011">
        <ele>1503.8000488281</ele>
        <time>2015-04-07T12:52:18.000Z</time>
      </trkpt>
      <trkpt lat="45.58655" lon="6.65011">
        <ele>1503.5999755859</ele>
        <time>2015-04-07T12:52:23.000Z</time>
      </trkpt>
      <trkpt lat="45.5865" lon="6.65023">
        <ele>1503</ele>
        <time>2015-04-07T12:52:27.000Z</time>
      </trkpt>
      <trkpt lat="45.58647" lon="6.65031">
        <ele>1502.1999511719</ele>
        <time>2015-04-07T12:52:29.000Z</time>
      </trkpt>
      <trkpt lat="45.58643" lon="6.65041">
        <ele>1501</ele>
        <time>2015-04-07T12:52:31.000Z</time>
      </trkpt>
      <trkpt lat="45.58642" lon="6.65047">
        <ele>1500.4000244141</ele>
        <time>2015-04-07T12:52:32.000Z</time>
      </trkpt>
      <trkpt lat="45.5864" lon="6.65053">
        <ele>1499.8000488281</ele>
        <time>2015-04-07T12:52:33.000Z</time>
      </trkpt>
      <trkpt lat="45.58636" lon="6.65063">
        <ele>1498.5999755859</ele>
        <time>2015-04-07T12:52:35.000Z</time>
      </trkpt>
      <trkpt lat="45.58633" lon="6.65074">
        <ele>1497.1999511719</ele>
        <time>2015-04-07T12:52:37.000Z</time>
      </trkpt>
      <trkpt lat="45.58629" lon="6.65085">
        <ele>1495.4000244141</ele>
        <time>2015-04-07T12:52:39.000Z</time>
      </trkpt>
      <trkpt lat="45.58628" lon="6.65089">
        <ele>1494.5999755859</ele>
        <time>2015-04-07T12:52:40.000Z</time>
      </trkpt>
      <trkpt lat="45.58627" lon="6.65092">
        <ele>1493.8000488281</ele>
        <time>2015-04-07T12:52:41.000Z</time>
      </trkpt>
      <trkpt lat="45.58625" lon="6.65099">
        <ele>1492.5999755859</ele>
        <time>2015-04-07T12:52:44.000Z</time>
      </trkpt>
      <trkpt lat="45.58621" lon="6.65101">
        <ele>1491.5999755859</ele>
        <time>2015-04-07T12:52:50.000Z</time>
      </trkpt>
      <trkpt lat="45.58619" lon="6.65104">
        <ele>1491.4000244141</ele>
        <time>2015-04-07T12:52:52.000Z</time>
      </trkpt>
      <trkpt lat="45.586" lon="6.65118">
        <ele>1490.4000244141</ele>
        <time>2015-04-07T12:52:59.000Z</time>
      </trkpt>
      <trkpt lat="45.58597" lon="6.6512">
        <ele>1490.1999511719</ele>
        <time>2015-04-07T12:53:00.000Z</time>
      </trkpt>
      <trkpt lat="45.58576" lon="6.65129">
        <ele>1489.4000244141</ele>
        <time>2015-04-07T12:53:05.000Z</time>
      </trkpt>
      <trkpt lat="45.5857" lon="6.6513">
        <ele>1489.1999511719</ele>
        <time>2015-04-07T12:53:06.000Z</time>
      </trkpt>
      <trkpt lat="45.58567" lon="6.6513">
        <ele>1489</ele>
        <time>2015-04-07T12:53:07.000Z</time>
      </trkpt>
      <trkpt lat="45.58555" lon="6.65133">
        <ele>1488</ele>
        <time>2015-04-07T12:53:11.000Z</time>
      </trkpt>
      <trkpt lat="45.5855" lon="6.6513">
        <ele>1487</ele>
        <time>2015-04-07T12:53:15.000Z</time>
      </trkpt>
      <trkpt lat="45.5855" lon="6.6513">
        <ele>1487</ele>
        <time>2015-04-07T12:53:26.000Z</time>
      </trkpt>
      <trkpt lat="45.58544" lon="6.65138">
        <ele>1486.4000244141</ele>
        <time>2015-04-07T12:53:32.000Z</time>
      </trkpt>
      <trkpt lat="45.5854" lon="6.65142">
        <ele>1486</ele>
        <time>2015-04-07T12:53:34.000Z</time>
      </trkpt>
      <trkpt lat="45.58535" lon="6.65151">
        <ele>1484.8000488281</ele>
        <time>2015-04-07T12:53:37.000Z</time>
      </trkpt>
      <trkpt lat="45.58533" lon="6.65153">
        <ele>1484.1999511719</ele>
        <time>2015-04-07T12:53:38.000Z</time>
      </trkpt>
      <trkpt lat="45.58531" lon="6.65154">
        <ele>1483.5999755859</ele>
        <time>2015-04-07T12:53:39.000Z</time>
      </trkpt>
      <trkpt lat="45.58525" lon="6.65156">
        <ele>1482.5999755859</ele>
        <time>2015-04-07T12:53:45.000Z</time>
      </trkpt>
      <trkpt lat="45.58525" lon="6.65156">
        <ele>1482.4000244141</ele>
        <time>2015-04-07T12:53:46.000Z</time>
      </trkpt>
      <trkpt lat="45.5852" lon="6.6516">
        <ele>1481.5999755859</ele>
        <time>2015-04-07T12:53:54.000Z</time>
      </trkpt>
      <trkpt lat="45.58519" lon="6.65162">
        <ele>1481.4000244141</ele>
        <time>2015-04-07T12:53:55.000Z</time>
      </trkpt>
      <trkpt lat="45.58513" lon="6.65171">
        <ele>1480</ele>
        <time>2015-04-07T12:53:59.000Z</time>
      </trkpt>
      <trkpt lat="45.58507" lon="6.65176">
        <ele>1478.8000488281</ele>
        <time>2015-04-07T12:54:01.000Z</time>
      </trkpt>
      <trkpt lat="45.58501" lon="6.65175">
        <ele>1477.1999511719</ele>
        <time>2015-04-07T12:54:03.000Z</time>
      </trkpt>
      <trkpt lat="45.58492" lon="6.65175">
        <ele>1476.1999511719</ele>
        <time>2015-04-07T12:54:06.000Z</time>
      </trkpt>
      <trkpt lat="45.58491" lon="6.65178">
        <ele>1475.4000244141</ele>
        <time>2015-04-07T12:54:09.000Z</time>
      </trkpt>
      <trkpt lat="45.5849" lon="6.65178">
        <ele>1475</ele>
        <time>2015-04-07T12:54:12.000Z</time>
      </trkpt>
      <trkpt lat="45.58488" lon="6.65179">
        <ele>1474.5999755859</ele>
        <time>2015-04-07T12:54:20.000Z</time>
      </trkpt>
      <trkpt lat="45.58478" lon="6.65181">
        <ele>1474</ele>
        <time>2015-04-07T12:54:26.000Z</time>
      </trkpt>
      <trkpt lat="45.58475" lon="6.6518">
        <ele>1472.8000488281</ele>
        <time>2015-04-07T12:54:27.000Z</time>
      </trkpt>
      <trkpt lat="45.58468" lon="6.65174">
        <ele>1471.5999755859</ele>
        <time>2015-04-07T12:54:32.000Z</time>
      </trkpt>
      <trkpt lat="45.58467" lon="6.65174">
        <ele>1471.4000244141</ele>
        <time>2015-04-07T12:54:34.000Z</time>
      </trkpt>
      <trkpt lat="45.58468" lon="6.65177">
        <ele>1470.8000488281</ele>
        <time>2015-04-07T12:54:43.000Z</time>
      </trkpt>
      <trkpt lat="45.5847" lon="6.65176">
        <ele>1471.1999511719</ele>
        <time>2015-04-07T12:54:55.000Z</time>
      </trkpt>
      <trkpt lat="45.58471" lon="6.65175">
        <ele>1471.1999511719</ele>
        <time>2015-04-07T12:55:03.000Z</time>
      </trkpt>
      <trkpt lat="45.5847" lon="6.65175">
        <ele>1471</ele>
        <time>2015-04-07T12:55:14.000Z</time>
      </trkpt>
      <trkpt lat="45.5847" lon="6.65175">
        <ele>1471</ele>
        <time>2015-04-07T12:55:28.000Z</time>
      </trkpt>
      <trkpt lat="45.5847" lon="6.65175">
        <ele>1470.5999755859</ele>
        <time>2015-04-07T12:55:34.000Z</time>
      </trkpt>
      <trkpt lat="45.58468" lon="6.65174">
        <ele>1471.1999511719</ele>
        <time>2015-04-07T12:55:43.000Z</time>
      </trkpt>
      <trkpt lat="45.58449" lon="6.6517">
        <ele>1470.5999755859</ele>
        <time>2015-04-07T12:55:48.000Z</time>
      </trkpt>
      <trkpt lat="45.58444" lon="6.65171">
        <ele>1470</ele>
        <time>2015-04-07T12:55:50.000Z</time>
      </trkpt>
      <trkpt lat="45.58441" lon="6.65171">
        <ele>1469.5999755859</ele>
        <time>2015-04-07T12:55:52.000Z</time>
      </trkpt>
      <trkpt lat="45.58436" lon="6.65171">
        <ele>1468.4000244141</ele>
        <time>2015-04-07T12:55:55.000Z</time>
      </trkpt>
      <trkpt lat="45.58431" lon="6.65173">
        <ele>1467.1999511719</ele>
        <time>2015-04-07T12:55:59.000Z</time>
      </trkpt>
      <trkpt lat="45.58423" lon="6.65171">
        <ele>1466.1999511719</ele>
        <time>2015-04-07T12:56:05.000Z</time>
      </trkpt>
      <trkpt lat="45.58422" lon="6.65171">
        <ele>1466</ele>
        <time>2015-04-07T12:56:06.000Z</time>
      </trkpt>
      <trkpt lat="45.58419" lon="6.65168">
        <ele>1465</ele>
        <time>2015-04-07T12:56:10.000Z</time>
      </trkpt>
      <trkpt lat="45.58419" lon="6.65168">
        <ele>1464.8000488281</ele>
        <time>2015-04-07T12:56:12.000Z</time>
      </trkpt>
      <trkpt lat="45.58418" lon="6.65169">
        <ele>1464.1999511719</ele>
        <time>2015-04-07T12:56:18.000Z</time>
      </trkpt>
      <trkpt lat="45.58418" lon="6.65169">
        <ele>1464</ele>
        <time>2015-04-07T12:56:22.000Z</time>
      </trkpt>
      <trkpt lat="45.58417" lon="6.65169">
        <ele>1463.5999755859</ele>
        <time>2015-04-07T12:56:31.000Z</time>
      </trkpt>
      <trkpt lat="45.58412" lon="6.65168">
        <ele>1463.4000244141</ele>
        <time>2015-04-07T12:56:37.000Z</time>
      </trkpt>
      <trkpt lat="45.58408" lon="6.65167">
        <ele>1463</ele>
        <time>2015-04-07T12:56:41.000Z</time>
      </trkpt>
      <trkpt lat="45.58406" lon="6.65167">
        <ele>1462.5999755859</ele>
        <time>2015-04-07T12:56:43.000Z</time>
      </trkpt>
      <trkpt lat="45.58402" lon="6.65165">
        <ele>1461.8000488281</ele>
        <time>2015-04-07T12:56:48.000Z</time>
      </trkpt>
      <trkpt lat="45.58399" lon="6.65165">
        <ele>1461.4000244141</ele>
        <time>2015-04-07T12:56:50.000Z</time>
      </trkpt>
      <trkpt lat="45.58393" lon="6.65165">
        <ele>1460.8000488281</ele>
        <time>2015-04-07T12:56:54.000Z</time>
      </trkpt>
      <trkpt lat="45.5839" lon="6.65166">
        <ele>1459.8000488281</ele>
        <time>2015-04-07T12:56:57.000Z</time>
      </trkpt>
      <trkpt lat="45.5839" lon="6.65166">
        <ele>1459.5999755859</ele>
        <time>2015-04-07T12:56:58.000Z</time>
      </trkpt>
      <trkpt lat="45.58384" lon="6.65162">
        <ele>1458.4000244141</ele>
        <time>2015-04-07T12:57:04.000Z</time>
      </trkpt>
      <trkpt lat="45.58383" lon="6.65161">
        <ele>1458.1999511719</ele>
        <time>2015-04-07T12:57:05.000Z</time>
      </trkpt>
      <trkpt lat="45.58381" lon="6.6516">
        <ele>1457.4000244141</ele>
        <time>2015-04-07T12:57:08.000Z</time>
      </trkpt>
      <trkpt lat="45.58378" lon="6.65157">
        <ele>1456.8000488281</ele>
        <time>2015-04-07T12:57:11.000Z</time>
      </trkpt>
      <trkpt lat="45.58375" lon="6.65157">
        <ele>1456.4000244141</ele>
        <time>2015-04-07T12:57:14.000Z</time>
      </trkpt>
      <trkpt lat="45.58373" lon="6.65156">
        <ele>1455</ele>
        <time>2015-04-07T12:57:17.000Z</time>
      </trkpt>
      <trkpt lat="45.58371" lon="6.65155">
        <ele>1454.5999755859</ele>
        <time>2015-04-07T12:57:19.000Z</time>
      </trkpt>
      <trkpt lat="45.58368" lon="6.65154">
        <ele>1454</ele>
        <time>2015-04-07T12:57:21.000Z</time>
      </trkpt>
      <trkpt lat="45.58364" lon="6.65153">
        <ele>1453</ele>
        <time>2015-04-07T12:57:25.000Z</time>
      </trkpt>
      <trkpt lat="45.58361" lon="6.65153">
        <ele>1452.4000244141</ele>
        <time>2015-04-07T12:57:27.000Z</time>
      </trkpt>
      <trkpt lat="45.58358" lon="6.65153">
        <ele>1451.8000488281</ele>
        <time>2015-04-07T12:57:30.000Z</time>
      </trkpt>
      <trkpt lat="45.58353" lon="6.65152">
        <ele>1450.5999755859</ele>
        <time>2015-04-07T12:57:34.000Z</time>
      </trkpt>
      <trkpt lat="45.58349" lon="6.65149">
        <ele>1449.8000488281</ele>
        <time>2015-04-07T12:57:37.000Z</time>
      </trkpt>
      <trkpt lat="45.58347" lon="6.65148">
        <ele>1449.5999755859</ele>
        <time>2015-04-07T12:57:38.000Z</time>
      </trkpt>
      <trkpt lat="45.58343" lon="6.65148">
        <ele>1448.5999755859</ele>
        <time>2015-04-07T12:57:42.000Z</time>
      </trkpt>
      <trkpt lat="45.58342" lon="6.65148">
        <ele>1448</ele>
        <time>2015-04-07T12:57:45.000Z</time>
      </trkpt>
      <trkpt lat="45.58341" lon="6.65147">
        <ele>1447.4000244141</ele>
        <time>2015-04-07T12:57:48.000Z</time>
      </trkpt>
      <trkpt lat="45.58336" lon="6.65148">
        <ele>1447</ele>
        <time>2015-04-07T12:57:52.000Z</time>
      </trkpt>
      <trkpt lat="45.58333" lon="6.65149">
        <ele>1446.5999755859</ele>
        <time>2015-04-07T12:57:54.000Z</time>
      </trkpt>
      <trkpt lat="45.58331" lon="6.65151">
        <ele>1446.4000244141</ele>
        <time>2015-04-07T12:57:55.000Z</time>
      </trkpt>
      <trkpt lat="45.58328" lon="6.65151">
        <ele>1445.8000488281</ele>
        <time>2015-04-07T12:57:57.000Z</time>
      </trkpt>
      <trkpt lat="45.58325" lon="6.6515">
        <ele>1445.1999511719</ele>
        <time>2015-04-07T12:58:00.000Z</time>
      </trkpt>
      <trkpt lat="45.5832" lon="6.65148">
        <ele>1444</ele>
        <time>2015-04-07T12:58:06.000Z</time>
      </trkpt>
      <trkpt lat="45.58314" lon="6.65147">
        <ele>1443.5999755859</ele>
        <time>2015-04-07T12:58:12.000Z</time>
      </trkpt>
      <trkpt lat="45.58311" lon="6.65147">
        <ele>1443</ele>
        <time>2015-04-07T12:58:15.000Z</time>
      </trkpt>
      <trkpt lat="45.58308" lon="6.65143">
        <ele>1441.8000488281</ele>
        <time>2015-04-07T12:58:19.000Z</time>
      </trkpt>
      <trkpt lat="45.58304" lon="6.65141">
        <ele>1441.4000244141</ele>
        <time>2015-04-07T12:58:24.000Z</time>
      </trkpt>
      <trkpt lat="45.583" lon="6.65141">
        <ele>1440.5999755859</ele>
        <time>2015-04-07T12:58:27.000Z</time>
      </trkpt>
      <trkpt lat="45.58293" lon="6.65142">
        <ele>1439.5999755859</ele>
        <time>2015-04-07T12:58:33.000Z</time>
      </trkpt>
      <trkpt lat="45.58292" lon="6.65142">
        <ele>1439.4000244141</ele>
        <time>2015-04-07T12:58:34.000Z</time>
      </trkpt>
      <trkpt lat="45.58286" lon="6.65143">
        <ele>1438.4000244141</ele>
        <time>2015-04-07T12:58:39.000Z</time>
      </trkpt>
      <trkpt lat="45.58283" lon="6.65143">
        <ele>1437.5999755859</ele>
        <time>2015-04-07T12:58:42.000Z</time>
      </trkpt>
      <trkpt lat="45.58282" lon="6.65143">
        <ele>1437.4000244141</ele>
        <time>2015-04-07T12:58:43.000Z</time>
      </trkpt>
      <trkpt lat="45.58275" lon="6.65144">
        <ele>1436.1999511719</ele>
        <time>2015-04-07T12:58:48.000Z</time>
      </trkpt>
      <trkpt lat="45.58273" lon="6.65145">
        <ele>1436</ele>
        <time>2015-04-07T12:58:50.000Z</time>
      </trkpt>
      <trkpt lat="45.58265" lon="6.65146">
        <ele>1435</ele>
        <time>2015-04-07T12:58:56.000Z</time>
      </trkpt>
      <trkpt lat="45.58262" lon="6.65146">
        <ele>1434.5999755859</ele>
        <time>2015-04-07T12:58:58.000Z</time>
      </trkpt>
      <trkpt lat="45.58259" lon="6.65145">
        <ele>1434</ele>
        <time>2015-04-07T12:59:01.000Z</time>
      </trkpt>
      <trkpt lat="45.58256" lon="6.65144">
        <ele>1433.4000244141</ele>
        <time>2015-04-07T12:59:05.000Z</time>
      </trkpt>
      <trkpt lat="45.58253" lon="6.65144">
        <ele>1432.8000488281</ele>
        <time>2015-04-07T12:59:07.000Z</time>
      </trkpt>
      <trkpt lat="45.58247" lon="6.65143">
        <ele>1431.8000488281</ele>
        <time>2015-04-07T12:59:12.000Z</time>
      </trkpt>
      <trkpt lat="45.58246" lon="6.65143">
        <ele>1431.5999755859</ele>
        <time>2015-04-07T12:59:13.000Z</time>
      </trkpt>
      <trkpt lat="45.58241" lon="6.65143">
        <ele>1430.5999755859</ele>
        <time>2015-04-07T12:59:17.000Z</time>
      </trkpt>
      <trkpt lat="45.58236" lon="6.65142">
        <ele>1430.1999511719</ele>
        <time>2015-04-07T12:59:21.000Z</time>
      </trkpt>
      <trkpt lat="45.5823" lon="6.65139">
        <ele>1429.4000244141</ele>
        <time>2015-04-07T12:59:26.000Z</time>
      </trkpt>
      <trkpt lat="45.58226" lon="6.65137">
        <ele>1429</ele>
        <time>2015-04-07T12:59:29.000Z</time>
      </trkpt>
      <trkpt lat="45.58222" lon="6.65137">
        <ele>1428.4000244141</ele>
        <time>2015-04-07T12:59:32.000Z</time>
      </trkpt>
      <trkpt lat="45.58216" lon="6.65137">
        <ele>1427.5999755859</ele>
        <time>2015-04-07T12:59:36.000Z</time>
      </trkpt>
      <trkpt lat="45.58212" lon="6.65136">
        <ele>1427.1999511719</ele>
        <time>2015-04-07T12:59:38.000Z</time>
      </trkpt>
      <trkpt lat="45.58201" lon="6.65133">
        <ele>1426.1999511719</ele>
        <time>2015-04-07T12:59:44.000Z</time>
      </trkpt>
      <trkpt lat="45.58199" lon="6.65133">
        <ele>1426</ele>
        <time>2015-04-07T12:59:45.000Z</time>
      </trkpt>
      <trkpt lat="45.58191" lon="6.65136">
        <ele>1425</ele>
        <time>2015-04-07T12:59:51.000Z</time>
      </trkpt>
      <trkpt lat="45.58185" lon="6.65137">
        <ele>1423.8000488281</ele>
        <time>2015-04-07T12:59:55.000Z</time>
      </trkpt>
      <trkpt lat="45.58181" lon="6.65139">
        <ele>1423</ele>
        <time>2015-04-07T12:59:59.000Z</time>
      </trkpt>
      <trkpt lat="45.5818" lon="6.6514">
        <ele>1422.8000488281</ele>
        <time>2015-04-07T13:00:00.000Z</time>
      </trkpt>
      <trkpt lat="45.58175" lon="6.65142">
        <ele>1421.5999755859</ele>
        <time>2015-04-07T13:00:04.000Z</time>
      </trkpt>
      <trkpt lat="45.58172" lon="6.65142">
        <ele>1421.1999511719</ele>
        <time>2015-04-07T13:00:06.000Z</time>
      </trkpt>
      <trkpt lat="45.58169" lon="6.65144">
        <ele>1420.5999755859</ele>
        <time>2015-04-07T13:00:08.000Z</time>
      </trkpt>
      <trkpt lat="45.58164" lon="6.65145">
        <ele>1419.5999755859</ele>
        <time>2015-04-07T13:00:11.000Z</time>
      </trkpt>
      <trkpt lat="45.58162" lon="6.65145">
        <ele>1419.4000244141</ele>
        <time>2015-04-07T13:00:12.000Z</time>
      </trkpt>
      <trkpt lat="45.58158" lon="6.65147">
        <ele>1418.4000244141</ele>
        <time>2015-04-07T13:00:16.000Z</time>
      </trkpt>
      <trkpt lat="45.58156" lon="6.65148">
        <ele>1417.8000488281</ele>
        <time>2015-04-07T13:00:18.000Z</time>
      </trkpt>
      <trkpt lat="45.58151" lon="6.65149">
        <ele>1417.1999511719</ele>
        <time>2015-04-07T13:00:22.000Z</time>
      </trkpt>
      <trkpt lat="45.58148" lon="6.65149">
        <ele>1416.5999755859</ele>
        <time>2015-04-07T13:00:24.000Z</time>
      </trkpt>
      <trkpt lat="45.58145" lon="6.65151">
        <ele>1416</ele>
        <time>2015-04-07T13:00:26.000Z</time>
      </trkpt>
      <trkpt lat="45.58142" lon="6.65154">
        <ele>1415</ele>
        <time>2015-04-07T13:00:29.000Z</time>
      </trkpt>
      <trkpt lat="45.58143" lon="6.65155">
        <ele>1414.5999755859</ele>
        <time>2015-04-07T13:00:31.000Z</time>
      </trkpt>
      <trkpt lat="45.5814" lon="6.65157">
        <ele>1413.8000488281</ele>
        <time>2015-04-07T13:00:35.000Z</time>
      </trkpt>
      <trkpt lat="45.58136" lon="6.65158">
        <ele>1413.8000488281</ele>
        <time>2015-04-07T13:00:38.000Z</time>
      </trkpt>
      <trkpt lat="45.58127" lon="6.65167">
        <ele>1412.5999755859</ele>
        <time>2015-04-07T13:00:44.000Z</time>
      </trkpt>
      <trkpt lat="45.58123" lon="6.65171">
        <ele>1411.4000244141</ele>
        <time>2015-04-07T13:00:48.000Z</time>
      </trkpt>
      <trkpt lat="45.5812" lon="6.65176">
        <ele>1410.4000244141</ele>
        <time>2015-04-07T13:00:51.000Z</time>
      </trkpt>
      <trkpt lat="45.58115" lon="6.65186">
        <ele>1409.1999511719</ele>
        <time>2015-04-07T13:00:57.000Z</time>
      </trkpt>
      <trkpt lat="45.58114" lon="6.65187">
        <ele>1408.8000488281</ele>
        <time>2015-04-07T13:00:58.000Z</time>
      </trkpt>
      <trkpt lat="45.58112" lon="6.6519">
        <ele>1408</ele>
        <time>2015-04-07T13:01:01.000Z</time>
      </trkpt>
      <trkpt lat="45.58109" lon="6.65197">
        <ele>1407.1999511719</ele>
        <time>2015-04-07T13:01:05.000Z</time>
      </trkpt>
      <trkpt lat="45.58109" lon="6.65198">
        <ele>1407</ele>
        <time>2015-04-07T13:01:06.000Z</time>
      </trkpt>
      <trkpt lat="45.58101" lon="6.65204">
        <ele>1405.8000488281</ele>
        <time>2015-04-07T13:01:11.000Z</time>
      </trkpt>
      <trkpt lat="45.58097" lon="6.65206">
        <ele>1404.5999755859</ele>
        <time>2015-04-07T13:01:15.000Z</time>
      </trkpt>
      <trkpt lat="45.58091" lon="6.65215">
        <ele>1403.8000488281</ele>
        <time>2015-04-07T13:01:19.000Z</time>
      </trkpt>
      <trkpt lat="45.58088" lon="6.65217">
        <ele>1403.4000244141</ele>
        <time>2015-04-07T13:01:21.000Z</time>
      </trkpt>
      <trkpt lat="45.58085" lon="6.65218">
        <ele>1403</ele>
        <time>2015-04-07T13:01:24.000Z</time>
      </trkpt>
      <trkpt lat="45.58082" lon="6.6522">
        <ele>1402.4000244141</ele>
        <time>2015-04-07T13:01:26.000Z</time>
      </trkpt>
      <trkpt lat="45.58078" lon="6.65222">
        <ele>1401.8000488281</ele>
        <time>2015-04-07T13:01:30.000Z</time>
      </trkpt>
      <trkpt lat="45.58072" lon="6.65229">
        <ele>1401.1999511719</ele>
        <time>2015-04-07T13:01:36.000Z</time>
      </trkpt>
      <trkpt lat="45.58068" lon="6.65232">
        <ele>1400.1999511719</ele>
        <time>2015-04-07T13:01:40.000Z</time>
      </trkpt>
      <trkpt lat="45.58065" lon="6.65235">
        <ele>1400</ele>
        <time>2015-04-07T13:01:42.000Z</time>
      </trkpt>
      <trkpt lat="45.58061" lon="6.65241">
        <ele>1399.5999755859</ele>
        <time>2015-04-07T13:01:48.000Z</time>
      </trkpt>
      <trkpt lat="45.58061" lon="6.65241">
        <ele>1399.1999511719</ele>
        <time>2015-04-07T13:01:53.000Z</time>
      </trkpt>
      <trkpt lat="45.58061" lon="6.65241">
        <ele>1398.8000488281</ele>
        <time>2015-04-07T13:01:59.000Z</time>
      </trkpt>
      <trkpt lat="45.58061" lon="6.65241">
        <ele>1398.8000488281</ele>
        <time>2015-04-07T13:02:08.000Z</time>
      </trkpt>
      <trkpt lat="45.58061" lon="6.65241">
        <ele>1399</ele>
        <time>2015-04-07T13:02:18.000Z</time>
      </trkpt>
    </trkseg>
  </trk>
</gpx>